<?xml version='1.0' encoding='UTF-8'?><gpx version="1.1" creator="JPX - https://github.com/jenetics/jpx" xmlns="http://www.topografix.com/GPX/1/1"><trk><trkseg><trkpt lat="48.0081847" lon="-1.1833397"><ele>90.0</ele><time>2026-05-02T06:22:24.895Z</time></trkpt><trkpt lat="48.0081225" lon="-1.1833112"><ele>90.0</ele><time>2026-05-02T06:51:17.139Z</time></trkpt><trkpt lat="48.0081549" lon="-1.183211"><ele>90.0</ele><time>2026-05-02T06:51:26.14Z</time></trkpt><trkpt lat="48.008235" lon="-1.1832114"><ele>90.0</ele><time>2026-05-02T06:51:28.14Z</time></trkpt><trkpt lat="48.0083335" lon="-1.1832183"><ele>90.0</ele><time>2026-05-02T06:51:30.141Z</time></trkpt><trkpt lat="48.0084512" lon="-1.1832218"><ele>90.0</ele><time>2026-05-02T06:51:32.14Z</time></trkpt><trkpt lat="48.0085642" lon="-1.1832235"><ele>90.4</ele><time>2026-05-02T06:51:34.14Z</time></trkpt><trkpt lat="48.0086913" lon="-1.1832268"><ele>90.8</ele><time>2026-05-02T06:51:36.142Z</time></trkpt><trkpt lat="48.0087684" lon="-1.1832271"><ele>91.19999999999999</ele><time>2026-05-02T06:51:37.139Z</time></trkpt><trkpt lat="48.0088462" lon="-1.1832253"><ele>91.6</ele><time>2026-05-02T06:51:38.139Z</time></trkpt><trkpt lat="48.0089173" lon="-1.1832238"><ele>92.0</ele><time>2026-05-02T06:51:39.146Z</time></trkpt><trkpt lat="48.0090299" lon="-1.183216"><ele>92.0</ele><time>2026-05-02T06:51:41.139Z</time></trkpt><trkpt lat="48.0091166" lon="-1.1832151"><ele>92.0</ele><time>2026-05-02T06:51:43.14Z</time></trkpt><trkpt lat="48.0091833" lon="-1.1832221"><ele>92.0</ele><time>2026-05-02T06:52:12.139Z</time></trkpt><trkpt lat="48.0092053" lon="-1.1833347"><ele>92.0</ele><time>2026-05-02T06:52:14.141Z</time></trkpt><trkpt lat="48.0091998" lon="-1.1835436"><ele>92.0</ele><time>2026-05-02T06:52:16.14Z</time></trkpt><trkpt lat="48.0091951" lon="-1.1836678"><ele>92.0</ele><time>2026-05-02T06:52:17.14Z</time></trkpt><trkpt lat="48.0091929" lon="-1.1838015"><ele>92.0</ele><time>2026-05-02T06:52:18.14Z</time></trkpt><trkpt lat="48.0091895" lon="-1.1839467"><ele>92.0</ele><time>2026-05-02T06:52:19.141Z</time></trkpt><trkpt lat="48.0091846" lon="-1.1841003"><ele>92.0</ele><time>2026-05-02T06:52:20.141Z</time></trkpt><trkpt lat="48.0091796" lon="-1.1842637"><ele>92.0</ele><time>2026-05-02T06:52:21.143Z</time></trkpt><trkpt lat="48.0091717" lon="-1.1844371"><ele>92.0</ele><time>2026-05-02T06:52:22.141Z</time></trkpt><trkpt lat="48.0091648" lon="-1.1846218"><ele>92.0</ele><time>2026-05-02T06:52:23.14Z</time></trkpt><trkpt lat="48.0091569" lon="-1.1848201"><ele>92.0</ele><time>2026-05-02T06:52:24.141Z</time></trkpt><trkpt lat="48.0091481" lon="-1.1850264"><ele>92.0</ele><time>2026-05-02T06:52:25.142Z</time></trkpt><trkpt lat="48.009138" lon="-1.1852254"><ele>91.5</ele><time>2026-05-02T06:52:26.143Z</time></trkpt><trkpt lat="48.0091313" lon="-1.1854187"><ele>91.0</ele><time>2026-05-02T06:52:27.145Z</time></trkpt><trkpt lat="48.0091232" lon="-1.1856083"><ele>90.5</ele><time>2026-05-02T06:52:28.141Z</time></trkpt><trkpt lat="48.0091149" lon="-1.1857907"><ele>90.0</ele><time>2026-05-02T06:52:29.141Z</time></trkpt><trkpt lat="48.009108" lon="-1.1859687"><ele>90.0</ele><time>2026-05-02T06:52:30.141Z</time></trkpt><trkpt lat="48.0091014" lon="-1.186146"><ele>90.0</ele><time>2026-05-02T06:52:31.141Z</time></trkpt><trkpt lat="48.0090946" lon="-1.186333"><ele>90.0</ele><time>2026-05-02T06:52:32.141Z</time></trkpt><trkpt lat="48.0090865" lon="-1.1865267"><ele>90.0</ele><time>2026-05-02T06:52:33.141Z</time></trkpt><trkpt lat="48.0090764" lon="-1.1867276"><ele>89.5</ele><time>2026-05-02T06:52:34.141Z</time></trkpt><trkpt lat="48.0090599" lon="-1.1869375"><ele>89.0</ele><time>2026-05-02T06:52:35.14Z</time></trkpt><trkpt lat="48.009034" lon="-1.1871555"><ele>88.5</ele><time>2026-05-02T06:52:36.14Z</time></trkpt><trkpt lat="48.0089968" lon="-1.1873821"><ele>88.0</ele><time>2026-05-02T06:52:37.139Z</time></trkpt><trkpt lat="48.0089549" lon="-1.1876091"><ele>88.0</ele><time>2026-05-02T06:52:38.139Z</time></trkpt><trkpt lat="48.0089079" lon="-1.1878378"><ele>88.0</ele><time>2026-05-02T06:52:39.14Z</time></trkpt><trkpt lat="48.0088597" lon="-1.1880696"><ele>88.0</ele><time>2026-05-02T06:52:40.139Z</time></trkpt><trkpt lat="48.0088085" lon="-1.1883041"><ele>88.0</ele><time>2026-05-02T06:52:41.139Z</time></trkpt><trkpt lat="48.008755" lon="-1.1885381"><ele>88.0</ele><time>2026-05-02T06:52:42.139Z</time></trkpt><trkpt lat="48.008703" lon="-1.1887745"><ele>88.0</ele><time>2026-05-02T06:52:43.139Z</time></trkpt><trkpt lat="48.0086542" lon="-1.1890197"><ele>88.0</ele><time>2026-05-02T06:52:44.148Z</time></trkpt><trkpt lat="48.0086034" lon="-1.1892637"><ele>88.0</ele><time>2026-05-02T06:52:45.147Z</time></trkpt><trkpt lat="48.0085563" lon="-1.1895036"><ele>88.0</ele><time>2026-05-02T06:52:46.14Z</time></trkpt><trkpt lat="48.0085095" lon="-1.1897495"><ele>88.33333333333333</ele><time>2026-05-02T06:52:47.14Z</time></trkpt><trkpt lat="48.0084702" lon="-1.1900009"><ele>88.66666666666667</ele><time>2026-05-02T06:52:48.14Z</time></trkpt><trkpt lat="48.0084466" lon="-1.1902574"><ele>89.0</ele><time>2026-05-02T06:52:49.14Z</time></trkpt><trkpt lat="48.0084439" lon="-1.190519"><ele>89.0</ele><time>2026-05-02T06:52:50.143Z</time></trkpt><trkpt lat="48.0084607" lon="-1.1907877"><ele>89.0</ele><time>2026-05-02T06:52:51.14Z</time></trkpt><trkpt lat="48.0084904" lon="-1.191066"><ele>89.0</ele><time>2026-05-02T06:52:52.142Z</time></trkpt><trkpt lat="48.0085285" lon="-1.1913615"><ele>89.66666666666667</ele><time>2026-05-02T06:52:53.14Z</time></trkpt><trkpt lat="48.0085725" lon="-1.1916796"><ele>90.33333333333333</ele><time>2026-05-02T06:52:54.14Z</time></trkpt><trkpt lat="48.008622" lon="-1.1920123"><ele>91.0</ele><time>2026-05-02T06:52:55.141Z</time></trkpt><trkpt lat="48.0086757" lon="-1.1923316"><ele>91.33333333333333</ele><time>2026-05-02T06:52:56.164Z</time></trkpt><trkpt lat="48.0087397" lon="-1.19262"><ele>91.66666666666667</ele><time>2026-05-02T06:52:57.141Z</time></trkpt><trkpt lat="48.0088167" lon="-1.192889"><ele>92.0</ele><time>2026-05-02T06:52:58.141Z</time></trkpt><trkpt lat="48.0088991" lon="-1.1931301"><ele>92.66666666666667</ele><time>2026-05-02T06:52:59.141Z</time></trkpt><trkpt lat="48.008983" lon="-1.1933462"><ele>93.33333333333333</ele><time>2026-05-02T06:53:00.147Z</time></trkpt><trkpt lat="48.0090634" lon="-1.1935468"><ele>94.0</ele><time>2026-05-02T06:53:01.139Z</time></trkpt><trkpt lat="48.0091325" lon="-1.1937351"><ele>94.5</ele><time>2026-05-02T06:53:02.14Z</time></trkpt><trkpt lat="48.0091955" lon="-1.1939198"><ele>95.0</ele><time>2026-05-02T06:53:03.141Z</time></trkpt><trkpt lat="48.0092522" lon="-1.1941074"><ele>95.5</ele><time>2026-05-02T06:53:04.139Z</time></trkpt><trkpt lat="48.0092929" lon="-1.1943074"><ele>96.0</ele><time>2026-05-02T06:53:05.139Z</time></trkpt><trkpt lat="48.0093193" lon="-1.1945119"><ele>96.0</ele><time>2026-05-02T06:53:06.139Z</time></trkpt><trkpt lat="48.0093328" lon="-1.1947113"><ele>96.0</ele><time>2026-05-02T06:53:07.139Z</time></trkpt><trkpt lat="48.0093415" lon="-1.1949095"><ele>96.0</ele><time>2026-05-02T06:53:08.14Z</time></trkpt><trkpt lat="48.0093497" lon="-1.1951053"><ele>96.0</ele><time>2026-05-02T06:53:09.143Z</time></trkpt><trkpt lat="48.0093552" lon="-1.1952974"><ele>96.5</ele><time>2026-05-02T06:53:10.14Z</time></trkpt><trkpt lat="48.0093565" lon="-1.195478"><ele>97.0</ele><time>2026-05-02T06:53:11.139Z</time></trkpt><trkpt lat="48.0093609" lon="-1.1956587"><ele>97.5</ele><time>2026-05-02T06:53:12.14Z</time></trkpt><trkpt lat="48.009371" lon="-1.195844"><ele>98.0</ele><time>2026-05-02T06:53:13.14Z</time></trkpt><trkpt lat="48.0093848" lon="-1.196031"><ele>98.0</ele><time>2026-05-02T06:53:14.14Z</time></trkpt><trkpt lat="48.0093997" lon="-1.1962191"><ele>98.0</ele><time>2026-05-02T06:53:15.141Z</time></trkpt><trkpt lat="48.0094196" lon="-1.1964213"><ele>98.0</ele><time>2026-05-02T06:53:16.141Z</time></trkpt><trkpt lat="48.0094384" lon="-1.1966309"><ele>98.0</ele><time>2026-05-02T06:53:17.141Z</time></trkpt><trkpt lat="48.0094567" lon="-1.1968529"><ele>97.33333333333333</ele><time>2026-05-02T06:53:18.139Z</time></trkpt><trkpt lat="48.0094779" lon="-1.1970964"><ele>96.66666666666666</ele><time>2026-05-02T06:53:19.14Z</time></trkpt><trkpt lat="48.0095076" lon="-1.1973472"><ele>96.0</ele><time>2026-05-02T06:53:20.139Z</time></trkpt><trkpt lat="48.0095539" lon="-1.1976024"><ele>96.0</ele><time>2026-05-02T06:53:21.165Z</time></trkpt><trkpt lat="48.009621" lon="-1.1978563"><ele>96.0</ele><time>2026-05-02T06:53:22.141Z</time></trkpt><trkpt lat="48.0097108" lon="-1.1981089"><ele>96.0</ele><time>2026-05-02T06:53:23.139Z</time></trkpt><trkpt lat="48.0098196" lon="-1.1983547"><ele>96.0</ele><time>2026-05-02T06:53:24.14Z</time></trkpt><trkpt lat="48.0099341" lon="-1.1985841"><ele>96.0</ele><time>2026-05-02T06:53:25.14Z</time></trkpt><trkpt lat="48.0100422" lon="-1.1988004"><ele>96.0</ele><time>2026-05-02T06:53:26.14Z</time></trkpt><trkpt lat="48.0101392" lon="-1.1989974"><ele>95.5</ele><time>2026-05-02T06:53:27.139Z</time></trkpt><trkpt lat="48.0102239" lon="-1.1991766"><ele>95.0</ele><time>2026-05-02T06:53:28.141Z</time></trkpt><trkpt lat="48.0102972" lon="-1.1993329"><ele>94.5</ele><time>2026-05-02T06:53:29.139Z</time></trkpt><trkpt lat="48.0103601" lon="-1.199467"><ele>94.0</ele><time>2026-05-02T06:53:30.14Z</time></trkpt><trkpt lat="48.010411" lon="-1.1995732"><ele>94.0</ele><time>2026-05-02T06:53:31.14Z</time></trkpt><trkpt lat="48.0104514" lon="-1.1996614"><ele>94.0</ele><time>2026-05-02T06:53:32.139Z</time></trkpt><trkpt lat="48.010506" lon="-1.1997776"><ele>94.0</ele><time>2026-05-02T06:53:34.141Z</time></trkpt><trkpt lat="48.0105197" lon="-1.1998911"><ele>94.0</ele><time>2026-05-02T06:53:38.139Z</time></trkpt><trkpt lat="48.0104492" lon="-1.1999953"><ele>94.0</ele><time>2026-05-02T06:53:40.14Z</time></trkpt><trkpt lat="48.0103798" lon="-1.2000425"><ele>94.0</ele><time>2026-05-02T06:53:41.139Z</time></trkpt><trkpt lat="48.0102884" lon="-1.2000876"><ele>94.25</ele><time>2026-05-02T06:53:42.139Z</time></trkpt><trkpt lat="48.0101735" lon="-1.2001276"><ele>94.5</ele><time>2026-05-02T06:53:43.139Z</time></trkpt><trkpt lat="48.010055" lon="-1.2001615"><ele>94.75</ele><time>2026-05-02T06:53:44.139Z</time></trkpt><trkpt lat="48.0099328" lon="-1.2001985"><ele>95.0</ele><time>2026-05-02T06:53:45.139Z</time></trkpt><trkpt lat="48.0097964" lon="-1.2002426"><ele>95.33333333333334</ele><time>2026-05-02T06:53:46.139Z</time></trkpt><trkpt lat="48.0096476" lon="-1.2002916"><ele>95.66666666666667</ele><time>2026-05-02T06:53:47.14Z</time></trkpt><trkpt lat="48.0094974" lon="-1.2003401"><ele>96.0</ele><time>2026-05-02T06:53:48.14Z</time></trkpt><trkpt lat="48.0093439" lon="-1.2003867"><ele>96.0</ele><time>2026-05-02T06:53:49.141Z</time></trkpt><trkpt lat="48.0091841" lon="-1.200439"><ele>96.0</ele><time>2026-05-02T06:53:50.141Z</time></trkpt><trkpt lat="48.0090173" lon="-1.2004995"><ele>96.0</ele><time>2026-05-02T06:53:51.141Z</time></trkpt><trkpt lat="48.0088424" lon="-1.2005642"><ele>96.33333333333334</ele><time>2026-05-02T06:53:52.141Z</time></trkpt><trkpt lat="48.0086605" lon="-1.2006285"><ele>96.66666666666667</ele><time>2026-05-02T06:53:53.141Z</time></trkpt><trkpt lat="48.0084707" lon="-1.2006935"><ele>97.0</ele><time>2026-05-02T06:53:54.142Z</time></trkpt><trkpt lat="48.0082755" lon="-1.2007567"><ele>97.66666666666667</ele><time>2026-05-02T06:53:55.14Z</time></trkpt><trkpt lat="48.0080765" lon="-1.200819"><ele>98.33333333333334</ele><time>2026-05-02T06:53:56.14Z</time></trkpt><trkpt lat="48.0078746" lon="-1.2008816"><ele>99.0</ele><time>2026-05-02T06:53:57.14Z</time></trkpt><trkpt lat="48.0076685" lon="-1.2009376"><ele>99.33333333333334</ele><time>2026-05-02T06:53:58.139Z</time></trkpt><trkpt lat="48.0074565" lon="-1.2009904"><ele>99.66666666666667</ele><time>2026-05-02T06:53:59.14Z</time></trkpt><trkpt lat="48.0072426" lon="-1.2010353"><ele>100.0</ele><time>2026-05-02T06:54:00.139Z</time></trkpt><trkpt lat="48.00703" lon="-1.2010724"><ele>100.0</ele><time>2026-05-02T06:54:01.14Z</time></trkpt><trkpt lat="48.0068211" lon="-1.2010977"><ele>100.0</ele><time>2026-05-02T06:54:02.14Z</time></trkpt><trkpt lat="48.0066215" lon="-1.2011172"><ele>100.0</ele><time>2026-05-02T06:54:03.139Z</time></trkpt><trkpt lat="48.0064365" lon="-1.2011282"><ele>100.0</ele><time>2026-05-02T06:54:04.139Z</time></trkpt><trkpt lat="48.0062692" lon="-1.2011302"><ele>100.0</ele><time>2026-05-02T06:54:05.139Z</time></trkpt><trkpt lat="48.006121" lon="-1.2011296"><ele>100.0</ele><time>2026-05-02T06:54:06.14Z</time></trkpt><trkpt lat="48.0059893" lon="-1.2011336"><ele>100.0</ele><time>2026-05-02T06:54:07.141Z</time></trkpt><trkpt lat="48.0058728" lon="-1.2011545"><ele>99.8</ele><time>2026-05-02T06:54:08.139Z</time></trkpt><trkpt lat="48.0057775" lon="-1.2012065"><ele>99.6</ele><time>2026-05-02T06:54:09.141Z</time></trkpt><trkpt lat="48.0057045" lon="-1.2013007"><ele>99.4</ele><time>2026-05-02T06:54:10.139Z</time></trkpt><trkpt lat="48.005656" lon="-1.2014423"><ele>99.2</ele><time>2026-05-02T06:54:11.14Z</time></trkpt><trkpt lat="48.0056334" lon="-1.2016233"><ele>99.0</ele><time>2026-05-02T06:54:12.139Z</time></trkpt><trkpt lat="48.0056308" lon="-1.2018402"><ele>99.0</ele><time>2026-05-02T06:54:13.14Z</time></trkpt><trkpt lat="48.0056352" lon="-1.202079"><ele>99.0</ele><time>2026-05-02T06:54:14.138Z</time></trkpt><trkpt lat="48.0056319" lon="-1.2023352"><ele>99.0</ele><time>2026-05-02T06:54:15.141Z</time></trkpt><trkpt lat="48.0056117" lon="-1.2026183"><ele>99.33333333333334</ele><time>2026-05-02T06:54:16.142Z</time></trkpt><trkpt lat="48.0055743" lon="-1.2029211"><ele>99.66666666666667</ele><time>2026-05-02T06:54:17.139Z</time></trkpt><trkpt lat="48.00552" lon="-1.2032333"><ele>100.0</ele><time>2026-05-02T06:54:18.139Z</time></trkpt><trkpt lat="48.005465" lon="-1.2035433"><ele>100.0</ele><time>2026-05-02T06:54:19.139Z</time></trkpt><trkpt lat="48.0054167" lon="-1.2038467"><ele>100.0</ele><time>2026-05-02T06:54:20.139Z</time></trkpt><trkpt lat="48.0053867" lon="-1.2041483"><ele>100.0</ele><time>2026-05-02T06:54:21.14Z</time></trkpt><trkpt lat="48.0053767" lon="-1.2044583"><ele>100.66666666666667</ele><time>2026-05-02T06:54:22.139Z</time></trkpt><trkpt lat="48.0053833" lon="-1.2047733"><ele>101.33333333333334</ele><time>2026-05-02T06:54:23.14Z</time></trkpt><trkpt lat="48.0054033" lon="-1.2050917"><ele>102.0</ele><time>2026-05-02T06:54:24.139Z</time></trkpt><trkpt lat="48.005425" lon="-1.20541"><ele>102.0</ele><time>2026-05-02T06:54:25.139Z</time></trkpt><trkpt lat="48.005445" lon="-1.20573"><ele>102.0</ele><time>2026-05-02T06:54:26.143Z</time></trkpt><trkpt lat="48.0054533" lon="-1.206045"><ele>102.0</ele><time>2026-05-02T06:54:27.14Z</time></trkpt><trkpt lat="48.0054467" lon="-1.20636"><ele>102.0</ele><time>2026-05-02T06:54:28.139Z</time></trkpt><trkpt lat="48.0054217" lon="-1.206675"><ele>102.0</ele><time>2026-05-02T06:54:29.139Z</time></trkpt><trkpt lat="48.0053833" lon="-1.206985"><ele>102.0</ele><time>2026-05-02T06:54:30.139Z</time></trkpt><trkpt lat="48.005335" lon="-1.20729"><ele>101.66666666666666</ele><time>2026-05-02T06:54:31.139Z</time></trkpt><trkpt lat="48.005285" lon="-1.2075967"><ele>101.33333333333333</ele><time>2026-05-02T06:54:32.14Z</time></trkpt><trkpt lat="48.0052267" lon="-1.207905"><ele>101.0</ele><time>2026-05-02T06:54:33.14Z</time></trkpt><trkpt lat="48.0051583" lon="-1.2082183"><ele>101.0</ele><time>2026-05-02T06:54:34.139Z</time></trkpt><trkpt lat="48.0050783" lon="-1.20853"><ele>101.0</ele><time>2026-05-02T06:54:35.139Z</time></trkpt><trkpt lat="48.0049933" lon="-1.2088433"><ele>99.5</ele><time>2026-05-02T06:54:36.139Z</time></trkpt><trkpt lat="48.00491" lon="-1.2091617"><ele>98.0</ele><time>2026-05-02T06:54:37.139Z</time></trkpt><trkpt lat="48.0048267" lon="-1.2094817"><ele>98.0</ele><time>2026-05-02T06:54:38.139Z</time></trkpt><trkpt lat="48.0047417" lon="-1.20981"><ele>98.0</ele><time>2026-05-02T06:54:39.14Z</time></trkpt><trkpt lat="48.004655" lon="-1.2101483"><ele>99.0</ele><time>2026-05-02T06:54:40.139Z</time></trkpt><trkpt lat="48.0045683" lon="-1.2105"><ele>100.0</ele><time>2026-05-02T06:54:41.14Z</time></trkpt><trkpt lat="48.0044883" lon="-1.2108767"><ele>100.0</ele><time>2026-05-02T06:54:42.139Z</time></trkpt><trkpt lat="48.00442" lon="-1.211285"><ele>100.0</ele><time>2026-05-02T06:54:43.139Z</time></trkpt><trkpt lat="48.00436" lon="-1.2117167"><ele>100.0</ele><time>2026-05-02T06:54:44.139Z</time></trkpt><trkpt lat="48.0043033" lon="-1.2121467"><ele>100.0</ele><time>2026-05-02T06:54:45.14Z</time></trkpt><trkpt lat="48.0042483" lon="-1.21256"><ele>99.0</ele><time>2026-05-02T06:54:46.139Z</time></trkpt><trkpt lat="48.0041967" lon="-1.2129633"><ele>98.0</ele><time>2026-05-02T06:54:47.139Z</time></trkpt><trkpt lat="48.0041467" lon="-1.2133583"><ele>98.0</ele><time>2026-05-02T06:54:48.139Z</time></trkpt><trkpt lat="48.0040933" lon="-1.2137467"><ele>98.0</ele><time>2026-05-02T06:54:49.139Z</time></trkpt><trkpt lat="48.0040417" lon="-1.2141317"><ele>98.5</ele><time>2026-05-02T06:54:50.139Z</time></trkpt><trkpt lat="48.0039917" lon="-1.214505"><ele>99.0</ele><time>2026-05-02T06:54:51.138Z</time></trkpt><trkpt lat="48.0039433" lon="-1.214865"><ele>99.5</ele><time>2026-05-02T06:54:52.139Z</time></trkpt><trkpt lat="48.0039" lon="-1.2152167"><ele>100.0</ele><time>2026-05-02T06:54:53.139Z</time></trkpt><trkpt lat="48.003855" lon="-1.2155633"><ele>100.0</ele><time>2026-05-02T06:54:54.138Z</time></trkpt><trkpt lat="48.00381" lon="-1.2159133"><ele>100.0</ele><time>2026-05-02T06:54:55.139Z</time></trkpt><trkpt lat="48.00376" lon="-1.2162683"><ele>100.5</ele><time>2026-05-02T06:54:56.14Z</time></trkpt><trkpt lat="48.0037033" lon="-1.2166233"><ele>101.0</ele><time>2026-05-02T06:54:57.14Z</time></trkpt><trkpt lat="48.00363" lon="-1.21697"><ele>101.0</ele><time>2026-05-02T06:54:58.139Z</time></trkpt><trkpt lat="48.0035467" lon="-1.2173117"><ele>101.0</ele><time>2026-05-02T06:54:59.14Z</time></trkpt><trkpt lat="48.0034467" lon="-1.217645"><ele>101.0</ele><time>2026-05-02T06:55:00.141Z</time></trkpt><trkpt lat="48.0033317" lon="-1.21797"><ele>101.0</ele><time>2026-05-02T06:55:01.139Z</time></trkpt><trkpt lat="48.003205" lon="-1.2182867"><ele>101.0</ele><time>2026-05-02T06:55:02.14Z</time></trkpt><trkpt lat="48.0030683" lon="-1.2185967"><ele>101.0</ele><time>2026-05-02T06:55:03.14Z</time></trkpt><trkpt lat="48.0029183" lon="-1.2188967"><ele>101.5</ele><time>2026-05-02T06:55:04.141Z</time></trkpt><trkpt lat="48.00276" lon="-1.2191917"><ele>102.0</ele><time>2026-05-02T06:55:05.138Z</time></trkpt><trkpt lat="48.0025967" lon="-1.2194817"><ele>101.5</ele><time>2026-05-02T06:55:06.139Z</time></trkpt><trkpt lat="48.0024333" lon="-1.2197683"><ele>101.0</ele><time>2026-05-02T06:55:07.139Z</time></trkpt><trkpt lat="48.0022717" lon="-1.2200583"><ele>101.0</ele><time>2026-05-02T06:55:08.138Z</time></trkpt><trkpt lat="48.0021067" lon="-1.2203467"><ele>101.0</ele><time>2026-05-02T06:55:09.14Z</time></trkpt><trkpt lat="48.001945" lon="-1.2206333"><ele>101.5</ele><time>2026-05-02T06:55:10.143Z</time></trkpt><trkpt lat="48.0017867" lon="-1.220925"><ele>102.0</ele><time>2026-05-02T06:55:11.139Z</time></trkpt><trkpt lat="48.0016417" lon="-1.22123"><ele>101.5</ele><time>2026-05-02T06:55:12.139Z</time></trkpt><trkpt lat="48.0015117" lon="-1.22155"><ele>101.0</ele><time>2026-05-02T06:55:13.139Z</time></trkpt><trkpt lat="48.0013917" lon="-1.221885"><ele>101.0</ele><time>2026-05-02T06:55:14.14Z</time></trkpt><trkpt lat="48.001285" lon="-1.222235"><ele>101.0</ele><time>2026-05-02T06:55:15.141Z</time></trkpt><trkpt lat="48.0011867" lon="-1.22261"><ele>101.5</ele><time>2026-05-02T06:55:16.139Z</time></trkpt><trkpt lat="48.0011033" lon="-1.2230067"><ele>102.0</ele><time>2026-05-02T06:55:17.139Z</time></trkpt><trkpt lat="48.0010367" lon="-1.2234217"><ele>102.0</ele><time>2026-05-02T06:55:18.138Z</time></trkpt><trkpt lat="48.000975" lon="-1.2238333"><ele>102.0</ele><time>2026-05-02T06:55:19.139Z</time></trkpt><trkpt lat="48.0009217" lon="-1.2242317"><ele>101.5</ele><time>2026-05-02T06:55:20.14Z</time></trkpt><trkpt lat="48.0008667" lon="-1.22461"><ele>101.0</ele><time>2026-05-02T06:55:21.14Z</time></trkpt><trkpt lat="48.0008117" lon="-1.2249783"><ele>100.0</ele><time>2026-05-02T06:55:22.139Z</time></trkpt><trkpt lat="48.0007583" lon="-1.2253383"><ele>99.0</ele><time>2026-05-02T06:55:23.139Z</time></trkpt><trkpt lat="48.000705" lon="-1.2256833"><ele>99.0</ele><time>2026-05-02T06:55:24.139Z</time></trkpt><trkpt lat="48.0006567" lon="-1.2260217"><ele>99.0</ele><time>2026-05-02T06:55:25.14Z</time></trkpt><trkpt lat="48.0006083" lon="-1.226345"><ele>99.33333333333334</ele><time>2026-05-02T06:55:26.139Z</time></trkpt><trkpt lat="48.00056" lon="-1.2266567"><ele>99.66666666666667</ele><time>2026-05-02T06:55:27.139Z</time></trkpt><trkpt lat="48.0005067" lon="-1.2269533"><ele>100.0</ele><time>2026-05-02T06:55:28.139Z</time></trkpt><trkpt lat="48.00044" lon="-1.2272267"><ele>100.33333333333334</ele><time>2026-05-02T06:55:29.14Z</time></trkpt><trkpt lat="48.0003567" lon="-1.22748"><ele>100.66666666666666</ele><time>2026-05-02T06:55:30.139Z</time></trkpt><trkpt lat="48.0002583" lon="-1.22773"><ele>101.0</ele><time>2026-05-02T06:55:31.139Z</time></trkpt><trkpt lat="48.0001533" lon="-1.2279717"><ele>101.0</ele><time>2026-05-02T06:55:32.139Z</time></trkpt><trkpt lat="48.000045" lon="-1.22821"><ele>101.0</ele><time>2026-05-02T06:55:33.139Z</time></trkpt><trkpt lat="47.9999383" lon="-1.2284433"><ele>101.0</ele><time>2026-05-02T06:55:34.142Z</time></trkpt><trkpt lat="47.999835" lon="-1.22866"><ele>101.0</ele><time>2026-05-02T06:55:35.139Z</time></trkpt><trkpt lat="47.9997417" lon="-1.2288617"><ele>101.0</ele><time>2026-05-02T06:55:36.138Z</time></trkpt><trkpt lat="47.99966" lon="-1.2290533"><ele>101.0</ele><time>2026-05-02T06:55:37.139Z</time></trkpt><trkpt lat="47.999585" lon="-1.2292383"><ele>100.5</ele><time>2026-05-02T06:55:38.139Z</time></trkpt><trkpt lat="47.9995083" lon="-1.22942"><ele>100.0</ele><time>2026-05-02T06:55:39.142Z</time></trkpt><trkpt lat="47.9994267" lon="-1.2296033"><ele>99.5</ele><time>2026-05-02T06:55:40.14Z</time></trkpt><trkpt lat="47.9993417" lon="-1.2297933"><ele>99.0</ele><time>2026-05-02T06:55:41.14Z</time></trkpt><trkpt lat="47.9992583" lon="-1.2299917"><ele>98.66666666666666</ele><time>2026-05-02T06:55:42.142Z</time></trkpt><trkpt lat="47.999175" lon="-1.230195"><ele>98.33333333333333</ele><time>2026-05-02T06:55:43.139Z</time></trkpt><trkpt lat="47.9990917" lon="-1.230405"><ele>98.0</ele><time>2026-05-02T06:55:44.139Z</time></trkpt><trkpt lat="47.9990183" lon="-1.230625"><ele>99.0</ele><time>2026-05-02T06:55:45.139Z</time></trkpt><trkpt lat="47.9989567" lon="-1.2308467"><ele>100.0</ele><time>2026-05-02T06:55:46.139Z</time></trkpt><trkpt lat="47.9989083" lon="-1.2310717"><ele>101.0</ele><time>2026-05-02T06:55:47.139Z</time></trkpt><trkpt lat="47.9988683" lon="-1.2312883"><ele>101.0</ele><time>2026-05-02T06:55:48.139Z</time></trkpt><trkpt lat="47.998835" lon="-1.2314917"><ele>101.0</ele><time>2026-05-02T06:55:49.139Z</time></trkpt><trkpt lat="47.99881" lon="-1.2316817"><ele>101.0</ele><time>2026-05-02T06:55:50.139Z</time></trkpt><trkpt lat="47.998785" lon="-1.2318667"><ele>101.0</ele><time>2026-05-02T06:55:51.14Z</time></trkpt><trkpt lat="47.9987533" lon="-1.2320533"><ele>101.0</ele><time>2026-05-02T06:55:52.139Z</time></trkpt><trkpt lat="47.9987183" lon="-1.2322583"><ele>101.0</ele><time>2026-05-02T06:55:53.14Z</time></trkpt><trkpt lat="47.9986817" lon="-1.23248"><ele>101.0</ele><time>2026-05-02T06:55:54.139Z</time></trkpt><trkpt lat="47.9986433" lon="-1.2327133"><ele>100.66666666666666</ele><time>2026-05-02T06:55:55.139Z</time></trkpt><trkpt lat="47.9986067" lon="-1.2329383"><ele>100.33333333333334</ele><time>2026-05-02T06:55:56.139Z</time></trkpt><trkpt lat="47.99857" lon="-1.2331567"><ele>100.0</ele><time>2026-05-02T06:55:57.139Z</time></trkpt><trkpt lat="47.9985333" lon="-1.23338"><ele>99.66666666666667</ele><time>2026-05-02T06:55:58.139Z</time></trkpt><trkpt lat="47.998495" lon="-1.2336067"><ele>99.33333333333334</ele><time>2026-05-02T06:55:59.145Z</time></trkpt><trkpt lat="47.9984533" lon="-1.2338283"><ele>99.0</ele><time>2026-05-02T06:56:00.139Z</time></trkpt><trkpt lat="47.9984067" lon="-1.2340417"><ele>99.25</ele><time>2026-05-02T06:56:01.139Z</time></trkpt><trkpt lat="47.9983567" lon="-1.234245"><ele>99.5</ele><time>2026-05-02T06:56:02.139Z</time></trkpt><trkpt lat="47.998305" lon="-1.23443"><ele>99.75</ele><time>2026-05-02T06:56:03.14Z</time></trkpt><trkpt lat="47.9982517" lon="-1.2345967"><ele>100.0</ele><time>2026-05-02T06:56:04.139Z</time></trkpt><trkpt lat="47.998205" lon="-1.2347533"><ele>99.6</ele><time>2026-05-02T06:56:05.139Z</time></trkpt><trkpt lat="47.9981717" lon="-1.2349"><ele>99.2</ele><time>2026-05-02T06:56:06.139Z</time></trkpt><trkpt lat="47.9981383" lon="-1.235035"><ele>98.80000000000001</ele><time>2026-05-02T06:56:07.139Z</time></trkpt><trkpt lat="47.9980917" lon="-1.23515"><ele>98.4</ele><time>2026-05-02T06:56:08.14Z</time></trkpt><trkpt lat="47.998025" lon="-1.2352433"><ele>98.0</ele><time>2026-05-02T06:56:09.139Z</time></trkpt><trkpt lat="47.99794" lon="-1.2353383"><ele>98.0</ele><time>2026-05-02T06:56:10.139Z</time></trkpt><trkpt lat="47.9978533" lon="-1.2354417"><ele>98.0</ele><time>2026-05-02T06:56:11.139Z</time></trkpt><trkpt lat="47.9977667" lon="-1.23556"><ele>98.0</ele><time>2026-05-02T06:56:12.139Z</time></trkpt><trkpt lat="47.9976767" lon="-1.23569"><ele>98.0</ele><time>2026-05-02T06:56:13.139Z</time></trkpt><trkpt lat="47.9975917" lon="-1.23583"><ele>97.75</ele><time>2026-05-02T06:56:14.14Z</time></trkpt><trkpt lat="47.9975083" lon="-1.23598"><ele>97.5</ele><time>2026-05-02T06:56:15.14Z</time></trkpt><trkpt lat="47.9974367" lon="-1.2361483"><ele>97.25</ele><time>2026-05-02T06:56:16.139Z</time></trkpt><trkpt lat="47.9973817" lon="-1.236335"><ele>97.0</ele><time>2026-05-02T06:56:17.139Z</time></trkpt><trkpt lat="47.99733" lon="-1.236535"><ele>96.75</ele><time>2026-05-02T06:56:18.139Z</time></trkpt><trkpt lat="47.9972783" lon="-1.2367417"><ele>96.5</ele><time>2026-05-02T06:56:19.14Z</time></trkpt><trkpt lat="47.9972233" lon="-1.236945"><ele>96.25</ele><time>2026-05-02T06:56:20.139Z</time></trkpt><trkpt lat="47.997165" lon="-1.2371417"><ele>96.0</ele><time>2026-05-02T06:56:21.139Z</time></trkpt><trkpt lat="47.9971083" lon="-1.2373333"><ele>96.0</ele><time>2026-05-02T06:56:22.139Z</time></trkpt><trkpt lat="47.9970483" lon="-1.237515"><ele>96.0</ele><time>2026-05-02T06:56:23.139Z</time></trkpt><trkpt lat="47.9969833" lon="-1.2376883"><ele>96.0</ele><time>2026-05-02T06:56:24.14Z</time></trkpt><trkpt lat="47.9969133" lon="-1.237865"><ele>96.0</ele><time>2026-05-02T06:56:25.143Z</time></trkpt><trkpt lat="47.9968417" lon="-1.238035"><ele>95.25</ele><time>2026-05-02T06:56:26.139Z</time></trkpt><trkpt lat="47.9967767" lon="-1.23821"><ele>94.5</ele><time>2026-05-02T06:56:27.141Z</time></trkpt><trkpt lat="47.99671" lon="-1.2383817"><ele>93.75</ele><time>2026-05-02T06:56:28.139Z</time></trkpt><trkpt lat="47.996645" lon="-1.238555"><ele>93.0</ele><time>2026-05-02T06:56:29.139Z</time></trkpt><trkpt lat="47.99658" lon="-1.2387333"><ele>94.25</ele><time>2026-05-02T06:56:30.144Z</time></trkpt><trkpt lat="47.9965083" lon="-1.238915"><ele>95.5</ele><time>2026-05-02T06:56:31.141Z</time></trkpt><trkpt lat="47.9964433" lon="-1.2390983"><ele>96.75</ele><time>2026-05-02T06:56:32.139Z</time></trkpt><trkpt lat="47.9963817" lon="-1.239295"><ele>98.0</ele><time>2026-05-02T06:56:33.14Z</time></trkpt><trkpt lat="47.9963283" lon="-1.2394833"><ele>98.0</ele><time>2026-05-02T06:56:34.142Z</time></trkpt><trkpt lat="47.99628" lon="-1.2396583"><ele>98.0</ele><time>2026-05-02T06:56:35.139Z</time></trkpt><trkpt lat="47.99624" lon="-1.239825"><ele>98.0</ele><time>2026-05-02T06:56:36.139Z</time></trkpt><trkpt lat="47.9962" lon="-1.2399833"><ele>98.0</ele><time>2026-05-02T06:56:37.14Z</time></trkpt><trkpt lat="47.99616" lon="-1.240135"><ele>97.60000000000001</ele><time>2026-05-02T06:56:38.139Z</time></trkpt><trkpt lat="47.9961233" lon="-1.2402883"><ele>97.2</ele><time>2026-05-02T06:56:39.139Z</time></trkpt><trkpt lat="47.9960833" lon="-1.24044"><ele>96.8</ele><time>2026-05-02T06:56:40.139Z</time></trkpt><trkpt lat="47.996045" lon="-1.240595"><ele>96.4</ele><time>2026-05-02T06:56:41.139Z</time></trkpt><trkpt lat="47.996005" lon="-1.2407433"><ele>96.0</ele><time>2026-05-02T06:56:42.139Z</time></trkpt><trkpt lat="47.9959683" lon="-1.24089"><ele>95.8</ele><time>2026-05-02T06:56:43.139Z</time></trkpt><trkpt lat="47.99593" lon="-1.2410383"><ele>95.6</ele><time>2026-05-02T06:56:44.143Z</time></trkpt><trkpt lat="47.99589" lon="-1.241175"><ele>95.4</ele><time>2026-05-02T06:56:45.139Z</time></trkpt><trkpt lat="47.9958483" lon="-1.241305"><ele>95.2</ele><time>2026-05-02T06:56:46.139Z</time></trkpt><trkpt lat="47.9958067" lon="-1.241425"><ele>95.0</ele><time>2026-05-02T06:56:47.139Z</time></trkpt><trkpt lat="47.9957667" lon="-1.2415383"><ele>95.0</ele><time>2026-05-02T06:56:48.139Z</time></trkpt><trkpt lat="47.9957317" lon="-1.241645"><ele>95.0</ele><time>2026-05-02T06:56:49.139Z</time></trkpt><trkpt lat="47.9957" lon="-1.2417417"><ele>95.0</ele><time>2026-05-02T06:56:50.141Z</time></trkpt><trkpt lat="47.995655" lon="-1.2418883"><ele>95.0</ele><time>2026-05-02T06:56:52.139Z</time></trkpt><trkpt lat="47.9956733" lon="-1.241995"><ele>95.0</ele><time>2026-05-02T06:56:54.139Z</time></trkpt><trkpt lat="47.9957683" lon="-1.24209"><ele>95.0</ele><time>2026-05-02T06:56:56.139Z</time></trkpt><trkpt lat="47.9958633" lon="-1.2421817"><ele>94.2</ele><time>2026-05-02T06:56:58.14Z</time></trkpt><trkpt lat="47.9959533" lon="-1.2422633"><ele>93.4</ele><time>2026-05-02T06:57:00.14Z</time></trkpt><trkpt lat="47.9960017" lon="-1.2423917"><ele>92.6</ele><time>2026-05-02T06:57:02.139Z</time></trkpt><trkpt lat="47.9959767" lon="-1.2425567"><ele>91.8</ele><time>2026-05-02T06:57:04.14Z</time></trkpt><trkpt lat="47.99595" lon="-1.2426533"><ele>91.0</ele><time>2026-05-02T06:57:05.14Z</time></trkpt><trkpt lat="47.99592" lon="-1.2427533"><ele>90.83333333333333</ele><time>2026-05-02T06:57:06.144Z</time></trkpt><trkpt lat="47.995885" lon="-1.2428667"><ele>90.66666666666666</ele><time>2026-05-02T06:57:07.14Z</time></trkpt><trkpt lat="47.9958417" lon="-1.2429817"><ele>90.5</ele><time>2026-05-02T06:57:08.143Z</time></trkpt><trkpt lat="47.99579" lon="-1.2430967"><ele>90.33333333333333</ele><time>2026-05-02T06:57:09.143Z</time></trkpt><trkpt lat="47.99574" lon="-1.2432083"><ele>90.16666666666667</ele><time>2026-05-02T06:57:10.139Z</time></trkpt><trkpt lat="47.995685" lon="-1.2433033"><ele>90.0</ele><time>2026-05-02T06:57:11.14Z</time></trkpt><trkpt lat="47.9956267" lon="-1.2433967"><ele>90.6</ele><time>2026-05-02T06:57:12.143Z</time></trkpt><trkpt lat="47.9955633" lon="-1.2434967"><ele>91.2</ele><time>2026-05-02T06:57:13.139Z</time></trkpt><trkpt lat="47.9954967" lon="-1.2436"><ele>91.80000000000001</ele><time>2026-05-02T06:57:14.138Z</time></trkpt><trkpt lat="47.99543" lon="-1.2437167"><ele>92.4</ele><time>2026-05-02T06:57:15.14Z</time></trkpt><trkpt lat="47.995365" lon="-1.2438433"><ele>93.0</ele><time>2026-05-02T06:57:16.139Z</time></trkpt><trkpt lat="47.9953033" lon="-1.2439733"><ele>93.0</ele><time>2026-05-02T06:57:17.139Z</time></trkpt><trkpt lat="47.9952383" lon="-1.2441217"><ele>93.0</ele><time>2026-05-02T06:57:18.14Z</time></trkpt><trkpt lat="47.9951833" lon="-1.24428"><ele>93.0</ele><time>2026-05-02T06:57:19.14Z</time></trkpt><trkpt lat="47.9951233" lon="-1.2444617"><ele>93.0</ele><time>2026-05-02T06:57:20.139Z</time></trkpt><trkpt lat="47.99508" lon="-1.2446267"><ele>93.0</ele><time>2026-05-02T06:57:21.142Z</time></trkpt><trkpt lat="47.9950283" lon="-1.2447867"><ele>93.0</ele><time>2026-05-02T06:57:22.141Z</time></trkpt><trkpt lat="47.99499" lon="-1.244975"><ele>93.0</ele><time>2026-05-02T06:57:23.14Z</time></trkpt><trkpt lat="47.9949333" lon="-1.2451333"><ele>93.0</ele><time>2026-05-02T06:57:24.141Z</time></trkpt><trkpt lat="47.994885" lon="-1.2452817"><ele>93.2</ele><time>2026-05-02T06:57:25.141Z</time></trkpt><trkpt lat="47.994845" lon="-1.245415"><ele>93.4</ele><time>2026-05-02T06:57:26.141Z</time></trkpt><trkpt lat="47.9948133" lon="-1.2455267"><ele>93.60000000000001</ele><time>2026-05-02T06:57:27.14Z</time></trkpt><trkpt lat="47.9947817" lon="-1.2456317"><ele>93.80000000000001</ele><time>2026-05-02T06:57:28.139Z</time></trkpt><trkpt lat="47.9947333" lon="-1.24578"><ele>94.0</ele><time>2026-05-02T06:57:30.139Z</time></trkpt><trkpt lat="47.9946117" lon="-1.2457833"><ele>94.0</ele><time>2026-05-02T06:57:32.139Z</time></trkpt><trkpt lat="47.9945283" lon="-1.245755"><ele>94.0</ele><time>2026-05-02T06:57:33.139Z</time></trkpt><trkpt lat="47.9944383" lon="-1.2457133"><ele>94.0</ele><time>2026-05-02T06:57:34.139Z</time></trkpt><trkpt lat="47.9943417" lon="-1.2456533"><ele>94.0</ele><time>2026-05-02T06:57:35.139Z</time></trkpt><trkpt lat="47.9942383" lon="-1.2455733"><ele>94.0</ele><time>2026-05-02T06:57:36.138Z</time></trkpt><trkpt lat="47.9941283" lon="-1.2454783"><ele>93.75</ele><time>2026-05-02T06:57:37.14Z</time></trkpt><trkpt lat="47.9940133" lon="-1.2453783"><ele>93.5</ele><time>2026-05-02T06:57:38.139Z</time></trkpt><trkpt lat="47.9938967" lon="-1.2452683"><ele>93.25</ele><time>2026-05-02T06:57:39.14Z</time></trkpt><trkpt lat="47.9937733" lon="-1.2451583"><ele>93.0</ele><time>2026-05-02T06:57:40.139Z</time></trkpt><trkpt lat="47.9936433" lon="-1.2450367"><ele>93.0</ele><time>2026-05-02T06:57:41.139Z</time></trkpt><trkpt lat="47.9935067" lon="-1.2449083"><ele>93.0</ele><time>2026-05-02T06:57:42.141Z</time></trkpt><trkpt lat="47.99337" lon="-1.244785"><ele>93.0</ele><time>2026-05-02T06:57:43.139Z</time></trkpt><trkpt lat="47.9932217" lon="-1.24468"><ele>92.66666666666667</ele><time>2026-05-02T06:57:44.139Z</time></trkpt><trkpt lat="47.993065" lon="-1.2446"><ele>92.33333333333334</ele><time>2026-05-02T06:57:45.139Z</time></trkpt><trkpt lat="47.9929017" lon="-1.24455"><ele>92.0</ele><time>2026-05-02T06:57:46.14Z</time></trkpt><trkpt lat="47.9927433" lon="-1.24453"><ele>92.0</ele><time>2026-05-02T06:57:47.139Z</time></trkpt><trkpt lat="47.9925917" lon="-1.2445417"><ele>92.0</ele><time>2026-05-02T06:57:48.14Z</time></trkpt><trkpt lat="47.99245" lon="-1.2445983"><ele>92.0</ele><time>2026-05-02T06:57:49.139Z</time></trkpt><trkpt lat="47.9923283" lon="-1.2447167"><ele>92.0</ele><time>2026-05-02T06:57:50.139Z</time></trkpt><trkpt lat="47.9922083" lon="-1.2448967"><ele>90.66666666666667</ele><time>2026-05-02T06:57:51.14Z</time></trkpt><trkpt lat="47.99208" lon="-1.2451083"><ele>89.33333333333333</ele><time>2026-05-02T06:57:52.14Z</time></trkpt><trkpt lat="47.991945" lon="-1.2453317"><ele>88.0</ele><time>2026-05-02T06:57:53.14Z</time></trkpt><trkpt lat="47.9918067" lon="-1.2455567"><ele>88.33333333333333</ele><time>2026-05-02T06:57:54.139Z</time></trkpt><trkpt lat="47.991665" lon="-1.2457833"><ele>88.66666666666667</ele><time>2026-05-02T06:57:55.14Z</time></trkpt><trkpt lat="47.99152" lon="-1.24601"><ele>89.0</ele><time>2026-05-02T06:57:56.139Z</time></trkpt><trkpt lat="47.991375" lon="-1.2462333"><ele>89.0</ele><time>2026-05-02T06:57:57.14Z</time></trkpt><trkpt lat="47.9912317" lon="-1.24646"><ele>89.0</ele><time>2026-05-02T06:57:58.139Z</time></trkpt><trkpt lat="47.99109" lon="-1.2466833"><ele>89.0</ele><time>2026-05-02T06:57:59.139Z</time></trkpt><trkpt lat="47.9909483" lon="-1.2469083"><ele>89.0</ele><time>2026-05-02T06:58:00.139Z</time></trkpt><trkpt lat="47.9908067" lon="-1.2471317"><ele>89.0</ele><time>2026-05-02T06:58:01.139Z</time></trkpt><trkpt lat="47.99065" lon="-1.2473483"><ele>89.0</ele><time>2026-05-02T06:58:02.144Z</time></trkpt><trkpt lat="47.990475" lon="-1.247555"><ele>89.0</ele><time>2026-05-02T06:58:03.14Z</time></trkpt><trkpt lat="47.990275" lon="-1.2477517"><ele>89.0</ele><time>2026-05-02T06:58:04.138Z</time></trkpt><trkpt lat="47.990065" lon="-1.2479517"><ele>90.0</ele><time>2026-05-02T06:58:05.141Z</time></trkpt><trkpt lat="47.9898567" lon="-1.248155"><ele>91.0</ele><time>2026-05-02T06:58:06.139Z</time></trkpt><trkpt lat="47.9896517" lon="-1.2483617"><ele>91.0</ele><time>2026-05-02T06:58:07.14Z</time></trkpt><trkpt lat="47.9894517" lon="-1.2485667"><ele>91.0</ele><time>2026-05-02T06:58:08.139Z</time></trkpt><trkpt lat="47.9892567" lon="-1.2487633"><ele>91.0</ele><time>2026-05-02T06:58:09.139Z</time></trkpt><trkpt lat="47.9890683" lon="-1.2489533"><ele>91.0</ele><time>2026-05-02T06:58:10.139Z</time></trkpt><trkpt lat="47.9888917" lon="-1.24913"><ele>91.0</ele><time>2026-05-02T06:58:11.139Z</time></trkpt><trkpt lat="47.9887217" lon="-1.249305"><ele>91.33333333333333</ele><time>2026-05-02T06:58:12.139Z</time></trkpt><trkpt lat="47.9885517" lon="-1.2494667"><ele>91.66666666666667</ele><time>2026-05-02T06:58:13.139Z</time></trkpt><trkpt lat="47.9883783" lon="-1.2496117"><ele>92.0</ele><time>2026-05-02T06:58:14.139Z</time></trkpt><trkpt lat="47.9882" lon="-1.2497317"><ele>92.0</ele><time>2026-05-02T06:58:15.14Z</time></trkpt><trkpt lat="47.9880033" lon="-1.249815"><ele>92.0</ele><time>2026-05-02T06:58:16.14Z</time></trkpt><trkpt lat="47.9877867" lon="-1.24986"><ele>92.0</ele><time>2026-05-02T06:58:17.139Z</time></trkpt><trkpt lat="47.9875517" lon="-1.2498817"><ele>92.5</ele><time>2026-05-02T06:58:18.139Z</time></trkpt><trkpt lat="47.9873083" lon="-1.249895"><ele>93.0</ele><time>2026-05-02T06:58:19.139Z</time></trkpt><trkpt lat="47.987065" lon="-1.2499117"><ele>93.0</ele><time>2026-05-02T06:58:20.14Z</time></trkpt><trkpt lat="47.9868233" lon="-1.2499367"><ele>93.0</ele><time>2026-05-02T06:58:21.14Z</time></trkpt><trkpt lat="47.98659" lon="-1.249995"><ele>94.0</ele><time>2026-05-02T06:58:22.142Z</time></trkpt><trkpt lat="47.9863733" lon="-1.2501033"><ele>95.0</ele><time>2026-05-02T06:58:23.139Z</time></trkpt><trkpt lat="47.98617" lon="-1.2502467"><ele>95.0</ele><time>2026-05-02T06:58:24.141Z</time></trkpt><trkpt lat="47.9859767" lon="-1.2504133"><ele>95.0</ele><time>2026-05-02T06:58:25.14Z</time></trkpt><trkpt lat="47.9857867" lon="-1.2505883"><ele>95.0</ele><time>2026-05-02T06:58:26.141Z</time></trkpt><trkpt lat="47.9855983" lon="-1.2507667"><ele>93.5</ele><time>2026-05-02T06:58:27.139Z</time></trkpt><trkpt lat="47.9854083" lon="-1.2509467"><ele>92.0</ele><time>2026-05-02T06:58:28.139Z</time></trkpt><trkpt lat="47.9852117" lon="-1.251125"><ele>92.0</ele><time>2026-05-02T06:58:29.14Z</time></trkpt><trkpt lat="47.985015" lon="-1.2513067"><ele>92.0</ele><time>2026-05-02T06:58:30.139Z</time></trkpt><trkpt lat="47.9848183" lon="-1.25149"><ele>90.0</ele><time>2026-05-02T06:58:31.141Z</time></trkpt><trkpt lat="47.9846217" lon="-1.25167"><ele>88.0</ele><time>2026-05-02T06:58:32.138Z</time></trkpt><trkpt lat="47.9844183" lon="-1.2518483"><ele>88.0</ele><time>2026-05-02T06:58:33.139Z</time></trkpt><trkpt lat="47.984215" lon="-1.25203"><ele>88.0</ele><time>2026-05-02T06:58:34.141Z</time></trkpt><trkpt lat="47.9840083" lon="-1.25221"><ele>87.0</ele><time>2026-05-02T06:58:35.139Z</time></trkpt><trkpt lat="47.9838" lon="-1.252385"><ele>86.0</ele><time>2026-05-02T06:58:36.139Z</time></trkpt><trkpt lat="47.98359" lon="-1.252565"><ele>86.0</ele><time>2026-05-02T06:58:37.139Z</time></trkpt><trkpt lat="47.98338" lon="-1.2527483"><ele>86.0</ele><time>2026-05-02T06:58:38.139Z</time></trkpt><trkpt lat="47.98317" lon="-1.2529333"><ele>85.5</ele><time>2026-05-02T06:58:39.14Z</time></trkpt><trkpt lat="47.98296" lon="-1.2531183"><ele>85.0</ele><time>2026-05-02T06:58:40.139Z</time></trkpt><trkpt lat="47.9827517" lon="-1.253305"><ele>85.0</ele><time>2026-05-02T06:58:41.139Z</time></trkpt><trkpt lat="47.9825433" lon="-1.2534917"><ele>85.0</ele><time>2026-05-02T06:58:42.137Z</time></trkpt><trkpt lat="47.9823367" lon="-1.2536717"><ele>84.5</ele><time>2026-05-02T06:58:43.142Z</time></trkpt><trkpt lat="47.98213" lon="-1.2538517"><ele>84.0</ele><time>2026-05-02T06:58:44.139Z</time></trkpt><trkpt lat="47.9819267" lon="-1.25403"><ele>84.0</ele><time>2026-05-02T06:58:45.14Z</time></trkpt><trkpt lat="47.9817267" lon="-1.2542083"><ele>84.0</ele><time>2026-05-02T06:58:46.139Z</time></trkpt><trkpt lat="47.9815317" lon="-1.2543833"><ele>83.66666666666667</ele><time>2026-05-02T06:58:47.138Z</time></trkpt><trkpt lat="47.9813383" lon="-1.2545417"><ele>83.33333333333334</ele><time>2026-05-02T06:58:48.139Z</time></trkpt><trkpt lat="47.98114" lon="-1.2546717"><ele>83.0</ele><time>2026-05-02T06:58:49.139Z</time></trkpt><trkpt lat="47.9809267" lon="-1.2547583"><ele>83.0</ele><time>2026-05-02T06:58:50.139Z</time></trkpt><trkpt lat="47.9807067" lon="-1.2548117"><ele>83.0</ele><time>2026-05-02T06:58:51.139Z</time></trkpt><trkpt lat="47.9804833" lon="-1.254845"><ele>83.0</ele><time>2026-05-02T06:58:52.143Z</time></trkpt><trkpt lat="47.980255" lon="-1.2548683"><ele>83.0</ele><time>2026-05-02T06:58:53.141Z</time></trkpt><trkpt lat="47.9800233" lon="-1.254885"><ele>83.0</ele><time>2026-05-02T06:58:54.139Z</time></trkpt><trkpt lat="47.9797867" lon="-1.2549067"><ele>83.0</ele><time>2026-05-02T06:58:55.139Z</time></trkpt><trkpt lat="47.97955" lon="-1.2549317"><ele>83.0</ele><time>2026-05-02T06:58:56.14Z</time></trkpt><trkpt lat="47.9793133" lon="-1.2549567"><ele>80.5</ele><time>2026-05-02T06:58:57.14Z</time></trkpt><trkpt lat="47.9790767" lon="-1.2549833"><ele>78.0</ele><time>2026-05-02T06:58:58.139Z</time></trkpt><trkpt lat="47.9788383" lon="-1.2550267"><ele>78.0</ele><time>2026-05-02T06:58:59.141Z</time></trkpt><trkpt lat="47.9786033" lon="-1.255095"><ele>78.0</ele><time>2026-05-02T06:59:00.14Z</time></trkpt><trkpt lat="47.9783683" lon="-1.2551783"><ele>75.5</ele><time>2026-05-02T06:59:01.14Z</time></trkpt><trkpt lat="47.97813" lon="-1.2552683"><ele>73.0</ele><time>2026-05-02T06:59:02.141Z</time></trkpt><trkpt lat="47.9778933" lon="-1.2553633"><ele>73.0</ele><time>2026-05-02T06:59:03.14Z</time></trkpt><trkpt lat="47.977655" lon="-1.25546"><ele>73.0</ele><time>2026-05-02T06:59:04.14Z</time></trkpt><trkpt lat="47.9774167" lon="-1.25556"><ele>70.5</ele><time>2026-05-02T06:59:05.145Z</time></trkpt><trkpt lat="47.9771783" lon="-1.2556583"><ele>68.0</ele><time>2026-05-02T06:59:06.14Z</time></trkpt><trkpt lat="47.976935" lon="-1.2557567"><ele>68.0</ele><time>2026-05-02T06:59:07.142Z</time></trkpt><trkpt lat="47.9766933" lon="-1.2558567"><ele>68.0</ele><time>2026-05-02T06:59:08.14Z</time></trkpt><trkpt lat="47.9764533" lon="-1.2559567"><ele>65.5</ele><time>2026-05-02T06:59:09.14Z</time></trkpt><trkpt lat="47.9762133" lon="-1.2560583"><ele>63.0</ele><time>2026-05-02T06:59:10.14Z</time></trkpt><trkpt lat="47.9759767" lon="-1.256175"><ele>63.0</ele><time>2026-05-02T06:59:11.14Z</time></trkpt><trkpt lat="47.9757483" lon="-1.2563167"><ele>63.0</ele><time>2026-05-02T06:59:12.14Z</time></trkpt><trkpt lat="47.9755333" lon="-1.25648"><ele>63.0</ele><time>2026-05-02T06:59:13.142Z</time></trkpt><trkpt lat="47.9753233" lon="-1.2566333"><ele>63.0</ele><time>2026-05-02T06:59:14.14Z</time></trkpt><trkpt lat="47.9751017" lon="-1.2567683"><ele>61.5</ele><time>2026-05-02T06:59:15.14Z</time></trkpt><trkpt lat="47.9748633" lon="-1.2568933"><ele>60.0</ele><time>2026-05-02T06:59:16.139Z</time></trkpt><trkpt lat="47.9746167" lon="-1.25701"><ele>60.0</ele><time>2026-05-02T06:59:17.14Z</time></trkpt><trkpt lat="47.9743767" lon="-1.2571267"><ele>60.0</ele><time>2026-05-02T06:59:18.14Z</time></trkpt><trkpt lat="47.9741383" lon="-1.257245"><ele>58.5</ele><time>2026-05-02T06:59:19.142Z</time></trkpt><trkpt lat="47.9739067" lon="-1.25736"><ele>57.0</ele><time>2026-05-02T06:59:20.14Z</time></trkpt><trkpt lat="47.9736767" lon="-1.2574717"><ele>57.0</ele><time>2026-05-02T06:59:21.141Z</time></trkpt><trkpt lat="47.9734533" lon="-1.2575833"><ele>57.0</ele><time>2026-05-02T06:59:22.14Z</time></trkpt><trkpt lat="47.9732367" lon="-1.2576917"><ele>57.0</ele><time>2026-05-02T06:59:23.139Z</time></trkpt><trkpt lat="47.97303" lon="-1.25779"><ele>57.0</ele><time>2026-05-02T06:59:24.141Z</time></trkpt><trkpt lat="47.9728317" lon="-1.25788"><ele>57.0</ele><time>2026-05-02T06:59:25.139Z</time></trkpt><trkpt lat="47.972645" lon="-1.2579733"><ele>56.33333333333333</ele><time>2026-05-02T06:59:26.142Z</time></trkpt><trkpt lat="47.97248" lon="-1.2581033"><ele>55.666666666666664</ele><time>2026-05-02T06:59:27.14Z</time></trkpt><trkpt lat="47.972335" lon="-1.2582767"><ele>55.0</ele><time>2026-05-02T06:59:28.14Z</time></trkpt><trkpt lat="47.972205" lon="-1.2584983"><ele>55.0</ele><time>2026-05-02T06:59:29.139Z</time></trkpt><trkpt lat="47.9720917" lon="-1.2587533"><ele>55.0</ele><time>2026-05-02T06:59:30.141Z</time></trkpt><trkpt lat="47.9719833" lon="-1.25902"><ele>55.0</ele><time>2026-05-02T06:59:31.14Z</time></trkpt><trkpt lat="47.9718683" lon="-1.2592983"><ele>55.5</ele><time>2026-05-02T06:59:32.14Z</time></trkpt><trkpt lat="47.97175" lon="-1.2595833"><ele>56.0</ele><time>2026-05-02T06:59:33.14Z</time></trkpt><trkpt lat="47.9716317" lon="-1.259875"><ele>56.5</ele><time>2026-05-02T06:59:34.14Z</time></trkpt><trkpt lat="47.9715067" lon="-1.26017"><ele>57.0</ele><time>2026-05-02T06:59:35.14Z</time></trkpt><trkpt lat="47.971375" lon="-1.2604567"><ele>58.5</ele><time>2026-05-02T06:59:36.14Z</time></trkpt><trkpt lat="47.9712367" lon="-1.260735"><ele>60.0</ele><time>2026-05-02T06:59:37.14Z</time></trkpt><trkpt lat="47.9710867" lon="-1.261005"><ele>60.0</ele><time>2026-05-02T06:59:38.14Z</time></trkpt><trkpt lat="47.970925" lon="-1.2612617"><ele>60.0</ele><time>2026-05-02T06:59:39.141Z</time></trkpt><trkpt lat="47.9707467" lon="-1.2614883"><ele>60.5</ele><time>2026-05-02T06:59:40.14Z</time></trkpt><trkpt lat="47.9705467" lon="-1.2616617"><ele>61.0</ele><time>2026-05-02T06:59:41.14Z</time></trkpt><trkpt lat="47.9703367" lon="-1.2617967"><ele>61.0</ele><time>2026-05-02T06:59:42.139Z</time></trkpt><trkpt lat="47.9701383" lon="-1.261935"><ele>61.0</ele><time>2026-05-02T06:59:43.138Z</time></trkpt><trkpt lat="47.9699617" lon="-1.262105"><ele>61.0</ele><time>2026-05-02T06:59:44.139Z</time></trkpt><trkpt lat="47.9698117" lon="-1.2623367"><ele>62.0</ele><time>2026-05-02T06:59:45.14Z</time></trkpt><trkpt lat="47.9696867" lon="-1.2625967"><ele>63.0</ele><time>2026-05-02T06:59:46.139Z</time></trkpt><trkpt lat="47.9695733" lon="-1.2628633"><ele>64.0</ele><time>2026-05-02T06:59:47.141Z</time></trkpt><trkpt lat="47.9694533" lon="-1.2631067"><ele>64.66666666666666</ele><time>2026-05-02T06:59:48.143Z</time></trkpt><trkpt lat="47.9693083" lon="-1.2633"><ele>65.33333333333333</ele><time>2026-05-02T06:59:49.14Z</time></trkpt><trkpt lat="47.9691383" lon="-1.2634717"><ele>66.0</ele><time>2026-05-02T06:59:50.14Z</time></trkpt><trkpt lat="47.96894" lon="-1.2636183"><ele>67.5</ele><time>2026-05-02T06:59:51.141Z</time></trkpt><trkpt lat="47.9687217" lon="-1.2637517"><ele>69.0</ele><time>2026-05-02T06:59:52.14Z</time></trkpt><trkpt lat="47.96849" lon="-1.2638717"><ele>68.5</ele><time>2026-05-02T06:59:53.14Z</time></trkpt><trkpt lat="47.9682633" lon="-1.263985"><ele>68.0</ele><time>2026-05-02T06:59:54.139Z</time></trkpt><trkpt lat="47.968055" lon="-1.2640933"><ele>68.0</ele><time>2026-05-02T06:59:55.14Z</time></trkpt><trkpt lat="47.96787" lon="-1.26419"><ele>68.0</ele><time>2026-05-02T06:59:56.14Z</time></trkpt><trkpt lat="47.9677033" lon="-1.26428"><ele>68.0</ele><time>2026-05-02T06:59:57.14Z</time></trkpt><trkpt lat="47.9675533" lon="-1.2643583"><ele>68.5</ele><time>2026-05-02T06:59:58.141Z</time></trkpt><trkpt lat="47.9674117" lon="-1.2644333"><ele>69.0</ele><time>2026-05-02T06:59:59.14Z</time></trkpt><trkpt lat="47.9672733" lon="-1.2645017"><ele>69.5</ele><time>2026-05-02T07:00:00.141Z</time></trkpt><trkpt lat="47.9671483" lon="-1.2645633"><ele>70.0</ele><time>2026-05-02T07:00:01.141Z</time></trkpt><trkpt lat="47.9670283" lon="-1.264625"><ele>70.0</ele><time>2026-05-02T07:00:02.141Z</time></trkpt><trkpt lat="47.9669117" lon="-1.2646883"><ele>70.0</ele><time>2026-05-02T07:00:03.141Z</time></trkpt><trkpt lat="47.9667933" lon="-1.264745"><ele>70.0</ele><time>2026-05-02T07:00:04.14Z</time></trkpt><trkpt lat="47.9666733" lon="-1.2648083"><ele>70.0</ele><time>2026-05-02T07:00:05.141Z</time></trkpt><trkpt lat="47.9665583" lon="-1.2648717"><ele>69.8</ele><time>2026-05-02T07:00:06.142Z</time></trkpt><trkpt lat="47.9664483" lon="-1.264925"><ele>69.6</ele><time>2026-05-02T07:00:07.141Z</time></trkpt><trkpt lat="47.96634" lon="-1.2649817"><ele>69.4</ele><time>2026-05-02T07:00:08.14Z</time></trkpt><trkpt lat="47.9662367" lon="-1.2650317"><ele>69.2</ele><time>2026-05-02T07:00:09.141Z</time></trkpt><trkpt lat="47.9661433" lon="-1.265085"><ele>69.0</ele><time>2026-05-02T07:00:10.141Z</time></trkpt><trkpt lat="47.9660667" lon="-1.2651367"><ele>69.0</ele><time>2026-05-02T07:00:11.141Z</time></trkpt><trkpt lat="47.966005" lon="-1.2651817"><ele>69.0</ele><time>2026-05-02T07:00:12.14Z</time></trkpt><trkpt lat="47.9659433" lon="-1.26527"><ele>69.0</ele><time>2026-05-02T07:00:14.14Z</time></trkpt><trkpt lat="47.9658633" lon="-1.265295"><ele>69.0</ele><time>2026-05-02T07:00:58.14Z</time></trkpt><trkpt lat="47.9657783" lon="-1.2654167"><ele>69.0</ele><time>2026-05-02T07:01:00.14Z</time></trkpt><trkpt lat="47.9657383" lon="-1.2655167"><ele>69.0</ele><time>2026-05-02T07:01:01.141Z</time></trkpt><trkpt lat="47.9656933" lon="-1.265645"><ele>67.75</ele><time>2026-05-02T07:01:02.14Z</time></trkpt><trkpt lat="47.9656467" lon="-1.2658"><ele>66.5</ele><time>2026-05-02T07:01:03.14Z</time></trkpt><trkpt lat="47.9655967" lon="-1.2659717"><ele>65.25</ele><time>2026-05-02T07:01:04.14Z</time></trkpt><trkpt lat="47.9655467" lon="-1.2661667"><ele>64.0</ele><time>2026-05-02T07:01:05.14Z</time></trkpt><trkpt lat="47.9654933" lon="-1.2663733"><ele>63.666666666666664</ele><time>2026-05-02T07:01:06.141Z</time></trkpt><trkpt lat="47.9654317" lon="-1.2666017"><ele>63.33333333333333</ele><time>2026-05-02T07:01:07.14Z</time></trkpt><trkpt lat="47.9653683" lon="-1.2668317"><ele>63.0</ele><time>2026-05-02T07:01:08.14Z</time></trkpt><trkpt lat="47.9653017" lon="-1.267065"><ele>63.33333333333333</ele><time>2026-05-02T07:01:09.14Z</time></trkpt><trkpt lat="47.9652367" lon="-1.2673083"><ele>63.666666666666664</ele><time>2026-05-02T07:01:10.14Z</time></trkpt><trkpt lat="47.965175" lon="-1.2675617"><ele>64.0</ele><time>2026-05-02T07:01:11.14Z</time></trkpt><trkpt lat="47.96511" lon="-1.26783"><ele>64.0</ele><time>2026-05-02T07:01:12.14Z</time></trkpt><trkpt lat="47.9650467" lon="-1.2681083"><ele>64.0</ele><time>2026-05-02T07:01:13.139Z</time></trkpt><trkpt lat="47.964985" lon="-1.2683967"><ele>64.0</ele><time>2026-05-02T07:01:14.139Z</time></trkpt><trkpt lat="47.9649267" lon="-1.268685"><ele>62.0</ele><time>2026-05-02T07:01:15.139Z</time></trkpt><trkpt lat="47.9648683" lon="-1.2689667"><ele>60.0</ele><time>2026-05-02T07:01:16.141Z</time></trkpt><trkpt lat="47.9648133" lon="-1.2692433"><ele>58.0</ele><time>2026-05-02T07:01:17.14Z</time></trkpt><trkpt lat="47.96476" lon="-1.269525"><ele>58.33333333333333</ele><time>2026-05-02T07:01:18.14Z</time></trkpt><trkpt lat="47.9647033" lon="-1.2698167"><ele>58.66666666666667</ele><time>2026-05-02T07:01:19.142Z</time></trkpt><trkpt lat="47.9646433" lon="-1.270115"><ele>59.0</ele><time>2026-05-02T07:01:20.14Z</time></trkpt><trkpt lat="47.9645817" lon="-1.2704183"><ele>58.66666666666667</ele><time>2026-05-02T07:01:21.142Z</time></trkpt><trkpt lat="47.9645217" lon="-1.2707333"><ele>58.33333333333333</ele><time>2026-05-02T07:01:22.141Z</time></trkpt><trkpt lat="47.9644633" lon="-1.2710533"><ele>58.0</ele><time>2026-05-02T07:01:23.14Z</time></trkpt><trkpt lat="47.9644033" lon="-1.2713783"><ele>58.5</ele><time>2026-05-02T07:01:24.143Z</time></trkpt><trkpt lat="47.9643433" lon="-1.2717067"><ele>59.0</ele><time>2026-05-02T07:01:25.14Z</time></trkpt><trkpt lat="47.9642817" lon="-1.2720417"><ele>58.0</ele><time>2026-05-02T07:01:26.145Z</time></trkpt><trkpt lat="47.9642217" lon="-1.2723717"><ele>57.0</ele><time>2026-05-02T07:01:27.14Z</time></trkpt><trkpt lat="47.96417" lon="-1.272695"><ele>54.66666666666667</ele><time>2026-05-02T07:01:28.141Z</time></trkpt><trkpt lat="47.9641217" lon="-1.27302"><ele>52.333333333333336</ele><time>2026-05-02T07:01:29.14Z</time></trkpt><trkpt lat="47.96408" lon="-1.273345"><ele>50.0</ele><time>2026-05-02T07:01:30.14Z</time></trkpt><trkpt lat="47.96404" lon="-1.2736733"><ele>50.0</ele><time>2026-05-02T07:01:31.14Z</time></trkpt><trkpt lat="47.9640017" lon="-1.273995"><ele>50.0</ele><time>2026-05-02T07:01:32.14Z</time></trkpt><trkpt lat="47.9639667" lon="-1.2743183"><ele>50.0</ele><time>2026-05-02T07:01:33.141Z</time></trkpt><trkpt lat="47.96393" lon="-1.2746417"><ele>50.66666666666667</ele><time>2026-05-02T07:01:34.139Z</time></trkpt><trkpt lat="47.9638917" lon="-1.2749617"><ele>51.33333333333333</ele><time>2026-05-02T07:01:35.141Z</time></trkpt><trkpt lat="47.963845" lon="-1.2752833"><ele>52.0</ele><time>2026-05-02T07:01:36.14Z</time></trkpt><trkpt lat="47.96379" lon="-1.27561"><ele>53.0</ele><time>2026-05-02T07:01:37.14Z</time></trkpt><trkpt lat="47.9637383" lon="-1.2759517"><ele>54.0</ele><time>2026-05-02T07:01:38.139Z</time></trkpt><trkpt lat="47.9636917" lon="-1.276305"><ele>54.0</ele><time>2026-05-02T07:01:39.14Z</time></trkpt><trkpt lat="47.9636467" lon="-1.27666"><ele>54.0</ele><time>2026-05-02T07:01:40.14Z</time></trkpt><trkpt lat="47.9636067" lon="-1.2770033"><ele>54.0</ele><time>2026-05-02T07:01:41.14Z</time></trkpt><trkpt lat="47.9635683" lon="-1.2773383"><ele>54.0</ele><time>2026-05-02T07:01:42.141Z</time></trkpt><trkpt lat="47.96353" lon="-1.27767"><ele>54.0</ele><time>2026-05-02T07:01:43.139Z</time></trkpt><trkpt lat="47.9634917" lon="-1.2779983"><ele>54.0</ele><time>2026-05-02T07:01:44.14Z</time></trkpt><trkpt lat="47.96345" lon="-1.2783283"><ele>54.0</ele><time>2026-05-02T07:01:45.14Z</time></trkpt><trkpt lat="47.9634117" lon="-1.27866"><ele>54.0</ele><time>2026-05-02T07:01:46.144Z</time></trkpt><trkpt lat="47.963375" lon="-1.2789867"><ele>54.0</ele><time>2026-05-02T07:01:47.143Z</time></trkpt><trkpt lat="47.9633383" lon="-1.2793067"><ele>54.0</ele><time>2026-05-02T07:01:48.141Z</time></trkpt><trkpt lat="47.9633017" lon="-1.2796233"><ele>54.0</ele><time>2026-05-02T07:01:49.139Z</time></trkpt><trkpt lat="47.9632633" lon="-1.2799383"><ele>54.0</ele><time>2026-05-02T07:01:50.14Z</time></trkpt><trkpt lat="47.9632283" lon="-1.2802467"><ele>54.0</ele><time>2026-05-02T07:01:51.14Z</time></trkpt><trkpt lat="47.96319" lon="-1.2805567"><ele>54.0</ele><time>2026-05-02T07:01:52.14Z</time></trkpt><trkpt lat="47.963155" lon="-1.2808633"><ele>54.0</ele><time>2026-05-02T07:01:53.139Z</time></trkpt><trkpt lat="47.96312" lon="-1.2811733"><ele>54.0</ele><time>2026-05-02T07:01:54.14Z</time></trkpt><trkpt lat="47.963085" lon="-1.2814783"><ele>54.33333333333333</ele><time>2026-05-02T07:01:55.139Z</time></trkpt><trkpt lat="47.96305" lon="-1.2817817"><ele>54.666666666666664</ele><time>2026-05-02T07:01:56.14Z</time></trkpt><trkpt lat="47.963015" lon="-1.2820933"><ele>55.0</ele><time>2026-05-02T07:01:57.14Z</time></trkpt><trkpt lat="47.9629783" lon="-1.2824067"><ele>55.33333333333333</ele><time>2026-05-02T07:01:58.139Z</time></trkpt><trkpt lat="47.9629417" lon="-1.2827217"><ele>55.66666666666667</ele><time>2026-05-02T07:01:59.14Z</time></trkpt><trkpt lat="47.9629067" lon="-1.2830367"><ele>56.0</ele><time>2026-05-02T07:02:00.143Z</time></trkpt><trkpt lat="47.9628717" lon="-1.2833483"><ele>57.0</ele><time>2026-05-02T07:02:01.14Z</time></trkpt><trkpt lat="47.962845" lon="-1.2836533"><ele>58.0</ele><time>2026-05-02T07:02:02.141Z</time></trkpt><trkpt lat="47.9628333" lon="-1.2839567"><ele>59.0</ele><time>2026-05-02T07:02:03.141Z</time></trkpt><trkpt lat="47.9628367" lon="-1.2842633"><ele>60.0</ele><time>2026-05-02T07:02:04.141Z</time></trkpt><trkpt lat="47.96285" lon="-1.284575"><ele>61.0</ele><time>2026-05-02T07:02:05.14Z</time></trkpt><trkpt lat="47.9628667" lon="-1.2848867"><ele>62.0</ele><time>2026-05-02T07:02:06.14Z</time></trkpt><trkpt lat="47.9628833" lon="-1.2851967"><ele>62.333333333333336</ele><time>2026-05-02T07:02:07.141Z</time></trkpt><trkpt lat="47.9628983" lon="-1.2855067"><ele>62.66666666666667</ele><time>2026-05-02T07:02:08.14Z</time></trkpt><trkpt lat="47.9629133" lon="-1.28582"><ele>63.0</ele><time>2026-05-02T07:02:09.141Z</time></trkpt><trkpt lat="47.9629283" lon="-1.2861367"><ele>64.33333333333333</ele><time>2026-05-02T07:02:10.141Z</time></trkpt><trkpt lat="47.9629433" lon="-1.2864567"><ele>65.66666666666666</ele><time>2026-05-02T07:02:11.141Z</time></trkpt><trkpt lat="47.9629583" lon="-1.286785"><ele>67.0</ele><time>2026-05-02T07:02:12.14Z</time></trkpt><trkpt lat="47.9629733" lon="-1.2871183"><ele>68.5</ele><time>2026-05-02T07:02:13.14Z</time></trkpt><trkpt lat="47.9629883" lon="-1.2874533"><ele>70.0</ele><time>2026-05-02T07:02:14.141Z</time></trkpt><trkpt lat="47.9630033" lon="-1.28779"><ele>69.5</ele><time>2026-05-02T07:02:15.143Z</time></trkpt><trkpt lat="47.9630217" lon="-1.2881283"><ele>69.0</ele><time>2026-05-02T07:02:16.14Z</time></trkpt><trkpt lat="47.9630383" lon="-1.2884683"><ele>69.0</ele><time>2026-05-02T07:02:17.139Z</time></trkpt><trkpt lat="47.963055" lon="-1.2888067"><ele>69.0</ele><time>2026-05-02T07:02:18.139Z</time></trkpt><trkpt lat="47.9630717" lon="-1.289145"><ele>70.0</ele><time>2026-05-02T07:02:19.139Z</time></trkpt><trkpt lat="47.9630867" lon="-1.2894833"><ele>71.0</ele><time>2026-05-02T07:02:20.139Z</time></trkpt><trkpt lat="47.9631017" lon="-1.2898233"><ele>71.5</ele><time>2026-05-02T07:02:21.139Z</time></trkpt><trkpt lat="47.9631167" lon="-1.29016"><ele>72.0</ele><time>2026-05-02T07:02:22.139Z</time></trkpt><trkpt lat="47.9631317" lon="-1.2904967"><ele>72.66666666666667</ele><time>2026-05-02T07:02:23.139Z</time></trkpt><trkpt lat="47.963145" lon="-1.29083"><ele>73.33333333333334</ele><time>2026-05-02T07:02:24.141Z</time></trkpt><trkpt lat="47.96316" lon="-1.2911567"><ele>74.0</ele><time>2026-05-02T07:02:25.14Z</time></trkpt><trkpt lat="47.9631733" lon="-1.2914717"><ele>74.33333333333334</ele><time>2026-05-02T07:02:26.139Z</time></trkpt><trkpt lat="47.9631883" lon="-1.2917717"><ele>74.66666666666667</ele><time>2026-05-02T07:02:27.139Z</time></trkpt><trkpt lat="47.9632" lon="-1.2920517"><ele>75.0</ele><time>2026-05-02T07:02:28.141Z</time></trkpt><trkpt lat="47.96321" lon="-1.2923167"><ele>75.33333333333333</ele><time>2026-05-02T07:02:29.139Z</time></trkpt><trkpt lat="47.9632217" lon="-1.2925633"><ele>75.66666666666666</ele><time>2026-05-02T07:02:30.144Z</time></trkpt><trkpt lat="47.9632333" lon="-1.2927933"><ele>76.0</ele><time>2026-05-02T07:02:31.139Z</time></trkpt><trkpt lat="47.9632417" lon="-1.293005"><ele>76.2</ele><time>2026-05-02T07:02:32.142Z</time></trkpt><trkpt lat="47.9632533" lon="-1.29319"><ele>76.39999999999999</ele><time>2026-05-02T07:02:33.14Z</time></trkpt><trkpt lat="47.9632617" lon="-1.29335"><ele>76.6</ele><time>2026-05-02T07:02:34.139Z</time></trkpt><trkpt lat="47.9632683" lon="-1.2934783"><ele>76.8</ele><time>2026-05-02T07:02:35.139Z</time></trkpt><trkpt lat="47.963275" lon="-1.293575"><ele>77.0</ele><time>2026-05-02T07:02:36.141Z</time></trkpt><trkpt lat="47.9632883" lon="-1.2937033"><ele>77.0</ele><time>2026-05-02T07:02:38.14Z</time></trkpt><trkpt lat="47.963245" lon="-1.29384"><ele>77.0</ele><time>2026-05-02T07:02:41.139Z</time></trkpt><trkpt lat="47.9631533" lon="-1.2939533"><ele>77.0</ele><time>2026-05-02T07:02:43.139Z</time></trkpt><trkpt lat="47.9631183" lon="-1.2940733"><ele>77.0</ele><time>2026-05-02T07:02:45.141Z</time></trkpt><trkpt lat="47.96317" lon="-1.2941867"><ele>77.0</ele><time>2026-05-02T07:02:47.139Z</time></trkpt><trkpt lat="47.9632383" lon="-1.2943317"><ele>77.0</ele><time>2026-05-02T07:02:49.14Z</time></trkpt><trkpt lat="47.9632783" lon="-1.2944183"><ele>77.0</ele><time>2026-05-02T07:02:50.139Z</time></trkpt><trkpt lat="47.9633167" lon="-1.2945"><ele>77.0</ele><time>2026-05-02T07:02:51.142Z</time></trkpt><trkpt lat="47.9633883" lon="-1.29464"><ele>77.0</ele><time>2026-05-02T07:02:53.142Z</time></trkpt><trkpt lat="47.9634517" lon="-1.294735"><ele>77.0</ele><time>2026-05-02T07:02:55.14Z</time></trkpt><trkpt lat="47.963515" lon="-1.294825"><ele>77.0</ele><time>2026-05-02T07:02:57.14Z</time></trkpt><trkpt lat="47.9635567" lon="-1.2949167"><ele>77.0</ele><time>2026-05-02T07:02:59.139Z</time></trkpt><trkpt lat="47.963585" lon="-1.2950183"><ele>77.0</ele><time>2026-05-02T07:03:01.139Z</time></trkpt><trkpt lat="47.9636033" lon="-1.295115"><ele>77.0</ele><time>2026-05-02T07:03:03.139Z</time></trkpt><trkpt lat="47.9636383" lon="-1.2952467"><ele>77.0</ele><time>2026-05-02T07:03:06.144Z</time></trkpt><trkpt lat="47.9636617" lon="-1.2953483"><ele>77.0</ele><time>2026-05-02T07:03:08.139Z</time></trkpt><trkpt lat="47.96368" lon="-1.2954433"><ele>77.0</ele><time>2026-05-02T07:03:10.14Z</time></trkpt><trkpt lat="47.9636817" lon="-1.29557"><ele>76.83333333333334</ele><time>2026-05-02T07:03:13.141Z</time></trkpt><trkpt lat="47.9636833" lon="-1.29568"><ele>76.66666666666667</ele><time>2026-05-02T07:03:16.141Z</time></trkpt><trkpt lat="47.9636633" lon="-1.295785"><ele>76.5</ele><time>2026-05-02T07:05:06.139Z</time></trkpt><trkpt lat="47.96367" lon="-1.2958833"><ele>76.33333333333333</ele><time>2026-05-02T07:05:08.138Z</time></trkpt><trkpt lat="47.96367" lon="-1.2960067"><ele>76.16666666666666</ele><time>2026-05-02T07:05:10.139Z</time></trkpt><trkpt lat="47.9636783" lon="-1.2961417"><ele>76.0</ele><time>2026-05-02T07:05:12.14Z</time></trkpt><trkpt lat="47.9636833" lon="-1.296285"><ele>75.66666666666666</ele><time>2026-05-02T07:05:14.14Z</time></trkpt><trkpt lat="47.9636967" lon="-1.2964233"><ele>75.33333333333333</ele><time>2026-05-02T07:05:16.14Z</time></trkpt><trkpt lat="47.9636967" lon="-1.2965433"><ele>75.0</ele><time>2026-05-02T07:05:18.141Z</time></trkpt><trkpt lat="47.9637067" lon="-1.2966583"><ele>74.66666666666667</ele><time>2026-05-02T07:05:20.139Z</time></trkpt><trkpt lat="47.9637133" lon="-1.2967717"><ele>74.33333333333334</ele><time>2026-05-02T07:05:22.141Z</time></trkpt><trkpt lat="47.9637233" lon="-1.2968733"><ele>74.0</ele><time>2026-05-02T07:05:24.139Z</time></trkpt><trkpt lat="47.9637367" lon="-1.29697"><ele>74.0</ele><time>2026-05-02T07:05:26.139Z</time></trkpt><trkpt lat="47.9637517" lon="-1.2970783"><ele>74.0</ele><time>2026-05-02T07:05:28.139Z</time></trkpt><trkpt lat="47.9637733" lon="-1.2971833"><ele>74.0</ele><time>2026-05-02T07:05:30.14Z</time></trkpt><trkpt lat="47.9638" lon="-1.2973017"><ele>74.0</ele><time>2026-05-02T07:05:32.14Z</time></trkpt><trkpt lat="47.9639333" lon="-1.297395"><ele>74.0</ele><time>2026-05-02T07:05:34.372Z</time></trkpt><trkpt lat="47.9638917" lon="-1.2975633"><ele>74.14285714285714</ele><time>2026-05-02T07:05:35.371Z</time></trkpt><trkpt lat="47.96389" lon="-1.2976883"><ele>74.28571428571428</ele><time>2026-05-02T07:05:38.139Z</time></trkpt><trkpt lat="47.9639267" lon="-1.2977733"><ele>74.42857142857142</ele><time>2026-05-02T07:05:40.138Z</time></trkpt><trkpt lat="47.9639417" lon="-1.29787"><ele>74.57142857142857</ele><time>2026-05-02T07:05:42.141Z</time></trkpt><trkpt lat="47.9639667" lon="-1.29797"><ele>74.71428571428571</ele><time>2026-05-02T07:05:44.14Z</time></trkpt><trkpt lat="47.963985" lon="-1.2980783"><ele>74.85714285714285</ele><time>2026-05-02T07:05:46.138Z</time></trkpt><trkpt lat="47.964005" lon="-1.2981817"><ele>75.0</ele><time>2026-05-02T07:05:48.139Z</time></trkpt><trkpt lat="47.964015" lon="-1.2982983"><ele>74.6</ele><time>2026-05-02T07:05:50.139Z</time></trkpt><trkpt lat="47.9640317" lon="-1.2984267"><ele>74.2</ele><time>2026-05-02T07:05:52.14Z</time></trkpt><trkpt lat="47.9640583" lon="-1.2985583"><ele>73.8</ele><time>2026-05-02T07:05:54.141Z</time></trkpt><trkpt lat="47.96408" lon="-1.2986783"><ele>73.4</ele><time>2026-05-02T07:05:56.139Z</time></trkpt><trkpt lat="47.9640917" lon="-1.2988167"><ele>73.0</ele><time>2026-05-02T07:05:58.14Z</time></trkpt><trkpt lat="47.9641133" lon="-1.29896"><ele>72.6</ele><time>2026-05-02T07:06:00.139Z</time></trkpt><trkpt lat="47.9641267" lon="-1.2991"><ele>72.19999999999999</ele><time>2026-05-02T07:06:02.14Z</time></trkpt><trkpt lat="47.9641383" lon="-1.2992483"><ele>71.8</ele><time>2026-05-02T07:06:04.14Z</time></trkpt><trkpt lat="47.9641533" lon="-1.299385"><ele>71.39999999999999</ele><time>2026-05-02T07:06:06.139Z</time></trkpt><trkpt lat="47.96418" lon="-1.2995183"><ele>71.0</ele><time>2026-05-02T07:06:08.139Z</time></trkpt><trkpt lat="47.96419" lon="-1.299625"><ele>71.2</ele><time>2026-05-02T07:06:10.139Z</time></trkpt><trkpt lat="47.9641583" lon="-1.2998"><ele>71.39999999999999</ele><time>2026-05-02T07:06:48.139Z</time></trkpt><trkpt lat="47.9640533" lon="-1.2998567"><ele>71.6</ele><time>2026-05-02T07:06:50.139Z</time></trkpt><trkpt lat="47.9639717" lon="-1.299895"><ele>71.8</ele><time>2026-05-02T07:06:51.139Z</time></trkpt><trkpt lat="47.9638783" lon="-1.2999333"><ele>72.0</ele><time>2026-05-02T07:06:52.14Z</time></trkpt><trkpt lat="47.9637733" lon="-1.29998"><ele>72.0</ele><time>2026-05-02T07:06:53.139Z</time></trkpt><trkpt lat="47.96367" lon="-1.3000217"><ele>72.0</ele><time>2026-05-02T07:06:54.139Z</time></trkpt><trkpt lat="47.9635567" lon="-1.30007"><ele>72.0</ele><time>2026-05-02T07:06:55.139Z</time></trkpt><trkpt lat="47.9634483" lon="-1.300115"><ele>72.0</ele><time>2026-05-02T07:06:56.139Z</time></trkpt><trkpt lat="47.9633383" lon="-1.3001617"><ele>72.0</ele><time>2026-05-02T07:06:57.139Z</time></trkpt><trkpt lat="47.96322" lon="-1.3002117"><ele>72.0</ele><time>2026-05-02T07:06:58.139Z</time></trkpt><trkpt lat="47.96309" lon="-1.3002717"><ele>72.0</ele><time>2026-05-02T07:06:59.139Z</time></trkpt><trkpt lat="47.9629533" lon="-1.3003433"><ele>72.0</ele><time>2026-05-02T07:07:00.139Z</time></trkpt><trkpt lat="47.96282" lon="-1.30042"><ele>72.0</ele><time>2026-05-02T07:07:01.139Z</time></trkpt><trkpt lat="47.9626883" lon="-1.3005117"><ele>72.0</ele><time>2026-05-02T07:07:02.139Z</time></trkpt><trkpt lat="47.962555" lon="-1.3006267"><ele>72.0</ele><time>2026-05-02T07:07:03.138Z</time></trkpt><trkpt lat="47.9624233" lon="-1.3007533"><ele>72.0</ele><time>2026-05-02T07:07:04.139Z</time></trkpt><trkpt lat="47.9622883" lon="-1.30089"><ele>72.0</ele><time>2026-05-02T07:07:05.138Z</time></trkpt><trkpt lat="47.962155" lon="-1.3010367"><ele>72.0</ele><time>2026-05-02T07:07:06.139Z</time></trkpt><trkpt lat="47.9620183" lon="-1.301185"><ele>72.0</ele><time>2026-05-02T07:07:07.141Z</time></trkpt><trkpt lat="47.9618783" lon="-1.3013383"><ele>72.0</ele><time>2026-05-02T07:07:08.141Z</time></trkpt><trkpt lat="47.9617383" lon="-1.3014933"><ele>72.0</ele><time>2026-05-02T07:07:09.139Z</time></trkpt><trkpt lat="47.961595" lon="-1.301635"><ele>71.33333333333333</ele><time>2026-05-02T07:07:10.139Z</time></trkpt><trkpt lat="47.961445" lon="-1.301755"><ele>70.66666666666666</ele><time>2026-05-02T07:07:11.139Z</time></trkpt><trkpt lat="47.9612817" lon="-1.3018567"><ele>70.0</ele><time>2026-05-02T07:07:12.139Z</time></trkpt><trkpt lat="47.9611117" lon="-1.30194"><ele>70.0</ele><time>2026-05-02T07:07:13.139Z</time></trkpt><trkpt lat="47.9609383" lon="-1.3020167"><ele>70.0</ele><time>2026-05-02T07:07:14.143Z</time></trkpt><trkpt lat="47.9607633" lon="-1.3020867"><ele>70.0</ele><time>2026-05-02T07:07:15.139Z</time></trkpt><trkpt lat="47.9605917" lon="-1.3021533"><ele>69.0</ele><time>2026-05-02T07:07:16.139Z</time></trkpt><trkpt lat="47.960425" lon="-1.3022183"><ele>68.0</ele><time>2026-05-02T07:07:17.139Z</time></trkpt><trkpt lat="47.9602617" lon="-1.302285"><ele>67.0</ele><time>2026-05-02T07:07:18.139Z</time></trkpt><trkpt lat="47.9601017" lon="-1.3023533"><ele>66.0</ele><time>2026-05-02T07:07:19.14Z</time></trkpt><trkpt lat="47.9599467" lon="-1.3024267"><ele>65.0</ele><time>2026-05-02T07:07:20.14Z</time></trkpt><trkpt lat="47.959795" lon="-1.302505"><ele>64.0</ele><time>2026-05-02T07:07:21.14Z</time></trkpt><trkpt lat="47.95965" lon="-1.30259"><ele>64.0</ele><time>2026-05-02T07:07:22.14Z</time></trkpt><trkpt lat="47.9595083" lon="-1.3026767"><ele>64.0</ele><time>2026-05-02T07:07:23.139Z</time></trkpt><trkpt lat="47.9593717" lon="-1.3027633"><ele>64.0</ele><time>2026-05-02T07:07:24.139Z</time></trkpt><trkpt lat="47.9592383" lon="-1.3028433"><ele>64.0</ele><time>2026-05-02T07:07:25.139Z</time></trkpt><trkpt lat="47.95911" lon="-1.3029233"><ele>62.75</ele><time>2026-05-02T07:07:26.139Z</time></trkpt><trkpt lat="47.958985" lon="-1.3030033"><ele>61.5</ele><time>2026-05-02T07:07:27.14Z</time></trkpt><trkpt lat="47.9588667" lon="-1.30308"><ele>60.25</ele><time>2026-05-02T07:07:28.141Z</time></trkpt><trkpt lat="47.95875" lon="-1.30315"><ele>59.0</ele><time>2026-05-02T07:07:29.139Z</time></trkpt><trkpt lat="47.9586383" lon="-1.3032117"><ele>59.0</ele><time>2026-05-02T07:07:30.139Z</time></trkpt><trkpt lat="47.9585367" lon="-1.3032683"><ele>59.00000000000001</ele><time>2026-05-02T07:07:31.139Z</time></trkpt><trkpt lat="47.9584433" lon="-1.303325"><ele>59.00000000000001</ele><time>2026-05-02T07:07:32.14Z</time></trkpt><trkpt lat="47.9583617" lon="-1.303375"><ele>59.0</ele><time>2026-05-02T07:07:33.139Z</time></trkpt><trkpt lat="47.9582933" lon="-1.3034167"><ele>59.0</ele><time>2026-05-02T07:07:34.139Z</time></trkpt><trkpt lat="47.9582033" lon="-1.303475"><ele>58.66666666666667</ele><time>2026-05-02T07:07:36.142Z</time></trkpt><trkpt lat="47.9581267" lon="-1.30353"><ele>58.333333333333336</ele><time>2026-05-02T07:07:41.139Z</time></trkpt><trkpt lat="47.9580433" lon="-1.3035783"><ele>58.0</ele><time>2026-05-02T07:07:47.139Z</time></trkpt><trkpt lat="47.9579683" lon="-1.3035367"><ele>57.66666666666667</ele><time>2026-05-02T07:07:49.144Z</time></trkpt><trkpt lat="47.957915" lon="-1.3034617"><ele>57.333333333333336</ele><time>2026-05-02T07:07:50.138Z</time></trkpt><trkpt lat="47.9578533" lon="-1.30338"><ele>57.0</ele><time>2026-05-02T07:07:51.14Z</time></trkpt><trkpt lat="47.957785" lon="-1.3032917"><ele>57.0</ele><time>2026-05-02T07:07:52.139Z</time></trkpt><trkpt lat="47.9577117" lon="-1.3031933"><ele>57.0</ele><time>2026-05-02T07:07:53.139Z</time></trkpt><trkpt lat="47.957635" lon="-1.3030817"><ele>57.0</ele><time>2026-05-02T07:07:54.139Z</time></trkpt><trkpt lat="47.9575517" lon="-1.3029683"><ele>57.0</ele><time>2026-05-02T07:07:55.139Z</time></trkpt><trkpt lat="47.9574683" lon="-1.3028517"><ele>57.0</ele><time>2026-05-02T07:07:56.138Z</time></trkpt><trkpt lat="47.9573817" lon="-1.3027383"><ele>56.8</ele><time>2026-05-02T07:07:57.14Z</time></trkpt><trkpt lat="47.9573017" lon="-1.302635"><ele>56.6</ele><time>2026-05-02T07:07:58.138Z</time></trkpt><trkpt lat="47.9572217" lon="-1.3025383"><ele>56.39999999999999</ele><time>2026-05-02T07:07:59.139Z</time></trkpt><trkpt lat="47.9571517" lon="-1.3024467"><ele>56.199999999999996</ele><time>2026-05-02T07:08:00.139Z</time></trkpt><trkpt lat="47.95708" lon="-1.3023483"><ele>56.0</ele><time>2026-05-02T07:08:01.139Z</time></trkpt><trkpt lat="47.95701" lon="-1.3022433"><ele>56.0</ele><time>2026-05-02T07:08:02.139Z</time></trkpt><trkpt lat="47.9569367" lon="-1.302125"><ele>55.99999999999999</ele><time>2026-05-02T07:08:03.143Z</time></trkpt><trkpt lat="47.95686" lon="-1.302005"><ele>55.99999999999999</ele><time>2026-05-02T07:08:04.139Z</time></trkpt><trkpt lat="47.9567833" lon="-1.3018883"><ele>56.0</ele><time>2026-05-02T07:08:05.138Z</time></trkpt><trkpt lat="47.9567133" lon="-1.3017817"><ele>56.0</ele><time>2026-05-02T07:08:06.139Z</time></trkpt><trkpt lat="47.95665" lon="-1.30169"><ele>56.00000000000001</ele><time>2026-05-02T07:08:07.139Z</time></trkpt><trkpt lat="47.956595" lon="-1.3016033"><ele>56.0</ele><time>2026-05-02T07:08:08.139Z</time></trkpt><trkpt lat="47.95654" lon="-1.3015183"><ele>56.0</ele><time>2026-05-02T07:08:09.139Z</time></trkpt><trkpt lat="47.956485" lon="-1.3014383"><ele>56.0</ele><time>2026-05-02T07:08:10.142Z</time></trkpt><trkpt lat="47.9564383" lon="-1.301365"><ele>56.00000000000001</ele><time>2026-05-02T07:08:11.139Z</time></trkpt><trkpt lat="47.9563933" lon="-1.3012933"><ele>56.0</ele><time>2026-05-02T07:08:12.139Z</time></trkpt><trkpt lat="47.9563083" lon="-1.3011833"><ele>55.199999999999996</ele><time>2026-05-02T07:08:14.14Z</time></trkpt><trkpt lat="47.9562133" lon="-1.3011733"><ele>54.39999999999999</ele><time>2026-05-02T07:08:16.14Z</time></trkpt><trkpt lat="47.9561333" lon="-1.30122"><ele>53.6</ele><time>2026-05-02T07:08:18.14Z</time></trkpt><trkpt lat="47.9560533" lon="-1.301265"><ele>52.8</ele><time>2026-05-02T07:08:20.14Z</time></trkpt><trkpt lat="47.9559683" lon="-1.3012967"><ele>52.0</ele><time>2026-05-02T07:08:22.14Z</time></trkpt><trkpt lat="47.955875" lon="-1.3013383"><ele>52.2</ele><time>2026-05-02T07:08:24.142Z</time></trkpt><trkpt lat="47.9557767" lon="-1.3013817"><ele>52.400000000000006</ele><time>2026-05-02T07:08:26.141Z</time></trkpt><trkpt lat="47.95569" lon="-1.301435"><ele>52.599999999999994</ele><time>2026-05-02T07:08:28.14Z</time></trkpt><trkpt lat="47.9556133" lon="-1.301495"><ele>52.8</ele><time>2026-05-02T07:08:30.142Z</time></trkpt><trkpt lat="47.9555217" lon="-1.3015633"><ele>53.0</ele><time>2026-05-02T07:08:32.14Z</time></trkpt><trkpt lat="47.955405" lon="-1.3016383"><ele>53.42857142857143</ele><time>2026-05-02T07:08:34.14Z</time></trkpt><trkpt lat="47.9553383" lon="-1.30167"><ele>53.857142857142854</ele><time>2026-05-02T07:08:35.14Z</time></trkpt><trkpt lat="47.955275" lon="-1.3017083"><ele>54.285714285714285</ele><time>2026-05-02T07:08:36.139Z</time></trkpt><trkpt lat="47.9552183" lon="-1.3017533"><ele>54.714285714285715</ele><time>2026-05-02T07:08:37.14Z</time></trkpt><trkpt lat="47.955165" lon="-1.301805"><ele>55.14285714285714</ele><time>2026-05-02T07:08:38.139Z</time></trkpt><trkpt lat="47.9551167" lon="-1.3018667"><ele>55.57142857142857</ele><time>2026-05-02T07:08:39.143Z</time></trkpt><trkpt lat="47.9550717" lon="-1.3019333"><ele>56.0</ele><time>2026-05-02T07:08:40.146Z</time></trkpt><trkpt lat="47.954985" lon="-1.30206"><ele>56.00000000000001</ele><time>2026-05-02T07:08:42.14Z</time></trkpt><trkpt lat="47.95492" lon="-1.3021917"><ele>56.0</ele><time>2026-05-02T07:08:44.14Z</time></trkpt><trkpt lat="47.954845" lon="-1.30229"><ele>56.0</ele><time>2026-05-02T07:08:46.14Z</time></trkpt><trkpt lat="47.9547617" lon="-1.30239"><ele>56.0</ele><time>2026-05-02T07:08:48.141Z</time></trkpt><trkpt lat="47.954715" lon="-1.3024567"><ele>56.00000000000001</ele><time>2026-05-02T07:08:49.143Z</time></trkpt><trkpt lat="47.9546683" lon="-1.3025267"><ele>56.0</ele><time>2026-05-02T07:08:50.141Z</time></trkpt><trkpt lat="47.954585" lon="-1.3026633"><ele>55.8</ele><time>2026-05-02T07:08:52.141Z</time></trkpt><trkpt lat="47.95455" lon="-1.3027417"><ele>55.599999999999994</ele><time>2026-05-02T07:08:53.141Z</time></trkpt><trkpt lat="47.9544867" lon="-1.3028967"><ele>55.4</ele><time>2026-05-02T07:08:55.141Z</time></trkpt><trkpt lat="47.954435" lon="-1.3030617"><ele>55.2</ele><time>2026-05-02T07:08:57.141Z</time></trkpt><trkpt lat="47.9544017" lon="-1.3032233"><ele>55.0</ele><time>2026-05-02T07:08:59.14Z</time></trkpt><trkpt lat="47.95438" lon="-1.3033517"><ele>54.666666666666664</ele><time>2026-05-02T07:09:01.143Z</time></trkpt><trkpt lat="47.9543733" lon="-1.303485"><ele>54.33333333333333</ele><time>2026-05-02T07:09:04.139Z</time></trkpt><trkpt lat="47.95436" lon="-1.3036083"><ele>54.0</ele><time>2026-05-02T07:09:06.14Z</time></trkpt><trkpt lat="47.9543433" lon="-1.3037117"><ele>53.66666666666667</ele><time>2026-05-02T07:09:07.139Z</time></trkpt><trkpt lat="47.9543267" lon="-1.3038283"><ele>53.333333333333336</ele><time>2026-05-02T07:09:08.139Z</time></trkpt><trkpt lat="47.9543117" lon="-1.30396"><ele>53.0</ele><time>2026-05-02T07:09:09.141Z</time></trkpt><trkpt lat="47.9543017" lon="-1.3041033"><ele>52.5</ele><time>2026-05-02T07:09:10.14Z</time></trkpt><trkpt lat="47.9542917" lon="-1.3042683"><ele>52.0</ele><time>2026-05-02T07:09:11.139Z</time></trkpt><trkpt lat="47.95428" lon="-1.3044467"><ele>51.5</ele><time>2026-05-02T07:09:12.14Z</time></trkpt><trkpt lat="47.9542617" lon="-1.3046383"><ele>51.0</ele><time>2026-05-02T07:09:13.14Z</time></trkpt><trkpt lat="47.9542417" lon="-1.30485"><ele>50.66666666666667</ele><time>2026-05-02T07:09:14.14Z</time></trkpt><trkpt lat="47.9542217" lon="-1.30509"><ele>50.333333333333336</ele><time>2026-05-02T07:09:15.14Z</time></trkpt><trkpt lat="47.954195" lon="-1.3053417"><ele>50.0</ele><time>2026-05-02T07:09:16.14Z</time></trkpt><trkpt lat="47.9541667" lon="-1.3056167"><ele>48.66666666666667</ele><time>2026-05-02T07:09:17.139Z</time></trkpt><trkpt lat="47.9541367" lon="-1.3059167"><ele>47.333333333333336</ele><time>2026-05-02T07:09:18.14Z</time></trkpt><trkpt lat="47.9541083" lon="-1.3062267"><ele>46.0</ele><time>2026-05-02T07:09:19.14Z</time></trkpt><trkpt lat="47.954075" lon="-1.3065517"><ele>45.5</ele><time>2026-05-02T07:09:20.139Z</time></trkpt><trkpt lat="47.954045" lon="-1.30689"><ele>45.0</ele><time>2026-05-02T07:09:21.144Z</time></trkpt><trkpt lat="47.954015" lon="-1.307235"><ele>45.5</ele><time>2026-05-02T07:09:22.14Z</time></trkpt><trkpt lat="47.9539833" lon="-1.3075867"><ele>46.0</ele><time>2026-05-02T07:09:23.14Z</time></trkpt><trkpt lat="47.95395" lon="-1.3079383"><ele>46.5</ele><time>2026-05-02T07:09:24.14Z</time></trkpt><trkpt lat="47.9539133" lon="-1.30829"><ele>47.0</ele><time>2026-05-02T07:09:25.142Z</time></trkpt><trkpt lat="47.95388" lon="-1.30864"><ele>47.5</ele><time>2026-05-02T07:09:26.14Z</time></trkpt><trkpt lat="47.9538483" lon="-1.3089933"><ele>48.0</ele><time>2026-05-02T07:09:27.14Z</time></trkpt><trkpt lat="47.953815" lon="-1.30936"><ele>48.0</ele><time>2026-05-02T07:09:28.138Z</time></trkpt><trkpt lat="47.95379" lon="-1.3097517"><ele>48.0</ele><time>2026-05-02T07:09:29.141Z</time></trkpt><trkpt lat="47.953785" lon="-1.3101617"><ele>48.0</ele><time>2026-05-02T07:09:30.14Z</time></trkpt><trkpt lat="47.9538033" lon="-1.3105717"><ele>48.0</ele><time>2026-05-02T07:09:31.139Z</time></trkpt><trkpt lat="47.9538367" lon="-1.3109583"><ele>49.0</ele><time>2026-05-02T07:09:32.14Z</time></trkpt><trkpt lat="47.9538767" lon="-1.3113283"><ele>50.0</ele><time>2026-05-02T07:09:33.141Z</time></trkpt><trkpt lat="47.9539183" lon="-1.3116833"><ele>51.5</ele><time>2026-05-02T07:09:34.142Z</time></trkpt><trkpt lat="47.9539583" lon="-1.312025"><ele>53.0</ele><time>2026-05-02T07:09:35.141Z</time></trkpt><trkpt lat="47.9539967" lon="-1.3123567"><ele>56.0</ele><time>2026-05-02T07:09:36.142Z</time></trkpt><trkpt lat="47.954035" lon="-1.3126833"><ele>59.0</ele><time>2026-05-02T07:09:37.141Z</time></trkpt><trkpt lat="47.9540717" lon="-1.3130217"><ele>61.5</ele><time>2026-05-02T07:09:38.142Z</time></trkpt><trkpt lat="47.954105" lon="-1.3133717"><ele>64.0</ele><time>2026-05-02T07:09:39.142Z</time></trkpt><trkpt lat="47.954125" lon="-1.3137433"><ele>67.5</ele><time>2026-05-02T07:09:40.14Z</time></trkpt><trkpt lat="47.95413" lon="-1.3141383"><ele>71.0</ele><time>2026-05-02T07:09:41.14Z</time></trkpt><trkpt lat="47.95412" lon="-1.3145483"><ele>73.5</ele><time>2026-05-02T07:09:42.141Z</time></trkpt><trkpt lat="47.9541" lon="-1.31495"><ele>76.0</ele><time>2026-05-02T07:09:43.141Z</time></trkpt><trkpt lat="47.95408" lon="-1.3153283"><ele>76.5</ele><time>2026-05-02T07:09:44.141Z</time></trkpt><trkpt lat="47.954065" lon="-1.3156983"><ele>77.0</ele><time>2026-05-02T07:09:45.141Z</time></trkpt><trkpt lat="47.9540617" lon="-1.3160617"><ele>78.0</ele><time>2026-05-02T07:09:46.141Z</time></trkpt><trkpt lat="47.954065" lon="-1.3164267"><ele>79.0</ele><time>2026-05-02T07:09:47.14Z</time></trkpt><trkpt lat="47.95408" lon="-1.3167967"><ele>79.0</ele><time>2026-05-02T07:09:48.142Z</time></trkpt><trkpt lat="47.9541" lon="-1.317175"><ele>79.0</ele><time>2026-05-02T07:09:49.141Z</time></trkpt><trkpt lat="47.95412" lon="-1.3175583"><ele>78.0</ele><time>2026-05-02T07:09:50.14Z</time></trkpt><trkpt lat="47.9541417" lon="-1.3179367"><ele>77.0</ele><time>2026-05-02T07:09:51.139Z</time></trkpt><trkpt lat="47.954155" lon="-1.3183083"><ele>76.0</ele><time>2026-05-02T07:09:52.141Z</time></trkpt><trkpt lat="47.9541583" lon="-1.3186783"><ele>75.0</ele><time>2026-05-02T07:09:53.14Z</time></trkpt><trkpt lat="47.9541483" lon="-1.319045"><ele>75.0</ele><time>2026-05-02T07:09:54.14Z</time></trkpt><trkpt lat="47.9541233" lon="-1.3194117"><ele>75.0</ele><time>2026-05-02T07:09:55.14Z</time></trkpt><trkpt lat="47.954085" lon="-1.31978"><ele>73.5</ele><time>2026-05-02T07:09:56.138Z</time></trkpt><trkpt lat="47.9540433" lon="-1.32016"><ele>72.0</ele><time>2026-05-02T07:09:57.142Z</time></trkpt><trkpt lat="47.953995" lon="-1.3205433"><ele>72.5</ele><time>2026-05-02T07:09:58.139Z</time></trkpt><trkpt lat="47.9539417" lon="-1.3209317"><ele>73.0</ele><time>2026-05-02T07:09:59.14Z</time></trkpt><trkpt lat="47.9538867" lon="-1.3213233"><ele>72.0</ele><time>2026-05-02T07:10:00.14Z</time></trkpt><trkpt lat="47.95383" lon="-1.321715"><ele>71.0</ele><time>2026-05-02T07:10:01.141Z</time></trkpt><trkpt lat="47.9537733" lon="-1.3221083"><ele>72.0</ele><time>2026-05-02T07:10:02.142Z</time></trkpt><trkpt lat="47.9537183" lon="-1.3224983"><ele>73.0</ele><time>2026-05-02T07:10:03.14Z</time></trkpt><trkpt lat="47.953665" lon="-1.322885"><ele>73.5</ele><time>2026-05-02T07:10:04.14Z</time></trkpt><trkpt lat="47.953615" lon="-1.3232633"><ele>74.0</ele><time>2026-05-02T07:10:05.14Z</time></trkpt><trkpt lat="47.95357" lon="-1.3236417"><ele>73.5</ele><time>2026-05-02T07:10:06.14Z</time></trkpt><trkpt lat="47.9535317" lon="-1.32402"><ele>73.0</ele><time>2026-05-02T07:10:07.14Z</time></trkpt><trkpt lat="47.953495" lon="-1.3244"><ele>72.5</ele><time>2026-05-02T07:10:08.141Z</time></trkpt><trkpt lat="47.9534567" lon="-1.3247783"><ele>72.0</ele><time>2026-05-02T07:10:09.14Z</time></trkpt><trkpt lat="47.9534183" lon="-1.3251517"><ele>72.0</ele><time>2026-05-02T07:10:10.14Z</time></trkpt><trkpt lat="47.9533817" lon="-1.3255167"><ele>72.0</ele><time>2026-05-02T07:10:11.139Z</time></trkpt><trkpt lat="47.9533517" lon="-1.325875"><ele>72.5</ele><time>2026-05-02T07:10:12.14Z</time></trkpt><trkpt lat="47.953345" lon="-1.32623"><ele>73.0</ele><time>2026-05-02T07:10:13.139Z</time></trkpt><trkpt lat="47.9533717" lon="-1.32659"><ele>70.5</ele><time>2026-05-02T07:10:14.14Z</time></trkpt><trkpt lat="47.9534317" lon="-1.326955"><ele>68.0</ele><time>2026-05-02T07:10:15.14Z</time></trkpt><trkpt lat="47.9535267" lon="-1.32732"><ele>67.5</ele><time>2026-05-02T07:10:16.14Z</time></trkpt><trkpt lat="47.9536517" lon="-1.3276933"><ele>67.0</ele><time>2026-05-02T07:10:17.14Z</time></trkpt><trkpt lat="47.9537833" lon="-1.3280717"><ele>66.5</ele><time>2026-05-02T07:10:18.141Z</time></trkpt><trkpt lat="47.95391" lon="-1.3284467"><ele>66.0</ele><time>2026-05-02T07:10:19.14Z</time></trkpt><trkpt lat="47.954025" lon="-1.3288267"><ele>65.5</ele><time>2026-05-02T07:10:20.141Z</time></trkpt><trkpt lat="47.9541183" lon="-1.32922"><ele>65.0</ele><time>2026-05-02T07:10:21.14Z</time></trkpt><trkpt lat="47.9541883" lon="-1.3296333"><ele>63.5</ele><time>2026-05-02T07:10:22.141Z</time></trkpt><trkpt lat="47.9542433" lon="-1.330065"><ele>62.0</ele><time>2026-05-02T07:10:23.14Z</time></trkpt><trkpt lat="47.9542983" lon="-1.3305067"><ele>61.5</ele><time>2026-05-02T07:10:24.139Z</time></trkpt><trkpt lat="47.9543533" lon="-1.3309567"><ele>61.0</ele><time>2026-05-02T07:10:25.138Z</time></trkpt><trkpt lat="47.9544117" lon="-1.3314033"><ele>61.0</ele><time>2026-05-02T07:10:26.143Z</time></trkpt><trkpt lat="47.9544683" lon="-1.331835"><ele>61.0</ele><time>2026-05-02T07:10:27.141Z</time></trkpt><trkpt lat="47.9545217" lon="-1.3322483"><ele>60.5</ele><time>2026-05-02T07:10:28.141Z</time></trkpt><trkpt lat="47.9545767" lon="-1.3326533"><ele>60.0</ele><time>2026-05-02T07:10:29.14Z</time></trkpt><trkpt lat="47.95463" lon="-1.33305"><ele>59.0</ele><time>2026-05-02T07:10:30.142Z</time></trkpt><trkpt lat="47.9546833" lon="-1.3334433"><ele>58.0</ele><time>2026-05-02T07:10:31.142Z</time></trkpt><trkpt lat="47.954735" lon="-1.3338383"><ele>58.0</ele><time>2026-05-02T07:10:32.14Z</time></trkpt><trkpt lat="47.9547817" lon="-1.33423"><ele>58.0</ele><time>2026-05-02T07:10:33.141Z</time></trkpt><trkpt lat="47.9548283" lon="-1.3346217"><ele>58.0</ele><time>2026-05-02T07:10:34.139Z</time></trkpt><trkpt lat="47.9548767" lon="-1.3350183"><ele>58.0</ele><time>2026-05-02T07:10:35.14Z</time></trkpt><trkpt lat="47.9549267" lon="-1.3354117"><ele>57.0</ele><time>2026-05-02T07:10:36.14Z</time></trkpt><trkpt lat="47.9549783" lon="-1.3357967"><ele>56.0</ele><time>2026-05-02T07:10:37.139Z</time></trkpt><trkpt lat="47.95503" lon="-1.33617"><ele>54.0</ele><time>2026-05-02T07:10:38.139Z</time></trkpt><trkpt lat="47.9550817" lon="-1.3365433"><ele>52.0</ele><time>2026-05-02T07:10:39.139Z</time></trkpt><trkpt lat="47.9551317" lon="-1.336915"><ele>50.5</ele><time>2026-05-02T07:10:40.139Z</time></trkpt><trkpt lat="47.9551783" lon="-1.3372783"><ele>49.0</ele><time>2026-05-02T07:10:41.142Z</time></trkpt><trkpt lat="47.955215" lon="-1.3376367"><ele>49.0</ele><time>2026-05-02T07:10:42.14Z</time></trkpt><trkpt lat="47.9552333" lon="-1.3379933"><ele>49.0</ele><time>2026-05-02T07:10:43.139Z</time></trkpt><trkpt lat="47.9552233" lon="-1.338355"><ele>47.0</ele><time>2026-05-02T07:10:44.14Z</time></trkpt><trkpt lat="47.95518" lon="-1.3387233"><ele>45.0</ele><time>2026-05-02T07:10:45.14Z</time></trkpt><trkpt lat="47.95512" lon="-1.33911"><ele>45.0</ele><time>2026-05-02T07:10:46.139Z</time></trkpt><trkpt lat="47.9550483" lon="-1.339515"><ele>45.0</ele><time>2026-05-02T07:10:47.142Z</time></trkpt><trkpt lat="47.9549667" lon="-1.33995"><ele>45.0</ele><time>2026-05-02T07:10:48.143Z</time></trkpt><trkpt lat="47.9548817" lon="-1.340395"><ele>45.0</ele><time>2026-05-02T07:10:49.14Z</time></trkpt><trkpt lat="47.9548033" lon="-1.3408267"><ele>43.5</ele><time>2026-05-02T07:10:50.14Z</time></trkpt><trkpt lat="47.9547283" lon="-1.3412433"><ele>42.0</ele><time>2026-05-02T07:10:51.142Z</time></trkpt><trkpt lat="47.954655" lon="-1.34164"><ele>42.0</ele><time>2026-05-02T07:10:52.141Z</time></trkpt><trkpt lat="47.9545867" lon="-1.3420233"><ele>42.0</ele><time>2026-05-02T07:10:53.14Z</time></trkpt><trkpt lat="47.9545217" lon="-1.34239"><ele>43.0</ele><time>2026-05-02T07:10:54.14Z</time></trkpt><trkpt lat="47.954455" lon="-1.34275"><ele>44.0</ele><time>2026-05-02T07:10:55.141Z</time></trkpt><trkpt lat="47.9543933" lon="-1.343105"><ele>44.5</ele><time>2026-05-02T07:10:56.14Z</time></trkpt><trkpt lat="47.9543283" lon="-1.343455"><ele>45.0</ele><time>2026-05-02T07:10:57.139Z</time></trkpt><trkpt lat="47.9542667" lon="-1.3438017"><ele>45.0</ele><time>2026-05-02T07:10:58.14Z</time></trkpt><trkpt lat="47.9542067" lon="-1.3441517"><ele>45.0</ele><time>2026-05-02T07:10:59.139Z</time></trkpt><trkpt lat="47.95414" lon="-1.3445"><ele>46.0</ele><time>2026-05-02T07:11:00.141Z</time></trkpt><trkpt lat="47.9540783" lon="-1.3448583"><ele>47.0</ele><time>2026-05-02T07:11:01.139Z</time></trkpt><trkpt lat="47.9540167" lon="-1.34522"><ele>48.5</ele><time>2026-05-02T07:11:02.139Z</time></trkpt><trkpt lat="47.9539517" lon="-1.345585"><ele>50.0</ele><time>2026-05-02T07:11:03.141Z</time></trkpt><trkpt lat="47.9538833" lon="-1.3459533"><ele>50.0</ele><time>2026-05-02T07:11:04.15Z</time></trkpt><trkpt lat="47.9538133" lon="-1.3463267"><ele>50.0</ele><time>2026-05-02T07:11:05.138Z</time></trkpt><trkpt lat="47.9537417" lon="-1.3467033"><ele>51.0</ele><time>2026-05-02T07:11:06.139Z</time></trkpt><trkpt lat="47.9536717" lon="-1.34708"><ele>52.0</ele><time>2026-05-02T07:11:07.139Z</time></trkpt><trkpt lat="47.9535983" lon="-1.347455"><ele>52.5</ele><time>2026-05-02T07:11:08.139Z</time></trkpt><trkpt lat="47.95353" lon="-1.34783"><ele>53.0</ele><time>2026-05-02T07:11:09.141Z</time></trkpt><trkpt lat="47.9534617" lon="-1.3482033"><ele>55.0</ele><time>2026-05-02T07:11:10.139Z</time></trkpt><trkpt lat="47.9533917" lon="-1.348575"><ele>57.0</ele><time>2026-05-02T07:11:11.141Z</time></trkpt><trkpt lat="47.9533217" lon="-1.3489483"><ele>57.0</ele><time>2026-05-02T07:11:12.139Z</time></trkpt><trkpt lat="47.9532517" lon="-1.349325"><ele>57.0</ele><time>2026-05-02T07:11:13.14Z</time></trkpt><trkpt lat="47.9531833" lon="-1.3497017"><ele>58.5</ele><time>2026-05-02T07:11:14.139Z</time></trkpt><trkpt lat="47.9531167" lon="-1.35008"><ele>60.0</ele><time>2026-05-02T07:11:15.14Z</time></trkpt><trkpt lat="47.9530517" lon="-1.3504533"><ele>61.0</ele><time>2026-05-02T07:11:16.139Z</time></trkpt><trkpt lat="47.9529883" lon="-1.350815"><ele>62.0</ele><time>2026-05-02T07:11:17.139Z</time></trkpt><trkpt lat="47.952925" lon="-1.3511617"><ele>62.66666666666667</ele><time>2026-05-02T07:11:18.141Z</time></trkpt><trkpt lat="47.9528633" lon="-1.3514883"><ele>63.33333333333333</ele><time>2026-05-02T07:11:19.14Z</time></trkpt><trkpt lat="47.9528033" lon="-1.3517983"><ele>64.0</ele><time>2026-05-02T07:11:20.143Z</time></trkpt><trkpt lat="47.95275" lon="-1.3520933"><ele>63.666666666666664</ele><time>2026-05-02T07:11:21.141Z</time></trkpt><trkpt lat="47.9526983" lon="-1.3523767"><ele>63.33333333333333</ele><time>2026-05-02T07:11:22.142Z</time></trkpt><trkpt lat="47.9526483" lon="-1.3526483"><ele>63.0</ele><time>2026-05-02T07:11:23.14Z</time></trkpt><trkpt lat="47.9526033" lon="-1.3529083"><ele>63.33333333333333</ele><time>2026-05-02T07:11:24.14Z</time></trkpt><trkpt lat="47.9525583" lon="-1.353155"><ele>63.666666666666664</ele><time>2026-05-02T07:11:25.14Z</time></trkpt><trkpt lat="47.952515" lon="-1.3533833"><ele>64.0</ele><time>2026-05-02T07:11:26.139Z</time></trkpt><trkpt lat="47.9524717" lon="-1.3535917"><ele>63.25</ele><time>2026-05-02T07:11:27.14Z</time></trkpt><trkpt lat="47.952425" lon="-1.3537833"><ele>62.5</ele><time>2026-05-02T07:11:28.14Z</time></trkpt><trkpt lat="47.9523767" lon="-1.35396"><ele>61.75</ele><time>2026-05-02T07:11:29.139Z</time></trkpt><trkpt lat="47.9523233" lon="-1.35412"><ele>61.0</ele><time>2026-05-02T07:11:30.139Z</time></trkpt><trkpt lat="47.952265" lon="-1.35426"><ele>61.0</ele><time>2026-05-02T07:11:31.138Z</time></trkpt><trkpt lat="47.9522017" lon="-1.3543967"><ele>61.0</ele><time>2026-05-02T07:11:32.14Z</time></trkpt><trkpt lat="47.95213" lon="-1.354545"><ele>61.0</ele><time>2026-05-02T07:11:33.14Z</time></trkpt><trkpt lat="47.95205" lon="-1.3547067"><ele>61.0</ele><time>2026-05-02T07:11:34.141Z</time></trkpt><trkpt lat="47.9519717" lon="-1.3548717"><ele>61.25</ele><time>2026-05-02T07:11:35.14Z</time></trkpt><trkpt lat="47.9518933" lon="-1.3550383"><ele>61.5</ele><time>2026-05-02T07:11:36.139Z</time></trkpt><trkpt lat="47.9518167" lon="-1.355205"><ele>61.75</ele><time>2026-05-02T07:11:37.139Z</time></trkpt><trkpt lat="47.9517433" lon="-1.3553683"><ele>62.0</ele><time>2026-05-02T07:11:38.14Z</time></trkpt><trkpt lat="47.9516717" lon="-1.35552"><ele>61.25</ele><time>2026-05-02T07:11:39.14Z</time></trkpt><trkpt lat="47.9515967" lon="-1.355665"><ele>60.5</ele><time>2026-05-02T07:11:40.14Z</time></trkpt><trkpt lat="47.9515167" lon="-1.3558067"><ele>59.75</ele><time>2026-05-02T07:11:41.139Z</time></trkpt><trkpt lat="47.9514367" lon="-1.3559567"><ele>59.0</ele><time>2026-05-02T07:11:42.141Z</time></trkpt><trkpt lat="47.9513617" lon="-1.356115"><ele>59.0</ele><time>2026-05-02T07:11:43.141Z</time></trkpt><trkpt lat="47.95129" lon="-1.356275"><ele>59.0</ele><time>2026-05-02T07:11:44.141Z</time></trkpt><trkpt lat="47.951215" lon="-1.3564317"><ele>59.0</ele><time>2026-05-02T07:11:45.141Z</time></trkpt><trkpt lat="47.951135" lon="-1.35657"><ele>59.0</ele><time>2026-05-02T07:11:46.142Z</time></trkpt><trkpt lat="47.95106" lon="-1.356705"><ele>59.25</ele><time>2026-05-02T07:11:47.14Z</time></trkpt><trkpt lat="47.9509867" lon="-1.3568417"><ele>59.5</ele><time>2026-05-02T07:11:48.141Z</time></trkpt><trkpt lat="47.9509133" lon="-1.356985"><ele>59.75</ele><time>2026-05-02T07:11:49.14Z</time></trkpt><trkpt lat="47.9508367" lon="-1.3571217"><ele>60.0</ele><time>2026-05-02T07:11:50.14Z</time></trkpt><trkpt lat="47.9507533" lon="-1.3572417"><ele>60.75</ele><time>2026-05-02T07:11:51.141Z</time></trkpt><trkpt lat="47.9506683" lon="-1.35736"><ele>61.5</ele><time>2026-05-02T07:11:52.14Z</time></trkpt><trkpt lat="47.9505917" lon="-1.3574883"><ele>62.25</ele><time>2026-05-02T07:11:53.139Z</time></trkpt><trkpt lat="47.95054" lon="-1.3576383"><ele>63.0</ele><time>2026-05-02T07:11:54.14Z</time></trkpt><trkpt lat="47.9504933" lon="-1.357805"><ele>63.0</ele><time>2026-05-02T07:11:55.139Z</time></trkpt><trkpt lat="47.9504483" lon="-1.3579733"><ele>63.0</ele><time>2026-05-02T07:11:56.14Z</time></trkpt><trkpt lat="47.9503983" lon="-1.35814"><ele>63.0</ele><time>2026-05-02T07:11:57.14Z</time></trkpt><trkpt lat="47.95034" lon="-1.3583183"><ele>63.0</ele><time>2026-05-02T07:11:58.139Z</time></trkpt><trkpt lat="47.9502817" lon="-1.3585017"><ele>63.5</ele><time>2026-05-02T07:11:59.139Z</time></trkpt><trkpt lat="47.9502217" lon="-1.358685"><ele>64.0</ele><time>2026-05-02T07:12:00.139Z</time></trkpt><trkpt lat="47.950165" lon="-1.3588667"><ele>64.5</ele><time>2026-05-02T07:12:01.139Z</time></trkpt><trkpt lat="47.95011" lon="-1.359045"><ele>65.0</ele><time>2026-05-02T07:12:02.139Z</time></trkpt><trkpt lat="47.9500567" lon="-1.35922"><ele>64.75</ele><time>2026-05-02T07:12:03.139Z</time></trkpt><trkpt lat="47.95" lon="-1.3593933"><ele>64.5</ele><time>2026-05-02T07:12:04.144Z</time></trkpt><trkpt lat="47.9499467" lon="-1.3595633"><ele>64.25</ele><time>2026-05-02T07:12:05.14Z</time></trkpt><trkpt lat="47.94989" lon="-1.3597383"><ele>64.0</ele><time>2026-05-02T07:12:06.139Z</time></trkpt><trkpt lat="47.949835" lon="-1.3599117"><ele>64.0</ele><time>2026-05-02T07:12:07.142Z</time></trkpt><trkpt lat="47.9497833" lon="-1.3600833"><ele>64.0</ele><time>2026-05-02T07:12:08.139Z</time></trkpt><trkpt lat="47.94973" lon="-1.360245"><ele>64.0</ele><time>2026-05-02T07:12:09.139Z</time></trkpt><trkpt lat="47.9496783" lon="-1.3604033"><ele>64.0</ele><time>2026-05-02T07:12:10.14Z</time></trkpt><trkpt lat="47.9496283" lon="-1.360555"><ele>64.60000000000001</ele><time>2026-05-02T07:12:11.141Z</time></trkpt><trkpt lat="47.94958" lon="-1.3607033"><ele>65.2</ele><time>2026-05-02T07:12:12.14Z</time></trkpt><trkpt lat="47.9495333" lon="-1.3608483"><ele>65.80000000000001</ele><time>2026-05-02T07:12:13.141Z</time></trkpt><trkpt lat="47.94949" lon="-1.361"><ele>66.4</ele><time>2026-05-02T07:12:14.139Z</time></trkpt><trkpt lat="47.9494383" lon="-1.3611533"><ele>67.0</ele><time>2026-05-02T07:12:15.14Z</time></trkpt><trkpt lat="47.949385" lon="-1.3613167"><ele>66.75</ele><time>2026-05-02T07:12:16.139Z</time></trkpt><trkpt lat="47.9493317" lon="-1.3614717"><ele>66.5</ele><time>2026-05-02T07:12:17.139Z</time></trkpt><trkpt lat="47.9492867" lon="-1.3616283"><ele>66.25</ele><time>2026-05-02T07:12:18.139Z</time></trkpt><trkpt lat="47.9492467" lon="-1.3617933"><ele>66.0</ele><time>2026-05-02T07:12:19.14Z</time></trkpt><trkpt lat="47.9492167" lon="-1.3619617"><ele>66.0</ele><time>2026-05-02T07:12:20.14Z</time></trkpt><trkpt lat="47.9491917" lon="-1.3621367"><ele>66.0</ele><time>2026-05-02T07:12:21.141Z</time></trkpt><trkpt lat="47.9491683" lon="-1.362315"><ele>66.0</ele><time>2026-05-02T07:12:22.14Z</time></trkpt><trkpt lat="47.94915" lon="-1.3624967"><ele>66.0</ele><time>2026-05-02T07:12:23.14Z</time></trkpt><trkpt lat="47.949135" lon="-1.3626817"><ele>66.5</ele><time>2026-05-02T07:12:24.14Z</time></trkpt><trkpt lat="47.94912" lon="-1.36287"><ele>67.0</ele><time>2026-05-02T07:12:25.142Z</time></trkpt><trkpt lat="47.9491017" lon="-1.3630583"><ele>67.5</ele><time>2026-05-02T07:12:26.139Z</time></trkpt><trkpt lat="47.9490833" lon="-1.363245"><ele>68.0</ele><time>2026-05-02T07:12:27.143Z</time></trkpt><trkpt lat="47.9490633" lon="-1.3634367"><ele>68.0</ele><time>2026-05-02T07:12:28.139Z</time></trkpt><trkpt lat="47.9490467" lon="-1.3636217"><ele>68.0</ele><time>2026-05-02T07:12:29.14Z</time></trkpt><trkpt lat="47.9490317" lon="-1.3637983"><ele>68.0</ele><time>2026-05-02T07:12:30.139Z</time></trkpt><trkpt lat="47.9490117" lon="-1.3639683"><ele>68.0</ele><time>2026-05-02T07:12:31.139Z</time></trkpt><trkpt lat="47.9489817" lon="-1.3641333"><ele>67.6</ele><time>2026-05-02T07:12:32.14Z</time></trkpt><trkpt lat="47.9489383" lon="-1.3642967"><ele>67.19999999999999</ele><time>2026-05-02T07:12:33.14Z</time></trkpt><trkpt lat="47.9489" lon="-1.364445"><ele>66.8</ele><time>2026-05-02T07:12:34.141Z</time></trkpt><trkpt lat="47.9488683" lon="-1.3645917"><ele>66.39999999999999</ele><time>2026-05-02T07:12:35.141Z</time></trkpt><trkpt lat="47.9488617" lon="-1.36474"><ele>66.0</ele><time>2026-05-02T07:12:36.139Z</time></trkpt><trkpt lat="47.9489017" lon="-1.36489"><ele>63.5</ele><time>2026-05-02T07:12:37.139Z</time></trkpt><trkpt lat="47.9489683" lon="-1.365025"><ele>61.0</ele><time>2026-05-02T07:12:38.141Z</time></trkpt><trkpt lat="47.9490517" lon="-1.3651483"><ele>58.5</ele><time>2026-05-02T07:12:39.143Z</time></trkpt><trkpt lat="47.9491433" lon="-1.3652633"><ele>56.0</ele><time>2026-05-02T07:12:40.14Z</time></trkpt><trkpt lat="47.9492383" lon="-1.36538"><ele>56.0</ele><time>2026-05-02T07:12:41.139Z</time></trkpt><trkpt lat="47.9493317" lon="-1.3655017"><ele>56.0</ele><time>2026-05-02T07:12:42.14Z</time></trkpt><trkpt lat="47.9494217" lon="-1.36562"><ele>56.0</ele><time>2026-05-02T07:12:43.139Z</time></trkpt><trkpt lat="47.9495033" lon="-1.3657333"><ele>56.0</ele><time>2026-05-02T07:12:44.139Z</time></trkpt><trkpt lat="47.9495667" lon="-1.365855"><ele>53.8</ele><time>2026-05-02T07:12:45.139Z</time></trkpt><trkpt lat="47.949605" lon="-1.3659967"><ele>51.599999999999994</ele><time>2026-05-02T07:12:46.139Z</time></trkpt><trkpt lat="47.9496167" lon="-1.3661567"><ele>49.4</ele><time>2026-05-02T07:12:47.139Z</time></trkpt><trkpt lat="47.9496133" lon="-1.3663317"><ele>47.2</ele><time>2026-05-02T07:12:48.139Z</time></trkpt><trkpt lat="47.9496067" lon="-1.3665"><ele>45.0</ele><time>2026-05-02T07:12:49.14Z</time></trkpt><trkpt lat="47.9496017" lon="-1.36667"><ele>45.2</ele><time>2026-05-02T07:12:50.14Z</time></trkpt><trkpt lat="47.9496" lon="-1.3668417"><ele>45.4</ele><time>2026-05-02T07:12:51.139Z</time></trkpt><trkpt lat="47.949595" lon="-1.3670017"><ele>45.599999999999994</ele><time>2026-05-02T07:12:52.139Z</time></trkpt><trkpt lat="47.94958" lon="-1.3671567"><ele>45.8</ele><time>2026-05-02T07:12:53.139Z</time></trkpt><trkpt lat="47.9495467" lon="-1.3672867"><ele>46.0</ele><time>2026-05-02T07:12:54.14Z</time></trkpt><trkpt lat="47.949495" lon="-1.3673833"><ele>46.0</ele><time>2026-05-02T07:12:55.139Z</time></trkpt><trkpt lat="47.9494367" lon="-1.3674517"><ele>46.0</ele><time>2026-05-02T07:12:56.14Z</time></trkpt><trkpt lat="47.9493567" lon="-1.3674567"><ele>46.0</ele><time>2026-05-02T07:12:57.14Z</time></trkpt><trkpt lat="47.9492617" lon="-1.3674433"><ele>46.0</ele><time>2026-05-02T07:12:58.139Z</time></trkpt><trkpt lat="47.949155" lon="-1.36741"><ele>46.0</ele><time>2026-05-02T07:12:59.139Z</time></trkpt><trkpt lat="47.9490317" lon="-1.3673583"><ele>46.75</ele><time>2026-05-02T07:13:00.139Z</time></trkpt><trkpt lat="47.9489117" lon="-1.3673217"><ele>47.5</ele><time>2026-05-02T07:13:01.14Z</time></trkpt><trkpt lat="47.94878" lon="-1.367295"><ele>48.25</ele><time>2026-05-02T07:13:02.14Z</time></trkpt><trkpt lat="47.9486433" lon="-1.367275"><ele>49.0</ele><time>2026-05-02T07:13:03.14Z</time></trkpt><trkpt lat="47.9485017" lon="-1.3672433"><ele>48.33333333333333</ele><time>2026-05-02T07:13:04.139Z</time></trkpt><trkpt lat="47.948355" lon="-1.3672067"><ele>47.666666666666664</ele><time>2026-05-02T07:13:05.139Z</time></trkpt><trkpt lat="47.9481983" lon="-1.3671683"><ele>47.0</ele><time>2026-05-02T07:13:06.14Z</time></trkpt><trkpt lat="47.94803" lon="-1.3671317"><ele>47.0</ele><time>2026-05-02T07:13:07.139Z</time></trkpt><trkpt lat="47.9478567" lon="-1.3670933"><ele>47.0</ele><time>2026-05-02T07:13:08.14Z</time></trkpt><trkpt lat="47.9476817" lon="-1.3670567"><ele>47.0</ele><time>2026-05-02T07:13:09.141Z</time></trkpt><trkpt lat="47.9475067" lon="-1.3670233"><ele>48.33333333333333</ele><time>2026-05-02T07:13:10.139Z</time></trkpt><trkpt lat="47.9473267" lon="-1.3669967"><ele>49.666666666666664</ele><time>2026-05-02T07:13:11.139Z</time></trkpt><trkpt lat="47.94714" lon="-1.366985"><ele>51.0</ele><time>2026-05-02T07:13:12.139Z</time></trkpt><trkpt lat="47.946945" lon="-1.3670017"><ele>51.0</ele><time>2026-05-02T07:13:13.143Z</time></trkpt><trkpt lat="47.9467367" lon="-1.3670417"><ele>51.0</ele><time>2026-05-02T07:13:14.139Z</time></trkpt><trkpt lat="47.9465217" lon="-1.36709"><ele>51.0</ele><time>2026-05-02T07:13:15.14Z</time></trkpt><trkpt lat="47.9463" lon="-1.36714"><ele>51.5</ele><time>2026-05-02T07:13:16.139Z</time></trkpt><trkpt lat="47.9460767" lon="-1.3671917"><ele>52.0</ele><time>2026-05-02T07:13:17.14Z</time></trkpt><trkpt lat="47.945855" lon="-1.3672383"><ele>52.33333333333333</ele><time>2026-05-02T07:13:18.14Z</time></trkpt><trkpt lat="47.9456317" lon="-1.3672767"><ele>52.66666666666667</ele><time>2026-05-02T07:13:19.14Z</time></trkpt><trkpt lat="47.94541" lon="-1.3673033"><ele>53.0</ele><time>2026-05-02T07:13:20.14Z</time></trkpt><trkpt lat="47.9451883" lon="-1.3673117"><ele>53.0</ele><time>2026-05-02T07:13:21.14Z</time></trkpt><trkpt lat="47.944965" lon="-1.3672967"><ele>53.0</ele><time>2026-05-02T07:13:22.14Z</time></trkpt><trkpt lat="47.94474" lon="-1.3672667"><ele>53.0</ele><time>2026-05-02T07:13:23.14Z</time></trkpt><trkpt lat="47.9445133" lon="-1.367215"><ele>53.5</ele><time>2026-05-02T07:13:24.14Z</time></trkpt><trkpt lat="47.9442867" lon="-1.3671383"><ele>54.0</ele><time>2026-05-02T07:13:25.139Z</time></trkpt><trkpt lat="47.94406" lon="-1.3670317"><ele>54.0</ele><time>2026-05-02T07:13:26.138Z</time></trkpt><trkpt lat="47.9438383" lon="-1.36691"><ele>54.0</ele><time>2026-05-02T07:13:27.139Z</time></trkpt><trkpt lat="47.943625" lon="-1.366775"><ele>54.0</ele><time>2026-05-02T07:13:28.14Z</time></trkpt><trkpt lat="47.9434067" lon="-1.3666217"><ele>54.0</ele><time>2026-05-02T07:13:29.139Z</time></trkpt><trkpt lat="47.9431883" lon="-1.3664567"><ele>53.5</ele><time>2026-05-02T07:13:30.139Z</time></trkpt><trkpt lat="47.9429667" lon="-1.3662883"><ele>53.0</ele><time>2026-05-02T07:13:31.138Z</time></trkpt><trkpt lat="47.94275" lon="-1.366125"><ele>53.66666666666667</ele><time>2026-05-02T07:13:32.14Z</time></trkpt><trkpt lat="47.9425467" lon="-1.3659717"><ele>54.33333333333333</ele><time>2026-05-02T07:13:33.139Z</time></trkpt><trkpt lat="47.9423567" lon="-1.365825"><ele>55.0</ele><time>2026-05-02T07:13:34.139Z</time></trkpt><trkpt lat="47.9421717" lon="-1.365685"><ele>55.0</ele><time>2026-05-02T07:13:35.138Z</time></trkpt><trkpt lat="47.9419917" lon="-1.3655617"><ele>55.0</ele><time>2026-05-02T07:13:36.141Z</time></trkpt><trkpt lat="47.9418233" lon="-1.3654683"><ele>55.0</ele><time>2026-05-02T07:13:37.139Z</time></trkpt><trkpt lat="47.94167" lon="-1.3654"><ele>53.33333333333333</ele><time>2026-05-02T07:13:38.14Z</time></trkpt><trkpt lat="47.9415217" lon="-1.36535"><ele>51.66666666666667</ele><time>2026-05-02T07:13:39.14Z</time></trkpt><trkpt lat="47.9413617" lon="-1.3653117"><ele>50.0</ele><time>2026-05-02T07:13:40.14Z</time></trkpt><trkpt lat="47.9411833" lon="-1.365295"><ele>50.0</ele><time>2026-05-02T07:13:41.139Z</time></trkpt><trkpt lat="47.94099" lon="-1.3653067"><ele>50.0</ele><time>2026-05-02T07:13:42.138Z</time></trkpt><trkpt lat="47.9407967" lon="-1.3653483"><ele>50.0</ele><time>2026-05-02T07:13:43.14Z</time></trkpt><trkpt lat="47.9405983" lon="-1.3654267"><ele>50.0</ele><time>2026-05-02T07:13:44.14Z</time></trkpt><trkpt lat="47.9403983" lon="-1.3655333"><ele>50.0</ele><time>2026-05-02T07:13:45.14Z</time></trkpt><trkpt lat="47.9401983" lon="-1.36565"><ele>50.0</ele><time>2026-05-02T07:13:46.14Z</time></trkpt><trkpt lat="47.9399967" lon="-1.3657683"><ele>50.0</ele><time>2026-05-02T07:13:47.139Z</time></trkpt><trkpt lat="47.9397933" lon="-1.365885"><ele>50.0</ele><time>2026-05-02T07:13:48.139Z</time></trkpt><trkpt lat="47.9395917" lon="-1.3660033"><ele>50.0</ele><time>2026-05-02T07:13:49.139Z</time></trkpt><trkpt lat="47.9393867" lon="-1.3661233"><ele>50.0</ele><time>2026-05-02T07:13:50.139Z</time></trkpt><trkpt lat="47.9391767" lon="-1.366245"><ele>50.0</ele><time>2026-05-02T07:13:51.142Z</time></trkpt><trkpt lat="47.9389633" lon="-1.3663683"><ele>50.0</ele><time>2026-05-02T07:13:52.14Z</time></trkpt><trkpt lat="47.9387533" lon="-1.3664933"><ele>50.0</ele><time>2026-05-02T07:13:53.141Z</time></trkpt><trkpt lat="47.9385467" lon="-1.3666167"><ele>50.0</ele><time>2026-05-02T07:13:54.139Z</time></trkpt><trkpt lat="47.9383433" lon="-1.3667333"><ele>49.333333333333336</ele><time>2026-05-02T07:13:55.139Z</time></trkpt><trkpt lat="47.938145" lon="-1.3668433"><ele>48.66666666666667</ele><time>2026-05-02T07:13:56.139Z</time></trkpt><trkpt lat="47.9379533" lon="-1.3669483"><ele>48.0</ele><time>2026-05-02T07:13:57.14Z</time></trkpt><trkpt lat="47.9377717" lon="-1.3670483"><ele>48.0</ele><time>2026-05-02T07:13:58.141Z</time></trkpt><trkpt lat="47.9375933" lon="-1.3671517"><ele>48.0</ele><time>2026-05-02T07:13:59.141Z</time></trkpt><trkpt lat="47.9374133" lon="-1.367255"><ele>48.0</ele><time>2026-05-02T07:14:00.139Z</time></trkpt><trkpt lat="47.937235" lon="-1.3673617"><ele>49.33333333333333</ele><time>2026-05-02T07:14:01.14Z</time></trkpt><trkpt lat="47.9370617" lon="-1.3674633"><ele>50.666666666666664</ele><time>2026-05-02T07:14:02.139Z</time></trkpt><trkpt lat="47.93689" lon="-1.3675617"><ele>52.0</ele><time>2026-05-02T07:14:03.139Z</time></trkpt><trkpt lat="47.9367183" lon="-1.3676583"><ele>52.0</ele><time>2026-05-02T07:14:04.143Z</time></trkpt><trkpt lat="47.9365433" lon="-1.36776"><ele>52.0</ele><time>2026-05-02T07:14:05.139Z</time></trkpt><trkpt lat="47.936365" lon="-1.367865"><ele>52.0</ele><time>2026-05-02T07:14:06.139Z</time></trkpt><trkpt lat="47.936185" lon="-1.3679717"><ele>52.33333333333333</ele><time>2026-05-02T07:14:07.14Z</time></trkpt><trkpt lat="47.9360017" lon="-1.3680767"><ele>52.66666666666667</ele><time>2026-05-02T07:14:08.14Z</time></trkpt><trkpt lat="47.9358167" lon="-1.3681817"><ele>53.0</ele><time>2026-05-02T07:14:09.14Z</time></trkpt><trkpt lat="47.9356333" lon="-1.368285"><ele>53.0</ele><time>2026-05-02T07:14:10.139Z</time></trkpt><trkpt lat="47.9354533" lon="-1.3683933"><ele>53.0</ele><time>2026-05-02T07:14:11.139Z</time></trkpt><trkpt lat="47.9352733" lon="-1.3685017"><ele>53.0</ele><time>2026-05-02T07:14:12.139Z</time></trkpt><trkpt lat="47.9351017" lon="-1.368615"><ele>53.333333333333336</ele><time>2026-05-02T07:14:13.139Z</time></trkpt><trkpt lat="47.93494" lon="-1.3687383"><ele>53.66666666666667</ele><time>2026-05-02T07:14:14.139Z</time></trkpt><trkpt lat="47.9347917" lon="-1.3688717"><ele>54.0</ele><time>2026-05-02T07:14:15.139Z</time></trkpt><trkpt lat="47.93466" lon="-1.3690117"><ele>54.0</ele><time>2026-05-02T07:14:16.139Z</time></trkpt><trkpt lat="47.9345483" lon="-1.36915"><ele>54.0</ele><time>2026-05-02T07:14:17.139Z</time></trkpt><trkpt lat="47.9344567" lon="-1.3692767"><ele>54.0</ele><time>2026-05-02T07:14:18.138Z</time></trkpt><trkpt lat="47.934375" lon="-1.369395"><ele>54.0</ele><time>2026-05-02T07:14:19.139Z</time></trkpt><trkpt lat="47.9343067" lon="-1.3694933"><ele>54.0</ele><time>2026-05-02T07:14:20.139Z</time></trkpt><trkpt lat="47.934255" lon="-1.36957"><ele>54.00000000000001</ele><time>2026-05-02T07:14:21.14Z</time></trkpt><trkpt lat="47.9341933" lon="-1.36967"><ele>54.00000000000001</ele><time>2026-05-02T07:14:23.139Z</time></trkpt><trkpt lat="47.934135" lon="-1.369775"><ele>54.0</ele><time>2026-05-02T07:14:29.14Z</time></trkpt><trkpt lat="47.93404" lon="-1.3698833"><ele>54.0</ele><time>2026-05-02T07:14:31.141Z</time></trkpt><trkpt lat="47.9339767" lon="-1.3699667"><ele>53.25</ele><time>2026-05-02T07:14:32.141Z</time></trkpt><trkpt lat="47.9338967" lon="-1.370075"><ele>52.5</ele><time>2026-05-02T07:14:33.141Z</time></trkpt><trkpt lat="47.9338117" lon="-1.370195"><ele>51.75</ele><time>2026-05-02T07:14:34.14Z</time></trkpt><trkpt lat="47.9337183" lon="-1.3703267"><ele>51.0</ele><time>2026-05-02T07:14:35.139Z</time></trkpt><trkpt lat="47.9336217" lon="-1.37046"><ele>51.5</ele><time>2026-05-02T07:14:36.139Z</time></trkpt><trkpt lat="47.933525" lon="-1.3705917"><ele>52.0</ele><time>2026-05-02T07:14:37.139Z</time></trkpt><trkpt lat="47.933425" lon="-1.37073"><ele>52.5</ele><time>2026-05-02T07:14:38.139Z</time></trkpt><trkpt lat="47.9333233" lon="-1.3708717"><ele>53.0</ele><time>2026-05-02T07:14:39.139Z</time></trkpt><trkpt lat="47.93322" lon="-1.37102"><ele>53.0</ele><time>2026-05-02T07:14:40.141Z</time></trkpt><trkpt lat="47.933115" lon="-1.3711667"><ele>53.0</ele><time>2026-05-02T07:14:41.14Z</time></trkpt><trkpt lat="47.93301" lon="-1.3713133"><ele>53.0</ele><time>2026-05-02T07:14:42.141Z</time></trkpt><trkpt lat="47.932905" lon="-1.3714633"><ele>53.0</ele><time>2026-05-02T07:14:43.139Z</time></trkpt><trkpt lat="47.9327983" lon="-1.3716133"><ele>53.5</ele><time>2026-05-02T07:14:44.141Z</time></trkpt><trkpt lat="47.9326917" lon="-1.3717633"><ele>54.0</ele><time>2026-05-02T07:14:45.141Z</time></trkpt><trkpt lat="47.93259" lon="-1.3719067"><ele>54.5</ele><time>2026-05-02T07:14:46.141Z</time></trkpt><trkpt lat="47.9324917" lon="-1.37204"><ele>55.0</ele><time>2026-05-02T07:14:47.139Z</time></trkpt><trkpt lat="47.932405" lon="-1.3721633"><ele>54.2</ele><time>2026-05-02T07:14:48.139Z</time></trkpt><trkpt lat="47.9323233" lon="-1.3722733"><ele>53.4</ele><time>2026-05-02T07:14:49.139Z</time></trkpt><trkpt lat="47.932245" lon="-1.3723833"><ele>52.599999999999994</ele><time>2026-05-02T07:14:50.14Z</time></trkpt><trkpt lat="47.9321667" lon="-1.3724967"><ele>51.8</ele><time>2026-05-02T07:14:51.139Z</time></trkpt><trkpt lat="47.93209" lon="-1.3726067"><ele>51.0</ele><time>2026-05-02T07:14:52.14Z</time></trkpt><trkpt lat="47.9320167" lon="-1.37271"><ele>51.0</ele><time>2026-05-02T07:14:53.144Z</time></trkpt><trkpt lat="47.9319517" lon="-1.3728"><ele>51.0</ele><time>2026-05-02T07:14:54.139Z</time></trkpt><trkpt lat="47.9319" lon="-1.3728867"><ele>51.0</ele><time>2026-05-02T07:14:55.139Z</time></trkpt><trkpt lat="47.931865" lon="-1.37297"><ele>51.0</ele><time>2026-05-02T07:14:56.139Z</time></trkpt><trkpt lat="47.9318517" lon="-1.3731133"><ele>51.0</ele><time>2026-05-02T07:14:58.141Z</time></trkpt><trkpt lat="47.9318717" lon="-1.37321"><ele>51.0</ele><time>2026-05-02T07:15:00.14Z</time></trkpt><trkpt lat="47.93182" lon="-1.3731233"><ele>51.0</ele><time>2026-05-02T07:15:41.139Z</time></trkpt><trkpt lat="47.9318133" lon="-1.37299"><ele>51.0</ele><time>2026-05-02T07:15:53.14Z</time></trkpt><trkpt lat="47.9318883" lon="-1.3728717"><ele>51.0</ele><time>2026-05-02T07:15:55.14Z</time></trkpt><trkpt lat="47.9319333" lon="-1.372805"><ele>51.0</ele><time>2026-05-02T07:15:56.14Z</time></trkpt><trkpt lat="47.93198" lon="-1.372735"><ele>51.0</ele><time>2026-05-02T07:15:57.141Z</time></trkpt><trkpt lat="47.9320317" lon="-1.372655"><ele>51.0</ele><time>2026-05-02T07:15:58.14Z</time></trkpt><trkpt lat="47.9320867" lon="-1.3725683"><ele>51.0</ele><time>2026-05-02T07:15:59.139Z</time></trkpt><trkpt lat="47.9321417" lon="-1.3724867"><ele>51.0</ele><time>2026-05-02T07:16:00.14Z</time></trkpt><trkpt lat="47.9321967" lon="-1.3724017"><ele>51.0</ele><time>2026-05-02T07:16:01.14Z</time></trkpt><trkpt lat="47.9322533" lon="-1.3723183"><ele>51.0</ele><time>2026-05-02T07:16:02.139Z</time></trkpt><trkpt lat="47.93231" lon="-1.37224"><ele>51.0</ele><time>2026-05-02T07:16:03.141Z</time></trkpt><trkpt lat="47.9323633" lon="-1.3721633"><ele>51.0</ele><time>2026-05-02T07:16:04.139Z</time></trkpt><trkpt lat="47.9324183" lon="-1.3720867"><ele>51.0</ele><time>2026-05-02T07:16:05.139Z</time></trkpt><trkpt lat="47.9324733" lon="-1.3720017"><ele>51.0</ele><time>2026-05-02T07:16:06.14Z</time></trkpt><trkpt lat="47.932535" lon="-1.37191"><ele>51.0</ele><time>2026-05-02T07:16:07.141Z</time></trkpt><trkpt lat="47.9326033" lon="-1.3718183"><ele>51.0</ele><time>2026-05-02T07:16:08.14Z</time></trkpt><trkpt lat="47.932675" lon="-1.3717217"><ele>51.0</ele><time>2026-05-02T07:16:09.14Z</time></trkpt><trkpt lat="47.93275" lon="-1.371615"><ele>51.4</ele><time>2026-05-02T07:16:10.14Z</time></trkpt><trkpt lat="47.9328267" lon="-1.3715033"><ele>51.8</ele><time>2026-05-02T07:16:11.141Z</time></trkpt><trkpt lat="47.9329033" lon="-1.371395"><ele>52.199999999999996</ele><time>2026-05-02T07:16:12.14Z</time></trkpt><trkpt lat="47.9329817" lon="-1.3712833"><ele>52.599999999999994</ele><time>2026-05-02T07:16:13.142Z</time></trkpt><trkpt lat="47.9330617" lon="-1.37117"><ele>53.0</ele><time>2026-05-02T07:16:14.14Z</time></trkpt><trkpt lat="47.9331417" lon="-1.37106"><ele>53.0</ele><time>2026-05-02T07:16:15.143Z</time></trkpt><trkpt lat="47.9332233" lon="-1.3709483"><ele>53.0</ele><time>2026-05-02T07:16:16.139Z</time></trkpt><trkpt lat="47.9333033" lon="-1.370835"><ele>53.0</ele><time>2026-05-02T07:16:17.14Z</time></trkpt><trkpt lat="47.9333817" lon="-1.3707233"><ele>53.0</ele><time>2026-05-02T07:16:18.143Z</time></trkpt><trkpt lat="47.9334633" lon="-1.3706067"><ele>53.0</ele><time>2026-05-02T07:16:19.141Z</time></trkpt><trkpt lat="47.93355" lon="-1.3704867"><ele>52.599999999999994</ele><time>2026-05-02T07:16:20.141Z</time></trkpt><trkpt lat="47.9336333" lon="-1.3703667"><ele>52.199999999999996</ele><time>2026-05-02T07:16:21.14Z</time></trkpt><trkpt lat="47.9337183" lon="-1.3702517"><ele>51.8</ele><time>2026-05-02T07:16:22.141Z</time></trkpt><trkpt lat="47.9337967" lon="-1.370145"><ele>51.4</ele><time>2026-05-02T07:16:23.14Z</time></trkpt><trkpt lat="47.9338683" lon="-1.3700483"><ele>51.0</ele><time>2026-05-02T07:16:24.14Z</time></trkpt><trkpt lat="47.933935" lon="-1.36996"><ele>51.0</ele><time>2026-05-02T07:16:25.14Z</time></trkpt><trkpt lat="47.933995" lon="-1.369875"><ele>51.0</ele><time>2026-05-02T07:16:26.14Z</time></trkpt><trkpt lat="47.9340467" lon="-1.3698"><ele>51.0</ele><time>2026-05-02T07:16:27.14Z</time></trkpt><trkpt lat="47.9340933" lon="-1.3697317"><ele>51.0</ele><time>2026-05-02T07:16:28.14Z</time></trkpt><trkpt lat="47.93417" lon="-1.36965"><ele>48.0</ele><time>2026-05-02T07:16:30.14Z</time></trkpt><trkpt lat="47.9341783" lon="-1.369765"><ele>51.0</ele><time>2026-05-02T07:16:34.139Z</time></trkpt></trkseg><trkseg><trkpt lat="47.9340933" lon="-1.369735"><ele>51.0</ele><time>2026-05-02T07:41:31.141Z</time></trkpt><trkpt lat="47.9341533" lon="-1.3697767"><ele>51.0</ele><time>2026-05-02T07:41:44.14Z</time></trkpt><trkpt lat="47.9340933" lon="-1.3698433"><ele>51.0</ele><time>2026-05-02T07:46:03.141Z</time></trkpt><trkpt lat="47.9339983" lon="-1.3699633"><ele>51.0</ele><time>2026-05-02T07:46:05.142Z</time></trkpt><trkpt lat="47.933945" lon="-1.37004"><ele>51.0</ele><time>2026-05-02T07:46:06.141Z</time></trkpt><trkpt lat="47.93388" lon="-1.370125"><ele>51.0</ele><time>2026-05-02T07:46:07.141Z</time></trkpt><trkpt lat="47.9338083" lon="-1.3702233"><ele>51.0</ele><time>2026-05-02T07:46:08.141Z</time></trkpt><trkpt lat="47.93373" lon="-1.3703317"><ele>51.0</ele><time>2026-05-02T07:46:09.141Z</time></trkpt><trkpt lat="47.9336483" lon="-1.3704483"><ele>51.0</ele><time>2026-05-02T07:46:10.142Z</time></trkpt><trkpt lat="47.93356" lon="-1.3705717"><ele>51.0</ele><time>2026-05-02T07:46:11.141Z</time></trkpt><trkpt lat="47.933465" lon="-1.370705"><ele>51.5</ele><time>2026-05-02T07:46:12.14Z</time></trkpt><trkpt lat="47.93336" lon="-1.3708467"><ele>52.0</ele><time>2026-05-02T07:46:13.141Z</time></trkpt><trkpt lat="47.9332533" lon="-1.370995"><ele>52.5</ele><time>2026-05-02T07:46:14.139Z</time></trkpt><trkpt lat="47.9331417" lon="-1.371155"><ele>53.0</ele><time>2026-05-02T07:46:15.14Z</time></trkpt><trkpt lat="47.933025" lon="-1.3713217"><ele>53.66666666666667</ele><time>2026-05-02T07:46:16.14Z</time></trkpt><trkpt lat="47.9329033" lon="-1.3714967"><ele>54.33333333333333</ele><time>2026-05-02T07:46:17.14Z</time></trkpt><trkpt lat="47.9327783" lon="-1.3716733"><ele>55.0</ele><time>2026-05-02T07:46:18.143Z</time></trkpt><trkpt lat="47.9326517" lon="-1.3718483"><ele>53.666666666666664</ele><time>2026-05-02T07:46:19.142Z</time></trkpt><trkpt lat="47.93253" lon="-1.3720167"><ele>52.33333333333333</ele><time>2026-05-02T07:46:20.141Z</time></trkpt><trkpt lat="47.9324167" lon="-1.3721767"><ele>51.0</ele><time>2026-05-02T07:46:21.141Z</time></trkpt><trkpt lat="47.9323067" lon="-1.372325"><ele>51.0</ele><time>2026-05-02T07:46:22.141Z</time></trkpt><trkpt lat="47.9322083" lon="-1.3724633"><ele>51.0</ele><time>2026-05-02T07:46:23.141Z</time></trkpt><trkpt lat="47.9321183" lon="-1.3725867"><ele>51.0</ele><time>2026-05-02T07:46:24.141Z</time></trkpt><trkpt lat="47.93204" lon="-1.3727017"><ele>51.0</ele><time>2026-05-02T07:46:25.139Z</time></trkpt><trkpt lat="47.9319717" lon="-1.3728033"><ele>51.0</ele><time>2026-05-02T07:46:26.139Z</time></trkpt><trkpt lat="47.9319167" lon="-1.37289"><ele>51.0</ele><time>2026-05-02T07:46:27.14Z</time></trkpt><trkpt lat="47.9318617" lon="-1.3730317"><ele>51.0</ele><time>2026-05-02T07:46:29.139Z</time></trkpt><trkpt lat="47.931855" lon="-1.3731733"><ele>51.0</ele><time>2026-05-02T07:46:31.139Z</time></trkpt><trkpt lat="47.9318617" lon="-1.3733383"><ele>51.0</ele><time>2026-05-02T07:46:33.139Z</time></trkpt><trkpt lat="47.9318733" lon="-1.3735067"><ele>51.4</ele><time>2026-05-02T07:46:35.139Z</time></trkpt><trkpt lat="47.93189" lon="-1.3736467"><ele>51.8</ele><time>2026-05-02T07:46:37.141Z</time></trkpt><trkpt lat="47.931915" lon="-1.3737667"><ele>52.199999999999996</ele><time>2026-05-02T07:46:39.142Z</time></trkpt><trkpt lat="47.9319583" lon="-1.3739033"><ele>52.599999999999994</ele><time>2026-05-02T07:46:41.14Z</time></trkpt><trkpt lat="47.9320217" lon="-1.37405"><ele>53.0</ele><time>2026-05-02T07:46:43.139Z</time></trkpt><trkpt lat="47.93206" lon="-1.3741267"><ele>53.285714285714285</ele><time>2026-05-02T07:46:44.142Z</time></trkpt><trkpt lat="47.9320983" lon="-1.3742083"><ele>53.57142857142857</ele><time>2026-05-02T07:46:45.139Z</time></trkpt><trkpt lat="47.93214" lon="-1.3742933"><ele>53.857142857142854</ele><time>2026-05-02T07:46:46.14Z</time></trkpt><trkpt lat="47.9321817" lon="-1.3743817"><ele>54.14285714285714</ele><time>2026-05-02T07:46:47.139Z</time></trkpt><trkpt lat="47.9322233" lon="-1.3744733"><ele>54.42857142857143</ele><time>2026-05-02T07:46:48.141Z</time></trkpt><trkpt lat="47.93226" lon="-1.3745667"><ele>54.71428571428571</ele><time>2026-05-02T07:46:49.14Z</time></trkpt><trkpt lat="47.9322917" lon="-1.37467"><ele>55.0</ele><time>2026-05-02T07:46:50.141Z</time></trkpt><trkpt lat="47.9323183" lon="-1.3747783"><ele>55.33333333333333</ele><time>2026-05-02T07:46:51.142Z</time></trkpt><trkpt lat="47.93234" lon="-1.3748933"><ele>55.666666666666664</ele><time>2026-05-02T07:46:52.14Z</time></trkpt><trkpt lat="47.9323617" lon="-1.3750083"><ele>56.0</ele><time>2026-05-02T07:46:53.139Z</time></trkpt><trkpt lat="47.9323933" lon="-1.3751267"><ele>56.33333333333333</ele><time>2026-05-02T07:46:54.139Z</time></trkpt><trkpt lat="47.9324217" lon="-1.375245"><ele>56.666666666666664</ele><time>2026-05-02T07:46:55.142Z</time></trkpt><trkpt lat="47.9324467" lon="-1.3753617"><ele>57.0</ele><time>2026-05-02T07:46:56.139Z</time></trkpt><trkpt lat="47.9324717" lon="-1.3754733"><ele>57.5</ele><time>2026-05-02T07:46:57.14Z</time></trkpt><trkpt lat="47.932495" lon="-1.3755833"><ele>58.0</ele><time>2026-05-02T07:46:58.14Z</time></trkpt><trkpt lat="47.9325183" lon="-1.3757017"><ele>58.5</ele><time>2026-05-02T07:46:59.139Z</time></trkpt><trkpt lat="47.9325417" lon="-1.3758217"><ele>59.0</ele><time>2026-05-02T07:47:00.139Z</time></trkpt><trkpt lat="47.9325633" lon="-1.375945"><ele>59.5</ele><time>2026-05-02T07:47:01.139Z</time></trkpt><trkpt lat="47.9325883" lon="-1.37607"><ele>60.0</ele><time>2026-05-02T07:47:02.139Z</time></trkpt><trkpt lat="47.9326117" lon="-1.3761983"><ele>60.5</ele><time>2026-05-02T07:47:03.14Z</time></trkpt><trkpt lat="47.9326367" lon="-1.3763267"><ele>61.0</ele><time>2026-05-02T07:47:04.139Z</time></trkpt><trkpt lat="47.9326583" lon="-1.3764517"><ele>61.5</ele><time>2026-05-02T07:47:05.14Z</time></trkpt><trkpt lat="47.9326833" lon="-1.376575"><ele>62.0</ele><time>2026-05-02T07:47:06.139Z</time></trkpt><trkpt lat="47.9327067" lon="-1.376695"><ele>62.5</ele><time>2026-05-02T07:47:07.139Z</time></trkpt><trkpt lat="47.9327283" lon="-1.376815"><ele>63.0</ele><time>2026-05-02T07:47:08.139Z</time></trkpt><trkpt lat="47.9327517" lon="-1.3769317"><ele>63.5</ele><time>2026-05-02T07:47:09.14Z</time></trkpt><trkpt lat="47.932775" lon="-1.3770467"><ele>64.0</ele><time>2026-05-02T07:47:10.139Z</time></trkpt><trkpt lat="47.9327933" lon="-1.3771567"><ele>64.5</ele><time>2026-05-02T07:47:11.14Z</time></trkpt><trkpt lat="47.9328133" lon="-1.3772633"><ele>65.0</ele><time>2026-05-02T07:47:12.139Z</time></trkpt><trkpt lat="47.932835" lon="-1.3773683"><ele>65.5</ele><time>2026-05-02T07:47:13.139Z</time></trkpt><trkpt lat="47.9328583" lon="-1.3774783"><ele>66.0</ele><time>2026-05-02T07:47:14.139Z</time></trkpt><trkpt lat="47.9328783" lon="-1.37759"><ele>66.16666666666667</ele><time>2026-05-02T07:47:15.14Z</time></trkpt><trkpt lat="47.9329017" lon="-1.3777033"><ele>66.33333333333333</ele><time>2026-05-02T07:47:16.143Z</time></trkpt><trkpt lat="47.9329267" lon="-1.3778167"><ele>66.5</ele><time>2026-05-02T07:47:17.14Z</time></trkpt><trkpt lat="47.93295" lon="-1.3779317"><ele>66.66666666666666</ele><time>2026-05-02T07:47:18.139Z</time></trkpt><trkpt lat="47.9329717" lon="-1.378045"><ele>66.83333333333333</ele><time>2026-05-02T07:47:19.144Z</time></trkpt><trkpt lat="47.9329933" lon="-1.3781633"><ele>67.0</ele><time>2026-05-02T07:47:20.141Z</time></trkpt><trkpt lat="47.9330183" lon="-1.3782883"><ele>67.66666666666666</ele><time>2026-05-02T07:47:21.14Z</time></trkpt><trkpt lat="47.9330417" lon="-1.3784117"><ele>68.33333333333333</ele><time>2026-05-02T07:47:22.141Z</time></trkpt><trkpt lat="47.9330617" lon="-1.3785317"><ele>69.0</ele><time>2026-05-02T07:47:23.139Z</time></trkpt><trkpt lat="47.9330867" lon="-1.3786467"><ele>69.66666666666667</ele><time>2026-05-02T07:47:24.139Z</time></trkpt><trkpt lat="47.9331117" lon="-1.3787567"><ele>70.33333333333334</ele><time>2026-05-02T07:47:25.139Z</time></trkpt><trkpt lat="47.9331383" lon="-1.3788683"><ele>71.0</ele><time>2026-05-02T07:47:26.139Z</time></trkpt><trkpt lat="47.933165" lon="-1.3789833"><ele>71.39999999999999</ele><time>2026-05-02T07:47:27.139Z</time></trkpt><trkpt lat="47.9331883" lon="-1.379105"><ele>71.8</ele><time>2026-05-02T07:47:28.14Z</time></trkpt><trkpt lat="47.9332083" lon="-1.3792333"><ele>72.19999999999999</ele><time>2026-05-02T07:47:29.139Z</time></trkpt><trkpt lat="47.9332283" lon="-1.37937"><ele>72.6</ele><time>2026-05-02T07:47:30.139Z</time></trkpt><trkpt lat="47.933245" lon="-1.37951"><ele>73.0</ele><time>2026-05-02T07:47:31.138Z</time></trkpt><trkpt lat="47.9332617" lon="-1.379655"><ele>73.2</ele><time>2026-05-02T07:47:32.14Z</time></trkpt><trkpt lat="47.9332767" lon="-1.3797933"><ele>73.4</ele><time>2026-05-02T07:47:33.142Z</time></trkpt><trkpt lat="47.9332883" lon="-1.3799333"><ele>73.60000000000001</ele><time>2026-05-02T07:47:34.141Z</time></trkpt><trkpt lat="47.9333" lon="-1.3800733"><ele>73.8</ele><time>2026-05-02T07:47:35.141Z</time></trkpt><trkpt lat="47.9333083" lon="-1.380215"><ele>74.0</ele><time>2026-05-02T07:47:36.141Z</time></trkpt><trkpt lat="47.9333117" lon="-1.3803633"><ele>74.0</ele><time>2026-05-02T07:47:37.14Z</time></trkpt><trkpt lat="47.93331" lon="-1.3805117"><ele>74.0</ele><time>2026-05-02T07:47:38.139Z</time></trkpt><trkpt lat="47.9333067" lon="-1.3806617"><ele>74.0</ele><time>2026-05-02T07:47:39.139Z</time></trkpt><trkpt lat="47.9333033" lon="-1.38081"><ele>74.0</ele><time>2026-05-02T07:47:40.139Z</time></trkpt><trkpt lat="47.9333" lon="-1.38096"><ele>74.0</ele><time>2026-05-02T07:47:41.141Z</time></trkpt><trkpt lat="47.9333" lon="-1.38111"><ele>74.4</ele><time>2026-05-02T07:47:42.139Z</time></trkpt><trkpt lat="47.9332983" lon="-1.3812633"><ele>74.80000000000001</ele><time>2026-05-02T07:47:43.14Z</time></trkpt><trkpt lat="47.9332967" lon="-1.3814167"><ele>75.19999999999999</ele><time>2026-05-02T07:47:44.14Z</time></trkpt><trkpt lat="47.933295" lon="-1.38157"><ele>75.6</ele><time>2026-05-02T07:47:45.14Z</time></trkpt><trkpt lat="47.9332967" lon="-1.3817217"><ele>76.0</ele><time>2026-05-02T07:47:46.139Z</time></trkpt><trkpt lat="47.9332983" lon="-1.381875"><ele>76.2</ele><time>2026-05-02T07:47:47.14Z</time></trkpt><trkpt lat="47.933295" lon="-1.3820267"><ele>76.39999999999999</ele><time>2026-05-02T07:47:48.142Z</time></trkpt><trkpt lat="47.9332899" lon="-1.38218"><ele>76.6</ele><time>2026-05-02T07:47:49.14Z</time></trkpt><trkpt lat="47.9332836" lon="-1.3823311"><ele>76.8</ele><time>2026-05-02T07:47:50.14Z</time></trkpt><trkpt lat="47.9332778" lon="-1.3824759"><ele>77.0</ele><time>2026-05-02T07:47:51.14Z</time></trkpt><trkpt lat="47.9332726" lon="-1.3826072"><ele>77.0</ele><time>2026-05-02T07:47:52.146Z</time></trkpt><trkpt lat="47.9332671" lon="-1.3827232"><ele>77.0</ele><time>2026-05-02T07:47:53.141Z</time></trkpt><trkpt lat="47.9332655" lon="-1.3828322"><ele>77.0</ele><time>2026-05-02T07:47:54.141Z</time></trkpt><trkpt lat="47.9332643" lon="-1.3829392"><ele>77.0</ele><time>2026-05-02T07:47:55.14Z</time></trkpt><trkpt lat="47.9332588" lon="-1.3830541"><ele>77.0</ele><time>2026-05-02T07:47:56.14Z</time></trkpt><trkpt lat="47.9332462" lon="-1.3831841"><ele>77.0</ele><time>2026-05-02T07:47:57.14Z</time></trkpt><trkpt lat="47.933233" lon="-1.383326"><ele>77.0</ele><time>2026-05-02T07:47:58.139Z</time></trkpt><trkpt lat="47.9332221" lon="-1.3834791"><ele>77.0</ele><time>2026-05-02T07:47:59.138Z</time></trkpt><trkpt lat="47.9332137" lon="-1.3836409"><ele>77.0</ele><time>2026-05-02T07:48:00.139Z</time></trkpt><trkpt lat="47.933207" lon="-1.3838056"><ele>77.0</ele><time>2026-05-02T07:48:01.139Z</time></trkpt><trkpt lat="47.9331995" lon="-1.3839714"><ele>77.0</ele><time>2026-05-02T07:48:02.14Z</time></trkpt><trkpt lat="47.9331907" lon="-1.3841328"><ele>77.2</ele><time>2026-05-02T07:48:03.139Z</time></trkpt><trkpt lat="47.9331827" lon="-1.3842861"><ele>77.4</ele><time>2026-05-02T07:48:04.14Z</time></trkpt><trkpt lat="47.9331722" lon="-1.3844386"><ele>77.6</ele><time>2026-05-02T07:48:05.141Z</time></trkpt><trkpt lat="47.9331571" lon="-1.3845904"><ele>77.8</ele><time>2026-05-02T07:48:06.139Z</time></trkpt><trkpt lat="47.9331423" lon="-1.384734"><ele>78.0</ele><time>2026-05-02T07:48:07.139Z</time></trkpt><trkpt lat="47.933132" lon="-1.3848676"><ele>78.33333333333333</ele><time>2026-05-02T07:48:08.14Z</time></trkpt><trkpt lat="47.9331226" lon="-1.3849915"><ele>78.66666666666667</ele><time>2026-05-02T07:48:09.141Z</time></trkpt><trkpt lat="47.9331136" lon="-1.385108"><ele>79.0</ele><time>2026-05-02T07:48:10.139Z</time></trkpt><trkpt lat="47.9331071" lon="-1.3852206"><ele>79.33333333333334</ele><time>2026-05-02T07:48:11.139Z</time></trkpt><trkpt lat="47.9331037" lon="-1.3853292"><ele>79.66666666666667</ele><time>2026-05-02T07:48:12.139Z</time></trkpt><trkpt lat="47.9331025" lon="-1.3854365"><ele>80.0</ele><time>2026-05-02T07:48:13.141Z</time></trkpt><trkpt lat="47.9331047" lon="-1.3855497"><ele>80.0</ele><time>2026-05-02T07:48:14.14Z</time></trkpt><trkpt lat="47.9331074" lon="-1.3856732"><ele>80.0</ele><time>2026-05-02T07:48:15.14Z</time></trkpt><trkpt lat="47.9331121" lon="-1.3857998"><ele>80.0</ele><time>2026-05-02T07:48:16.138Z</time></trkpt><trkpt lat="47.9331173" lon="-1.3859174"><ele>80.0</ele><time>2026-05-02T07:48:17.14Z</time></trkpt><trkpt lat="47.9331231" lon="-1.3860197"><ele>80.0</ele><time>2026-05-02T07:48:18.139Z</time></trkpt><trkpt lat="47.9331228" lon="-1.3861173"><ele>80.0</ele><time>2026-05-02T07:48:19.139Z</time></trkpt><trkpt lat="47.9331181" lon="-1.3862127"><ele>80.0</ele><time>2026-05-02T07:48:20.142Z</time></trkpt><trkpt lat="47.9331171" lon="-1.3863103"><ele>80.16666666666667</ele><time>2026-05-02T07:48:21.14Z</time></trkpt><trkpt lat="47.9331187" lon="-1.38641"><ele>80.33333333333334</ele><time>2026-05-02T07:48:22.139Z</time></trkpt><trkpt lat="47.9331224" lon="-1.3865757"><ele>80.5</ele><time>2026-05-02T07:48:24.141Z</time></trkpt><trkpt lat="47.9331247" lon="-1.3867223"><ele>80.66666666666667</ele><time>2026-05-02T07:48:26.14Z</time></trkpt><trkpt lat="47.9331175" lon="-1.3868259"><ele>80.83333333333333</ele><time>2026-05-02T07:48:29.14Z</time></trkpt><trkpt lat="47.9332129" lon="-1.3868279"><ele>81.0</ele><time>2026-05-02T07:48:53.14Z</time></trkpt><trkpt lat="47.9333271" lon="-1.386818"><ele>80.5</ele><time>2026-05-02T07:48:55.139Z</time></trkpt><trkpt lat="47.933449" lon="-1.3868156"><ele>80.0</ele><time>2026-05-02T07:48:57.14Z</time></trkpt><trkpt lat="47.9335137" lon="-1.3868253"><ele>79.5</ele><time>2026-05-02T07:48:58.14Z</time></trkpt><trkpt lat="47.9335803" lon="-1.3868465"><ele>79.0</ele><time>2026-05-02T07:48:59.139Z</time></trkpt><trkpt lat="47.9336458" lon="-1.3868808"><ele>78.5</ele><time>2026-05-02T07:49:00.141Z</time></trkpt><trkpt lat="47.9337079" lon="-1.3869271"><ele>78.0</ele><time>2026-05-02T07:49:01.139Z</time></trkpt><trkpt lat="47.9337666" lon="-1.3869837"><ele>78.0</ele><time>2026-05-02T07:49:02.139Z</time></trkpt><trkpt lat="47.9338231" lon="-1.3870477"><ele>78.0</ele><time>2026-05-02T07:49:03.14Z</time></trkpt><trkpt lat="47.933881" lon="-1.3871187"><ele>78.0</ele><time>2026-05-02T07:49:04.141Z</time></trkpt><trkpt lat="47.9339436" lon="-1.3871983"><ele>78.0</ele><time>2026-05-02T07:49:05.141Z</time></trkpt><trkpt lat="47.9340158" lon="-1.3872907"><ele>78.0</ele><time>2026-05-02T07:49:06.14Z</time></trkpt><trkpt lat="47.9340916" lon="-1.3873874"><ele>78.0</ele><time>2026-05-02T07:49:07.139Z</time></trkpt><trkpt lat="47.9341675" lon="-1.3874835"><ele>77.4</ele><time>2026-05-02T07:49:08.139Z</time></trkpt><trkpt lat="47.9342398" lon="-1.3875728"><ele>76.8</ele><time>2026-05-02T07:49:09.139Z</time></trkpt><trkpt lat="47.9343003" lon="-1.3876452"><ele>76.2</ele><time>2026-05-02T07:49:10.14Z</time></trkpt><trkpt lat="47.9343728" lon="-1.3877434"><ele>75.6</ele><time>2026-05-02T07:49:12.14Z</time></trkpt><trkpt lat="47.9343656" lon="-1.3878804"><ele>75.0</ele><time>2026-05-02T07:49:16.146Z</time></trkpt><trkpt lat="47.9342455" lon="-1.3880263"><ele>75.5</ele><time>2026-05-02T07:49:18.141Z</time></trkpt><trkpt lat="47.9341508" lon="-1.3881417"><ele>76.0</ele><time>2026-05-02T07:49:19.141Z</time></trkpt><trkpt lat="47.9340431" lon="-1.3882819"><ele>76.5</ele><time>2026-05-02T07:49:20.141Z</time></trkpt><trkpt lat="47.9339181" lon="-1.388448"><ele>77.0</ele><time>2026-05-02T07:49:21.141Z</time></trkpt><trkpt lat="47.9337778" lon="-1.3886406"><ele>77.66666666666667</ele><time>2026-05-02T07:49:22.14Z</time></trkpt><trkpt lat="47.9336228" lon="-1.3888582"><ele>78.33333333333333</ele><time>2026-05-02T07:49:23.141Z</time></trkpt><trkpt lat="47.9334568" lon="-1.3890983"><ele>79.0</ele><time>2026-05-02T07:49:24.141Z</time></trkpt><trkpt lat="47.9332796" lon="-1.3893587"><ele>79.0</ele><time>2026-05-02T07:49:25.141Z</time></trkpt><trkpt lat="47.9330994" lon="-1.3896317"><ele>79.0</ele><time>2026-05-02T07:49:26.14Z</time></trkpt><trkpt lat="47.9329251" lon="-1.3899028"><ele>78.5</ele><time>2026-05-02T07:49:27.139Z</time></trkpt><trkpt lat="47.9327584" lon="-1.3901638"><ele>78.0</ele><time>2026-05-02T07:49:28.139Z</time></trkpt><trkpt lat="47.9325966" lon="-1.390414"><ele>77.5</ele><time>2026-05-02T07:49:29.139Z</time></trkpt><trkpt lat="47.9324371" lon="-1.3906597"><ele>77.0</ele><time>2026-05-02T07:49:30.139Z</time></trkpt><trkpt lat="47.9322778" lon="-1.3908966"><ele>77.0</ele><time>2026-05-02T07:49:31.139Z</time></trkpt><trkpt lat="47.9321169" lon="-1.3911255"><ele>77.0</ele><time>2026-05-02T07:49:32.14Z</time></trkpt><trkpt lat="47.931957" lon="-1.3913518"><ele>77.0</ele><time>2026-05-02T07:49:33.141Z</time></trkpt><trkpt lat="47.931801" lon="-1.3915805"><ele>77.0</ele><time>2026-05-02T07:49:34.141Z</time></trkpt><trkpt lat="47.9316475" lon="-1.3918077"><ele>77.0</ele><time>2026-05-02T07:49:35.139Z</time></trkpt><trkpt lat="47.9314944" lon="-1.3920353"><ele>77.0</ele><time>2026-05-02T07:49:36.139Z</time></trkpt><trkpt lat="47.9313411" lon="-1.392259"><ele>77.0</ele><time>2026-05-02T07:49:37.14Z</time></trkpt><trkpt lat="47.9311881" lon="-1.3924791"><ele>77.0</ele><time>2026-05-02T07:49:38.139Z</time></trkpt><trkpt lat="47.931035" lon="-1.3927"><ele>77.0</ele><time>2026-05-02T07:49:39.139Z</time></trkpt><trkpt lat="47.9308827" lon="-1.3929188"><ele>77.66666666666667</ele><time>2026-05-02T07:49:40.142Z</time></trkpt><trkpt lat="47.9307281" lon="-1.3931393"><ele>78.33333333333333</ele><time>2026-05-02T07:49:41.14Z</time></trkpt><trkpt lat="47.9305762" lon="-1.3933596"><ele>79.0</ele><time>2026-05-02T07:49:42.141Z</time></trkpt><trkpt lat="47.9304344" lon="-1.3935848"><ele>79.0</ele><time>2026-05-02T07:49:43.139Z</time></trkpt><trkpt lat="47.9303063" lon="-1.3938189"><ele>79.0</ele><time>2026-05-02T07:49:44.139Z</time></trkpt><trkpt lat="47.9301914" lon="-1.3940651"><ele>79.0</ele><time>2026-05-02T07:49:45.139Z</time></trkpt><trkpt lat="47.9300892" lon="-1.3943269"><ele>80.0</ele><time>2026-05-02T07:49:46.139Z</time></trkpt><trkpt lat="47.9299917" lon="-1.3945935"><ele>81.0</ele><time>2026-05-02T07:49:47.141Z</time></trkpt><trkpt lat="47.9298961" lon="-1.3948638"><ele>82.0</ele><time>2026-05-02T07:49:48.14Z</time></trkpt><trkpt lat="47.9298003" lon="-1.3951278"><ele>82.0</ele><time>2026-05-02T07:49:49.139Z</time></trkpt><trkpt lat="47.9297029" lon="-1.3953809"><ele>82.0</ele><time>2026-05-02T07:49:50.14Z</time></trkpt><trkpt lat="47.9296107" lon="-1.395632"><ele>82.0</ele><time>2026-05-02T07:49:51.139Z</time></trkpt><trkpt lat="47.9295195" lon="-1.3958803"><ele>80.66666666666666</ele><time>2026-05-02T07:49:52.139Z</time></trkpt><trkpt lat="47.9294306" lon="-1.3961275"><ele>79.33333333333333</ele><time>2026-05-02T07:49:53.139Z</time></trkpt><trkpt lat="47.9293439" lon="-1.3963694"><ele>78.0</ele><time>2026-05-02T07:49:54.139Z</time></trkpt><trkpt lat="47.9292644" lon="-1.3966008"><ele>78.0</ele><time>2026-05-02T07:49:55.145Z</time></trkpt><trkpt lat="47.9291908" lon="-1.3968164"><ele>78.0</ele><time>2026-05-02T07:49:56.139Z</time></trkpt><trkpt lat="47.9291179" lon="-1.3970208"><ele>78.0</ele><time>2026-05-02T07:49:57.142Z</time></trkpt><trkpt lat="47.9290496" lon="-1.3972134"><ele>77.6</ele><time>2026-05-02T07:49:58.14Z</time></trkpt><trkpt lat="47.9289877" lon="-1.39739"><ele>77.19999999999999</ele><time>2026-05-02T07:49:59.139Z</time></trkpt><trkpt lat="47.9289325" lon="-1.3975504"><ele>76.8</ele><time>2026-05-02T07:50:00.139Z</time></trkpt><trkpt lat="47.9288817" lon="-1.3976903"><ele>76.39999999999999</ele><time>2026-05-02T07:50:01.142Z</time></trkpt><trkpt lat="47.9288381" lon="-1.3978051"><ele>76.0</ele><time>2026-05-02T07:50:02.138Z</time></trkpt><trkpt lat="47.9288054" lon="-1.3978976"><ele>75.83333333333333</ele><time>2026-05-02T07:50:03.139Z</time></trkpt><trkpt lat="47.9287896" lon="-1.3980211"><ele>75.66666666666666</ele><time>2026-05-02T07:50:05.139Z</time></trkpt><trkpt lat="47.9288459" lon="-1.3980932"><ele>75.5</ele><time>2026-05-02T07:50:07.14Z</time></trkpt><trkpt lat="47.9289104" lon="-1.3981157"><ele>75.33333333333333</ele><time>2026-05-02T07:50:08.139Z</time></trkpt><trkpt lat="47.9289985" lon="-1.3981207"><ele>75.16666666666667</ele><time>2026-05-02T07:50:09.138Z</time></trkpt><trkpt lat="47.9291108" lon="-1.3981118"><ele>75.0</ele><time>2026-05-02T07:50:10.139Z</time></trkpt><trkpt lat="47.9292371" lon="-1.3981008"><ele>74.25</ele><time>2026-05-02T07:50:11.139Z</time></trkpt><trkpt lat="47.9293769" lon="-1.3980972"><ele>73.5</ele><time>2026-05-02T07:50:12.14Z</time></trkpt><trkpt lat="47.929523" lon="-1.3981004"><ele>72.75</ele><time>2026-05-02T07:50:13.139Z</time></trkpt><trkpt lat="47.9296763" lon="-1.3981097"><ele>72.0</ele><time>2026-05-02T07:50:14.14Z</time></trkpt><trkpt lat="47.9298358" lon="-1.3981265"><ele>72.0</ele><time>2026-05-02T07:50:15.14Z</time></trkpt><trkpt lat="47.9300043" lon="-1.3981527"><ele>72.0</ele><time>2026-05-02T07:50:16.139Z</time></trkpt><trkpt lat="47.9301823" lon="-1.3981862"><ele>72.0</ele><time>2026-05-02T07:50:17.139Z</time></trkpt><trkpt lat="47.9303675" lon="-1.398228"><ele>71.0</ele><time>2026-05-02T07:50:18.139Z</time></trkpt><trkpt lat="47.9305604" lon="-1.3982744"><ele>70.0</ele><time>2026-05-02T07:50:19.139Z</time></trkpt><trkpt lat="47.9307536" lon="-1.3983235"><ele>69.0</ele><time>2026-05-02T07:50:20.14Z</time></trkpt><trkpt lat="47.9309459" lon="-1.3983698"><ele>68.0</ele><time>2026-05-02T07:50:21.14Z</time></trkpt><trkpt lat="47.9311365" lon="-1.3984149"><ele>67.0</ele><time>2026-05-02T07:50:22.14Z</time></trkpt><trkpt lat="47.9313237" lon="-1.3984565"><ele>66.0</ele><time>2026-05-02T07:50:23.14Z</time></trkpt><trkpt lat="47.9315084" lon="-1.3985017"><ele>66.0</ele><time>2026-05-02T07:50:24.139Z</time></trkpt><trkpt lat="47.9316848" lon="-1.3985625"><ele>66.0</ele><time>2026-05-02T07:50:25.139Z</time></trkpt><trkpt lat="47.9318551" lon="-1.398651"><ele>66.0</ele><time>2026-05-02T07:50:26.138Z</time></trkpt><trkpt lat="47.9320246" lon="-1.3987636"><ele>65.33333333333333</ele><time>2026-05-02T07:50:27.14Z</time></trkpt><trkpt lat="47.9321939" lon="-1.3988942"><ele>64.66666666666666</ele><time>2026-05-02T07:50:28.139Z</time></trkpt><trkpt lat="47.9323593" lon="-1.3990465"><ele>64.0</ele><time>2026-05-02T07:50:29.139Z</time></trkpt><trkpt lat="47.9325158" lon="-1.3992238"><ele>63.0</ele><time>2026-05-02T07:50:30.139Z</time></trkpt><trkpt lat="47.9326645" lon="-1.3994217"><ele>62.0</ele><time>2026-05-02T07:50:31.142Z</time></trkpt><trkpt lat="47.9328058" lon="-1.3996366"><ele>61.0</ele><time>2026-05-02T07:50:32.139Z</time></trkpt><trkpt lat="47.9329432" lon="-1.3998505"><ele>61.0</ele><time>2026-05-02T07:50:33.139Z</time></trkpt><trkpt lat="47.9330748" lon="-1.4000556"><ele>61.0</ele><time>2026-05-02T07:50:34.139Z</time></trkpt><trkpt lat="47.9331989" lon="-1.4002496"><ele>61.0</ele><time>2026-05-02T07:50:35.139Z</time></trkpt><trkpt lat="47.9333145" lon="-1.4004282"><ele>60.8</ele><time>2026-05-02T07:50:36.141Z</time></trkpt><trkpt lat="47.9334196" lon="-1.4005813"><ele>60.599999999999994</ele><time>2026-05-02T07:50:37.139Z</time></trkpt><trkpt lat="47.9335073" lon="-1.4007107"><ele>60.4</ele><time>2026-05-02T07:50:38.139Z</time></trkpt><trkpt lat="47.9335768" lon="-1.4008121"><ele>60.2</ele><time>2026-05-02T07:50:39.139Z</time></trkpt><trkpt lat="47.9336317" lon="-1.4008913"><ele>60.0</ele><time>2026-05-02T07:50:40.139Z</time></trkpt><trkpt lat="47.9336983" lon="-1.4009935"><ele>60.0</ele><time>2026-05-02T07:50:42.139Z</time></trkpt><trkpt lat="47.9337544" lon="-1.4010823"><ele>60.0</ele><time>2026-05-02T07:50:45.142Z</time></trkpt><trkpt lat="47.9338161" lon="-1.401189"><ele>60.0</ele><time>2026-05-02T07:50:47.139Z</time></trkpt><trkpt lat="47.9338602" lon="-1.4012586"><ele>60.0</ele><time>2026-05-02T07:50:48.143Z</time></trkpt><trkpt lat="47.9339074" lon="-1.4013325"><ele>60.0</ele><time>2026-05-02T07:50:49.139Z</time></trkpt><trkpt lat="47.9339618" lon="-1.4014166"><ele>60.0</ele><time>2026-05-02T07:50:50.142Z</time></trkpt><trkpt lat="47.9340178" lon="-1.4014984"><ele>60.6</ele><time>2026-05-02T07:50:51.142Z</time></trkpt><trkpt lat="47.9340707" lon="-1.4015759"><ele>61.2</ele><time>2026-05-02T07:50:52.139Z</time></trkpt><trkpt lat="47.9341567" lon="-1.4016923"><ele>61.8</ele><time>2026-05-02T07:50:54.14Z</time></trkpt><trkpt lat="47.9342166" lon="-1.4017453"><ele>62.4</ele><time>2026-05-02T07:50:56.142Z</time></trkpt><trkpt lat="47.9341514" lon="-1.4017363"><ele>63.0</ele><time>2026-05-02T07:51:02.139Z</time></trkpt><trkpt lat="47.9340684" lon="-1.4015896"><ele>63.0</ele><time>2026-05-02T07:51:04.14Z</time></trkpt><trkpt lat="47.9340104" lon="-1.4015053"><ele>63.0</ele><time>2026-05-02T07:51:05.14Z</time></trkpt><trkpt lat="47.9339422" lon="-1.4014061"><ele>63.0</ele><time>2026-05-02T07:51:06.139Z</time></trkpt><trkpt lat="47.9338752" lon="-1.4013028"><ele>63.0</ele><time>2026-05-02T07:51:07.139Z</time></trkpt><trkpt lat="47.9338148" lon="-1.4012096"><ele>63.0</ele><time>2026-05-02T07:51:08.139Z</time></trkpt><trkpt lat="47.9337645" lon="-1.4011359"><ele>63.0</ele><time>2026-05-02T07:51:09.14Z</time></trkpt><trkpt lat="47.9336998" lon="-1.4010711"><ele>63.0</ele><time>2026-05-02T07:51:11.139Z</time></trkpt><trkpt lat="47.9336191" lon="-1.4011497"><ele>63.0</ele><time>2026-05-02T07:51:14.139Z</time></trkpt><trkpt lat="47.9335646" lon="-1.4012717"><ele>63.0</ele><time>2026-05-02T07:51:16.138Z</time></trkpt><trkpt lat="47.933519" lon="-1.4014113"><ele>63.0</ele><time>2026-05-02T07:51:18.139Z</time></trkpt><trkpt lat="47.9334711" lon="-1.4015615"><ele>63.0</ele><time>2026-05-02T07:51:20.14Z</time></trkpt><trkpt lat="47.9334332" lon="-1.4017272"><ele>63.0</ele><time>2026-05-02T07:51:22.14Z</time></trkpt><trkpt lat="47.9334073" lon="-1.4018949"><ele>63.0</ele><time>2026-05-02T07:51:24.139Z</time></trkpt><trkpt lat="47.9333887" lon="-1.4020641"><ele>63.0</ele><time>2026-05-02T07:51:26.139Z</time></trkpt><trkpt lat="47.9333643" lon="-1.4022442"><ele>63.0</ele><time>2026-05-02T07:51:28.139Z</time></trkpt><trkpt lat="47.9333453" lon="-1.4023346"><ele>63.0</ele><time>2026-05-02T07:51:29.139Z</time></trkpt><trkpt lat="47.9333173" lon="-1.4024303"><ele>63.166666666666664</ele><time>2026-05-02T07:51:30.139Z</time></trkpt><trkpt lat="47.933287" lon="-1.4025327"><ele>63.33333333333333</ele><time>2026-05-02T07:51:31.14Z</time></trkpt><trkpt lat="47.9332595" lon="-1.4026421"><ele>63.5</ele><time>2026-05-02T07:51:32.139Z</time></trkpt><trkpt lat="47.9332448" lon="-1.4027559"><ele>63.666666666666664</ele><time>2026-05-02T07:51:33.139Z</time></trkpt><trkpt lat="47.9332391" lon="-1.4028743"><ele>63.83333333333333</ele><time>2026-05-02T07:51:34.139Z</time></trkpt><trkpt lat="47.9332445" lon="-1.4029989"><ele>64.0</ele><time>2026-05-02T07:51:35.139Z</time></trkpt><trkpt lat="47.9332578" lon="-1.4031259"><ele>64.66666666666666</ele><time>2026-05-02T07:51:36.14Z</time></trkpt><trkpt lat="47.9332799" lon="-1.4032535"><ele>65.33333333333333</ele><time>2026-05-02T07:51:37.14Z</time></trkpt><trkpt lat="47.9333024" lon="-1.4033704"><ele>66.0</ele><time>2026-05-02T07:51:38.138Z</time></trkpt><trkpt lat="47.9333241" lon="-1.4034853"><ele>66.66666666666667</ele><time>2026-05-02T07:51:39.139Z</time></trkpt><trkpt lat="47.9333461" lon="-1.4036018"><ele>67.33333333333334</ele><time>2026-05-02T07:51:40.139Z</time></trkpt><trkpt lat="47.9333639" lon="-1.4037057"><ele>68.0</ele><time>2026-05-02T07:51:41.139Z</time></trkpt><trkpt lat="47.9333775" lon="-1.4037983"><ele>68.2</ele><time>2026-05-02T07:51:42.14Z</time></trkpt><trkpt lat="47.9333977" lon="-1.4039419"><ele>68.4</ele><time>2026-05-02T07:51:44.142Z</time></trkpt><trkpt lat="47.9334205" lon="-1.4040746"><ele>68.60000000000001</ele><time>2026-05-02T07:51:46.139Z</time></trkpt><trkpt lat="47.9334443" lon="-1.4041906"><ele>68.8</ele><time>2026-05-02T07:51:48.14Z</time></trkpt><trkpt lat="47.93347" lon="-1.4043183"><ele>69.0</ele><time>2026-05-02T07:51:57.141Z</time></trkpt><trkpt lat="47.93342" lon="-1.4041633"><ele>69.0</ele><time>2026-05-02T07:52:14.14Z</time></trkpt><trkpt lat="47.9333983" lon="-1.404055"><ele>69.0</ele><time>2026-05-02T07:52:15.139Z</time></trkpt><trkpt lat="47.93337" lon="-1.40393"><ele>69.0</ele><time>2026-05-02T07:52:16.139Z</time></trkpt><trkpt lat="47.9333383" lon="-1.403795"><ele>69.0</ele><time>2026-05-02T07:52:17.138Z</time></trkpt><trkpt lat="47.933305" lon="-1.403655"><ele>69.0</ele><time>2026-05-02T07:52:18.137Z</time></trkpt><trkpt lat="47.9332733" lon="-1.4035133"><ele>68.83333333333333</ele><time>2026-05-02T07:52:19.138Z</time></trkpt><trkpt lat="47.9332433" lon="-1.4033783"><ele>68.66666666666667</ele><time>2026-05-02T07:52:20.141Z</time></trkpt><trkpt lat="47.9332183" lon="-1.4032517"><ele>68.5</ele><time>2026-05-02T07:52:21.14Z</time></trkpt><trkpt lat="47.9331983" lon="-1.4031367"><ele>68.33333333333334</ele><time>2026-05-02T07:52:22.14Z</time></trkpt><trkpt lat="47.933185" lon="-1.4030267"><ele>68.16666666666667</ele><time>2026-05-02T07:52:23.14Z</time></trkpt><trkpt lat="47.9331833" lon="-1.40292"><ele>68.0</ele><time>2026-05-02T07:52:24.14Z</time></trkpt><trkpt lat="47.9331917" lon="-1.40281"><ele>67.33333333333334</ele><time>2026-05-02T07:52:25.141Z</time></trkpt><trkpt lat="47.9332083" lon="-1.4026983"><ele>66.66666666666667</ele><time>2026-05-02T07:52:26.141Z</time></trkpt><trkpt lat="47.933235" lon="-1.40258"><ele>66.0</ele><time>2026-05-02T07:52:27.14Z</time></trkpt><trkpt lat="47.9332667" lon="-1.4024617"><ele>65.33333333333333</ele><time>2026-05-02T07:52:28.14Z</time></trkpt><trkpt lat="47.933295" lon="-1.4023533"><ele>64.66666666666666</ele><time>2026-05-02T07:52:29.141Z</time></trkpt><trkpt lat="47.93332" lon="-1.4022583"><ele>64.0</ele><time>2026-05-02T07:52:30.14Z</time></trkpt><trkpt lat="47.933345" lon="-1.4021617"><ele>63.83333333333333</ele><time>2026-05-02T07:52:31.139Z</time></trkpt><trkpt lat="47.9333633" lon="-1.4020717"><ele>63.666666666666664</ele><time>2026-05-02T07:52:32.139Z</time></trkpt><trkpt lat="47.9333967" lon="-1.4019183"><ele>63.5</ele><time>2026-05-02T07:52:34.14Z</time></trkpt><trkpt lat="47.933415" lon="-1.4017867"><ele>63.33333333333333</ele><time>2026-05-02T07:52:36.14Z</time></trkpt><trkpt lat="47.9333617" lon="-1.4017083"><ele>63.166666666666664</ele><time>2026-05-02T07:52:38.14Z</time></trkpt><trkpt lat="47.933275" lon="-1.40174"><ele>63.0</ele><time>2026-05-02T07:52:40.14Z</time></trkpt><trkpt lat="47.9331733" lon="-1.4017867"><ele>62.599999999999994</ele><time>2026-05-02T07:52:42.141Z</time></trkpt><trkpt lat="47.93305" lon="-1.401825"><ele>62.199999999999996</ele><time>2026-05-02T07:52:44.139Z</time></trkpt><trkpt lat="47.9329783" lon="-1.4018517"><ele>61.8</ele><time>2026-05-02T07:52:45.14Z</time></trkpt><trkpt lat="47.9329017" lon="-1.4018783"><ele>61.4</ele><time>2026-05-02T07:52:46.14Z</time></trkpt><trkpt lat="47.93282" lon="-1.4019067"><ele>61.0</ele><time>2026-05-02T07:52:47.141Z</time></trkpt><trkpt lat="47.9327267" lon="-1.4019383"><ele>61.0</ele><time>2026-05-02T07:52:48.14Z</time></trkpt><trkpt lat="47.9326283" lon="-1.401985"><ele>60.99999999999999</ele><time>2026-05-02T07:52:49.141Z</time></trkpt><trkpt lat="47.9325367" lon="-1.40205"><ele>60.99999999999999</ele><time>2026-05-02T07:52:50.141Z</time></trkpt><trkpt lat="47.9324467" lon="-1.4021233"><ele>61.0</ele><time>2026-05-02T07:52:51.14Z</time></trkpt><trkpt lat="47.9323533" lon="-1.4021933"><ele>61.0</ele><time>2026-05-02T07:52:52.14Z</time></trkpt><trkpt lat="47.93226" lon="-1.4022683"><ele>61.8</ele><time>2026-05-02T07:52:53.139Z</time></trkpt><trkpt lat="47.93217" lon="-1.4023467"><ele>62.599999999999994</ele><time>2026-05-02T07:52:54.14Z</time></trkpt><trkpt lat="47.9320833" lon="-1.402425"><ele>63.4</ele><time>2026-05-02T07:52:55.14Z</time></trkpt><trkpt lat="47.931995" lon="-1.4024983"><ele>64.2</ele><time>2026-05-02T07:52:56.14Z</time></trkpt><trkpt lat="47.93191" lon="-1.4025717"><ele>65.0</ele><time>2026-05-02T07:52:57.14Z</time></trkpt><trkpt lat="47.9318183" lon="-1.40264"><ele>65.0</ele><time>2026-05-02T07:52:58.141Z</time></trkpt><trkpt lat="47.93173" lon="-1.4027133"><ele>65.0</ele><time>2026-05-02T07:52:59.143Z</time></trkpt><trkpt lat="47.9316367" lon="-1.4027883"><ele>65.0</ele><time>2026-05-02T07:53:00.141Z</time></trkpt><trkpt lat="47.9315417" lon="-1.4028633"><ele>65.0</ele><time>2026-05-02T07:53:01.141Z</time></trkpt><trkpt lat="47.931445" lon="-1.4029383"><ele>65.0</ele><time>2026-05-02T07:53:02.139Z</time></trkpt><trkpt lat="47.93135" lon="-1.4030183"><ele>65.4</ele><time>2026-05-02T07:53:03.141Z</time></trkpt><trkpt lat="47.9312567" lon="-1.4031017"><ele>65.8</ele><time>2026-05-02T07:53:04.14Z</time></trkpt><trkpt lat="47.9311583" lon="-1.4031817"><ele>66.2</ele><time>2026-05-02T07:53:05.139Z</time></trkpt><trkpt lat="47.9310617" lon="-1.40326"><ele>66.6</ele><time>2026-05-02T07:53:06.14Z</time></trkpt><trkpt lat="47.930965" lon="-1.4033383"><ele>67.0</ele><time>2026-05-02T07:53:07.139Z</time></trkpt><trkpt lat="47.9308733" lon="-1.4034083"><ele>67.2</ele><time>2026-05-02T07:53:08.14Z</time></trkpt><trkpt lat="47.9307883" lon="-1.40348"><ele>67.4</ele><time>2026-05-02T07:53:09.143Z</time></trkpt><trkpt lat="47.9307067" lon="-1.40355"><ele>67.6</ele><time>2026-05-02T07:53:10.139Z</time></trkpt><trkpt lat="47.9306233" lon="-1.4036217"><ele>67.8</ele><time>2026-05-02T07:53:11.14Z</time></trkpt><trkpt lat="47.9305433" lon="-1.4036917"><ele>68.0</ele><time>2026-05-02T07:53:12.14Z</time></trkpt><trkpt lat="47.9304667" lon="-1.4037583"><ele>68.0</ele><time>2026-05-02T07:53:13.141Z</time></trkpt><trkpt lat="47.9303917" lon="-1.4038217"><ele>68.0</ele><time>2026-05-02T07:53:14.14Z</time></trkpt><trkpt lat="47.930325" lon="-1.40388"><ele>68.0</ele><time>2026-05-02T07:53:15.14Z</time></trkpt><trkpt lat="47.9302617" lon="-1.4039283"><ele>68.0</ele><time>2026-05-02T07:53:16.14Z</time></trkpt><trkpt lat="47.9301483" lon="-1.40398"><ele>68.0</ele><time>2026-05-02T07:53:18.139Z</time></trkpt><trkpt lat="47.93001" lon="-1.4039967"><ele>68.2</ele><time>2026-05-02T07:53:20.14Z</time></trkpt><trkpt lat="47.9299183" lon="-1.4040033"><ele>68.4</ele><time>2026-05-02T07:53:21.141Z</time></trkpt><trkpt lat="47.9298183" lon="-1.4040067"><ele>68.60000000000001</ele><time>2026-05-02T07:53:22.14Z</time></trkpt><trkpt lat="47.9297183" lon="-1.404005"><ele>68.8</ele><time>2026-05-02T07:53:23.14Z</time></trkpt><trkpt lat="47.929615" lon="-1.4039983"><ele>69.0</ele><time>2026-05-02T07:53:24.141Z</time></trkpt><trkpt lat="47.9295083" lon="-1.4039817"><ele>69.0</ele><time>2026-05-02T07:53:25.14Z</time></trkpt><trkpt lat="47.9293917" lon="-1.403955"><ele>69.0</ele><time>2026-05-02T07:53:26.139Z</time></trkpt><trkpt lat="47.9292717" lon="-1.40393"><ele>69.0</ele><time>2026-05-02T07:53:27.14Z</time></trkpt><trkpt lat="47.9291467" lon="-1.4039067"><ele>69.0</ele><time>2026-05-02T07:53:28.141Z</time></trkpt><trkpt lat="47.9290117" lon="-1.4038817"><ele>69.75</ele><time>2026-05-02T07:53:29.139Z</time></trkpt><trkpt lat="47.9288767" lon="-1.403855"><ele>70.5</ele><time>2026-05-02T07:53:30.139Z</time></trkpt><trkpt lat="47.9287433" lon="-1.4038233"><ele>71.25</ele><time>2026-05-02T07:53:31.139Z</time></trkpt><trkpt lat="47.9286083" lon="-1.4037883"><ele>72.0</ele><time>2026-05-02T07:53:32.139Z</time></trkpt><trkpt lat="47.928475" lon="-1.4037517"><ele>73.0</ele><time>2026-05-02T07:53:33.141Z</time></trkpt><trkpt lat="47.9283467" lon="-1.40372"><ele>74.0</ele><time>2026-05-02T07:53:34.14Z</time></trkpt><trkpt lat="47.92822" lon="-1.4036917"><ele>75.0</ele><time>2026-05-02T07:53:35.142Z</time></trkpt><trkpt lat="47.9280867" lon="-1.40366"><ele>76.0</ele><time>2026-05-02T07:53:36.14Z</time></trkpt><trkpt lat="47.927945" lon="-1.4036317"><ele>76.0</ele><time>2026-05-02T07:53:37.139Z</time></trkpt><trkpt lat="47.9278033" lon="-1.4036017"><ele>76.0</ele><time>2026-05-02T07:53:38.14Z</time></trkpt><trkpt lat="47.92767" lon="-1.4035767"><ele>76.0</ele><time>2026-05-02T07:53:39.139Z</time></trkpt><trkpt lat="47.9275417" lon="-1.4035517"><ele>76.0</ele><time>2026-05-02T07:53:40.139Z</time></trkpt><trkpt lat="47.9274167" lon="-1.4035267"><ele>76.6</ele><time>2026-05-02T07:53:41.139Z</time></trkpt><trkpt lat="47.9273" lon="-1.4035033"><ele>77.19999999999999</ele><time>2026-05-02T07:53:42.14Z</time></trkpt><trkpt lat="47.9272017" lon="-1.40348"><ele>77.80000000000001</ele><time>2026-05-02T07:53:43.139Z</time></trkpt><trkpt lat="47.9271133" lon="-1.4034567"><ele>78.4</ele><time>2026-05-02T07:53:44.139Z</time></trkpt><trkpt lat="47.92704" lon="-1.403435"><ele>79.0</ele><time>2026-05-02T07:53:45.14Z</time></trkpt><trkpt lat="47.9269417" lon="-1.403395"><ele>79.0</ele><time>2026-05-02T07:53:47.141Z</time></trkpt><trkpt lat="47.9268683" lon="-1.4033483"><ele>79.0</ele><time>2026-05-02T07:53:50.142Z</time></trkpt><trkpt lat="47.9267867" lon="-1.4034617"><ele>79.0</ele><time>2026-05-02T07:53:53.139Z</time></trkpt><trkpt lat="47.92675" lon="-1.4035667"><ele>79.0</ele><time>2026-05-02T07:53:54.141Z</time></trkpt><trkpt lat="47.9267083" lon="-1.4036833"><ele>79.0</ele><time>2026-05-02T07:53:55.14Z</time></trkpt><trkpt lat="47.9266633" lon="-1.4038067"><ele>79.25</ele><time>2026-05-02T07:53:56.14Z</time></trkpt><trkpt lat="47.9266117" lon="-1.4039433"><ele>79.5</ele><time>2026-05-02T07:53:57.14Z</time></trkpt><trkpt lat="47.9265567" lon="-1.4040883"><ele>79.75</ele><time>2026-05-02T07:53:58.141Z</time></trkpt><trkpt lat="47.9264983" lon="-1.4042483"><ele>80.0</ele><time>2026-05-02T07:53:59.139Z</time></trkpt><trkpt lat="47.9264367" lon="-1.4044283"><ele>80.0</ele><time>2026-05-02T07:54:00.139Z</time></trkpt><trkpt lat="47.9263667" lon="-1.4046283"><ele>80.0</ele><time>2026-05-02T07:54:01.141Z</time></trkpt><trkpt lat="47.9262933" lon="-1.4048367"><ele>80.0</ele><time>2026-05-02T07:54:02.139Z</time></trkpt><trkpt lat="47.926215" lon="-1.4050517"><ele>80.33333333333334</ele><time>2026-05-02T07:54:03.14Z</time></trkpt><trkpt lat="47.926135" lon="-1.405275"><ele>80.66666666666667</ele><time>2026-05-02T07:54:04.139Z</time></trkpt><trkpt lat="47.9260583" lon="-1.4055067"><ele>81.0</ele><time>2026-05-02T07:54:05.14Z</time></trkpt><trkpt lat="47.9259733" lon="-1.4057433"><ele>82.0</ele><time>2026-05-02T07:54:06.14Z</time></trkpt><trkpt lat="47.9258867" lon="-1.4059817"><ele>83.0</ele><time>2026-05-02T07:54:07.141Z</time></trkpt><trkpt lat="47.9258" lon="-1.406215"><ele>84.0</ele><time>2026-05-02T07:54:08.139Z</time></trkpt><trkpt lat="47.9257133" lon="-1.4064533"><ele>84.0</ele><time>2026-05-02T07:54:09.139Z</time></trkpt><trkpt lat="47.925635" lon="-1.4066933"><ele>84.0</ele><time>2026-05-02T07:54:10.141Z</time></trkpt><trkpt lat="47.9255583" lon="-1.40694"><ele>84.0</ele><time>2026-05-02T07:54:11.142Z</time></trkpt><trkpt lat="47.92549" lon="-1.4072017"><ele>83.66666666666667</ele><time>2026-05-02T07:54:12.14Z</time></trkpt><trkpt lat="47.9254283" lon="-1.4074767"><ele>83.33333333333334</ele><time>2026-05-02T07:54:13.14Z</time></trkpt><trkpt lat="47.925375" lon="-1.40776"><ele>83.0</ele><time>2026-05-02T07:54:14.14Z</time></trkpt><trkpt lat="47.9253267" lon="-1.4080467"><ele>83.0</ele><time>2026-05-02T07:54:15.141Z</time></trkpt><trkpt lat="47.925295" lon="-1.4083333"><ele>83.0</ele><time>2026-05-02T07:54:16.14Z</time></trkpt><trkpt lat="47.9252767" lon="-1.408615"><ele>83.0</ele><time>2026-05-02T07:54:17.139Z</time></trkpt><trkpt lat="47.9252683" lon="-1.4088967"><ele>83.0</ele><time>2026-05-02T07:54:18.14Z</time></trkpt><trkpt lat="47.9252633" lon="-1.4091633"><ele>83.0</ele><time>2026-05-02T07:54:19.141Z</time></trkpt><trkpt lat="47.9252583" lon="-1.4094117"><ele>83.0</ele><time>2026-05-02T07:54:20.139Z</time></trkpt><trkpt lat="47.9252433" lon="-1.4096433"><ele>82.66666666666667</ele><time>2026-05-02T07:54:21.14Z</time></trkpt><trkpt lat="47.9252067" lon="-1.40986"><ele>82.33333333333333</ele><time>2026-05-02T07:54:22.14Z</time></trkpt><trkpt lat="47.92514" lon="-1.4100883"><ele>82.0</ele><time>2026-05-02T07:54:23.141Z</time></trkpt><trkpt lat="47.9250433" lon="-1.410335"><ele>82.0</ele><time>2026-05-02T07:54:24.139Z</time></trkpt><trkpt lat="47.9249233" lon="-1.4105983"><ele>82.0</ele><time>2026-05-02T07:54:25.14Z</time></trkpt><trkpt lat="47.9247967" lon="-1.41087"><ele>82.0</ele><time>2026-05-02T07:54:26.14Z</time></trkpt><trkpt lat="47.924675" lon="-1.4111367"><ele>82.0</ele><time>2026-05-02T07:54:27.14Z</time></trkpt><trkpt lat="47.9245433" lon="-1.4113983"><ele>82.0</ele><time>2026-05-02T07:54:28.141Z</time></trkpt><trkpt lat="47.9244" lon="-1.4116533"><ele>82.0</ele><time>2026-05-02T07:54:29.14Z</time></trkpt><trkpt lat="47.924245" lon="-1.41191"><ele>81.0</ele><time>2026-05-02T07:54:30.14Z</time></trkpt><trkpt lat="47.924085" lon="-1.41217"><ele>80.0</ele><time>2026-05-02T07:54:31.14Z</time></trkpt><trkpt lat="47.9239217" lon="-1.4124267"><ele>80.0</ele><time>2026-05-02T07:54:32.141Z</time></trkpt><trkpt lat="47.9237583" lon="-1.41268"><ele>80.0</ele><time>2026-05-02T07:54:33.139Z</time></trkpt><trkpt lat="47.9236" lon="-1.4129317"><ele>79.0</ele><time>2026-05-02T07:54:34.14Z</time></trkpt><trkpt lat="47.9234433" lon="-1.413185"><ele>78.0</ele><time>2026-05-02T07:54:35.14Z</time></trkpt><trkpt lat="47.923295" lon="-1.41344"><ele>77.33333333333333</ele><time>2026-05-02T07:54:36.139Z</time></trkpt><trkpt lat="47.9231617" lon="-1.4137017"><ele>76.66666666666666</ele><time>2026-05-02T07:54:37.139Z</time></trkpt><trkpt lat="47.9230467" lon="-1.413965"><ele>76.0</ele><time>2026-05-02T07:54:38.14Z</time></trkpt><trkpt lat="47.9229433" lon="-1.414225"><ele>75.33333333333333</ele><time>2026-05-02T07:54:39.139Z</time></trkpt><trkpt lat="47.9228367" lon="-1.41448"><ele>74.66666666666667</ele><time>2026-05-02T07:54:40.138Z</time></trkpt><trkpt lat="47.9227217" lon="-1.4147217"><ele>74.0</ele><time>2026-05-02T07:54:41.139Z</time></trkpt><trkpt lat="47.9225983" lon="-1.414955"><ele>73.33333333333334</ele><time>2026-05-02T07:54:42.139Z</time></trkpt><trkpt lat="47.92246" lon="-1.41518"><ele>72.66666666666667</ele><time>2026-05-02T07:54:43.14Z</time></trkpt><trkpt lat="47.922315" lon="-1.4153967"><ele>72.0</ele><time>2026-05-02T07:54:44.14Z</time></trkpt><trkpt lat="47.92217" lon="-1.4156133"><ele>72.0</ele><time>2026-05-02T07:54:45.142Z</time></trkpt><trkpt lat="47.9220267" lon="-1.4158367"><ele>72.0</ele><time>2026-05-02T07:54:46.14Z</time></trkpt><trkpt lat="47.9218933" lon="-1.4160683"><ele>72.0</ele><time>2026-05-02T07:54:47.139Z</time></trkpt><trkpt lat="47.9217833" lon="-1.41631"><ele>70.0</ele><time>2026-05-02T07:54:48.14Z</time></trkpt><trkpt lat="47.9216933" lon="-1.41657"><ele>68.0</ele><time>2026-05-02T07:54:49.139Z</time></trkpt><trkpt lat="47.9216217" lon="-1.4168417"><ele>66.0</ele><time>2026-05-02T07:54:50.138Z</time></trkpt><trkpt lat="47.9215683" lon="-1.4171117"><ele>66.0</ele><time>2026-05-02T07:54:51.139Z</time></trkpt><trkpt lat="47.9215317" lon="-1.4173667"><ele>66.0</ele><time>2026-05-02T07:54:52.14Z</time></trkpt><trkpt lat="47.9215117" lon="-1.4176"><ele>66.0</ele><time>2026-05-02T07:54:53.139Z</time></trkpt><trkpt lat="47.9214983" lon="-1.4178067"><ele>65.75</ele><time>2026-05-02T07:54:54.139Z</time></trkpt><trkpt lat="47.92149" lon="-1.417995"><ele>65.5</ele><time>2026-05-02T07:54:55.139Z</time></trkpt><trkpt lat="47.9214767" lon="-1.4181667"><ele>65.25</ele><time>2026-05-02T07:54:56.142Z</time></trkpt><trkpt lat="47.92146" lon="-1.4183317"><ele>65.0</ele><time>2026-05-02T07:54:57.139Z</time></trkpt><trkpt lat="47.9214433" lon="-1.418505"><ele>65.0</ele><time>2026-05-02T07:54:58.139Z</time></trkpt><trkpt lat="47.9214233" lon="-1.4186867"><ele>65.0</ele><time>2026-05-02T07:54:59.14Z</time></trkpt><trkpt lat="47.921395" lon="-1.41886"><ele>65.0</ele><time>2026-05-02T07:55:00.14Z</time></trkpt><trkpt lat="47.9213633" lon="-1.419015"><ele>65.0</ele><time>2026-05-02T07:55:01.139Z</time></trkpt><trkpt lat="47.9213367" lon="-1.4191533"><ele>65.0</ele><time>2026-05-02T07:55:02.139Z</time></trkpt><trkpt lat="47.9213133" lon="-1.4192717"><ele>65.2</ele><time>2026-05-02T07:55:03.139Z</time></trkpt><trkpt lat="47.921285" lon="-1.4193733"><ele>65.4</ele><time>2026-05-02T07:55:04.139Z</time></trkpt><trkpt lat="47.921165" lon="-1.4194417"><ele>65.6</ele><time>2026-05-02T07:55:06.14Z</time></trkpt><trkpt lat="47.9210667" lon="-1.4194383"><ele>65.8</ele><time>2026-05-02T07:55:07.139Z</time></trkpt><trkpt lat="47.92094" lon="-1.4194467"><ele>66.0</ele><time>2026-05-02T07:55:08.141Z</time></trkpt><trkpt lat="47.9207917" lon="-1.41948"><ele>65.0</ele><time>2026-05-02T07:55:09.14Z</time></trkpt><trkpt lat="47.9206467" lon="-1.419525"><ele>64.0</ele><time>2026-05-02T07:55:10.139Z</time></trkpt><trkpt lat="47.9205233" lon="-1.4195767"><ele>63.0</ele><time>2026-05-02T07:55:11.139Z</time></trkpt><trkpt lat="47.9204217" lon="-1.4196417"><ele>62.0</ele><time>2026-05-02T07:55:12.14Z</time></trkpt><trkpt lat="47.9203333" lon="-1.4197067"><ele>62.0</ele><time>2026-05-02T07:55:13.139Z</time></trkpt><trkpt lat="47.9202483" lon="-1.4197533"><ele>62.0</ele><time>2026-05-02T07:55:14.139Z</time></trkpt><trkpt lat="47.9201383" lon="-1.4197483"><ele>62.0</ele><time>2026-05-02T07:55:15.139Z</time></trkpt><trkpt lat="47.92001" lon="-1.4197083"><ele>62.0</ele><time>2026-05-02T07:55:16.139Z</time></trkpt><trkpt lat="47.91988" lon="-1.419625"><ele>62.5</ele><time>2026-05-02T07:55:17.139Z</time></trkpt><trkpt lat="47.9197633" lon="-1.4194967"><ele>63.0</ele><time>2026-05-02T07:55:18.139Z</time></trkpt><trkpt lat="47.9196667" lon="-1.4193267"><ele>63.5</ele><time>2026-05-02T07:55:19.14Z</time></trkpt><trkpt lat="47.9195833" lon="-1.419155"><ele>64.0</ele><time>2026-05-02T07:55:20.139Z</time></trkpt><trkpt lat="47.9195033" lon="-1.4190217"><ele>63.99999999999999</ele><time>2026-05-02T07:55:21.139Z</time></trkpt><trkpt lat="47.9194167" lon="-1.418935"><ele>64.0</ele><time>2026-05-02T07:55:22.141Z</time></trkpt><trkpt lat="47.9193317" lon="-1.41889"><ele>64.0</ele><time>2026-05-02T07:55:23.14Z</time></trkpt><trkpt lat="47.919265" lon="-1.418885"><ele>64.0</ele><time>2026-05-02T07:55:24.139Z</time></trkpt><trkpt lat="47.919195" lon="-1.4189367"><ele>63.99999999999999</ele><time>2026-05-02T07:55:26.139Z</time></trkpt><trkpt lat="47.919175" lon="-1.419065"><ele>64.0</ele><time>2026-05-02T07:55:30.139Z</time></trkpt><trkpt lat="47.9192167" lon="-1.4192567"><ele>64.0</ele><time>2026-05-02T07:55:32.139Z</time></trkpt><trkpt lat="47.91924" lon="-1.4194"><ele>64.0</ele><time>2026-05-02T07:55:33.141Z</time></trkpt><trkpt lat="47.9192583" lon="-1.419555"><ele>64.0</ele><time>2026-05-02T07:55:34.139Z</time></trkpt><trkpt lat="47.9192733" lon="-1.419715"><ele>64.0</ele><time>2026-05-02T07:55:35.14Z</time></trkpt><trkpt lat="47.9192867" lon="-1.4198833"><ele>64.0</ele><time>2026-05-02T07:55:36.14Z</time></trkpt><trkpt lat="47.9193033" lon="-1.4200567"><ele>65.5</ele><time>2026-05-02T07:55:37.139Z</time></trkpt><trkpt lat="47.91932" lon="-1.4202367"><ele>67.0</ele><time>2026-05-02T07:55:38.139Z</time></trkpt><trkpt lat="47.9193417" lon="-1.4204233"><ele>68.5</ele><time>2026-05-02T07:55:39.139Z</time></trkpt><trkpt lat="47.919365" lon="-1.42061"><ele>70.0</ele><time>2026-05-02T07:55:40.139Z</time></trkpt><trkpt lat="47.9193867" lon="-1.420795"><ele>70.0</ele><time>2026-05-02T07:55:41.139Z</time></trkpt><trkpt lat="47.9194067" lon="-1.42098"><ele>70.0</ele><time>2026-05-02T07:55:42.139Z</time></trkpt><trkpt lat="47.9194283" lon="-1.42117"><ele>70.0</ele><time>2026-05-02T07:55:43.139Z</time></trkpt><trkpt lat="47.9194467" lon="-1.4213717"><ele>70.0</ele><time>2026-05-02T07:55:44.139Z</time></trkpt><trkpt lat="47.919465" lon="-1.42158"><ele>70.33333333333333</ele><time>2026-05-02T07:55:45.139Z</time></trkpt><trkpt lat="47.9194867" lon="-1.4218017"><ele>70.66666666666667</ele><time>2026-05-02T07:55:46.14Z</time></trkpt><trkpt lat="47.91951" lon="-1.4220283"><ele>71.0</ele><time>2026-05-02T07:55:47.139Z</time></trkpt><trkpt lat="47.9195383" lon="-1.4222533"><ele>70.5</ele><time>2026-05-02T07:55:48.139Z</time></trkpt><trkpt lat="47.919565" lon="-1.4224667"><ele>70.0</ele><time>2026-05-02T07:55:49.138Z</time></trkpt><trkpt lat="47.9195883" lon="-1.4226733"><ele>69.5</ele><time>2026-05-02T07:55:50.143Z</time></trkpt><trkpt lat="47.91961" lon="-1.4228683"><ele>69.0</ele><time>2026-05-02T07:55:51.139Z</time></trkpt><trkpt lat="47.9196317" lon="-1.4230617"><ele>69.0</ele><time>2026-05-02T07:55:52.139Z</time></trkpt><trkpt lat="47.9196533" lon="-1.4232583"><ele>69.0</ele><time>2026-05-02T07:55:53.139Z</time></trkpt><trkpt lat="47.9196767" lon="-1.4234583"><ele>69.0</ele><time>2026-05-02T07:55:54.138Z</time></trkpt><trkpt lat="47.9197" lon="-1.4236617"><ele>69.0</ele><time>2026-05-02T07:55:55.139Z</time></trkpt><trkpt lat="47.9197233" lon="-1.4238667"><ele>69.5</ele><time>2026-05-02T07:55:56.139Z</time></trkpt><trkpt lat="47.9197483" lon="-1.424075"><ele>70.0</ele><time>2026-05-02T07:55:57.14Z</time></trkpt><trkpt lat="47.919775" lon="-1.4242767"><ele>70.5</ele><time>2026-05-02T07:55:58.139Z</time></trkpt><trkpt lat="47.9198" lon="-1.4244767"><ele>71.0</ele><time>2026-05-02T07:55:59.138Z</time></trkpt><trkpt lat="47.9198233" lon="-1.4246783"><ele>71.0</ele><time>2026-05-02T07:56:00.139Z</time></trkpt><trkpt lat="47.9198483" lon="-1.42488"><ele>71.0</ele><time>2026-05-02T07:56:01.14Z</time></trkpt><trkpt lat="47.9198717" lon="-1.42508"><ele>71.0</ele><time>2026-05-02T07:56:02.139Z</time></trkpt><trkpt lat="47.9198933" lon="-1.4252783"><ele>71.0</ele><time>2026-05-02T07:56:03.139Z</time></trkpt><trkpt lat="47.9199133" lon="-1.4254667"><ele>70.6</ele><time>2026-05-02T07:56:04.139Z</time></trkpt><trkpt lat="47.91993" lon="-1.425645"><ele>70.19999999999999</ele><time>2026-05-02T07:56:05.139Z</time></trkpt><trkpt lat="47.919945" lon="-1.4258117"><ele>69.80000000000001</ele><time>2026-05-02T07:56:06.139Z</time></trkpt><trkpt lat="47.9199617" lon="-1.4259667"><ele>69.4</ele><time>2026-05-02T07:56:07.14Z</time></trkpt><trkpt lat="47.919985" lon="-1.4261233"><ele>69.0</ele><time>2026-05-02T07:56:08.139Z</time></trkpt><trkpt lat="47.9200083" lon="-1.4262817"><ele>69.25</ele><time>2026-05-02T07:56:09.139Z</time></trkpt><trkpt lat="47.92003" lon="-1.4264467"><ele>69.5</ele><time>2026-05-02T07:56:10.14Z</time></trkpt><trkpt lat="47.9200517" lon="-1.42662"><ele>69.75</ele><time>2026-05-02T07:56:11.141Z</time></trkpt><trkpt lat="47.9200717" lon="-1.4268"><ele>70.0</ele><time>2026-05-02T07:56:12.139Z</time></trkpt><trkpt lat="47.9200883" lon="-1.4269783"><ele>70.4</ele><time>2026-05-02T07:56:13.139Z</time></trkpt><trkpt lat="47.920105" lon="-1.4271483"><ele>70.8</ele><time>2026-05-02T07:56:14.14Z</time></trkpt><trkpt lat="47.9201283" lon="-1.4273033"><ele>71.2</ele><time>2026-05-02T07:56:15.142Z</time></trkpt><trkpt lat="47.9201483" lon="-1.4274533"><ele>71.6</ele><time>2026-05-02T07:56:16.139Z</time></trkpt><trkpt lat="47.9201683" lon="-1.4276067"><ele>72.0</ele><time>2026-05-02T07:56:17.139Z</time></trkpt><trkpt lat="47.92019" lon="-1.4277683"><ele>72.0</ele><time>2026-05-02T07:56:18.141Z</time></trkpt><trkpt lat="47.9202117" lon="-1.42793"><ele>72.0</ele><time>2026-05-02T07:56:19.139Z</time></trkpt><trkpt lat="47.92024" lon="-1.428085"><ele>72.0</ele><time>2026-05-02T07:56:20.139Z</time></trkpt><trkpt lat="47.920275" lon="-1.4282217"><ele>72.0</ele><time>2026-05-02T07:56:21.139Z</time></trkpt><trkpt lat="47.92032" lon="-1.4283433"><ele>72.0</ele><time>2026-05-02T07:56:22.139Z</time></trkpt><trkpt lat="47.92036" lon="-1.4284583"><ele>72.33333333333333</ele><time>2026-05-02T07:56:23.139Z</time></trkpt><trkpt lat="47.9203967" lon="-1.42857"><ele>72.66666666666667</ele><time>2026-05-02T07:56:24.139Z</time></trkpt><trkpt lat="47.92043" lon="-1.42869"><ele>73.0</ele><time>2026-05-02T07:56:25.139Z</time></trkpt><trkpt lat="47.920455" lon="-1.4288167"><ele>73.33333333333334</ele><time>2026-05-02T07:56:26.139Z</time></trkpt><trkpt lat="47.920475" lon="-1.42894"><ele>73.66666666666667</ele><time>2026-05-02T07:56:27.139Z</time></trkpt><trkpt lat="47.920495" lon="-1.4290567"><ele>74.0</ele><time>2026-05-02T07:56:28.139Z</time></trkpt><trkpt lat="47.9205117" lon="-1.4291783"><ele>74.16666666666667</ele><time>2026-05-02T07:56:29.14Z</time></trkpt><trkpt lat="47.920525" lon="-1.4293"><ele>74.33333333333334</ele><time>2026-05-02T07:56:30.14Z</time></trkpt><trkpt lat="47.9205383" lon="-1.4294183"><ele>74.5</ele><time>2026-05-02T07:56:31.139Z</time></trkpt><trkpt lat="47.9205517" lon="-1.4295367"><ele>74.66666666666667</ele><time>2026-05-02T07:56:32.141Z</time></trkpt><trkpt lat="47.9205683" lon="-1.429655"><ele>74.83333333333333</ele><time>2026-05-02T07:56:33.139Z</time></trkpt><trkpt lat="47.920585" lon="-1.429775"><ele>75.0</ele><time>2026-05-02T07:56:34.139Z</time></trkpt><trkpt lat="47.9205933" lon="-1.4298967"><ele>75.33333333333333</ele><time>2026-05-02T07:56:35.139Z</time></trkpt><trkpt lat="47.9205967" lon="-1.430015"><ele>75.66666666666667</ele><time>2026-05-02T07:56:36.139Z</time></trkpt><trkpt lat="47.9205967" lon="-1.430135"><ele>76.0</ele><time>2026-05-02T07:56:37.14Z</time></trkpt><trkpt lat="47.9206" lon="-1.4302583"><ele>76.33333333333334</ele><time>2026-05-02T07:56:38.139Z</time></trkpt><trkpt lat="47.9206" lon="-1.4303783"><ele>76.66666666666667</ele><time>2026-05-02T07:56:39.138Z</time></trkpt><trkpt lat="47.9205983" lon="-1.430495"><ele>77.0</ele><time>2026-05-02T07:56:40.139Z</time></trkpt><trkpt lat="47.9206" lon="-1.4306067"><ele>77.0</ele><time>2026-05-02T07:56:41.139Z</time></trkpt><trkpt lat="47.9205983" lon="-1.4307067"><ele>77.0</ele><time>2026-05-02T07:56:42.14Z</time></trkpt><trkpt lat="47.9205933" lon="-1.43087"><ele>77.0</ele><time>2026-05-02T07:56:44.139Z</time></trkpt><trkpt lat="47.920535" lon="-1.43101"><ele>77.0</ele><time>2026-05-02T07:56:46.14Z</time></trkpt><trkpt lat="47.9204683" lon="-1.4310433"><ele>77.0</ele><time>2026-05-02T07:56:47.139Z</time></trkpt><trkpt lat="47.9203883" lon="-1.43107"><ele>77.0</ele><time>2026-05-02T07:56:48.138Z</time></trkpt><trkpt lat="47.920295" lon="-1.4311083"><ele>77.0</ele><time>2026-05-02T07:56:49.139Z</time></trkpt><trkpt lat="47.9201883" lon="-1.4311567"><ele>77.0</ele><time>2026-05-02T07:56:50.139Z</time></trkpt><trkpt lat="47.92007" lon="-1.43122"><ele>77.0</ele><time>2026-05-02T07:56:51.139Z</time></trkpt><trkpt lat="47.9199467" lon="-1.43129"><ele>77.0</ele><time>2026-05-02T07:56:52.14Z</time></trkpt><trkpt lat="47.919825" lon="-1.43136"><ele>78.5</ele><time>2026-05-02T07:56:53.139Z</time></trkpt><trkpt lat="47.919705" lon="-1.43143"><ele>80.0</ele><time>2026-05-02T07:56:54.141Z</time></trkpt><trkpt lat="47.9195867" lon="-1.4315"><ele>81.5</ele><time>2026-05-02T07:56:55.139Z</time></trkpt><trkpt lat="47.91947" lon="-1.431565"><ele>83.0</ele><time>2026-05-02T07:56:56.139Z</time></trkpt><trkpt lat="47.9193667" lon="-1.4316233"><ele>83.0</ele><time>2026-05-02T07:56:57.139Z</time></trkpt><trkpt lat="47.9192717" lon="-1.4316783"><ele>83.0</ele><time>2026-05-02T07:56:58.139Z</time></trkpt><trkpt lat="47.91918" lon="-1.4317283"><ele>83.0</ele><time>2026-05-02T07:56:59.141Z</time></trkpt><trkpt lat="47.9190933" lon="-1.4317733"><ele>83.0</ele><time>2026-05-02T07:57:00.139Z</time></trkpt><trkpt lat="47.91902" lon="-1.43183"><ele>83.0</ele><time>2026-05-02T07:57:01.139Z</time></trkpt><trkpt lat="47.9189733" lon="-1.43191"><ele>83.0</ele><time>2026-05-02T07:57:02.139Z</time></trkpt><trkpt lat="47.9189533" lon="-1.4320067"><ele>83.4</ele><time>2026-05-02T07:57:03.14Z</time></trkpt><trkpt lat="47.918955" lon="-1.432115"><ele>83.80000000000001</ele><time>2026-05-02T07:57:04.139Z</time></trkpt><trkpt lat="47.9189717" lon="-1.4322383"><ele>84.2</ele><time>2026-05-02T07:57:05.14Z</time></trkpt><trkpt lat="47.919005" lon="-1.43239"><ele>84.6</ele><time>2026-05-02T07:57:06.14Z</time></trkpt><trkpt lat="47.9190483" lon="-1.4325683"><ele>85.0</ele><time>2026-05-02T07:57:07.138Z</time></trkpt><trkpt lat="47.9190983" lon="-1.4327667"><ele>85.0</ele><time>2026-05-02T07:57:08.139Z</time></trkpt><trkpt lat="47.919155" lon="-1.4329733"><ele>85.0</ele><time>2026-05-02T07:57:09.139Z</time></trkpt><trkpt lat="47.9192067" lon="-1.43318"><ele>85.0</ele><time>2026-05-02T07:57:10.139Z</time></trkpt><trkpt lat="47.919255" lon="-1.43339"><ele>85.0</ele><time>2026-05-02T07:57:11.139Z</time></trkpt><trkpt lat="47.9193033" lon="-1.4335933"><ele>85.0</ele><time>2026-05-02T07:57:12.14Z</time></trkpt><trkpt lat="47.91935" lon="-1.4337967"><ele>85.0</ele><time>2026-05-02T07:57:13.143Z</time></trkpt><trkpt lat="47.9193983" lon="-1.4339967"><ele>85.0</ele><time>2026-05-02T07:57:14.139Z</time></trkpt><trkpt lat="47.919445" lon="-1.4341967"><ele>85.0</ele><time>2026-05-02T07:57:15.139Z</time></trkpt><trkpt lat="47.9194883" lon="-1.4343933"><ele>85.0</ele><time>2026-05-02T07:57:16.139Z</time></trkpt><trkpt lat="47.9195333" lon="-1.4345933"><ele>85.0</ele><time>2026-05-02T07:57:17.139Z</time></trkpt><trkpt lat="47.91958" lon="-1.434795"><ele>85.0</ele><time>2026-05-02T07:57:18.138Z</time></trkpt><trkpt lat="47.91963" lon="-1.4350033"><ele>85.0</ele><time>2026-05-02T07:57:19.139Z</time></trkpt><trkpt lat="47.9196867" lon="-1.4352333"><ele>84.66666666666666</ele><time>2026-05-02T07:57:20.139Z</time></trkpt><trkpt lat="47.919745" lon="-1.4354783"><ele>84.33333333333333</ele><time>2026-05-02T07:57:21.139Z</time></trkpt><trkpt lat="47.919805" lon="-1.43574"><ele>84.0</ele><time>2026-05-02T07:57:22.139Z</time></trkpt><trkpt lat="47.919865" lon="-1.4359983"><ele>84.0</ele><time>2026-05-02T07:57:23.139Z</time></trkpt><trkpt lat="47.919925" lon="-1.4362383"><ele>84.0</ele><time>2026-05-02T07:57:24.14Z</time></trkpt><trkpt lat="47.91998" lon="-1.4364517"><ele>84.0</ele><time>2026-05-02T07:57:25.139Z</time></trkpt><trkpt lat="47.9200267" lon="-1.4366317"><ele>84.0</ele><time>2026-05-02T07:57:26.14Z</time></trkpt><trkpt lat="47.92006" lon="-1.4367867"><ele>84.0</ele><time>2026-05-02T07:57:27.139Z</time></trkpt><trkpt lat="47.9200717" lon="-1.4369133"><ele>84.0</ele><time>2026-05-02T07:57:28.138Z</time></trkpt><trkpt lat="47.9200617" lon="-1.4370283"><ele>84.0</ele><time>2026-05-02T07:57:29.139Z</time></trkpt><trkpt lat="47.9200133" lon="-1.4371067"><ele>84.0</ele><time>2026-05-02T07:57:30.139Z</time></trkpt><trkpt lat="47.9199517" lon="-1.4371617"><ele>84.0</ele><time>2026-05-02T07:57:31.139Z</time></trkpt><trkpt lat="47.9199" lon="-1.4372283"><ele>83.80000000000001</ele><time>2026-05-02T07:57:32.139Z</time></trkpt><trkpt lat="47.9198717" lon="-1.4373167"><ele>83.60000000000001</ele><time>2026-05-02T07:57:33.14Z</time></trkpt><trkpt lat="47.91987" lon="-1.4374233"><ele>83.4</ele><time>2026-05-02T07:57:34.139Z</time></trkpt><trkpt lat="47.9199" lon="-1.4375567"><ele>83.2</ele><time>2026-05-02T07:57:35.143Z</time></trkpt><trkpt lat="47.91995" lon="-1.4377067"><ele>83.0</ele><time>2026-05-02T07:57:36.139Z</time></trkpt><trkpt lat="47.9200117" lon="-1.4378833"><ele>82.66666666666667</ele><time>2026-05-02T07:57:37.141Z</time></trkpt><trkpt lat="47.9200783" lon="-1.4380833"><ele>82.33333333333333</ele><time>2026-05-02T07:57:38.139Z</time></trkpt><trkpt lat="47.92015" lon="-1.438295"><ele>82.0</ele><time>2026-05-02T07:57:39.138Z</time></trkpt><trkpt lat="47.9202217" lon="-1.4385233"><ele>82.0</ele><time>2026-05-02T07:57:40.139Z</time></trkpt><trkpt lat="47.9202883" lon="-1.4387817"><ele>82.0</ele><time>2026-05-02T07:57:41.144Z</time></trkpt><trkpt lat="47.9203583" lon="-1.43907"><ele>82.0</ele><time>2026-05-02T07:57:42.139Z</time></trkpt><trkpt lat="47.9204283" lon="-1.4393683"><ele>80.66666666666666</ele><time>2026-05-02T07:57:43.14Z</time></trkpt><trkpt lat="47.9205017" lon="-1.4396767"><ele>79.33333333333333</ele><time>2026-05-02T07:57:44.139Z</time></trkpt><trkpt lat="47.920575" lon="-1.4399883"><ele>78.0</ele><time>2026-05-02T07:57:45.14Z</time></trkpt><trkpt lat="47.9206467" lon="-1.440295"><ele>77.33333333333333</ele><time>2026-05-02T07:57:46.139Z</time></trkpt><trkpt lat="47.9207133" lon="-1.440585"><ele>76.66666666666666</ele><time>2026-05-02T07:57:47.139Z</time></trkpt><trkpt lat="47.92078" lon="-1.44086"><ele>76.0</ele><time>2026-05-02T07:57:48.138Z</time></trkpt><trkpt lat="47.9208467" lon="-1.4411233"><ele>75.66666666666666</ele><time>2026-05-02T07:57:49.139Z</time></trkpt><trkpt lat="47.9209067" lon="-1.4413733"><ele>75.33333333333333</ele><time>2026-05-02T07:57:50.139Z</time></trkpt><trkpt lat="47.9209583" lon="-1.44162"><ele>75.0</ele><time>2026-05-02T07:57:51.14Z</time></trkpt><trkpt lat="47.92099" lon="-1.4418833"><ele>74.66666666666667</ele><time>2026-05-02T07:57:52.14Z</time></trkpt><trkpt lat="47.9210067" lon="-1.4421733"><ele>74.33333333333334</ele><time>2026-05-02T07:57:53.139Z</time></trkpt><trkpt lat="47.921015" lon="-1.4424883"><ele>74.0</ele><time>2026-05-02T07:57:54.14Z</time></trkpt><trkpt lat="47.9210233" lon="-1.4428233"><ele>74.0</ele><time>2026-05-02T07:57:55.139Z</time></trkpt><trkpt lat="47.92103" lon="-1.44317"><ele>74.0</ele><time>2026-05-02T07:57:56.14Z</time></trkpt><trkpt lat="47.92104" lon="-1.44352"><ele>73.5</ele><time>2026-05-02T07:57:57.14Z</time></trkpt><trkpt lat="47.9210433" lon="-1.4438683"><ele>73.0</ele><time>2026-05-02T07:57:58.139Z</time></trkpt><trkpt lat="47.921045" lon="-1.4442183"><ele>73.0</ele><time>2026-05-02T07:57:59.139Z</time></trkpt><trkpt lat="47.9210417" lon="-1.444565"><ele>73.0</ele><time>2026-05-02T07:58:00.139Z</time></trkpt><trkpt lat="47.9210317" lon="-1.444915"><ele>73.5</ele><time>2026-05-02T07:58:01.139Z</time></trkpt><trkpt lat="47.9210133" lon="-1.4452633"><ele>74.0</ele><time>2026-05-02T07:58:02.139Z</time></trkpt><trkpt lat="47.9209867" lon="-1.44561"><ele>74.0</ele><time>2026-05-02T07:58:03.139Z</time></trkpt><trkpt lat="47.920965" lon="-1.44594"><ele>74.0</ele><time>2026-05-02T07:58:04.138Z</time></trkpt><trkpt lat="47.9209433" lon="-1.4462483"><ele>74.0</ele><time>2026-05-02T07:58:05.14Z</time></trkpt><trkpt lat="47.920925" lon="-1.446535"><ele>74.66666666666667</ele><time>2026-05-02T07:58:06.14Z</time></trkpt><trkpt lat="47.92091" lon="-1.4467983"><ele>75.33333333333333</ele><time>2026-05-02T07:58:07.141Z</time></trkpt><trkpt lat="47.92091" lon="-1.4470417"><ele>76.0</ele><time>2026-05-02T07:58:08.14Z</time></trkpt><trkpt lat="47.9209433" lon="-1.4472617"><ele>76.5</ele><time>2026-05-02T07:58:09.139Z</time></trkpt><trkpt lat="47.9210167" lon="-1.4474517"><ele>77.0</ele><time>2026-05-02T07:58:10.138Z</time></trkpt><trkpt lat="47.9211133" lon="-1.44762"><ele>77.5</ele><time>2026-05-02T07:58:11.14Z</time></trkpt><trkpt lat="47.9212117" lon="-1.4477767"><ele>78.0</ele><time>2026-05-02T07:58:12.14Z</time></trkpt><trkpt lat="47.9213" lon="-1.4479383"><ele>78.25</ele><time>2026-05-02T07:58:13.14Z</time></trkpt><trkpt lat="47.92137" lon="-1.4481217"><ele>78.5</ele><time>2026-05-02T07:58:14.139Z</time></trkpt><trkpt lat="47.9214117" lon="-1.4483217"><ele>78.75</ele><time>2026-05-02T07:58:15.139Z</time></trkpt><trkpt lat="47.9214233" lon="-1.4485383"><ele>79.0</ele><time>2026-05-02T07:58:16.139Z</time></trkpt><trkpt lat="47.9214167" lon="-1.4487767"><ele>80.0</ele><time>2026-05-02T07:58:17.139Z</time></trkpt><trkpt lat="47.9213933" lon="-1.4490283"><ele>81.0</ele><time>2026-05-02T07:58:18.142Z</time></trkpt><trkpt lat="47.9213633" lon="-1.449275"><ele>82.0</ele><time>2026-05-02T07:58:19.14Z</time></trkpt><trkpt lat="47.9213383" lon="-1.44951"><ele>81.66666666666666</ele><time>2026-05-02T07:58:20.139Z</time></trkpt><trkpt lat="47.9213333" lon="-1.449755"><ele>81.33333333333333</ele><time>2026-05-02T07:58:21.14Z</time></trkpt><trkpt lat="47.92136" lon="-1.4500117"><ele>81.0</ele><time>2026-05-02T07:58:22.14Z</time></trkpt><trkpt lat="47.9214233" lon="-1.450275"><ele>81.33333333333333</ele><time>2026-05-02T07:58:23.141Z</time></trkpt><trkpt lat="47.92151" lon="-1.450545"><ele>81.66666666666666</ele><time>2026-05-02T07:58:24.139Z</time></trkpt><trkpt lat="47.9216067" lon="-1.4508233"><ele>82.0</ele><time>2026-05-02T07:58:25.138Z</time></trkpt><trkpt lat="47.9217033" lon="-1.4511017"><ele>83.33333333333333</ele><time>2026-05-02T07:58:26.143Z</time></trkpt><trkpt lat="47.921785" lon="-1.45138"><ele>84.66666666666667</ele><time>2026-05-02T07:58:27.139Z</time></trkpt><trkpt lat="47.9218417" lon="-1.4516833"><ele>86.0</ele><time>2026-05-02T07:58:28.14Z</time></trkpt><trkpt lat="47.9218717" lon="-1.4520133"><ele>86.5</ele><time>2026-05-02T07:58:29.139Z</time></trkpt><trkpt lat="47.9218833" lon="-1.4523683"><ele>87.0</ele><time>2026-05-02T07:58:30.14Z</time></trkpt><trkpt lat="47.9218867" lon="-1.4527567"><ele>87.0</ele><time>2026-05-02T07:58:31.139Z</time></trkpt><trkpt lat="47.9219" lon="-1.45317"><ele>87.0</ele><time>2026-05-02T07:58:32.14Z</time></trkpt><trkpt lat="47.9219233" lon="-1.4535767"><ele>87.5</ele><time>2026-05-02T07:58:33.138Z</time></trkpt><trkpt lat="47.92196" lon="-1.4539567"><ele>88.0</ele><time>2026-05-02T07:58:34.14Z</time></trkpt><trkpt lat="47.9220033" lon="-1.45431"><ele>88.33333333333333</ele><time>2026-05-02T07:58:35.139Z</time></trkpt><trkpt lat="47.9220483" lon="-1.4546383"><ele>88.66666666666667</ele><time>2026-05-02T07:58:36.139Z</time></trkpt><trkpt lat="47.9220917" lon="-1.4549467"><ele>89.0</ele><time>2026-05-02T07:58:37.139Z</time></trkpt><trkpt lat="47.9221283" lon="-1.4552467"><ele>89.66666666666667</ele><time>2026-05-02T07:58:38.14Z</time></trkpt><trkpt lat="47.9221517" lon="-1.4555633"><ele>90.33333333333333</ele><time>2026-05-02T07:58:39.139Z</time></trkpt><trkpt lat="47.9221567" lon="-1.4559083"><ele>91.0</ele><time>2026-05-02T07:58:40.14Z</time></trkpt><trkpt lat="47.92216" lon="-1.45627"><ele>92.5</ele><time>2026-05-02T07:58:41.14Z</time></trkpt><trkpt lat="47.9221617" lon="-1.4566183"><ele>94.0</ele><time>2026-05-02T07:58:42.139Z</time></trkpt><trkpt lat="47.9221633" lon="-1.4569467"><ele>94.33333333333333</ele><time>2026-05-02T07:58:43.14Z</time></trkpt><trkpt lat="47.9221617" lon="-1.457265"><ele>94.66666666666667</ele><time>2026-05-02T07:58:44.139Z</time></trkpt><trkpt lat="47.9221617" lon="-1.4575767"><ele>95.0</ele><time>2026-05-02T07:58:45.14Z</time></trkpt><trkpt lat="47.9221667" lon="-1.4578933"><ele>95.66666666666667</ele><time>2026-05-02T07:58:46.139Z</time></trkpt><trkpt lat="47.9221683" lon="-1.45822"><ele>96.33333333333334</ele><time>2026-05-02T07:58:47.139Z</time></trkpt><trkpt lat="47.9221717" lon="-1.4585467"><ele>97.0</ele><time>2026-05-02T07:58:48.139Z</time></trkpt><trkpt lat="47.9221717" lon="-1.458855"><ele>97.33333333333334</ele><time>2026-05-02T07:58:49.141Z</time></trkpt><trkpt lat="47.9221717" lon="-1.4591433"><ele>97.66666666666666</ele><time>2026-05-02T07:58:50.141Z</time></trkpt><trkpt lat="47.922185" lon="-1.4594167"><ele>98.0</ele><time>2026-05-02T07:58:51.141Z</time></trkpt><trkpt lat="47.9222267" lon="-1.4596983"><ele>98.66666666666666</ele><time>2026-05-02T07:58:52.142Z</time></trkpt><trkpt lat="47.9222967" lon="-1.4599983"><ele>99.33333333333334</ele><time>2026-05-02T07:58:53.141Z</time></trkpt><trkpt lat="47.92239" lon="-1.46032"><ele>100.0</ele><time>2026-05-02T07:58:54.141Z</time></trkpt><trkpt lat="47.9224917" lon="-1.460635"><ele>99.66666666666667</ele><time>2026-05-02T07:58:55.14Z</time></trkpt><trkpt lat="47.92259" lon="-1.4609367"><ele>99.33333333333334</ele><time>2026-05-02T07:58:56.139Z</time></trkpt><trkpt lat="47.9226833" lon="-1.4612283"><ele>99.0</ele><time>2026-05-02T07:58:57.14Z</time></trkpt><trkpt lat="47.9227633" lon="-1.4615133"><ele>99.0</ele><time>2026-05-02T07:58:58.144Z</time></trkpt><trkpt lat="47.9228217" lon="-1.461785"><ele>99.0</ele><time>2026-05-02T07:58:59.139Z</time></trkpt><trkpt lat="47.9228567" lon="-1.4620583"><ele>99.0</ele><time>2026-05-02T07:59:00.139Z</time></trkpt><trkpt lat="47.9228783" lon="-1.4623467"><ele>99.66666666666666</ele><time>2026-05-02T07:59:01.139Z</time></trkpt><trkpt lat="47.9228867" lon="-1.4626583"><ele>100.33333333333333</ele><time>2026-05-02T07:59:02.139Z</time></trkpt><trkpt lat="47.9228867" lon="-1.4629767"><ele>101.0</ele><time>2026-05-02T07:59:03.14Z</time></trkpt><trkpt lat="47.9228867" lon="-1.4632767"><ele>101.33333333333333</ele><time>2026-05-02T07:59:04.141Z</time></trkpt><trkpt lat="47.922885" lon="-1.4635483"><ele>101.66666666666666</ele><time>2026-05-02T07:59:05.139Z</time></trkpt><trkpt lat="47.92288" lon="-1.4638"><ele>102.0</ele><time>2026-05-02T07:59:06.14Z</time></trkpt><trkpt lat="47.9228833" lon="-1.46403"><ele>102.0</ele><time>2026-05-02T07:59:07.142Z</time></trkpt><trkpt lat="47.9229067" lon="-1.4642367"><ele>102.0</ele><time>2026-05-02T07:59:08.141Z</time></trkpt><trkpt lat="47.9229483" lon="-1.4644283"><ele>102.0</ele><time>2026-05-02T07:59:09.139Z</time></trkpt><trkpt lat="47.9229883" lon="-1.4646217"><ele>102.0</ele><time>2026-05-02T07:59:10.14Z</time></trkpt><trkpt lat="47.92301" lon="-1.46484"><ele>101.33333333333334</ele><time>2026-05-02T07:59:11.139Z</time></trkpt><trkpt lat="47.9230017" lon="-1.465075"><ele>100.66666666666667</ele><time>2026-05-02T07:59:12.14Z</time></trkpt><trkpt lat="47.9229833" lon="-1.4653317"><ele>100.0</ele><time>2026-05-02T07:59:13.14Z</time></trkpt><trkpt lat="47.9229483" lon="-1.465605"><ele>99.66666666666667</ele><time>2026-05-02T07:59:14.141Z</time></trkpt><trkpt lat="47.92291" lon="-1.4658917"><ele>99.33333333333334</ele><time>2026-05-02T07:59:15.14Z</time></trkpt><trkpt lat="47.9228717" lon="-1.4661867"><ele>99.0</ele><time>2026-05-02T07:59:16.139Z</time></trkpt><trkpt lat="47.922835" lon="-1.46647"><ele>98.33333333333334</ele><time>2026-05-02T07:59:17.139Z</time></trkpt><trkpt lat="47.922795" lon="-1.4667233"><ele>97.66666666666667</ele><time>2026-05-02T07:59:18.14Z</time></trkpt><trkpt lat="47.9227467" lon="-1.46695"><ele>97.0</ele><time>2026-05-02T07:59:19.14Z</time></trkpt><trkpt lat="47.9226833" lon="-1.467165"><ele>97.33333333333334</ele><time>2026-05-02T07:59:20.14Z</time></trkpt><trkpt lat="47.9226133" lon="-1.4673817"><ele>97.66666666666666</ele><time>2026-05-02T07:59:21.141Z</time></trkpt><trkpt lat="47.922555" lon="-1.4676133"><ele>98.0</ele><time>2026-05-02T07:59:22.141Z</time></trkpt><trkpt lat="47.92252" lon="-1.46787"><ele>97.0</ele><time>2026-05-02T07:59:23.14Z</time></trkpt><trkpt lat="47.92251" lon="-1.4681467"><ele>96.0</ele><time>2026-05-02T07:59:24.14Z</time></trkpt><trkpt lat="47.922525" lon="-1.468445"><ele>95.0</ele><time>2026-05-02T07:59:25.141Z</time></trkpt><trkpt lat="47.9225633" lon="-1.4687583"><ele>93.66666666666667</ele><time>2026-05-02T07:59:26.139Z</time></trkpt><trkpt lat="47.922625" lon="-1.4690733"><ele>92.33333333333333</ele><time>2026-05-02T07:59:27.14Z</time></trkpt><trkpt lat="47.9226983" lon="-1.4693817"><ele>91.0</ele><time>2026-05-02T07:59:28.139Z</time></trkpt><trkpt lat="47.9227733" lon="-1.4696817"><ele>91.0</ele><time>2026-05-02T07:59:29.14Z</time></trkpt><trkpt lat="47.9228433" lon="-1.4699733"><ele>91.0</ele><time>2026-05-02T07:59:30.139Z</time></trkpt><trkpt lat="47.92291" lon="-1.4702517"><ele>91.0</ele><time>2026-05-02T07:59:31.139Z</time></trkpt><trkpt lat="47.9229733" lon="-1.470515"><ele>90.66666666666666</ele><time>2026-05-02T07:59:32.14Z</time></trkpt><trkpt lat="47.9230383" lon="-1.4707683"><ele>90.33333333333333</ele><time>2026-05-02T07:59:33.139Z</time></trkpt><trkpt lat="47.9231117" lon="-1.47103"><ele>90.0</ele><time>2026-05-02T07:59:34.14Z</time></trkpt><trkpt lat="47.9232" lon="-1.4713117"><ele>90.0</ele><time>2026-05-02T07:59:35.139Z</time></trkpt><trkpt lat="47.9233" lon="-1.4716183"><ele>90.0</ele><time>2026-05-02T07:59:36.14Z</time></trkpt><trkpt lat="47.9234017" lon="-1.4719367"><ele>89.5</ele><time>2026-05-02T07:59:37.141Z</time></trkpt><trkpt lat="47.9235" lon="-1.4722483"><ele>89.0</ele><time>2026-05-02T07:59:38.143Z</time></trkpt><trkpt lat="47.9235983" lon="-1.4725567"><ele>89.0</ele><time>2026-05-02T07:59:39.141Z</time></trkpt><trkpt lat="47.923695" lon="-1.4728617"><ele>89.0</ele><time>2026-05-02T07:59:40.14Z</time></trkpt><trkpt lat="47.9237933" lon="-1.473165"><ele>89.0</ele><time>2026-05-02T07:59:41.14Z</time></trkpt><trkpt lat="47.92389" lon="-1.4734617"><ele>89.0</ele><time>2026-05-02T07:59:42.139Z</time></trkpt><trkpt lat="47.9239833" lon="-1.4737417"><ele>89.0</ele><time>2026-05-02T07:59:43.139Z</time></trkpt><trkpt lat="47.9240717" lon="-1.473985"><ele>88.75</ele><time>2026-05-02T07:59:44.14Z</time></trkpt><trkpt lat="47.924155" lon="-1.4741883"><ele>88.5</ele><time>2026-05-02T07:59:45.141Z</time></trkpt><trkpt lat="47.92423" lon="-1.4743367"><ele>88.25</ele><time>2026-05-02T07:59:46.139Z</time></trkpt><trkpt lat="47.9242883" lon="-1.4744467"><ele>88.0</ele><time>2026-05-02T07:59:47.14Z</time></trkpt><trkpt lat="47.924325" lon="-1.4745433"><ele>88.60000000000001</ele><time>2026-05-02T07:59:48.142Z</time></trkpt><trkpt lat="47.9243483" lon="-1.474665"><ele>89.2</ele><time>2026-05-02T07:59:50.141Z</time></trkpt><trkpt lat="47.9243633" lon="-1.4748017"><ele>89.8</ele><time>2026-05-02T07:59:54.141Z</time></trkpt><trkpt lat="47.9243933" lon="-1.4749867"><ele>90.4</ele><time>2026-05-02T07:59:56.14Z</time></trkpt><trkpt lat="47.92442" lon="-1.4751167"><ele>91.0</ele><time>2026-05-02T07:59:57.14Z</time></trkpt><trkpt lat="47.9244517" lon="-1.4752817"><ele>91.75</ele><time>2026-05-02T07:59:58.139Z</time></trkpt><trkpt lat="47.9244867" lon="-1.4754667"><ele>92.5</ele><time>2026-05-02T07:59:59.142Z</time></trkpt><trkpt lat="47.9245283" lon="-1.475675"><ele>93.25</ele><time>2026-05-02T08:00:00.141Z</time></trkpt><trkpt lat="47.9245783" lon="-1.475915"><ele>94.0</ele><time>2026-05-02T08:00:01.14Z</time></trkpt><trkpt lat="47.9246283" lon="-1.4761783"><ele>94.33333333333333</ele><time>2026-05-02T08:00:02.141Z</time></trkpt><trkpt lat="47.924685" lon="-1.47646"><ele>94.66666666666667</ele><time>2026-05-02T08:00:03.141Z</time></trkpt><trkpt lat="47.9247467" lon="-1.47676"><ele>95.0</ele><time>2026-05-02T08:00:04.142Z</time></trkpt><trkpt lat="47.9248" lon="-1.4770417"><ele>94.33333333333334</ele><time>2026-05-02T08:00:05.14Z</time></trkpt><trkpt lat="47.9248483" lon="-1.4773083"><ele>93.66666666666667</ele><time>2026-05-02T08:00:06.141Z</time></trkpt><trkpt lat="47.924895" lon="-1.477545"><ele>93.0</ele><time>2026-05-02T08:00:07.141Z</time></trkpt><trkpt lat="47.9249367" lon="-1.4777517"><ele>93.0</ele><time>2026-05-02T08:00:08.141Z</time></trkpt><trkpt lat="47.9249733" lon="-1.4779217"><ele>93.0</ele><time>2026-05-02T08:00:09.14Z</time></trkpt><trkpt lat="47.9250033" lon="-1.47806"><ele>93.0</ele><time>2026-05-02T08:00:10.141Z</time></trkpt><trkpt lat="47.925025" lon="-1.4781733"><ele>93.0</ele><time>2026-05-02T08:00:11.142Z</time></trkpt><trkpt lat="47.9250333" lon="-1.478325"><ele>93.0</ele><time>2026-05-02T08:00:13.139Z</time></trkpt><trkpt lat="47.92498" lon="-1.4784"><ele>93.0</ele><time>2026-05-02T08:00:15.141Z</time></trkpt><trkpt lat="47.9248617" lon="-1.478435"><ele>93.0</ele><time>2026-05-02T08:00:17.139Z</time></trkpt><trkpt lat="47.9247833" lon="-1.4784533"><ele>93.0</ele><time>2026-05-02T08:00:18.14Z</time></trkpt><trkpt lat="47.9247" lon="-1.47847"><ele>93.0</ele><time>2026-05-02T08:00:19.143Z</time></trkpt><trkpt lat="47.9246167" lon="-1.4784867"><ele>93.0</ele><time>2026-05-02T08:00:20.141Z</time></trkpt><trkpt lat="47.9245333" lon="-1.4785017"><ele>93.0</ele><time>2026-05-02T08:00:21.141Z</time></trkpt><trkpt lat="47.9244583" lon="-1.47852"><ele>93.0</ele><time>2026-05-02T08:00:22.141Z</time></trkpt><trkpt lat="47.92439" lon="-1.478535"><ele>93.0</ele><time>2026-05-02T08:00:23.141Z</time></trkpt><trkpt lat="47.92428" lon="-1.4785583"><ele>93.0</ele><time>2026-05-02T08:00:25.14Z</time></trkpt><trkpt lat="47.92419" lon="-1.478575"><ele>93.0</ele><time>2026-05-02T08:00:27.139Z</time></trkpt><trkpt lat="47.9240983" lon="-1.4785967"><ele>93.0</ele><time>2026-05-02T08:00:29.14Z</time></trkpt><trkpt lat="47.9239933" lon="-1.4786183"><ele>92.5</ele><time>2026-05-02T08:00:31.14Z</time></trkpt><trkpt lat="47.9239283" lon="-1.478635"><ele>92.0</ele><time>2026-05-02T08:00:32.142Z</time></trkpt><trkpt lat="47.9238517" lon="-1.4786533"><ele>91.5</ele><time>2026-05-02T08:00:33.142Z</time></trkpt><trkpt lat="47.923765" lon="-1.478675"><ele>91.0</ele><time>2026-05-02T08:00:34.141Z</time></trkpt><trkpt lat="47.9236717" lon="-1.4786967"><ele>90.5</ele><time>2026-05-02T08:00:35.14Z</time></trkpt><trkpt lat="47.9235733" lon="-1.4787183"><ele>90.0</ele><time>2026-05-02T08:00:36.141Z</time></trkpt><trkpt lat="47.9234733" lon="-1.47874"><ele>89.2</ele><time>2026-05-02T08:00:37.141Z</time></trkpt><trkpt lat="47.92337" lon="-1.4787617"><ele>88.4</ele><time>2026-05-02T08:00:38.14Z</time></trkpt><trkpt lat="47.9232633" lon="-1.4787867"><ele>87.6</ele><time>2026-05-02T08:00:39.14Z</time></trkpt><trkpt lat="47.923155" lon="-1.4788117"><ele>86.8</ele><time>2026-05-02T08:00:40.14Z</time></trkpt><trkpt lat="47.923045" lon="-1.4788367"><ele>86.0</ele><time>2026-05-02T08:00:41.14Z</time></trkpt><trkpt lat="47.9229317" lon="-1.4788617"><ele>85.8</ele><time>2026-05-02T08:00:42.141Z</time></trkpt><trkpt lat="47.9228217" lon="-1.4788883"><ele>85.6</ele><time>2026-05-02T08:00:43.14Z</time></trkpt><trkpt lat="47.9227083" lon="-1.4789133"><ele>85.4</ele><time>2026-05-02T08:00:44.14Z</time></trkpt><trkpt lat="47.9226" lon="-1.4789383"><ele>85.2</ele><time>2026-05-02T08:00:45.14Z</time></trkpt><trkpt lat="47.9224883" lon="-1.4789583"><ele>85.0</ele><time>2026-05-02T08:00:46.139Z</time></trkpt><trkpt lat="47.92238" lon="-1.4789817"><ele>84.6</ele><time>2026-05-02T08:00:47.14Z</time></trkpt><trkpt lat="47.9222717" lon="-1.479005"><ele>84.2</ele><time>2026-05-02T08:00:48.142Z</time></trkpt><trkpt lat="47.922165" lon="-1.47903"><ele>83.80000000000001</ele><time>2026-05-02T08:00:49.141Z</time></trkpt><trkpt lat="47.9220567" lon="-1.479055"><ele>83.4</ele><time>2026-05-02T08:00:50.141Z</time></trkpt><trkpt lat="47.9219483" lon="-1.4790817"><ele>83.0</ele><time>2026-05-02T08:00:51.141Z</time></trkpt><trkpt lat="47.921835" lon="-1.4791083"><ele>82.75</ele><time>2026-05-02T08:00:52.141Z</time></trkpt><trkpt lat="47.9217183" lon="-1.4791333"><ele>82.5</ele><time>2026-05-02T08:00:53.14Z</time></trkpt><trkpt lat="47.9216017" lon="-1.47916"><ele>82.25</ele><time>2026-05-02T08:00:54.141Z</time></trkpt><trkpt lat="47.9214867" lon="-1.479185"><ele>82.0</ele><time>2026-05-02T08:00:55.141Z</time></trkpt><trkpt lat="47.92137" lon="-1.47921"><ele>82.0</ele><time>2026-05-02T08:00:56.14Z</time></trkpt><trkpt lat="47.921255" lon="-1.4792367"><ele>82.0</ele><time>2026-05-02T08:00:57.14Z</time></trkpt><trkpt lat="47.92114" lon="-1.4792617"><ele>82.0</ele><time>2026-05-02T08:00:58.139Z</time></trkpt><trkpt lat="47.9210183" lon="-1.4792883"><ele>82.0</ele><time>2026-05-02T08:00:59.142Z</time></trkpt><trkpt lat="47.9208917" lon="-1.4793167"><ele>82.25</ele><time>2026-05-02T08:01:00.139Z</time></trkpt><trkpt lat="47.920761" lon="-1.4793467"><ele>82.5</ele><time>2026-05-02T08:01:01.14Z</time></trkpt><trkpt lat="47.9206225" lon="-1.4793764"><ele>82.75</ele><time>2026-05-02T08:01:02.14Z</time></trkpt><trkpt lat="47.9204818" lon="-1.4794087"><ele>83.0</ele><time>2026-05-02T08:01:03.139Z</time></trkpt><trkpt lat="47.9203429" lon="-1.4794405"><ele>83.0</ele><time>2026-05-02T08:01:04.14Z</time></trkpt><trkpt lat="47.920204" lon="-1.4794712"><ele>83.0</ele><time>2026-05-02T08:01:05.139Z</time></trkpt><trkpt lat="47.92006" lon="-1.4795051"><ele>83.0</ele><time>2026-05-02T08:01:06.14Z</time></trkpt><trkpt lat="47.919914" lon="-1.4795396"><ele>83.0</ele><time>2026-05-02T08:01:07.14Z</time></trkpt><trkpt lat="47.9197669" lon="-1.4795725"><ele>83.5</ele><time>2026-05-02T08:01:08.139Z</time></trkpt><trkpt lat="47.919623" lon="-1.4796055"><ele>84.0</ele><time>2026-05-02T08:01:09.14Z</time></trkpt><trkpt lat="47.919484" lon="-1.4796362"><ele>84.5</ele><time>2026-05-02T08:01:10.144Z</time></trkpt><trkpt lat="47.9193465" lon="-1.4796673"><ele>85.0</ele><time>2026-05-02T08:01:11.139Z</time></trkpt><trkpt lat="47.9192073" lon="-1.4796976"><ele>86.0</ele><time>2026-05-02T08:01:12.139Z</time></trkpt><trkpt lat="47.9190668" lon="-1.4797303"><ele>87.0</ele><time>2026-05-02T08:01:13.139Z</time></trkpt><trkpt lat="47.9189241" lon="-1.4797632"><ele>88.0</ele><time>2026-05-02T08:01:14.141Z</time></trkpt><trkpt lat="47.9187812" lon="-1.4797935"><ele>89.0</ele><time>2026-05-02T08:01:15.141Z</time></trkpt><trkpt lat="47.9186342" lon="-1.4798269"><ele>89.0</ele><time>2026-05-02T08:01:16.139Z</time></trkpt><trkpt lat="47.9184856" lon="-1.4798593"><ele>89.0</ele><time>2026-05-02T08:01:17.139Z</time></trkpt><trkpt lat="47.9183352" lon="-1.4798925"><ele>89.0</ele><time>2026-05-02T08:01:18.14Z</time></trkpt><trkpt lat="47.9181833" lon="-1.4799282"><ele>89.33333333333334</ele><time>2026-05-02T08:01:19.141Z</time></trkpt><trkpt lat="47.918031" lon="-1.4799647"><ele>89.66666666666667</ele><time>2026-05-02T08:01:20.14Z</time></trkpt><trkpt lat="47.9178766" lon="-1.4800003"><ele>90.0</ele><time>2026-05-02T08:01:21.14Z</time></trkpt><trkpt lat="47.9177241" lon="-1.4800354"><ele>90.0</ele><time>2026-05-02T08:01:22.142Z</time></trkpt><trkpt lat="47.9175738" lon="-1.4800692"><ele>90.0</ele><time>2026-05-02T08:01:23.14Z</time></trkpt><trkpt lat="47.9174228" lon="-1.4801038"><ele>90.0</ele><time>2026-05-02T08:01:24.14Z</time></trkpt><trkpt lat="47.917281" lon="-1.4801361"><ele>90.0</ele><time>2026-05-02T08:01:25.14Z</time></trkpt><trkpt lat="47.9171467" lon="-1.4801683"><ele>90.5</ele><time>2026-05-02T08:01:26.14Z</time></trkpt><trkpt lat="47.9170136" lon="-1.4802013"><ele>91.0</ele><time>2026-05-02T08:01:27.141Z</time></trkpt><trkpt lat="47.9168862" lon="-1.4802284"><ele>91.5</ele><time>2026-05-02T08:01:28.139Z</time></trkpt><trkpt lat="47.916765" lon="-1.4802471"><ele>92.0</ele><time>2026-05-02T08:01:29.139Z</time></trkpt><trkpt lat="47.9166529" lon="-1.480244"><ele>92.0</ele><time>2026-05-02T08:01:30.14Z</time></trkpt><trkpt lat="47.9165356" lon="-1.4802187"><ele>92.0</ele><time>2026-05-02T08:01:31.14Z</time></trkpt><trkpt lat="47.916407" lon="-1.4801821"><ele>92.0</ele><time>2026-05-02T08:01:32.14Z</time></trkpt><trkpt lat="47.9162587" lon="-1.4801359"><ele>92.0</ele><time>2026-05-02T08:01:33.139Z</time></trkpt><trkpt lat="47.9161005" lon="-1.4800866"><ele>92.0</ele><time>2026-05-02T08:01:34.139Z</time></trkpt><trkpt lat="47.9159524" lon="-1.4800407"><ele>92.0</ele><time>2026-05-02T08:01:35.138Z</time></trkpt><trkpt lat="47.9158197" lon="-1.4799992"><ele>92.0</ele><time>2026-05-02T08:01:36.14Z</time></trkpt><trkpt lat="47.9157061" lon="-1.4799613"><ele>92.0</ele><time>2026-05-02T08:01:37.139Z</time></trkpt><trkpt lat="47.9156064" lon="-1.4799325"><ele>92.39999999999999</ele><time>2026-05-02T08:01:38.139Z</time></trkpt><trkpt lat="47.9155163" lon="-1.4799038"><ele>92.8</ele><time>2026-05-02T08:01:39.14Z</time></trkpt><trkpt lat="47.9154372" lon="-1.4798765"><ele>93.2</ele><time>2026-05-02T08:01:40.139Z</time></trkpt><trkpt lat="47.9153706" lon="-1.4798536"><ele>93.6</ele><time>2026-05-02T08:01:41.138Z</time></trkpt><trkpt lat="47.9152641" lon="-1.4798533"><ele>94.0</ele><time>2026-05-02T08:01:43.139Z</time></trkpt><trkpt lat="47.9151659" lon="-1.4799597"><ele>94.0</ele><time>2026-05-02T08:01:45.141Z</time></trkpt><trkpt lat="47.9151055" lon="-1.4800571"><ele>94.0</ele><time>2026-05-02T08:01:46.142Z</time></trkpt><trkpt lat="47.9150297" lon="-1.4801867"><ele>94.0</ele><time>2026-05-02T08:01:47.14Z</time></trkpt><trkpt lat="47.9149349" lon="-1.4803493"><ele>94.0</ele><time>2026-05-02T08:01:48.14Z</time></trkpt><trkpt lat="47.9148167" lon="-1.4805433"><ele>94.33333333333333</ele><time>2026-05-02T08:01:49.141Z</time></trkpt><trkpt lat="47.9146917" lon="-1.48074"><ele>94.66666666666667</ele><time>2026-05-02T08:01:50.14Z</time></trkpt><trkpt lat="47.914565" lon="-1.4809417"><ele>95.0</ele><time>2026-05-02T08:01:51.14Z</time></trkpt><trkpt lat="47.9144367" lon="-1.481145"><ele>95.0</ele><time>2026-05-02T08:01:52.14Z</time></trkpt><trkpt lat="47.9143083" lon="-1.4813483"><ele>95.0</ele><time>2026-05-02T08:01:53.143Z</time></trkpt><trkpt lat="47.91418" lon="-1.481555"><ele>95.0</ele><time>2026-05-02T08:01:54.141Z</time></trkpt><trkpt lat="47.9140567" lon="-1.4817717"><ele>95.33333333333334</ele><time>2026-05-02T08:01:55.144Z</time></trkpt><trkpt lat="47.913955" lon="-1.4820017"><ele>95.66666666666667</ele><time>2026-05-02T08:01:56.141Z</time></trkpt><trkpt lat="47.9138717" lon="-1.4822333"><ele>96.0</ele><time>2026-05-02T08:01:57.14Z</time></trkpt><trkpt lat="47.9138" lon="-1.482455"><ele>96.0</ele><time>2026-05-02T08:01:58.14Z</time></trkpt><trkpt lat="47.9137367" lon="-1.482655"><ele>96.0</ele><time>2026-05-02T08:01:59.14Z</time></trkpt><trkpt lat="47.9136783" lon="-1.482835"><ele>96.0</ele><time>2026-05-02T08:02:00.14Z</time></trkpt><trkpt lat="47.913625" lon="-1.48299"><ele>96.0</ele><time>2026-05-02T08:02:01.141Z</time></trkpt><trkpt lat="47.91358" lon="-1.48312"><ele>96.33333333333333</ele><time>2026-05-02T08:02:02.14Z</time></trkpt><trkpt lat="47.9135483" lon="-1.4832167"><ele>96.66666666666666</ele><time>2026-05-02T08:02:03.141Z</time></trkpt><trkpt lat="47.9135033" lon="-1.483335"><ele>97.0</ele><time>2026-05-02T08:02:05.139Z</time></trkpt><trkpt lat="47.9134617" lon="-1.48344"><ele>97.33333333333333</ele><time>2026-05-02T08:02:09.142Z</time></trkpt><trkpt lat="47.9133817" lon="-1.4835617"><ele>97.66666666666666</ele><time>2026-05-02T08:02:11.139Z</time></trkpt><trkpt lat="47.91332" lon="-1.48365"><ele>98.0</ele><time>2026-05-02T08:02:12.14Z</time></trkpt><trkpt lat="47.9132467" lon="-1.4837567"><ele>98.0</ele><time>2026-05-02T08:02:13.139Z</time></trkpt><trkpt lat="47.9131583" lon="-1.48388"><ele>98.0</ele><time>2026-05-02T08:02:14.138Z</time></trkpt><trkpt lat="47.91306" lon="-1.4840183"><ele>98.0</ele><time>2026-05-02T08:02:15.143Z</time></trkpt><trkpt lat="47.912955" lon="-1.4841717"><ele>98.0</ele><time>2026-05-02T08:02:16.141Z</time></trkpt><trkpt lat="47.9128467" lon="-1.4843333"><ele>98.0</ele><time>2026-05-02T08:02:17.14Z</time></trkpt><trkpt lat="47.9127317" lon="-1.4845067"><ele>98.0</ele><time>2026-05-02T08:02:18.141Z</time></trkpt><trkpt lat="47.9126133" lon="-1.4846833"><ele>98.0</ele><time>2026-05-02T08:02:19.141Z</time></trkpt><trkpt lat="47.9124917" lon="-1.4848683"><ele>99.33333333333333</ele><time>2026-05-02T08:02:20.139Z</time></trkpt><trkpt lat="47.9123633" lon="-1.4850567"><ele>100.66666666666666</ele><time>2026-05-02T08:02:21.14Z</time></trkpt><trkpt lat="47.9122383" lon="-1.48524"><ele>102.0</ele><time>2026-05-02T08:02:22.14Z</time></trkpt><trkpt lat="47.9121167" lon="-1.4854167"><ele>102.66666666666666</ele><time>2026-05-02T08:02:23.14Z</time></trkpt><trkpt lat="47.912" lon="-1.4855933"><ele>103.33333333333333</ele><time>2026-05-02T08:02:24.141Z</time></trkpt><trkpt lat="47.9118917" lon="-1.48578"><ele>104.0</ele><time>2026-05-02T08:02:25.139Z</time></trkpt><trkpt lat="47.9117933" lon="-1.485985"><ele>105.33333333333333</ele><time>2026-05-02T08:02:26.139Z</time></trkpt><trkpt lat="47.9117133" lon="-1.4862167"><ele>106.66666666666666</ele><time>2026-05-02T08:02:27.139Z</time></trkpt><trkpt lat="47.9116433" lon="-1.4864683"><ele>108.0</ele><time>2026-05-02T08:02:28.139Z</time></trkpt><trkpt lat="47.9115783" lon="-1.4867283"><ele>108.0</ele><time>2026-05-02T08:02:29.141Z</time></trkpt><trkpt lat="47.911515" lon="-1.4869917"><ele>108.0</ele><time>2026-05-02T08:02:30.139Z</time></trkpt><trkpt lat="47.9114467" lon="-1.487265"><ele>108.0</ele><time>2026-05-02T08:02:31.14Z</time></trkpt><trkpt lat="47.91138" lon="-1.487545"><ele>108.66666666666666</ele><time>2026-05-02T08:02:32.14Z</time></trkpt><trkpt lat="47.9113233" lon="-1.4878217"><ele>109.33333333333333</ele><time>2026-05-02T08:02:33.141Z</time></trkpt><trkpt lat="47.9112917" lon="-1.4881167"><ele>110.0</ele><time>2026-05-02T08:02:34.14Z</time></trkpt><trkpt lat="47.9112833" lon="-1.48841"><ele>109.66666666666666</ele><time>2026-05-02T08:02:35.14Z</time></trkpt><trkpt lat="47.9113067" lon="-1.4887133"><ele>109.33333333333334</ele><time>2026-05-02T08:02:36.14Z</time></trkpt><trkpt lat="47.9113367" lon="-1.48902"><ele>109.0</ele><time>2026-05-02T08:02:37.14Z</time></trkpt><trkpt lat="47.9113717" lon="-1.4893433"><ele>107.5</ele><time>2026-05-02T08:02:38.139Z</time></trkpt><trkpt lat="47.9114117" lon="-1.4896767"><ele>106.0</ele><time>2026-05-02T08:02:39.139Z</time></trkpt><trkpt lat="47.911445" lon="-1.49003"><ele>106.0</ele><time>2026-05-02T08:02:40.139Z</time></trkpt><trkpt lat="47.9114783" lon="-1.4904"><ele>106.0</ele><time>2026-05-02T08:02:41.139Z</time></trkpt><trkpt lat="47.9115167" lon="-1.4907733"><ele>107.0</ele><time>2026-05-02T08:02:42.139Z</time></trkpt><trkpt lat="47.911555" lon="-1.4911483"><ele>108.0</ele><time>2026-05-02T08:02:43.14Z</time></trkpt><trkpt lat="47.9115933" lon="-1.4915183"><ele>108.0</ele><time>2026-05-02T08:02:44.14Z</time></trkpt><trkpt lat="47.9116317" lon="-1.49189"><ele>108.0</ele><time>2026-05-02T08:02:45.14Z</time></trkpt><trkpt lat="47.91167" lon="-1.49227"><ele>108.0</ele><time>2026-05-02T08:02:46.139Z</time></trkpt><trkpt lat="47.91171" lon="-1.4926533"><ele>108.0</ele><time>2026-05-02T08:02:47.138Z</time></trkpt><trkpt lat="47.9117533" lon="-1.493045"><ele>107.0</ele><time>2026-05-02T08:02:48.139Z</time></trkpt><trkpt lat="47.9117967" lon="-1.4934517"><ele>106.0</ele><time>2026-05-02T08:02:49.139Z</time></trkpt><trkpt lat="47.9118417" lon="-1.493875"><ele>106.0</ele><time>2026-05-02T08:02:50.139Z</time></trkpt><trkpt lat="47.91189" lon="-1.4943133"><ele>106.0</ele><time>2026-05-02T08:02:51.139Z</time></trkpt><trkpt lat="47.9119367" lon="-1.4947433"><ele>106.0</ele><time>2026-05-02T08:02:52.14Z</time></trkpt><trkpt lat="47.9119817" lon="-1.4951567"><ele>106.0</ele><time>2026-05-02T08:02:53.14Z</time></trkpt><trkpt lat="47.912025" lon="-1.4955517"><ele>107.0</ele><time>2026-05-02T08:02:54.139Z</time></trkpt><trkpt lat="47.9120683" lon="-1.495925"><ele>108.0</ele><time>2026-05-02T08:02:55.14Z</time></trkpt><trkpt lat="47.9121017" lon="-1.49628"><ele>108.5</ele><time>2026-05-02T08:02:56.14Z</time></trkpt><trkpt lat="47.9121317" lon="-1.496625"><ele>109.0</ele><time>2026-05-02T08:02:57.139Z</time></trkpt><trkpt lat="47.9121617" lon="-1.4969533"><ele>108.33333333333334</ele><time>2026-05-02T08:02:58.139Z</time></trkpt><trkpt lat="47.9122" lon="-1.4972667"><ele>107.66666666666666</ele><time>2026-05-02T08:02:59.138Z</time></trkpt><trkpt lat="47.9122583" lon="-1.4975633"><ele>107.0</ele><time>2026-05-02T08:03:00.138Z</time></trkpt><trkpt lat="47.912335" lon="-1.4978367"><ele>107.33333333333333</ele><time>2026-05-02T08:03:01.14Z</time></trkpt><trkpt lat="47.9124167" lon="-1.4980917"><ele>107.66666666666666</ele><time>2026-05-02T08:03:02.143Z</time></trkpt><trkpt lat="47.9124983" lon="-1.4983267"><ele>108.0</ele><time>2026-05-02T08:03:03.14Z</time></trkpt><trkpt lat="47.91257" lon="-1.4985383"><ele>108.0</ele><time>2026-05-02T08:03:04.14Z</time></trkpt><trkpt lat="47.912635" lon="-1.4987217"><ele>108.00000000000001</ele><time>2026-05-02T08:03:05.141Z</time></trkpt><trkpt lat="47.9126917" lon="-1.498875"><ele>108.00000000000001</ele><time>2026-05-02T08:03:06.141Z</time></trkpt><trkpt lat="47.91274" lon="-1.499005"><ele>108.0</ele><time>2026-05-02T08:03:07.141Z</time></trkpt><trkpt lat="47.91278" lon="-1.4991117"><ele>108.0</ele><time>2026-05-02T08:03:08.141Z</time></trkpt><trkpt lat="47.9128133" lon="-1.499195"><ele>107.80000000000001</ele><time>2026-05-02T08:03:09.14Z</time></trkpt><trkpt lat="47.912865" lon="-1.4993067"><ele>107.60000000000001</ele><time>2026-05-02T08:03:11.14Z</time></trkpt><trkpt lat="47.9129483" lon="-1.49941"><ele>107.39999999999999</ele><time>2026-05-02T08:03:13.14Z</time></trkpt><trkpt lat="47.9130167" lon="-1.4994533"><ele>107.19999999999999</ele><time>2026-05-02T08:03:14.141Z</time></trkpt><trkpt lat="47.9131067" lon="-1.4994867"><ele>107.0</ele><time>2026-05-02T08:03:15.14Z</time></trkpt><trkpt lat="47.91321" lon="-1.4995233"><ele>107.0</ele><time>2026-05-02T08:03:16.139Z</time></trkpt><trkpt lat="47.913315" lon="-1.4995683"><ele>106.99999999999999</ele><time>2026-05-02T08:03:17.139Z</time></trkpt><trkpt lat="47.913405" lon="-1.4996083"><ele>106.99999999999999</ele><time>2026-05-02T08:03:18.139Z</time></trkpt><trkpt lat="47.9134717" lon="-1.4996517"><ele>107.0</ele><time>2026-05-02T08:03:19.139Z</time></trkpt><trkpt lat="47.91352" lon="-1.4997983"><ele>107.0</ele><time>2026-05-02T08:03:21.142Z</time></trkpt><trkpt lat="47.913505" lon="-1.4999167"><ele>107.0</ele><time>2026-05-02T08:03:22.14Z</time></trkpt><trkpt lat="47.91348" lon="-1.5000583"><ele>107.0</ele><time>2026-05-02T08:03:23.14Z</time></trkpt><trkpt lat="47.9134517" lon="-1.5002283"><ele>107.0</ele><time>2026-05-02T08:03:24.14Z</time></trkpt><trkpt lat="47.9134217" lon="-1.50042"><ele>107.0</ele><time>2026-05-02T08:03:25.141Z</time></trkpt><trkpt lat="47.9134033" lon="-1.5006417"><ele>107.0</ele><time>2026-05-02T08:03:26.141Z</time></trkpt><trkpt lat="47.9133983" lon="-1.50089"><ele>107.0</ele><time>2026-05-02T08:03:27.14Z</time></trkpt><trkpt lat="47.9134217" lon="-1.501175"><ele>107.0</ele><time>2026-05-02T08:03:28.142Z</time></trkpt><trkpt lat="47.9134733" lon="-1.50149"><ele>107.0</ele><time>2026-05-02T08:03:29.14Z</time></trkpt><trkpt lat="47.9135417" lon="-1.5018317"><ele>107.0</ele><time>2026-05-02T08:03:30.14Z</time></trkpt><trkpt lat="47.913625" lon="-1.502195"><ele>107.0</ele><time>2026-05-02T08:03:31.141Z</time></trkpt><trkpt lat="47.913715" lon="-1.50258"><ele>107.0</ele><time>2026-05-02T08:03:32.14Z</time></trkpt><trkpt lat="47.91381" lon="-1.50298"><ele>107.0</ele><time>2026-05-02T08:03:33.142Z</time></trkpt><trkpt lat="47.9139017" lon="-1.5033783"><ele>107.0</ele><time>2026-05-02T08:03:34.139Z</time></trkpt><trkpt lat="47.9139917" lon="-1.503765"><ele>107.0</ele><time>2026-05-02T08:03:35.138Z</time></trkpt><trkpt lat="47.9140767" lon="-1.50414"><ele>107.0</ele><time>2026-05-02T08:03:36.139Z</time></trkpt><trkpt lat="47.9141633" lon="-1.504505"><ele>107.5</ele><time>2026-05-02T08:03:37.139Z</time></trkpt><trkpt lat="47.9142517" lon="-1.5048633"><ele>108.0</ele><time>2026-05-02T08:03:38.14Z</time></trkpt><trkpt lat="47.91434" lon="-1.50522"><ele>107.5</ele><time>2026-05-02T08:03:39.139Z</time></trkpt><trkpt lat="47.9144283" lon="-1.5055817"><ele>107.0</ele><time>2026-05-02T08:03:40.14Z</time></trkpt><trkpt lat="47.9145133" lon="-1.50594"><ele>107.5</ele><time>2026-05-02T08:03:41.139Z</time></trkpt><trkpt lat="47.9145917" lon="-1.50628"><ele>108.0</ele><time>2026-05-02T08:03:42.139Z</time></trkpt><trkpt lat="47.9146667" lon="-1.5066117"><ele>108.0</ele><time>2026-05-02T08:03:43.139Z</time></trkpt><trkpt lat="47.9147333" lon="-1.5069317"><ele>108.0</ele><time>2026-05-02T08:03:44.139Z</time></trkpt><trkpt lat="47.9147933" lon="-1.507245"><ele>108.0</ele><time>2026-05-02T08:03:45.139Z</time></trkpt><trkpt lat="47.9148517" lon="-1.5075567"><ele>108.0</ele><time>2026-05-02T08:03:46.14Z</time></trkpt><trkpt lat="47.9149083" lon="-1.50787"><ele>108.0</ele><time>2026-05-02T08:03:47.138Z</time></trkpt><trkpt lat="47.9149683" lon="-1.50819"><ele>108.0</ele><time>2026-05-02T08:03:48.139Z</time></trkpt><trkpt lat="47.9150317" lon="-1.5085083"><ele>109.33333333333334</ele><time>2026-05-02T08:03:49.139Z</time></trkpt><trkpt lat="47.915095" lon="-1.508825"><ele>110.66666666666667</ele><time>2026-05-02T08:03:50.139Z</time></trkpt><trkpt lat="47.91516" lon="-1.5091333"><ele>112.0</ele><time>2026-05-02T08:03:51.139Z</time></trkpt><trkpt lat="47.9152233" lon="-1.50944"><ele>111.33333333333334</ele><time>2026-05-02T08:03:52.139Z</time></trkpt><trkpt lat="47.915285" lon="-1.5097433"><ele>110.66666666666666</ele><time>2026-05-02T08:03:53.139Z</time></trkpt><trkpt lat="47.91534" lon="-1.5100483"><ele>110.0</ele><time>2026-05-02T08:03:54.139Z</time></trkpt><trkpt lat="47.9153967" lon="-1.510355"><ele>110.0</ele><time>2026-05-02T08:03:55.142Z</time></trkpt><trkpt lat="47.9154433" lon="-1.51066"><ele>110.0</ele><time>2026-05-02T08:03:56.139Z</time></trkpt><trkpt lat="47.9154833" lon="-1.5109733"><ele>110.0</ele><time>2026-05-02T08:03:57.139Z</time></trkpt><trkpt lat="47.9155167" lon="-1.511295"><ele>109.66666666666666</ele><time>2026-05-02T08:03:58.139Z</time></trkpt><trkpt lat="47.915545" lon="-1.511615"><ele>109.33333333333334</ele><time>2026-05-02T08:03:59.14Z</time></trkpt><trkpt lat="47.9155717" lon="-1.5119217"><ele>109.0</ele><time>2026-05-02T08:04:00.139Z</time></trkpt><trkpt lat="47.9155967" lon="-1.5122067"><ele>108.33333333333334</ele><time>2026-05-02T08:04:01.14Z</time></trkpt><trkpt lat="47.915635" lon="-1.51247"><ele>107.66666666666666</ele><time>2026-05-02T08:04:02.139Z</time></trkpt><trkpt lat="47.915695" lon="-1.51271"><ele>107.0</ele><time>2026-05-02T08:04:03.14Z</time></trkpt><trkpt lat="47.915775" lon="-1.51295"><ele>107.0</ele><time>2026-05-02T08:04:04.139Z</time></trkpt><trkpt lat="47.915885" lon="-1.5131833"><ele>107.0</ele><time>2026-05-02T08:04:05.139Z</time></trkpt><trkpt lat="47.9160183" lon="-1.5134133"><ele>107.0</ele><time>2026-05-02T08:04:06.141Z</time></trkpt><trkpt lat="47.916165" lon="-1.5136517"><ele>107.33333333333333</ele><time>2026-05-02T08:04:07.14Z</time></trkpt><trkpt lat="47.9163167" lon="-1.5138917"><ele>107.66666666666666</ele><time>2026-05-02T08:04:08.14Z</time></trkpt><trkpt lat="47.916465" lon="-1.514135"><ele>108.0</ele><time>2026-05-02T08:04:09.139Z</time></trkpt><trkpt lat="47.9166033" lon="-1.51439"><ele>108.0</ele><time>2026-05-02T08:04:10.139Z</time></trkpt><trkpt lat="47.9167267" lon="-1.5146683"><ele>108.0</ele><time>2026-05-02T08:04:11.139Z</time></trkpt><trkpt lat="47.9168317" lon="-1.5149617"><ele>108.0</ele><time>2026-05-02T08:04:12.139Z</time></trkpt><trkpt lat="47.9169133" lon="-1.51527"><ele>107.66666666666666</ele><time>2026-05-02T08:04:13.138Z</time></trkpt><trkpt lat="47.9169733" lon="-1.5155867"><ele>107.33333333333333</ele><time>2026-05-02T08:04:14.138Z</time></trkpt><trkpt lat="47.91701" lon="-1.5159133"><ele>107.0</ele><time>2026-05-02T08:04:15.139Z</time></trkpt><trkpt lat="47.9170217" lon="-1.5162467"><ele>106.0</ele><time>2026-05-02T08:04:16.14Z</time></trkpt><trkpt lat="47.91701" lon="-1.5165933"><ele>105.0</ele><time>2026-05-02T08:04:17.139Z</time></trkpt><trkpt lat="47.9169733" lon="-1.5169383"><ele>104.5</ele><time>2026-05-02T08:04:18.14Z</time></trkpt><trkpt lat="47.9169183" lon="-1.5172917"><ele>104.0</ele><time>2026-05-02T08:04:19.139Z</time></trkpt><trkpt lat="47.916855" lon="-1.51764"><ele>104.33333333333333</ele><time>2026-05-02T08:04:20.139Z</time></trkpt><trkpt lat="47.9168017" lon="-1.517975"><ele>104.66666666666666</ele><time>2026-05-02T08:04:21.14Z</time></trkpt><trkpt lat="47.916775" lon="-1.5182967"><ele>105.0</ele><time>2026-05-02T08:04:22.139Z</time></trkpt><trkpt lat="47.916785" lon="-1.518625"><ele>105.0</ele><time>2026-05-02T08:04:23.139Z</time></trkpt><trkpt lat="47.9168167" lon="-1.518975"><ele>105.0</ele><time>2026-05-02T08:04:24.139Z</time></trkpt><trkpt lat="47.91686" lon="-1.5193533"><ele>105.0</ele><time>2026-05-02T08:04:25.14Z</time></trkpt><trkpt lat="47.916915" lon="-1.51976"><ele>105.0</ele><time>2026-05-02T08:04:26.139Z</time></trkpt><trkpt lat="47.9169767" lon="-1.52019"><ele>105.5</ele><time>2026-05-02T08:04:27.139Z</time></trkpt><trkpt lat="47.9170383" lon="-1.520645"><ele>106.0</ele><time>2026-05-02T08:04:28.14Z</time></trkpt><trkpt lat="47.9171" lon="-1.5210983"><ele>106.5</ele><time>2026-05-02T08:04:29.142Z</time></trkpt><trkpt lat="47.9171567" lon="-1.5215367"><ele>107.0</ele><time>2026-05-02T08:04:30.139Z</time></trkpt><trkpt lat="47.9172117" lon="-1.5219583"><ele>107.0</ele><time>2026-05-02T08:04:31.14Z</time></trkpt><trkpt lat="47.91727" lon="-1.5223667"><ele>107.0</ele><time>2026-05-02T08:04:32.139Z</time></trkpt><trkpt lat="47.9173283" lon="-1.5227733"><ele>107.0</ele><time>2026-05-02T08:04:33.139Z</time></trkpt><trkpt lat="47.9173867" lon="-1.5231783"><ele>107.0</ele><time>2026-05-02T08:04:34.139Z</time></trkpt><trkpt lat="47.9174417" lon="-1.5235733"><ele>107.5</ele><time>2026-05-02T08:04:35.143Z</time></trkpt><trkpt lat="47.917495" lon="-1.5239567"><ele>108.0</ele><time>2026-05-02T08:04:36.139Z</time></trkpt><trkpt lat="47.9175433" lon="-1.5243317"><ele>107.0</ele><time>2026-05-02T08:04:37.139Z</time></trkpt><trkpt lat="47.9175883" lon="-1.524705"><ele>106.0</ele><time>2026-05-02T08:04:38.139Z</time></trkpt><trkpt lat="47.9176367" lon="-1.5250767"><ele>107.0</ele><time>2026-05-02T08:04:39.14Z</time></trkpt><trkpt lat="47.91768" lon="-1.5254483"><ele>108.0</ele><time>2026-05-02T08:04:40.14Z</time></trkpt><trkpt lat="47.9177217" lon="-1.52582"><ele>108.0</ele><time>2026-05-02T08:04:41.142Z</time></trkpt><trkpt lat="47.917765" lon="-1.5261983"><ele>108.0</ele><time>2026-05-02T08:04:42.14Z</time></trkpt><trkpt lat="47.9178083" lon="-1.5265733"><ele>108.0</ele><time>2026-05-02T08:04:43.14Z</time></trkpt><trkpt lat="47.9178483" lon="-1.5269333"><ele>108.0</ele><time>2026-05-02T08:04:44.141Z</time></trkpt><trkpt lat="47.917885" lon="-1.5272767"><ele>108.0</ele><time>2026-05-02T08:04:45.14Z</time></trkpt><trkpt lat="47.9179167" lon="-1.5276017"><ele>108.0</ele><time>2026-05-02T08:04:46.142Z</time></trkpt><trkpt lat="47.91794" lon="-1.527915"><ele>108.0</ele><time>2026-05-02T08:04:47.14Z</time></trkpt><trkpt lat="47.9179517" lon="-1.52823"><ele>108.0</ele><time>2026-05-02T08:04:48.14Z</time></trkpt><trkpt lat="47.9179467" lon="-1.528545"><ele>108.0</ele><time>2026-05-02T08:04:49.14Z</time></trkpt><trkpt lat="47.9179" lon="-1.528855"><ele>108.0</ele><time>2026-05-02T08:04:50.143Z</time></trkpt><trkpt lat="47.9178333" lon="-1.529155"><ele>108.0</ele><time>2026-05-02T08:04:51.14Z</time></trkpt><trkpt lat="47.917755" lon="-1.5294433"><ele>108.0</ele><time>2026-05-02T08:04:52.14Z</time></trkpt><trkpt lat="47.9176833" lon="-1.52972"><ele>108.0</ele><time>2026-05-02T08:04:53.14Z</time></trkpt><trkpt lat="47.91764" lon="-1.530005"><ele>107.66666666666666</ele><time>2026-05-02T08:04:54.141Z</time></trkpt><trkpt lat="47.9176267" lon="-1.5302867"><ele>107.33333333333333</ele><time>2026-05-02T08:04:55.142Z</time></trkpt><trkpt lat="47.9176417" lon="-1.5305533"><ele>107.0</ele><time>2026-05-02T08:04:56.14Z</time></trkpt><trkpt lat="47.91768" lon="-1.5307917"><ele>107.0</ele><time>2026-05-02T08:04:57.14Z</time></trkpt><trkpt lat="47.9177233" lon="-1.5310033"><ele>107.0</ele><time>2026-05-02T08:04:58.142Z</time></trkpt><trkpt lat="47.9177517" lon="-1.5311867"><ele>107.0</ele><time>2026-05-02T08:04:59.14Z</time></trkpt><trkpt lat="47.917775" lon="-1.5313417"><ele>107.0</ele><time>2026-05-02T08:05:00.141Z</time></trkpt><trkpt lat="47.917795" lon="-1.53146"><ele>107.33333333333333</ele><time>2026-05-02T08:05:01.14Z</time></trkpt><trkpt lat="47.9178117" lon="-1.5315517"><ele>107.66666666666666</ele><time>2026-05-02T08:05:02.14Z</time></trkpt><trkpt lat="47.9178367" lon="-1.531645"><ele>108.0</ele><time>2026-05-02T08:05:04.14Z</time></trkpt><trkpt lat="47.91787" lon="-1.5317483"><ele>108.33333333333334</ele><time>2026-05-02T08:05:18.14Z</time></trkpt><trkpt lat="47.9179167" lon="-1.5318333"><ele>108.66666666666667</ele><time>2026-05-02T08:05:19.14Z</time></trkpt><trkpt lat="47.9179833" lon="-1.53194"><ele>109.0</ele><time>2026-05-02T08:05:20.14Z</time></trkpt><trkpt lat="47.91806" lon="-1.532065"><ele>109.0</ele><time>2026-05-02T08:05:21.141Z</time></trkpt><trkpt lat="47.9181483" lon="-1.5322133"><ele>109.0</ele><time>2026-05-02T08:05:22.139Z</time></trkpt><trkpt lat="47.9182483" lon="-1.5323833"><ele>109.0</ele><time>2026-05-02T08:05:23.144Z</time></trkpt><trkpt lat="47.91836" lon="-1.5325683"><ele>109.0</ele><time>2026-05-02T08:05:24.14Z</time></trkpt><trkpt lat="47.9184833" lon="-1.5327633"><ele>109.0</ele><time>2026-05-02T08:05:25.139Z</time></trkpt><trkpt lat="47.918615" lon="-1.5329733"><ele>109.0</ele><time>2026-05-02T08:05:26.142Z</time></trkpt><trkpt lat="47.9187533" lon="-1.5331833"><ele>109.33333333333334</ele><time>2026-05-02T08:05:27.14Z</time></trkpt><trkpt lat="47.918885" lon="-1.5333817"><ele>109.66666666666666</ele><time>2026-05-02T08:05:28.14Z</time></trkpt><trkpt lat="47.9190067" lon="-1.53356"><ele>110.0</ele><time>2026-05-02T08:05:29.14Z</time></trkpt><trkpt lat="47.91911" lon="-1.533725"><ele>110.2</ele><time>2026-05-02T08:05:30.14Z</time></trkpt><trkpt lat="47.9191917" lon="-1.533875"><ele>110.4</ele><time>2026-05-02T08:05:31.139Z</time></trkpt><trkpt lat="47.91924" lon="-1.5339967"><ele>110.6</ele><time>2026-05-02T08:05:32.14Z</time></trkpt><trkpt lat="47.91925" lon="-1.534105"><ele>110.8</ele><time>2026-05-02T08:05:33.14Z</time></trkpt><trkpt lat="47.9192333" lon="-1.5342367"><ele>111.0</ele><time>2026-05-02T08:05:34.14Z</time></trkpt><trkpt lat="47.9191933" lon="-1.5344"><ele>111.0</ele><time>2026-05-02T08:05:35.143Z</time></trkpt><trkpt lat="47.9191433" lon="-1.5345767"><ele>111.0</ele><time>2026-05-02T08:05:36.141Z</time></trkpt><trkpt lat="47.9190933" lon="-1.5347667"><ele>111.0</ele><time>2026-05-02T08:05:37.14Z</time></trkpt><trkpt lat="47.9190383" lon="-1.534965"><ele>111.0</ele><time>2026-05-02T08:05:38.139Z</time></trkpt><trkpt lat="47.9189883" lon="-1.53517"><ele>111.0</ele><time>2026-05-02T08:05:39.141Z</time></trkpt><trkpt lat="47.9189367" lon="-1.535375"><ele>111.0</ele><time>2026-05-02T08:05:40.14Z</time></trkpt><trkpt lat="47.9188883" lon="-1.5355733"><ele>111.0</ele><time>2026-05-02T08:05:41.14Z</time></trkpt><trkpt lat="47.9188383" lon="-1.5357667"><ele>111.0</ele><time>2026-05-02T08:05:42.139Z</time></trkpt><trkpt lat="47.9187883" lon="-1.5359483"><ele>111.25</ele><time>2026-05-02T08:05:43.14Z</time></trkpt><trkpt lat="47.9187417" lon="-1.5361233"><ele>111.5</ele><time>2026-05-02T08:05:44.14Z</time></trkpt><trkpt lat="47.9186983" lon="-1.5362917"><ele>111.75</ele><time>2026-05-02T08:05:45.14Z</time></trkpt><trkpt lat="47.9186517" lon="-1.5364433"><ele>112.0</ele><time>2026-05-02T08:05:46.139Z</time></trkpt><trkpt lat="47.9185883" lon="-1.5365633"><ele>112.0</ele><time>2026-05-02T08:05:47.139Z</time></trkpt><trkpt lat="47.9185033" lon="-1.53665"><ele>112.0</ele><time>2026-05-02T08:05:48.141Z</time></trkpt><trkpt lat="47.91839" lon="-1.5366967"><ele>112.0</ele><time>2026-05-02T08:05:49.141Z</time></trkpt><trkpt lat="47.918255" lon="-1.536715"><ele>112.0</ele><time>2026-05-02T08:05:50.139Z</time></trkpt><trkpt lat="47.9180917" lon="-1.5367267"><ele>112.0</ele><time>2026-05-02T08:05:51.141Z</time></trkpt><trkpt lat="47.9179017" lon="-1.5367433"><ele>112.0</ele><time>2026-05-02T08:05:52.141Z</time></trkpt><trkpt lat="47.9176867" lon="-1.5367567"><ele>112.0</ele><time>2026-05-02T08:05:53.14Z</time></trkpt><trkpt lat="47.9174467" lon="-1.5367667"><ele>109.5</ele><time>2026-05-02T08:05:54.142Z</time></trkpt><trkpt lat="47.9171883" lon="-1.5367817"><ele>107.0</ele><time>2026-05-02T08:05:55.14Z</time></trkpt><trkpt lat="47.9169183" lon="-1.536795"><ele>106.5</ele><time>2026-05-02T08:05:56.139Z</time></trkpt><trkpt lat="47.9166383" lon="-1.5368117"><ele>106.0</ele><time>2026-05-02T08:05:57.14Z</time></trkpt><trkpt lat="47.9163567" lon="-1.5368283"><ele>106.0</ele><time>2026-05-02T08:05:58.139Z</time></trkpt><trkpt lat="47.9160867" lon="-1.536845"><ele>106.0</ele><time>2026-05-02T08:05:59.141Z</time></trkpt><trkpt lat="47.9158267" lon="-1.536865"><ele>105.0</ele><time>2026-05-02T08:06:00.14Z</time></trkpt><trkpt lat="47.9155683" lon="-1.53689"><ele>104.0</ele><time>2026-05-02T08:06:01.14Z</time></trkpt><trkpt lat="47.9153033" lon="-1.5369267"><ele>102.5</ele><time>2026-05-02T08:06:02.141Z</time></trkpt><trkpt lat="47.9150383" lon="-1.536985"><ele>101.0</ele><time>2026-05-02T08:06:03.141Z</time></trkpt><trkpt lat="47.9147717" lon="-1.5370617"><ele>101.0</ele><time>2026-05-02T08:06:04.139Z</time></trkpt><trkpt lat="47.9145017" lon="-1.537155"><ele>101.0</ele><time>2026-05-02T08:06:05.14Z</time></trkpt><trkpt lat="47.9142233" lon="-1.537255"><ele>99.0</ele><time>2026-05-02T08:06:06.14Z</time></trkpt><trkpt lat="47.9139417" lon="-1.537355"><ele>97.0</ele><time>2026-05-02T08:06:07.141Z</time></trkpt><trkpt lat="47.91366" lon="-1.537455"><ele>95.0</ele><time>2026-05-02T08:06:08.14Z</time></trkpt><trkpt lat="47.9133833" lon="-1.537555"><ele>93.0</ele><time>2026-05-02T08:06:09.14Z</time></trkpt><trkpt lat="47.9131117" lon="-1.53765"><ele>93.0</ele><time>2026-05-02T08:06:10.14Z</time></trkpt><trkpt lat="47.9128467" lon="-1.537745"><ele>93.0</ele><time>2026-05-02T08:06:11.139Z</time></trkpt><trkpt lat="47.912585" lon="-1.5378383"><ele>92.0</ele><time>2026-05-02T08:06:12.139Z</time></trkpt><trkpt lat="47.91233" lon="-1.537935"><ele>91.0</ele><time>2026-05-02T08:06:13.14Z</time></trkpt><trkpt lat="47.9120783" lon="-1.53803"><ele>91.0</ele><time>2026-05-02T08:06:14.139Z</time></trkpt><trkpt lat="47.91183" lon="-1.5381217"><ele>91.0</ele><time>2026-05-02T08:06:15.14Z</time></trkpt><trkpt lat="47.91158" lon="-1.5382083"><ele>89.0</ele><time>2026-05-02T08:06:16.14Z</time></trkpt><trkpt lat="47.9113233" lon="-1.5382833"><ele>87.0</ele><time>2026-05-02T08:06:17.14Z</time></trkpt><trkpt lat="47.911045" lon="-1.5383283"><ele>86.0</ele><time>2026-05-02T08:06:18.139Z</time></trkpt><trkpt lat="47.910745" lon="-1.5383683"><ele>85.0</ele><time>2026-05-02T08:06:19.139Z</time></trkpt><trkpt lat="47.91045" lon="-1.5384067"><ele>85.0</ele><time>2026-05-02T08:06:20.14Z</time></trkpt><trkpt lat="47.9101683" lon="-1.5384383"><ele>85.0</ele><time>2026-05-02T08:06:21.14Z</time></trkpt><trkpt lat="47.9099033" lon="-1.5384667"><ele>84.0</ele><time>2026-05-02T08:06:22.14Z</time></trkpt><trkpt lat="47.9096467" lon="-1.5384933"><ele>83.0</ele><time>2026-05-02T08:06:23.14Z</time></trkpt><trkpt lat="47.9094033" lon="-1.5385183"><ele>82.0</ele><time>2026-05-02T08:06:24.139Z</time></trkpt><trkpt lat="47.9091617" lon="-1.5385267"><ele>81.0</ele><time>2026-05-02T08:06:25.14Z</time></trkpt><trkpt lat="47.9089217" lon="-1.5385183"><ele>81.0</ele><time>2026-05-02T08:06:26.14Z</time></trkpt><trkpt lat="47.908675" lon="-1.538485"><ele>81.0</ele><time>2026-05-02T08:06:27.14Z</time></trkpt><trkpt lat="47.90842" lon="-1.5384317"><ele>81.5</ele><time>2026-05-02T08:06:28.14Z</time></trkpt><trkpt lat="47.9081617" lon="-1.5383733"><ele>82.0</ele><time>2026-05-02T08:06:29.139Z</time></trkpt><trkpt lat="47.907895" lon="-1.5383083"><ele>82.0</ele><time>2026-05-02T08:06:30.14Z</time></trkpt><trkpt lat="47.907625" lon="-1.5382367"><ele>82.0</ele><time>2026-05-02T08:06:31.139Z</time></trkpt><trkpt lat="47.9073583" lon="-1.538165"><ele>83.0</ele><time>2026-05-02T08:06:32.139Z</time></trkpt><trkpt lat="47.907095" lon="-1.5380967"><ele>84.0</ele><time>2026-05-02T08:06:33.142Z</time></trkpt><trkpt lat="47.90684" lon="-1.5380267"><ele>85.5</ele><time>2026-05-02T08:06:34.139Z</time></trkpt><trkpt lat="47.90659" lon="-1.5379717"><ele>87.0</ele><time>2026-05-02T08:06:35.14Z</time></trkpt><trkpt lat="47.90635" lon="-1.5379517"><ele>87.0</ele><time>2026-05-02T08:06:36.14Z</time></trkpt><trkpt lat="47.9061133" lon="-1.537965"><ele>87.0</ele><time>2026-05-02T08:06:37.14Z</time></trkpt><trkpt lat="47.905885" lon="-1.5380083"><ele>87.33333333333333</ele><time>2026-05-02T08:06:38.14Z</time></trkpt><trkpt lat="47.9056617" lon="-1.5380717"><ele>87.66666666666666</ele><time>2026-05-02T08:06:39.14Z</time></trkpt><trkpt lat="47.9054467" lon="-1.53814"><ele>88.0</ele><time>2026-05-02T08:06:40.139Z</time></trkpt><trkpt lat="47.9052317" lon="-1.538195"><ele>88.66666666666666</ele><time>2026-05-02T08:06:41.14Z</time></trkpt><trkpt lat="47.905025" lon="-1.5382183"><ele>89.33333333333333</ele><time>2026-05-02T08:06:42.139Z</time></trkpt><trkpt lat="47.9048283" lon="-1.5382167"><ele>90.0</ele><time>2026-05-02T08:06:43.14Z</time></trkpt><trkpt lat="47.9046383" lon="-1.538205"><ele>90.0</ele><time>2026-05-02T08:06:44.143Z</time></trkpt><trkpt lat="47.9044617" lon="-1.5381983"><ele>90.0</ele><time>2026-05-02T08:06:45.141Z</time></trkpt><trkpt lat="47.9042967" lon="-1.5381983"><ele>90.0</ele><time>2026-05-02T08:06:46.141Z</time></trkpt><trkpt lat="47.9041567" lon="-1.53821"><ele>90.4</ele><time>2026-05-02T08:06:47.14Z</time></trkpt><trkpt lat="47.9040483" lon="-1.5382367"><ele>90.8</ele><time>2026-05-02T08:06:48.139Z</time></trkpt><trkpt lat="47.9039683" lon="-1.5382933"><ele>91.19999999999999</ele><time>2026-05-02T08:06:49.14Z</time></trkpt><trkpt lat="47.9039117" lon="-1.5383817"><ele>91.6</ele><time>2026-05-02T08:06:50.141Z</time></trkpt><trkpt lat="47.9038817" lon="-1.5384967"><ele>92.0</ele><time>2026-05-02T08:06:51.139Z</time></trkpt><trkpt lat="47.9038817" lon="-1.53863"><ele>92.19999999999999</ele><time>2026-05-02T08:06:52.14Z</time></trkpt><trkpt lat="47.9039067" lon="-1.5387683"><ele>92.4</ele><time>2026-05-02T08:06:53.139Z</time></trkpt><trkpt lat="47.9039417" lon="-1.5389067"><ele>92.6</ele><time>2026-05-02T08:06:54.139Z</time></trkpt><trkpt lat="47.9039717" lon="-1.5390567"><ele>92.80000000000001</ele><time>2026-05-02T08:06:55.139Z</time></trkpt><trkpt lat="47.9039833" lon="-1.5392283"><ele>93.0</ele><time>2026-05-02T08:06:56.139Z</time></trkpt><trkpt lat="47.903975" lon="-1.53942"><ele>92.66666666666667</ele><time>2026-05-02T08:06:57.138Z</time></trkpt><trkpt lat="47.9039567" lon="-1.539635"><ele>92.33333333333334</ele><time>2026-05-02T08:06:58.139Z</time></trkpt><trkpt lat="47.903945" lon="-1.539865"><ele>92.0</ele><time>2026-05-02T08:06:59.139Z</time></trkpt><trkpt lat="47.90395" lon="-1.5401067"><ele>92.0</ele><time>2026-05-02T08:07:00.139Z</time></trkpt><trkpt lat="47.9039733" lon="-1.5403617"><ele>92.0</ele><time>2026-05-02T08:07:01.139Z</time></trkpt><trkpt lat="47.904015" lon="-1.54061"><ele>92.0</ele><time>2026-05-02T08:07:02.139Z</time></trkpt><trkpt lat="47.9040633" lon="-1.5408417"><ele>92.0</ele><time>2026-05-02T08:07:03.139Z</time></trkpt><trkpt lat="47.9041133" lon="-1.5410583"><ele>92.0</ele><time>2026-05-02T08:07:04.14Z</time></trkpt><trkpt lat="47.9041617" lon="-1.5412733"><ele>92.0</ele><time>2026-05-02T08:07:05.139Z</time></trkpt><trkpt lat="47.9042067" lon="-1.5414933"><ele>92.0</ele><time>2026-05-02T08:07:06.139Z</time></trkpt><trkpt lat="47.9042517" lon="-1.5417183"><ele>92.0</ele><time>2026-05-02T08:07:07.139Z</time></trkpt><trkpt lat="47.9042967" lon="-1.5419533"><ele>92.0</ele><time>2026-05-02T08:07:08.139Z</time></trkpt><trkpt lat="47.9043417" lon="-1.5421983"><ele>91.66666666666667</ele><time>2026-05-02T08:07:09.141Z</time></trkpt><trkpt lat="47.90439" lon="-1.54244"><ele>91.33333333333333</ele><time>2026-05-02T08:07:10.14Z</time></trkpt><trkpt lat="47.9044383" lon="-1.5426633"><ele>91.0</ele><time>2026-05-02T08:07:11.141Z</time></trkpt><trkpt lat="47.9044867" lon="-1.5428667"><ele>90.25</ele><time>2026-05-02T08:07:12.14Z</time></trkpt><trkpt lat="47.9045417" lon="-1.5430467"><ele>89.5</ele><time>2026-05-02T08:07:13.139Z</time></trkpt><trkpt lat="47.9046083" lon="-1.5432017"><ele>88.75</ele><time>2026-05-02T08:07:14.141Z</time></trkpt><trkpt lat="47.904685" lon="-1.543345"><ele>88.0</ele><time>2026-05-02T08:07:15.139Z</time></trkpt><trkpt lat="47.9047767" lon="-1.543475"><ele>88.0</ele><time>2026-05-02T08:07:16.139Z</time></trkpt><trkpt lat="47.9048683" lon="-1.543585"><ele>88.0</ele><time>2026-05-02T08:07:17.139Z</time></trkpt><trkpt lat="47.9049567" lon="-1.5436783"><ele>88.0</ele><time>2026-05-02T08:07:18.142Z</time></trkpt><trkpt lat="47.90504" lon="-1.5437767"><ele>88.0</ele><time>2026-05-02T08:07:19.14Z</time></trkpt><trkpt lat="47.9051117" lon="-1.5438833"><ele>88.0</ele><time>2026-05-02T08:07:20.138Z</time></trkpt><trkpt lat="47.9051733" lon="-1.5440183"><ele>88.5</ele><time>2026-05-02T08:07:21.14Z</time></trkpt><trkpt lat="47.905225" lon="-1.5441817"><ele>89.0</ele><time>2026-05-02T08:07:22.139Z</time></trkpt><trkpt lat="47.9052783" lon="-1.54437"><ele>89.5</ele><time>2026-05-02T08:07:23.139Z</time></trkpt><trkpt lat="47.9053283" lon="-1.5445667"><ele>90.0</ele><time>2026-05-02T08:07:24.139Z</time></trkpt><trkpt lat="47.9053783" lon="-1.5447717"><ele>90.0</ele><time>2026-05-02T08:07:25.14Z</time></trkpt><trkpt lat="47.9054283" lon="-1.5449767"><ele>90.0</ele><time>2026-05-02T08:07:26.139Z</time></trkpt><trkpt lat="47.90547" lon="-1.5451817"><ele>90.0</ele><time>2026-05-02T08:07:27.139Z</time></trkpt><trkpt lat="47.9055117" lon="-1.54539"><ele>90.0</ele><time>2026-05-02T08:07:28.139Z</time></trkpt><trkpt lat="47.9055567" lon="-1.5455967"><ele>90.33333333333333</ele><time>2026-05-02T08:07:29.139Z</time></trkpt><trkpt lat="47.9056117" lon="-1.5458083"><ele>90.66666666666666</ele><time>2026-05-02T08:07:30.141Z</time></trkpt><trkpt lat="47.905675" lon="-1.546025"><ele>91.0</ele><time>2026-05-02T08:07:31.14Z</time></trkpt><trkpt lat="47.9057383" lon="-1.5462333"><ele>91.25</ele><time>2026-05-02T08:07:32.139Z</time></trkpt><trkpt lat="47.905805" lon="-1.5464317"><ele>91.5</ele><time>2026-05-02T08:07:33.14Z</time></trkpt><trkpt lat="47.9058683" lon="-1.54662"><ele>91.75</ele><time>2026-05-02T08:07:34.141Z</time></trkpt><trkpt lat="47.90593" lon="-1.546795"><ele>92.0</ele><time>2026-05-02T08:07:35.139Z</time></trkpt><trkpt lat="47.90599" lon="-1.54695"><ele>92.39999999999999</ele><time>2026-05-02T08:07:36.14Z</time></trkpt><trkpt lat="47.9060567" lon="-1.5470867"><ele>92.8</ele><time>2026-05-02T08:07:37.139Z</time></trkpt><trkpt lat="47.9061333" lon="-1.54721"><ele>93.2</ele><time>2026-05-02T08:07:38.141Z</time></trkpt><trkpt lat="47.906225" lon="-1.5473117"><ele>93.6</ele><time>2026-05-02T08:07:39.141Z</time></trkpt><trkpt lat="47.9063167" lon="-1.5473817"><ele>94.0</ele><time>2026-05-02T08:07:40.139Z</time></trkpt><trkpt lat="47.9064" lon="-1.5474283"><ele>94.0</ele><time>2026-05-02T08:07:41.14Z</time></trkpt><trkpt lat="47.9064817" lon="-1.5474883"><ele>94.0</ele><time>2026-05-02T08:07:42.139Z</time></trkpt><trkpt lat="47.9065533" lon="-1.5475783"><ele>94.0</ele><time>2026-05-02T08:07:43.139Z</time></trkpt><trkpt lat="47.9066217" lon="-1.5477033"><ele>94.0</ele><time>2026-05-02T08:07:44.14Z</time></trkpt><trkpt lat="47.9066983" lon="-1.5478667"><ele>94.0</ele><time>2026-05-02T08:07:45.139Z</time></trkpt><trkpt lat="47.9067833" lon="-1.5480433"><ele>94.33333333333333</ele><time>2026-05-02T08:07:46.139Z</time></trkpt><trkpt lat="47.9068817" lon="-1.5482383"><ele>94.66666666666667</ele><time>2026-05-02T08:07:47.139Z</time></trkpt><trkpt lat="47.9069767" lon="-1.5484317"><ele>95.0</ele><time>2026-05-02T08:07:48.14Z</time></trkpt><trkpt lat="47.9070617" lon="-1.5486133"><ele>95.5</ele><time>2026-05-02T08:07:49.139Z</time></trkpt><trkpt lat="47.9071333" lon="-1.5487833"><ele>96.0</ele><time>2026-05-02T08:07:50.14Z</time></trkpt><trkpt lat="47.9071867" lon="-1.5489583"><ele>96.5</ele><time>2026-05-02T08:07:51.14Z</time></trkpt><trkpt lat="47.9072183" lon="-1.5491383"><ele>97.0</ele><time>2026-05-02T08:07:52.139Z</time></trkpt><trkpt lat="47.9072283" lon="-1.5493167"><ele>97.0</ele><time>2026-05-02T08:07:53.145Z</time></trkpt><trkpt lat="47.9072233" lon="-1.549505"><ele>97.0</ele><time>2026-05-02T08:07:54.139Z</time></trkpt><trkpt lat="47.9072083" lon="-1.5496933"><ele>97.0</ele><time>2026-05-02T08:07:55.139Z</time></trkpt><trkpt lat="47.9071983" lon="-1.5498833"><ele>97.0</ele><time>2026-05-02T08:07:56.138Z</time></trkpt><trkpt lat="47.90721" lon="-1.550085"><ele>96.66666666666667</ele><time>2026-05-02T08:07:57.141Z</time></trkpt><trkpt lat="47.9072467" lon="-1.5502933"><ele>96.33333333333334</ele><time>2026-05-02T08:07:58.139Z</time></trkpt><trkpt lat="47.90731" lon="-1.550515"><ele>96.0</ele><time>2026-05-02T08:07:59.141Z</time></trkpt><trkpt lat="47.907395" lon="-1.550755"><ele>96.0</ele><time>2026-05-02T08:08:00.141Z</time></trkpt><trkpt lat="47.907495" lon="-1.5510067"><ele>96.0</ele><time>2026-05-02T08:08:01.139Z</time></trkpt><trkpt lat="47.9076017" lon="-1.55126"><ele>96.0</ele><time>2026-05-02T08:08:02.14Z</time></trkpt><trkpt lat="47.907705" lon="-1.5515183"><ele>96.0</ele><time>2026-05-02T08:08:03.139Z</time></trkpt><trkpt lat="47.9078083" lon="-1.5517833"><ele>96.0</ele><time>2026-05-02T08:08:04.139Z</time></trkpt><trkpt lat="47.90791" lon="-1.55206"><ele>96.0</ele><time>2026-05-02T08:08:05.142Z</time></trkpt><trkpt lat="47.9080117" lon="-1.5523483"><ele>96.0</ele><time>2026-05-02T08:08:06.139Z</time></trkpt><trkpt lat="47.908105" lon="-1.5526417"><ele>96.0</ele><time>2026-05-02T08:08:07.139Z</time></trkpt><trkpt lat="47.9081933" lon="-1.5529417"><ele>96.0</ele><time>2026-05-02T08:08:08.139Z</time></trkpt><trkpt lat="47.9082783" lon="-1.5532383"><ele>96.0</ele><time>2026-05-02T08:08:09.139Z</time></trkpt><trkpt lat="47.90836" lon="-1.5535167"><ele>96.0</ele><time>2026-05-02T08:08:10.142Z</time></trkpt><trkpt lat="47.9084367" lon="-1.5537783"><ele>96.0</ele><time>2026-05-02T08:08:11.14Z</time></trkpt><trkpt lat="47.9085033" lon="-1.55402"><ele>95.75</ele><time>2026-05-02T08:08:12.139Z</time></trkpt><trkpt lat="47.9085533" lon="-1.55424"><ele>95.5</ele><time>2026-05-02T08:08:13.14Z</time></trkpt><trkpt lat="47.9085867" lon="-1.5544467"><ele>95.25</ele><time>2026-05-02T08:08:14.139Z</time></trkpt><trkpt lat="47.908605" lon="-1.5546533"><ele>95.0</ele><time>2026-05-02T08:08:15.14Z</time></trkpt><trkpt lat="47.9086133" lon="-1.5548733"><ele>95.0</ele><time>2026-05-02T08:08:16.139Z</time></trkpt><trkpt lat="47.90862" lon="-1.5551033"><ele>95.0</ele><time>2026-05-02T08:08:17.139Z</time></trkpt><trkpt lat="47.908625" lon="-1.5553267"><ele>95.0</ele><time>2026-05-02T08:08:18.139Z</time></trkpt><trkpt lat="47.9086283" lon="-1.5555367"><ele>95.0</ele><time>2026-05-02T08:08:19.139Z</time></trkpt><trkpt lat="47.9086367" lon="-1.555735"><ele>95.0</ele><time>2026-05-02T08:08:20.14Z</time></trkpt><trkpt lat="47.9086417" lon="-1.5559117"><ele>95.0</ele><time>2026-05-02T08:08:21.139Z</time></trkpt><trkpt lat="47.9086433" lon="-1.556065"><ele>95.0</ele><time>2026-05-02T08:08:22.139Z</time></trkpt><trkpt lat="47.9086383" lon="-1.5562017"><ele>95.0</ele><time>2026-05-02T08:08:23.139Z</time></trkpt><trkpt lat="47.9086217" lon="-1.5563233"><ele>95.0</ele><time>2026-05-02T08:08:24.139Z</time></trkpt><trkpt lat="47.908595" lon="-1.55643"><ele>95.0</ele><time>2026-05-02T08:08:25.138Z</time></trkpt><trkpt lat="47.9085617" lon="-1.5565117"><ele>95.0</ele><time>2026-05-02T08:08:26.139Z</time></trkpt><trkpt lat="47.9085" lon="-1.5566317"><ele>95.0</ele><time>2026-05-02T08:08:28.138Z</time></trkpt><trkpt lat="47.9085367" lon="-1.5565267"><ele>95.0</ele><time>2026-05-02T08:08:54.138Z</time></trkpt><trkpt lat="47.9085783" lon="-1.556415"><ele>95.0</ele><time>2026-05-02T08:08:55.139Z</time></trkpt><trkpt lat="47.90861" lon="-1.5562783"><ele>95.0</ele><time>2026-05-02T08:08:56.139Z</time></trkpt><trkpt lat="47.9086267" lon="-1.5560983"><ele>95.0</ele><time>2026-05-02T08:08:57.139Z</time></trkpt><trkpt lat="47.9086267" lon="-1.555865"><ele>95.0</ele><time>2026-05-02T08:08:58.14Z</time></trkpt><trkpt lat="47.9086217" lon="-1.5555983"><ele>95.0</ele><time>2026-05-02T08:08:59.138Z</time></trkpt><trkpt lat="47.9086117" lon="-1.5553233"><ele>95.0</ele><time>2026-05-02T08:09:00.14Z</time></trkpt><trkpt lat="47.908605" lon="-1.5550683"><ele>95.0</ele><time>2026-05-02T08:09:01.14Z</time></trkpt><trkpt lat="47.9086017" lon="-1.5548533"><ele>95.0</ele><time>2026-05-02T08:09:02.139Z</time></trkpt><trkpt lat="47.9085967" lon="-1.554665"><ele>95.0</ele><time>2026-05-02T08:09:03.14Z</time></trkpt><trkpt lat="47.9085867" lon="-1.5544933"><ele>95.0</ele><time>2026-05-02T08:09:04.139Z</time></trkpt><trkpt lat="47.9085667" lon="-1.5543317"><ele>95.0</ele><time>2026-05-02T08:09:05.139Z</time></trkpt><trkpt lat="47.908535" lon="-1.55417"><ele>95.0</ele><time>2026-05-02T08:09:06.139Z</time></trkpt><trkpt lat="47.9084917" lon="-1.5540017"><ele>95.0</ele><time>2026-05-02T08:09:07.14Z</time></trkpt><trkpt lat="47.9084417" lon="-1.5538283"><ele>95.25</ele><time>2026-05-02T08:09:08.139Z</time></trkpt><trkpt lat="47.9083867" lon="-1.553645"><ele>95.5</ele><time>2026-05-02T08:09:09.14Z</time></trkpt><trkpt lat="47.9083283" lon="-1.5534433"><ele>95.75</ele><time>2026-05-02T08:09:10.139Z</time></trkpt><trkpt lat="47.908265" lon="-1.55323"><ele>96.0</ele><time>2026-05-02T08:09:11.14Z</time></trkpt><trkpt lat="47.9082" lon="-1.55301"><ele>96.0</ele><time>2026-05-02T08:09:12.139Z</time></trkpt><trkpt lat="47.908135" lon="-1.5527883"><ele>96.0</ele><time>2026-05-02T08:09:13.139Z</time></trkpt><trkpt lat="47.9080667" lon="-1.552565"><ele>96.0</ele><time>2026-05-02T08:09:14.141Z</time></trkpt><trkpt lat="47.9079983" lon="-1.55235"><ele>96.0</ele><time>2026-05-02T08:09:15.14Z</time></trkpt><trkpt lat="47.9079317" lon="-1.5521483"><ele>96.0</ele><time>2026-05-02T08:09:16.139Z</time></trkpt><trkpt lat="47.907865" lon="-1.5519667"><ele>96.0</ele><time>2026-05-02T08:09:17.139Z</time></trkpt><trkpt lat="47.907805" lon="-1.55181"><ele>96.0</ele><time>2026-05-02T08:09:18.14Z</time></trkpt><trkpt lat="47.9077533" lon="-1.5516833"><ele>96.19999999999999</ele><time>2026-05-02T08:09:19.138Z</time></trkpt><trkpt lat="47.90771" lon="-1.5515783"><ele>96.39999999999999</ele><time>2026-05-02T08:09:20.139Z</time></trkpt><trkpt lat="47.9076767" lon="-1.5514933"><ele>96.6</ele><time>2026-05-02T08:09:21.139Z</time></trkpt><trkpt lat="47.9076567" lon="-1.55134"><ele>96.8</ele><time>2026-05-02T08:09:23.139Z</time></trkpt><trkpt lat="47.9077217" lon="-1.5512667"><ele>97.0</ele><time>2026-05-02T08:09:25.139Z</time></trkpt><trkpt lat="47.9078417" lon="-1.55122"><ele>96.6</ele><time>2026-05-02T08:09:27.14Z</time></trkpt><trkpt lat="47.90792" lon="-1.5512"><ele>96.19999999999999</ele><time>2026-05-02T08:09:28.139Z</time></trkpt><trkpt lat="47.9080167" lon="-1.5511783"><ele>95.8</ele><time>2026-05-02T08:09:29.14Z</time></trkpt><trkpt lat="47.9081233" lon="-1.5511483"><ele>95.4</ele><time>2026-05-02T08:09:30.138Z</time></trkpt><trkpt lat="47.90824" lon="-1.5511167"><ele>95.0</ele><time>2026-05-02T08:09:31.14Z</time></trkpt><trkpt lat="47.90836" lon="-1.5510867"><ele>94.5</ele><time>2026-05-02T08:09:32.139Z</time></trkpt><trkpt lat="47.908485" lon="-1.5510567"><ele>94.0</ele><time>2026-05-02T08:09:33.142Z</time></trkpt><trkpt lat="47.908605" lon="-1.5510267"><ele>93.5</ele><time>2026-05-02T08:09:34.139Z</time></trkpt><trkpt lat="47.9087183" lon="-1.551"><ele>93.0</ele><time>2026-05-02T08:09:35.138Z</time></trkpt><trkpt lat="47.908825" lon="-1.5509733"><ele>93.0</ele><time>2026-05-02T08:09:36.139Z</time></trkpt><trkpt lat="47.908925" lon="-1.55095"><ele>93.0</ele><time>2026-05-02T08:09:37.139Z</time></trkpt><trkpt lat="47.9090183" lon="-1.55093"><ele>93.0</ele><time>2026-05-02T08:09:38.14Z</time></trkpt><trkpt lat="47.909105" lon="-1.5509267"><ele>93.0</ele><time>2026-05-02T08:09:39.143Z</time></trkpt><trkpt lat="47.9091833" lon="-1.5509467"><ele>93.0</ele><time>2026-05-02T08:09:40.139Z</time></trkpt><trkpt lat="47.90926" lon="-1.55099"><ele>93.0</ele><time>2026-05-02T08:09:41.139Z</time></trkpt><trkpt lat="47.909335" lon="-1.551065"><ele>93.0</ele><time>2026-05-02T08:09:42.139Z</time></trkpt><trkpt lat="47.9094033" lon="-1.55117"><ele>93.0</ele><time>2026-05-02T08:09:43.139Z</time></trkpt><trkpt lat="47.90947" lon="-1.55129"><ele>93.0</ele><time>2026-05-02T08:09:44.139Z</time></trkpt><trkpt lat="47.9095333" lon="-1.5514167"><ele>93.0</ele><time>2026-05-02T08:09:45.139Z</time></trkpt><trkpt lat="47.909585" lon="-1.5515267"><ele>93.0</ele><time>2026-05-02T08:09:46.139Z</time></trkpt><trkpt lat="47.9096367" lon="-1.5516183"><ele>93.0</ele><time>2026-05-02T08:09:47.139Z</time></trkpt><trkpt lat="47.9096933" lon="-1.5516817"><ele>93.0</ele><time>2026-05-02T08:09:48.142Z</time></trkpt><trkpt lat="47.9097567" lon="-1.5517067"><ele>93.0</ele><time>2026-05-02T08:09:49.14Z</time></trkpt><trkpt lat="47.9098317" lon="-1.5516867"><ele>93.0</ele><time>2026-05-02T08:09:50.139Z</time></trkpt><trkpt lat="47.9099183" lon="-1.5516583"><ele>93.0</ele><time>2026-05-02T08:09:51.139Z</time></trkpt><trkpt lat="47.9100133" lon="-1.5516317"><ele>93.0</ele><time>2026-05-02T08:09:52.139Z</time></trkpt><trkpt lat="47.9101117" lon="-1.55161"><ele>92.80000000000001</ele><time>2026-05-02T08:09:53.139Z</time></trkpt><trkpt lat="47.9102117" lon="-1.551595"><ele>92.6</ele><time>2026-05-02T08:09:54.141Z</time></trkpt><trkpt lat="47.91031" lon="-1.5515867"><ele>92.4</ele><time>2026-05-02T08:09:55.14Z</time></trkpt><trkpt lat="47.9104083" lon="-1.5515833"><ele>92.19999999999999</ele><time>2026-05-02T08:09:56.139Z</time></trkpt><trkpt lat="47.910505" lon="-1.5515817"><ele>92.0</ele><time>2026-05-02T08:09:57.139Z</time></trkpt><trkpt lat="47.9105917" lon="-1.5515767"><ele>92.0</ele><time>2026-05-02T08:09:58.14Z</time></trkpt><trkpt lat="47.9106683" lon="-1.551575"><ele>92.0</ele><time>2026-05-02T08:09:59.139Z</time></trkpt><trkpt lat="47.91074" lon="-1.5515833"><ele>92.0</ele><time>2026-05-02T08:10:00.139Z</time></trkpt><trkpt lat="47.910805" lon="-1.5516067"><ele>92.0</ele><time>2026-05-02T08:10:01.139Z</time></trkpt><trkpt lat="47.9108717" lon="-1.551655"><ele>92.0</ele><time>2026-05-02T08:10:02.139Z</time></trkpt><trkpt lat="47.9109467" lon="-1.55173"><ele>92.0</ele><time>2026-05-02T08:10:03.139Z</time></trkpt><trkpt lat="47.91103" lon="-1.5518167"><ele>91.8</ele><time>2026-05-02T08:10:04.139Z</time></trkpt><trkpt lat="47.91112" lon="-1.5519167"><ele>91.6</ele><time>2026-05-02T08:10:05.139Z</time></trkpt><trkpt lat="47.9112083" lon="-1.55202"><ele>91.39999999999999</ele><time>2026-05-02T08:10:06.139Z</time></trkpt><trkpt lat="47.9112967" lon="-1.5521183"><ele>91.19999999999999</ele><time>2026-05-02T08:10:07.139Z</time></trkpt><trkpt lat="47.9113867" lon="-1.5522133"><ele>91.0</ele><time>2026-05-02T08:10:08.139Z</time></trkpt><trkpt lat="47.9114733" lon="-1.55231"><ele>91.0</ele><time>2026-05-02T08:10:09.147Z</time></trkpt><trkpt lat="47.9115617" lon="-1.5523967"><ele>91.0</ele><time>2026-05-02T08:10:10.138Z</time></trkpt><trkpt lat="47.9116467" lon="-1.552485"><ele>91.0</ele><time>2026-05-02T08:10:11.14Z</time></trkpt><trkpt lat="47.911735" lon="-1.552575"><ele>91.0</ele><time>2026-05-02T08:10:12.139Z</time></trkpt><trkpt lat="47.91182" lon="-1.5526633"><ele>91.0</ele><time>2026-05-02T08:10:13.142Z</time></trkpt><trkpt lat="47.9119067" lon="-1.55273"><ele>91.0</ele><time>2026-05-02T08:10:14.139Z</time></trkpt><trkpt lat="47.9119983" lon="-1.5527833"><ele>91.0</ele><time>2026-05-02T08:10:15.139Z</time></trkpt><trkpt lat="47.912095" lon="-1.55283"><ele>91.0</ele><time>2026-05-02T08:10:16.139Z</time></trkpt><trkpt lat="47.912195" lon="-1.5528767"><ele>91.0</ele><time>2026-05-02T08:10:17.139Z</time></trkpt><trkpt lat="47.9122983" lon="-1.55292"><ele>91.0</ele><time>2026-05-02T08:10:18.138Z</time></trkpt><trkpt lat="47.9123983" lon="-1.5529667"><ele>91.25</ele><time>2026-05-02T08:10:19.139Z</time></trkpt><trkpt lat="47.91251" lon="-1.553025"><ele>91.5</ele><time>2026-05-02T08:10:20.139Z</time></trkpt><trkpt lat="47.91262" lon="-1.5530783"><ele>91.75</ele><time>2026-05-02T08:10:21.139Z</time></trkpt><trkpt lat="47.9127367" lon="-1.553135"><ele>92.0</ele><time>2026-05-02T08:10:22.139Z</time></trkpt><trkpt lat="47.9128617" lon="-1.5532"><ele>93.0</ele><time>2026-05-02T08:10:23.142Z</time></trkpt><trkpt lat="47.9129867" lon="-1.5532567"><ele>94.0</ele><time>2026-05-02T08:10:24.142Z</time></trkpt><trkpt lat="47.9131067" lon="-1.55331"><ele>95.0</ele><time>2026-05-02T08:10:25.141Z</time></trkpt><trkpt lat="47.9132217" lon="-1.5533583"><ele>96.0</ele><time>2026-05-02T08:10:26.141Z</time></trkpt><trkpt lat="47.9133333" lon="-1.5534233"><ele>96.5</ele><time>2026-05-02T08:10:27.14Z</time></trkpt><trkpt lat="47.913445" lon="-1.553485"><ele>97.0</ele><time>2026-05-02T08:10:28.138Z</time></trkpt><trkpt lat="47.9135533" lon="-1.5535417"><ele>97.5</ele><time>2026-05-02T08:10:29.139Z</time></trkpt><trkpt lat="47.913665" lon="-1.553595"><ele>98.0</ele><time>2026-05-02T08:10:30.139Z</time></trkpt><trkpt lat="47.9137817" lon="-1.5536467"><ele>98.0</ele><time>2026-05-02T08:10:31.139Z</time></trkpt><trkpt lat="47.9139033" lon="-1.55369"><ele>98.0</ele><time>2026-05-02T08:10:32.144Z</time></trkpt><trkpt lat="47.9140283" lon="-1.5537383"><ele>98.0</ele><time>2026-05-02T08:10:33.14Z</time></trkpt><trkpt lat="47.9141533" lon="-1.55378"><ele>98.0</ele><time>2026-05-02T08:10:34.139Z</time></trkpt><trkpt lat="47.9142817" lon="-1.5538233"><ele>98.25</ele><time>2026-05-02T08:10:35.139Z</time></trkpt><trkpt lat="47.9144017" lon="-1.5538683"><ele>98.5</ele><time>2026-05-02T08:10:36.139Z</time></trkpt><trkpt lat="47.9145217" lon="-1.5539367"><ele>98.75</ele><time>2026-05-02T08:10:37.139Z</time></trkpt><trkpt lat="47.9146467" lon="-1.554015"><ele>99.0</ele><time>2026-05-02T08:10:38.14Z</time></trkpt><trkpt lat="47.9147683" lon="-1.554095"><ele>99.0</ele><time>2026-05-02T08:10:39.139Z</time></trkpt><trkpt lat="47.91489" lon="-1.5541683"><ele>99.0</ele><time>2026-05-02T08:10:40.139Z</time></trkpt><trkpt lat="47.9150083" lon="-1.554235"><ele>99.0</ele><time>2026-05-02T08:10:41.139Z</time></trkpt><trkpt lat="47.915125" lon="-1.5542933"><ele>99.0</ele><time>2026-05-02T08:10:42.139Z</time></trkpt><trkpt lat="47.91525" lon="-1.5543383"><ele>99.25</ele><time>2026-05-02T08:10:43.139Z</time></trkpt><trkpt lat="47.9153867" lon="-1.5543667"><ele>99.5</ele><time>2026-05-02T08:10:44.141Z</time></trkpt><trkpt lat="47.9155283" lon="-1.5543867"><ele>99.75</ele><time>2026-05-02T08:10:45.143Z</time></trkpt><trkpt lat="47.9156667" lon="-1.5544"><ele>100.0</ele><time>2026-05-02T08:10:46.138Z</time></trkpt><trkpt lat="47.9158017" lon="-1.5544167"><ele>101.0</ele><time>2026-05-02T08:10:47.141Z</time></trkpt><trkpt lat="47.91593" lon="-1.55443"><ele>102.0</ele><time>2026-05-02T08:10:48.139Z</time></trkpt><trkpt lat="47.9160567" lon="-1.5544417"><ele>103.0</ele><time>2026-05-02T08:10:49.14Z</time></trkpt><trkpt lat="47.9161817" lon="-1.554455"><ele>104.0</ele><time>2026-05-02T08:10:50.139Z</time></trkpt><trkpt lat="47.9163033" lon="-1.5544683"><ele>104.0</ele><time>2026-05-02T08:10:51.139Z</time></trkpt><trkpt lat="47.9164183" lon="-1.5544817"><ele>104.0</ele><time>2026-05-02T08:10:52.139Z</time></trkpt><trkpt lat="47.9165383" lon="-1.5544917"><ele>104.0</ele><time>2026-05-02T08:10:53.139Z</time></trkpt><trkpt lat="47.91666" lon="-1.5544917"><ele>104.0</ele><time>2026-05-02T08:10:54.138Z</time></trkpt><trkpt lat="47.9167805" lon="-1.5544848"><ele>104.75</ele><time>2026-05-02T08:10:55.139Z</time></trkpt><trkpt lat="47.9169056" lon="-1.55447"><ele>105.5</ele><time>2026-05-02T08:10:56.139Z</time></trkpt><trkpt lat="47.9170341" lon="-1.5544562"><ele>106.25</ele><time>2026-05-02T08:10:57.139Z</time></trkpt><trkpt lat="47.9171634" lon="-1.554441"><ele>107.0</ele><time>2026-05-02T08:10:58.139Z</time></trkpt><trkpt lat="47.9172936" lon="-1.5544282"><ele>107.0</ele><time>2026-05-02T08:10:59.138Z</time></trkpt><trkpt lat="47.9174241" lon="-1.5544185"><ele>107.0</ele><time>2026-05-02T08:11:00.141Z</time></trkpt><trkpt lat="47.9175595" lon="-1.5544118"><ele>107.0</ele><time>2026-05-02T08:11:01.142Z</time></trkpt><trkpt lat="47.9176973" lon="-1.5544038"><ele>107.0</ele><time>2026-05-02T08:11:02.141Z</time></trkpt><trkpt lat="47.9178336" lon="-1.554396"><ele>107.5</ele><time>2026-05-02T08:11:03.142Z</time></trkpt><trkpt lat="47.917968" lon="-1.5543923"><ele>108.0</ele><time>2026-05-02T08:11:04.142Z</time></trkpt><trkpt lat="47.9180961" lon="-1.5543814"><ele>108.5</ele><time>2026-05-02T08:11:05.139Z</time></trkpt><trkpt lat="47.9182235" lon="-1.554373"><ele>109.0</ele><time>2026-05-02T08:11:06.14Z</time></trkpt><trkpt lat="47.9183434" lon="-1.5543587"><ele>109.75</ele><time>2026-05-02T08:11:07.14Z</time></trkpt><trkpt lat="47.9184625" lon="-1.5543403"><ele>110.5</ele><time>2026-05-02T08:11:08.139Z</time></trkpt><trkpt lat="47.9185829" lon="-1.5543233"><ele>111.25</ele><time>2026-05-02T08:11:09.141Z</time></trkpt><trkpt lat="47.9187035" lon="-1.5543118"><ele>112.0</ele><time>2026-05-02T08:11:10.142Z</time></trkpt><trkpt lat="47.9188233" lon="-1.5543"><ele>112.0</ele><time>2026-05-02T08:11:11.143Z</time></trkpt><trkpt lat="47.9189424" lon="-1.554296"><ele>111.99999999999999</ele><time>2026-05-02T08:11:12.141Z</time></trkpt><trkpt lat="47.9190526" lon="-1.5542925"><ele>111.99999999999999</ele><time>2026-05-02T08:11:13.14Z</time></trkpt><trkpt lat="47.9191519" lon="-1.5542869"><ele>112.0</ele><time>2026-05-02T08:11:14.145Z</time></trkpt><trkpt lat="47.9192406" lon="-1.55428"><ele>112.0</ele><time>2026-05-02T08:11:15.14Z</time></trkpt><trkpt lat="47.9193277" lon="-1.5542725"><ele>112.66666666666667</ele><time>2026-05-02T08:11:16.141Z</time></trkpt><trkpt lat="47.919411" lon="-1.5542573"><ele>113.33333333333334</ele><time>2026-05-02T08:11:17.141Z</time></trkpt><trkpt lat="47.919491" lon="-1.5542316"><ele>114.0</ele><time>2026-05-02T08:11:18.139Z</time></trkpt><trkpt lat="47.9195649" lon="-1.5541984"><ele>114.66666666666666</ele><time>2026-05-02T08:11:19.14Z</time></trkpt><trkpt lat="47.919632" lon="-1.5541661"><ele>115.33333333333333</ele><time>2026-05-02T08:11:20.14Z</time></trkpt><trkpt lat="47.9196941" lon="-1.5541367"><ele>116.0</ele><time>2026-05-02T08:11:21.139Z</time></trkpt><trkpt lat="47.9197914" lon="-1.5541019"><ele>115.99999999999999</ele><time>2026-05-02T08:11:23.14Z</time></trkpt><trkpt lat="47.9198585" lon="-1.5541157"><ele>116.0</ele><time>2026-05-02T08:11:26.14Z</time></trkpt><trkpt lat="47.9198585" lon="-1.5541157"><ele>116.0</ele><time>2026-05-02T08:11:26.14Z</time></trkpt><trkpt lat="47.9198585" lon="-1.5541157"><ele>116.0</ele><time>2026-05-02T08:11:26.14Z</time></trkpt><trkpt lat="47.9198585" lon="-1.5541157"><ele>116.0</ele><time>2026-05-02T08:11:26.14Z</time></trkpt><trkpt lat="47.9198723" lon="-1.5540171"><ele>116.0</ele><time>2026-05-02T08:14:34.141Z</time></trkpt><trkpt lat="47.9199141" lon="-1.5540948"><ele>116.0</ele><time>2026-05-02T08:14:43.14Z</time></trkpt><trkpt lat="47.9198509" lon="-1.5541657"><ele>116.0</ele><time>2026-05-02T08:14:55.139Z</time></trkpt><trkpt lat="47.9198244" lon="-1.5542601"><ele>115.99999999999999</ele><time>2026-05-02T08:15:08.14Z</time></trkpt><trkpt lat="47.9197783" lon="-1.55436"><ele>116.0</ele><time>2026-05-02T08:15:10.14Z</time></trkpt><trkpt lat="47.919735" lon="-1.5544667"><ele>115.5</ele><time>2026-05-02T08:15:12.14Z</time></trkpt><trkpt lat="47.919675" lon="-1.5546"><ele>115.0</ele><time>2026-05-02T08:15:14.139Z</time></trkpt><trkpt lat="47.91959" lon="-1.5547367"><ele>114.5</ele><time>2026-05-02T08:15:16.139Z</time></trkpt><trkpt lat="47.9195117" lon="-1.554875"><ele>114.0</ele><time>2026-05-02T08:15:18.144Z</time></trkpt><trkpt lat="47.91943" lon="-1.55501"><ele>114.0</ele><time>2026-05-02T08:15:20.144Z</time></trkpt><trkpt lat="47.919385" lon="-1.5550833"><ele>113.99999999999999</ele><time>2026-05-02T08:15:21.141Z</time></trkpt><trkpt lat="47.9193433" lon="-1.555155"><ele>114.0</ele><time>2026-05-02T08:15:22.143Z</time></trkpt><trkpt lat="47.9193033" lon="-1.5552333"><ele>114.0</ele><time>2026-05-02T08:15:23.14Z</time></trkpt><trkpt lat="47.9192667" lon="-1.55531"><ele>113.99999999999999</ele><time>2026-05-02T08:15:24.142Z</time></trkpt><trkpt lat="47.9192267" lon="-1.5553833"><ele>114.0</ele><time>2026-05-02T08:15:25.142Z</time></trkpt><trkpt lat="47.9191633" lon="-1.555525"><ele>114.0</ele><time>2026-05-02T08:15:27.141Z</time></trkpt><trkpt lat="47.9191017" lon="-1.5556533"><ele>113.0</ele><time>2026-05-02T08:15:29.14Z</time></trkpt><trkpt lat="47.919055" lon="-1.5557717"><ele>112.0</ele><time>2026-05-02T08:15:31.14Z</time></trkpt><trkpt lat="47.919005" lon="-1.5558667"><ele>111.0</ele><time>2026-05-02T08:15:33.14Z</time></trkpt><trkpt lat="47.9189433" lon="-1.5559867"><ele>110.0</ele><time>2026-05-02T08:15:35.14Z</time></trkpt><trkpt lat="47.9188783" lon="-1.5561183"><ele>109.0</ele><time>2026-05-02T08:15:37.14Z</time></trkpt><trkpt lat="47.918815" lon="-1.5562533"><ele>109.0</ele><time>2026-05-02T08:15:39.14Z</time></trkpt><trkpt lat="47.918745" lon="-1.5563933"><ele>109.0</ele><time>2026-05-02T08:15:41.14Z</time></trkpt><trkpt lat="47.9186917" lon="-1.5565183"><ele>109.0</ele><time>2026-05-02T08:15:43.141Z</time></trkpt><trkpt lat="47.918635" lon="-1.55663"><ele>109.0</ele><time>2026-05-02T08:15:45.14Z</time></trkpt><trkpt lat="47.9185767" lon="-1.5567417"><ele>109.0</ele><time>2026-05-02T08:15:47.14Z</time></trkpt><trkpt lat="47.91852" lon="-1.5568617"><ele>109.0</ele><time>2026-05-02T08:15:49.141Z</time></trkpt><trkpt lat="47.9184617" lon="-1.5569983"><ele>109.0</ele><time>2026-05-02T08:15:51.143Z</time></trkpt><trkpt lat="47.9184" lon="-1.557145"><ele>109.0</ele><time>2026-05-02T08:15:53.139Z</time></trkpt><trkpt lat="47.9183417" lon="-1.557275"><ele>109.0</ele><time>2026-05-02T08:15:55.14Z</time></trkpt><trkpt lat="47.9182867" lon="-1.557405"><ele>109.0</ele><time>2026-05-02T08:15:57.139Z</time></trkpt><trkpt lat="47.91823" lon="-1.55753"><ele>108.80000000000001</ele><time>2026-05-02T08:15:59.14Z</time></trkpt><trkpt lat="47.918175" lon="-1.55765"><ele>108.60000000000001</ele><time>2026-05-02T08:16:01.142Z</time></trkpt><trkpt lat="47.9181117" lon="-1.557775"><ele>108.4</ele><time>2026-05-02T08:16:03.14Z</time></trkpt><trkpt lat="47.9180483" lon="-1.5578983"><ele>108.2</ele><time>2026-05-02T08:16:05.14Z</time></trkpt><trkpt lat="47.9179817" lon="-1.5580283"><ele>108.0</ele><time>2026-05-02T08:16:07.146Z</time></trkpt><trkpt lat="47.917915" lon="-1.5581667"><ele>107.60000000000001</ele><time>2026-05-02T08:16:09.142Z</time></trkpt><trkpt lat="47.917845" lon="-1.558305"><ele>107.20000000000002</ele><time>2026-05-02T08:16:11.143Z</time></trkpt><trkpt lat="47.9177783" lon="-1.5584317"><ele>106.8</ele><time>2026-05-02T08:16:13.14Z</time></trkpt><trkpt lat="47.9177267" lon="-1.5585117"><ele>106.4</ele><time>2026-05-02T08:16:14.139Z</time></trkpt><trkpt lat="47.91767" lon="-1.558595"><ele>106.0</ele><time>2026-05-02T08:16:15.139Z</time></trkpt><trkpt lat="47.917615" lon="-1.5586717"><ele>105.57142857142857</ele><time>2026-05-02T08:16:16.139Z</time></trkpt><trkpt lat="47.91756" lon="-1.5587433"><ele>105.14285714285714</ele><time>2026-05-02T08:16:17.14Z</time></trkpt><trkpt lat="47.9175033" lon="-1.5588183"><ele>104.71428571428571</ele><time>2026-05-02T08:16:18.139Z</time></trkpt><trkpt lat="47.9174417" lon="-1.5588933"><ele>104.28571428571428</ele><time>2026-05-02T08:16:19.139Z</time></trkpt><trkpt lat="47.917385" lon="-1.5589617"><ele>103.85714285714286</ele><time>2026-05-02T08:16:20.141Z</time></trkpt><trkpt lat="47.9173317" lon="-1.5590283"><ele>103.42857142857142</ele><time>2026-05-02T08:16:21.14Z</time></trkpt><trkpt lat="47.91728" lon="-1.5590883"><ele>103.0</ele><time>2026-05-02T08:16:22.14Z</time></trkpt><trkpt lat="47.9171867" lon="-1.5592017"><ele>103.0</ele><time>2026-05-02T08:16:24.14Z</time></trkpt><trkpt lat="47.9170983" lon="-1.5593117"><ele>103.0</ele><time>2026-05-02T08:16:26.139Z</time></trkpt><trkpt lat="47.9170167" lon="-1.55941"><ele>103.0</ele><time>2026-05-02T08:16:28.141Z</time></trkpt><trkpt lat="47.9169567" lon="-1.559465"><ele>103.0</ele><time>2026-05-02T08:16:29.14Z</time></trkpt><trkpt lat="47.916895" lon="-1.5595317"><ele>103.0</ele><time>2026-05-02T08:16:30.138Z</time></trkpt><trkpt lat="47.9168017" lon="-1.5596467"><ele>103.14285714285714</ele><time>2026-05-02T08:16:32.141Z</time></trkpt><trkpt lat="47.9167517" lon="-1.5597133"><ele>103.28571428571428</ele><time>2026-05-02T08:16:33.14Z</time></trkpt><trkpt lat="47.9167017" lon="-1.559775"><ele>103.42857142857142</ele><time>2026-05-02T08:16:34.139Z</time></trkpt><trkpt lat="47.916645" lon="-1.5598367"><ele>103.57142857142857</ele><time>2026-05-02T08:16:35.14Z</time></trkpt><trkpt lat="47.91659" lon="-1.5599033"><ele>103.71428571428572</ele><time>2026-05-02T08:16:36.14Z</time></trkpt><trkpt lat="47.9165317" lon="-1.5599717"><ele>103.85714285714285</ele><time>2026-05-02T08:16:37.14Z</time></trkpt><trkpt lat="47.9164783" lon="-1.5600367"><ele>104.0</ele><time>2026-05-02T08:16:38.143Z</time></trkpt><trkpt lat="47.91642" lon="-1.560095"><ele>103.2</ele><time>2026-05-02T08:16:39.14Z</time></trkpt><trkpt lat="47.9163667" lon="-1.5601467"><ele>102.4</ele><time>2026-05-02T08:16:40.14Z</time></trkpt><trkpt lat="47.9162667" lon="-1.56025"><ele>101.6</ele><time>2026-05-02T08:16:42.14Z</time></trkpt><trkpt lat="47.9161917" lon="-1.5603483"><ele>100.8</ele><time>2026-05-02T08:16:44.139Z</time></trkpt><trkpt lat="47.9161167" lon="-1.5604267"><ele>100.0</ele><time>2026-05-02T08:16:46.139Z</time></trkpt><trkpt lat="47.916045" lon="-1.5605083"><ele>100.00000000000001</ele><time>2026-05-02T08:16:48.139Z</time></trkpt><trkpt lat="47.915985" lon="-1.560575"><ele>100.0</ele><time>2026-05-02T08:16:50.142Z</time></trkpt><trkpt lat="47.9159283" lon="-1.5606417"><ele>100.0</ele><time>2026-05-02T08:16:52.139Z</time></trkpt><trkpt lat="47.915875" lon="-1.560695"><ele>100.0</ele><time>2026-05-02T08:16:54.142Z</time></trkpt><trkpt lat="47.9158083" lon="-1.5607917"><ele>100.00000000000001</ele><time>2026-05-02T08:16:57.139Z</time></trkpt><trkpt lat="47.9157167" lon="-1.560905"><ele>100.0</ele><time>2026-05-02T08:16:59.14Z</time></trkpt><trkpt lat="47.91566" lon="-1.5609667"><ele>99.2</ele><time>2026-05-02T08:17:00.14Z</time></trkpt><trkpt lat="47.9156017" lon="-1.5610267"><ele>98.4</ele><time>2026-05-02T08:17:01.14Z</time></trkpt><trkpt lat="47.9155533" lon="-1.5610933"><ele>97.6</ele><time>2026-05-02T08:17:02.139Z</time></trkpt><trkpt lat="47.91546" lon="-1.5612033"><ele>96.8</ele><time>2026-05-02T08:17:04.139Z</time></trkpt><trkpt lat="47.91537" lon="-1.5613133"><ele>96.0</ele><time>2026-05-02T08:17:06.141Z</time></trkpt><trkpt lat="47.9152867" lon="-1.56143"><ele>96.0</ele><time>2026-05-02T08:17:08.139Z</time></trkpt><trkpt lat="47.9152067" lon="-1.5615267"><ele>96.0</ele><time>2026-05-02T08:17:10.14Z</time></trkpt><trkpt lat="47.915125" lon="-1.5616317"><ele>96.0</ele><time>2026-05-02T08:17:12.138Z</time></trkpt><trkpt lat="47.9150417" lon="-1.5617333"><ele>96.0</ele><time>2026-05-02T08:17:14.142Z</time></trkpt><trkpt lat="47.9149917" lon="-1.5617967"><ele>96.0</ele><time>2026-05-02T08:17:15.14Z</time></trkpt><trkpt lat="47.9148967" lon="-1.5619017"><ele>96.0</ele><time>2026-05-02T08:17:17.144Z</time></trkpt><trkpt lat="47.9148117" lon="-1.5620033"><ele>96.0</ele><time>2026-05-02T08:17:19.145Z</time></trkpt><trkpt lat="47.9147283" lon="-1.5621"><ele>96.0</ele><time>2026-05-02T08:17:21.14Z</time></trkpt><trkpt lat="47.914635" lon="-1.5622083"><ele>96.0</ele><time>2026-05-02T08:17:23.14Z</time></trkpt><trkpt lat="47.91454" lon="-1.5623283"><ele>96.0</ele><time>2026-05-02T08:17:25.14Z</time></trkpt><trkpt lat="47.9144433" lon="-1.5624467"><ele>96.0</ele><time>2026-05-02T08:17:27.141Z</time></trkpt><trkpt lat="47.9143883" lon="-1.5625033"><ele>96.0</ele><time>2026-05-02T08:17:28.139Z</time></trkpt><trkpt lat="47.9143333" lon="-1.5625683"><ele>96.0</ele><time>2026-05-02T08:17:29.139Z</time></trkpt><trkpt lat="47.9142817" lon="-1.5626367"><ele>96.0</ele><time>2026-05-02T08:17:30.139Z</time></trkpt><trkpt lat="47.9142217" lon="-1.5627067"><ele>96.0</ele><time>2026-05-02T08:17:31.14Z</time></trkpt><trkpt lat="47.9141583" lon="-1.56278"><ele>95.71428571428571</ele><time>2026-05-02T08:17:32.139Z</time></trkpt><trkpt lat="47.9141033" lon="-1.562845"><ele>95.42857142857143</ele><time>2026-05-02T08:17:33.141Z</time></trkpt><trkpt lat="47.9140467" lon="-1.5629167"><ele>95.14285714285714</ele><time>2026-05-02T08:17:34.139Z</time></trkpt><trkpt lat="47.91399" lon="-1.5629833"><ele>94.85714285714286</ele><time>2026-05-02T08:17:35.141Z</time></trkpt><trkpt lat="47.9139383" lon="-1.5630517"><ele>94.57142857142857</ele><time>2026-05-02T08:17:36.14Z</time></trkpt><trkpt lat="47.9138867" lon="-1.563115"><ele>94.28571428571428</ele><time>2026-05-02T08:17:37.14Z</time></trkpt><trkpt lat="47.9138383" lon="-1.5631817"><ele>94.0</ele><time>2026-05-02T08:17:38.139Z</time></trkpt><trkpt lat="47.91379" lon="-1.5632467"><ele>94.0</ele><time>2026-05-02T08:17:39.14Z</time></trkpt><trkpt lat="47.9137367" lon="-1.5633117"><ele>94.0</ele><time>2026-05-02T08:17:40.139Z</time></trkpt><trkpt lat="47.91365" lon="-1.5634083"><ele>94.0</ele><time>2026-05-02T08:17:42.141Z</time></trkpt><trkpt lat="47.9135833" lon="-1.5634817"><ele>94.0</ele><time>2026-05-02T08:17:44.139Z</time></trkpt><trkpt lat="47.9135233" lon="-1.5635467"><ele>94.0</ele><time>2026-05-02T08:17:46.139Z</time></trkpt><trkpt lat="47.913455" lon="-1.56361"><ele>94.0</ele><time>2026-05-02T08:17:48.139Z</time></trkpt><trkpt lat="47.9133917" lon="-1.5637"><ele>93.83333333333333</ele><time>2026-05-02T08:17:50.139Z</time></trkpt><trkpt lat="47.9133317" lon="-1.5637967"><ele>93.66666666666666</ele><time>2026-05-02T08:17:52.139Z</time></trkpt><trkpt lat="47.91332" lon="-1.5639067"><ele>93.5</ele><time>2026-05-02T08:17:54.139Z</time></trkpt><trkpt lat="47.9133283" lon="-1.5640383"><ele>93.33333333333333</ele><time>2026-05-02T08:17:56.14Z</time></trkpt><trkpt lat="47.9133417" lon="-1.5641617"><ele>93.16666666666667</ele><time>2026-05-02T08:17:58.139Z</time></trkpt><trkpt lat="47.91336" lon="-1.5642533"><ele>93.0</ele><time>2026-05-02T08:18:00.139Z</time></trkpt><trkpt lat="47.9133383" lon="-1.5643517"><ele>93.0</ele><time>2026-05-02T08:18:21.141Z</time></trkpt><trkpt lat="47.91325" lon="-1.5643717"><ele>93.0</ele><time>2026-05-02T08:18:23.139Z</time></trkpt><trkpt lat="47.91313" lon="-1.5644533"><ele>93.0</ele><time>2026-05-02T08:18:25.139Z</time></trkpt><trkpt lat="47.9130583" lon="-1.564505"><ele>93.0</ele><time>2026-05-02T08:18:26.139Z</time></trkpt><trkpt lat="47.912975" lon="-1.564565"><ele>93.0</ele><time>2026-05-02T08:18:27.14Z</time></trkpt><trkpt lat="47.9128867" lon="-1.5646317"><ele>92.60000000000001</ele><time>2026-05-02T08:18:28.139Z</time></trkpt><trkpt lat="47.9127967" lon="-1.5647"><ele>92.2</ele><time>2026-05-02T08:18:29.14Z</time></trkpt><trkpt lat="47.9127083" lon="-1.5647633"><ele>91.8</ele><time>2026-05-02T08:18:30.141Z</time></trkpt><trkpt lat="47.9126217" lon="-1.56483"><ele>91.4</ele><time>2026-05-02T08:18:31.142Z</time></trkpt><trkpt lat="47.9125317" lon="-1.5648917"><ele>91.0</ele><time>2026-05-02T08:18:32.139Z</time></trkpt><trkpt lat="47.9124417" lon="-1.5649467"><ele>90.83333333333333</ele><time>2026-05-02T08:18:33.139Z</time></trkpt><trkpt lat="47.9123633" lon="-1.5649933"><ele>90.66666666666666</ele><time>2026-05-02T08:18:34.14Z</time></trkpt><trkpt lat="47.91229" lon="-1.5650417"><ele>90.5</ele><time>2026-05-02T08:18:35.139Z</time></trkpt><trkpt lat="47.912225" lon="-1.5650867"><ele>90.33333333333333</ele><time>2026-05-02T08:18:36.139Z</time></trkpt><trkpt lat="47.9121667" lon="-1.5651283"><ele>90.16666666666667</ele><time>2026-05-02T08:18:37.139Z</time></trkpt><trkpt lat="47.9120617" lon="-1.5652083"><ele>90.0</ele><time>2026-05-02T08:18:39.139Z</time></trkpt><trkpt lat="47.9119583" lon="-1.5652833"><ele>90.0</ele><time>2026-05-02T08:18:41.14Z</time></trkpt><trkpt lat="47.9118517" lon="-1.5653733"><ele>90.0</ele><time>2026-05-02T08:18:43.141Z</time></trkpt><trkpt lat="47.9117917" lon="-1.5654233"><ele>90.0</ele><time>2026-05-02T08:18:44.139Z</time></trkpt><trkpt lat="47.9117333" lon="-1.5654633"><ele>90.0</ele><time>2026-05-02T08:18:45.14Z</time></trkpt><trkpt lat="47.91168" lon="-1.5655133"><ele>90.0</ele><time>2026-05-02T08:18:46.14Z</time></trkpt><trkpt lat="47.911575" lon="-1.5656117"><ele>90.0</ele><time>2026-05-02T08:18:48.139Z</time></trkpt><trkpt lat="47.9114733" lon="-1.565695"><ele>90.0</ele><time>2026-05-02T08:18:50.14Z</time></trkpt><trkpt lat="47.911415" lon="-1.5657417"><ele>90.0</ele><time>2026-05-02T08:18:51.139Z</time></trkpt><trkpt lat="47.911355" lon="-1.5657767"><ele>90.0</ele><time>2026-05-02T08:18:52.14Z</time></trkpt><trkpt lat="47.9112517" lon="-1.5658283"><ele>90.0</ele><time>2026-05-02T08:18:54.139Z</time></trkpt><trkpt lat="47.91115" lon="-1.5658717"><ele>90.0</ele><time>2026-05-02T08:18:56.14Z</time></trkpt><trkpt lat="47.9110867" lon="-1.5658917"><ele>90.0</ele><time>2026-05-02T08:18:57.147Z</time></trkpt><trkpt lat="47.9109833" lon="-1.5659267"><ele>90.0</ele><time>2026-05-02T08:18:59.14Z</time></trkpt><trkpt lat="47.9108817" lon="-1.5659733"><ele>90.0</ele><time>2026-05-02T08:19:01.14Z</time></trkpt><trkpt lat="47.9107783" lon="-1.5660233"><ele>90.0</ele><time>2026-05-02T08:19:03.141Z</time></trkpt><trkpt lat="47.9106783" lon="-1.56608"><ele>90.0</ele><time>2026-05-02T08:19:05.141Z</time></trkpt><trkpt lat="47.9105717" lon="-1.5661267"><ele>90.0</ele><time>2026-05-02T08:19:07.142Z</time></trkpt><trkpt lat="47.9104583" lon="-1.5661767"><ele>89.8</ele><time>2026-05-02T08:19:09.141Z</time></trkpt><trkpt lat="47.9103583" lon="-1.5662067"><ele>89.6</ele><time>2026-05-02T08:19:11.142Z</time></trkpt><trkpt lat="47.9102617" lon="-1.5662417"><ele>89.4</ele><time>2026-05-02T08:19:13.142Z</time></trkpt><trkpt lat="47.9101767" lon="-1.56628"><ele>89.2</ele><time>2026-05-02T08:19:15.14Z</time></trkpt><trkpt lat="47.9100817" lon="-1.5663283"><ele>89.0</ele><time>2026-05-02T08:19:17.14Z</time></trkpt><trkpt lat="47.90998" lon="-1.5663733"><ele>89.0</ele><time>2026-05-02T08:19:19.14Z</time></trkpt><trkpt lat="47.9098717" lon="-1.56641"><ele>89.0</ele><time>2026-05-02T08:19:21.14Z</time></trkpt><trkpt lat="47.9097783" lon="-1.5664267"><ele>89.0</ele><time>2026-05-02T08:19:23.139Z</time></trkpt><trkpt lat="47.909695" lon="-1.56644"><ele>89.0</ele><time>2026-05-02T08:19:25.141Z</time></trkpt><trkpt lat="47.9096383" lon="-1.56651"><ele>89.0</ele><time>2026-05-02T08:19:28.139Z</time></trkpt><trkpt lat="47.909675" lon="-1.5666067"><ele>89.0</ele><time>2026-05-02T08:19:30.141Z</time></trkpt><trkpt lat="47.9097517" lon="-1.56673"><ele>89.0</ele><time>2026-05-02T08:19:32.139Z</time></trkpt><trkpt lat="47.9097967" lon="-1.5667983"><ele>89.0</ele><time>2026-05-02T08:19:33.14Z</time></trkpt><trkpt lat="47.909845" lon="-1.5668717"><ele>89.0</ele><time>2026-05-02T08:19:34.142Z</time></trkpt><trkpt lat="47.9099017" lon="-1.56695"><ele>89.0</ele><time>2026-05-02T08:19:35.14Z</time></trkpt><trkpt lat="47.9099633" lon="-1.5670317"><ele>89.0</ele><time>2026-05-02T08:19:36.141Z</time></trkpt><trkpt lat="47.91003" lon="-1.5671117"><ele>89.0</ele><time>2026-05-02T08:19:37.14Z</time></trkpt><trkpt lat="47.910105" lon="-1.5671983"><ele>89.4</ele><time>2026-05-02T08:19:38.139Z</time></trkpt><trkpt lat="47.91018" lon="-1.56728"><ele>89.80000000000001</ele><time>2026-05-02T08:19:39.14Z</time></trkpt><trkpt lat="47.9102583" lon="-1.567365"><ele>90.19999999999999</ele><time>2026-05-02T08:19:40.14Z</time></trkpt><trkpt lat="47.9103383" lon="-1.5674533"><ele>90.6</ele><time>2026-05-02T08:19:41.14Z</time></trkpt><trkpt lat="47.910425" lon="-1.5675483"><ele>91.0</ele><time>2026-05-02T08:19:42.142Z</time></trkpt><trkpt lat="47.910515" lon="-1.5676467"><ele>91.0</ele><time>2026-05-02T08:19:43.141Z</time></trkpt><trkpt lat="47.910605" lon="-1.5677583"><ele>91.0</ele><time>2026-05-02T08:19:44.14Z</time></trkpt><trkpt lat="47.9106933" lon="-1.5678933"><ele>91.0</ele><time>2026-05-02T08:19:45.14Z</time></trkpt><trkpt lat="47.91078" lon="-1.5680517"><ele>91.0</ele><time>2026-05-02T08:19:46.14Z</time></trkpt><trkpt lat="47.9108633" lon="-1.5682283"><ele>91.33333333333333</ele><time>2026-05-02T08:19:47.14Z</time></trkpt><trkpt lat="47.9109483" lon="-1.568425"><ele>91.66666666666667</ele><time>2026-05-02T08:19:48.14Z</time></trkpt><trkpt lat="47.9110317" lon="-1.56863"><ele>92.0</ele><time>2026-05-02T08:19:49.14Z</time></trkpt><trkpt lat="47.9111167" lon="-1.5688467"><ele>92.66666666666667</ele><time>2026-05-02T08:19:50.141Z</time></trkpt><trkpt lat="47.9112" lon="-1.5690617"><ele>93.33333333333333</ele><time>2026-05-02T08:19:51.14Z</time></trkpt><trkpt lat="47.911285" lon="-1.56928"><ele>94.0</ele><time>2026-05-02T08:19:52.139Z</time></trkpt><trkpt lat="47.9113767" lon="-1.5695067"><ele>94.33333333333333</ele><time>2026-05-02T08:19:53.14Z</time></trkpt><trkpt lat="47.9114667" lon="-1.5697317"><ele>94.66666666666667</ele><time>2026-05-02T08:19:54.14Z</time></trkpt><trkpt lat="47.9115517" lon="-1.5699433"><ele>95.0</ele><time>2026-05-02T08:19:55.14Z</time></trkpt><trkpt lat="47.91162" lon="-1.5701483"><ele>95.66666666666667</ele><time>2026-05-02T08:19:56.14Z</time></trkpt><trkpt lat="47.911675" lon="-1.57036"><ele>96.33333333333334</ele><time>2026-05-02T08:19:57.14Z</time></trkpt><trkpt lat="47.911715" lon="-1.5705817"><ele>97.0</ele><time>2026-05-02T08:19:58.139Z</time></trkpt><trkpt lat="47.91174" lon="-1.5708017"><ele>97.19999999999999</ele><time>2026-05-02T08:19:59.139Z</time></trkpt><trkpt lat="47.9117517" lon="-1.5710083"><ele>97.4</ele><time>2026-05-02T08:20:00.139Z</time></trkpt><trkpt lat="47.911755" lon="-1.5711933"><ele>97.6</ele><time>2026-05-02T08:20:01.14Z</time></trkpt><trkpt lat="47.9117533" lon="-1.571345"><ele>97.80000000000001</ele><time>2026-05-02T08:20:02.139Z</time></trkpt><trkpt lat="47.9117517" lon="-1.5714667"><ele>98.0</ele><time>2026-05-02T08:20:03.14Z</time></trkpt><trkpt lat="47.9117267" lon="-1.5716267"><ele>98.0</ele><time>2026-05-02T08:20:05.141Z</time></trkpt><trkpt lat="47.9116733" lon="-1.5717"><ele>98.0</ele><time>2026-05-02T08:20:07.139Z</time></trkpt><trkpt lat="47.9115933" lon="-1.5717217"><ele>98.0</ele><time>2026-05-02T08:20:10.14Z</time></trkpt><trkpt lat="47.91148" lon="-1.57173"><ele>98.0</ele><time>2026-05-02T08:20:12.141Z</time></trkpt><trkpt lat="47.9113933" lon="-1.571735"><ele>98.0</ele><time>2026-05-02T08:20:13.139Z</time></trkpt><trkpt lat="47.91129" lon="-1.5717417"><ele>98.0</ele><time>2026-05-02T08:20:14.139Z</time></trkpt><trkpt lat="47.9111633" lon="-1.571745"><ele>98.0</ele><time>2026-05-02T08:20:15.141Z</time></trkpt><trkpt lat="47.9110183" lon="-1.5717517"><ele>98.0</ele><time>2026-05-02T08:20:16.14Z</time></trkpt><trkpt lat="47.9108667" lon="-1.571765"><ele>98.0</ele><time>2026-05-02T08:20:17.139Z</time></trkpt><trkpt lat="47.9107133" lon="-1.5717817"><ele>96.66666666666666</ele><time>2026-05-02T08:20:18.14Z</time></trkpt><trkpt lat="47.9105533" lon="-1.5717983"><ele>95.33333333333333</ele><time>2026-05-02T08:20:19.139Z</time></trkpt><trkpt lat="47.9103883" lon="-1.5718133"><ele>94.0</ele><time>2026-05-02T08:20:20.14Z</time></trkpt><trkpt lat="47.9102183" lon="-1.5718283"><ele>93.66666666666666</ele><time>2026-05-02T08:20:21.14Z</time></trkpt><trkpt lat="47.9100433" lon="-1.5718467"><ele>93.33333333333333</ele><time>2026-05-02T08:20:22.14Z</time></trkpt><trkpt lat="47.9098667" lon="-1.5718633"><ele>93.0</ele><time>2026-05-02T08:20:23.14Z</time></trkpt><trkpt lat="47.909685" lon="-1.5718817"><ele>93.0</ele><time>2026-05-02T08:20:24.14Z</time></trkpt><trkpt lat="47.9095" lon="-1.5719"><ele>93.0</ele><time>2026-05-02T08:20:25.139Z</time></trkpt><trkpt lat="47.9093133" lon="-1.5719167"><ele>93.0</ele><time>2026-05-02T08:20:26.142Z</time></trkpt><trkpt lat="47.90913" lon="-1.5719317"><ele>93.33333333333333</ele><time>2026-05-02T08:20:27.14Z</time></trkpt><trkpt lat="47.9089517" lon="-1.5719417"><ele>93.66666666666666</ele><time>2026-05-02T08:20:28.141Z</time></trkpt><trkpt lat="47.90878" lon="-1.5719517"><ele>94.0</ele><time>2026-05-02T08:20:29.141Z</time></trkpt><trkpt lat="47.9086117" lon="-1.571965"><ele>94.0</ele><time>2026-05-02T08:20:30.142Z</time></trkpt><trkpt lat="47.9084467" lon="-1.5719833"><ele>94.0</ele><time>2026-05-02T08:20:31.14Z</time></trkpt><trkpt lat="47.9082917" lon="-1.572"><ele>94.0</ele><time>2026-05-02T08:20:32.14Z</time></trkpt><trkpt lat="47.9081467" lon="-1.5720167"><ele>95.75</ele><time>2026-05-02T08:20:33.14Z</time></trkpt><trkpt lat="47.9080117" lon="-1.5720333"><ele>97.5</ele><time>2026-05-02T08:20:34.141Z</time></trkpt><trkpt lat="47.9078883" lon="-1.5720533"><ele>99.25</ele><time>2026-05-02T08:20:35.142Z</time></trkpt><trkpt lat="47.9077667" lon="-1.5720833"><ele>101.0</ele><time>2026-05-02T08:20:36.139Z</time></trkpt><trkpt lat="47.907645" lon="-1.5721167"><ele>101.0</ele><time>2026-05-02T08:20:37.14Z</time></trkpt><trkpt lat="47.90753" lon="-1.57216"><ele>101.0</ele><time>2026-05-02T08:20:38.14Z</time></trkpt><trkpt lat="47.9074217" lon="-1.5722033"><ele>101.0</ele><time>2026-05-02T08:20:39.141Z</time></trkpt><trkpt lat="47.9073217" lon="-1.572245"><ele>101.0</ele><time>2026-05-02T08:20:40.14Z</time></trkpt><trkpt lat="47.9072183" lon="-1.572285"><ele>101.0</ele><time>2026-05-02T08:20:41.14Z</time></trkpt><trkpt lat="47.90711" lon="-1.572325"><ele>101.0</ele><time>2026-05-02T08:20:42.139Z</time></trkpt><trkpt lat="47.9069917" lon="-1.5723667"><ele>101.0</ele><time>2026-05-02T08:20:43.14Z</time></trkpt><trkpt lat="47.906865" lon="-1.5724133"><ele>101.0</ele><time>2026-05-02T08:20:44.14Z</time></trkpt><trkpt lat="47.9067317" lon="-1.5724633"><ele>101.0</ele><time>2026-05-02T08:20:45.141Z</time></trkpt><trkpt lat="47.9065983" lon="-1.572515"><ele>101.75</ele><time>2026-05-02T08:20:46.14Z</time></trkpt><trkpt lat="47.9064633" lon="-1.572565"><ele>102.5</ele><time>2026-05-02T08:20:47.14Z</time></trkpt><trkpt lat="47.9063267" lon="-1.5726183"><ele>103.25</ele><time>2026-05-02T08:20:48.14Z</time></trkpt><trkpt lat="47.9061883" lon="-1.5726733"><ele>104.0</ele><time>2026-05-02T08:20:49.141Z</time></trkpt><trkpt lat="47.9060467" lon="-1.57273"><ele>104.0</ele><time>2026-05-02T08:20:50.14Z</time></trkpt><trkpt lat="47.9059033" lon="-1.572785"><ele>104.0</ele><time>2026-05-02T08:20:51.139Z</time></trkpt><trkpt lat="47.9057617" lon="-1.5728367"><ele>104.0</ele><time>2026-05-02T08:20:52.139Z</time></trkpt><trkpt lat="47.9056283" lon="-1.5728833"><ele>104.0</ele><time>2026-05-02T08:20:53.14Z</time></trkpt><trkpt lat="47.9055033" lon="-1.57293"><ele>103.99999999999999</ele><time>2026-05-02T08:20:54.14Z</time></trkpt><trkpt lat="47.9053967" lon="-1.5729733"><ele>104.0</ele><time>2026-05-02T08:20:55.139Z</time></trkpt><trkpt lat="47.90531" lon="-1.5730117"><ele>104.0</ele><time>2026-05-02T08:20:56.141Z</time></trkpt><trkpt lat="47.90524" lon="-1.5730433"><ele>104.0</ele><time>2026-05-02T08:20:57.14Z</time></trkpt><trkpt lat="47.90517" lon="-1.5730917"><ele>103.99999999999999</ele><time>2026-05-02T08:20:59.144Z</time></trkpt><trkpt lat="47.9051033" lon="-1.5731133"><ele>104.0</ele><time>2026-05-02T08:21:02.14Z</time></trkpt><trkpt lat="47.9050233" lon="-1.5730717"><ele>103.6</ele><time>2026-05-02T08:21:04.14Z</time></trkpt><trkpt lat="47.90497" lon="-1.5730083"><ele>103.2</ele><time>2026-05-02T08:21:05.14Z</time></trkpt><trkpt lat="47.9049067" lon="-1.5729183"><ele>102.8</ele><time>2026-05-02T08:21:06.139Z</time></trkpt><trkpt lat="47.9048333" lon="-1.5728167"><ele>102.39999999999999</ele><time>2026-05-02T08:21:07.139Z</time></trkpt><trkpt lat="47.904745" lon="-1.5726983"><ele>102.0</ele><time>2026-05-02T08:21:08.139Z</time></trkpt><trkpt lat="47.90466" lon="-1.5725717"><ele>102.0</ele><time>2026-05-02T08:21:09.14Z</time></trkpt><trkpt lat="47.90458" lon="-1.5724417"><ele>102.0</ele><time>2026-05-02T08:21:10.139Z</time></trkpt><trkpt lat="47.904515" lon="-1.57233"><ele>102.0</ele><time>2026-05-02T08:21:11.141Z</time></trkpt><trkpt lat="47.9044583" lon="-1.57225"><ele>102.0</ele><time>2026-05-02T08:21:12.14Z</time></trkpt><trkpt lat="47.9043483" lon="-1.5722183"><ele>102.0</ele><time>2026-05-02T08:21:14.142Z</time></trkpt><trkpt lat="47.90429" lon="-1.5723433"><ele>102.0</ele><time>2026-05-02T08:21:16.139Z</time></trkpt><trkpt lat="47.90428" lon="-1.572455"><ele>102.0</ele><time>2026-05-02T08:21:17.139Z</time></trkpt><trkpt lat="47.9042617" lon="-1.5726033"><ele>102.0</ele><time>2026-05-02T08:21:18.139Z</time></trkpt><trkpt lat="47.90424" lon="-1.5727817"><ele>102.0</ele><time>2026-05-02T08:21:19.141Z</time></trkpt><trkpt lat="47.9042133" lon="-1.572995"><ele>102.0</ele><time>2026-05-02T08:21:20.141Z</time></trkpt><trkpt lat="47.9041883" lon="-1.5732333"><ele>100.0</ele><time>2026-05-02T08:21:21.141Z</time></trkpt><trkpt lat="47.90417" lon="-1.5734867"><ele>98.0</ele><time>2026-05-02T08:21:22.141Z</time></trkpt><trkpt lat="47.9041667" lon="-1.57375"><ele>96.0</ele><time>2026-05-02T08:21:23.139Z</time></trkpt><trkpt lat="47.90418" lon="-1.574035"><ele>96.0</ele><time>2026-05-02T08:21:24.139Z</time></trkpt><trkpt lat="47.90421" lon="-1.5743583"><ele>96.0</ele><time>2026-05-02T08:21:25.139Z</time></trkpt><trkpt lat="47.9042433" lon="-1.5747167"><ele>97.5</ele><time>2026-05-02T08:21:26.14Z</time></trkpt><trkpt lat="47.9042817" lon="-1.5751017"><ele>99.0</ele><time>2026-05-02T08:21:27.14Z</time></trkpt><trkpt lat="47.904325" lon="-1.5755083"><ele>99.5</ele><time>2026-05-02T08:21:28.139Z</time></trkpt><trkpt lat="47.9043667" lon="-1.57591"><ele>100.0</ele><time>2026-05-02T08:21:29.139Z</time></trkpt><trkpt lat="47.9044083" lon="-1.576305"><ele>100.5</ele><time>2026-05-02T08:21:30.144Z</time></trkpt><trkpt lat="47.90445" lon="-1.5766933"><ele>101.0</ele><time>2026-05-02T08:21:31.14Z</time></trkpt><trkpt lat="47.90449" lon="-1.5770767"><ele>101.5</ele><time>2026-05-02T08:21:32.139Z</time></trkpt><trkpt lat="47.9045333" lon="-1.5774667"><ele>102.0</ele><time>2026-05-02T08:21:33.141Z</time></trkpt><trkpt lat="47.9045767" lon="-1.57786"><ele>103.0</ele><time>2026-05-02T08:21:34.141Z</time></trkpt><trkpt lat="47.9046183" lon="-1.5782583"><ele>104.0</ele><time>2026-05-02T08:21:35.141Z</time></trkpt><trkpt lat="47.90466" lon="-1.5786633"><ele>101.5</ele><time>2026-05-02T08:21:36.139Z</time></trkpt><trkpt lat="47.9047017" lon="-1.5790567"><ele>99.0</ele><time>2026-05-02T08:21:37.14Z</time></trkpt><trkpt lat="47.90474" lon="-1.5794383"><ele>98.5</ele><time>2026-05-02T08:21:38.14Z</time></trkpt><trkpt lat="47.9047767" lon="-1.57981"><ele>98.0</ele><time>2026-05-02T08:21:39.142Z</time></trkpt><trkpt lat="47.9048167" lon="-1.5801783"><ele>98.0</ele><time>2026-05-02T08:21:40.139Z</time></trkpt><trkpt lat="47.9048583" lon="-1.580545"><ele>98.0</ele><time>2026-05-02T08:21:41.14Z</time></trkpt><trkpt lat="47.9049017" lon="-1.5809133"><ele>97.0</ele><time>2026-05-02T08:21:42.14Z</time></trkpt><trkpt lat="47.9049433" lon="-1.58129"><ele>96.0</ele><time>2026-05-02T08:21:43.14Z</time></trkpt><trkpt lat="47.904985" lon="-1.5816633"><ele>96.5</ele><time>2026-05-02T08:21:44.139Z</time></trkpt><trkpt lat="47.9050233" lon="-1.5820383"><ele>97.0</ele><time>2026-05-02T08:21:45.14Z</time></trkpt><trkpt lat="47.905065" lon="-1.5824067"><ele>98.0</ele><time>2026-05-02T08:21:46.139Z</time></trkpt><trkpt lat="47.905105" lon="-1.5827717"><ele>99.0</ele><time>2026-05-02T08:21:47.14Z</time></trkpt><trkpt lat="47.905145" lon="-1.5831333"><ele>99.5</ele><time>2026-05-02T08:21:48.141Z</time></trkpt><trkpt lat="47.9051817" lon="-1.583485"><ele>100.0</ele><time>2026-05-02T08:21:49.142Z</time></trkpt><trkpt lat="47.90522" lon="-1.5838267"><ele>100.0</ele><time>2026-05-02T08:21:50.141Z</time></trkpt><trkpt lat="47.905255" lon="-1.5841517"><ele>100.0</ele><time>2026-05-02T08:21:51.142Z</time></trkpt><trkpt lat="47.9052883" lon="-1.5844533"><ele>100.0</ele><time>2026-05-02T08:21:52.141Z</time></trkpt><trkpt lat="47.9053167" lon="-1.5847233"><ele>99.5</ele><time>2026-05-02T08:21:53.141Z</time></trkpt><trkpt lat="47.9053417" lon="-1.5849617"><ele>99.0</ele><time>2026-05-02T08:21:54.142Z</time></trkpt><trkpt lat="47.9053617" lon="-1.5851617"><ele>98.5</ele><time>2026-05-02T08:21:55.14Z</time></trkpt><trkpt lat="47.9053833" lon="-1.5853317"><ele>98.0</ele><time>2026-05-02T08:21:56.139Z</time></trkpt><trkpt lat="47.9054017" lon="-1.5854767"><ele>97.99999999999999</ele><time>2026-05-02T08:21:57.14Z</time></trkpt><trkpt lat="47.90541" lon="-1.5856067"><ele>98.0</ele><time>2026-05-02T08:21:58.14Z</time></trkpt><trkpt lat="47.9054017" lon="-1.5857233"><ele>98.0</ele><time>2026-05-02T08:21:59.14Z</time></trkpt><trkpt lat="47.9053783" lon="-1.585815"><ele>98.0</ele><time>2026-05-02T08:22:00.139Z</time></trkpt><trkpt lat="47.9053233" lon="-1.5858667"><ele>97.99999999999999</ele><time>2026-05-02T08:22:01.14Z</time></trkpt><trkpt lat="47.9052467" lon="-1.5858833"><ele>98.0</ele><time>2026-05-02T08:22:02.141Z</time></trkpt><trkpt lat="47.90516" lon="-1.5858867"><ele>98.16666666666666</ele><time>2026-05-02T08:22:03.14Z</time></trkpt><trkpt lat="47.90506" lon="-1.5858767"><ele>98.33333333333333</ele><time>2026-05-02T08:22:04.142Z</time></trkpt><trkpt lat="47.9049567" lon="-1.58587"><ele>98.5</ele><time>2026-05-02T08:22:05.139Z</time></trkpt><trkpt lat="47.904865" lon="-1.58587"><ele>98.66666666666666</ele><time>2026-05-02T08:22:06.141Z</time></trkpt><trkpt lat="47.9047867" lon="-1.5858783"><ele>98.83333333333333</ele><time>2026-05-02T08:22:07.14Z</time></trkpt><trkpt lat="47.9047217" lon="-1.585905"><ele>99.0</ele><time>2026-05-02T08:22:08.14Z</time></trkpt><trkpt lat="47.9046717" lon="-1.585965"><ele>99.0</ele><time>2026-05-02T08:22:09.14Z</time></trkpt><trkpt lat="47.9046467" lon="-1.586065"><ele>99.0</ele><time>2026-05-02T08:22:10.139Z</time></trkpt><trkpt lat="47.904635" lon="-1.5862017"><ele>99.0</ele><time>2026-05-02T08:22:11.139Z</time></trkpt><trkpt lat="47.9046467" lon="-1.5864033"><ele>99.0</ele><time>2026-05-02T08:22:12.14Z</time></trkpt><trkpt lat="47.9046533" lon="-1.5866517"><ele>99.0</ele><time>2026-05-02T08:22:13.139Z</time></trkpt><trkpt lat="47.9046567" lon="-1.58695"><ele>99.0</ele><time>2026-05-02T08:22:14.138Z</time></trkpt><trkpt lat="47.9046617" lon="-1.5872883"><ele>99.0</ele><time>2026-05-02T08:22:15.14Z</time></trkpt><trkpt lat="47.90467" lon="-1.5876533"><ele>99.5</ele><time>2026-05-02T08:22:16.14Z</time></trkpt><trkpt lat="47.9046817" lon="-1.5880183"><ele>100.0</ele><time>2026-05-02T08:22:17.139Z</time></trkpt><trkpt lat="47.9046983" lon="-1.58837"><ele>100.5</ele><time>2026-05-02T08:22:18.141Z</time></trkpt><trkpt lat="47.90472" lon="-1.588715"><ele>101.0</ele><time>2026-05-02T08:22:19.145Z</time></trkpt><trkpt lat="47.9047417" lon="-1.5890583"><ele>101.0</ele><time>2026-05-02T08:22:20.141Z</time></trkpt><trkpt lat="47.9047633" lon="-1.589405"><ele>101.0</ele><time>2026-05-02T08:22:21.141Z</time></trkpt><trkpt lat="47.9047867" lon="-1.5897567"><ele>101.5</ele><time>2026-05-02T08:22:22.139Z</time></trkpt><trkpt lat="47.9048133" lon="-1.5901183"><ele>102.0</ele><time>2026-05-02T08:22:23.139Z</time></trkpt><trkpt lat="47.9048383" lon="-1.5904767"><ele>100.5</ele><time>2026-05-02T08:22:24.139Z</time></trkpt><trkpt lat="47.9048667" lon="-1.5908417"><ele>99.0</ele><time>2026-05-02T08:22:25.139Z</time></trkpt><trkpt lat="47.9048967" lon="-1.5912133"><ele>99.0</ele><time>2026-05-02T08:22:26.141Z</time></trkpt><trkpt lat="47.904925" lon="-1.5915933"><ele>99.0</ele><time>2026-05-02T08:22:27.139Z</time></trkpt><trkpt lat="47.9049517" lon="-1.5919933"><ele>98.5</ele><time>2026-05-02T08:22:28.141Z</time></trkpt><trkpt lat="47.90498" lon="-1.592405"><ele>98.0</ele><time>2026-05-02T08:22:29.14Z</time></trkpt><trkpt lat="47.905005" lon="-1.5928"><ele>98.5</ele><time>2026-05-02T08:22:30.139Z</time></trkpt><trkpt lat="47.90503" lon="-1.5931767"><ele>99.0</ele><time>2026-05-02T08:22:31.139Z</time></trkpt><trkpt lat="47.9050517" lon="-1.593545"><ele>99.0</ele><time>2026-05-02T08:22:32.141Z</time></trkpt><trkpt lat="47.9050767" lon="-1.5939067"><ele>99.0</ele><time>2026-05-02T08:22:33.14Z</time></trkpt><trkpt lat="47.9051017" lon="-1.594275"><ele>98.5</ele><time>2026-05-02T08:22:34.139Z</time></trkpt><trkpt lat="47.90513" lon="-1.5946583"><ele>98.0</ele><time>2026-05-02T08:22:35.139Z</time></trkpt><trkpt lat="47.9051583" lon="-1.5950333"><ele>98.0</ele><time>2026-05-02T08:22:36.14Z</time></trkpt><trkpt lat="47.9051883" lon="-1.5953717"><ele>98.0</ele><time>2026-05-02T08:22:37.139Z</time></trkpt><trkpt lat="47.9052233" lon="-1.5956633"><ele>98.0</ele><time>2026-05-02T08:22:38.139Z</time></trkpt><trkpt lat="47.9052633" lon="-1.5959133"><ele>98.0</ele><time>2026-05-02T08:22:39.139Z</time></trkpt><trkpt lat="47.9053033" lon="-1.5961367"><ele>98.0</ele><time>2026-05-02T08:22:40.138Z</time></trkpt><trkpt lat="47.90534" lon="-1.5963333"><ele>98.0</ele><time>2026-05-02T08:22:41.139Z</time></trkpt><trkpt lat="47.9053667" lon="-1.5964917"><ele>98.0</ele><time>2026-05-02T08:22:42.14Z</time></trkpt><trkpt lat="47.9053867" lon="-1.5966183"><ele>97.85714285714286</ele><time>2026-05-02T08:22:43.139Z</time></trkpt><trkpt lat="47.9054067" lon="-1.596725"><ele>97.71428571428572</ele><time>2026-05-02T08:22:44.139Z</time></trkpt><trkpt lat="47.9054267" lon="-1.5968233"><ele>97.57142857142857</ele><time>2026-05-02T08:22:45.14Z</time></trkpt><trkpt lat="47.905445" lon="-1.596915"><ele>97.42857142857143</ele><time>2026-05-02T08:22:46.14Z</time></trkpt><trkpt lat="47.9054617" lon="-1.5970067"><ele>97.28571428571429</ele><time>2026-05-02T08:22:47.14Z</time></trkpt><trkpt lat="47.9054817" lon="-1.5971083"><ele>97.14285714285714</ele><time>2026-05-02T08:22:48.14Z</time></trkpt><trkpt lat="47.9055033" lon="-1.5972233"><ele>97.0</ele><time>2026-05-02T08:22:49.141Z</time></trkpt><trkpt lat="47.9055283" lon="-1.59737"><ele>97.5</ele><time>2026-05-02T08:22:50.14Z</time></trkpt><trkpt lat="47.9055617" lon="-1.5975433"><ele>98.0</ele><time>2026-05-02T08:22:51.139Z</time></trkpt><trkpt lat="47.9055967" lon="-1.5977333"><ele>98.5</ele><time>2026-05-02T08:22:52.138Z</time></trkpt><trkpt lat="47.9056317" lon="-1.5979467"><ele>99.0</ele><time>2026-05-02T08:22:53.14Z</time></trkpt><trkpt lat="47.9056683" lon="-1.5981733"><ele>99.66666666666666</ele><time>2026-05-02T08:22:54.139Z</time></trkpt><trkpt lat="47.9057067" lon="-1.5984033"><ele>100.33333333333333</ele><time>2026-05-02T08:22:55.139Z</time></trkpt><trkpt lat="47.9057467" lon="-1.5986233"><ele>101.0</ele><time>2026-05-02T08:22:56.138Z</time></trkpt><trkpt lat="47.9057833" lon="-1.5988283"><ele>101.0</ele><time>2026-05-02T08:22:57.142Z</time></trkpt><trkpt lat="47.905815" lon="-1.5990167"><ele>101.0</ele><time>2026-05-02T08:22:58.139Z</time></trkpt><trkpt lat="47.9058433" lon="-1.5991833"><ele>101.0</ele><time>2026-05-02T08:22:59.139Z</time></trkpt><trkpt lat="47.90587" lon="-1.59933"><ele>101.0</ele><time>2026-05-02T08:23:00.14Z</time></trkpt><trkpt lat="47.9058967" lon="-1.5994567"><ele>101.0</ele><time>2026-05-02T08:23:01.139Z</time></trkpt><trkpt lat="47.9059217" lon="-1.5995633"><ele>100.99999999999999</ele><time>2026-05-02T08:23:02.14Z</time></trkpt><trkpt lat="47.9059433" lon="-1.5996517"><ele>101.0</ele><time>2026-05-02T08:23:03.139Z</time></trkpt><trkpt lat="47.9059767" lon="-1.5997667"><ele>101.0</ele><time>2026-05-02T08:23:05.139Z</time></trkpt><trkpt lat="47.9059167" lon="-1.5997"><ele>101.0</ele><time>2026-05-02T08:23:11.14Z</time></trkpt><trkpt lat="47.9059033" lon="-1.599595"><ele>100.99999999999999</ele><time>2026-05-02T08:23:12.139Z</time></trkpt><trkpt lat="47.9058867" lon="-1.5994683"><ele>101.0</ele><time>2026-05-02T08:23:13.142Z</time></trkpt><trkpt lat="47.9058517" lon="-1.599285"><ele>101.0</ele><time>2026-05-02T08:23:14.139Z</time></trkpt><trkpt lat="47.9058133" lon="-1.599065"><ele>101.0</ele><time>2026-05-02T08:23:15.141Z</time></trkpt><trkpt lat="47.9057667" lon="-1.5988133"><ele>101.0</ele><time>2026-05-02T08:23:16.139Z</time></trkpt><trkpt lat="47.90571" lon="-1.5985183"><ele>101.0</ele><time>2026-05-02T08:23:17.14Z</time></trkpt><trkpt lat="47.9056533" lon="-1.59821"><ele>101.0</ele><time>2026-05-02T08:23:18.139Z</time></trkpt><trkpt lat="47.9056033" lon="-1.597915"><ele>101.0</ele><time>2026-05-02T08:23:19.14Z</time></trkpt><trkpt lat="47.905555" lon="-1.59764"><ele>100.33333333333333</ele><time>2026-05-02T08:23:20.143Z</time></trkpt><trkpt lat="47.9055117" lon="-1.59739"><ele>99.66666666666666</ele><time>2026-05-02T08:23:21.14Z</time></trkpt><trkpt lat="47.90547" lon="-1.597165"><ele>99.0</ele><time>2026-05-02T08:23:22.139Z</time></trkpt><trkpt lat="47.9054317" lon="-1.5969567"><ele>98.6</ele><time>2026-05-02T08:23:23.142Z</time></trkpt><trkpt lat="47.9053983" lon="-1.5967767"><ele>98.2</ele><time>2026-05-02T08:23:24.14Z</time></trkpt><trkpt lat="47.90537" lon="-1.59661"><ele>97.8</ele><time>2026-05-02T08:23:25.139Z</time></trkpt><trkpt lat="47.9053417" lon="-1.5964667"><ele>97.39999999999999</ele><time>2026-05-02T08:23:26.14Z</time></trkpt><trkpt lat="47.90532" lon="-1.596345"><ele>97.0</ele><time>2026-05-02T08:23:27.139Z</time></trkpt><trkpt lat="47.905305" lon="-1.5962533"><ele>97.00000000000001</ele><time>2026-05-02T08:23:28.139Z</time></trkpt><trkpt lat="47.9052633" lon="-1.5961583"><ele>97.0</ele><time>2026-05-02T08:23:30.14Z</time></trkpt><trkpt lat="47.9051833" lon="-1.59617"><ele>97.0</ele><time>2026-05-02T08:23:32.14Z</time></trkpt><trkpt lat="47.9050733" lon="-1.59627"><ele>97.0</ele><time>2026-05-02T08:23:34.139Z</time></trkpt><trkpt lat="47.9050117" lon="-1.59633"><ele>97.00000000000001</ele><time>2026-05-02T08:23:35.139Z</time></trkpt><trkpt lat="47.9049417" lon="-1.596385"><ele>97.0</ele><time>2026-05-02T08:23:36.141Z</time></trkpt><trkpt lat="47.90487" lon="-1.596435"><ele>97.16666666666667</ele><time>2026-05-02T08:23:37.139Z</time></trkpt><trkpt lat="47.9047983" lon="-1.59649"><ele>97.33333333333334</ele><time>2026-05-02T08:23:38.14Z</time></trkpt><trkpt lat="47.9047217" lon="-1.5965417"><ele>97.5</ele><time>2026-05-02T08:23:39.14Z</time></trkpt><trkpt lat="47.9046417" lon="-1.5965933"><ele>97.66666666666666</ele><time>2026-05-02T08:23:40.142Z</time></trkpt><trkpt lat="47.9045633" lon="-1.5966533"><ele>97.83333333333333</ele><time>2026-05-02T08:23:41.14Z</time></trkpt><trkpt lat="47.904485" lon="-1.5967167"><ele>98.0</ele><time>2026-05-02T08:23:42.139Z</time></trkpt><trkpt lat="47.9044083" lon="-1.59678"><ele>98.0</ele><time>2026-05-02T08:23:43.139Z</time></trkpt><trkpt lat="47.9043333" lon="-1.59685"><ele>98.0</ele><time>2026-05-02T08:23:44.139Z</time></trkpt><trkpt lat="47.9042617" lon="-1.59693"><ele>98.0</ele><time>2026-05-02T08:23:45.14Z</time></trkpt><trkpt lat="47.9041867" lon="-1.597015"><ele>98.0</ele><time>2026-05-02T08:23:46.14Z</time></trkpt><trkpt lat="47.9041067" lon="-1.5971033"><ele>98.0</ele><time>2026-05-02T08:23:47.139Z</time></trkpt><trkpt lat="47.9040233" lon="-1.5971933"><ele>97.2</ele><time>2026-05-02T08:23:48.14Z</time></trkpt><trkpt lat="47.9039383" lon="-1.597285"><ele>96.4</ele><time>2026-05-02T08:23:49.141Z</time></trkpt><trkpt lat="47.9038533" lon="-1.59738"><ele>95.60000000000001</ele><time>2026-05-02T08:23:50.141Z</time></trkpt><trkpt lat="47.90377" lon="-1.5974783"><ele>94.80000000000001</ele><time>2026-05-02T08:23:51.14Z</time></trkpt><trkpt lat="47.90369" lon="-1.59758"><ele>94.0</ele><time>2026-05-02T08:23:52.14Z</time></trkpt><trkpt lat="47.9036167" lon="-1.5976883"><ele>94.0</ele><time>2026-05-02T08:23:53.14Z</time></trkpt><trkpt lat="47.90355" lon="-1.5977933"><ele>94.0</ele><time>2026-05-02T08:23:54.14Z</time></trkpt><trkpt lat="47.9034783" lon="-1.5978983"><ele>94.0</ele><time>2026-05-02T08:23:55.139Z</time></trkpt><trkpt lat="47.9034117" lon="-1.5980017"><ele>94.0</ele><time>2026-05-02T08:23:56.14Z</time></trkpt><trkpt lat="47.9033467" lon="-1.5981017"><ele>94.0</ele><time>2026-05-02T08:23:57.14Z</time></trkpt><trkpt lat="47.903275" lon="-1.5981933"><ele>93.6</ele><time>2026-05-02T08:23:58.139Z</time></trkpt><trkpt lat="47.9031933" lon="-1.598285"><ele>93.2</ele><time>2026-05-02T08:23:59.139Z</time></trkpt><trkpt lat="47.9031033" lon="-1.59837"><ele>92.8</ele><time>2026-05-02T08:24:00.139Z</time></trkpt><trkpt lat="47.903005" lon="-1.5984533"><ele>92.39999999999999</ele><time>2026-05-02T08:24:01.14Z</time></trkpt><trkpt lat="47.9029033" lon="-1.598535"><ele>92.0</ele><time>2026-05-02T08:24:02.139Z</time></trkpt><trkpt lat="47.9027983" lon="-1.5986183"><ele>92.25</ele><time>2026-05-02T08:24:03.14Z</time></trkpt><trkpt lat="47.9026917" lon="-1.598705"><ele>92.5</ele><time>2026-05-02T08:24:04.139Z</time></trkpt><trkpt lat="47.902585" lon="-1.5987933"><ele>92.75</ele><time>2026-05-02T08:24:05.14Z</time></trkpt><trkpt lat="47.9024817" lon="-1.598885"><ele>93.0</ele><time>2026-05-02T08:24:06.139Z</time></trkpt><trkpt lat="47.90238" lon="-1.5989783"><ele>92.5</ele><time>2026-05-02T08:24:07.139Z</time></trkpt><trkpt lat="47.9022733" lon="-1.5990783"><ele>92.0</ele><time>2026-05-02T08:24:08.139Z</time></trkpt><trkpt lat="47.9021683" lon="-1.5991883"><ele>91.5</ele><time>2026-05-02T08:24:09.138Z</time></trkpt><trkpt lat="47.902065" lon="-1.5993033"><ele>91.0</ele><time>2026-05-02T08:24:10.139Z</time></trkpt><trkpt lat="47.901965" lon="-1.5994233"><ele>91.0</ele><time>2026-05-02T08:24:11.14Z</time></trkpt><trkpt lat="47.9018633" lon="-1.599535"><ele>91.0</ele><time>2026-05-02T08:24:12.139Z</time></trkpt><trkpt lat="47.9017617" lon="-1.5996467"><ele>91.0</ele><time>2026-05-02T08:24:13.14Z</time></trkpt><trkpt lat="47.9016633" lon="-1.5997517"><ele>91.0</ele><time>2026-05-02T08:24:14.139Z</time></trkpt><trkpt lat="47.9015567" lon="-1.5998467"><ele>91.0</ele><time>2026-05-02T08:24:15.139Z</time></trkpt><trkpt lat="47.9014417" lon="-1.5999367"><ele>91.0</ele><time>2026-05-02T08:24:16.14Z</time></trkpt><trkpt lat="47.9013167" lon="-1.6000317"><ele>91.0</ele><time>2026-05-02T08:24:17.139Z</time></trkpt><trkpt lat="47.9011833" lon="-1.60013"><ele>91.0</ele><time>2026-05-02T08:24:18.14Z</time></trkpt><trkpt lat="47.9010483" lon="-1.6002217"><ele>91.0</ele><time>2026-05-02T08:24:19.14Z</time></trkpt><trkpt lat="47.9009167" lon="-1.6003067"><ele>91.0</ele><time>2026-05-02T08:24:20.143Z</time></trkpt><trkpt lat="47.9007833" lon="-1.60039"><ele>91.0</ele><time>2026-05-02T08:24:21.139Z</time></trkpt><trkpt lat="47.90064" lon="-1.6004717"><ele>91.0</ele><time>2026-05-02T08:24:22.141Z</time></trkpt><trkpt lat="47.900495" lon="-1.60057"><ele>90.33333333333333</ele><time>2026-05-02T08:24:23.139Z</time></trkpt><trkpt lat="47.9003567" lon="-1.6006667"><ele>89.66666666666667</ele><time>2026-05-02T08:24:24.139Z</time></trkpt><trkpt lat="47.9002217" lon="-1.6007633"><ele>89.0</ele><time>2026-05-02T08:24:25.139Z</time></trkpt><trkpt lat="47.90009" lon="-1.600865"><ele>90.0</ele><time>2026-05-02T08:24:26.139Z</time></trkpt><trkpt lat="47.8999617" lon="-1.600965"><ele>91.0</ele><time>2026-05-02T08:24:27.14Z</time></trkpt><trkpt lat="47.89984" lon="-1.6010683"><ele>92.0</ele><time>2026-05-02T08:24:28.14Z</time></trkpt><trkpt lat="47.8997217" lon="-1.6011817"><ele>93.0</ele><time>2026-05-02T08:24:29.14Z</time></trkpt><trkpt lat="47.8996133" lon="-1.601305"><ele>93.5</ele><time>2026-05-02T08:24:30.139Z</time></trkpt><trkpt lat="47.8995117" lon="-1.601425"><ele>94.0</ele><time>2026-05-02T08:24:31.139Z</time></trkpt><trkpt lat="47.8994217" lon="-1.60155"><ele>94.5</ele><time>2026-05-02T08:24:32.139Z</time></trkpt><trkpt lat="47.8993367" lon="-1.6016617"><ele>95.0</ele><time>2026-05-02T08:24:33.14Z</time></trkpt><trkpt lat="47.8992583" lon="-1.6017683"><ele>95.6</ele><time>2026-05-02T08:24:34.139Z</time></trkpt><trkpt lat="47.8991833" lon="-1.6018833"><ele>96.2</ele><time>2026-05-02T08:24:35.139Z</time></trkpt><trkpt lat="47.8991117" lon="-1.602"><ele>96.80000000000001</ele><time>2026-05-02T08:24:36.139Z</time></trkpt><trkpt lat="47.8990383" lon="-1.6021233"><ele>97.4</ele><time>2026-05-02T08:24:37.141Z</time></trkpt><trkpt lat="47.8989683" lon="-1.6022583"><ele>98.0</ele><time>2026-05-02T08:24:38.14Z</time></trkpt><trkpt lat="47.8989" lon="-1.6023967"><ele>98.0</ele><time>2026-05-02T08:24:39.14Z</time></trkpt><trkpt lat="47.89883" lon="-1.6025483"><ele>98.0</ele><time>2026-05-02T08:24:40.14Z</time></trkpt><trkpt lat="47.8987667" lon="-1.6027"><ele>98.0</ele><time>2026-05-02T08:24:41.139Z</time></trkpt><trkpt lat="47.8987" lon="-1.602865"><ele>98.0</ele><time>2026-05-02T08:24:42.139Z</time></trkpt><trkpt lat="47.8986333" lon="-1.6030267"><ele>98.25</ele><time>2026-05-02T08:24:43.14Z</time></trkpt><trkpt lat="47.8985567" lon="-1.6031817"><ele>98.5</ele><time>2026-05-02T08:24:44.139Z</time></trkpt><trkpt lat="47.8984717" lon="-1.6033283"><ele>98.75</ele><time>2026-05-02T08:24:45.14Z</time></trkpt><trkpt lat="47.8983783" lon="-1.6034733"><ele>99.0</ele><time>2026-05-02T08:24:46.139Z</time></trkpt><trkpt lat="47.898285" lon="-1.6036217"><ele>97.5</ele><time>2026-05-02T08:24:47.139Z</time></trkpt><trkpt lat="47.8982" lon="-1.6037717"><ele>96.0</ele><time>2026-05-02T08:24:48.14Z</time></trkpt><trkpt lat="47.8981217" lon="-1.6039183"><ele>94.5</ele><time>2026-05-02T08:24:49.14Z</time></trkpt><trkpt lat="47.89805" lon="-1.6040567"><ele>93.0</ele><time>2026-05-02T08:24:50.139Z</time></trkpt><trkpt lat="47.8979833" lon="-1.6041783"><ele>93.0</ele><time>2026-05-02T08:24:51.14Z</time></trkpt><trkpt lat="47.8979183" lon="-1.6043"><ele>93.0</ele><time>2026-05-02T08:24:52.14Z</time></trkpt><trkpt lat="47.8978633" lon="-1.6044217"><ele>93.0</ele><time>2026-05-02T08:24:53.139Z</time></trkpt><trkpt lat="47.8978133" lon="-1.6045383"><ele>93.0</ele><time>2026-05-02T08:24:54.139Z</time></trkpt><trkpt lat="47.8977617" lon="-1.60465"><ele>93.0</ele><time>2026-05-02T08:24:55.139Z</time></trkpt><trkpt lat="47.89771" lon="-1.6047583"><ele>93.0</ele><time>2026-05-02T08:24:56.139Z</time></trkpt><trkpt lat="47.8976583" lon="-1.6048733"><ele>93.0</ele><time>2026-05-02T08:24:57.14Z</time></trkpt><trkpt lat="47.8975983" lon="-1.6050133"><ele>93.0</ele><time>2026-05-02T08:24:58.14Z</time></trkpt><trkpt lat="47.8975467" lon="-1.605155"><ele>93.0</ele><time>2026-05-02T08:24:59.14Z</time></trkpt><trkpt lat="47.897495" lon="-1.6053033"><ele>93.0</ele><time>2026-05-02T08:25:00.141Z</time></trkpt><trkpt lat="47.8974417" lon="-1.6054467"><ele>91.5</ele><time>2026-05-02T08:25:01.141Z</time></trkpt><trkpt lat="47.8973883" lon="-1.6056033"><ele>90.0</ele><time>2026-05-02T08:25:02.14Z</time></trkpt><trkpt lat="47.8973283" lon="-1.6057483"><ele>88.5</ele><time>2026-05-02T08:25:03.14Z</time></trkpt><trkpt lat="47.8972517" lon="-1.6058767"><ele>87.0</ele><time>2026-05-02T08:25:04.14Z</time></trkpt><trkpt lat="47.8971733" lon="-1.6059833"><ele>87.0</ele><time>2026-05-02T08:25:05.14Z</time></trkpt><trkpt lat="47.8970883" lon="-1.6060883"><ele>87.0</ele><time>2026-05-02T08:25:06.14Z</time></trkpt><trkpt lat="47.8970167" lon="-1.6062"><ele>87.0</ele><time>2026-05-02T08:25:07.14Z</time></trkpt><trkpt lat="47.8969517" lon="-1.6063217"><ele>87.0</ele><time>2026-05-02T08:25:08.139Z</time></trkpt><trkpt lat="47.8968983" lon="-1.60644"><ele>87.0</ele><time>2026-05-02T08:25:09.14Z</time></trkpt><trkpt lat="47.8968583" lon="-1.6065617"><ele>86.66666666666667</ele><time>2026-05-02T08:25:10.143Z</time></trkpt><trkpt lat="47.8968267" lon="-1.6066917"><ele>86.33333333333333</ele><time>2026-05-02T08:25:11.141Z</time></trkpt><trkpt lat="47.8968083" lon="-1.6068217"><ele>86.0</ele><time>2026-05-02T08:25:12.14Z</time></trkpt><trkpt lat="47.8968033" lon="-1.6069433"><ele>85.66666666666666</ele><time>2026-05-02T08:25:13.141Z</time></trkpt><trkpt lat="47.8968017" lon="-1.6070667"><ele>85.33333333333333</ele><time>2026-05-02T08:25:14.14Z</time></trkpt><trkpt lat="47.8968" lon="-1.607195"><ele>85.0</ele><time>2026-05-02T08:25:15.14Z</time></trkpt><trkpt lat="47.8967917" lon="-1.6073283"><ele>84.66666666666666</ele><time>2026-05-02T08:25:16.14Z</time></trkpt><trkpt lat="47.8967767" lon="-1.6074517"><ele>84.33333333333333</ele><time>2026-05-02T08:25:17.139Z</time></trkpt><trkpt lat="47.896755" lon="-1.6075667"><ele>84.0</ele><time>2026-05-02T08:25:18.139Z</time></trkpt><trkpt lat="47.8967233" lon="-1.6076783"><ele>83.66666666666667</ele><time>2026-05-02T08:25:19.14Z</time></trkpt><trkpt lat="47.8966783" lon="-1.6077883"><ele>83.33333333333334</ele><time>2026-05-02T08:25:20.14Z</time></trkpt><trkpt lat="47.89663" lon="-1.607895"><ele>83.0</ele><time>2026-05-02T08:25:21.139Z</time></trkpt><trkpt lat="47.8965833" lon="-1.608005"><ele>82.16666666666667</ele><time>2026-05-02T08:25:22.139Z</time></trkpt><trkpt lat="47.8965417" lon="-1.6081117"><ele>81.33333333333334</ele><time>2026-05-02T08:25:23.139Z</time></trkpt><trkpt lat="47.89651" lon="-1.608215"><ele>80.5</ele><time>2026-05-02T08:25:24.143Z</time></trkpt><trkpt lat="47.8964933" lon="-1.6083067"><ele>79.66666666666667</ele><time>2026-05-02T08:25:25.141Z</time></trkpt><trkpt lat="47.8964867" lon="-1.6084033"><ele>78.83333333333333</ele><time>2026-05-02T08:25:27.139Z</time></trkpt><trkpt lat="47.8964317" lon="-1.6085117"><ele>78.0</ele><time>2026-05-02T08:25:31.139Z</time></trkpt><trkpt lat="47.8963133" lon="-1.6085817"><ele>78.0</ele><time>2026-05-02T08:25:33.143Z</time></trkpt><trkpt lat="47.896245" lon="-1.6086033"><ele>78.0</ele><time>2026-05-02T08:25:34.139Z</time></trkpt><trkpt lat="47.8961767" lon="-1.6086317"><ele>78.0</ele><time>2026-05-02T08:25:35.14Z</time></trkpt><trkpt lat="47.89608" lon="-1.6087483"><ele>78.0</ele><time>2026-05-02T08:25:37.14Z</time></trkpt><trkpt lat="47.8960517" lon="-1.60886"><ele>78.0</ele><time>2026-05-02T08:25:38.14Z</time></trkpt><trkpt lat="47.8960283" lon="-1.6089967"><ele>78.0</ele><time>2026-05-02T08:25:39.143Z</time></trkpt><trkpt lat="47.8960117" lon="-1.6091483"><ele>78.2</ele><time>2026-05-02T08:25:40.138Z</time></trkpt><trkpt lat="47.8959967" lon="-1.6093"><ele>78.4</ele><time>2026-05-02T08:25:41.144Z</time></trkpt><trkpt lat="47.8959883" lon="-1.6094517"><ele>78.60000000000001</ele><time>2026-05-02T08:25:42.14Z</time></trkpt><trkpt lat="47.8959767" lon="-1.609605"><ele>78.8</ele><time>2026-05-02T08:25:43.14Z</time></trkpt><trkpt lat="47.895965" lon="-1.6097617"><ele>79.0</ele><time>2026-05-02T08:25:44.141Z</time></trkpt><trkpt lat="47.8959533" lon="-1.6099167"><ele>78.60000000000001</ele><time>2026-05-02T08:25:45.14Z</time></trkpt><trkpt lat="47.895945" lon="-1.610065"><ele>78.2</ele><time>2026-05-02T08:25:46.139Z</time></trkpt><trkpt lat="47.8959433" lon="-1.6102133"><ele>77.80000000000001</ele><time>2026-05-02T08:25:47.14Z</time></trkpt><trkpt lat="47.8959467" lon="-1.6103517"><ele>77.4</ele><time>2026-05-02T08:25:48.139Z</time></trkpt><trkpt lat="47.89595" lon="-1.610485"><ele>77.0</ele><time>2026-05-02T08:25:49.139Z</time></trkpt><trkpt lat="47.8959567" lon="-1.61062"><ele>76.83333333333334</ele><time>2026-05-02T08:25:50.139Z</time></trkpt><trkpt lat="47.895965" lon="-1.6107533"><ele>76.66666666666667</ele><time>2026-05-02T08:25:51.14Z</time></trkpt><trkpt lat="47.895975" lon="-1.6108817"><ele>76.5</ele><time>2026-05-02T08:25:52.14Z</time></trkpt><trkpt lat="47.89598" lon="-1.6110083"><ele>76.33333333333333</ele><time>2026-05-02T08:25:53.139Z</time></trkpt><trkpt lat="47.895985" lon="-1.6111383"><ele>76.16666666666666</ele><time>2026-05-02T08:25:54.14Z</time></trkpt><trkpt lat="47.8959917" lon="-1.6112717"><ele>76.0</ele><time>2026-05-02T08:25:55.14Z</time></trkpt><trkpt lat="47.8960017" lon="-1.611415"><ele>75.2</ele><time>2026-05-02T08:25:56.14Z</time></trkpt><trkpt lat="47.896015" lon="-1.6115567"><ele>74.39999999999999</ele><time>2026-05-02T08:25:57.14Z</time></trkpt><trkpt lat="47.8960267" lon="-1.6117"><ele>73.6</ele><time>2026-05-02T08:25:58.139Z</time></trkpt><trkpt lat="47.8960333" lon="-1.61184"><ele>72.8</ele><time>2026-05-02T08:25:59.139Z</time></trkpt><trkpt lat="47.89604" lon="-1.61198"><ele>72.0</ele><time>2026-05-02T08:26:00.14Z</time></trkpt><trkpt lat="47.896045" lon="-1.6121217"><ele>71.2</ele><time>2026-05-02T08:26:01.14Z</time></trkpt><trkpt lat="47.8960517" lon="-1.6122667"><ele>70.4</ele><time>2026-05-02T08:26:02.14Z</time></trkpt><trkpt lat="47.8960633" lon="-1.6124167"><ele>69.6</ele><time>2026-05-02T08:26:03.142Z</time></trkpt><trkpt lat="47.89608" lon="-1.6125717"><ele>68.8</ele><time>2026-05-02T08:26:04.142Z</time></trkpt><trkpt lat="47.8960983" lon="-1.612715"><ele>68.0</ele><time>2026-05-02T08:26:05.142Z</time></trkpt><trkpt lat="47.896125" lon="-1.6128417"><ele>67.6</ele><time>2026-05-02T08:26:06.139Z</time></trkpt><trkpt lat="47.89615" lon="-1.6129467"><ele>67.19999999999999</ele><time>2026-05-02T08:26:07.14Z</time></trkpt><trkpt lat="47.8961783" lon="-1.6130933"><ele>66.8</ele><time>2026-05-02T08:26:09.141Z</time></trkpt><trkpt lat="47.896115" lon="-1.6131883"><ele>66.39999999999999</ele><time>2026-05-02T08:26:12.14Z</time></trkpt><trkpt lat="47.896" lon="-1.6132217"><ele>66.0</ele><time>2026-05-02T08:26:14.141Z</time></trkpt><trkpt lat="47.8958983" lon="-1.61327"><ele>66.66666666666667</ele><time>2026-05-02T08:26:16.139Z</time></trkpt><trkpt lat="47.8958217" lon="-1.6133933"><ele>67.33333333333333</ele><time>2026-05-02T08:26:18.14Z</time></trkpt><trkpt lat="47.8957733" lon="-1.6134617"><ele>68.0</ele><time>2026-05-02T08:26:19.14Z</time></trkpt><trkpt lat="47.8957217" lon="-1.613525"><ele>68.66666666666666</ele><time>2026-05-02T08:26:20.141Z</time></trkpt><trkpt lat="47.8956783" lon="-1.6135983"><ele>69.33333333333333</ele><time>2026-05-02T08:26:21.14Z</time></trkpt><trkpt lat="47.8956433" lon="-1.6136967"><ele>70.0</ele><time>2026-05-02T08:26:22.141Z</time></trkpt><trkpt lat="47.8956167" lon="-1.6138217"><ele>70.0</ele><time>2026-05-02T08:26:23.14Z</time></trkpt><trkpt lat="47.8955933" lon="-1.61396"><ele>70.0</ele><time>2026-05-02T08:26:24.141Z</time></trkpt><trkpt lat="47.8955733" lon="-1.6141067"><ele>70.0</ele><time>2026-05-02T08:26:25.14Z</time></trkpt><trkpt lat="47.8955483" lon="-1.6142567"><ele>70.0</ele><time>2026-05-02T08:26:26.142Z</time></trkpt><trkpt lat="47.89553" lon="-1.6144067"><ele>70.0</ele><time>2026-05-02T08:26:27.141Z</time></trkpt><trkpt lat="47.8955117" lon="-1.61456"><ele>70.25</ele><time>2026-05-02T08:26:28.143Z</time></trkpt><trkpt lat="47.8954967" lon="-1.6147183"><ele>70.5</ele><time>2026-05-02T08:26:29.14Z</time></trkpt><trkpt lat="47.8954833" lon="-1.6148867"><ele>70.75</ele><time>2026-05-02T08:26:30.14Z</time></trkpt><trkpt lat="47.89547" lon="-1.6150633"><ele>71.0</ele><time>2026-05-02T08:26:31.14Z</time></trkpt><trkpt lat="47.8954517" lon="-1.6152367"><ele>71.0</ele><time>2026-05-02T08:26:32.141Z</time></trkpt><trkpt lat="47.8954183" lon="-1.6153967"><ele>71.0</ele><time>2026-05-02T08:26:33.14Z</time></trkpt><trkpt lat="47.895375" lon="-1.6155667"><ele>71.0</ele><time>2026-05-02T08:26:34.14Z</time></trkpt><trkpt lat="47.89532" lon="-1.6157317"><ele>71.0</ele><time>2026-05-02T08:26:35.14Z</time></trkpt><trkpt lat="47.8952483" lon="-1.6159"><ele>71.0</ele><time>2026-05-02T08:26:36.139Z</time></trkpt><trkpt lat="47.8951733" lon="-1.616085"><ele>71.0</ele><time>2026-05-02T08:26:37.139Z</time></trkpt><trkpt lat="47.8950967" lon="-1.6162883"><ele>71.0</ele><time>2026-05-02T08:26:38.139Z</time></trkpt><trkpt lat="47.8950167" lon="-1.6165017"><ele>71.66666666666667</ele><time>2026-05-02T08:26:39.141Z</time></trkpt><trkpt lat="47.8949367" lon="-1.6167183"><ele>72.33333333333333</ele><time>2026-05-02T08:26:40.14Z</time></trkpt><trkpt lat="47.894855" lon="-1.6169233"><ele>73.0</ele><time>2026-05-02T08:26:41.14Z</time></trkpt><trkpt lat="47.894775" lon="-1.6171117"><ele>73.0</ele><time>2026-05-02T08:26:42.14Z</time></trkpt><trkpt lat="47.894695" lon="-1.6172783"><ele>73.0</ele><time>2026-05-02T08:26:43.14Z</time></trkpt><trkpt lat="47.894625" lon="-1.6174467"><ele>73.0</ele><time>2026-05-02T08:26:44.139Z</time></trkpt><trkpt lat="47.8945683" lon="-1.617625"><ele>73.0</ele><time>2026-05-02T08:26:45.14Z</time></trkpt><trkpt lat="47.8945217" lon="-1.6178067"><ele>72.5</ele><time>2026-05-02T08:26:46.14Z</time></trkpt><trkpt lat="47.8944867" lon="-1.6179883"><ele>72.0</ele><time>2026-05-02T08:26:47.14Z</time></trkpt><trkpt lat="47.8944617" lon="-1.618175"><ele>71.5</ele><time>2026-05-02T08:26:48.139Z</time></trkpt><trkpt lat="47.8944483" lon="-1.61837"><ele>71.0</ele><time>2026-05-02T08:26:49.14Z</time></trkpt><trkpt lat="47.894445" lon="-1.618575"><ele>69.66666666666667</ele><time>2026-05-02T08:26:50.139Z</time></trkpt><trkpt lat="47.8944433" lon="-1.6187883"><ele>68.33333333333333</ele><time>2026-05-02T08:26:51.14Z</time></trkpt><trkpt lat="47.8944267" lon="-1.6190067"><ele>67.0</ele><time>2026-05-02T08:26:52.139Z</time></trkpt><trkpt lat="47.894385" lon="-1.6192433"><ele>65.0</ele><time>2026-05-02T08:26:53.139Z</time></trkpt><trkpt lat="47.89432" lon="-1.6194983"><ele>63.0</ele><time>2026-05-02T08:26:54.139Z</time></trkpt><trkpt lat="47.8942417" lon="-1.6197733"><ele>61.0</ele><time>2026-05-02T08:26:55.139Z</time></trkpt><trkpt lat="47.8941617" lon="-1.62006"><ele>59.33333333333333</ele><time>2026-05-02T08:26:56.139Z</time></trkpt><trkpt lat="47.89408" lon="-1.6203533"><ele>57.66666666666667</ele><time>2026-05-02T08:26:57.14Z</time></trkpt><trkpt lat="47.8939983" lon="-1.620645"><ele>56.0</ele><time>2026-05-02T08:26:58.141Z</time></trkpt><trkpt lat="47.89392" lon="-1.6209317"><ele>55.66666666666667</ele><time>2026-05-02T08:26:59.14Z</time></trkpt><trkpt lat="47.8938433" lon="-1.6212117"><ele>55.33333333333333</ele><time>2026-05-02T08:27:00.14Z</time></trkpt><trkpt lat="47.89377" lon="-1.621475"><ele>55.0</ele><time>2026-05-02T08:27:01.139Z</time></trkpt><trkpt lat="47.8937033" lon="-1.62172"><ele>55.0</ele><time>2026-05-02T08:27:02.14Z</time></trkpt><trkpt lat="47.89364" lon="-1.6219633"><ele>55.0</ele><time>2026-05-02T08:27:03.14Z</time></trkpt><trkpt lat="47.8935733" lon="-1.622215"><ele>55.0</ele><time>2026-05-02T08:27:04.14Z</time></trkpt><trkpt lat="47.8935017" lon="-1.62247"><ele>56.33333333333333</ele><time>2026-05-02T08:27:05.14Z</time></trkpt><trkpt lat="47.893415" lon="-1.6227217"><ele>57.66666666666667</ele><time>2026-05-02T08:27:06.14Z</time></trkpt><trkpt lat="47.89332" lon="-1.62297"><ele>59.0</ele><time>2026-05-02T08:27:07.144Z</time></trkpt><trkpt lat="47.89322" lon="-1.6232"><ele>59.0</ele><time>2026-05-02T08:27:08.14Z</time></trkpt><trkpt lat="47.8931183" lon="-1.6234117"><ele>59.0</ele><time>2026-05-02T08:27:09.14Z</time></trkpt><trkpt lat="47.8930133" lon="-1.6236067"><ele>59.0</ele><time>2026-05-02T08:27:10.139Z</time></trkpt><trkpt lat="47.892905" lon="-1.623795"><ele>59.66666666666667</ele><time>2026-05-02T08:27:11.139Z</time></trkpt><trkpt lat="47.8927967" lon="-1.6239667"><ele>60.33333333333333</ele><time>2026-05-02T08:27:12.141Z</time></trkpt><trkpt lat="47.8926883" lon="-1.6241283"><ele>61.0</ele><time>2026-05-02T08:27:13.14Z</time></trkpt><trkpt lat="47.8925733" lon="-1.62429"><ele>61.666666666666664</ele><time>2026-05-02T08:27:14.139Z</time></trkpt><trkpt lat="47.8924467" lon="-1.624455"><ele>62.33333333333333</ele><time>2026-05-02T08:27:15.14Z</time></trkpt><trkpt lat="47.8923083" lon="-1.62462"><ele>63.0</ele><time>2026-05-02T08:27:16.14Z</time></trkpt><trkpt lat="47.8921583" lon="-1.624775"><ele>63.66666666666667</ele><time>2026-05-02T08:27:17.14Z</time></trkpt><trkpt lat="47.8919933" lon="-1.6249217"><ele>64.33333333333334</ele><time>2026-05-02T08:27:18.14Z</time></trkpt><trkpt lat="47.891815" lon="-1.6250467"><ele>65.0</ele><time>2026-05-02T08:27:19.14Z</time></trkpt><trkpt lat="47.8916233" lon="-1.6251383"><ele>66.5</ele><time>2026-05-02T08:27:20.141Z</time></trkpt><trkpt lat="47.89141" lon="-1.62519"><ele>68.0</ele><time>2026-05-02T08:27:21.14Z</time></trkpt><trkpt lat="47.8911767" lon="-1.6252117"><ele>68.0</ele><time>2026-05-02T08:27:22.142Z</time></trkpt><trkpt lat="47.8909383" lon="-1.6252233"><ele>68.0</ele><time>2026-05-02T08:27:23.141Z</time></trkpt><trkpt lat="47.8907217" lon="-1.62524"><ele>69.33333333333334</ele><time>2026-05-02T08:27:24.141Z</time></trkpt><trkpt lat="47.89053" lon="-1.625255"><ele>70.66666666666667</ele><time>2026-05-02T08:27:25.142Z</time></trkpt><trkpt lat="47.8903583" lon="-1.6252767"><ele>72.0</ele><time>2026-05-02T08:27:26.143Z</time></trkpt><trkpt lat="47.890205" lon="-1.625325"><ele>75.33333333333333</ele><time>2026-05-02T08:27:27.143Z</time></trkpt><trkpt lat="47.8900567" lon="-1.6254167"><ele>78.66666666666666</ele><time>2026-05-02T08:27:28.141Z</time></trkpt><trkpt lat="47.8899133" lon="-1.6255567"><ele>82.0</ele><time>2026-05-02T08:27:29.141Z</time></trkpt><trkpt lat="47.88978" lon="-1.6257317"><ele>82.0</ele><time>2026-05-02T08:27:30.14Z</time></trkpt><trkpt lat="47.8896683" lon="-1.6259267"><ele>82.0</ele><time>2026-05-02T08:27:31.142Z</time></trkpt><trkpt lat="47.8895833" lon="-1.6261317"><ele>82.0</ele><time>2026-05-02T08:27:32.14Z</time></trkpt><trkpt lat="47.8895317" lon="-1.6263233"><ele>82.0</ele><time>2026-05-02T08:27:33.14Z</time></trkpt><trkpt lat="47.889515" lon="-1.6264617"><ele>82.0</ele><time>2026-05-02T08:27:34.139Z</time></trkpt><trkpt lat="47.889505" lon="-1.6265733"><ele>82.0</ele><time>2026-05-02T08:27:36.139Z</time></trkpt><trkpt lat="47.8895183" lon="-1.6267067"><ele>82.0</ele><time>2026-05-02T08:28:03.14Z</time></trkpt><trkpt lat="47.889525" lon="-1.6268867"><ele>82.0</ele><time>2026-05-02T08:28:05.14Z</time></trkpt><trkpt lat="47.8895283" lon="-1.6270117"><ele>82.25</ele><time>2026-05-02T08:28:06.141Z</time></trkpt><trkpt lat="47.88953" lon="-1.627165"><ele>82.5</ele><time>2026-05-02T08:28:07.139Z</time></trkpt><trkpt lat="47.88953" lon="-1.6273483"><ele>82.75</ele><time>2026-05-02T08:28:08.139Z</time></trkpt><trkpt lat="47.88953" lon="-1.6275467"><ele>83.0</ele><time>2026-05-02T08:28:09.139Z</time></trkpt><trkpt lat="47.8895283" lon="-1.627755"><ele>83.33333333333334</ele><time>2026-05-02T08:28:10.14Z</time></trkpt><trkpt lat="47.88953" lon="-1.6279833"><ele>83.66666666666667</ele><time>2026-05-02T08:28:11.141Z</time></trkpt><trkpt lat="47.88953" lon="-1.6282183"><ele>84.0</ele><time>2026-05-02T08:28:12.142Z</time></trkpt><trkpt lat="47.8895283" lon="-1.6284583"><ele>84.33333333333333</ele><time>2026-05-02T08:28:13.14Z</time></trkpt><trkpt lat="47.88953" lon="-1.6286967"><ele>84.66666666666666</ele><time>2026-05-02T08:28:14.141Z</time></trkpt><trkpt lat="47.889535" lon="-1.6289317"><ele>85.0</ele><time>2026-05-02T08:28:15.142Z</time></trkpt><trkpt lat="47.8895383" lon="-1.6291683"><ele>85.0</ele><time>2026-05-02T08:28:16.139Z</time></trkpt><trkpt lat="47.8895433" lon="-1.62941"><ele>85.0</ele><time>2026-05-02T08:28:17.146Z</time></trkpt><trkpt lat="47.8895483" lon="-1.6296617"><ele>85.0</ele><time>2026-05-02T08:28:18.14Z</time></trkpt><trkpt lat="47.889555" lon="-1.629905"><ele>85.33333333333333</ele><time>2026-05-02T08:28:19.139Z</time></trkpt><trkpt lat="47.8895717" lon="-1.63015"><ele>85.66666666666667</ele><time>2026-05-02T08:28:20.143Z</time></trkpt><trkpt lat="47.8896017" lon="-1.63038"><ele>86.0</ele><time>2026-05-02T08:28:21.141Z</time></trkpt><trkpt lat="47.8896383" lon="-1.6305983"><ele>86.0</ele><time>2026-05-02T08:28:22.141Z</time></trkpt><trkpt lat="47.8896783" lon="-1.630805"><ele>86.0</ele><time>2026-05-02T08:28:23.141Z</time></trkpt><trkpt lat="47.8897167" lon="-1.6309967"><ele>86.0</ele><time>2026-05-02T08:28:24.141Z</time></trkpt><trkpt lat="47.88975" lon="-1.6311733"><ele>86.0</ele><time>2026-05-02T08:28:25.142Z</time></trkpt><trkpt lat="47.8897833" lon="-1.631345"><ele>85.75</ele><time>2026-05-02T08:28:26.141Z</time></trkpt><trkpt lat="47.8898183" lon="-1.631515"><ele>85.5</ele><time>2026-05-02T08:28:27.143Z</time></trkpt><trkpt lat="47.8898567" lon="-1.631685"><ele>85.25</ele><time>2026-05-02T08:28:28.141Z</time></trkpt><trkpt lat="47.88989" lon="-1.6318533"><ele>85.0</ele><time>2026-05-02T08:28:29.141Z</time></trkpt><trkpt lat="47.8899167" lon="-1.6320167"><ele>84.75</ele><time>2026-05-02T08:28:30.142Z</time></trkpt><trkpt lat="47.889935" lon="-1.632185"><ele>84.5</ele><time>2026-05-02T08:28:31.143Z</time></trkpt><trkpt lat="47.88995" lon="-1.6323583"><ele>84.25</ele><time>2026-05-02T08:28:32.14Z</time></trkpt><trkpt lat="47.8899633" lon="-1.6325417"><ele>84.0</ele><time>2026-05-02T08:28:33.14Z</time></trkpt><trkpt lat="47.889975" lon="-1.6327333"><ele>84.0</ele><time>2026-05-02T08:28:34.139Z</time></trkpt><trkpt lat="47.8899783" lon="-1.6329217"><ele>84.0</ele><time>2026-05-02T08:28:35.139Z</time></trkpt><trkpt lat="47.8899767" lon="-1.63311"><ele>84.0</ele><time>2026-05-02T08:28:36.14Z</time></trkpt><trkpt lat="47.8899667" lon="-1.633295"><ele>84.0</ele><time>2026-05-02T08:28:37.141Z</time></trkpt><trkpt lat="47.8899517" lon="-1.6334733"><ele>84.0</ele><time>2026-05-02T08:28:38.14Z</time></trkpt><trkpt lat="47.889935" lon="-1.6336517"><ele>84.0</ele><time>2026-05-02T08:28:39.141Z</time></trkpt><trkpt lat="47.889915" lon="-1.633835"><ele>84.0</ele><time>2026-05-02T08:28:40.141Z</time></trkpt><trkpt lat="47.8898933" lon="-1.6340233"><ele>84.0</ele><time>2026-05-02T08:28:41.139Z</time></trkpt><trkpt lat="47.8898683" lon="-1.6342083"><ele>84.0</ele><time>2026-05-02T08:28:42.139Z</time></trkpt><trkpt lat="47.8898433" lon="-1.634395"><ele>84.0</ele><time>2026-05-02T08:28:43.14Z</time></trkpt><trkpt lat="47.8898133" lon="-1.63459"><ele>84.0</ele><time>2026-05-02T08:28:44.141Z</time></trkpt><trkpt lat="47.88978" lon="-1.6347933"><ele>84.0</ele><time>2026-05-02T08:28:45.14Z</time></trkpt><trkpt lat="47.889745" lon="-1.6350017"><ele>83.5</ele><time>2026-05-02T08:28:46.139Z</time></trkpt><trkpt lat="47.8897117" lon="-1.635215"><ele>83.0</ele><time>2026-05-02T08:28:47.139Z</time></trkpt><trkpt lat="47.88968" lon="-1.63543"><ele>82.5</ele><time>2026-05-02T08:28:48.14Z</time></trkpt><trkpt lat="47.889645" lon="-1.6356483"><ele>82.0</ele><time>2026-05-02T08:28:49.141Z</time></trkpt><trkpt lat="47.8896083" lon="-1.6358733"><ele>81.66666666666666</ele><time>2026-05-02T08:28:50.141Z</time></trkpt><trkpt lat="47.889575" lon="-1.636105"><ele>81.33333333333333</ele><time>2026-05-02T08:28:51.142Z</time></trkpt><trkpt lat="47.8895433" lon="-1.6363383"><ele>81.0</ele><time>2026-05-02T08:28:52.142Z</time></trkpt><trkpt lat="47.88952" lon="-1.636565"><ele>80.75</ele><time>2026-05-02T08:28:53.141Z</time></trkpt><trkpt lat="47.88951" lon="-1.636785"><ele>80.5</ele><time>2026-05-02T08:28:54.143Z</time></trkpt><trkpt lat="47.889515" lon="-1.6370017"><ele>80.25</ele><time>2026-05-02T08:28:55.141Z</time></trkpt><trkpt lat="47.8895383" lon="-1.6372167"><ele>80.0</ele><time>2026-05-02T08:28:56.142Z</time></trkpt><trkpt lat="47.8895733" lon="-1.6374267"><ele>79.5</ele><time>2026-05-02T08:28:57.141Z</time></trkpt><trkpt lat="47.8896133" lon="-1.6376267"><ele>79.0</ele><time>2026-05-02T08:28:58.141Z</time></trkpt><trkpt lat="47.8896417" lon="-1.6378183"><ele>78.5</ele><time>2026-05-02T08:28:59.141Z</time></trkpt><trkpt lat="47.88966" lon="-1.6379917"><ele>78.0</ele><time>2026-05-02T08:29:00.139Z</time></trkpt><trkpt lat="47.889665" lon="-1.63814"><ele>78.0</ele><time>2026-05-02T08:29:01.14Z</time></trkpt><trkpt lat="47.88966" lon="-1.6382667"><ele>78.0</ele><time>2026-05-02T08:29:02.139Z</time></trkpt><trkpt lat="47.8896533" lon="-1.6383783"><ele>78.0</ele><time>2026-05-02T08:29:03.14Z</time></trkpt><trkpt lat="47.8896533" lon="-1.6384867"><ele>78.0</ele><time>2026-05-02T08:29:04.139Z</time></trkpt><trkpt lat="47.8896583" lon="-1.6386"><ele>78.0</ele><time>2026-05-02T08:29:05.141Z</time></trkpt><trkpt lat="47.8896683" lon="-1.6387167"><ele>78.0</ele><time>2026-05-02T08:29:06.141Z</time></trkpt><trkpt lat="47.8896833" lon="-1.6388433"><ele>78.6</ele><time>2026-05-02T08:29:07.142Z</time></trkpt><trkpt lat="47.8897" lon="-1.63898"><ele>79.19999999999999</ele><time>2026-05-02T08:29:08.138Z</time></trkpt><trkpt lat="47.8897217" lon="-1.6391267"><ele>79.8</ele><time>2026-05-02T08:29:09.14Z</time></trkpt><trkpt lat="47.889745" lon="-1.6392833"><ele>80.39999999999999</ele><time>2026-05-02T08:29:10.139Z</time></trkpt><trkpt lat="47.889765" lon="-1.63945"><ele>81.0</ele><time>2026-05-02T08:29:11.14Z</time></trkpt><trkpt lat="47.88978" lon="-1.6396183"><ele>81.6</ele><time>2026-05-02T08:29:12.141Z</time></trkpt><trkpt lat="47.889795" lon="-1.63978"><ele>82.19999999999999</ele><time>2026-05-02T08:29:13.139Z</time></trkpt><trkpt lat="47.8898117" lon="-1.6399433"><ele>82.80000000000001</ele><time>2026-05-02T08:29:14.139Z</time></trkpt><trkpt lat="47.8898267" lon="-1.6401017"><ele>83.4</ele><time>2026-05-02T08:29:15.139Z</time></trkpt><trkpt lat="47.8898367" lon="-1.6402517"><ele>84.0</ele><time>2026-05-02T08:29:16.146Z</time></trkpt><trkpt lat="47.8898433" lon="-1.6403967"><ele>84.0</ele><time>2026-05-02T08:29:17.139Z</time></trkpt><trkpt lat="47.8898467" lon="-1.640545"><ele>84.0</ele><time>2026-05-02T08:29:18.14Z</time></trkpt><trkpt lat="47.8898467" lon="-1.6406967"><ele>84.0</ele><time>2026-05-02T08:29:19.139Z</time></trkpt><trkpt lat="47.8898383" lon="-1.6408467"><ele>84.0</ele><time>2026-05-02T08:29:20.14Z</time></trkpt><trkpt lat="47.889825" lon="-1.64099"><ele>84.0</ele><time>2026-05-02T08:29:21.14Z</time></trkpt><trkpt lat="47.8898067" lon="-1.641135"><ele>83.6</ele><time>2026-05-02T08:29:22.142Z</time></trkpt><trkpt lat="47.88979" lon="-1.6412833"><ele>83.2</ele><time>2026-05-02T08:29:23.142Z</time></trkpt><trkpt lat="47.8897783" lon="-1.6414383"><ele>82.8</ele><time>2026-05-02T08:29:24.14Z</time></trkpt><trkpt lat="47.8897617" lon="-1.6416083"><ele>82.39999999999999</ele><time>2026-05-02T08:29:25.139Z</time></trkpt><trkpt lat="47.8897417" lon="-1.6417933"><ele>82.0</ele><time>2026-05-02T08:29:26.141Z</time></trkpt><trkpt lat="47.8897167" lon="-1.641985"><ele>82.0</ele><time>2026-05-02T08:29:27.14Z</time></trkpt><trkpt lat="47.88969" lon="-1.6421767"><ele>82.0</ele><time>2026-05-02T08:29:28.139Z</time></trkpt><trkpt lat="47.8896583" lon="-1.6423667"><ele>82.0</ele><time>2026-05-02T08:29:29.141Z</time></trkpt><trkpt lat="47.8896217" lon="-1.642555"><ele>82.0</ele><time>2026-05-02T08:29:30.139Z</time></trkpt><trkpt lat="47.8895817" lon="-1.6427433"><ele>81.19999999999999</ele><time>2026-05-02T08:29:31.141Z</time></trkpt><trkpt lat="47.8895417" lon="-1.6429183"><ele>80.39999999999999</ele><time>2026-05-02T08:29:32.14Z</time></trkpt><trkpt lat="47.8895067" lon="-1.643055"><ele>79.6</ele><time>2026-05-02T08:29:33.14Z</time></trkpt><trkpt lat="47.8894817" lon="-1.64315"><ele>78.8</ele><time>2026-05-02T08:29:34.14Z</time></trkpt><trkpt lat="47.8894483" lon="-1.643265"><ele>78.0</ele><time>2026-05-02T08:29:36.141Z</time></trkpt><trkpt lat="47.889425" lon="-1.6433933"><ele>78.0</ele><time>2026-05-02T08:29:39.139Z</time></trkpt><trkpt lat="47.8894017" lon="-1.6435417"><ele>78.0</ele><time>2026-05-02T08:29:41.139Z</time></trkpt><trkpt lat="47.8893683" lon="-1.6436567"><ele>78.0</ele><time>2026-05-02T08:29:42.141Z</time></trkpt><trkpt lat="47.8893183" lon="-1.6437967"><ele>78.0</ele><time>2026-05-02T08:29:43.14Z</time></trkpt><trkpt lat="47.8892633" lon="-1.6439617"><ele>78.0</ele><time>2026-05-02T08:29:44.143Z</time></trkpt><trkpt lat="47.88921" lon="-1.6441467"><ele>76.5</ele><time>2026-05-02T08:29:45.14Z</time></trkpt><trkpt lat="47.8891583" lon="-1.6443383"><ele>75.0</ele><time>2026-05-02T08:29:46.14Z</time></trkpt><trkpt lat="47.8891067" lon="-1.644535"><ele>73.5</ele><time>2026-05-02T08:29:47.139Z</time></trkpt><trkpt lat="47.8890433" lon="-1.6447367"><ele>72.0</ele><time>2026-05-02T08:29:48.14Z</time></trkpt><trkpt lat="47.888945" lon="-1.6449183"><ele>72.0</ele><time>2026-05-02T08:29:49.14Z</time></trkpt><trkpt lat="47.8888117" lon="-1.6450833"><ele>72.0</ele><time>2026-05-02T08:29:50.14Z</time></trkpt><trkpt lat="47.888655" lon="-1.6452317"><ele>72.0</ele><time>2026-05-02T08:29:51.14Z</time></trkpt><trkpt lat="47.8884783" lon="-1.645375"><ele>71.66666666666667</ele><time>2026-05-02T08:29:52.14Z</time></trkpt><trkpt lat="47.8882867" lon="-1.6455117"><ele>71.33333333333334</ele><time>2026-05-02T08:29:53.139Z</time></trkpt><trkpt lat="47.8880983" lon="-1.6456483"><ele>71.0</ele><time>2026-05-02T08:29:54.14Z</time></trkpt><trkpt lat="47.88793" lon="-1.6457983"><ele>71.0</ele><time>2026-05-02T08:29:55.139Z</time></trkpt><trkpt lat="47.887785" lon="-1.6459667"><ele>71.0</ele><time>2026-05-02T08:29:56.139Z</time></trkpt><trkpt lat="47.88766" lon="-1.6461417"><ele>71.0</ele><time>2026-05-02T08:29:57.139Z</time></trkpt><trkpt lat="47.8875583" lon="-1.646335"><ele>71.66666666666667</ele><time>2026-05-02T08:29:58.139Z</time></trkpt><trkpt lat="47.8874633" lon="-1.6465633"><ele>72.33333333333333</ele><time>2026-05-02T08:29:59.14Z</time></trkpt><trkpt lat="47.88738" lon="-1.6468317"><ele>73.0</ele><time>2026-05-02T08:30:00.141Z</time></trkpt><trkpt lat="47.8873017" lon="-1.6471233"><ele>73.0</ele><time>2026-05-02T08:30:01.141Z</time></trkpt><trkpt lat="47.8872217" lon="-1.6474317"><ele>73.0</ele><time>2026-05-02T08:30:02.141Z</time></trkpt><trkpt lat="47.8871417" lon="-1.6477483"><ele>73.0</ele><time>2026-05-02T08:30:03.141Z</time></trkpt><trkpt lat="47.8870633" lon="-1.6480633"><ele>73.0</ele><time>2026-05-02T08:30:04.14Z</time></trkpt><trkpt lat="47.8869833" lon="-1.64837"><ele>73.0</ele><time>2026-05-02T08:30:05.141Z</time></trkpt><trkpt lat="47.8869067" lon="-1.6486633"><ele>73.0</ele><time>2026-05-02T08:30:06.14Z</time></trkpt><trkpt lat="47.8868383" lon="-1.648935"><ele>73.0</ele><time>2026-05-02T08:30:07.141Z</time></trkpt><trkpt lat="47.886775" lon="-1.6491867"><ele>73.0</ele><time>2026-05-02T08:30:08.141Z</time></trkpt><trkpt lat="47.8867167" lon="-1.64942"><ele>73.0</ele><time>2026-05-02T08:30:09.142Z</time></trkpt><trkpt lat="47.8866617" lon="-1.6496367"><ele>72.0</ele><time>2026-05-02T08:30:10.14Z</time></trkpt><trkpt lat="47.8866083" lon="-1.6498417"><ele>71.0</ele><time>2026-05-02T08:30:11.141Z</time></trkpt><trkpt lat="47.8865583" lon="-1.6500383"><ele>70.0</ele><time>2026-05-02T08:30:12.139Z</time></trkpt><trkpt lat="47.8865083" lon="-1.65022"><ele>69.0</ele><time>2026-05-02T08:30:13.14Z</time></trkpt><trkpt lat="47.8864567" lon="-1.6503883"><ele>69.0</ele><time>2026-05-02T08:30:14.139Z</time></trkpt><trkpt lat="47.8864067" lon="-1.6505417"><ele>69.0</ele><time>2026-05-02T08:30:15.139Z</time></trkpt><trkpt lat="47.8863717" lon="-1.6506817"><ele>69.0</ele><time>2026-05-02T08:30:16.139Z</time></trkpt><trkpt lat="47.8863633" lon="-1.6508083"><ele>69.0</ele><time>2026-05-02T08:30:17.139Z</time></trkpt><trkpt lat="47.886385" lon="-1.65092"><ele>69.0</ele><time>2026-05-02T08:30:18.139Z</time></trkpt><trkpt lat="47.88643" lon="-1.65102"><ele>69.0</ele><time>2026-05-02T08:30:19.14Z</time></trkpt><trkpt lat="47.8865033" lon="-1.6511233"><ele>69.0</ele><time>2026-05-02T08:30:20.139Z</time></trkpt><trkpt lat="47.8866033" lon="-1.651225"><ele>69.0</ele><time>2026-05-02T08:30:21.139Z</time></trkpt><trkpt lat="47.8867183" lon="-1.6513317"><ele>69.0</ele><time>2026-05-02T08:30:22.142Z</time></trkpt><trkpt lat="47.8868433" lon="-1.6514383"><ele>71.66666666666667</ele><time>2026-05-02T08:30:23.139Z</time></trkpt><trkpt lat="47.886975" lon="-1.6515383"><ele>74.33333333333334</ele><time>2026-05-02T08:30:24.14Z</time></trkpt><trkpt lat="47.887115" lon="-1.6516333"><ele>77.0</ele><time>2026-05-02T08:30:25.139Z</time></trkpt><trkpt lat="47.8872533" lon="-1.6517217"><ele>77.0</ele><time>2026-05-02T08:30:26.141Z</time></trkpt><trkpt lat="47.8873917" lon="-1.6518"><ele>77.0</ele><time>2026-05-02T08:30:27.139Z</time></trkpt><trkpt lat="47.8875267" lon="-1.6518717"><ele>77.0</ele><time>2026-05-02T08:30:28.139Z</time></trkpt><trkpt lat="47.8876567" lon="-1.6519333"><ele>77.0</ele><time>2026-05-02T08:30:29.139Z</time></trkpt><trkpt lat="47.8877883" lon="-1.6519883"><ele>78.25</ele><time>2026-05-02T08:30:30.14Z</time></trkpt><trkpt lat="47.887915" lon="-1.652035"><ele>79.5</ele><time>2026-05-02T08:30:31.14Z</time></trkpt><trkpt lat="47.8880383" lon="-1.6520683"><ele>80.75</ele><time>2026-05-02T08:30:32.14Z</time></trkpt><trkpt lat="47.8881517" lon="-1.6520883"><ele>82.0</ele><time>2026-05-02T08:30:33.14Z</time></trkpt><trkpt lat="47.8882517" lon="-1.6520983"><ele>82.0</ele><time>2026-05-02T08:30:34.14Z</time></trkpt><trkpt lat="47.888335" lon="-1.6521167"><ele>82.0</ele><time>2026-05-02T08:30:35.141Z</time></trkpt><trkpt lat="47.8884033" lon="-1.6521317"><ele>82.0</ele><time>2026-05-02T08:30:36.139Z</time></trkpt><trkpt lat="47.8884783" lon="-1.6522017"><ele>82.0</ele><time>2026-05-02T08:30:38.14Z</time></trkpt><trkpt lat="47.888505" lon="-1.6523367"><ele>82.0</ele><time>2026-05-02T08:30:40.139Z</time></trkpt><trkpt lat="47.888515" lon="-1.65243"><ele>82.0</ele><time>2026-05-02T08:30:41.141Z</time></trkpt><trkpt lat="47.8885283" lon="-1.65253"><ele>82.0</ele><time>2026-05-02T08:30:42.139Z</time></trkpt><trkpt lat="47.8885433" lon="-1.65264"><ele>82.0</ele><time>2026-05-02T08:30:43.139Z</time></trkpt><trkpt lat="47.8885583" lon="-1.6527683"><ele>82.0</ele><time>2026-05-02T08:30:44.139Z</time></trkpt><trkpt lat="47.88858" lon="-1.65291"><ele>82.0</ele><time>2026-05-02T08:30:45.139Z</time></trkpt><trkpt lat="47.8886" lon="-1.6530617"><ele>82.0</ele><time>2026-05-02T08:30:46.14Z</time></trkpt><trkpt lat="47.8886183" lon="-1.6532183"><ele>82.19999999999999</ele><time>2026-05-02T08:30:47.139Z</time></trkpt><trkpt lat="47.8886367" lon="-1.6533767"><ele>82.4</ele><time>2026-05-02T08:30:48.139Z</time></trkpt><trkpt lat="47.8886567" lon="-1.6535333"><ele>82.6</ele><time>2026-05-02T08:30:49.139Z</time></trkpt><trkpt lat="47.8886717" lon="-1.6536917"><ele>82.80000000000001</ele><time>2026-05-02T08:30:50.139Z</time></trkpt><trkpt lat="47.888685" lon="-1.6538483"><ele>83.0</ele><time>2026-05-02T08:30:51.141Z</time></trkpt><trkpt lat="47.888695" lon="-1.6540033"><ele>83.4</ele><time>2026-05-02T08:30:52.14Z</time></trkpt><trkpt lat="47.8887033" lon="-1.65416"><ele>83.80000000000001</ele><time>2026-05-02T08:30:53.139Z</time></trkpt><trkpt lat="47.8887033" lon="-1.6543167"><ele>84.2</ele><time>2026-05-02T08:30:54.14Z</time></trkpt><trkpt lat="47.8886983" lon="-1.6544733"><ele>84.6</ele><time>2026-05-02T08:30:55.139Z</time></trkpt><trkpt lat="47.8886917" lon="-1.6546267"><ele>85.0</ele><time>2026-05-02T08:30:56.139Z</time></trkpt><trkpt lat="47.8886833" lon="-1.6547783"><ele>85.4</ele><time>2026-05-02T08:30:57.142Z</time></trkpt><trkpt lat="47.8886817" lon="-1.65493"><ele>85.8</ele><time>2026-05-02T08:30:58.145Z</time></trkpt><trkpt lat="47.88869" lon="-1.6550817"><ele>86.19999999999999</ele><time>2026-05-02T08:30:59.141Z</time></trkpt><trkpt lat="47.8887133" lon="-1.65524"><ele>86.6</ele><time>2026-05-02T08:31:00.139Z</time></trkpt><trkpt lat="47.8887433" lon="-1.6554017"><ele>87.0</ele><time>2026-05-02T08:31:01.139Z</time></trkpt><trkpt lat="47.8887733" lon="-1.6555683"><ele>87.0</ele><time>2026-05-02T08:31:02.14Z</time></trkpt><trkpt lat="47.8888033" lon="-1.655735"><ele>87.0</ele><time>2026-05-02T08:31:03.141Z</time></trkpt><trkpt lat="47.888835" lon="-1.6558917"><ele>87.0</ele><time>2026-05-02T08:31:04.14Z</time></trkpt><trkpt lat="47.88886" lon="-1.6560367"><ele>87.0</ele><time>2026-05-02T08:31:05.143Z</time></trkpt><trkpt lat="47.8888933" lon="-1.6562"><ele>87.0</ele><time>2026-05-02T08:31:06.139Z</time></trkpt><trkpt lat="47.8889217" lon="-1.6563583"><ele>86.0</ele><time>2026-05-02T08:31:07.141Z</time></trkpt><trkpt lat="47.8889517" lon="-1.656525"><ele>85.0</ele><time>2026-05-02T08:31:08.139Z</time></trkpt><trkpt lat="47.88899" lon="-1.6566933"><ele>84.0</ele><time>2026-05-02T08:31:09.144Z</time></trkpt><trkpt lat="47.889025" lon="-1.656855"><ele>83.0</ele><time>2026-05-02T08:31:10.139Z</time></trkpt><trkpt lat="47.8890567" lon="-1.65701"><ele>82.2</ele><time>2026-05-02T08:31:11.139Z</time></trkpt><trkpt lat="47.8890867" lon="-1.6571583"><ele>81.4</ele><time>2026-05-02T08:31:12.139Z</time></trkpt><trkpt lat="47.8891217" lon="-1.6572933"><ele>80.60000000000001</ele><time>2026-05-02T08:31:13.139Z</time></trkpt><trkpt lat="47.88917" lon="-1.65741"><ele>79.80000000000001</ele><time>2026-05-02T08:31:14.139Z</time></trkpt><trkpt lat="47.889235" lon="-1.6575"><ele>79.0</ele><time>2026-05-02T08:31:15.14Z</time></trkpt><trkpt lat="47.889325" lon="-1.6575667"><ele>78.2</ele><time>2026-05-02T08:31:16.139Z</time></trkpt><trkpt lat="47.8894183" lon="-1.6576283"><ele>77.4</ele><time>2026-05-02T08:31:17.139Z</time></trkpt><trkpt lat="47.88951" lon="-1.65771"><ele>76.6</ele><time>2026-05-02T08:31:18.139Z</time></trkpt><trkpt lat="47.8896" lon="-1.6578167"><ele>75.8</ele><time>2026-05-02T08:31:19.139Z</time></trkpt><trkpt lat="47.88969" lon="-1.657935"><ele>75.0</ele><time>2026-05-02T08:31:20.139Z</time></trkpt><trkpt lat="47.8897717" lon="-1.658065"><ele>74.0</ele><time>2026-05-02T08:31:21.142Z</time></trkpt><trkpt lat="47.8898417" lon="-1.65821"><ele>73.0</ele><time>2026-05-02T08:31:22.139Z</time></trkpt><trkpt lat="47.889895" lon="-1.6583733"><ele>72.0</ele><time>2026-05-02T08:31:23.139Z</time></trkpt><trkpt lat="47.88993" lon="-1.6585483"><ele>71.0</ele><time>2026-05-02T08:31:24.141Z</time></trkpt><trkpt lat="47.8899583" lon="-1.658715"><ele>69.66666666666667</ele><time>2026-05-02T08:31:25.139Z</time></trkpt><trkpt lat="47.8899817" lon="-1.6588617"><ele>68.33333333333334</ele><time>2026-05-02T08:31:26.139Z</time></trkpt><trkpt lat="47.8900033" lon="-1.6589867"><ele>67.0</ele><time>2026-05-02T08:31:27.14Z</time></trkpt><trkpt lat="47.890025" lon="-1.6590883"><ele>65.66666666666667</ele><time>2026-05-02T08:31:28.139Z</time></trkpt><trkpt lat="47.890065" lon="-1.65922"><ele>64.33333333333333</ele><time>2026-05-02T08:31:30.139Z</time></trkpt><trkpt lat="47.8901233" lon="-1.6593167"><ele>63.0</ele><time>2026-05-02T08:31:32.141Z</time></trkpt><trkpt lat="47.8902133" lon="-1.6594633"><ele>61.8</ele><time>2026-05-02T08:31:34.14Z</time></trkpt><trkpt lat="47.89026" lon="-1.6595667"><ele>60.599999999999994</ele><time>2026-05-02T08:31:35.139Z</time></trkpt><trkpt lat="47.8903067" lon="-1.6596933"><ele>59.400000000000006</ele><time>2026-05-02T08:31:36.139Z</time></trkpt><trkpt lat="47.890355" lon="-1.6598417"><ele>58.2</ele><time>2026-05-02T08:31:37.139Z</time></trkpt><trkpt lat="47.8904083" lon="-1.6600133"><ele>57.0</ele><time>2026-05-02T08:31:38.14Z</time></trkpt><trkpt lat="47.890475" lon="-1.66021"><ele>55.33333333333333</ele><time>2026-05-02T08:31:39.14Z</time></trkpt><trkpt lat="47.8905467" lon="-1.6604217"><ele>53.666666666666664</ele><time>2026-05-02T08:31:40.142Z</time></trkpt><trkpt lat="47.890625" lon="-1.6606517"><ele>52.0</ele><time>2026-05-02T08:31:41.142Z</time></trkpt><trkpt lat="47.8907067" lon="-1.6608967"><ele>51.666666666666664</ele><time>2026-05-02T08:31:42.14Z</time></trkpt><trkpt lat="47.89079" lon="-1.6611483"><ele>51.33333333333333</ele><time>2026-05-02T08:31:43.141Z</time></trkpt><trkpt lat="47.890875" lon="-1.6614017"><ele>51.0</ele><time>2026-05-02T08:31:44.14Z</time></trkpt><trkpt lat="47.8909583" lon="-1.661655"><ele>51.0</ele><time>2026-05-02T08:31:45.141Z</time></trkpt><trkpt lat="47.89104" lon="-1.66191"><ele>51.0</ele><time>2026-05-02T08:31:46.142Z</time></trkpt><trkpt lat="47.89112" lon="-1.6621583"><ele>51.0</ele><time>2026-05-02T08:31:47.14Z</time></trkpt><trkpt lat="47.8911983" lon="-1.6623917"><ele>50.0</ele><time>2026-05-02T08:31:48.139Z</time></trkpt><trkpt lat="47.891275" lon="-1.6626133"><ele>49.0</ele><time>2026-05-02T08:31:49.14Z</time></trkpt><trkpt lat="47.8913433" lon="-1.6628183"><ele>48.0</ele><time>2026-05-02T08:31:50.14Z</time></trkpt><trkpt lat="47.8914067" lon="-1.6630067"><ele>47.8</ele><time>2026-05-02T08:31:51.141Z</time></trkpt><trkpt lat="47.8914583" lon="-1.6631683"><ele>47.599999999999994</ele><time>2026-05-02T08:31:52.14Z</time></trkpt><trkpt lat="47.8915067" lon="-1.6633083"><ele>47.400000000000006</ele><time>2026-05-02T08:31:53.139Z</time></trkpt><trkpt lat="47.8915533" lon="-1.6634333"><ele>47.2</ele><time>2026-05-02T08:31:54.14Z</time></trkpt><trkpt lat="47.8915983" lon="-1.6635433"><ele>47.0</ele><time>2026-05-02T08:31:55.14Z</time></trkpt><trkpt lat="47.891645" lon="-1.663645"><ele>46.8</ele><time>2026-05-02T08:31:56.14Z</time></trkpt><trkpt lat="47.891695" lon="-1.6637367"><ele>46.6</ele><time>2026-05-02T08:31:57.141Z</time></trkpt><trkpt lat="47.8917567" lon="-1.6638333"><ele>46.4</ele><time>2026-05-02T08:31:58.14Z</time></trkpt><trkpt lat="47.8918267" lon="-1.663925"><ele>46.199999999999996</ele><time>2026-05-02T08:31:59.141Z</time></trkpt><trkpt lat="47.89191" lon="-1.664015"><ele>46.0</ele><time>2026-05-02T08:32:00.139Z</time></trkpt><trkpt lat="47.892" lon="-1.6641067"><ele>46.0</ele><time>2026-05-02T08:32:01.14Z</time></trkpt><trkpt lat="47.8920917" lon="-1.6641933"><ele>46.0</ele><time>2026-05-02T08:32:02.142Z</time></trkpt><trkpt lat="47.892175" lon="-1.6642767"><ele>46.0</ele><time>2026-05-02T08:32:03.14Z</time></trkpt><trkpt lat="47.8922567" lon="-1.6643567"><ele>46.0</ele><time>2026-05-02T08:32:04.141Z</time></trkpt><trkpt lat="47.8923283" lon="-1.66443"><ele>46.0</ele><time>2026-05-02T08:32:05.14Z</time></trkpt><trkpt lat="47.8923867" lon="-1.6645083"><ele>45.599999999999994</ele><time>2026-05-02T08:32:06.139Z</time></trkpt><trkpt lat="47.892425" lon="-1.6646133"><ele>45.2</ele><time>2026-05-02T08:32:07.141Z</time></trkpt><trkpt lat="47.8924417" lon="-1.6647467"><ele>44.8</ele><time>2026-05-02T08:32:08.14Z</time></trkpt><trkpt lat="47.8924333" lon="-1.6649117"><ele>44.400000000000006</ele><time>2026-05-02T08:32:09.141Z</time></trkpt><trkpt lat="47.8924183" lon="-1.6650883"><ele>44.0</ele><time>2026-05-02T08:32:10.141Z</time></trkpt><trkpt lat="47.892415" lon="-1.6652733"><ele>44.0</ele><time>2026-05-02T08:32:11.14Z</time></trkpt><trkpt lat="47.892425" lon="-1.66547"><ele>44.0</ele><time>2026-05-02T08:32:12.139Z</time></trkpt><trkpt lat="47.8924383" lon="-1.6656817"><ele>44.0</ele><time>2026-05-02T08:32:13.141Z</time></trkpt><trkpt lat="47.892455" lon="-1.6658917"><ele>44.0</ele><time>2026-05-02T08:32:14.141Z</time></trkpt><trkpt lat="47.89247" lon="-1.6660883"><ele>44.25</ele><time>2026-05-02T08:32:15.14Z</time></trkpt><trkpt lat="47.8924867" lon="-1.6662783"><ele>44.5</ele><time>2026-05-02T08:32:16.139Z</time></trkpt><trkpt lat="47.8925067" lon="-1.666465"><ele>44.75</ele><time>2026-05-02T08:32:17.142Z</time></trkpt><trkpt lat="47.8925283" lon="-1.6666317"><ele>45.0</ele><time>2026-05-02T08:32:18.14Z</time></trkpt><trkpt lat="47.89255" lon="-1.6667883"><ele>45.0</ele><time>2026-05-02T08:32:19.139Z</time></trkpt><trkpt lat="47.8925683" lon="-1.6669367"><ele>45.0</ele><time>2026-05-02T08:32:20.14Z</time></trkpt><trkpt lat="47.892585" lon="-1.6670783"><ele>45.0</ele><time>2026-05-02T08:32:21.141Z</time></trkpt><trkpt lat="47.8925983" lon="-1.6672117"><ele>45.0</ele><time>2026-05-02T08:32:22.14Z</time></trkpt><trkpt lat="47.8926133" lon="-1.6673467"><ele>45.0</ele><time>2026-05-02T08:32:23.139Z</time></trkpt><trkpt lat="47.89263" lon="-1.667485"><ele>45.0</ele><time>2026-05-02T08:32:24.14Z</time></trkpt><trkpt lat="47.8926433" lon="-1.6676233"><ele>45.0</ele><time>2026-05-02T08:32:25.143Z</time></trkpt><trkpt lat="47.89265" lon="-1.6677667"><ele>45.0</ele><time>2026-05-02T08:32:26.14Z</time></trkpt><trkpt lat="47.8926517" lon="-1.6679167"><ele>45.0</ele><time>2026-05-02T08:32:27.143Z</time></trkpt><trkpt lat="47.8926417" lon="-1.668075"><ele>45.0</ele><time>2026-05-02T08:32:28.139Z</time></trkpt><trkpt lat="47.8926167" lon="-1.6682383"><ele>44.0</ele><time>2026-05-02T08:32:29.14Z</time></trkpt><trkpt lat="47.8925817" lon="-1.6683983"><ele>43.0</ele><time>2026-05-02T08:32:30.142Z</time></trkpt><trkpt lat="47.8925383" lon="-1.6685517"><ele>42.0</ele><time>2026-05-02T08:32:31.14Z</time></trkpt><trkpt lat="47.8924783" lon="-1.6687117"><ele>41.0</ele><time>2026-05-02T08:32:32.141Z</time></trkpt><trkpt lat="47.892405" lon="-1.6688717"><ele>41.0</ele><time>2026-05-02T08:32:33.14Z</time></trkpt><trkpt lat="47.8923217" lon="-1.6690433"><ele>41.0</ele><time>2026-05-02T08:32:34.141Z</time></trkpt><trkpt lat="47.8922333" lon="-1.6692233"><ele>41.0</ele><time>2026-05-02T08:32:35.139Z</time></trkpt><trkpt lat="47.8921417" lon="-1.6694033"><ele>41.0</ele><time>2026-05-02T08:32:36.14Z</time></trkpt><trkpt lat="47.8920533" lon="-1.669585"><ele>40.666666666666664</ele><time>2026-05-02T08:32:37.14Z</time></trkpt><trkpt lat="47.8919633" lon="-1.6697717"><ele>40.333333333333336</ele><time>2026-05-02T08:32:38.142Z</time></trkpt><trkpt lat="47.8918767" lon="-1.66996"><ele>40.0</ele><time>2026-05-02T08:32:39.14Z</time></trkpt><trkpt lat="47.8917967" lon="-1.670155"><ele>41.0</ele><time>2026-05-02T08:32:40.14Z</time></trkpt><trkpt lat="47.891725" lon="-1.670365"><ele>42.0</ele><time>2026-05-02T08:32:41.14Z</time></trkpt><trkpt lat="47.8916633" lon="-1.670595"><ele>43.0</ele><time>2026-05-02T08:32:42.141Z</time></trkpt><trkpt lat="47.891615" lon="-1.670845"><ele>43.0</ele><time>2026-05-02T08:32:43.139Z</time></trkpt><trkpt lat="47.8915733" lon="-1.6711233"><ele>43.0</ele><time>2026-05-02T08:32:44.139Z</time></trkpt><trkpt lat="47.891545" lon="-1.6714333"><ele>43.0</ele><time>2026-05-02T08:32:45.14Z</time></trkpt><trkpt lat="47.8915217" lon="-1.6717817"><ele>42.0</ele><time>2026-05-02T08:32:46.14Z</time></trkpt><trkpt lat="47.8914933" lon="-1.6721583"><ele>41.0</ele><time>2026-05-02T08:32:47.14Z</time></trkpt><trkpt lat="47.8914617" lon="-1.6725567"><ele>41.5</ele><time>2026-05-02T08:32:48.141Z</time></trkpt><trkpt lat="47.8914283" lon="-1.6729517"><ele>42.0</ele><time>2026-05-02T08:32:49.14Z</time></trkpt><trkpt lat="47.8913967" lon="-1.6733283"><ele>43.0</ele><time>2026-05-02T08:32:50.141Z</time></trkpt><trkpt lat="47.8913667" lon="-1.6736883"><ele>44.0</ele><time>2026-05-02T08:32:51.141Z</time></trkpt><trkpt lat="47.89134" lon="-1.67402"><ele>44.0</ele><time>2026-05-02T08:32:52.139Z</time></trkpt><trkpt lat="47.8913083" lon="-1.67433"><ele>44.0</ele><time>2026-05-02T08:32:53.139Z</time></trkpt><trkpt lat="47.8912717" lon="-1.6746233"><ele>44.0</ele><time>2026-05-02T08:32:54.14Z</time></trkpt><trkpt lat="47.8912283" lon="-1.6749017"><ele>45.0</ele><time>2026-05-02T08:32:55.141Z</time></trkpt><trkpt lat="47.8911733" lon="-1.6751667"><ele>46.0</ele><time>2026-05-02T08:32:56.14Z</time></trkpt><trkpt lat="47.89111" lon="-1.6754267"><ele>47.0</ele><time>2026-05-02T08:32:57.141Z</time></trkpt><trkpt lat="47.8910433" lon="-1.6756867"><ele>47.0</ele><time>2026-05-02T08:32:58.14Z</time></trkpt><trkpt lat="47.8909783" lon="-1.6759367"><ele>47.0</ele><time>2026-05-02T08:32:59.142Z</time></trkpt><trkpt lat="47.8909167" lon="-1.6761717"><ele>47.0</ele><time>2026-05-02T08:33:00.141Z</time></trkpt><trkpt lat="47.8908583" lon="-1.6763833"><ele>49.0</ele><time>2026-05-02T08:33:01.142Z</time></trkpt><trkpt lat="47.890805" lon="-1.67658"><ele>51.0</ele><time>2026-05-02T08:33:02.142Z</time></trkpt><trkpt lat="47.8907483" lon="-1.67678"><ele>53.0</ele><time>2026-05-02T08:33:03.14Z</time></trkpt><trkpt lat="47.8906917" lon="-1.67698"><ele>55.0</ele><time>2026-05-02T08:33:04.14Z</time></trkpt><trkpt lat="47.89063" lon="-1.6771883"><ele>55.0</ele><time>2026-05-02T08:33:05.14Z</time></trkpt><trkpt lat="47.8905667" lon="-1.6774083"><ele>55.0</ele><time>2026-05-02T08:33:06.139Z</time></trkpt><trkpt lat="47.8904983" lon="-1.6776267"><ele>55.0</ele><time>2026-05-02T08:33:07.141Z</time></trkpt><trkpt lat="47.8904217" lon="-1.6778333"><ele>54.25</ele><time>2026-05-02T08:33:08.144Z</time></trkpt><trkpt lat="47.8903433" lon="-1.6780217"><ele>53.5</ele><time>2026-05-02T08:33:09.142Z</time></trkpt><trkpt lat="47.8902617" lon="-1.6781933"><ele>52.75</ele><time>2026-05-02T08:33:10.143Z</time></trkpt><trkpt lat="47.8901817" lon="-1.678365"><ele>52.0</ele><time>2026-05-02T08:33:11.141Z</time></trkpt><trkpt lat="47.8901" lon="-1.678545"><ele>53.5</ele><time>2026-05-02T08:33:12.14Z</time></trkpt><trkpt lat="47.8900267" lon="-1.6787317"><ele>55.0</ele><time>2026-05-02T08:33:13.139Z</time></trkpt><trkpt lat="47.8899583" lon="-1.6789183"><ele>56.5</ele><time>2026-05-02T08:33:14.14Z</time></trkpt><trkpt lat="47.8898983" lon="-1.6791083"><ele>58.0</ele><time>2026-05-02T08:33:15.14Z</time></trkpt><trkpt lat="47.8898467" lon="-1.6792933"><ele>57.5</ele><time>2026-05-02T08:33:16.14Z</time></trkpt><trkpt lat="47.8897967" lon="-1.6794783"><ele>57.0</ele><time>2026-05-02T08:33:17.141Z</time></trkpt><trkpt lat="47.8897483" lon="-1.6796717"><ele>56.5</ele><time>2026-05-02T08:33:18.139Z</time></trkpt><trkpt lat="47.8896983" lon="-1.6798733"><ele>56.0</ele><time>2026-05-02T08:33:19.139Z</time></trkpt><trkpt lat="47.8896467" lon="-1.6800717"><ele>56.0</ele><time>2026-05-02T08:33:20.139Z</time></trkpt><trkpt lat="47.8895883" lon="-1.6802617"><ele>56.0</ele><time>2026-05-02T08:33:21.14Z</time></trkpt><trkpt lat="47.8895267" lon="-1.6804483"><ele>56.0</ele><time>2026-05-02T08:33:22.139Z</time></trkpt><trkpt lat="47.88946" lon="-1.68063"><ele>56.0</ele><time>2026-05-02T08:33:23.139Z</time></trkpt><trkpt lat="47.8893883" lon="-1.6808133"><ele>57.0</ele><time>2026-05-02T08:33:24.139Z</time></trkpt><trkpt lat="47.8893133" lon="-1.6810033"><ele>58.0</ele><time>2026-05-02T08:33:25.14Z</time></trkpt><trkpt lat="47.8892383" lon="-1.6812"><ele>59.0</ele><time>2026-05-02T08:33:26.139Z</time></trkpt><trkpt lat="47.889165" lon="-1.6813983"><ele>59.0</ele><time>2026-05-02T08:33:27.141Z</time></trkpt><trkpt lat="47.8890917" lon="-1.6815983"><ele>59.0</ele><time>2026-05-02T08:33:28.139Z</time></trkpt><trkpt lat="47.8890233" lon="-1.6817883"><ele>59.0</ele><time>2026-05-02T08:33:29.14Z</time></trkpt><trkpt lat="47.8889617" lon="-1.6819633"><ele>59.0</ele><time>2026-05-02T08:33:30.14Z</time></trkpt><trkpt lat="47.8889067" lon="-1.6821283"><ele>58.6</ele><time>2026-05-02T08:33:31.14Z</time></trkpt><trkpt lat="47.8888517" lon="-1.68229"><ele>58.2</ele><time>2026-05-02T08:33:32.142Z</time></trkpt><trkpt lat="47.8888" lon="-1.6824433"><ele>57.800000000000004</ele><time>2026-05-02T08:33:33.142Z</time></trkpt><trkpt lat="47.8887533" lon="-1.68259"><ele>57.400000000000006</ele><time>2026-05-02T08:33:34.14Z</time></trkpt><trkpt lat="47.8887183" lon="-1.6827317"><ele>57.0</ele><time>2026-05-02T08:33:35.142Z</time></trkpt><trkpt lat="47.888695" lon="-1.68287"><ele>56.6</ele><time>2026-05-02T08:33:36.14Z</time></trkpt><trkpt lat="47.8886767" lon="-1.6830117"><ele>56.2</ele><time>2026-05-02T08:33:37.141Z</time></trkpt><trkpt lat="47.88865" lon="-1.683155"><ele>55.8</ele><time>2026-05-02T08:33:38.141Z</time></trkpt><trkpt lat="47.88862" lon="-1.683305"><ele>55.4</ele><time>2026-05-02T08:33:39.142Z</time></trkpt><trkpt lat="47.8885867" lon="-1.6834517"><ele>55.0</ele><time>2026-05-02T08:33:40.143Z</time></trkpt><trkpt lat="47.8885533" lon="-1.6835983"><ele>55.0</ele><time>2026-05-02T08:33:41.141Z</time></trkpt><trkpt lat="47.8885167" lon="-1.6837467"><ele>55.0</ele><time>2026-05-02T08:33:42.141Z</time></trkpt><trkpt lat="47.88848" lon="-1.6839033"><ele>55.0</ele><time>2026-05-02T08:33:43.14Z</time></trkpt><trkpt lat="47.8884367" lon="-1.6840667"><ele>55.0</ele><time>2026-05-02T08:33:44.14Z</time></trkpt><trkpt lat="47.88839" lon="-1.68423"><ele>56.5</ele><time>2026-05-02T08:33:45.14Z</time></trkpt><trkpt lat="47.8883367" lon="-1.6843917"><ele>58.0</ele><time>2026-05-02T08:33:46.139Z</time></trkpt><trkpt lat="47.8882867" lon="-1.6845533"><ele>59.5</ele><time>2026-05-02T08:33:47.139Z</time></trkpt><trkpt lat="47.88825" lon="-1.6847167"><ele>61.0</ele><time>2026-05-02T08:33:48.14Z</time></trkpt><trkpt lat="47.8882233" lon="-1.6848633"><ele>60.99999999999999</ele><time>2026-05-02T08:33:49.14Z</time></trkpt><trkpt lat="47.8882033" lon="-1.6849717"><ele>61.0</ele><time>2026-05-02T08:33:50.14Z</time></trkpt><trkpt lat="47.88819" lon="-1.6851"><ele>61.0</ele><time>2026-05-02T08:33:52.14Z</time></trkpt><trkpt lat="47.8881733" lon="-1.6852583"><ele>61.0</ele><time>2026-05-02T08:34:12.139Z</time></trkpt><trkpt lat="47.8881417" lon="-1.6853433"><ele>60.99999999999999</ele><time>2026-05-02T08:34:13.14Z</time></trkpt><trkpt lat="47.8881067" lon="-1.6854417"><ele>61.0</ele><time>2026-05-02T08:34:14.141Z</time></trkpt><trkpt lat="47.8880783" lon="-1.6855533"><ele>61.166666666666664</ele><time>2026-05-02T08:34:15.14Z</time></trkpt><trkpt lat="47.8880533" lon="-1.6856617"><ele>61.33333333333333</ele><time>2026-05-02T08:34:16.139Z</time></trkpt><trkpt lat="47.8880167" lon="-1.68574"><ele>61.5</ele><time>2026-05-02T08:34:17.139Z</time></trkpt><trkpt lat="47.8879167" lon="-1.6858017"><ele>61.66666666666667</ele><time>2026-05-02T08:34:19.143Z</time></trkpt><trkpt lat="47.887855" lon="-1.6857783"><ele>61.833333333333336</ele><time>2026-05-02T08:34:20.14Z</time></trkpt><trkpt lat="47.8877917" lon="-1.68574"><ele>62.0</ele><time>2026-05-02T08:34:21.14Z</time></trkpt><trkpt lat="47.8877183" lon="-1.685685"><ele>62.00000000000001</ele><time>2026-05-02T08:34:22.141Z</time></trkpt><trkpt lat="47.8876467" lon="-1.6856283"><ele>62.0</ele><time>2026-05-02T08:34:23.14Z</time></trkpt><trkpt lat="47.8875783" lon="-1.6855833"><ele>62.0</ele><time>2026-05-02T08:34:24.14Z</time></trkpt><trkpt lat="47.887515" lon="-1.6855567"><ele>62.0</ele><time>2026-05-02T08:34:25.14Z</time></trkpt><trkpt lat="47.8874" lon="-1.6855533"><ele>62.00000000000001</ele><time>2026-05-02T08:34:27.14Z</time></trkpt><trkpt lat="47.88732" lon="-1.6855717"><ele>62.0</ele><time>2026-05-02T08:34:29.139Z</time></trkpt><trkpt lat="47.8872667" lon="-1.68549"><ele>62.66666666666667</ele><time>2026-05-02T08:34:32.14Z</time></trkpt><trkpt lat="47.8871983" lon="-1.685485"><ele>63.333333333333336</ele><time>2026-05-02T08:43:09.139Z</time></trkpt><trkpt lat="47.8871483" lon="-1.685605"><ele>64.0</ele><time>2026-05-02T08:43:28.139Z</time></trkpt><trkpt lat="47.8870783" lon="-1.6856683"><ele>64.66666666666667</ele><time>2026-05-02T08:43:30.139Z</time></trkpt><trkpt lat="47.887015" lon="-1.6856983"><ele>65.33333333333333</ele><time>2026-05-02T08:43:31.14Z</time></trkpt><trkpt lat="47.88693" lon="-1.685735"><ele>66.0</ele><time>2026-05-02T08:43:32.14Z</time></trkpt><trkpt lat="47.88683" lon="-1.6857683"><ele>66.0</ele><time>2026-05-02T08:43:33.141Z</time></trkpt><trkpt lat="47.8867267" lon="-1.6858017"><ele>66.0</ele><time>2026-05-02T08:43:34.139Z</time></trkpt><trkpt lat="47.8866117" lon="-1.6858367"><ele>66.0</ele><time>2026-05-02T08:43:35.141Z</time></trkpt><trkpt lat="47.8864883" lon="-1.6858717"><ele>66.0</ele><time>2026-05-02T08:43:36.139Z</time></trkpt><trkpt lat="47.8863583" lon="-1.6859"><ele>66.0</ele><time>2026-05-02T08:43:37.139Z</time></trkpt><trkpt lat="47.886225" lon="-1.68592"><ele>66.0</ele><time>2026-05-02T08:43:38.139Z</time></trkpt><trkpt lat="47.88609" lon="-1.6859217"><ele>66.0</ele><time>2026-05-02T08:43:39.139Z</time></trkpt><trkpt lat="47.8859583" lon="-1.6859067"><ele>66.0</ele><time>2026-05-02T08:43:40.14Z</time></trkpt><trkpt lat="47.885835" lon="-1.6858733"><ele>64.25</ele><time>2026-05-02T08:43:41.139Z</time></trkpt><trkpt lat="47.88572" lon="-1.685815"><ele>62.5</ele><time>2026-05-02T08:43:42.139Z</time></trkpt><trkpt lat="47.8856117" lon="-1.6857233"><ele>60.75</ele><time>2026-05-02T08:43:43.139Z</time></trkpt><trkpt lat="47.88551" lon="-1.6856117"><ele>59.0</ele><time>2026-05-02T08:43:44.139Z</time></trkpt><trkpt lat="47.8854083" lon="-1.6854917"><ele>59.0</ele><time>2026-05-02T08:43:45.14Z</time></trkpt><trkpt lat="47.885305" lon="-1.68537"><ele>59.0</ele><time>2026-05-02T08:43:46.139Z</time></trkpt><trkpt lat="47.8852" lon="-1.6852467"><ele>59.0</ele><time>2026-05-02T08:43:47.139Z</time></trkpt><trkpt lat="47.8850883" lon="-1.6851183"><ele>59.0</ele><time>2026-05-02T08:43:48.14Z</time></trkpt><trkpt lat="47.88497" lon="-1.6849967"><ele>56.5</ele><time>2026-05-02T08:43:49.139Z</time></trkpt><trkpt lat="47.8848483" lon="-1.684875"><ele>54.0</ele><time>2026-05-02T08:43:50.139Z</time></trkpt><trkpt lat="47.88473" lon="-1.68474"><ele>51.5</ele><time>2026-05-02T08:43:51.139Z</time></trkpt><trkpt lat="47.8846067" lon="-1.6846067"><ele>49.0</ele><time>2026-05-02T08:43:52.139Z</time></trkpt><trkpt lat="47.8844833" lon="-1.6844667"><ele>50.0</ele><time>2026-05-02T08:43:53.139Z</time></trkpt><trkpt lat="47.8843583" lon="-1.6843233"><ele>51.0</ele><time>2026-05-02T08:43:54.138Z</time></trkpt><trkpt lat="47.8842333" lon="-1.6841817"><ele>52.0</ele><time>2026-05-02T08:43:55.139Z</time></trkpt><trkpt lat="47.8841117" lon="-1.6840467"><ele>48.75</ele><time>2026-05-02T08:43:56.14Z</time></trkpt><trkpt lat="47.883995" lon="-1.6839133"><ele>45.5</ele><time>2026-05-02T08:43:57.138Z</time></trkpt><trkpt lat="47.8838833" lon="-1.683785"><ele>42.25</ele><time>2026-05-02T08:43:58.138Z</time></trkpt><trkpt lat="47.8837767" lon="-1.6836567"><ele>39.0</ele><time>2026-05-02T08:43:59.139Z</time></trkpt><trkpt lat="47.883675" lon="-1.6835367"><ele>39.0</ele><time>2026-05-02T08:44:00.14Z</time></trkpt><trkpt lat="47.8835767" lon="-1.6834233"><ele>39.0</ele><time>2026-05-02T08:44:01.139Z</time></trkpt><trkpt lat="47.8834833" lon="-1.6833183"><ele>39.0</ele><time>2026-05-02T08:44:02.139Z</time></trkpt><trkpt lat="47.8834" lon="-1.6832267"><ele>39.0</ele><time>2026-05-02T08:44:03.139Z</time></trkpt><trkpt lat="47.8833317" lon="-1.68316"><ele>39.0</ele><time>2026-05-02T08:44:04.139Z</time></trkpt><trkpt lat="47.883235" lon="-1.6831133"><ele>37.2</ele><time>2026-05-02T08:44:06.139Z</time></trkpt><trkpt lat="47.8831283" lon="-1.6830283"><ele>35.4</ele><time>2026-05-02T08:44:20.138Z</time></trkpt><trkpt lat="47.8830717" lon="-1.68294"><ele>33.6</ele><time>2026-05-02T08:44:21.14Z</time></trkpt><trkpt lat="47.8830083" lon="-1.682835"><ele>31.8</ele><time>2026-05-02T08:44:22.139Z</time></trkpt><trkpt lat="47.8829333" lon="-1.682725"><ele>30.0</ele><time>2026-05-02T08:44:23.139Z</time></trkpt><trkpt lat="47.8828467" lon="-1.68261"><ele>30.0</ele><time>2026-05-02T08:44:24.139Z</time></trkpt><trkpt lat="47.8827467" lon="-1.68249"><ele>30.0</ele><time>2026-05-02T08:44:25.139Z</time></trkpt><trkpt lat="47.8826383" lon="-1.6823667"><ele>30.0</ele><time>2026-05-02T08:44:26.139Z</time></trkpt><trkpt lat="47.8825317" lon="-1.682245"><ele>30.0</ele><time>2026-05-02T08:44:27.139Z</time></trkpt><trkpt lat="47.88243" lon="-1.6821233"><ele>28.0</ele><time>2026-05-02T08:44:28.139Z</time></trkpt><trkpt lat="47.8823317" lon="-1.682005"><ele>26.0</ele><time>2026-05-02T08:44:29.139Z</time></trkpt><trkpt lat="47.8822217" lon="-1.681885"><ele>24.0</ele><time>2026-05-02T08:44:30.143Z</time></trkpt><trkpt lat="47.8821067" lon="-1.6817583"><ele>22.0</ele><time>2026-05-02T08:44:31.139Z</time></trkpt><trkpt lat="47.8819883" lon="-1.6816283"><ele>21.333333333333332</ele><time>2026-05-02T08:44:32.138Z</time></trkpt><trkpt lat="47.881865" lon="-1.6814967"><ele>20.666666666666668</ele><time>2026-05-02T08:44:33.139Z</time></trkpt><trkpt lat="47.8817367" lon="-1.6813567"><ele>20.0</ele><time>2026-05-02T08:44:34.14Z</time></trkpt><trkpt lat="47.8816067" lon="-1.6812133"><ele>19.666666666666668</ele><time>2026-05-02T08:44:35.14Z</time></trkpt><trkpt lat="47.8814783" lon="-1.681065"><ele>19.333333333333332</ele><time>2026-05-02T08:44:36.14Z</time></trkpt><trkpt lat="47.881345" lon="-1.6809167"><ele>19.0</ele><time>2026-05-02T08:44:37.14Z</time></trkpt><trkpt lat="47.8812133" lon="-1.6807667"><ele>19.0</ele><time>2026-05-02T08:44:38.141Z</time></trkpt><trkpt lat="47.8810783" lon="-1.6806217"><ele>19.0</ele><time>2026-05-02T08:44:39.141Z</time></trkpt><trkpt lat="47.8809517" lon="-1.6804833"><ele>19.0</ele><time>2026-05-02T08:44:40.14Z</time></trkpt><trkpt lat="47.8808333" lon="-1.6803567"><ele>19.6</ele><time>2026-05-02T08:44:41.143Z</time></trkpt><trkpt lat="47.8807283" lon="-1.68024"><ele>20.2</ele><time>2026-05-02T08:44:42.14Z</time></trkpt><trkpt lat="47.8806383" lon="-1.6801317"><ele>20.8</ele><time>2026-05-02T08:44:43.141Z</time></trkpt><trkpt lat="47.88057" lon="-1.6800517"><ele>21.400000000000002</ele><time>2026-05-02T08:44:44.14Z</time></trkpt><trkpt lat="47.88051" lon="-1.6800033"><ele>22.0</ele><time>2026-05-02T08:44:45.14Z</time></trkpt><trkpt lat="47.8803917" lon="-1.6800233"><ele>22.0</ele><time>2026-05-02T08:44:47.139Z</time></trkpt><trkpt lat="47.8803283" lon="-1.6800817"><ele>22.0</ele><time>2026-05-02T08:44:48.141Z</time></trkpt><trkpt lat="47.8802583" lon="-1.6801683"><ele>22.0</ele><time>2026-05-02T08:44:49.142Z</time></trkpt><trkpt lat="47.8801817" lon="-1.6802667"><ele>22.0</ele><time>2026-05-02T08:44:50.14Z</time></trkpt><trkpt lat="47.8801033" lon="-1.6803717"><ele>22.0</ele><time>2026-05-02T08:44:51.14Z</time></trkpt><trkpt lat="47.8800217" lon="-1.6804683"><ele>22.400000000000002</ele><time>2026-05-02T08:44:52.14Z</time></trkpt><trkpt lat="47.879935" lon="-1.6805433"><ele>22.8</ele><time>2026-05-02T08:44:53.138Z</time></trkpt><trkpt lat="47.87984" lon="-1.680585"><ele>23.2</ele><time>2026-05-02T08:44:54.14Z</time></trkpt><trkpt lat="47.8797333" lon="-1.6806083"><ele>23.6</ele><time>2026-05-02T08:44:55.14Z</time></trkpt><trkpt lat="47.87962" lon="-1.6806383"><ele>24.0</ele><time>2026-05-02T08:44:56.139Z</time></trkpt><trkpt lat="47.8794983" lon="-1.6807033"><ele>24.0</ele><time>2026-05-02T08:44:57.14Z</time></trkpt><trkpt lat="47.8793667" lon="-1.6808"><ele>24.0</ele><time>2026-05-02T08:44:58.14Z</time></trkpt><trkpt lat="47.8792233" lon="-1.680905"><ele>24.0</ele><time>2026-05-02T08:44:59.141Z</time></trkpt><trkpt lat="47.8790767" lon="-1.6810083"><ele>24.333333333333336</ele><time>2026-05-02T08:45:00.139Z</time></trkpt><trkpt lat="47.87893" lon="-1.68112"><ele>24.666666666666668</ele><time>2026-05-02T08:45:01.14Z</time></trkpt><trkpt lat="47.87878" lon="-1.68122"><ele>25.0</ele><time>2026-05-02T08:45:02.14Z</time></trkpt><trkpt lat="47.8786217" lon="-1.6812967"><ele>25.0</ele><time>2026-05-02T08:45:03.143Z</time></trkpt><trkpt lat="47.8784617" lon="-1.6813667"><ele>25.0</ele><time>2026-05-02T08:45:04.14Z</time></trkpt><trkpt lat="47.87829" lon="-1.6814183"><ele>25.0</ele><time>2026-05-02T08:45:05.139Z</time></trkpt><trkpt lat="47.878115" lon="-1.6814717"><ele>25.666666666666668</ele><time>2026-05-02T08:45:06.14Z</time></trkpt><trkpt lat="47.87794" lon="-1.6815333"><ele>26.333333333333336</ele><time>2026-05-02T08:45:07.139Z</time></trkpt><trkpt lat="47.8777683" lon="-1.6815967"><ele>27.0</ele><time>2026-05-02T08:45:08.139Z</time></trkpt><trkpt lat="47.8776" lon="-1.6816583"><ele>27.0</ele><time>2026-05-02T08:45:09.14Z</time></trkpt><trkpt lat="47.877435" lon="-1.6817133"><ele>27.0</ele><time>2026-05-02T08:45:10.139Z</time></trkpt><trkpt lat="47.877265" lon="-1.6817617"><ele>27.0</ele><time>2026-05-02T08:45:11.141Z</time></trkpt><trkpt lat="47.8770917" lon="-1.681805"><ele>27.0</ele><time>2026-05-02T08:45:12.14Z</time></trkpt><trkpt lat="47.8769133" lon="-1.681855"><ele>27.0</ele><time>2026-05-02T08:45:13.14Z</time></trkpt><trkpt lat="47.8767317" lon="-1.681895"><ele>27.0</ele><time>2026-05-02T08:45:14.14Z</time></trkpt><trkpt lat="47.8765483" lon="-1.681935"><ele>30.0</ele><time>2026-05-02T08:45:15.141Z</time></trkpt><trkpt lat="47.87636" lon="-1.68197"><ele>33.0</ele><time>2026-05-02T08:45:16.142Z</time></trkpt><trkpt lat="47.8761783" lon="-1.6820067"><ele>36.0</ele><time>2026-05-02T08:45:17.14Z</time></trkpt><trkpt lat="47.8760067" lon="-1.6820467"><ele>35.5</ele><time>2026-05-02T08:45:18.14Z</time></trkpt><trkpt lat="47.8758517" lon="-1.6820833"><ele>35.0</ele><time>2026-05-02T08:45:19.145Z</time></trkpt><trkpt lat="47.8757017" lon="-1.68213"><ele>34.5</ele><time>2026-05-02T08:45:20.14Z</time></trkpt><trkpt lat="47.87558" lon="-1.6822067"><ele>34.0</ele><time>2026-05-02T08:45:21.14Z</time></trkpt><trkpt lat="47.8754767" lon="-1.682285"><ele>34.0</ele><time>2026-05-02T08:45:22.14Z</time></trkpt><trkpt lat="47.875395" lon="-1.68236"><ele>34.0</ele><time>2026-05-02T08:45:23.141Z</time></trkpt><trkpt lat="47.8753283" lon="-1.6824267"><ele>34.0</ele><time>2026-05-02T08:45:24.141Z</time></trkpt><trkpt lat="47.8752567" lon="-1.682515"><ele>34.0</ele><time>2026-05-02T08:45:26.141Z</time></trkpt><trkpt lat="47.875215" lon="-1.682615"><ele>34.0</ele><time>2026-05-02T08:45:28.14Z</time></trkpt><trkpt lat="47.8751933" lon="-1.6827967"><ele>34.4</ele><time>2026-05-02T08:45:30.14Z</time></trkpt><trkpt lat="47.8752017" lon="-1.6829283"><ele>34.8</ele><time>2026-05-02T08:45:31.141Z</time></trkpt><trkpt lat="47.8752067" lon="-1.683075"><ele>35.2</ele><time>2026-05-02T08:45:32.14Z</time></trkpt><trkpt lat="47.8752067" lon="-1.683235"><ele>35.6</ele><time>2026-05-02T08:45:33.14Z</time></trkpt><trkpt lat="47.8752083" lon="-1.683415"><ele>36.0</ele><time>2026-05-02T08:45:34.14Z</time></trkpt><trkpt lat="47.8752067" lon="-1.6836033"><ele>36.75</ele><time>2026-05-02T08:45:35.14Z</time></trkpt><trkpt lat="47.875205" lon="-1.6838"><ele>37.5</ele><time>2026-05-02T08:45:36.14Z</time></trkpt><trkpt lat="47.875205" lon="-1.6840117"><ele>38.25</ele><time>2026-05-02T08:45:37.14Z</time></trkpt><trkpt lat="47.8752" lon="-1.68423"><ele>39.0</ele><time>2026-05-02T08:45:38.142Z</time></trkpt><trkpt lat="47.8751983" lon="-1.6844617"><ele>40.0</ele><time>2026-05-02T08:45:39.14Z</time></trkpt><trkpt lat="47.8752" lon="-1.6847017"><ele>41.0</ele><time>2026-05-02T08:45:40.14Z</time></trkpt><trkpt lat="47.875205" lon="-1.684945"><ele>42.0</ele><time>2026-05-02T08:45:41.14Z</time></trkpt><trkpt lat="47.8752167" lon="-1.6851917"><ele>42.666666666666664</ele><time>2026-05-02T08:45:42.141Z</time></trkpt><trkpt lat="47.8752367" lon="-1.6854417"><ele>43.33333333333333</ele><time>2026-05-02T08:45:43.14Z</time></trkpt><trkpt lat="47.8752683" lon="-1.68569"><ele>44.0</ele><time>2026-05-02T08:45:44.14Z</time></trkpt><trkpt lat="47.8753" lon="-1.6859333"><ele>44.0</ele><time>2026-05-02T08:45:45.14Z</time></trkpt><trkpt lat="47.875335" lon="-1.6861817"><ele>44.0</ele><time>2026-05-02T08:45:46.142Z</time></trkpt><trkpt lat="47.87537" lon="-1.6864333"><ele>44.0</ele><time>2026-05-02T08:45:47.14Z</time></trkpt><trkpt lat="47.8754033" lon="-1.68669"><ele>45.0</ele><time>2026-05-02T08:45:48.14Z</time></trkpt><trkpt lat="47.8754367" lon="-1.68695"><ele>46.0</ele><time>2026-05-02T08:45:49.14Z</time></trkpt><trkpt lat="47.87547" lon="-1.6872117"><ele>47.0</ele><time>2026-05-02T08:45:50.14Z</time></trkpt><trkpt lat="47.8755033" lon="-1.68748"><ele>47.0</ele><time>2026-05-02T08:45:51.141Z</time></trkpt><trkpt lat="47.87554" lon="-1.6877533"><ele>47.0</ele><time>2026-05-02T08:45:52.14Z</time></trkpt><trkpt lat="47.8755767" lon="-1.6880267"><ele>47.0</ele><time>2026-05-02T08:45:53.14Z</time></trkpt><trkpt lat="47.8756167" lon="-1.6883083"><ele>46.666666666666664</ele><time>2026-05-02T08:45:54.14Z</time></trkpt><trkpt lat="47.8756567" lon="-1.68859"><ele>46.333333333333336</ele><time>2026-05-02T08:45:55.14Z</time></trkpt><trkpt lat="47.875695" lon="-1.6888733"><ele>46.0</ele><time>2026-05-02T08:45:56.14Z</time></trkpt><trkpt lat="47.8757317" lon="-1.689155"><ele>46.66666666666667</ele><time>2026-05-02T08:45:57.14Z</time></trkpt><trkpt lat="47.8757717" lon="-1.6894417"><ele>47.333333333333336</ele><time>2026-05-02T08:45:58.139Z</time></trkpt><trkpt lat="47.8758117" lon="-1.68973"><ele>48.0</ele><time>2026-05-02T08:45:59.141Z</time></trkpt><trkpt lat="47.8758517" lon="-1.6900217"><ele>48.66666666666667</ele><time>2026-05-02T08:46:00.139Z</time></trkpt><trkpt lat="47.8758883" lon="-1.6903083"><ele>49.333333333333336</ele><time>2026-05-02T08:46:01.14Z</time></trkpt><trkpt lat="47.875925" lon="-1.6905783"><ele>50.0</ele><time>2026-05-02T08:46:02.139Z</time></trkpt><trkpt lat="47.8759633" lon="-1.6908283"><ele>50.0</ele><time>2026-05-02T08:46:03.14Z</time></trkpt><trkpt lat="47.8760083" lon="-1.6910567"><ele>50.0</ele><time>2026-05-02T08:46:04.14Z</time></trkpt><trkpt lat="47.8760667" lon="-1.6912667"><ele>50.0</ele><time>2026-05-02T08:46:05.139Z</time></trkpt><trkpt lat="47.87614" lon="-1.6914767"><ele>50.0</ele><time>2026-05-02T08:46:06.14Z</time></trkpt><trkpt lat="47.87623" lon="-1.6916867"><ele>50.0</ele><time>2026-05-02T08:46:07.14Z</time></trkpt><trkpt lat="47.8763267" lon="-1.6919"><ele>50.0</ele><time>2026-05-02T08:46:08.139Z</time></trkpt><trkpt lat="47.87643" lon="-1.6921233"><ele>50.333333333333336</ele><time>2026-05-02T08:46:09.14Z</time></trkpt><trkpt lat="47.87653" lon="-1.6923467"><ele>50.66666666666667</ele><time>2026-05-02T08:46:10.14Z</time></trkpt><trkpt lat="47.8766267" lon="-1.6925717"><ele>51.0</ele><time>2026-05-02T08:46:11.139Z</time></trkpt><trkpt lat="47.876715" lon="-1.69279"><ele>51.66666666666667</ele><time>2026-05-02T08:46:12.142Z</time></trkpt><trkpt lat="47.8767967" lon="-1.693005"><ele>52.333333333333336</ele><time>2026-05-02T08:46:13.138Z</time></trkpt><trkpt lat="47.876865" lon="-1.6932083"><ele>53.0</ele><time>2026-05-02T08:46:14.14Z</time></trkpt><trkpt lat="47.8769217" lon="-1.6934017"><ele>53.0</ele><time>2026-05-02T08:46:15.14Z</time></trkpt><trkpt lat="47.876965" lon="-1.693585"><ele>53.0</ele><time>2026-05-02T08:46:16.139Z</time></trkpt><trkpt lat="47.8769967" lon="-1.6937567"><ele>53.0</ele><time>2026-05-02T08:46:17.139Z</time></trkpt><trkpt lat="47.8770217" lon="-1.69392"><ele>53.0</ele><time>2026-05-02T08:46:18.139Z</time></trkpt><trkpt lat="47.8770433" lon="-1.6940817"><ele>53.4</ele><time>2026-05-02T08:46:19.139Z</time></trkpt><trkpt lat="47.8770617" lon="-1.6942467"><ele>53.8</ele><time>2026-05-02T08:46:20.141Z</time></trkpt><trkpt lat="47.8770817" lon="-1.6944133"><ele>54.2</ele><time>2026-05-02T08:46:21.139Z</time></trkpt><trkpt lat="47.8771" lon="-1.6945533"><ele>54.6</ele><time>2026-05-02T08:46:22.14Z</time></trkpt><trkpt lat="47.8771133" lon="-1.69466"><ele>55.0</ele><time>2026-05-02T08:46:23.14Z</time></trkpt><trkpt lat="47.8771233" lon="-1.6947567"><ele>54.99999999999999</ele><time>2026-05-02T08:46:24.139Z</time></trkpt><trkpt lat="47.877135" lon="-1.6948517"><ele>55.0</ele><time>2026-05-02T08:46:25.14Z</time></trkpt><trkpt lat="47.8771467" lon="-1.6949517"><ele>55.0</ele><time>2026-05-02T08:46:26.139Z</time></trkpt><trkpt lat="47.8771583" lon="-1.695055"><ele>55.0</ele><time>2026-05-02T08:46:27.14Z</time></trkpt><trkpt lat="47.877175" lon="-1.695165"><ele>54.99999999999999</ele><time>2026-05-02T08:46:28.14Z</time></trkpt><trkpt lat="47.877195" lon="-1.6952883"><ele>55.0</ele><time>2026-05-02T08:46:29.14Z</time></trkpt><trkpt lat="47.87722" lon="-1.6954283"><ele>55.0</ele><time>2026-05-02T08:46:30.14Z</time></trkpt><trkpt lat="47.8772567" lon="-1.6955717"><ele>55.0</ele><time>2026-05-02T08:46:31.139Z</time></trkpt><trkpt lat="47.8772983" lon="-1.6957067"><ele>55.0</ele><time>2026-05-02T08:46:32.14Z</time></trkpt><trkpt lat="47.877335" lon="-1.6958133"><ele>55.0</ele><time>2026-05-02T08:46:33.14Z</time></trkpt><trkpt lat="47.877385" lon="-1.69594"><ele>55.0</ele><time>2026-05-02T08:46:35.139Z</time></trkpt><trkpt lat="47.87742" lon="-1.696035"><ele>54.8</ele><time>2026-05-02T08:46:37.141Z</time></trkpt><trkpt lat="47.8773817" lon="-1.6961367"><ele>54.6</ele><time>2026-05-02T08:46:39.14Z</time></trkpt><trkpt lat="47.8772567" lon="-1.69623"><ele>54.400000000000006</ele><time>2026-05-02T08:46:41.14Z</time></trkpt><trkpt lat="47.8771567" lon="-1.6962783"><ele>54.2</ele><time>2026-05-02T08:46:42.139Z</time></trkpt><trkpt lat="47.877055" lon="-1.696335"><ele>54.0</ele><time>2026-05-02T08:46:43.142Z</time></trkpt><trkpt lat="47.87694" lon="-1.6963967"><ele>54.0</ele><time>2026-05-02T08:46:44.139Z</time></trkpt><trkpt lat="47.87682" lon="-1.6964633"><ele>54.0</ele><time>2026-05-02T08:46:45.14Z</time></trkpt><trkpt lat="47.876695" lon="-1.696535"><ele>54.0</ele><time>2026-05-02T08:46:46.141Z</time></trkpt><trkpt lat="47.876565" lon="-1.696605"><ele>54.0</ele><time>2026-05-02T08:46:47.139Z</time></trkpt><trkpt lat="47.876435" lon="-1.6966767"><ele>54.25</ele><time>2026-05-02T08:46:48.14Z</time></trkpt><trkpt lat="47.8763083" lon="-1.6967433"><ele>54.5</ele><time>2026-05-02T08:46:49.14Z</time></trkpt><trkpt lat="47.8761783" lon="-1.6967967"><ele>54.75</ele><time>2026-05-02T08:46:50.142Z</time></trkpt><trkpt lat="47.8760467" lon="-1.69684"><ele>55.0</ele><time>2026-05-02T08:46:51.141Z</time></trkpt><trkpt lat="47.875905" lon="-1.6968767"><ele>55.33333333333333</ele><time>2026-05-02T08:46:52.14Z</time></trkpt><trkpt lat="47.8757567" lon="-1.696905"><ele>55.66666666666667</ele><time>2026-05-02T08:46:53.139Z</time></trkpt><trkpt lat="47.875605" lon="-1.6969333"><ele>56.0</ele><time>2026-05-02T08:46:54.14Z</time></trkpt><trkpt lat="47.8754483" lon="-1.6969533"><ele>56.25</ele><time>2026-05-02T08:46:55.139Z</time></trkpt><trkpt lat="47.8752933" lon="-1.696965"><ele>56.5</ele><time>2026-05-02T08:46:56.14Z</time></trkpt><trkpt lat="47.87515" lon="-1.6969733"><ele>56.75</ele><time>2026-05-02T08:46:57.14Z</time></trkpt><trkpt lat="47.8750233" lon="-1.6969817"><ele>57.0</ele><time>2026-05-02T08:46:58.141Z</time></trkpt><trkpt lat="47.8749017" lon="-1.697005"><ele>57.5</ele><time>2026-05-02T08:46:59.139Z</time></trkpt><trkpt lat="47.87478" lon="-1.69705"><ele>58.0</ele><time>2026-05-02T08:47:00.139Z</time></trkpt><trkpt lat="47.8746583" lon="-1.69711"><ele>58.5</ele><time>2026-05-02T08:47:01.14Z</time></trkpt><trkpt lat="47.8745283" lon="-1.6971783"><ele>59.0</ele><time>2026-05-02T08:47:02.139Z</time></trkpt><trkpt lat="47.87439" lon="-1.6972517"><ele>59.0</ele><time>2026-05-02T08:47:03.14Z</time></trkpt><trkpt lat="47.8742483" lon="-1.69733"><ele>59.0</ele><time>2026-05-02T08:47:04.14Z</time></trkpt><trkpt lat="47.8741" lon="-1.6974133"><ele>59.0</ele><time>2026-05-02T08:47:05.139Z</time></trkpt><trkpt lat="47.873945" lon="-1.69749"><ele>59.0</ele><time>2026-05-02T08:47:06.139Z</time></trkpt><trkpt lat="47.8737817" lon="-1.6975483"><ele>59.0</ele><time>2026-05-02T08:47:07.14Z</time></trkpt><trkpt lat="47.8736167" lon="-1.6975917"><ele>59.0</ele><time>2026-05-02T08:47:08.139Z</time></trkpt><trkpt lat="47.8734483" lon="-1.697625"><ele>60.0</ele><time>2026-05-02T08:47:09.14Z</time></trkpt><trkpt lat="47.8732733" lon="-1.6976483"><ele>61.0</ele><time>2026-05-02T08:47:10.14Z</time></trkpt><trkpt lat="47.8731017" lon="-1.6976717"><ele>62.0</ele><time>2026-05-02T08:47:11.139Z</time></trkpt><trkpt lat="47.8729417" lon="-1.6977"><ele>62.0</ele><time>2026-05-02T08:47:12.14Z</time></trkpt><trkpt lat="47.8728017" lon="-1.6977517"><ele>62.0</ele><time>2026-05-02T08:47:13.14Z</time></trkpt><trkpt lat="47.8726817" lon="-1.6978333"><ele>62.0</ele><time>2026-05-02T08:47:14.139Z</time></trkpt><trkpt lat="47.8725867" lon="-1.6979483"><ele>62.0</ele><time>2026-05-02T08:47:15.14Z</time></trkpt><trkpt lat="47.8725133" lon="-1.69809"><ele>64.75</ele><time>2026-05-02T08:47:16.139Z</time></trkpt><trkpt lat="47.8724683" lon="-1.6982533"><ele>67.5</ele><time>2026-05-02T08:47:17.14Z</time></trkpt><trkpt lat="47.8724483" lon="-1.6984367"><ele>70.25</ele><time>2026-05-02T08:47:18.139Z</time></trkpt><trkpt lat="47.8724467" lon="-1.6986417"><ele>73.0</ele><time>2026-05-02T08:47:19.14Z</time></trkpt><trkpt lat="47.8724483" lon="-1.6988733"><ele>73.66666666666666</ele><time>2026-05-02T08:47:20.14Z</time></trkpt><trkpt lat="47.8724533" lon="-1.69913"><ele>74.33333333333333</ele><time>2026-05-02T08:47:21.139Z</time></trkpt><trkpt lat="47.8724617" lon="-1.6994133"><ele>75.0</ele><time>2026-05-02T08:47:22.141Z</time></trkpt><trkpt lat="47.8724683" lon="-1.6997133"><ele>77.0</ele><time>2026-05-02T08:47:23.139Z</time></trkpt><trkpt lat="47.8724683" lon="-1.7000283"><ele>79.0</ele><time>2026-05-02T08:47:24.14Z</time></trkpt><trkpt lat="47.8724617" lon="-1.7003483"><ele>81.0</ele><time>2026-05-02T08:47:25.14Z</time></trkpt><trkpt lat="47.87245" lon="-1.7006567"><ele>82.66666666666667</ele><time>2026-05-02T08:47:26.139Z</time></trkpt><trkpt lat="47.87244" lon="-1.7009417"><ele>84.33333333333334</ele><time>2026-05-02T08:47:27.14Z</time></trkpt><trkpt lat="47.8724267" lon="-1.7012033"><ele>86.0</ele><time>2026-05-02T08:47:28.139Z</time></trkpt><trkpt lat="47.8724083" lon="-1.70144"><ele>88.0</ele><time>2026-05-02T08:47:29.139Z</time></trkpt><trkpt lat="47.8723733" lon="-1.7016567"><ele>90.0</ele><time>2026-05-02T08:47:30.14Z</time></trkpt><trkpt lat="47.872305" lon="-1.701855"><ele>92.0</ele><time>2026-05-02T08:47:31.14Z</time></trkpt><trkpt lat="47.872225" lon="-1.7020717"><ele>93.0</ele><time>2026-05-02T08:47:32.14Z</time></trkpt><trkpt lat="47.872145" lon="-1.7023067"><ele>94.0</ele><time>2026-05-02T08:47:33.14Z</time></trkpt><trkpt lat="47.87206" lon="-1.70257"><ele>95.0</ele><time>2026-05-02T08:47:34.14Z</time></trkpt><trkpt lat="47.8719717" lon="-1.7028567"><ele>95.0</ele><time>2026-05-02T08:47:35.141Z</time></trkpt><trkpt lat="47.87187" lon="-1.7031533"><ele>95.0</ele><time>2026-05-02T08:47:36.142Z</time></trkpt><trkpt lat="47.8717533" lon="-1.70347"><ele>94.0</ele><time>2026-05-02T08:47:37.14Z</time></trkpt><trkpt lat="47.8716333" lon="-1.7037867"><ele>93.0</ele><time>2026-05-02T08:47:38.139Z</time></trkpt><trkpt lat="47.8715217" lon="-1.7041167"><ele>93.5</ele><time>2026-05-02T08:47:39.139Z</time></trkpt><trkpt lat="47.87141" lon="-1.70445"><ele>94.0</ele><time>2026-05-02T08:47:40.139Z</time></trkpt><trkpt lat="47.871305" lon="-1.7047867"><ele>94.0</ele><time>2026-05-02T08:47:41.143Z</time></trkpt><trkpt lat="47.871205" lon="-1.70512"><ele>94.0</ele><time>2026-05-02T08:47:42.139Z</time></trkpt><trkpt lat="47.87111" lon="-1.70545"><ele>93.0</ele><time>2026-05-02T08:47:43.14Z</time></trkpt><trkpt lat="47.8710283" lon="-1.705775"><ele>92.0</ele><time>2026-05-02T08:47:44.139Z</time></trkpt><trkpt lat="47.87095" lon="-1.706105"><ele>93.5</ele><time>2026-05-02T08:47:45.14Z</time></trkpt><trkpt lat="47.8708717" lon="-1.70644"><ele>95.0</ele><time>2026-05-02T08:47:46.139Z</time></trkpt><trkpt lat="47.8708" lon="-1.7067717"><ele>95.33333333333334</ele><time>2026-05-02T08:47:47.14Z</time></trkpt><trkpt lat="47.8707333" lon="-1.7070917"><ele>95.66666666666667</ele><time>2026-05-02T08:47:48.14Z</time></trkpt><trkpt lat="47.8706717" lon="-1.707405"><ele>96.0</ele><time>2026-05-02T08:47:49.143Z</time></trkpt><trkpt lat="47.87061" lon="-1.7077117"><ele>96.0</ele><time>2026-05-02T08:47:50.14Z</time></trkpt><trkpt lat="47.87055" lon="-1.708015"><ele>96.0</ele><time>2026-05-02T08:47:51.142Z</time></trkpt><trkpt lat="47.8704833" lon="-1.7083233"><ele>96.0</ele><time>2026-05-02T08:47:52.141Z</time></trkpt><trkpt lat="47.8704133" lon="-1.7086383"><ele>94.5</ele><time>2026-05-02T08:47:53.14Z</time></trkpt><trkpt lat="47.8703517" lon="-1.7089733"><ele>93.0</ele><time>2026-05-02T08:47:54.141Z</time></trkpt><trkpt lat="47.8702983" lon="-1.70932"><ele>93.5</ele><time>2026-05-02T08:47:55.14Z</time></trkpt><trkpt lat="47.8702617" lon="-1.7096717"><ele>94.0</ele><time>2026-05-02T08:47:56.139Z</time></trkpt><trkpt lat="47.8702333" lon="-1.7100333"><ele>95.0</ele><time>2026-05-02T08:47:57.141Z</time></trkpt><trkpt lat="47.87021" lon="-1.71041"><ele>96.0</ele><time>2026-05-02T08:47:58.14Z</time></trkpt><trkpt lat="47.8701917" lon="-1.710795"><ele>96.5</ele><time>2026-05-02T08:47:59.139Z</time></trkpt><trkpt lat="47.8701733" lon="-1.7111983"><ele>97.0</ele><time>2026-05-02T08:48:00.143Z</time></trkpt><trkpt lat="47.8701533" lon="-1.71161"><ele>97.0</ele><time>2026-05-02T08:48:01.138Z</time></trkpt><trkpt lat="47.870135" lon="-1.7120133"><ele>97.0</ele><time>2026-05-02T08:48:02.14Z</time></trkpt><trkpt lat="47.870115" lon="-1.7124067"><ele>98.5</ele><time>2026-05-02T08:48:03.139Z</time></trkpt><trkpt lat="47.870095" lon="-1.7127817"><ele>100.0</ele><time>2026-05-02T08:48:04.139Z</time></trkpt><trkpt lat="47.8700767" lon="-1.7131517"><ele>100.0</ele><time>2026-05-02T08:48:05.139Z</time></trkpt><trkpt lat="47.87006" lon="-1.71352"><ele>100.0</ele><time>2026-05-02T08:48:06.139Z</time></trkpt><trkpt lat="47.870045" lon="-1.7138867"><ele>101.0</ele><time>2026-05-02T08:48:07.139Z</time></trkpt><trkpt lat="47.8700317" lon="-1.7142517"><ele>102.0</ele><time>2026-05-02T08:48:08.14Z</time></trkpt><trkpt lat="47.87002" lon="-1.7146133"><ele>102.0</ele><time>2026-05-02T08:48:09.14Z</time></trkpt><trkpt lat="47.8700067" lon="-1.71497"><ele>102.0</ele><time>2026-05-02T08:48:10.14Z</time></trkpt><trkpt lat="47.8699933" lon="-1.7153233"><ele>101.5</ele><time>2026-05-02T08:48:11.14Z</time></trkpt><trkpt lat="47.8699783" lon="-1.7156683"><ele>101.0</ele><time>2026-05-02T08:48:12.139Z</time></trkpt><trkpt lat="47.8699633" lon="-1.7160033"><ele>101.33333333333333</ele><time>2026-05-02T08:48:13.141Z</time></trkpt><trkpt lat="47.8699483" lon="-1.71633"><ele>101.66666666666666</ele><time>2026-05-02T08:48:14.14Z</time></trkpt><trkpt lat="47.869925" lon="-1.7166533"><ele>102.0</ele><time>2026-05-02T08:48:15.14Z</time></trkpt><trkpt lat="47.8698933" lon="-1.7169783"><ele>102.5</ele><time>2026-05-02T08:48:16.139Z</time></trkpt><trkpt lat="47.86985" lon="-1.71731"><ele>103.0</ele><time>2026-05-02T08:48:17.14Z</time></trkpt><trkpt lat="47.869795" lon="-1.7176517"><ele>103.5</ele><time>2026-05-02T08:48:18.139Z</time></trkpt><trkpt lat="47.86973" lon="-1.7180067"><ele>104.0</ele><time>2026-05-02T08:48:19.142Z</time></trkpt><trkpt lat="47.8696617" lon="-1.7183717"><ele>104.0</ele><time>2026-05-02T08:48:20.14Z</time></trkpt><trkpt lat="47.8695917" lon="-1.718745"><ele>104.0</ele><time>2026-05-02T08:48:21.143Z</time></trkpt><trkpt lat="47.8695217" lon="-1.7191217"><ele>103.5</ele><time>2026-05-02T08:48:22.141Z</time></trkpt><trkpt lat="47.8694517" lon="-1.7194967"><ele>103.0</ele><time>2026-05-02T08:48:23.141Z</time></trkpt><trkpt lat="47.8693867" lon="-1.7198683"><ele>103.0</ele><time>2026-05-02T08:48:24.14Z</time></trkpt><trkpt lat="47.8693283" lon="-1.72024"><ele>103.0</ele><time>2026-05-02T08:48:25.139Z</time></trkpt><trkpt lat="47.86928" lon="-1.720615"><ele>101.5</ele><time>2026-05-02T08:48:26.139Z</time></trkpt><trkpt lat="47.8692367" lon="-1.7209917"><ele>100.0</ele><time>2026-05-02T08:48:27.139Z</time></trkpt><trkpt lat="47.8692" lon="-1.721365"><ele>100.0</ele><time>2026-05-02T08:48:28.14Z</time></trkpt><trkpt lat="47.8691617" lon="-1.72173"><ele>100.0</ele><time>2026-05-02T08:48:29.139Z</time></trkpt><trkpt lat="47.8691233" lon="-1.72209"><ele>99.5</ele><time>2026-05-02T08:48:30.139Z</time></trkpt><trkpt lat="47.8690867" lon="-1.7224433"><ele>99.0</ele><time>2026-05-02T08:48:31.139Z</time></trkpt><trkpt lat="47.8690467" lon="-1.7227867"><ele>100.33333333333334</ele><time>2026-05-02T08:48:32.14Z</time></trkpt><trkpt lat="47.8690033" lon="-1.7231133"><ele>101.66666666666667</ele><time>2026-05-02T08:48:33.139Z</time></trkpt><trkpt lat="47.8689567" lon="-1.7234217"><ele>103.0</ele><time>2026-05-02T08:48:34.139Z</time></trkpt><trkpt lat="47.8689117" lon="-1.7237067"><ele>103.33333333333334</ele><time>2026-05-02T08:48:35.139Z</time></trkpt><trkpt lat="47.8688633" lon="-1.7239617"><ele>103.66666666666666</ele><time>2026-05-02T08:48:36.14Z</time></trkpt><trkpt lat="47.8688067" lon="-1.7241983"><ele>104.0</ele><time>2026-05-02T08:48:37.14Z</time></trkpt><trkpt lat="47.8687367" lon="-1.7244417"><ele>104.0</ele><time>2026-05-02T08:48:38.139Z</time></trkpt><trkpt lat="47.868655" lon="-1.7247033"><ele>104.0</ele><time>2026-05-02T08:48:39.139Z</time></trkpt><trkpt lat="47.8685583" lon="-1.7249867"><ele>104.0</ele><time>2026-05-02T08:48:40.139Z</time></trkpt><trkpt lat="47.868455" lon="-1.7252917"><ele>102.0</ele><time>2026-05-02T08:48:41.139Z</time></trkpt><trkpt lat="47.8683433" lon="-1.7256133"><ele>100.0</ele><time>2026-05-02T08:48:42.139Z</time></trkpt><trkpt lat="47.8682267" lon="-1.7259533"><ele>101.0</ele><time>2026-05-02T08:48:43.14Z</time></trkpt><trkpt lat="47.8681083" lon="-1.7263"><ele>102.0</ele><time>2026-05-02T08:48:44.141Z</time></trkpt><trkpt lat="47.8679917" lon="-1.7266433"><ele>103.0</ele><time>2026-05-02T08:48:45.14Z</time></trkpt><trkpt lat="47.8678783" lon="-1.7269783"><ele>104.0</ele><time>2026-05-02T08:48:46.139Z</time></trkpt><trkpt lat="47.867765" lon="-1.7273033"><ele>104.0</ele><time>2026-05-02T08:48:47.139Z</time></trkpt><trkpt lat="47.8676583" lon="-1.727625"><ele>104.0</ele><time>2026-05-02T08:48:48.14Z</time></trkpt><trkpt lat="47.86755" lon="-1.7279417"><ele>102.0</ele><time>2026-05-02T08:48:49.14Z</time></trkpt><trkpt lat="47.86744" lon="-1.7282483"><ele>100.0</ele><time>2026-05-02T08:48:50.141Z</time></trkpt><trkpt lat="47.86733" lon="-1.728555"><ele>100.5</ele><time>2026-05-02T08:48:51.141Z</time></trkpt><trkpt lat="47.8672217" lon="-1.7288667"><ele>101.0</ele><time>2026-05-02T08:48:52.141Z</time></trkpt><trkpt lat="47.8671133" lon="-1.72918"><ele>103.0</ele><time>2026-05-02T08:48:53.139Z</time></trkpt><trkpt lat="47.8670033" lon="-1.7294883"><ele>105.0</ele><time>2026-05-02T08:48:54.14Z</time></trkpt><trkpt lat="47.8668967" lon="-1.7297967"><ele>105.0</ele><time>2026-05-02T08:48:55.141Z</time></trkpt><trkpt lat="47.8667917" lon="-1.7301017"><ele>105.0</ele><time>2026-05-02T08:48:56.14Z</time></trkpt><trkpt lat="47.8666883" lon="-1.730405"><ele>105.5</ele><time>2026-05-02T08:48:57.141Z</time></trkpt><trkpt lat="47.8665867" lon="-1.7307067"><ele>106.0</ele><time>2026-05-02T08:48:58.139Z</time></trkpt><trkpt lat="47.8664883" lon="-1.7310067"><ele>107.5</ele><time>2026-05-02T08:48:59.139Z</time></trkpt><trkpt lat="47.8663883" lon="-1.731305"><ele>109.0</ele><time>2026-05-02T08:49:00.139Z</time></trkpt><trkpt lat="47.866285" lon="-1.731605"><ele>110.0</ele><time>2026-05-02T08:49:01.139Z</time></trkpt><trkpt lat="47.86618" lon="-1.7319117"><ele>111.0</ele><time>2026-05-02T08:49:02.14Z</time></trkpt><trkpt lat="47.8660717" lon="-1.7322233"><ele>111.0</ele><time>2026-05-02T08:49:03.139Z</time></trkpt><trkpt lat="47.8659617" lon="-1.73253"><ele>111.0</ele><time>2026-05-02T08:49:04.139Z</time></trkpt><trkpt lat="47.865855" lon="-1.732835"><ele>109.0</ele><time>2026-05-02T08:49:05.138Z</time></trkpt><trkpt lat="47.8657533" lon="-1.7331533"><ele>107.0</ele><time>2026-05-02T08:49:06.14Z</time></trkpt><trkpt lat="47.8656417" lon="-1.73347"><ele>107.5</ele><time>2026-05-02T08:49:07.141Z</time></trkpt><trkpt lat="47.865535" lon="-1.7337833"><ele>108.0</ele><time>2026-05-02T08:49:08.139Z</time></trkpt><trkpt lat="47.8654267" lon="-1.7340983"><ele>108.5</ele><time>2026-05-02T08:49:09.139Z</time></trkpt><trkpt lat="47.8653283" lon="-1.7344167"><ele>109.0</ele><time>2026-05-02T08:49:10.14Z</time></trkpt><trkpt lat="47.8652233" lon="-1.7347317"><ele>109.0</ele><time>2026-05-02T08:49:11.139Z</time></trkpt><trkpt lat="47.8651183" lon="-1.73504"><ele>109.0</ele><time>2026-05-02T08:49:12.139Z</time></trkpt><trkpt lat="47.8650133" lon="-1.7353517"><ele>109.5</ele><time>2026-05-02T08:49:13.139Z</time></trkpt><trkpt lat="47.8649067" lon="-1.7356567"><ele>110.0</ele><time>2026-05-02T08:49:14.14Z</time></trkpt><trkpt lat="47.8648017" lon="-1.7359617"><ele>110.0</ele><time>2026-05-02T08:49:15.139Z</time></trkpt><trkpt lat="47.8646967" lon="-1.7362617"><ele>110.0</ele><time>2026-05-02T08:49:16.139Z</time></trkpt><trkpt lat="47.8645917" lon="-1.73656"><ele>110.0</ele><time>2026-05-02T08:49:17.139Z</time></trkpt><trkpt lat="47.8644917" lon="-1.73685"><ele>110.0</ele><time>2026-05-02T08:49:18.139Z</time></trkpt><trkpt lat="47.8644" lon="-1.7371283"><ele>110.0</ele><time>2026-05-02T08:49:19.14Z</time></trkpt><trkpt lat="47.8643083" lon="-1.737385"><ele>110.0</ele><time>2026-05-02T08:49:20.145Z</time></trkpt><trkpt lat="47.864225" lon="-1.7376267"><ele>110.0</ele><time>2026-05-02T08:49:21.14Z</time></trkpt><trkpt lat="47.8641483" lon="-1.73785"><ele>110.0</ele><time>2026-05-02T08:49:22.14Z</time></trkpt><trkpt lat="47.8640783" lon="-1.7380567"><ele>110.0</ele><time>2026-05-02T08:49:23.139Z</time></trkpt><trkpt lat="47.8640183" lon="-1.7382383"><ele>110.0</ele><time>2026-05-02T08:49:24.138Z</time></trkpt><trkpt lat="47.86397" lon="-1.7384"><ele>110.0</ele><time>2026-05-02T08:49:25.139Z</time></trkpt><trkpt lat="47.863925" lon="-1.7385433"><ele>110.0</ele><time>2026-05-02T08:49:26.139Z</time></trkpt><trkpt lat="47.8638833" lon="-1.7386683"><ele>110.33333333333333</ele><time>2026-05-02T08:49:27.139Z</time></trkpt><trkpt lat="47.8638433" lon="-1.7387633"><ele>110.66666666666666</ele><time>2026-05-02T08:49:28.139Z</time></trkpt><trkpt lat="47.8637717" lon="-1.7388583"><ele>111.0</ele><time>2026-05-02T08:49:30.139Z</time></trkpt><trkpt lat="47.8636817" lon="-1.7388433"><ele>111.33333333333334</ele><time>2026-05-02T08:49:32.139Z</time></trkpt><trkpt lat="47.8635883" lon="-1.7387583"><ele>111.66666666666667</ele><time>2026-05-02T08:49:34.14Z</time></trkpt><trkpt lat="47.8635317" lon="-1.73869"><ele>112.0</ele><time>2026-05-02T08:49:35.139Z</time></trkpt><trkpt lat="47.8634717" lon="-1.7386217"><ele>111.39999999999999</ele><time>2026-05-02T08:49:36.139Z</time></trkpt><trkpt lat="47.86341" lon="-1.7385433"><ele>110.79999999999998</ele><time>2026-05-02T08:49:37.139Z</time></trkpt><trkpt lat="47.86334" lon="-1.7384533"><ele>110.2</ele><time>2026-05-02T08:49:38.139Z</time></trkpt><trkpt lat="47.86326" lon="-1.7383667"><ele>109.6</ele><time>2026-05-02T08:49:39.139Z</time></trkpt><trkpt lat="47.8631817" lon="-1.73828"><ele>109.0</ele><time>2026-05-02T08:49:40.139Z</time></trkpt><trkpt lat="47.8630983" lon="-1.7381883"><ele>109.00000000000001</ele><time>2026-05-02T08:49:41.139Z</time></trkpt><trkpt lat="47.86302" lon="-1.7381033"><ele>109.0</ele><time>2026-05-02T08:49:42.139Z</time></trkpt><trkpt lat="47.8629483" lon="-1.7380183"><ele>109.0</ele><time>2026-05-02T08:49:43.143Z</time></trkpt><trkpt lat="47.8628833" lon="-1.7379283"><ele>109.0</ele><time>2026-05-02T08:49:44.139Z</time></trkpt><trkpt lat="47.862825" lon="-1.73785"><ele>109.00000000000001</ele><time>2026-05-02T08:49:45.142Z</time></trkpt><trkpt lat="47.8627633" lon="-1.7377817"><ele>109.0</ele><time>2026-05-02T08:49:46.14Z</time></trkpt><trkpt lat="47.8627067" lon="-1.7377217"><ele>109.0</ele><time>2026-05-02T08:49:47.139Z</time></trkpt><trkpt lat="47.8626517" lon="-1.73766"><ele>109.0</ele><time>2026-05-02T08:49:48.143Z</time></trkpt><trkpt lat="47.8625633" lon="-1.7375467"><ele>109.0</ele><time>2026-05-02T08:49:50.14Z</time></trkpt><trkpt lat="47.862495" lon="-1.7375167"><ele>109.0</ele><time>2026-05-02T08:49:52.139Z</time></trkpt><trkpt lat="47.8624167" lon="-1.7375917"><ele>109.0</ele><time>2026-05-02T08:49:54.14Z</time></trkpt><trkpt lat="47.8623467" lon="-1.7377417"><ele>109.16666666666667</ele><time>2026-05-02T08:49:56.14Z</time></trkpt><trkpt lat="47.8623" lon="-1.7378317"><ele>109.33333333333334</ele><time>2026-05-02T08:49:57.142Z</time></trkpt><trkpt lat="47.8622617" lon="-1.7379233"><ele>109.5</ele><time>2026-05-02T08:49:58.14Z</time></trkpt><trkpt lat="47.8622183" lon="-1.73802"><ele>109.66666666666666</ele><time>2026-05-02T08:49:59.139Z</time></trkpt><trkpt lat="47.862165" lon="-1.7381183"><ele>109.83333333333333</ele><time>2026-05-02T08:50:00.142Z</time></trkpt><trkpt lat="47.8621133" lon="-1.73822"><ele>110.0</ele><time>2026-05-02T08:50:01.14Z</time></trkpt><trkpt lat="47.8620583" lon="-1.7383217"><ele>110.0</ele><time>2026-05-02T08:50:02.14Z</time></trkpt><trkpt lat="47.862" lon="-1.73843"><ele>110.0</ele><time>2026-05-02T08:50:03.139Z</time></trkpt><trkpt lat="47.8619467" lon="-1.7385483"><ele>110.0</ele><time>2026-05-02T08:50:04.14Z</time></trkpt><trkpt lat="47.8618867" lon="-1.7386667"><ele>110.0</ele><time>2026-05-02T08:50:05.139Z</time></trkpt><trkpt lat="47.8618283" lon="-1.7387883"><ele>110.0</ele><time>2026-05-02T08:50:06.14Z</time></trkpt><trkpt lat="47.861765" lon="-1.73891"><ele>109.6</ele><time>2026-05-02T08:50:07.141Z</time></trkpt><trkpt lat="47.8616983" lon="-1.7390117"><ele>109.2</ele><time>2026-05-02T08:50:08.14Z</time></trkpt><trkpt lat="47.8616317" lon="-1.739115"><ele>108.80000000000001</ele><time>2026-05-02T08:50:09.14Z</time></trkpt><trkpt lat="47.86157" lon="-1.7392217"><ele>108.4</ele><time>2026-05-02T08:50:10.14Z</time></trkpt><trkpt lat="47.8615083" lon="-1.739325"><ele>108.0</ele><time>2026-05-02T08:50:11.14Z</time></trkpt><trkpt lat="47.861455" lon="-1.739425"><ele>108.0</ele><time>2026-05-02T08:50:12.142Z</time></trkpt><trkpt lat="47.861415" lon="-1.73951"><ele>108.0</ele><time>2026-05-02T08:50:13.14Z</time></trkpt><trkpt lat="47.8613667" lon="-1.7396067"><ele>108.0</ele><time>2026-05-02T08:50:14.14Z</time></trkpt><trkpt lat="47.8613217" lon="-1.7397"><ele>108.0</ele><time>2026-05-02T08:50:15.14Z</time></trkpt><trkpt lat="47.8612733" lon="-1.7398017"><ele>108.0</ele><time>2026-05-02T08:50:16.14Z</time></trkpt><trkpt lat="47.86123" lon="-1.739905"><ele>108.0</ele><time>2026-05-02T08:50:17.14Z</time></trkpt><trkpt lat="47.8611967" lon="-1.7399917"><ele>108.0</ele><time>2026-05-02T08:50:18.141Z</time></trkpt><trkpt lat="47.861155" lon="-1.7401633"><ele>108.0</ele><time>2026-05-02T08:50:20.139Z</time></trkpt><trkpt lat="47.8611283" lon="-1.740255"><ele>108.0</ele><time>2026-05-02T08:50:21.141Z</time></trkpt><trkpt lat="47.861095" lon="-1.7403433"><ele>108.0</ele><time>2026-05-02T08:50:22.14Z</time></trkpt><trkpt lat="47.8610467" lon="-1.74042"><ele>108.0</ele><time>2026-05-02T08:50:23.14Z</time></trkpt><trkpt lat="47.860995" lon="-1.7404967"><ele>108.0</ele><time>2026-05-02T08:50:24.14Z</time></trkpt><trkpt lat="47.8609367" lon="-1.7405833"><ele>107.66666666666667</ele><time>2026-05-02T08:50:25.14Z</time></trkpt><trkpt lat="47.860885" lon="-1.7406733"><ele>107.33333333333334</ele><time>2026-05-02T08:50:26.139Z</time></trkpt><trkpt lat="47.860825" lon="-1.7407683"><ele>107.0</ele><time>2026-05-02T08:50:27.14Z</time></trkpt><trkpt lat="47.8607667" lon="-1.740865"><ele>106.66666666666667</ele><time>2026-05-02T08:50:28.141Z</time></trkpt><trkpt lat="47.8607133" lon="-1.74097"><ele>106.33333333333334</ele><time>2026-05-02T08:50:29.141Z</time></trkpt><trkpt lat="47.8606683" lon="-1.7410683"><ele>106.0</ele><time>2026-05-02T08:50:30.141Z</time></trkpt><trkpt lat="47.8606183" lon="-1.741175"><ele>105.66666666666667</ele><time>2026-05-02T08:50:31.141Z</time></trkpt><trkpt lat="47.8605717" lon="-1.74127"><ele>105.33333333333334</ele><time>2026-05-02T08:50:32.142Z</time></trkpt><trkpt lat="47.8605283" lon="-1.7413583"><ele>105.0</ele><time>2026-05-02T08:50:33.142Z</time></trkpt><trkpt lat="47.860485" lon="-1.7414433"><ele>104.66666666666666</ele><time>2026-05-02T08:50:34.141Z</time></trkpt><trkpt lat="47.8604417" lon="-1.74152"><ele>104.33333333333333</ele><time>2026-05-02T08:50:35.141Z</time></trkpt><trkpt lat="47.8603717" lon="-1.7416533"><ele>104.0</ele><time>2026-05-02T08:50:37.141Z</time></trkpt><trkpt lat="47.8603183" lon="-1.7417517"><ele>104.0</ele><time>2026-05-02T08:50:39.14Z</time></trkpt><trkpt lat="47.8602567" lon="-1.7418833"><ele>104.0</ele><time>2026-05-02T08:50:45.14Z</time></trkpt><trkpt lat="47.860205" lon="-1.7419717"><ele>104.0</ele><time>2026-05-02T08:50:46.139Z</time></trkpt><trkpt lat="47.8601433" lon="-1.7420833"><ele>104.0</ele><time>2026-05-02T08:50:47.139Z</time></trkpt><trkpt lat="47.8600817" lon="-1.7421933"><ele>104.0</ele><time>2026-05-02T08:50:48.141Z</time></trkpt><trkpt lat="47.8600217" lon="-1.7423083"><ele>103.4</ele><time>2026-05-02T08:50:49.144Z</time></trkpt><trkpt lat="47.8599667" lon="-1.7424183"><ele>102.80000000000001</ele><time>2026-05-02T08:50:50.14Z</time></trkpt><trkpt lat="47.8599033" lon="-1.7425417"><ele>102.19999999999999</ele><time>2026-05-02T08:50:51.141Z</time></trkpt><trkpt lat="47.8598433" lon="-1.74267"><ele>101.6</ele><time>2026-05-02T08:50:52.14Z</time></trkpt><trkpt lat="47.8597767" lon="-1.742795"><ele>101.0</ele><time>2026-05-02T08:50:53.141Z</time></trkpt><trkpt lat="47.8597167" lon="-1.7429133"><ele>100.99999999999999</ele><time>2026-05-02T08:50:54.14Z</time></trkpt><trkpt lat="47.8596633" lon="-1.74302"><ele>101.0</ele><time>2026-05-02T08:50:55.14Z</time></trkpt><trkpt lat="47.85961" lon="-1.74312"><ele>101.0</ele><time>2026-05-02T08:50:56.141Z</time></trkpt><trkpt lat="47.8595583" lon="-1.743215"><ele>101.0</ele><time>2026-05-02T08:50:57.143Z</time></trkpt><trkpt lat="47.85951" lon="-1.7433083"><ele>100.99999999999999</ele><time>2026-05-02T08:50:58.14Z</time></trkpt><trkpt lat="47.859455" lon="-1.7434133"><ele>101.0</ele><time>2026-05-02T08:50:59.142Z</time></trkpt><trkpt lat="47.85939" lon="-1.74353"><ele>101.16666666666666</ele><time>2026-05-02T08:51:00.141Z</time></trkpt><trkpt lat="47.859335" lon="-1.7436433"><ele>101.33333333333333</ele><time>2026-05-02T08:51:01.139Z</time></trkpt><trkpt lat="47.8592817" lon="-1.743745"><ele>101.5</ele><time>2026-05-02T08:51:02.141Z</time></trkpt><trkpt lat="47.8592333" lon="-1.7438417"><ele>101.66666666666666</ele><time>2026-05-02T08:51:03.14Z</time></trkpt><trkpt lat="47.8591817" lon="-1.7439283"><ele>101.83333333333333</ele><time>2026-05-02T08:51:04.14Z</time></trkpt><trkpt lat="47.8591233" lon="-1.7440217"><ele>102.0</ele><time>2026-05-02T08:51:05.14Z</time></trkpt><trkpt lat="47.8590683" lon="-1.7441067"><ele>101.66666666666667</ele><time>2026-05-02T08:51:06.14Z</time></trkpt><trkpt lat="47.8590183" lon="-1.7441983"><ele>101.33333333333334</ele><time>2026-05-02T08:51:07.14Z</time></trkpt><trkpt lat="47.8589733" lon="-1.7442933"><ele>101.0</ele><time>2026-05-02T08:51:08.14Z</time></trkpt><trkpt lat="47.8589217" lon="-1.7443783"><ele>100.66666666666667</ele><time>2026-05-02T08:51:09.141Z</time></trkpt><trkpt lat="47.858875" lon="-1.7444683"><ele>100.33333333333334</ele><time>2026-05-02T08:51:10.14Z</time></trkpt><trkpt lat="47.8588267" lon="-1.744555"><ele>100.0</ele><time>2026-05-02T08:51:11.14Z</time></trkpt><trkpt lat="47.8587783" lon="-1.744645"><ele>99.85714285714286</ele><time>2026-05-02T08:51:12.141Z</time></trkpt><trkpt lat="47.85873" lon="-1.744735"><ele>99.71428571428572</ele><time>2026-05-02T08:51:13.144Z</time></trkpt><trkpt lat="47.8586833" lon="-1.744825"><ele>99.57142857142858</ele><time>2026-05-02T08:51:14.14Z</time></trkpt><trkpt lat="47.8586433" lon="-1.744905"><ele>99.42857142857143</ele><time>2026-05-02T08:51:15.14Z</time></trkpt><trkpt lat="47.8586067" lon="-1.7449817"><ele>99.28571428571428</ele><time>2026-05-02T08:51:16.14Z</time></trkpt><trkpt lat="47.8585667" lon="-1.745075"><ele>99.14285714285715</ele><time>2026-05-02T08:51:17.14Z</time></trkpt><trkpt lat="47.8585217" lon="-1.7451583"><ele>99.0</ele><time>2026-05-02T08:51:18.14Z</time></trkpt><trkpt lat="47.85849" lon="-1.74524"><ele>99.83333333333333</ele><time>2026-05-02T08:51:19.14Z</time></trkpt><trkpt lat="47.8584483" lon="-1.7453283"><ele>100.66666666666666</ele><time>2026-05-02T08:51:20.141Z</time></trkpt><trkpt lat="47.8584017" lon="-1.7454233"><ele>101.5</ele><time>2026-05-02T08:51:21.141Z</time></trkpt><trkpt lat="47.8583583" lon="-1.7455167"><ele>102.33333333333333</ele><time>2026-05-02T08:51:22.14Z</time></trkpt><trkpt lat="47.8583083" lon="-1.7456133"><ele>103.16666666666666</ele><time>2026-05-02T08:51:23.14Z</time></trkpt><trkpt lat="47.85826" lon="-1.7456967"><ele>104.0</ele><time>2026-05-02T08:51:24.14Z</time></trkpt><trkpt lat="47.8582117" lon="-1.745795"><ele>103.99999999999999</ele><time>2026-05-02T08:51:25.139Z</time></trkpt><trkpt lat="47.858175" lon="-1.7458867"><ele>104.0</ele><time>2026-05-02T08:51:26.14Z</time></trkpt><trkpt lat="47.85813" lon="-1.7459783"><ele>104.0</ele><time>2026-05-02T08:51:27.14Z</time></trkpt><trkpt lat="47.85809" lon="-1.7460683"><ele>104.0</ele><time>2026-05-02T08:51:28.139Z</time></trkpt><trkpt lat="47.8580433" lon="-1.7461633"><ele>103.99999999999999</ele><time>2026-05-02T08:51:29.14Z</time></trkpt><trkpt lat="47.857995" lon="-1.7462617"><ele>104.0</ele><time>2026-05-02T08:51:30.14Z</time></trkpt><trkpt lat="47.8579433" lon="-1.74635"><ele>103.99999999999999</ele><time>2026-05-02T08:51:31.14Z</time></trkpt><trkpt lat="47.8578933" lon="-1.7464467"><ele>104.0</ele><time>2026-05-02T08:51:32.14Z</time></trkpt><trkpt lat="47.8578433" lon="-1.7465433"><ele>104.0</ele><time>2026-05-02T08:51:33.14Z</time></trkpt><trkpt lat="47.8577867" lon="-1.7466483"><ele>104.0</ele><time>2026-05-02T08:51:34.139Z</time></trkpt><trkpt lat="47.8577383" lon="-1.7467433"><ele>103.99999999999999</ele><time>2026-05-02T08:51:35.139Z</time></trkpt><trkpt lat="47.8576833" lon="-1.7468383"><ele>104.0</ele><time>2026-05-02T08:51:36.14Z</time></trkpt><trkpt lat="47.857635" lon="-1.74694"><ele>104.33333333333333</ele><time>2026-05-02T08:51:37.141Z</time></trkpt><trkpt lat="47.8575883" lon="-1.7470417"><ele>104.66666666666666</ele><time>2026-05-02T08:51:38.141Z</time></trkpt><trkpt lat="47.8575383" lon="-1.7471467"><ele>105.0</ele><time>2026-05-02T08:51:39.14Z</time></trkpt><trkpt lat="47.857495" lon="-1.74724"><ele>105.33333333333334</ele><time>2026-05-02T08:51:40.138Z</time></trkpt><trkpt lat="47.8574483" lon="-1.7473367"><ele>105.66666666666667</ele><time>2026-05-02T08:51:41.14Z</time></trkpt><trkpt lat="47.8574117" lon="-1.747415"><ele>106.0</ele><time>2026-05-02T08:51:42.141Z</time></trkpt><trkpt lat="47.8573667" lon="-1.7475"><ele>106.0</ele><time>2026-05-02T08:51:43.14Z</time></trkpt><trkpt lat="47.857325" lon="-1.747575"><ele>106.0</ele><time>2026-05-02T08:51:44.139Z</time></trkpt><trkpt lat="47.857235" lon="-1.7477417"><ele>106.0</ele><time>2026-05-02T08:51:46.138Z</time></trkpt><trkpt lat="47.85719" lon="-1.7478317"><ele>106.0</ele><time>2026-05-02T08:51:47.138Z</time></trkpt><trkpt lat="47.8571283" lon="-1.747945"><ele>106.0</ele><time>2026-05-02T08:51:48.14Z</time></trkpt><trkpt lat="47.8570683" lon="-1.7480433"><ele>106.66666666666667</ele><time>2026-05-02T08:51:49.14Z</time></trkpt><trkpt lat="47.8570267" lon="-1.7481383"><ele>107.33333333333334</ele><time>2026-05-02T08:51:50.14Z</time></trkpt><trkpt lat="47.856985" lon="-1.7482283"><ele>108.0</ele><time>2026-05-02T08:51:51.14Z</time></trkpt><trkpt lat="47.8569417" lon="-1.7483083"><ele>108.66666666666666</ele><time>2026-05-02T08:51:52.139Z</time></trkpt><trkpt lat="47.8568783" lon="-1.7484283"><ele>109.33333333333333</ele><time>2026-05-02T08:51:54.14Z</time></trkpt><trkpt lat="47.8568433" lon="-1.7485467"><ele>110.0</ele><time>2026-05-02T08:51:56.14Z</time></trkpt><trkpt lat="47.8568033" lon="-1.7486333"><ele>111.0</ele><time>2026-05-02T08:51:58.14Z</time></trkpt><trkpt lat="47.856775" lon="-1.7487667"><ele>112.0</ele><time>2026-05-02T08:52:00.139Z</time></trkpt><trkpt lat="47.8567517" lon="-1.7489467"><ele>113.0</ele><time>2026-05-02T08:52:02.14Z</time></trkpt><trkpt lat="47.8567167" lon="-1.749125"><ele>114.0</ele><time>2026-05-02T08:52:04.139Z</time></trkpt><trkpt lat="47.8567" lon="-1.7492183"><ele>115.0</ele><time>2026-05-02T08:52:05.14Z</time></trkpt><trkpt lat="47.856685" lon="-1.7493167"><ele>115.16666666666667</ele><time>2026-05-02T08:52:06.14Z</time></trkpt><trkpt lat="47.85667" lon="-1.749425"><ele>115.33333333333334</ele><time>2026-05-02T08:52:07.14Z</time></trkpt><trkpt lat="47.8566617" lon="-1.7495283"><ele>115.5</ele><time>2026-05-02T08:52:08.14Z</time></trkpt><trkpt lat="47.856655" lon="-1.7496533"><ele>115.66666666666666</ele><time>2026-05-02T08:52:09.14Z</time></trkpt><trkpt lat="47.856645" lon="-1.7497833"><ele>115.83333333333333</ele><time>2026-05-02T08:52:10.14Z</time></trkpt><trkpt lat="47.85663" lon="-1.74992"><ele>116.0</ele><time>2026-05-02T08:52:11.139Z</time></trkpt><trkpt lat="47.8566183" lon="-1.750065"><ele>116.19999999999999</ele><time>2026-05-02T08:52:12.139Z</time></trkpt><trkpt lat="47.8566067" lon="-1.7502183"><ele>116.39999999999999</ele><time>2026-05-02T08:52:13.141Z</time></trkpt><trkpt lat="47.8565917" lon="-1.7503717"><ele>116.6</ele><time>2026-05-02T08:52:14.14Z</time></trkpt><trkpt lat="47.8565783" lon="-1.7505317"><ele>116.8</ele><time>2026-05-02T08:52:15.14Z</time></trkpt><trkpt lat="47.8565667" lon="-1.750695"><ele>117.0</ele><time>2026-05-02T08:52:16.139Z</time></trkpt><trkpt lat="47.8565517" lon="-1.7508667"><ele>117.0</ele><time>2026-05-02T08:52:17.141Z</time></trkpt><trkpt lat="47.8565383" lon="-1.7510317"><ele>117.0</ele><time>2026-05-02T08:52:18.141Z</time></trkpt><trkpt lat="47.8565233" lon="-1.7512033"><ele>117.0</ele><time>2026-05-02T08:52:19.139Z</time></trkpt><trkpt lat="47.85651" lon="-1.751385"><ele>117.0</ele><time>2026-05-02T08:52:20.159Z</time></trkpt><trkpt lat="47.8564983" lon="-1.751555"><ele>116.75</ele><time>2026-05-02T08:52:21.139Z</time></trkpt><trkpt lat="47.8564883" lon="-1.7517367"><ele>116.5</ele><time>2026-05-02T08:52:22.14Z</time></trkpt><trkpt lat="47.8564717" lon="-1.7519283"><ele>116.25</ele><time>2026-05-02T08:52:23.139Z</time></trkpt><trkpt lat="47.85646" lon="-1.7520983"><ele>116.0</ele><time>2026-05-02T08:52:24.14Z</time></trkpt><trkpt lat="47.856445" lon="-1.7522783"><ele>115.4</ele><time>2026-05-02T08:52:25.14Z</time></trkpt><trkpt lat="47.8564317" lon="-1.75246"><ele>114.8</ele><time>2026-05-02T08:52:26.14Z</time></trkpt><trkpt lat="47.8564183" lon="-1.75263"><ele>114.20000000000002</ele><time>2026-05-02T08:52:27.141Z</time></trkpt><trkpt lat="47.85641" lon="-1.75279"><ele>113.60000000000001</ele><time>2026-05-02T08:52:28.14Z</time></trkpt><trkpt lat="47.8564033" lon="-1.7529417"><ele>113.0</ele><time>2026-05-02T08:52:29.14Z</time></trkpt><trkpt lat="47.8563917" lon="-1.7530846"><ele>113.0</ele><time>2026-05-02T08:52:30.139Z</time></trkpt><trkpt lat="47.8563777" lon="-1.7532327"><ele>113.00000000000001</ele><time>2026-05-02T08:52:31.14Z</time></trkpt><trkpt lat="47.8563664" lon="-1.7533805"><ele>113.00000000000001</ele><time>2026-05-02T08:52:32.139Z</time></trkpt><trkpt lat="47.8563611" lon="-1.7535257"><ele>113.0</ele><time>2026-05-02T08:52:33.14Z</time></trkpt><trkpt lat="47.8563552" lon="-1.7536684"><ele>113.0</ele><time>2026-05-02T08:52:34.139Z</time></trkpt><trkpt lat="47.8563447" lon="-1.7538063"><ele>113.2</ele><time>2026-05-02T08:52:35.139Z</time></trkpt><trkpt lat="47.8563287" lon="-1.7539462"><ele>113.4</ele><time>2026-05-02T08:52:36.139Z</time></trkpt><trkpt lat="47.8563141" lon="-1.7540892"><ele>113.60000000000001</ele><time>2026-05-02T08:52:37.14Z</time></trkpt><trkpt lat="47.8562945" lon="-1.7542362"><ele>113.80000000000001</ele><time>2026-05-02T08:52:38.138Z</time></trkpt><trkpt lat="47.8562777" lon="-1.7543796"><ele>114.0</ele><time>2026-05-02T08:52:39.14Z</time></trkpt><trkpt lat="47.8562611" lon="-1.7545169"><ele>114.16666666666667</ele><time>2026-05-02T08:52:40.139Z</time></trkpt><trkpt lat="47.8562476" lon="-1.7546554"><ele>114.33333333333334</ele><time>2026-05-02T08:52:41.139Z</time></trkpt><trkpt lat="47.8562371" lon="-1.7547882"><ele>114.5</ele><time>2026-05-02T08:52:42.139Z</time></trkpt><trkpt lat="47.8562274" lon="-1.7549101"><ele>114.66666666666667</ele><time>2026-05-02T08:52:43.139Z</time></trkpt><trkpt lat="47.8562146" lon="-1.7550287"><ele>114.83333333333334</ele><time>2026-05-02T08:52:44.141Z</time></trkpt><trkpt lat="47.856202" lon="-1.7551476"><ele>115.0</ele><time>2026-05-02T08:52:45.14Z</time></trkpt><trkpt lat="47.8561913" lon="-1.755266"><ele>114.66666666666667</ele><time>2026-05-02T08:52:46.139Z</time></trkpt><trkpt lat="47.8561848" lon="-1.7553859"><ele>114.33333333333334</ele><time>2026-05-02T08:52:47.141Z</time></trkpt><trkpt lat="47.8561791" lon="-1.7555077"><ele>114.0</ele><time>2026-05-02T08:52:48.139Z</time></trkpt><trkpt lat="47.8561742" lon="-1.7556321"><ele>113.66666666666666</ele><time>2026-05-02T08:52:49.139Z</time></trkpt><trkpt lat="47.8561664" lon="-1.7557522"><ele>113.33333333333333</ele><time>2026-05-02T08:52:50.139Z</time></trkpt><trkpt lat="47.8561591" lon="-1.7558734"><ele>113.0</ele><time>2026-05-02T08:52:51.14Z</time></trkpt><trkpt lat="47.8561498" lon="-1.7559976"><ele>112.83333333333333</ele><time>2026-05-02T08:52:52.139Z</time></trkpt><trkpt lat="47.8561395" lon="-1.7561168"><ele>112.66666666666666</ele><time>2026-05-02T08:52:53.139Z</time></trkpt><trkpt lat="47.856131" lon="-1.7562323"><ele>112.5</ele><time>2026-05-02T08:52:54.139Z</time></trkpt><trkpt lat="47.8561198" lon="-1.7563419"><ele>112.33333333333334</ele><time>2026-05-02T08:52:55.141Z</time></trkpt><trkpt lat="47.8561123" lon="-1.7564438"><ele>112.16666666666667</ele><time>2026-05-02T08:52:56.139Z</time></trkpt><trkpt lat="47.8560962" lon="-1.7566098"><ele>112.0</ele><time>2026-05-02T08:52:58.139Z</time></trkpt><trkpt lat="47.8560851" lon="-1.7567253"><ele>112.19999999999999</ele><time>2026-05-02T08:53:00.14Z</time></trkpt><trkpt lat="47.8561017" lon="-1.75689"><ele>112.39999999999999</ele><time>2026-05-02T08:53:26.139Z</time></trkpt><trkpt lat="47.856105" lon="-1.757055"><ele>112.60000000000001</ele><time>2026-05-02T08:53:28.139Z</time></trkpt><trkpt lat="47.8561033" lon="-1.7572233"><ele>112.80000000000001</ele><time>2026-05-02T08:53:30.139Z</time></trkpt><trkpt lat="47.8561" lon="-1.75737"><ele>113.0</ele><time>2026-05-02T08:53:32.139Z</time></trkpt><trkpt lat="47.8560967" lon="-1.7575167"><ele>113.0</ele><time>2026-05-02T08:53:34.139Z</time></trkpt><trkpt lat="47.8561" lon="-1.757655"><ele>113.00000000000001</ele><time>2026-05-02T08:53:36.139Z</time></trkpt><trkpt lat="47.8561083" lon="-1.7578017"><ele>113.00000000000001</ele><time>2026-05-02T08:53:38.139Z</time></trkpt><trkpt lat="47.8561167" lon="-1.7579367"><ele>113.0</ele><time>2026-05-02T08:53:40.139Z</time></trkpt><trkpt lat="47.8561283" lon="-1.7580517"><ele>113.0</ele><time>2026-05-02T08:54:50.14Z</time></trkpt><trkpt lat="47.8561267" lon="-1.7582233"><ele>112.99999999999999</ele><time>2026-05-02T08:55:08.141Z</time></trkpt><trkpt lat="47.85612" lon="-1.7583183"><ele>113.0</ele><time>2026-05-02T08:55:11.139Z</time></trkpt><trkpt lat="47.8561183" lon="-1.7582217"><ele>113.0</ele><time>2026-05-02T08:56:15.14Z</time></trkpt><trkpt lat="47.8561183" lon="-1.75812"><ele>113.0</ele><time>2026-05-02T08:56:17.144Z</time></trkpt><trkpt lat="47.856115" lon="-1.7579967"><ele>112.99999999999999</ele><time>2026-05-02T08:56:19.141Z</time></trkpt><trkpt lat="47.8561017" lon="-1.75786"><ele>113.0</ele><time>2026-05-02T08:56:21.14Z</time></trkpt><trkpt lat="47.8561033" lon="-1.7577417"><ele>112.99999999999999</ele><time>2026-05-02T08:56:23.139Z</time></trkpt><trkpt lat="47.856115" lon="-1.7576217"><ele>113.0</ele><time>2026-05-02T08:56:25.142Z</time></trkpt><trkpt lat="47.8561217" lon="-1.7574917"><ele>113.0</ele><time>2026-05-02T08:56:27.141Z</time></trkpt><trkpt lat="47.8561067" lon="-1.7573817"><ele>113.0</ele><time>2026-05-02T08:56:29.138Z</time></trkpt><trkpt lat="47.8561033" lon="-1.7572633"><ele>112.99999999999999</ele><time>2026-05-02T08:56:31.142Z</time></trkpt><trkpt lat="47.8560967" lon="-1.75714"><ele>113.0</ele><time>2026-05-02T08:56:33.141Z</time></trkpt><trkpt lat="47.8560917" lon="-1.75701"><ele>112.99999999999999</ele><time>2026-05-02T08:56:35.139Z</time></trkpt><trkpt lat="47.8560783" lon="-1.75689"><ele>113.0</ele><time>2026-05-02T08:56:37.141Z</time></trkpt><trkpt lat="47.8560533" lon="-1.7568017"><ele>113.0</ele><time>2026-05-02T08:56:39.141Z</time></trkpt><trkpt lat="47.855965" lon="-1.75677"><ele>113.0</ele><time>2026-05-02T08:56:42.14Z</time></trkpt><trkpt lat="47.8558967" lon="-1.7567783"><ele>112.99999999999999</ele><time>2026-05-02T08:56:44.142Z</time></trkpt><trkpt lat="47.8558017" lon="-1.7567883"><ele>113.0</ele><time>2026-05-02T08:56:46.141Z</time></trkpt><trkpt lat="47.855705" lon="-1.7568083"><ele>113.4</ele><time>2026-05-02T08:56:48.14Z</time></trkpt><trkpt lat="47.8556017" lon="-1.756815"><ele>113.80000000000001</ele><time>2026-05-02T08:56:50.14Z</time></trkpt><trkpt lat="47.8555" lon="-1.75682"><ele>114.2</ele><time>2026-05-02T08:56:52.14Z</time></trkpt><trkpt lat="47.8553967" lon="-1.7568367"><ele>114.6</ele><time>2026-05-02T08:56:54.139Z</time></trkpt><trkpt lat="47.8552967" lon="-1.7568433"><ele>115.0</ele><time>2026-05-02T08:56:56.139Z</time></trkpt><trkpt lat="47.8551667" lon="-1.7568667"><ele>114.85714285714283</ele><time>2026-05-02T08:56:58.141Z</time></trkpt><trkpt lat="47.8550983" lon="-1.7568783"><ele>114.71428571428571</ele><time>2026-05-02T08:56:59.141Z</time></trkpt><trkpt lat="47.85503" lon="-1.75689"><ele>114.57142857142856</ele><time>2026-05-02T08:57:00.141Z</time></trkpt><trkpt lat="47.8549583" lon="-1.7569033"><ele>114.42857142857142</ele><time>2026-05-02T08:57:01.141Z</time></trkpt><trkpt lat="47.854885" lon="-1.7569217"><ele>114.28571428571428</ele><time>2026-05-02T08:57:02.138Z</time></trkpt><trkpt lat="47.8548083" lon="-1.75694"><ele>114.14285714285714</ele><time>2026-05-02T08:57:03.139Z</time></trkpt><trkpt lat="47.8547367" lon="-1.75695"><ele>114.0</ele><time>2026-05-02T08:57:04.139Z</time></trkpt><trkpt lat="47.8546683" lon="-1.75696"><ele>114.0</ele><time>2026-05-02T08:57:05.138Z</time></trkpt><trkpt lat="47.8545967" lon="-1.7569767"><ele>114.0</ele><time>2026-05-02T08:57:06.139Z</time></trkpt><trkpt lat="47.8545267" lon="-1.7569883"><ele>114.0</ele><time>2026-05-02T08:57:07.14Z</time></trkpt><trkpt lat="47.8544533" lon="-1.7570067"><ele>114.0</ele><time>2026-05-02T08:57:08.141Z</time></trkpt><trkpt lat="47.8543767" lon="-1.7570167"><ele>114.0</ele><time>2026-05-02T08:57:09.14Z</time></trkpt><trkpt lat="47.8543" lon="-1.7570317"><ele>114.0</ele><time>2026-05-02T08:57:10.139Z</time></trkpt><trkpt lat="47.8542183" lon="-1.7570467"><ele>113.33333333333333</ele><time>2026-05-02T08:57:11.139Z</time></trkpt><trkpt lat="47.8541317" lon="-1.75706"><ele>112.66666666666666</ele><time>2026-05-02T08:57:12.14Z</time></trkpt><trkpt lat="47.85405" lon="-1.7570683"><ele>112.0</ele><time>2026-05-02T08:57:13.14Z</time></trkpt><trkpt lat="47.8539817" lon="-1.7570817"><ele>111.33333333333333</ele><time>2026-05-02T08:57:14.139Z</time></trkpt><trkpt lat="47.85392" lon="-1.7571033"><ele>110.66666666666666</ele><time>2026-05-02T08:57:15.14Z</time></trkpt><trkpt lat="47.8538067" lon="-1.7571317"><ele>110.0</ele><time>2026-05-02T08:57:17.139Z</time></trkpt><trkpt lat="47.8536917" lon="-1.7571483"><ele>109.99999999999999</ele><time>2026-05-02T08:57:19.14Z</time></trkpt><trkpt lat="47.85356" lon="-1.7571633"><ele>110.0</ele><time>2026-05-02T08:57:21.139Z</time></trkpt><trkpt lat="47.8534883" lon="-1.7571717"><ele>110.0</ele><time>2026-05-02T08:57:22.139Z</time></trkpt><trkpt lat="47.8534167" lon="-1.7571767"><ele>110.0</ele><time>2026-05-02T08:57:23.144Z</time></trkpt><trkpt lat="47.8533383" lon="-1.7571883"><ele>109.99999999999999</ele><time>2026-05-02T08:57:24.139Z</time></trkpt><trkpt lat="47.853265" lon="-1.7572017"><ele>110.0</ele><time>2026-05-02T08:57:25.141Z</time></trkpt><trkpt lat="47.853185" lon="-1.7572017"><ele>109.99999999999999</ele><time>2026-05-02T08:57:26.14Z</time></trkpt><trkpt lat="47.8531067" lon="-1.7572117"><ele>110.0</ele><time>2026-05-02T08:57:27.14Z</time></trkpt><trkpt lat="47.8530217" lon="-1.75721"><ele>110.0</ele><time>2026-05-02T08:57:28.14Z</time></trkpt><trkpt lat="47.8529383" lon="-1.757215"><ele>110.0</ele><time>2026-05-02T08:57:29.139Z</time></trkpt><trkpt lat="47.8528617" lon="-1.7572283"><ele>109.99999999999999</ele><time>2026-05-02T08:57:30.143Z</time></trkpt><trkpt lat="47.8527917" lon="-1.7572467"><ele>110.0</ele><time>2026-05-02T08:57:31.141Z</time></trkpt><trkpt lat="47.8527217" lon="-1.75726"><ele>109.99999999999999</ele><time>2026-05-02T08:57:32.14Z</time></trkpt><trkpt lat="47.85265" lon="-1.757275"><ele>110.0</ele><time>2026-05-02T08:57:33.14Z</time></trkpt><trkpt lat="47.85257" lon="-1.7572933"><ele>110.0</ele><time>2026-05-02T08:57:34.139Z</time></trkpt><trkpt lat="47.8524933" lon="-1.757305"><ele>110.0</ele><time>2026-05-02T08:57:35.14Z</time></trkpt><trkpt lat="47.8524067" lon="-1.7573183"><ele>109.99999999999999</ele><time>2026-05-02T08:57:36.139Z</time></trkpt><trkpt lat="47.8523183" lon="-1.7573333"><ele>110.0</ele><time>2026-05-02T08:57:37.143Z</time></trkpt><trkpt lat="47.8522333" lon="-1.7573483"><ele>109.99999999999999</ele><time>2026-05-02T08:57:38.142Z</time></trkpt><trkpt lat="47.8521667" lon="-1.75736"><ele>110.0</ele><time>2026-05-02T08:57:39.139Z</time></trkpt><trkpt lat="47.8520583" lon="-1.757385"><ele>110.0</ele><time>2026-05-02T08:57:41.14Z</time></trkpt><trkpt lat="47.8519867" lon="-1.7573983"><ele>110.0</ele><time>2026-05-02T08:57:43.139Z</time></trkpt><trkpt lat="47.85192" lon="-1.7574633"><ele>109.99999999999999</ele><time>2026-05-02T08:57:46.139Z</time></trkpt><trkpt lat="47.8518233" lon="-1.7574733"><ele>110.0</ele><time>2026-05-02T08:57:49.14Z</time></trkpt><trkpt lat="47.8517167" lon="-1.757485"><ele>108.83333333333333</ele><time>2026-05-02T08:57:51.139Z</time></trkpt><trkpt lat="47.85165" lon="-1.7575033"><ele>107.66666666666666</ele><time>2026-05-02T08:57:52.14Z</time></trkpt><trkpt lat="47.8515733" lon="-1.7575233"><ele>106.5</ele><time>2026-05-02T08:57:53.14Z</time></trkpt><trkpt lat="47.8514917" lon="-1.7575483"><ele>105.33333333333334</ele><time>2026-05-02T08:57:54.139Z</time></trkpt><trkpt lat="47.8513983" lon="-1.7575683"><ele>104.16666666666667</ele><time>2026-05-02T08:57:55.139Z</time></trkpt><trkpt lat="47.851295" lon="-1.75759"><ele>103.0</ele><time>2026-05-02T08:57:56.139Z</time></trkpt><trkpt lat="47.8511833" lon="-1.7576133"><ele>103.0</ele><time>2026-05-02T08:57:57.14Z</time></trkpt><trkpt lat="47.851065" lon="-1.757635"><ele>103.0</ele><time>2026-05-02T08:57:58.139Z</time></trkpt><trkpt lat="47.8509417" lon="-1.7576567"><ele>103.0</ele><time>2026-05-02T08:57:59.139Z</time></trkpt><trkpt lat="47.850815" lon="-1.7576767"><ele>103.0</ele><time>2026-05-02T08:58:00.139Z</time></trkpt><trkpt lat="47.8506933" lon="-1.7577"><ele>100.5</ele><time>2026-05-02T08:58:01.139Z</time></trkpt><trkpt lat="47.8505717" lon="-1.7577167"><ele>98.0</ele><time>2026-05-02T08:58:02.139Z</time></trkpt><trkpt lat="47.850455" lon="-1.7577333"><ele>95.5</ele><time>2026-05-02T08:58:03.138Z</time></trkpt><trkpt lat="47.8503433" lon="-1.7577517"><ele>93.0</ele><time>2026-05-02T08:58:04.138Z</time></trkpt><trkpt lat="47.8502317" lon="-1.7577717"><ele>92.60000000000001</ele><time>2026-05-02T08:58:05.139Z</time></trkpt><trkpt lat="47.8501217" lon="-1.7577867"><ele>92.2</ele><time>2026-05-02T08:58:06.14Z</time></trkpt><trkpt lat="47.8500183" lon="-1.7578083"><ele>91.8</ele><time>2026-05-02T08:58:07.141Z</time></trkpt><trkpt lat="47.8499183" lon="-1.757825"><ele>91.4</ele><time>2026-05-02T08:58:08.139Z</time></trkpt><trkpt lat="47.849825" lon="-1.7578383"><ele>91.0</ele><time>2026-05-02T08:58:09.14Z</time></trkpt><trkpt lat="47.849735" lon="-1.75786"><ele>91.0</ele><time>2026-05-02T08:58:10.139Z</time></trkpt><trkpt lat="47.84965" lon="-1.7578833"><ele>91.0</ele><time>2026-05-02T08:58:11.141Z</time></trkpt><trkpt lat="47.849565" lon="-1.7579"><ele>91.0</ele><time>2026-05-02T08:58:12.139Z</time></trkpt><trkpt lat="47.8494733" lon="-1.7579183"><ele>91.0</ele><time>2026-05-02T08:58:13.139Z</time></trkpt><trkpt lat="47.84938" lon="-1.7579383"><ele>91.0</ele><time>2026-05-02T08:58:14.139Z</time></trkpt><trkpt lat="47.8492817" lon="-1.7579567"><ele>90.6</ele><time>2026-05-02T08:58:15.14Z</time></trkpt><trkpt lat="47.84918" lon="-1.757975"><ele>90.19999999999999</ele><time>2026-05-02T08:58:16.14Z</time></trkpt><trkpt lat="47.849079" lon="-1.7579891"><ele>89.80000000000001</ele><time>2026-05-02T08:58:17.139Z</time></trkpt><trkpt lat="47.8489779" lon="-1.7580029"><ele>89.4</ele><time>2026-05-02T08:58:18.139Z</time></trkpt><trkpt lat="47.8488785" lon="-1.7580164"><ele>89.0</ele><time>2026-05-02T08:58:19.139Z</time></trkpt><trkpt lat="47.8487802" lon="-1.7580309"><ele>89.0</ele><time>2026-05-02T08:58:20.14Z</time></trkpt><trkpt lat="47.8486835" lon="-1.7580481"><ele>89.0</ele><time>2026-05-02T08:58:21.139Z</time></trkpt><trkpt lat="47.8485912" lon="-1.7580649"><ele>89.0</ele><time>2026-05-02T08:58:22.139Z</time></trkpt><trkpt lat="47.8485026" lon="-1.758082"><ele>89.0</ele><time>2026-05-02T08:58:23.138Z</time></trkpt><trkpt lat="47.8484161" lon="-1.7580993"><ele>89.0</ele><time>2026-05-02T08:58:24.139Z</time></trkpt><trkpt lat="47.8483282" lon="-1.7581145"><ele>88.66666666666667</ele><time>2026-05-02T08:58:25.142Z</time></trkpt><trkpt lat="47.848243" lon="-1.7581335"><ele>88.33333333333334</ele><time>2026-05-02T08:58:26.141Z</time></trkpt><trkpt lat="47.84816" lon="-1.758153"><ele>88.0</ele><time>2026-05-02T08:58:27.141Z</time></trkpt><trkpt lat="47.8480794" lon="-1.7581706"><ele>87.66666666666667</ele><time>2026-05-02T08:58:28.139Z</time></trkpt><trkpt lat="47.8480028" lon="-1.7581855"><ele>87.33333333333333</ele><time>2026-05-02T08:58:29.139Z</time></trkpt><trkpt lat="47.8479357" lon="-1.7582002"><ele>87.0</ele><time>2026-05-02T08:58:30.138Z</time></trkpt><trkpt lat="47.8478197" lon="-1.758224"><ele>87.0</ele><time>2026-05-02T08:58:32.139Z</time></trkpt><trkpt lat="47.8477285" lon="-1.7582096"><ele>87.0</ele><time>2026-05-02T08:58:34.139Z</time></trkpt><trkpt lat="47.8476513" lon="-1.7581303"><ele>87.0</ele><time>2026-05-02T08:58:36.138Z</time></trkpt><trkpt lat="47.8475906" lon="-1.7580229"><ele>87.0</ele><time>2026-05-02T08:58:38.139Z</time></trkpt><trkpt lat="47.8475392" lon="-1.7578999"><ele>87.0</ele><time>2026-05-02T08:58:40.139Z</time></trkpt><trkpt lat="47.8474734" lon="-1.757768"><ele>85.6</ele><time>2026-05-02T08:58:42.139Z</time></trkpt><trkpt lat="47.8474155" lon="-1.7576543"><ele>84.19999999999999</ele><time>2026-05-02T08:58:44.141Z</time></trkpt><trkpt lat="47.8473668" lon="-1.7575512"><ele>82.8</ele><time>2026-05-02T08:58:46.139Z</time></trkpt><trkpt lat="47.8473186" lon="-1.7574408"><ele>81.4</ele><time>2026-05-02T08:58:48.139Z</time></trkpt><trkpt lat="47.8472668" lon="-1.7573137"><ele>80.0</ele><time>2026-05-02T08:58:50.139Z</time></trkpt><trkpt lat="47.847211" lon="-1.7571848"><ele>80.0</ele><time>2026-05-02T08:58:52.14Z</time></trkpt><trkpt lat="47.847154" lon="-1.7570625"><ele>80.0</ele><time>2026-05-02T08:58:54.139Z</time></trkpt><trkpt lat="47.8470858" lon="-1.7569382"><ele>80.0</ele><time>2026-05-02T08:58:56.139Z</time></trkpt><trkpt lat="47.8470178" lon="-1.7568006"><ele>80.0</ele><time>2026-05-02T08:58:58.139Z</time></trkpt><trkpt lat="47.8469605" lon="-1.7566771"><ele>80.0</ele><time>2026-05-02T08:59:00.138Z</time></trkpt><trkpt lat="47.8468921" lon="-1.7565512"><ele>80.4</ele><time>2026-05-02T08:59:02.139Z</time></trkpt><trkpt lat="47.8468295" lon="-1.7564299"><ele>80.8</ele><time>2026-05-02T08:59:04.139Z</time></trkpt><trkpt lat="47.8467576" lon="-1.7562974"><ele>81.19999999999999</ele><time>2026-05-02T08:59:06.143Z</time></trkpt><trkpt lat="47.8466843" lon="-1.7561684"><ele>81.6</ele><time>2026-05-02T08:59:08.14Z</time></trkpt><trkpt lat="47.8466207" lon="-1.7560406"><ele>82.0</ele><time>2026-05-02T08:59:10.14Z</time></trkpt><trkpt lat="47.8465435" lon="-1.7559036"><ele>81.19999999999999</ele><time>2026-05-02T08:59:12.141Z</time></trkpt><trkpt lat="47.8464797" lon="-1.7558046"><ele>80.39999999999999</ele><time>2026-05-02T08:59:14.14Z</time></trkpt><trkpt lat="47.8464189" lon="-1.7558406"><ele>79.6</ele><time>2026-05-02T08:59:33.142Z</time></trkpt><trkpt lat="47.8463797" lon="-1.7559489"><ele>78.8</ele><time>2026-05-02T08:59:36.14Z</time></trkpt><trkpt lat="47.8463415" lon="-1.7560824"><ele>78.0</ele><time>2026-05-02T08:59:39.143Z</time></trkpt><trkpt lat="47.8463088" lon="-1.7562531"><ele>77.25</ele><time>2026-05-02T08:59:41.141Z</time></trkpt><trkpt lat="47.8462894" lon="-1.7563757"><ele>76.5</ele><time>2026-05-02T08:59:42.14Z</time></trkpt><trkpt lat="47.8462561" lon="-1.7565359"><ele>75.75</ele><time>2026-05-02T08:59:43.14Z</time></trkpt><trkpt lat="47.8462095" lon="-1.7567293"><ele>75.0</ele><time>2026-05-02T08:59:44.139Z</time></trkpt><trkpt lat="47.8461622" lon="-1.7569316"><ele>74.0</ele><time>2026-05-02T08:59:45.144Z</time></trkpt><trkpt lat="47.8461182" lon="-1.7571445"><ele>73.0</ele><time>2026-05-02T08:59:46.14Z</time></trkpt><trkpt lat="47.8460724" lon="-1.7573717"><ele>72.0</ele><time>2026-05-02T08:59:47.141Z</time></trkpt><trkpt lat="47.8460213" lon="-1.7576072"><ele>70.66666666666667</ele><time>2026-05-02T08:59:48.14Z</time></trkpt><trkpt lat="47.8459648" lon="-1.7578556"><ele>69.33333333333334</ele><time>2026-05-02T08:59:49.14Z</time></trkpt><trkpt lat="47.8459035" lon="-1.7581095"><ele>68.0</ele><time>2026-05-02T08:59:50.14Z</time></trkpt><trkpt lat="47.8458426" lon="-1.7583674"><ele>66.0</ele><time>2026-05-02T08:59:51.14Z</time></trkpt><trkpt lat="47.845778" lon="-1.7586223"><ele>64.0</ele><time>2026-05-02T08:59:52.144Z</time></trkpt><trkpt lat="47.8457142" lon="-1.7588667"><ele>62.0</ele><time>2026-05-02T08:59:53.139Z</time></trkpt><trkpt lat="47.8456553" lon="-1.7590912"><ele>62.0</ele><time>2026-05-02T08:59:54.14Z</time></trkpt><trkpt lat="47.8456017" lon="-1.75928"><ele>62.0</ele><time>2026-05-02T08:59:55.14Z</time></trkpt><trkpt lat="47.845555" lon="-1.759455"><ele>62.0</ele><time>2026-05-02T08:59:56.139Z</time></trkpt><trkpt lat="47.84551" lon="-1.75963"><ele>62.0</ele><time>2026-05-02T08:59:57.14Z</time></trkpt><trkpt lat="47.8454667" lon="-1.75981"><ele>61.75</ele><time>2026-05-02T08:59:58.138Z</time></trkpt><trkpt lat="47.84542" lon="-1.7599883"><ele>61.5</ele><time>2026-05-02T08:59:59.14Z</time></trkpt><trkpt lat="47.8453767" lon="-1.7601717"><ele>61.25</ele><time>2026-05-02T09:00:00.14Z</time></trkpt><trkpt lat="47.8453333" lon="-1.76035"><ele>61.0</ele><time>2026-05-02T09:00:01.141Z</time></trkpt><trkpt lat="47.845295" lon="-1.7605317"><ele>60.0</ele><time>2026-05-02T09:00:02.139Z</time></trkpt><trkpt lat="47.84525" lon="-1.7607117"><ele>59.0</ele><time>2026-05-02T09:00:03.14Z</time></trkpt><trkpt lat="47.8452033" lon="-1.7609"><ele>58.0</ele><time>2026-05-02T09:00:04.141Z</time></trkpt><trkpt lat="47.8451617" lon="-1.7610933"><ele>57.0</ele><time>2026-05-02T09:00:05.141Z</time></trkpt><trkpt lat="47.8451167" lon="-1.761295"><ele>56.75</ele><time>2026-05-02T09:00:06.14Z</time></trkpt><trkpt lat="47.8450667" lon="-1.7614883"><ele>56.5</ele><time>2026-05-02T09:00:07.141Z</time></trkpt><trkpt lat="47.8450183" lon="-1.7616733"><ele>56.25</ele><time>2026-05-02T09:00:08.139Z</time></trkpt><trkpt lat="47.8449717" lon="-1.761855"><ele>56.0</ele><time>2026-05-02T09:00:09.14Z</time></trkpt><trkpt lat="47.8449267" lon="-1.7620383"><ele>55.25</ele><time>2026-05-02T09:00:10.14Z</time></trkpt><trkpt lat="47.8448833" lon="-1.7622217"><ele>54.5</ele><time>2026-05-02T09:00:11.139Z</time></trkpt><trkpt lat="47.844845" lon="-1.7624"><ele>53.75</ele><time>2026-05-02T09:00:12.141Z</time></trkpt><trkpt lat="47.8448067" lon="-1.762585"><ele>53.0</ele><time>2026-05-02T09:00:13.139Z</time></trkpt><trkpt lat="47.844765" lon="-1.762775"><ele>51.75</ele><time>2026-05-02T09:00:14.142Z</time></trkpt><trkpt lat="47.8447217" lon="-1.7629617"><ele>50.5</ele><time>2026-05-02T09:00:15.14Z</time></trkpt><trkpt lat="47.8446733" lon="-1.7631467"><ele>49.25</ele><time>2026-05-02T09:00:16.14Z</time></trkpt><trkpt lat="47.84462" lon="-1.7633467"><ele>48.0</ele><time>2026-05-02T09:00:17.14Z</time></trkpt><trkpt lat="47.8445717" lon="-1.7635517"><ele>47.25</ele><time>2026-05-02T09:00:18.141Z</time></trkpt><trkpt lat="47.84452" lon="-1.7637567"><ele>46.5</ele><time>2026-05-02T09:00:19.139Z</time></trkpt><trkpt lat="47.8444667" lon="-1.7639617"><ele>45.75</ele><time>2026-05-02T09:00:20.14Z</time></trkpt><trkpt lat="47.8444133" lon="-1.764175"><ele>45.0</ele><time>2026-05-02T09:00:21.14Z</time></trkpt><trkpt lat="47.8443617" lon="-1.764395"><ele>44.333333333333336</ele><time>2026-05-02T09:00:22.14Z</time></trkpt><trkpt lat="47.8443067" lon="-1.764615"><ele>43.66666666666667</ele><time>2026-05-02T09:00:23.14Z</time></trkpt><trkpt lat="47.8442583" lon="-1.7648283"><ele>43.0</ele><time>2026-05-02T09:00:24.141Z</time></trkpt><trkpt lat="47.8442083" lon="-1.7650367"><ele>44.0</ele><time>2026-05-02T09:00:25.14Z</time></trkpt><trkpt lat="47.8441567" lon="-1.7652483"><ele>45.0</ele><time>2026-05-02T09:00:26.146Z</time></trkpt><trkpt lat="47.8441033" lon="-1.76547"><ele>46.0</ele><time>2026-05-02T09:00:27.14Z</time></trkpt><trkpt lat="47.8440483" lon="-1.7656917"><ele>46.0</ele><time>2026-05-02T09:00:28.14Z</time></trkpt><trkpt lat="47.843995" lon="-1.7659183"><ele>46.0</ele><time>2026-05-02T09:00:29.14Z</time></trkpt><trkpt lat="47.8439433" lon="-1.76616"><ele>46.0</ele><time>2026-05-02T09:00:30.141Z</time></trkpt><trkpt lat="47.843895" lon="-1.7663967"><ele>45.333333333333336</ele><time>2026-05-02T09:00:31.14Z</time></trkpt><trkpt lat="47.8438567" lon="-1.76665"><ele>44.666666666666664</ele><time>2026-05-02T09:00:32.14Z</time></trkpt><trkpt lat="47.8438267" lon="-1.76691"><ele>44.0</ele><time>2026-05-02T09:00:33.14Z</time></trkpt><trkpt lat="47.843805" lon="-1.7671733"><ele>43.666666666666664</ele><time>2026-05-02T09:00:34.142Z</time></trkpt><trkpt lat="47.8437983" lon="-1.76745"><ele>43.333333333333336</ele><time>2026-05-02T09:00:35.14Z</time></trkpt><trkpt lat="47.8437967" lon="-1.7677383"><ele>43.0</ele><time>2026-05-02T09:00:36.143Z</time></trkpt><trkpt lat="47.8438" lon="-1.7680417"><ele>42.333333333333336</ele><time>2026-05-02T09:00:37.14Z</time></trkpt><trkpt lat="47.8438017" lon="-1.7683583"><ele>41.666666666666664</ele><time>2026-05-02T09:00:38.14Z</time></trkpt><trkpt lat="47.8438" lon="-1.768675"><ele>41.0</ele><time>2026-05-02T09:00:39.14Z</time></trkpt><trkpt lat="47.8437983" lon="-1.7689933"><ele>40.0</ele><time>2026-05-02T09:00:40.142Z</time></trkpt><trkpt lat="47.8437983" lon="-1.7693067"><ele>39.0</ele><time>2026-05-02T09:00:41.141Z</time></trkpt><trkpt lat="47.8438067" lon="-1.76962"><ele>38.0</ele><time>2026-05-02T09:00:42.139Z</time></trkpt><trkpt lat="47.84382" lon="-1.7699217"><ele>37.666666666666664</ele><time>2026-05-02T09:00:43.139Z</time></trkpt><trkpt lat="47.8438433" lon="-1.7702033"><ele>37.333333333333336</ele><time>2026-05-02T09:00:44.138Z</time></trkpt><trkpt lat="47.8438667" lon="-1.7704717"><ele>37.0</ele><time>2026-05-02T09:00:45.14Z</time></trkpt><trkpt lat="47.8438867" lon="-1.7707267"><ele>37.0</ele><time>2026-05-02T09:00:46.144Z</time></trkpt><trkpt lat="47.843905" lon="-1.770965"><ele>37.0</ele><time>2026-05-02T09:00:47.142Z</time></trkpt><trkpt lat="47.843915" lon="-1.7711967"><ele>37.0</ele><time>2026-05-02T09:00:48.14Z</time></trkpt><trkpt lat="47.8439217" lon="-1.7714383"><ele>37.0</ele><time>2026-05-02T09:00:49.141Z</time></trkpt><trkpt lat="47.8439183" lon="-1.7716883"><ele>37.0</ele><time>2026-05-02T09:00:50.142Z</time></trkpt><trkpt lat="47.8439017" lon="-1.7719483"><ele>37.0</ele><time>2026-05-02T09:00:51.141Z</time></trkpt><trkpt lat="47.8438783" lon="-1.772225"><ele>37.0</ele><time>2026-05-02T09:00:52.14Z</time></trkpt><trkpt lat="47.8438533" lon="-1.7725"><ele>37.0</ele><time>2026-05-02T09:00:53.141Z</time></trkpt><trkpt lat="47.8438317" lon="-1.7727683"><ele>37.0</ele><time>2026-05-02T09:00:54.141Z</time></trkpt><trkpt lat="47.84381" lon="-1.7730317"><ele>37.0</ele><time>2026-05-02T09:00:55.14Z</time></trkpt><trkpt lat="47.8437883" lon="-1.7732733"><ele>37.0</ele><time>2026-05-02T09:00:56.139Z</time></trkpt><trkpt lat="47.843765" lon="-1.7735"><ele>37.0</ele><time>2026-05-02T09:00:57.14Z</time></trkpt><trkpt lat="47.8437433" lon="-1.7737217"><ele>37.0</ele><time>2026-05-02T09:00:58.14Z</time></trkpt><trkpt lat="47.8437217" lon="-1.77394"><ele>37.0</ele><time>2026-05-02T09:00:59.14Z</time></trkpt><trkpt lat="47.843705" lon="-1.77415"><ele>37.0</ele><time>2026-05-02T09:01:00.14Z</time></trkpt><trkpt lat="47.84368" lon="-1.774345"><ele>37.0</ele><time>2026-05-02T09:01:01.14Z</time></trkpt><trkpt lat="47.843635" lon="-1.774535"><ele>35.6</ele><time>2026-05-02T09:01:02.141Z</time></trkpt><trkpt lat="47.8435883" lon="-1.77471"><ele>34.2</ele><time>2026-05-02T09:01:03.141Z</time></trkpt><trkpt lat="47.8435367" lon="-1.7748683"><ele>32.8</ele><time>2026-05-02T09:01:04.141Z</time></trkpt><trkpt lat="47.8434833" lon="-1.775005"><ele>31.4</ele><time>2026-05-02T09:01:05.14Z</time></trkpt><trkpt lat="47.8434317" lon="-1.7751283"><ele>30.0</ele><time>2026-05-02T09:01:06.14Z</time></trkpt><trkpt lat="47.8433867" lon="-1.7752367"><ele>28.6</ele><time>2026-05-02T09:01:07.14Z</time></trkpt><trkpt lat="47.8433467" lon="-1.775325"><ele>27.2</ele><time>2026-05-02T09:01:08.14Z</time></trkpt><trkpt lat="47.843305" lon="-1.7754567"><ele>25.799999999999997</ele><time>2026-05-02T09:01:10.14Z</time></trkpt><trkpt lat="47.843285" lon="-1.7755617"><ele>24.4</ele><time>2026-05-02T09:01:12.142Z</time></trkpt><trkpt lat="47.8432083" lon="-1.7757133"><ele>23.0</ele><time>2026-05-02T09:01:14.139Z</time></trkpt><trkpt lat="47.8431517" lon="-1.7758167"><ele>23.0</ele><time>2026-05-02T09:01:15.14Z</time></trkpt><trkpt lat="47.8430883" lon="-1.7759433"><ele>23.0</ele><time>2026-05-02T09:01:16.138Z</time></trkpt><trkpt lat="47.84302" lon="-1.7760983"><ele>23.0</ele><time>2026-05-02T09:01:17.14Z</time></trkpt><trkpt lat="47.8429467" lon="-1.7762717"><ele>23.0</ele><time>2026-05-02T09:01:18.14Z</time></trkpt><trkpt lat="47.842875" lon="-1.7764583"><ele>21.0</ele><time>2026-05-02T09:01:19.141Z</time></trkpt><trkpt lat="47.8428017" lon="-1.7766617"><ele>19.0</ele><time>2026-05-02T09:01:20.14Z</time></trkpt><trkpt lat="47.842725" lon="-1.7768633"><ele>17.0</ele><time>2026-05-02T09:01:21.142Z</time></trkpt><trkpt lat="47.8426467" lon="-1.7770667"><ele>18.666666666666668</ele><time>2026-05-02T09:01:22.14Z</time></trkpt><trkpt lat="47.8425683" lon="-1.777275"><ele>20.333333333333332</ele><time>2026-05-02T09:01:23.143Z</time></trkpt><trkpt lat="47.8424883" lon="-1.77748"><ele>22.0</ele><time>2026-05-02T09:01:24.142Z</time></trkpt><trkpt lat="47.8424083" lon="-1.7776883"><ele>22.0</ele><time>2026-05-02T09:01:25.14Z</time></trkpt><trkpt lat="47.8423217" lon="-1.7778967"><ele>22.0</ele><time>2026-05-02T09:01:26.138Z</time></trkpt><trkpt lat="47.8422283" lon="-1.7780933"><ele>22.0</ele><time>2026-05-02T09:01:27.14Z</time></trkpt><trkpt lat="47.8421333" lon="-1.7782833"><ele>22.0</ele><time>2026-05-02T09:01:28.139Z</time></trkpt><trkpt lat="47.84204" lon="-1.778465"><ele>22.0</ele><time>2026-05-02T09:01:29.14Z</time></trkpt><trkpt lat="47.8419417" lon="-1.778635"><ele>22.0</ele><time>2026-05-02T09:01:30.139Z</time></trkpt><trkpt lat="47.8418267" lon="-1.7788017"><ele>21.333333333333332</ele><time>2026-05-02T09:01:31.14Z</time></trkpt><trkpt lat="47.841695" lon="-1.77897"><ele>20.666666666666668</ele><time>2026-05-02T09:01:32.14Z</time></trkpt><trkpt lat="47.8415333" lon="-1.779135"><ele>20.0</ele><time>2026-05-02T09:01:33.14Z</time></trkpt><trkpt lat="47.8413517" lon="-1.7793133"><ele>17.0</ele><time>2026-05-02T09:01:34.139Z</time></trkpt><trkpt lat="47.841155" lon="-1.7795033"><ele>14.0</ele><time>2026-05-02T09:01:35.139Z</time></trkpt><trkpt lat="47.8409483" lon="-1.7796967"><ele>14.0</ele><time>2026-05-02T09:01:36.139Z</time></trkpt><trkpt lat="47.84074" lon="-1.779895"><ele>14.0</ele><time>2026-05-02T09:01:37.14Z</time></trkpt><trkpt lat="47.8405267" lon="-1.7800867"><ele>13.0</ele><time>2026-05-02T09:01:38.14Z</time></trkpt><trkpt lat="47.8403183" lon="-1.7802833"><ele>12.0</ele><time>2026-05-02T09:01:39.141Z</time></trkpt><trkpt lat="47.8401083" lon="-1.7804817"><ele>12.0</ele><time>2026-05-02T09:01:40.141Z</time></trkpt><trkpt lat="47.8399033" lon="-1.7806783"><ele>12.0</ele><time>2026-05-02T09:01:41.139Z</time></trkpt><trkpt lat="47.8397" lon="-1.7808633"><ele>11.0</ele><time>2026-05-02T09:01:42.14Z</time></trkpt><trkpt lat="47.8395017" lon="-1.7810467"><ele>10.0</ele><time>2026-05-02T09:01:43.14Z</time></trkpt><trkpt lat="47.8393067" lon="-1.7812283"><ele>11.0</ele><time>2026-05-02T09:01:44.139Z</time></trkpt><trkpt lat="47.83911" lon="-1.7814033"><ele>12.0</ele><time>2026-05-02T09:01:45.14Z</time></trkpt><trkpt lat="47.838915" lon="-1.7815783"><ele>12.0</ele><time>2026-05-02T09:01:46.139Z</time></trkpt><trkpt lat="47.838725" lon="-1.78176"><ele>12.0</ele><time>2026-05-02T09:01:47.139Z</time></trkpt><trkpt lat="47.83854" lon="-1.7819383"><ele>12.0</ele><time>2026-05-02T09:01:48.139Z</time></trkpt><trkpt lat="47.8383583" lon="-1.7821083"><ele>12.333333333333332</ele><time>2026-05-02T09:01:49.14Z</time></trkpt><trkpt lat="47.8381767" lon="-1.78227"><ele>12.666666666666666</ele><time>2026-05-02T09:01:50.14Z</time></trkpt><trkpt lat="47.8379933" lon="-1.7824267"><ele>13.0</ele><time>2026-05-02T09:01:51.139Z</time></trkpt><trkpt lat="47.83781" lon="-1.7825667"><ele>13.0</ele><time>2026-05-02T09:01:52.139Z</time></trkpt><trkpt lat="47.8376267" lon="-1.78268"><ele>13.0</ele><time>2026-05-02T09:01:53.14Z</time></trkpt><trkpt lat="47.83745" lon="-1.78279"><ele>13.0</ele><time>2026-05-02T09:01:54.139Z</time></trkpt><trkpt lat="47.8372717" lon="-1.7829183"><ele>13.0</ele><time>2026-05-02T09:01:55.14Z</time></trkpt><trkpt lat="47.8370967" lon="-1.7830817"><ele>13.0</ele><time>2026-05-02T09:01:56.138Z</time></trkpt><trkpt lat="47.8369333" lon="-1.7832783"><ele>13.0</ele><time>2026-05-02T09:01:57.14Z</time></trkpt><trkpt lat="47.83678" lon="-1.7835117"><ele>13.0</ele><time>2026-05-02T09:01:58.139Z</time></trkpt><trkpt lat="47.836635" lon="-1.7837733"><ele>13.0</ele><time>2026-05-02T09:01:59.14Z</time></trkpt><trkpt lat="47.836495" lon="-1.7840583"><ele>13.0</ele><time>2026-05-02T09:02:00.139Z</time></trkpt><trkpt lat="47.8363533" lon="-1.7843633"><ele>13.0</ele><time>2026-05-02T09:02:01.14Z</time></trkpt><trkpt lat="47.836205" lon="-1.7846733"><ele>13.0</ele><time>2026-05-02T09:02:02.139Z</time></trkpt><trkpt lat="47.8360583" lon="-1.7849867"><ele>13.0</ele><time>2026-05-02T09:02:03.14Z</time></trkpt><trkpt lat="47.8359133" lon="-1.7853017"><ele>12.5</ele><time>2026-05-02T09:02:04.14Z</time></trkpt><trkpt lat="47.83577" lon="-1.7856117"><ele>12.0</ele><time>2026-05-02T09:02:05.139Z</time></trkpt><trkpt lat="47.83563" lon="-1.78592"><ele>12.0</ele><time>2026-05-02T09:02:06.139Z</time></trkpt><trkpt lat="47.8354933" lon="-1.78622"><ele>12.0</ele><time>2026-05-02T09:02:07.139Z</time></trkpt><trkpt lat="47.8353617" lon="-1.7865033"><ele>12.0</ele><time>2026-05-02T09:02:08.139Z</time></trkpt><trkpt lat="47.8352367" lon="-1.7867717"><ele>12.0</ele><time>2026-05-02T09:02:09.141Z</time></trkpt><trkpt lat="47.83512" lon="-1.7870267"><ele>12.0</ele><time>2026-05-02T09:02:10.14Z</time></trkpt><trkpt lat="47.83501" lon="-1.7872617"><ele>11.666666666666666</ele><time>2026-05-02T09:02:11.14Z</time></trkpt><trkpt lat="47.83491" lon="-1.78749"><ele>11.333333333333332</ele><time>2026-05-02T09:02:12.14Z</time></trkpt><trkpt lat="47.83481" lon="-1.78771"><ele>11.0</ele><time>2026-05-02T09:02:13.139Z</time></trkpt><trkpt lat="47.8347283" lon="-1.7879467"><ele>11.666666666666666</ele><time>2026-05-02T09:02:14.139Z</time></trkpt><trkpt lat="47.8346617" lon="-1.7882083"><ele>12.333333333333332</ele><time>2026-05-02T09:02:15.14Z</time></trkpt><trkpt lat="47.8346017" lon="-1.7884883"><ele>13.0</ele><time>2026-05-02T09:02:16.139Z</time></trkpt><trkpt lat="47.8345567" lon="-1.7888017"><ele>13.0</ele><time>2026-05-02T09:02:17.139Z</time></trkpt><trkpt lat="47.83451" lon="-1.7891433"><ele>13.0</ele><time>2026-05-02T09:02:18.141Z</time></trkpt><trkpt lat="47.8344633" lon="-1.7894983"><ele>12.5</ele><time>2026-05-02T09:02:19.139Z</time></trkpt><trkpt lat="47.8344183" lon="-1.789845"><ele>12.0</ele><time>2026-05-02T09:02:20.139Z</time></trkpt><trkpt lat="47.8343717" lon="-1.7901833"><ele>12.0</ele><time>2026-05-02T09:02:21.139Z</time></trkpt><trkpt lat="47.83433" lon="-1.790495"><ele>12.0</ele><time>2026-05-02T09:02:22.139Z</time></trkpt><trkpt lat="47.8342983" lon="-1.79078"><ele>12.0</ele><time>2026-05-02T09:02:23.139Z</time></trkpt><trkpt lat="47.83427" lon="-1.79103"><ele>15.0</ele><time>2026-05-02T09:02:24.139Z</time></trkpt><trkpt lat="47.8342333" lon="-1.7912533"><ele>18.0</ele><time>2026-05-02T09:02:25.139Z</time></trkpt><trkpt lat="47.83418" lon="-1.79147"><ele>21.0</ele><time>2026-05-02T09:02:26.142Z</time></trkpt><trkpt lat="47.834105" lon="-1.791685"><ele>20.333333333333332</ele><time>2026-05-02T09:02:27.141Z</time></trkpt><trkpt lat="47.8340033" lon="-1.791905"><ele>19.666666666666664</ele><time>2026-05-02T09:02:28.139Z</time></trkpt><trkpt lat="47.8338767" lon="-1.7921217"><ele>19.0</ele><time>2026-05-02T09:02:29.141Z</time></trkpt><trkpt lat="47.8337233" lon="-1.792335"><ele>19.0</ele><time>2026-05-02T09:02:30.14Z</time></trkpt><trkpt lat="47.833555" lon="-1.7925517"><ele>19.0</ele><time>2026-05-02T09:02:31.138Z</time></trkpt><trkpt lat="47.8333783" lon="-1.7927833"><ele>22.0</ele><time>2026-05-02T09:02:32.139Z</time></trkpt><trkpt lat="47.8331917" lon="-1.7930267"><ele>25.0</ele><time>2026-05-02T09:02:33.14Z</time></trkpt><trkpt lat="47.83301" lon="-1.7932767"><ele>23.0</ele><time>2026-05-02T09:02:34.14Z</time></trkpt><trkpt lat="47.8328333" lon="-1.7935217"><ele>21.0</ele><time>2026-05-02T09:02:35.141Z</time></trkpt><trkpt lat="47.832665" lon="-1.7937667"><ele>22.0</ele><time>2026-05-02T09:02:36.14Z</time></trkpt><trkpt lat="47.8325033" lon="-1.794005"><ele>23.0</ele><time>2026-05-02T09:02:37.14Z</time></trkpt><trkpt lat="47.8323467" lon="-1.7942333"><ele>24.0</ele><time>2026-05-02T09:02:38.141Z</time></trkpt><trkpt lat="47.8321967" lon="-1.7944483"><ele>24.0</ele><time>2026-05-02T09:02:39.141Z</time></trkpt><trkpt lat="47.8320533" lon="-1.794645"><ele>24.0</ele><time>2026-05-02T09:02:40.14Z</time></trkpt><trkpt lat="47.8319133" lon="-1.7948333"><ele>24.0</ele><time>2026-05-02T09:02:41.141Z</time></trkpt><trkpt lat="47.8317817" lon="-1.7950133"><ele>25.666666666666664</ele><time>2026-05-02T09:02:42.139Z</time></trkpt><trkpt lat="47.8316533" lon="-1.7951817"><ele>27.333333333333332</ele><time>2026-05-02T09:02:43.139Z</time></trkpt><trkpt lat="47.8315333" lon="-1.7953417"><ele>29.0</ele><time>2026-05-02T09:02:44.14Z</time></trkpt><trkpt lat="47.831425" lon="-1.7954983"><ele>29.0</ele><time>2026-05-02T09:02:45.14Z</time></trkpt><trkpt lat="47.8313217" lon="-1.795645"><ele>29.0</ele><time>2026-05-02T09:02:46.14Z</time></trkpt><trkpt lat="47.8312233" lon="-1.7957833"><ele>29.0</ele><time>2026-05-02T09:02:47.139Z</time></trkpt><trkpt lat="47.8311233" lon="-1.79592"><ele>29.0</ele><time>2026-05-02T09:02:48.139Z</time></trkpt><trkpt lat="47.8310267" lon="-1.7960583"><ele>29.0</ele><time>2026-05-02T09:02:49.139Z</time></trkpt><trkpt lat="47.8309283" lon="-1.7961967"><ele>29.0</ele><time>2026-05-02T09:02:50.139Z</time></trkpt><trkpt lat="47.83083" lon="-1.7963317"><ele>29.0</ele><time>2026-05-02T09:02:51.139Z</time></trkpt><trkpt lat="47.8307333" lon="-1.796465"><ele>29.0</ele><time>2026-05-02T09:02:52.139Z</time></trkpt><trkpt lat="47.830635" lon="-1.7965967"><ele>29.0</ele><time>2026-05-02T09:02:53.138Z</time></trkpt><trkpt lat="47.8305383" lon="-1.7967317"><ele>29.0</ele><time>2026-05-02T09:02:54.14Z</time></trkpt><trkpt lat="47.8304417" lon="-1.796865"><ele>29.0</ele><time>2026-05-02T09:02:55.14Z</time></trkpt><trkpt lat="47.8303483" lon="-1.7970033"><ele>29.0</ele><time>2026-05-02T09:02:56.139Z</time></trkpt><trkpt lat="47.830255" lon="-1.79714"><ele>29.25</ele><time>2026-05-02T09:02:57.14Z</time></trkpt><trkpt lat="47.83016" lon="-1.7972783"><ele>29.5</ele><time>2026-05-02T09:02:58.139Z</time></trkpt><trkpt lat="47.830065" lon="-1.7974133"><ele>29.75</ele><time>2026-05-02T09:02:59.14Z</time></trkpt><trkpt lat="47.8299717" lon="-1.7975567"><ele>30.0</ele><time>2026-05-02T09:03:00.14Z</time></trkpt><trkpt lat="47.8298817" lon="-1.7977117"><ele>30.0</ele><time>2026-05-02T09:03:01.142Z</time></trkpt><trkpt lat="47.8297967" lon="-1.797875"><ele>30.0</ele><time>2026-05-02T09:03:02.14Z</time></trkpt><trkpt lat="47.829715" lon="-1.7980517"><ele>30.0</ele><time>2026-05-02T09:03:03.142Z</time></trkpt><trkpt lat="47.8296417" lon="-1.7982417"><ele>30.0</ele><time>2026-05-02T09:03:04.14Z</time></trkpt><trkpt lat="47.8295717" lon="-1.7984367"><ele>29.25</ele><time>2026-05-02T09:03:05.14Z</time></trkpt><trkpt lat="47.829505" lon="-1.798635"><ele>28.5</ele><time>2026-05-02T09:03:06.139Z</time></trkpt><trkpt lat="47.8294367" lon="-1.7988317"><ele>27.75</ele><time>2026-05-02T09:03:07.139Z</time></trkpt><trkpt lat="47.82937" lon="-1.7990317"><ele>27.0</ele><time>2026-05-02T09:03:08.14Z</time></trkpt><trkpt lat="47.8293017" lon="-1.79923"><ele>29.333333333333336</ele><time>2026-05-02T09:03:09.141Z</time></trkpt><trkpt lat="47.8292283" lon="-1.7994317"><ele>31.666666666666668</ele><time>2026-05-02T09:03:10.139Z</time></trkpt><trkpt lat="47.829145" lon="-1.799625"><ele>34.0</ele><time>2026-05-02T09:03:11.139Z</time></trkpt><trkpt lat="47.829055" lon="-1.79981"><ele>34.0</ele><time>2026-05-02T09:03:12.139Z</time></trkpt><trkpt lat="47.8289483" lon="-1.7999833"><ele>34.0</ele><time>2026-05-02T09:03:13.139Z</time></trkpt><trkpt lat="47.8288317" lon="-1.8001483"><ele>34.0</ele><time>2026-05-02T09:03:14.139Z</time></trkpt><trkpt lat="47.828705" lon="-1.8003083"><ele>34.0</ele><time>2026-05-02T09:03:15.139Z</time></trkpt><trkpt lat="47.828575" lon="-1.8004633"><ele>34.0</ele><time>2026-05-02T09:03:16.141Z</time></trkpt><trkpt lat="47.828445" lon="-1.8006167"><ele>34.0</ele><time>2026-05-02T09:03:17.139Z</time></trkpt><trkpt lat="47.82832" lon="-1.800765"><ele>34.333333333333336</ele><time>2026-05-02T09:03:18.14Z</time></trkpt><trkpt lat="47.8281983" lon="-1.8009067"><ele>34.666666666666664</ele><time>2026-05-02T09:03:19.141Z</time></trkpt><trkpt lat="47.82808" lon="-1.8010433"><ele>35.0</ele><time>2026-05-02T09:03:20.14Z</time></trkpt><trkpt lat="47.8279667" lon="-1.80118"><ele>35.0</ele><time>2026-05-02T09:03:21.14Z</time></trkpt><trkpt lat="47.8278517" lon="-1.8013167"><ele>35.0</ele><time>2026-05-02T09:03:22.14Z</time></trkpt><trkpt lat="47.827735" lon="-1.80145"><ele>35.0</ele><time>2026-05-02T09:03:23.139Z</time></trkpt><trkpt lat="47.8276117" lon="-1.8015733"><ele>35.0</ele><time>2026-05-02T09:03:24.146Z</time></trkpt><trkpt lat="47.8274783" lon="-1.8016933"><ele>35.0</ele><time>2026-05-02T09:03:25.14Z</time></trkpt><trkpt lat="47.827345" lon="-1.80181"><ele>35.0</ele><time>2026-05-02T09:03:26.14Z</time></trkpt><trkpt lat="47.82721" lon="-1.8019167"><ele>35.0</ele><time>2026-05-02T09:03:27.14Z</time></trkpt><trkpt lat="47.8270817" lon="-1.8020233"><ele>35.5</ele><time>2026-05-02T09:03:28.142Z</time></trkpt><trkpt lat="47.8269633" lon="-1.802125"><ele>36.0</ele><time>2026-05-02T09:03:29.14Z</time></trkpt><trkpt lat="47.82685" lon="-1.8022317"><ele>36.5</ele><time>2026-05-02T09:03:30.141Z</time></trkpt><trkpt lat="47.826745" lon="-1.8023533"><ele>37.0</ele><time>2026-05-02T09:03:31.141Z</time></trkpt><trkpt lat="47.82664" lon="-1.8024767"><ele>37.0</ele><time>2026-05-02T09:03:32.141Z</time></trkpt><trkpt lat="47.8265483" lon="-1.8026017"><ele>37.0</ele><time>2026-05-02T09:03:33.143Z</time></trkpt><trkpt lat="47.8264617" lon="-1.8027267"><ele>37.0</ele><time>2026-05-02T09:03:34.14Z</time></trkpt><trkpt lat="47.8263833" lon="-1.8028483"><ele>37.0</ele><time>2026-05-02T09:03:35.141Z</time></trkpt><trkpt lat="47.82631" lon="-1.8029817"><ele>36.25</ele><time>2026-05-02T09:03:36.141Z</time></trkpt><trkpt lat="47.8262383" lon="-1.8031233"><ele>35.5</ele><time>2026-05-02T09:03:37.141Z</time></trkpt><trkpt lat="47.826165" lon="-1.80327"><ele>34.75</ele><time>2026-05-02T09:03:38.141Z</time></trkpt><trkpt lat="47.82609" lon="-1.8034167"><ele>34.0</ele><time>2026-05-02T09:03:39.14Z</time></trkpt><trkpt lat="47.8260167" lon="-1.8035583"><ele>33.6</ele><time>2026-05-02T09:03:40.14Z</time></trkpt><trkpt lat="47.825945" lon="-1.8036967"><ele>33.2</ele><time>2026-05-02T09:03:41.141Z</time></trkpt><trkpt lat="47.825875" lon="-1.8038283"><ele>32.800000000000004</ele><time>2026-05-02T09:03:42.141Z</time></trkpt><trkpt lat="47.8258133" lon="-1.8039533"><ele>32.4</ele><time>2026-05-02T09:03:43.14Z</time></trkpt><trkpt lat="47.82575" lon="-1.80408"><ele>32.0</ele><time>2026-05-02T09:03:44.139Z</time></trkpt><trkpt lat="47.8256883" lon="-1.8042183"><ele>31.75</ele><time>2026-05-02T09:03:45.14Z</time></trkpt><trkpt lat="47.8256317" lon="-1.8043767"><ele>31.5</ele><time>2026-05-02T09:03:46.141Z</time></trkpt><trkpt lat="47.825585" lon="-1.8045517"><ele>31.25</ele><time>2026-05-02T09:03:47.142Z</time></trkpt><trkpt lat="47.8255417" lon="-1.8047317"><ele>31.0</ele><time>2026-05-02T09:03:48.139Z</time></trkpt><trkpt lat="47.825505" lon="-1.8049117"><ele>31.0</ele><time>2026-05-02T09:03:49.14Z</time></trkpt><trkpt lat="47.8254733" lon="-1.8050833"><ele>31.0</ele><time>2026-05-02T09:03:50.14Z</time></trkpt><trkpt lat="47.82545" lon="-1.8052467"><ele>31.0</ele><time>2026-05-02T09:03:51.14Z</time></trkpt><trkpt lat="47.82543" lon="-1.8053967"><ele>31.0</ele><time>2026-05-02T09:03:52.141Z</time></trkpt><trkpt lat="47.8254133" lon="-1.8055417"><ele>31.0</ele><time>2026-05-02T09:03:53.14Z</time></trkpt><trkpt lat="47.8253983" lon="-1.8056767"><ele>30.833333333333336</ele><time>2026-05-02T09:03:54.14Z</time></trkpt><trkpt lat="47.8253833" lon="-1.8057967"><ele>30.666666666666668</ele><time>2026-05-02T09:03:55.14Z</time></trkpt><trkpt lat="47.8253667" lon="-1.8059017"><ele>30.5</ele><time>2026-05-02T09:03:56.141Z</time></trkpt><trkpt lat="47.8253433" lon="-1.8059917"><ele>30.333333333333336</ele><time>2026-05-02T09:03:57.14Z</time></trkpt><trkpt lat="47.8253033" lon="-1.806065"><ele>30.166666666666668</ele><time>2026-05-02T09:03:58.146Z</time></trkpt><trkpt lat="47.8251833" lon="-1.80615"><ele>30.0</ele><time>2026-05-02T09:04:00.14Z</time></trkpt><trkpt lat="47.8251" lon="-1.8061567"><ele>29.166666666666668</ele><time>2026-05-02T09:04:01.141Z</time></trkpt><trkpt lat="47.8250117" lon="-1.8061517"><ele>28.333333333333336</ele><time>2026-05-02T09:04:02.14Z</time></trkpt><trkpt lat="47.8249233" lon="-1.806135"><ele>27.5</ele><time>2026-05-02T09:04:03.142Z</time></trkpt><trkpt lat="47.8248383" lon="-1.8061083"><ele>26.666666666666668</ele><time>2026-05-02T09:04:04.14Z</time></trkpt><trkpt lat="47.824755" lon="-1.8060733"><ele>25.833333333333336</ele><time>2026-05-02T09:04:05.14Z</time></trkpt><trkpt lat="47.8246733" lon="-1.806045"><ele>25.0</ele><time>2026-05-02T09:04:06.142Z</time></trkpt><trkpt lat="47.8245933" lon="-1.80602"><ele>25.166666666666668</ele><time>2026-05-02T09:04:07.141Z</time></trkpt><trkpt lat="47.8245183" lon="-1.8059883"><ele>25.333333333333336</ele><time>2026-05-02T09:04:08.14Z</time></trkpt><trkpt lat="47.82445" lon="-1.80593"><ele>25.5</ele><time>2026-05-02T09:04:09.141Z</time></trkpt><trkpt lat="47.8243867" lon="-1.8058517"><ele>25.666666666666664</ele><time>2026-05-02T09:04:10.139Z</time></trkpt><trkpt lat="47.824335" lon="-1.8057633"><ele>25.833333333333332</ele><time>2026-05-02T09:04:11.141Z</time></trkpt><trkpt lat="47.8242917" lon="-1.8056817"><ele>26.0</ele><time>2026-05-02T09:04:12.14Z</time></trkpt><trkpt lat="47.824225" lon="-1.80555"><ele>25.200000000000003</ele><time>2026-05-02T09:04:14.14Z</time></trkpt><trkpt lat="47.8241183" lon="-1.8054517"><ele>24.400000000000002</ele><time>2026-05-02T09:04:23.14Z</time></trkpt><trkpt lat="47.824085" lon="-1.8055883"><ele>23.6</ele><time>2026-05-02T09:04:26.141Z</time></trkpt><trkpt lat="47.8240667" lon="-1.8057583"><ele>22.8</ele><time>2026-05-02T09:04:28.14Z</time></trkpt><trkpt lat="47.8240483" lon="-1.8058583"><ele>22.0</ele><time>2026-05-02T09:04:29.14Z</time></trkpt><trkpt lat="47.82403" lon="-1.8059683"><ele>21.833333333333332</ele><time>2026-05-02T09:04:30.139Z</time></trkpt><trkpt lat="47.824015" lon="-1.8060833"><ele>21.666666666666664</ele><time>2026-05-02T09:04:31.139Z</time></trkpt><trkpt lat="47.824" lon="-1.8061883"><ele>21.5</ele><time>2026-05-02T09:04:32.14Z</time></trkpt><trkpt lat="47.8239867" lon="-1.80628"><ele>21.333333333333332</ele><time>2026-05-02T09:04:33.139Z</time></trkpt><trkpt lat="47.8239333" lon="-1.8064017"><ele>21.166666666666668</ele><time>2026-05-02T09:04:35.139Z</time></trkpt><trkpt lat="47.8238167" lon="-1.8064583"><ele>21.0</ele><time>2026-05-02T09:04:37.142Z</time></trkpt><trkpt lat="47.8237367" lon="-1.8064817"><ele>21.0</ele><time>2026-05-02T09:04:38.139Z</time></trkpt><trkpt lat="47.823645" lon="-1.8065067"><ele>21.0</ele><time>2026-05-02T09:04:39.141Z</time></trkpt><trkpt lat="47.8235433" lon="-1.80654"><ele>21.0</ele><time>2026-05-02T09:04:40.14Z</time></trkpt><trkpt lat="47.8234367" lon="-1.8065833"><ele>21.0</ele><time>2026-05-02T09:04:41.139Z</time></trkpt><trkpt lat="47.8233183" lon="-1.8066233"><ele>21.0</ele><time>2026-05-02T09:04:42.139Z</time></trkpt><trkpt lat="47.8232" lon="-1.8066617"><ele>19.5</ele><time>2026-05-02T09:04:43.14Z</time></trkpt><trkpt lat="47.82308" lon="-1.8067"><ele>18.0</ele><time>2026-05-02T09:04:44.139Z</time></trkpt><trkpt lat="47.822965" lon="-1.8067333"><ele>16.5</ele><time>2026-05-02T09:04:45.139Z</time></trkpt><trkpt lat="47.822845" lon="-1.80677"><ele>15.0</ele><time>2026-05-02T09:04:46.14Z</time></trkpt><trkpt lat="47.82272" lon="-1.80681"><ele>15.0</ele><time>2026-05-02T09:04:47.139Z</time></trkpt><trkpt lat="47.8225917" lon="-1.8068467"><ele>15.0</ele><time>2026-05-02T09:04:48.14Z</time></trkpt><trkpt lat="47.8224583" lon="-1.8068833"><ele>15.0</ele><time>2026-05-02T09:04:49.14Z</time></trkpt><trkpt lat="47.8223267" lon="-1.8069183"><ele>15.0</ele><time>2026-05-02T09:04:50.139Z</time></trkpt><trkpt lat="47.822195" lon="-1.806955"><ele>15.0</ele><time>2026-05-02T09:04:51.14Z</time></trkpt><trkpt lat="47.8220633" lon="-1.806995"><ele>15.0</ele><time>2026-05-02T09:04:52.14Z</time></trkpt><trkpt lat="47.8219333" lon="-1.807035"><ele>15.0</ele><time>2026-05-02T09:04:53.141Z</time></trkpt><trkpt lat="47.8218033" lon="-1.8070783"><ele>15.0</ele><time>2026-05-02T09:04:54.14Z</time></trkpt><trkpt lat="47.821675" lon="-1.8071233"><ele>15.75</ele><time>2026-05-02T09:04:55.141Z</time></trkpt><trkpt lat="47.82155" lon="-1.807165"><ele>16.5</ele><time>2026-05-02T09:04:56.141Z</time></trkpt><trkpt lat="47.8214233" lon="-1.807205"><ele>17.25</ele><time>2026-05-02T09:04:57.14Z</time></trkpt><trkpt lat="47.8213017" lon="-1.807245"><ele>18.0</ele><time>2026-05-02T09:04:58.141Z</time></trkpt><trkpt lat="47.8211833" lon="-1.807285"><ele>18.0</ele><time>2026-05-02T09:04:59.14Z</time></trkpt><trkpt lat="47.8210717" lon="-1.8073217"><ele>18.0</ele><time>2026-05-02T09:05:00.14Z</time></trkpt><trkpt lat="47.8209683" lon="-1.807355"><ele>18.0</ele><time>2026-05-02T09:05:01.14Z</time></trkpt><trkpt lat="47.8208717" lon="-1.807385"><ele>18.0</ele><time>2026-05-02T09:05:02.14Z</time></trkpt><trkpt lat="47.8207867" lon="-1.8074167"><ele>18.0</ele><time>2026-05-02T09:05:03.14Z</time></trkpt><trkpt lat="47.8207083" lon="-1.8074483"><ele>18.5</ele><time>2026-05-02T09:05:04.141Z</time></trkpt><trkpt lat="47.820635" lon="-1.8074767"><ele>19.0</ele><time>2026-05-02T09:05:05.14Z</time></trkpt><trkpt lat="47.8205617" lon="-1.8074967"><ele>19.5</ele><time>2026-05-02T09:05:06.14Z</time></trkpt><trkpt lat="47.82048" lon="-1.807515"><ele>20.0</ele><time>2026-05-02T09:05:07.14Z</time></trkpt><trkpt lat="47.820395" lon="-1.8075317"><ele>20.5</ele><time>2026-05-02T09:05:08.141Z</time></trkpt><trkpt lat="47.8203033" lon="-1.8075517"><ele>21.0</ele><time>2026-05-02T09:05:09.139Z</time></trkpt><trkpt lat="47.82021" lon="-1.8075717"><ele>21.333333333333332</ele><time>2026-05-02T09:05:10.14Z</time></trkpt><trkpt lat="47.82012" lon="-1.8075867"><ele>21.666666666666668</ele><time>2026-05-02T09:05:11.139Z</time></trkpt><trkpt lat="47.8200333" lon="-1.807595"><ele>22.0</ele><time>2026-05-02T09:05:12.14Z</time></trkpt><trkpt lat="47.8199533" lon="-1.8075933"><ele>22.333333333333336</ele><time>2026-05-02T09:05:13.143Z</time></trkpt><trkpt lat="47.819875" lon="-1.8075917"><ele>22.666666666666668</ele><time>2026-05-02T09:05:14.141Z</time></trkpt><trkpt lat="47.819805" lon="-1.807595"><ele>23.0</ele><time>2026-05-02T09:05:15.139Z</time></trkpt><trkpt lat="47.8197067" lon="-1.807655"><ele>23.0</ele><time>2026-05-02T09:05:17.139Z</time></trkpt><trkpt lat="47.8196583" lon="-1.8077267"><ele>23.0</ele><time>2026-05-02T09:05:19.14Z</time></trkpt><trkpt lat="47.8195883" lon="-1.8078333"><ele>23.0</ele><time>2026-05-02T09:05:21.145Z</time></trkpt><trkpt lat="47.8195417" lon="-1.80791"><ele>23.0</ele><time>2026-05-02T09:05:22.14Z</time></trkpt><trkpt lat="47.8194933" lon="-1.8080017"><ele>23.0</ele><time>2026-05-02T09:05:23.139Z</time></trkpt><trkpt lat="47.8194433" lon="-1.808105"><ele>23.0</ele><time>2026-05-02T09:05:24.141Z</time></trkpt><trkpt lat="47.819385" lon="-1.80821"><ele>23.0</ele><time>2026-05-02T09:05:25.139Z</time></trkpt><trkpt lat="47.8193183" lon="-1.8083133"><ele>23.0</ele><time>2026-05-02T09:05:26.142Z</time></trkpt><trkpt lat="47.81924" lon="-1.8084083"><ele>23.0</ele><time>2026-05-02T09:05:27.14Z</time></trkpt><trkpt lat="47.8191517" lon="-1.8085067"><ele>23.0</ele><time>2026-05-02T09:05:28.14Z</time></trkpt><trkpt lat="47.8190567" lon="-1.8086117"><ele>23.0</ele><time>2026-05-02T09:05:29.14Z</time></trkpt><trkpt lat="47.8189533" lon="-1.8087233"><ele>24.25</ele><time>2026-05-02T09:05:30.14Z</time></trkpt><trkpt lat="47.8188417" lon="-1.8088417"><ele>25.5</ele><time>2026-05-02T09:05:31.14Z</time></trkpt><trkpt lat="47.818725" lon="-1.8089633"><ele>26.75</ele><time>2026-05-02T09:05:32.14Z</time></trkpt><trkpt lat="47.8186083" lon="-1.8090933"><ele>28.0</ele><time>2026-05-02T09:05:33.142Z</time></trkpt><trkpt lat="47.81849" lon="-1.8092283"><ele>29.666666666666668</ele><time>2026-05-02T09:05:34.141Z</time></trkpt><trkpt lat="47.8183667" lon="-1.80936"><ele>31.333333333333336</ele><time>2026-05-02T09:05:35.139Z</time></trkpt><trkpt lat="47.818245" lon="-1.8094933"><ele>33.0</ele><time>2026-05-02T09:05:36.139Z</time></trkpt><trkpt lat="47.8181267" lon="-1.8096283"><ele>33.0</ele><time>2026-05-02T09:05:37.14Z</time></trkpt><trkpt lat="47.8180083" lon="-1.8097583"><ele>33.0</ele><time>2026-05-02T09:05:38.14Z</time></trkpt><trkpt lat="47.8178883" lon="-1.8098867"><ele>33.0</ele><time>2026-05-02T09:05:39.14Z</time></trkpt><trkpt lat="47.8177683" lon="-1.81001"><ele>33.0</ele><time>2026-05-02T09:05:40.139Z</time></trkpt><trkpt lat="47.8176533" lon="-1.8101217"><ele>32.75</ele><time>2026-05-02T09:05:41.139Z</time></trkpt><trkpt lat="47.8175383" lon="-1.8102333"><ele>32.5</ele><time>2026-05-02T09:05:42.139Z</time></trkpt><trkpt lat="47.8174167" lon="-1.8103433"><ele>32.25</ele><time>2026-05-02T09:05:43.139Z</time></trkpt><trkpt lat="47.81729" lon="-1.8104533"><ele>32.0</ele><time>2026-05-02T09:05:44.139Z</time></trkpt><trkpt lat="47.81716" lon="-1.8105567"><ele>32.0</ele><time>2026-05-02T09:05:45.14Z</time></trkpt><trkpt lat="47.8170233" lon="-1.8106567"><ele>32.0</ele><time>2026-05-02T09:05:46.141Z</time></trkpt><trkpt lat="47.816885" lon="-1.810755"><ele>32.0</ele><time>2026-05-02T09:05:47.14Z</time></trkpt><trkpt lat="47.8167467" lon="-1.810855"><ele>31.75</ele><time>2026-05-02T09:05:48.142Z</time></trkpt><trkpt lat="47.8166083" lon="-1.8109517"><ele>31.5</ele><time>2026-05-02T09:05:49.141Z</time></trkpt><trkpt lat="47.816475" lon="-1.8110483"><ele>31.25</ele><time>2026-05-02T09:05:50.14Z</time></trkpt><trkpt lat="47.8163483" lon="-1.8111567"><ele>31.0</ele><time>2026-05-02T09:05:51.142Z</time></trkpt><trkpt lat="47.816225" lon="-1.81125"><ele>30.75</ele><time>2026-05-02T09:05:52.14Z</time></trkpt><trkpt lat="47.8161183" lon="-1.8113383"><ele>30.5</ele><time>2026-05-02T09:05:53.14Z</time></trkpt><trkpt lat="47.816025" lon="-1.811425"><ele>30.25</ele><time>2026-05-02T09:05:54.141Z</time></trkpt><trkpt lat="47.81593" lon="-1.8115133"><ele>30.0</ele><time>2026-05-02T09:05:55.142Z</time></trkpt><trkpt lat="47.8158367" lon="-1.8116017"><ele>30.0</ele><time>2026-05-02T09:05:56.141Z</time></trkpt><trkpt lat="47.815745" lon="-1.8116817"><ele>30.0</ele><time>2026-05-02T09:05:57.141Z</time></trkpt><trkpt lat="47.8156583" lon="-1.8117567"><ele>30.0</ele><time>2026-05-02T09:05:58.141Z</time></trkpt><trkpt lat="47.8155733" lon="-1.8118383"><ele>30.0</ele><time>2026-05-02T09:05:59.14Z</time></trkpt><trkpt lat="47.815475" lon="-1.8119333"><ele>30.0</ele><time>2026-05-02T09:06:00.138Z</time></trkpt><trkpt lat="47.8153683" lon="-1.8120417"><ele>30.333333333333336</ele><time>2026-05-02T09:06:01.139Z</time></trkpt><trkpt lat="47.81525" lon="-1.812165"><ele>30.666666666666668</ele><time>2026-05-02T09:06:02.139Z</time></trkpt><trkpt lat="47.8151217" lon="-1.8123"><ele>31.0</ele><time>2026-05-02T09:06:03.139Z</time></trkpt><trkpt lat="47.814985" lon="-1.8124467"><ele>30.333333333333336</ele><time>2026-05-02T09:06:04.139Z</time></trkpt><trkpt lat="47.8148383" lon="-1.8126017"><ele>29.666666666666664</ele><time>2026-05-02T09:06:05.139Z</time></trkpt><trkpt lat="47.8146867" lon="-1.8127717"><ele>29.0</ele><time>2026-05-02T09:06:06.139Z</time></trkpt><trkpt lat="47.8145283" lon="-1.81295"><ele>29.0</ele><time>2026-05-02T09:06:07.139Z</time></trkpt><trkpt lat="47.8143667" lon="-1.81313"><ele>29.0</ele><time>2026-05-02T09:06:08.14Z</time></trkpt><trkpt lat="47.8142067" lon="-1.81332"><ele>29.0</ele><time>2026-05-02T09:06:09.14Z</time></trkpt><trkpt lat="47.814045" lon="-1.8135183"><ele>28.333333333333332</ele><time>2026-05-02T09:06:10.139Z</time></trkpt><trkpt lat="47.813895" lon="-1.8137317"><ele>27.666666666666664</ele><time>2026-05-02T09:06:11.138Z</time></trkpt><trkpt lat="47.813755" lon="-1.8139617"><ele>27.0</ele><time>2026-05-02T09:06:12.139Z</time></trkpt><trkpt lat="47.813625" lon="-1.8142067"><ele>27.0</ele><time>2026-05-02T09:06:13.14Z</time></trkpt><trkpt lat="47.8134967" lon="-1.8144567"><ele>27.0</ele><time>2026-05-02T09:06:14.139Z</time></trkpt><trkpt lat="47.8133717" lon="-1.8147067"><ele>27.0</ele><time>2026-05-02T09:06:15.138Z</time></trkpt><trkpt lat="47.8132517" lon="-1.814955"><ele>26.333333333333336</ele><time>2026-05-02T09:06:16.141Z</time></trkpt><trkpt lat="47.8131283" lon="-1.8151967"><ele>25.666666666666668</ele><time>2026-05-02T09:06:17.14Z</time></trkpt><trkpt lat="47.813" lon="-1.815425"><ele>25.0</ele><time>2026-05-02T09:06:18.14Z</time></trkpt><trkpt lat="47.8128617" lon="-1.8156483"><ele>25.0</ele><time>2026-05-02T09:06:19.14Z</time></trkpt><trkpt lat="47.8127117" lon="-1.81586"><ele>25.0</ele><time>2026-05-02T09:06:20.139Z</time></trkpt><trkpt lat="47.8125433" lon="-1.8160633"><ele>25.0</ele><time>2026-05-02T09:06:21.139Z</time></trkpt><trkpt lat="47.8123683" lon="-1.81626"><ele>26.0</ele><time>2026-05-02T09:06:22.14Z</time></trkpt><trkpt lat="47.812185" lon="-1.8164583"><ele>27.0</ele><time>2026-05-02T09:06:23.139Z</time></trkpt><trkpt lat="47.811995" lon="-1.816655"><ele>26.5</ele><time>2026-05-02T09:06:24.139Z</time></trkpt><trkpt lat="47.811805" lon="-1.8168533"><ele>26.0</ele><time>2026-05-02T09:06:25.14Z</time></trkpt><trkpt lat="47.8116167" lon="-1.8170517"><ele>26.0</ele><time>2026-05-02T09:06:26.14Z</time></trkpt><trkpt lat="47.8114367" lon="-1.8172433"><ele>26.0</ele><time>2026-05-02T09:06:27.139Z</time></trkpt><trkpt lat="47.8112583" lon="-1.8174283"><ele>26.0</ele><time>2026-05-02T09:06:28.139Z</time></trkpt><trkpt lat="47.8110833" lon="-1.8176067"><ele>25.333333333333332</ele><time>2026-05-02T09:06:29.14Z</time></trkpt><trkpt lat="47.8109083" lon="-1.81778"><ele>24.666666666666664</ele><time>2026-05-02T09:06:30.139Z</time></trkpt><trkpt lat="47.8107383" lon="-1.8179483"><ele>24.0</ele><time>2026-05-02T09:06:31.139Z</time></trkpt><trkpt lat="47.8105683" lon="-1.81811"><ele>24.0</ele><time>2026-05-02T09:06:32.139Z</time></trkpt><trkpt lat="47.810395" lon="-1.8182633"><ele>24.0</ele><time>2026-05-02T09:06:33.139Z</time></trkpt><trkpt lat="47.81021" lon="-1.8184083"><ele>24.0</ele><time>2026-05-02T09:06:34.139Z</time></trkpt><trkpt lat="47.81002" lon="-1.81855"><ele>24.333333333333336</ele><time>2026-05-02T09:06:35.14Z</time></trkpt><trkpt lat="47.8098283" lon="-1.8186933"><ele>24.666666666666668</ele><time>2026-05-02T09:06:36.139Z</time></trkpt><trkpt lat="47.8096333" lon="-1.8188367"><ele>25.0</ele><time>2026-05-02T09:06:37.14Z</time></trkpt><trkpt lat="47.8094383" lon="-1.8189833"><ele>24.666666666666668</ele><time>2026-05-02T09:06:38.14Z</time></trkpt><trkpt lat="47.8092383" lon="-1.8191283"><ele>24.333333333333336</ele><time>2026-05-02T09:06:39.139Z</time></trkpt><trkpt lat="47.8090383" lon="-1.8192733"><ele>24.0</ele><time>2026-05-02T09:06:40.139Z</time></trkpt><trkpt lat="47.80884" lon="-1.81942"><ele>24.0</ele><time>2026-05-02T09:06:41.139Z</time></trkpt><trkpt lat="47.80864" lon="-1.8195633"><ele>24.0</ele><time>2026-05-02T09:06:42.139Z</time></trkpt><trkpt lat="47.8084367" lon="-1.8197083"><ele>24.0</ele><time>2026-05-02T09:06:43.139Z</time></trkpt><trkpt lat="47.8082317" lon="-1.819855"><ele>25.0</ele><time>2026-05-02T09:06:44.14Z</time></trkpt><trkpt lat="47.808025" lon="-1.8200033"><ele>26.0</ele><time>2026-05-02T09:06:45.141Z</time></trkpt><trkpt lat="47.807815" lon="-1.8201533"><ele>26.0</ele><time>2026-05-02T09:06:46.139Z</time></trkpt><trkpt lat="47.8076033" lon="-1.8203083"><ele>26.0</ele><time>2026-05-02T09:06:47.139Z</time></trkpt><trkpt lat="47.80739" lon="-1.8204633"><ele>26.0</ele><time>2026-05-02T09:06:48.14Z</time></trkpt><trkpt lat="47.8071683" lon="-1.820625"><ele>26.0</ele><time>2026-05-02T09:06:49.14Z</time></trkpt><trkpt lat="47.806945" lon="-1.82079"><ele>25.0</ele><time>2026-05-02T09:06:50.14Z</time></trkpt><trkpt lat="47.8067183" lon="-1.8209633"><ele>24.0</ele><time>2026-05-02T09:06:51.14Z</time></trkpt><trkpt lat="47.8064833" lon="-1.8211417"><ele>23.5</ele><time>2026-05-02T09:06:52.142Z</time></trkpt><trkpt lat="47.80625" lon="-1.8213067"><ele>23.0</ele><time>2026-05-02T09:06:53.14Z</time></trkpt><trkpt lat="47.8060167" lon="-1.8214667"><ele>23.0</ele><time>2026-05-02T09:06:54.139Z</time></trkpt><trkpt lat="47.8057867" lon="-1.8216267"><ele>23.0</ele><time>2026-05-02T09:06:55.14Z</time></trkpt><trkpt lat="47.8055617" lon="-1.821795"><ele>23.5</ele><time>2026-05-02T09:06:56.14Z</time></trkpt><trkpt lat="47.805335" lon="-1.8219633"><ele>24.0</ele><time>2026-05-02T09:06:57.139Z</time></trkpt><trkpt lat="47.80511" lon="-1.8221333"><ele>23.0</ele><time>2026-05-02T09:06:58.139Z</time></trkpt><trkpt lat="47.804885" lon="-1.8223083"><ele>22.0</ele><time>2026-05-02T09:06:59.14Z</time></trkpt><trkpt lat="47.804655" lon="-1.8224783"><ele>22.0</ele><time>2026-05-02T09:07:00.139Z</time></trkpt><trkpt lat="47.8044233" lon="-1.8226467"><ele>22.0</ele><time>2026-05-02T09:07:01.14Z</time></trkpt><trkpt lat="47.8041933" lon="-1.8228133"><ele>23.0</ele><time>2026-05-02T09:07:02.139Z</time></trkpt><trkpt lat="47.80397" lon="-1.822975"><ele>24.0</ele><time>2026-05-02T09:07:03.139Z</time></trkpt><trkpt lat="47.8037417" lon="-1.8231433"><ele>24.0</ele><time>2026-05-02T09:07:04.14Z</time></trkpt><trkpt lat="47.8035133" lon="-1.8233083"><ele>24.0</ele><time>2026-05-02T09:07:05.139Z</time></trkpt><trkpt lat="47.803285" lon="-1.8234767"><ele>24.0</ele><time>2026-05-02T09:07:06.14Z</time></trkpt><trkpt lat="47.8030533" lon="-1.8236433"><ele>24.0</ele><time>2026-05-02T09:07:07.14Z</time></trkpt><trkpt lat="47.8028233" lon="-1.8238083"><ele>25.5</ele><time>2026-05-02T09:07:08.139Z</time></trkpt><trkpt lat="47.8025983" lon="-1.8239733"><ele>27.0</ele><time>2026-05-02T09:07:09.14Z</time></trkpt><trkpt lat="47.80237" lon="-1.8241467"><ele>26.5</ele><time>2026-05-02T09:07:10.14Z</time></trkpt><trkpt lat="47.80214" lon="-1.8243183"><ele>26.0</ele><time>2026-05-02T09:07:11.139Z</time></trkpt><trkpt lat="47.8019167" lon="-1.8244983"><ele>23.5</ele><time>2026-05-02T09:07:12.145Z</time></trkpt><trkpt lat="47.8016833" lon="-1.8246667"><ele>21.0</ele><time>2026-05-02T09:07:13.139Z</time></trkpt><trkpt lat="47.8014483" lon="-1.8248383"><ele>21.0</ele><time>2026-05-02T09:07:14.139Z</time></trkpt><trkpt lat="47.8012133" lon="-1.82501"><ele>21.0</ele><time>2026-05-02T09:07:15.139Z</time></trkpt><trkpt lat="47.8009733" lon="-1.8251783"><ele>21.5</ele><time>2026-05-02T09:07:16.14Z</time></trkpt><trkpt lat="47.8007367" lon="-1.8253517"><ele>22.0</ele><time>2026-05-02T09:07:17.139Z</time></trkpt><trkpt lat="47.8005033" lon="-1.8255317"><ele>22.0</ele><time>2026-05-02T09:07:18.141Z</time></trkpt><trkpt lat="47.8002683" lon="-1.825705"><ele>22.0</ele><time>2026-05-02T09:07:19.139Z</time></trkpt><trkpt lat="47.8000317" lon="-1.8258717"><ele>20.5</ele><time>2026-05-02T09:07:20.139Z</time></trkpt><trkpt lat="47.7998033" lon="-1.82604"><ele>19.0</ele><time>2026-05-02T09:07:21.139Z</time></trkpt><trkpt lat="47.7995783" lon="-1.8262067"><ele>19.0</ele><time>2026-05-02T09:07:22.139Z</time></trkpt><trkpt lat="47.7993567" lon="-1.826375"><ele>19.0</ele><time>2026-05-02T09:07:23.14Z</time></trkpt><trkpt lat="47.7991317" lon="-1.8265417"><ele>19.5</ele><time>2026-05-02T09:07:24.138Z</time></trkpt><trkpt lat="47.798905" lon="-1.8267167"><ele>20.0</ele><time>2026-05-02T09:07:25.139Z</time></trkpt><trkpt lat="47.7986783" lon="-1.8268833"><ele>19.0</ele><time>2026-05-02T09:07:26.14Z</time></trkpt><trkpt lat="47.7984517" lon="-1.8270517"><ele>18.0</ele><time>2026-05-02T09:07:27.143Z</time></trkpt><trkpt lat="47.7982333" lon="-1.82723"><ele>18.0</ele><time>2026-05-02T09:07:28.139Z</time></trkpt><trkpt lat="47.7980117" lon="-1.8274067"><ele>18.0</ele><time>2026-05-02T09:07:29.139Z</time></trkpt><trkpt lat="47.79779" lon="-1.8275883"><ele>18.0</ele><time>2026-05-02T09:07:30.139Z</time></trkpt><trkpt lat="47.7975733" lon="-1.8277767"><ele>18.0</ele><time>2026-05-02T09:07:31.139Z</time></trkpt><trkpt lat="47.7973533" lon="-1.8279733"><ele>18.0</ele><time>2026-05-02T09:07:32.139Z</time></trkpt><trkpt lat="47.7971383" lon="-1.8281717"><ele>18.0</ele><time>2026-05-02T09:07:33.139Z</time></trkpt><trkpt lat="47.7969267" lon="-1.8283733"><ele>18.5</ele><time>2026-05-02T09:07:34.139Z</time></trkpt><trkpt lat="47.7967167" lon="-1.8285783"><ele>19.0</ele><time>2026-05-02T09:07:35.139Z</time></trkpt><trkpt lat="47.7965067" lon="-1.8287883"><ele>19.0</ele><time>2026-05-02T09:07:36.139Z</time></trkpt><trkpt lat="47.7962983" lon="-1.8289983"><ele>19.0</ele><time>2026-05-02T09:07:37.14Z</time></trkpt><trkpt lat="47.7960867" lon="-1.829205"><ele>18.5</ele><time>2026-05-02T09:07:38.139Z</time></trkpt><trkpt lat="47.79587" lon="-1.829415"><ele>18.0</ele><time>2026-05-02T09:07:39.14Z</time></trkpt><trkpt lat="47.7956533" lon="-1.829625"><ele>18.0</ele><time>2026-05-02T09:07:40.139Z</time></trkpt><trkpt lat="47.7954317" lon="-1.8298383"><ele>18.0</ele><time>2026-05-02T09:07:41.143Z</time></trkpt><trkpt lat="47.795205" lon="-1.8300533"><ele>19.0</ele><time>2026-05-02T09:07:42.138Z</time></trkpt><trkpt lat="47.7949767" lon="-1.8302683"><ele>20.0</ele><time>2026-05-02T09:07:43.14Z</time></trkpt><trkpt lat="47.7947533" lon="-1.830475"><ele>20.0</ele><time>2026-05-02T09:07:44.139Z</time></trkpt><trkpt lat="47.7945383" lon="-1.83069"><ele>20.0</ele><time>2026-05-02T09:07:45.14Z</time></trkpt><trkpt lat="47.7943267" lon="-1.8309033"><ele>18.5</ele><time>2026-05-02T09:07:46.14Z</time></trkpt><trkpt lat="47.7941267" lon="-1.83111"><ele>17.0</ele><time>2026-05-02T09:07:47.139Z</time></trkpt><trkpt lat="47.7939333" lon="-1.831295"><ele>17.0</ele><time>2026-05-02T09:07:48.139Z</time></trkpt><trkpt lat="47.79374" lon="-1.8314567"><ele>17.0</ele><time>2026-05-02T09:07:49.14Z</time></trkpt><trkpt lat="47.7935383" lon="-1.8315967"><ele>17.0</ele><time>2026-05-02T09:07:50.141Z</time></trkpt><trkpt lat="47.79333" lon="-1.8317117"><ele>17.0</ele><time>2026-05-02T09:07:51.139Z</time></trkpt><trkpt lat="47.79311" lon="-1.8318033"><ele>17.0</ele><time>2026-05-02T09:07:52.139Z</time></trkpt><trkpt lat="47.79288" lon="-1.8318733"><ele>16.5</ele><time>2026-05-02T09:07:53.139Z</time></trkpt><trkpt lat="47.7926417" lon="-1.8319283"><ele>16.0</ele><time>2026-05-02T09:07:54.139Z</time></trkpt><trkpt lat="47.792405" lon="-1.8319817"><ele>16.0</ele><time>2026-05-02T09:07:55.139Z</time></trkpt><trkpt lat="47.7921817" lon="-1.8320317"><ele>16.0</ele><time>2026-05-02T09:07:56.14Z</time></trkpt><trkpt lat="47.791975" lon="-1.8320833"><ele>16.0</ele><time>2026-05-02T09:07:57.139Z</time></trkpt><trkpt lat="47.791785" lon="-1.8321333"><ele>15.666666666666666</ele><time>2026-05-02T09:07:58.14Z</time></trkpt><trkpt lat="47.79161" lon="-1.8321783"><ele>15.333333333333332</ele><time>2026-05-02T09:07:59.14Z</time></trkpt><trkpt lat="47.7914467" lon="-1.8322217"><ele>15.0</ele><time>2026-05-02T09:08:00.139Z</time></trkpt><trkpt lat="47.7912917" lon="-1.8322583"><ele>15.0</ele><time>2026-05-02T09:08:01.142Z</time></trkpt><trkpt lat="47.7911367" lon="-1.8322833"><ele>15.0</ele><time>2026-05-02T09:08:02.141Z</time></trkpt><trkpt lat="47.7909783" lon="-1.8323"><ele>15.0</ele><time>2026-05-02T09:08:03.141Z</time></trkpt><trkpt lat="47.7908117" lon="-1.8322983"><ele>15.0</ele><time>2026-05-02T09:08:04.141Z</time></trkpt><trkpt lat="47.7906383" lon="-1.83229"><ele>15.0</ele><time>2026-05-02T09:08:05.141Z</time></trkpt><trkpt lat="47.79046" lon="-1.8322717"><ele>15.0</ele><time>2026-05-02T09:08:06.141Z</time></trkpt><trkpt lat="47.790275" lon="-1.8322483"><ele>13.666666666666666</ele><time>2026-05-02T09:08:07.141Z</time></trkpt><trkpt lat="47.7900833" lon="-1.8322233"><ele>12.333333333333332</ele><time>2026-05-02T09:08:08.141Z</time></trkpt><trkpt lat="47.7898933" lon="-1.8321883"><ele>11.0</ele><time>2026-05-02T09:08:09.141Z</time></trkpt><trkpt lat="47.7897017" lon="-1.83216"><ele>11.0</ele><time>2026-05-02T09:08:10.139Z</time></trkpt><trkpt lat="47.789515" lon="-1.8321317"><ele>11.0</ele><time>2026-05-02T09:08:11.142Z</time></trkpt><trkpt lat="47.7893317" lon="-1.8321083"><ele>11.0</ele><time>2026-05-02T09:08:12.14Z</time></trkpt><trkpt lat="47.7891483" lon="-1.832085"><ele>9.333333333333332</ele><time>2026-05-02T09:08:13.14Z</time></trkpt><trkpt lat="47.7889667" lon="-1.8320733"><ele>7.666666666666666</ele><time>2026-05-02T09:08:14.141Z</time></trkpt><trkpt lat="47.7887817" lon="-1.8320767"><ele>6.0</ele><time>2026-05-02T09:08:15.14Z</time></trkpt><trkpt lat="47.788595" lon="-1.8320983"><ele>6.0</ele><time>2026-05-02T09:08:16.142Z</time></trkpt><trkpt lat="47.7884117" lon="-1.8321267"><ele>6.0</ele><time>2026-05-02T09:08:17.14Z</time></trkpt><trkpt lat="47.7882233" lon="-1.8321633"><ele>6.0</ele><time>2026-05-02T09:08:18.14Z</time></trkpt><trkpt lat="47.7880383" lon="-1.8321967"><ele>6.0</ele><time>2026-05-02T09:08:19.141Z</time></trkpt><trkpt lat="47.7878533" lon="-1.832235"><ele>6.0</ele><time>2026-05-02T09:08:20.14Z</time></trkpt><trkpt lat="47.7876667" lon="-1.8322717"><ele>6.0</ele><time>2026-05-02T09:08:21.14Z</time></trkpt><trkpt lat="47.7874833" lon="-1.8323083"><ele>6.666666666666666</ele><time>2026-05-02T09:08:22.139Z</time></trkpt><trkpt lat="47.7873" lon="-1.83234"><ele>7.333333333333333</ele><time>2026-05-02T09:08:23.139Z</time></trkpt><trkpt lat="47.787115" lon="-1.832365"><ele>8.0</ele><time>2026-05-02T09:08:24.141Z</time></trkpt><trkpt lat="47.786925" lon="-1.8323833"><ele>8.333333333333332</ele><time>2026-05-02T09:08:25.14Z</time></trkpt><trkpt lat="47.786735" lon="-1.8323883"><ele>8.666666666666666</ele><time>2026-05-02T09:08:26.141Z</time></trkpt><trkpt lat="47.786545" lon="-1.8323833"><ele>9.0</ele><time>2026-05-02T09:08:27.14Z</time></trkpt><trkpt lat="47.7863583" lon="-1.8323633"><ele>9.0</ele><time>2026-05-02T09:08:28.142Z</time></trkpt><trkpt lat="47.7861667" lon="-1.832335"><ele>9.0</ele><time>2026-05-02T09:08:29.139Z</time></trkpt><trkpt lat="47.7859783" lon="-1.8323117"><ele>9.0</ele><time>2026-05-02T09:08:30.141Z</time></trkpt><trkpt lat="47.78579" lon="-1.8322883"><ele>10.0</ele><time>2026-05-02T09:08:31.141Z</time></trkpt><trkpt lat="47.7856033" lon="-1.8322683"><ele>11.0</ele><time>2026-05-02T09:08:32.139Z</time></trkpt><trkpt lat="47.785415" lon="-1.83225"><ele>12.0</ele><time>2026-05-02T09:08:33.144Z</time></trkpt><trkpt lat="47.7852267" lon="-1.8322333"><ele>12.333333333333332</ele><time>2026-05-02T09:08:34.142Z</time></trkpt><trkpt lat="47.7850367" lon="-1.832215"><ele>12.666666666666666</ele><time>2026-05-02T09:08:35.139Z</time></trkpt><trkpt lat="47.7848483" lon="-1.8321867"><ele>13.0</ele><time>2026-05-02T09:08:36.14Z</time></trkpt><trkpt lat="47.7846617" lon="-1.8321517"><ele>13.0</ele><time>2026-05-02T09:08:37.141Z</time></trkpt><trkpt lat="47.784475" lon="-1.8321083"><ele>13.0</ele><time>2026-05-02T09:08:38.14Z</time></trkpt><trkpt lat="47.7842883" lon="-1.8320483"><ele>13.0</ele><time>2026-05-02T09:08:39.14Z</time></trkpt><trkpt lat="47.7841" lon="-1.831975"><ele>12.666666666666666</ele><time>2026-05-02T09:08:40.139Z</time></trkpt><trkpt lat="47.7839117" lon="-1.8318933"><ele>12.333333333333332</ele><time>2026-05-02T09:08:41.141Z</time></trkpt><trkpt lat="47.7837267" lon="-1.8318083"><ele>12.0</ele><time>2026-05-02T09:08:42.139Z</time></trkpt><trkpt lat="47.7835417" lon="-1.8317233"><ele>12.666666666666668</ele><time>2026-05-02T09:08:43.139Z</time></trkpt><trkpt lat="47.7833567" lon="-1.83164"><ele>13.333333333333334</ele><time>2026-05-02T09:08:44.138Z</time></trkpt><trkpt lat="47.7831733" lon="-1.83156"><ele>14.0</ele><time>2026-05-02T09:08:45.139Z</time></trkpt><trkpt lat="47.782995" lon="-1.8314783"><ele>14.0</ele><time>2026-05-02T09:08:46.139Z</time></trkpt><trkpt lat="47.782825" lon="-1.831405"><ele>14.0</ele><time>2026-05-02T09:08:47.139Z</time></trkpt><trkpt lat="47.7826583" lon="-1.831335"><ele>14.0</ele><time>2026-05-02T09:08:48.14Z</time></trkpt><trkpt lat="47.7824933" lon="-1.8312667"><ele>15.0</ele><time>2026-05-02T09:08:49.14Z</time></trkpt><trkpt lat="47.7823417" lon="-1.8312067"><ele>16.0</ele><time>2026-05-02T09:08:50.138Z</time></trkpt><trkpt lat="47.782185" lon="-1.83114"><ele>17.0</ele><time>2026-05-02T09:08:51.139Z</time></trkpt><trkpt lat="47.7820283" lon="-1.83107"><ele>17.0</ele><time>2026-05-02T09:08:52.14Z</time></trkpt><trkpt lat="47.7818667" lon="-1.8309967"><ele>17.0</ele><time>2026-05-02T09:08:53.145Z</time></trkpt><trkpt lat="47.781705" lon="-1.8309233"><ele>17.0</ele><time>2026-05-02T09:08:54.139Z</time></trkpt><trkpt lat="47.7815533" lon="-1.8308417"><ele>16.666666666666668</ele><time>2026-05-02T09:08:55.142Z</time></trkpt><trkpt lat="47.7814083" lon="-1.83074"><ele>16.333333333333332</ele><time>2026-05-02T09:08:56.139Z</time></trkpt><trkpt lat="47.781275" lon="-1.8306183"><ele>16.0</ele><time>2026-05-02T09:08:57.139Z</time></trkpt><trkpt lat="47.7811583" lon="-1.830485"><ele>16.0</ele><time>2026-05-02T09:08:58.139Z</time></trkpt><trkpt lat="47.78105" lon="-1.8303533"><ele>16.0</ele><time>2026-05-02T09:08:59.139Z</time></trkpt><trkpt lat="47.7809517" lon="-1.8302283"><ele>16.0</ele><time>2026-05-02T09:09:00.14Z</time></trkpt><trkpt lat="47.78086" lon="-1.8301133"><ele>16.0</ele><time>2026-05-02T09:09:01.14Z</time></trkpt><trkpt lat="47.780775" lon="-1.8300067"><ele>16.166666666666664</ele><time>2026-05-02T09:09:02.14Z</time></trkpt><trkpt lat="47.780705" lon="-1.8299217"><ele>16.333333333333332</ele><time>2026-05-02T09:09:03.141Z</time></trkpt><trkpt lat="47.7806433" lon="-1.8298567"><ele>16.5</ele><time>2026-05-02T09:09:04.141Z</time></trkpt><trkpt lat="47.7805517" lon="-1.829775"><ele>16.666666666666668</ele><time>2026-05-02T09:09:06.141Z</time></trkpt><trkpt lat="47.7804833" lon="-1.8297533"><ele>16.833333333333336</ele><time>2026-05-02T09:09:09.142Z</time></trkpt><trkpt lat="47.7804017" lon="-1.8298317"><ele>17.0</ele><time>2026-05-02T09:09:33.14Z</time></trkpt><trkpt lat="47.7803517" lon="-1.8299083"><ele>17.0</ele><time>2026-05-02T09:09:34.143Z</time></trkpt><trkpt lat="47.7802917" lon="-1.8300133"><ele>17.0</ele><time>2026-05-02T09:09:35.14Z</time></trkpt><trkpt lat="47.78022" lon="-1.8301317"><ele>17.0</ele><time>2026-05-02T09:09:36.141Z</time></trkpt><trkpt lat="47.7801467" lon="-1.8302583"><ele>17.0</ele><time>2026-05-02T09:09:37.144Z</time></trkpt><trkpt lat="47.780065" lon="-1.8304"><ele>17.0</ele><time>2026-05-02T09:09:38.14Z</time></trkpt><trkpt lat="47.779975" lon="-1.8305533"><ele>18.0</ele><time>2026-05-02T09:09:39.14Z</time></trkpt><trkpt lat="47.77988" lon="-1.8307133"><ele>19.0</ele><time>2026-05-02T09:09:40.14Z</time></trkpt><trkpt lat="47.7797833" lon="-1.83089"><ele>20.0</ele><time>2026-05-02T09:09:41.143Z</time></trkpt><trkpt lat="47.7796917" lon="-1.8310733"><ele>20.0</ele><time>2026-05-02T09:09:42.14Z</time></trkpt><trkpt lat="47.779605" lon="-1.831265"><ele>20.0</ele><time>2026-05-02T09:09:43.14Z</time></trkpt><trkpt lat="47.779525" lon="-1.8314733"><ele>20.0</ele><time>2026-05-02T09:09:44.14Z</time></trkpt><trkpt lat="47.7794533" lon="-1.8316933"><ele>19.666666666666668</ele><time>2026-05-02T09:09:45.14Z</time></trkpt><trkpt lat="47.7793833" lon="-1.8319183"><ele>19.333333333333332</ele><time>2026-05-02T09:09:46.14Z</time></trkpt><trkpt lat="47.7793167" lon="-1.832155"><ele>19.0</ele><time>2026-05-02T09:09:47.139Z</time></trkpt><trkpt lat="47.7792467" lon="-1.83239"><ele>19.333333333333332</ele><time>2026-05-02T09:09:48.139Z</time></trkpt><trkpt lat="47.77918" lon="-1.8326217"><ele>19.666666666666668</ele><time>2026-05-02T09:09:49.14Z</time></trkpt><trkpt lat="47.77911" lon="-1.8328483"><ele>20.0</ele><time>2026-05-02T09:09:50.14Z</time></trkpt><trkpt lat="47.779045" lon="-1.8330817"><ele>20.0</ele><time>2026-05-02T09:09:51.139Z</time></trkpt><trkpt lat="47.7789667" lon="-1.8333017"><ele>20.0</ele><time>2026-05-02T09:09:52.139Z</time></trkpt><trkpt lat="47.7788767" lon="-1.8335017"><ele>20.0</ele><time>2026-05-02T09:09:53.139Z</time></trkpt><trkpt lat="47.778775" lon="-1.8336883"><ele>19.0</ele><time>2026-05-02T09:09:54.139Z</time></trkpt><trkpt lat="47.77866" lon="-1.8338467"><ele>18.0</ele><time>2026-05-02T09:09:55.138Z</time></trkpt><trkpt lat="47.7785383" lon="-1.8339983"><ele>17.0</ele><time>2026-05-02T09:09:56.139Z</time></trkpt><trkpt lat="47.7784217" lon="-1.8341467"><ele>16.75</ele><time>2026-05-02T09:09:57.14Z</time></trkpt><trkpt lat="47.7783183" lon="-1.8342883"><ele>16.5</ele><time>2026-05-02T09:09:58.14Z</time></trkpt><trkpt lat="47.778225" lon="-1.834415"><ele>16.25</ele><time>2026-05-02T09:09:59.139Z</time></trkpt><trkpt lat="47.7781317" lon="-1.834535"><ele>16.0</ele><time>2026-05-02T09:10:00.14Z</time></trkpt><trkpt lat="47.7780367" lon="-1.8346617"><ele>16.0</ele><time>2026-05-02T09:10:01.141Z</time></trkpt><trkpt lat="47.77794" lon="-1.83479"><ele>16.0</ele><time>2026-05-02T09:10:02.142Z</time></trkpt><trkpt lat="47.777845" lon="-1.83492"><ele>16.0</ele><time>2026-05-02T09:10:03.14Z</time></trkpt><trkpt lat="47.7777567" lon="-1.8350367"><ele>16.0</ele><time>2026-05-02T09:10:04.141Z</time></trkpt><trkpt lat="47.7776783" lon="-1.8351433"><ele>15.999999999999998</ele><time>2026-05-02T09:10:05.14Z</time></trkpt><trkpt lat="47.7776067" lon="-1.83524"><ele>16.0</ele><time>2026-05-02T09:10:06.14Z</time></trkpt><trkpt lat="47.777545" lon="-1.8353333"><ele>16.0</ele><time>2026-05-02T09:10:07.139Z</time></trkpt><trkpt lat="47.7774867" lon="-1.8354233"><ele>16.0</ele><time>2026-05-02T09:10:08.14Z</time></trkpt><trkpt lat="47.7774433" lon="-1.8355267"><ele>15.999999999999998</ele><time>2026-05-02T09:10:09.14Z</time></trkpt><trkpt lat="47.7774067" lon="-1.8356333"><ele>16.0</ele><time>2026-05-02T09:10:10.139Z</time></trkpt><trkpt lat="47.77738" lon="-1.8357417"><ele>16.0</ele><time>2026-05-02T09:10:11.139Z</time></trkpt><trkpt lat="47.7773617" lon="-1.835855"><ele>15.999999999999998</ele><time>2026-05-02T09:10:12.138Z</time></trkpt><trkpt lat="47.777345" lon="-1.8359633"><ele>16.0</ele><time>2026-05-02T09:10:13.141Z</time></trkpt><trkpt lat="47.77732" lon="-1.8360633"><ele>16.0</ele><time>2026-05-02T09:10:14.14Z</time></trkpt><trkpt lat="47.777285" lon="-1.83615"><ele>15.999999999999998</ele><time>2026-05-02T09:10:15.14Z</time></trkpt><trkpt lat="47.7772267" lon="-1.8362167"><ele>16.0</ele><time>2026-05-02T09:10:16.139Z</time></trkpt><trkpt lat="47.777155" lon="-1.8362617"><ele>16.0</ele><time>2026-05-02T09:10:17.139Z</time></trkpt><trkpt lat="47.7770633" lon="-1.8362883"><ele>15.200000000000001</ele><time>2026-05-02T09:10:18.139Z</time></trkpt><trkpt lat="47.7769667" lon="-1.83631"><ele>14.400000000000002</ele><time>2026-05-02T09:10:19.139Z</time></trkpt><trkpt lat="47.7768717" lon="-1.8363367"><ele>13.6</ele><time>2026-05-02T09:10:20.139Z</time></trkpt><trkpt lat="47.7767683" lon="-1.8363667"><ele>12.8</ele><time>2026-05-02T09:10:21.139Z</time></trkpt><trkpt lat="47.7766567" lon="-1.8364117"><ele>12.0</ele><time>2026-05-02T09:10:22.139Z</time></trkpt><trkpt lat="47.7765417" lon="-1.8364783"><ele>12.0</ele><time>2026-05-02T09:10:23.139Z</time></trkpt><trkpt lat="47.77642" lon="-1.8365583"><ele>12.0</ele><time>2026-05-02T09:10:24.139Z</time></trkpt><trkpt lat="47.7762933" lon="-1.8366533"><ele>12.0</ele><time>2026-05-02T09:10:25.139Z</time></trkpt><trkpt lat="47.7761683" lon="-1.836755"><ele>12.0</ele><time>2026-05-02T09:10:26.139Z</time></trkpt><trkpt lat="47.7760483" lon="-1.83686"><ele>11.25</ele><time>2026-05-02T09:10:27.139Z</time></trkpt><trkpt lat="47.7759267" lon="-1.8369583"><ele>10.5</ele><time>2026-05-02T09:10:28.142Z</time></trkpt><trkpt lat="47.7758133" lon="-1.837055"><ele>9.75</ele><time>2026-05-02T09:10:29.145Z</time></trkpt><trkpt lat="47.7757067" lon="-1.8371433"><ele>9.0</ele><time>2026-05-02T09:10:30.141Z</time></trkpt><trkpt lat="47.7756" lon="-1.8372367"><ele>9.0</ele><time>2026-05-02T09:10:31.139Z</time></trkpt><trkpt lat="47.775495" lon="-1.837335"><ele>9.0</ele><time>2026-05-02T09:10:32.14Z</time></trkpt><trkpt lat="47.7753967" lon="-1.837435"><ele>9.0</ele><time>2026-05-02T09:10:33.14Z</time></trkpt><trkpt lat="47.7753033" lon="-1.837535"><ele>9.0</ele><time>2026-05-02T09:10:34.139Z</time></trkpt><trkpt lat="47.77522" lon="-1.8376417"><ele>8.4</ele><time>2026-05-02T09:10:35.139Z</time></trkpt><trkpt lat="47.7751417" lon="-1.83776"><ele>7.800000000000001</ele><time>2026-05-02T09:10:36.139Z</time></trkpt><trkpt lat="47.7750783" lon="-1.8378917"><ele>7.199999999999999</ele><time>2026-05-02T09:10:37.14Z</time></trkpt><trkpt lat="47.7750317" lon="-1.83803"><ele>6.6</ele><time>2026-05-02T09:10:38.141Z</time></trkpt><trkpt lat="47.7749917" lon="-1.8381633"><ele>6.0</ele><time>2026-05-02T09:10:39.141Z</time></trkpt><trkpt lat="47.7749667" lon="-1.8383017"><ele>6.0</ele><time>2026-05-02T09:10:40.139Z</time></trkpt><trkpt lat="47.77495" lon="-1.83844"><ele>6.0</ele><time>2026-05-02T09:10:41.139Z</time></trkpt><trkpt lat="47.774935" lon="-1.8385817"><ele>6.0</ele><time>2026-05-02T09:10:42.139Z</time></trkpt><trkpt lat="47.7749183" lon="-1.83872"><ele>6.0</ele><time>2026-05-02T09:10:43.139Z</time></trkpt><trkpt lat="47.7749017" lon="-1.8388633"><ele>6.0</ele><time>2026-05-02T09:10:44.141Z</time></trkpt><trkpt lat="47.7748817" lon="-1.839015"><ele>6.0</ele><time>2026-05-02T09:10:45.142Z</time></trkpt><trkpt lat="47.7748633" lon="-1.839165"><ele>6.0</ele><time>2026-05-02T09:10:46.139Z</time></trkpt><trkpt lat="47.774845" lon="-1.83931"><ele>6.0</ele><time>2026-05-02T09:10:47.138Z</time></trkpt><trkpt lat="47.7748283" lon="-1.8394583"><ele>6.0</ele><time>2026-05-02T09:10:48.139Z</time></trkpt><trkpt lat="47.7748083" lon="-1.8395983"><ele>6.0</ele><time>2026-05-02T09:10:49.14Z</time></trkpt><trkpt lat="47.77479" lon="-1.839735"><ele>6.0</ele><time>2026-05-02T09:10:50.138Z</time></trkpt><trkpt lat="47.7747767" lon="-1.839865"><ele>6.0</ele><time>2026-05-02T09:10:51.144Z</time></trkpt><trkpt lat="47.7747617" lon="-1.8399917"><ele>6.0</ele><time>2026-05-02T09:10:52.141Z</time></trkpt><trkpt lat="47.774745" lon="-1.84012"><ele>6.0</ele><time>2026-05-02T09:10:53.14Z</time></trkpt><trkpt lat="47.7747317" lon="-1.8402567"><ele>6.0</ele><time>2026-05-02T09:10:54.139Z</time></trkpt><trkpt lat="47.7747167" lon="-1.8403917"><ele>6.0</ele><time>2026-05-02T09:10:55.14Z</time></trkpt><trkpt lat="47.7746967" lon="-1.840535"><ele>6.0</ele><time>2026-05-02T09:10:56.14Z</time></trkpt><trkpt lat="47.7746783" lon="-1.8406867"><ele>6.0</ele><time>2026-05-02T09:10:57.141Z</time></trkpt><trkpt lat="47.7746533" lon="-1.8408583"><ele>6.0</ele><time>2026-05-02T09:10:58.139Z</time></trkpt><trkpt lat="47.77462" lon="-1.8410317"><ele>6.0</ele><time>2026-05-02T09:10:59.14Z</time></trkpt><trkpt lat="47.7745867" lon="-1.8412217"><ele>6.0</ele><time>2026-05-02T09:11:00.139Z</time></trkpt><trkpt lat="47.7745533" lon="-1.8414233"><ele>6.0</ele><time>2026-05-02T09:11:01.139Z</time></trkpt><trkpt lat="47.774525" lon="-1.8416317"><ele>6.0</ele><time>2026-05-02T09:11:02.139Z</time></trkpt><trkpt lat="47.7744967" lon="-1.84184"><ele>6.0</ele><time>2026-05-02T09:11:03.139Z</time></trkpt><trkpt lat="47.77447" lon="-1.8420433"><ele>6.5</ele><time>2026-05-02T09:11:04.14Z</time></trkpt><trkpt lat="47.7744467" lon="-1.8422483"><ele>7.0</ele><time>2026-05-02T09:11:05.139Z</time></trkpt><trkpt lat="47.77442" lon="-1.84246"><ele>7.5</ele><time>2026-05-02T09:11:06.138Z</time></trkpt><trkpt lat="47.7743933" lon="-1.8426833"><ele>8.0</ele><time>2026-05-02T09:11:07.138Z</time></trkpt><trkpt lat="47.7743617" lon="-1.84291"><ele>8.0</ele><time>2026-05-02T09:11:08.145Z</time></trkpt><trkpt lat="47.7743283" lon="-1.8431217"><ele>8.0</ele><time>2026-05-02T09:11:09.139Z</time></trkpt><trkpt lat="47.7742983" lon="-1.8433217"><ele>8.0</ele><time>2026-05-02T09:11:10.14Z</time></trkpt><trkpt lat="47.7742683" lon="-1.8435133"><ele>8.0</ele><time>2026-05-02T09:11:11.14Z</time></trkpt><trkpt lat="47.7742317" lon="-1.8436967"><ele>9.75</ele><time>2026-05-02T09:11:12.14Z</time></trkpt><trkpt lat="47.7741883" lon="-1.843865"><ele>11.5</ele><time>2026-05-02T09:11:13.14Z</time></trkpt><trkpt lat="47.7741367" lon="-1.8440217"><ele>13.25</ele><time>2026-05-02T09:11:14.14Z</time></trkpt><trkpt lat="47.77408" lon="-1.84418"><ele>15.0</ele><time>2026-05-02T09:11:15.142Z</time></trkpt><trkpt lat="47.7740167" lon="-1.8443333"><ele>17.25</ele><time>2026-05-02T09:11:16.14Z</time></trkpt><trkpt lat="47.7739433" lon="-1.84448"><ele>19.5</ele><time>2026-05-02T09:11:17.142Z</time></trkpt><trkpt lat="47.7738567" lon="-1.844615"><ele>21.75</ele><time>2026-05-02T09:11:18.14Z</time></trkpt><trkpt lat="47.7737683" lon="-1.8447433"><ele>24.0</ele><time>2026-05-02T09:11:19.14Z</time></trkpt><trkpt lat="47.77367" lon="-1.8448617"><ele>24.0</ele><time>2026-05-02T09:11:20.14Z</time></trkpt><trkpt lat="47.773565" lon="-1.8449733"><ele>24.0</ele><time>2026-05-02T09:11:21.14Z</time></trkpt><trkpt lat="47.7734533" lon="-1.8450683"><ele>24.0</ele><time>2026-05-02T09:11:22.14Z</time></trkpt><trkpt lat="47.77334" lon="-1.845155"><ele>24.0</ele><time>2026-05-02T09:11:23.14Z</time></trkpt><trkpt lat="47.773225" lon="-1.8452233"><ele>24.25</ele><time>2026-05-02T09:11:24.14Z</time></trkpt><trkpt lat="47.7731133" lon="-1.845275"><ele>24.5</ele><time>2026-05-02T09:11:25.139Z</time></trkpt><trkpt lat="47.7729967" lon="-1.8453117"><ele>24.75</ele><time>2026-05-02T09:11:26.139Z</time></trkpt><trkpt lat="47.7728733" lon="-1.8453383"><ele>25.0</ele><time>2026-05-02T09:11:27.14Z</time></trkpt><trkpt lat="47.7727417" lon="-1.84536"><ele>24.75</ele><time>2026-05-02T09:11:28.139Z</time></trkpt><trkpt lat="47.772605" lon="-1.8453717"><ele>24.5</ele><time>2026-05-02T09:11:29.139Z</time></trkpt><trkpt lat="47.77247" lon="-1.8453717"><ele>24.25</ele><time>2026-05-02T09:11:30.139Z</time></trkpt><trkpt lat="47.7723333" lon="-1.8453533"><ele>24.0</ele><time>2026-05-02T09:11:31.14Z</time></trkpt><trkpt lat="47.7721967" lon="-1.8453317"><ele>24.0</ele><time>2026-05-02T09:11:32.139Z</time></trkpt><trkpt lat="47.772065" lon="-1.84531"><ele>24.0</ele><time>2026-05-02T09:11:33.14Z</time></trkpt><trkpt lat="47.7719283" lon="-1.8452833"><ele>24.0</ele><time>2026-05-02T09:11:34.138Z</time></trkpt><trkpt lat="47.77179" lon="-1.845255"><ele>24.0</ele><time>2026-05-02T09:11:35.14Z</time></trkpt><trkpt lat="47.7716617" lon="-1.8452367"><ele>23.0</ele><time>2026-05-02T09:11:36.139Z</time></trkpt><trkpt lat="47.77153" lon="-1.8452283"><ele>22.0</ele><time>2026-05-02T09:11:37.139Z</time></trkpt><trkpt lat="47.7713983" lon="-1.8452267"><ele>21.0</ele><time>2026-05-02T09:11:38.139Z</time></trkpt><trkpt lat="47.771275" lon="-1.8452583"><ele>20.0</ele><time>2026-05-02T09:11:39.139Z</time></trkpt><trkpt lat="47.771145" lon="-1.8453"><ele>19.0</ele><time>2026-05-02T09:11:40.139Z</time></trkpt><trkpt lat="47.7710117" lon="-1.845355"><ele>18.0</ele><time>2026-05-02T09:11:41.139Z</time></trkpt><trkpt lat="47.7708783" lon="-1.8454333"><ele>17.0</ele><time>2026-05-02T09:11:42.14Z</time></trkpt><trkpt lat="47.77075" lon="-1.8455233"><ele>16.0</ele><time>2026-05-02T09:11:43.139Z</time></trkpt><trkpt lat="47.77063" lon="-1.84562"><ele>16.0</ele><time>2026-05-02T09:11:44.141Z</time></trkpt><trkpt lat="47.7705133" lon="-1.84574"><ele>16.0</ele><time>2026-05-02T09:11:45.139Z</time></trkpt><trkpt lat="47.7704067" lon="-1.8458683"><ele>16.0</ele><time>2026-05-02T09:11:46.139Z</time></trkpt><trkpt lat="47.7702967" lon="-1.8460033"><ele>16.0</ele><time>2026-05-02T09:11:47.139Z</time></trkpt><trkpt lat="47.7701883" lon="-1.846135"><ele>16.25</ele><time>2026-05-02T09:11:48.14Z</time></trkpt><trkpt lat="47.7700833" lon="-1.8462583"><ele>16.5</ele><time>2026-05-02T09:11:49.142Z</time></trkpt><trkpt lat="47.7699667" lon="-1.8463867"><ele>16.75</ele><time>2026-05-02T09:11:50.139Z</time></trkpt><trkpt lat="47.76985" lon="-1.8465067"><ele>17.0</ele><time>2026-05-02T09:11:51.139Z</time></trkpt><trkpt lat="47.76973" lon="-1.8466233"><ele>17.0</ele><time>2026-05-02T09:11:52.138Z</time></trkpt><trkpt lat="47.7696117" lon="-1.8467367"><ele>17.0</ele><time>2026-05-02T09:11:53.139Z</time></trkpt><trkpt lat="47.7694883" lon="-1.84684"><ele>17.0</ele><time>2026-05-02T09:11:54.139Z</time></trkpt><trkpt lat="47.7693683" lon="-1.84694"><ele>17.0</ele><time>2026-05-02T09:11:55.14Z</time></trkpt><trkpt lat="47.7692583" lon="-1.8470283"><ele>16.8</ele><time>2026-05-02T09:11:56.14Z</time></trkpt><trkpt lat="47.76916" lon="-1.8471017"><ele>16.6</ele><time>2026-05-02T09:11:57.14Z</time></trkpt><trkpt lat="47.7690717" lon="-1.8471617"><ele>16.400000000000002</ele><time>2026-05-02T09:11:58.139Z</time></trkpt><trkpt lat="47.7689917" lon="-1.8472183"><ele>16.2</ele><time>2026-05-02T09:11:59.141Z</time></trkpt><trkpt lat="47.768915" lon="-1.84729"><ele>16.0</ele><time>2026-05-02T09:12:00.138Z</time></trkpt><trkpt lat="47.7688467" lon="-1.84737"><ele>16.0</ele><time>2026-05-02T09:12:01.141Z</time></trkpt><trkpt lat="47.7687867" lon="-1.8474717"><ele>16.0</ele><time>2026-05-02T09:12:02.139Z</time></trkpt><trkpt lat="47.7687383" lon="-1.8475983"><ele>16.0</ele><time>2026-05-02T09:12:03.142Z</time></trkpt><trkpt lat="47.7687033" lon="-1.8477317"><ele>16.0</ele><time>2026-05-02T09:12:04.139Z</time></trkpt><trkpt lat="47.768695" lon="-1.8478867"><ele>16.0</ele><time>2026-05-02T09:12:05.139Z</time></trkpt><trkpt lat="47.7686983" lon="-1.84805"><ele>18.0</ele><time>2026-05-02T09:12:06.139Z</time></trkpt><trkpt lat="47.7687117" lon="-1.8482267"><ele>20.0</ele><time>2026-05-02T09:12:07.14Z</time></trkpt><trkpt lat="47.7687417" lon="-1.8484033"><ele>22.0</ele><time>2026-05-02T09:12:08.14Z</time></trkpt><trkpt lat="47.768775" lon="-1.848585"><ele>24.0</ele><time>2026-05-02T09:12:09.14Z</time></trkpt><trkpt lat="47.7688033" lon="-1.8487833"><ele>24.75</ele><time>2026-05-02T09:12:10.14Z</time></trkpt><trkpt lat="47.7688333" lon="-1.8489883"><ele>25.5</ele><time>2026-05-02T09:12:11.14Z</time></trkpt><trkpt lat="47.7688633" lon="-1.8491917"><ele>26.25</ele><time>2026-05-02T09:12:12.14Z</time></trkpt><trkpt lat="47.768885" lon="-1.8494"><ele>27.0</ele><time>2026-05-02T09:12:13.141Z</time></trkpt><trkpt lat="47.768905" lon="-1.8496133"><ele>27.333333333333336</ele><time>2026-05-02T09:12:14.141Z</time></trkpt><trkpt lat="47.7689383" lon="-1.8498283"><ele>27.666666666666668</ele><time>2026-05-02T09:12:15.14Z</time></trkpt><trkpt lat="47.7689583" lon="-1.8500583"><ele>28.0</ele><time>2026-05-02T09:12:16.141Z</time></trkpt><trkpt lat="47.7689733" lon="-1.8502867"><ele>28.75</ele><time>2026-05-02T09:12:17.14Z</time></trkpt><trkpt lat="47.768985" lon="-1.8505083"><ele>29.5</ele><time>2026-05-02T09:12:18.141Z</time></trkpt><trkpt lat="47.768995" lon="-1.8507217"><ele>30.25</ele><time>2026-05-02T09:12:19.14Z</time></trkpt><trkpt lat="47.7690033" lon="-1.85093"><ele>31.0</ele><time>2026-05-02T09:12:20.14Z</time></trkpt><trkpt lat="47.7689967" lon="-1.85113"><ele>33.0</ele><time>2026-05-02T09:12:21.14Z</time></trkpt><trkpt lat="47.7689867" lon="-1.8513383"><ele>35.0</ele><time>2026-05-02T09:12:22.14Z</time></trkpt><trkpt lat="47.76897" lon="-1.8515417"><ele>37.0</ele><time>2026-05-02T09:12:23.14Z</time></trkpt><trkpt lat="47.7689483" lon="-1.851745"><ele>39.0</ele><time>2026-05-02T09:12:24.141Z</time></trkpt><trkpt lat="47.7689267" lon="-1.8519467"><ele>40.75</ele><time>2026-05-02T09:12:25.14Z</time></trkpt><trkpt lat="47.7688917" lon="-1.8521533"><ele>42.5</ele><time>2026-05-02T09:12:26.142Z</time></trkpt><trkpt lat="47.76885" lon="-1.85236"><ele>44.25</ele><time>2026-05-02T09:12:27.141Z</time></trkpt><trkpt lat="47.7688017" lon="-1.8525817"><ele>46.0</ele><time>2026-05-02T09:12:28.141Z</time></trkpt><trkpt lat="47.7687317" lon="-1.8528117"><ele>48.0</ele><time>2026-05-02T09:12:29.142Z</time></trkpt><trkpt lat="47.7686717" lon="-1.8530667"><ele>50.0</ele><time>2026-05-02T09:12:30.141Z</time></trkpt><trkpt lat="47.76861" lon="-1.8533317"><ele>52.0</ele><time>2026-05-02T09:12:31.141Z</time></trkpt><trkpt lat="47.76854" lon="-1.8536067"><ele>51.33333333333333</ele><time>2026-05-02T09:12:32.14Z</time></trkpt><trkpt lat="47.7684567" lon="-1.8538883"><ele>50.66666666666667</ele><time>2026-05-02T09:12:33.147Z</time></trkpt><trkpt lat="47.76838" lon="-1.8541917"><ele>50.0</ele><time>2026-05-02T09:12:34.14Z</time></trkpt><trkpt lat="47.7682983" lon="-1.8545117"><ele>49.0</ele><time>2026-05-02T09:12:35.14Z</time></trkpt><trkpt lat="47.7682233" lon="-1.8548433"><ele>48.0</ele><time>2026-05-02T09:12:36.145Z</time></trkpt><trkpt lat="47.768155" lon="-1.8551717"><ele>50.0</ele><time>2026-05-02T09:12:37.14Z</time></trkpt><trkpt lat="47.7680817" lon="-1.8554917"><ele>52.0</ele><time>2026-05-02T09:12:38.141Z</time></trkpt><trkpt lat="47.768015" lon="-1.8558067"><ele>54.0</ele><time>2026-05-02T09:12:39.144Z</time></trkpt><trkpt lat="47.76795" lon="-1.85612"><ele>56.0</ele><time>2026-05-02T09:12:40.14Z</time></trkpt><trkpt lat="47.7678833" lon="-1.8564217"><ele>58.0</ele><time>2026-05-02T09:12:41.14Z</time></trkpt><trkpt lat="47.76782" lon="-1.85672"><ele>60.0</ele><time>2026-05-02T09:12:42.14Z</time></trkpt><trkpt lat="47.7677583" lon="-1.85702"><ele>60.0</ele><time>2026-05-02T09:12:43.14Z</time></trkpt><trkpt lat="47.7677033" lon="-1.857325"><ele>60.0</ele><time>2026-05-02T09:12:44.139Z</time></trkpt><trkpt lat="47.7676583" lon="-1.8576117"><ele>60.0</ele><time>2026-05-02T09:12:45.14Z</time></trkpt><trkpt lat="47.7676217" lon="-1.8579083"><ele>60.0</ele><time>2026-05-02T09:12:46.14Z</time></trkpt><trkpt lat="47.7676017" lon="-1.8582083"><ele>60.0</ele><time>2026-05-02T09:12:47.139Z</time></trkpt><trkpt lat="47.767595" lon="-1.8585067"><ele>60.0</ele><time>2026-05-02T09:12:48.144Z</time></trkpt><trkpt lat="47.7675767" lon="-1.858805"><ele>61.0</ele><time>2026-05-02T09:12:49.14Z</time></trkpt><trkpt lat="47.7675483" lon="-1.859095"><ele>62.0</ele><time>2026-05-02T09:12:50.139Z</time></trkpt><trkpt lat="47.767505" lon="-1.8593717"><ele>63.0</ele><time>2026-05-02T09:12:51.14Z</time></trkpt><trkpt lat="47.7674467" lon="-1.8596433"><ele>63.66666666666667</ele><time>2026-05-02T09:12:52.139Z</time></trkpt><trkpt lat="47.7673633" lon="-1.8599"><ele>64.33333333333334</ele><time>2026-05-02T09:12:53.139Z</time></trkpt><trkpt lat="47.7672567" lon="-1.860145"><ele>65.0</ele><time>2026-05-02T09:12:54.14Z</time></trkpt><trkpt lat="47.7671433" lon="-1.8603967"><ele>67.5</ele><time>2026-05-02T09:12:55.141Z</time></trkpt><trkpt lat="47.767015" lon="-1.8606617"><ele>70.0</ele><time>2026-05-02T09:12:56.14Z</time></trkpt><trkpt lat="47.7668733" lon="-1.8609433"><ele>71.5</ele><time>2026-05-02T09:12:57.14Z</time></trkpt><trkpt lat="47.7667267" lon="-1.86123"><ele>73.0</ele><time>2026-05-02T09:12:58.139Z</time></trkpt><trkpt lat="47.7665833" lon="-1.8615117"><ele>74.66666666666666</ele><time>2026-05-02T09:12:59.139Z</time></trkpt><trkpt lat="47.76645" lon="-1.8617833"><ele>76.33333333333333</ele><time>2026-05-02T09:13:00.14Z</time></trkpt><trkpt lat="47.76632" lon="-1.8620483"><ele>78.0</ele><time>2026-05-02T09:13:01.14Z</time></trkpt><trkpt lat="47.7661933" lon="-1.8623083"><ele>78.0</ele><time>2026-05-02T09:13:02.14Z</time></trkpt><trkpt lat="47.7660717" lon="-1.862555"><ele>78.0</ele><time>2026-05-02T09:13:03.141Z</time></trkpt><trkpt lat="47.76597" lon="-1.8628033"><ele>78.0</ele><time>2026-05-02T09:13:04.14Z</time></trkpt><trkpt lat="47.765885" lon="-1.863055"><ele>78.33333333333333</ele><time>2026-05-02T09:13:05.14Z</time></trkpt><trkpt lat="47.7658283" lon="-1.8633117"><ele>78.66666666666666</ele><time>2026-05-02T09:13:06.14Z</time></trkpt><trkpt lat="47.7657867" lon="-1.8635717"><ele>79.0</ele><time>2026-05-02T09:13:07.139Z</time></trkpt><trkpt lat="47.7657583" lon="-1.8638283"><ele>79.66666666666666</ele><time>2026-05-02T09:13:08.139Z</time></trkpt><trkpt lat="47.765735" lon="-1.8640767"><ele>80.33333333333333</ele><time>2026-05-02T09:13:09.139Z</time></trkpt><trkpt lat="47.7657217" lon="-1.8643117"><ele>81.0</ele><time>2026-05-02T09:13:10.139Z</time></trkpt><trkpt lat="47.7657117" lon="-1.86455"><ele>82.0</ele><time>2026-05-02T09:13:11.14Z</time></trkpt><trkpt lat="47.765705" lon="-1.8647933"><ele>83.0</ele><time>2026-05-02T09:13:12.14Z</time></trkpt><trkpt lat="47.7657" lon="-1.86504"><ele>84.0</ele><time>2026-05-02T09:13:13.14Z</time></trkpt><trkpt lat="47.7656967" lon="-1.8652933"><ele>85.0</ele><time>2026-05-02T09:13:14.141Z</time></trkpt><trkpt lat="47.765705" lon="-1.8655383"><ele>86.0</ele><time>2026-05-02T09:13:15.14Z</time></trkpt><trkpt lat="47.7657167" lon="-1.8657783"><ele>87.0</ele><time>2026-05-02T09:13:16.14Z</time></trkpt><trkpt lat="47.765725" lon="-1.8659917"><ele>88.0</ele><time>2026-05-02T09:13:17.139Z</time></trkpt><trkpt lat="47.7657333" lon="-1.866185"><ele>89.0</ele><time>2026-05-02T09:13:18.14Z</time></trkpt><trkpt lat="47.7657433" lon="-1.86636"><ele>90.0</ele><time>2026-05-02T09:13:19.14Z</time></trkpt><trkpt lat="47.7657533" lon="-1.8665183"><ele>91.0</ele><time>2026-05-02T09:13:20.14Z</time></trkpt><trkpt lat="47.7657667" lon="-1.8666667"><ele>91.8</ele><time>2026-05-02T09:13:21.14Z</time></trkpt><trkpt lat="47.765775" lon="-1.8667983"><ele>92.6</ele><time>2026-05-02T09:13:22.14Z</time></trkpt><trkpt lat="47.7657817" lon="-1.866905"><ele>93.4</ele><time>2026-05-02T09:13:23.14Z</time></trkpt><trkpt lat="47.7657617" lon="-1.8670383"><ele>94.2</ele><time>2026-05-02T09:13:25.14Z</time></trkpt><trkpt lat="47.7656867" lon="-1.8670183"><ele>95.0</ele><time>2026-05-02T09:13:27.144Z</time></trkpt><trkpt lat="47.7655767" lon="-1.866895"><ele>95.0</ele><time>2026-05-02T09:13:29.14Z</time></trkpt><trkpt lat="47.7655083" lon="-1.8668183"><ele>95.0</ele><time>2026-05-02T09:13:30.142Z</time></trkpt><trkpt lat="47.765425" lon="-1.8667267"><ele>95.0</ele><time>2026-05-02T09:13:31.143Z</time></trkpt><trkpt lat="47.7653233" lon="-1.8666167"><ele>95.0</ele><time>2026-05-02T09:13:32.138Z</time></trkpt><trkpt lat="47.76521" lon="-1.8664833"><ele>94.33333333333334</ele><time>2026-05-02T09:13:33.14Z</time></trkpt><trkpt lat="47.7650867" lon="-1.866345"><ele>93.66666666666667</ele><time>2026-05-02T09:13:34.139Z</time></trkpt><trkpt lat="47.7649567" lon="-1.8662033"><ele>93.0</ele><time>2026-05-02T09:13:35.14Z</time></trkpt><trkpt lat="47.7648333" lon="-1.8660717"><ele>93.0</ele><time>2026-05-02T09:13:36.14Z</time></trkpt><trkpt lat="47.7647233" lon="-1.8659567"><ele>93.0</ele><time>2026-05-02T09:13:37.14Z</time></trkpt><trkpt lat="47.7646217" lon="-1.8658467"><ele>93.0</ele><time>2026-05-02T09:13:38.139Z</time></trkpt><trkpt lat="47.7645233" lon="-1.8657367"><ele>93.0</ele><time>2026-05-02T09:13:39.14Z</time></trkpt><trkpt lat="47.7644233" lon="-1.8656217"><ele>93.0</ele><time>2026-05-02T09:13:40.14Z</time></trkpt><trkpt lat="47.7643183" lon="-1.86551"><ele>93.0</ele><time>2026-05-02T09:13:41.14Z</time></trkpt><trkpt lat="47.7642117" lon="-1.8653967"><ele>93.0</ele><time>2026-05-02T09:13:42.14Z</time></trkpt><trkpt lat="47.7641" lon="-1.8652767"><ele>93.0</ele><time>2026-05-02T09:13:43.139Z</time></trkpt><trkpt lat="47.7639817" lon="-1.86515"><ele>92.66666666666667</ele><time>2026-05-02T09:13:44.144Z</time></trkpt><trkpt lat="47.763855" lon="-1.8650117"><ele>92.33333333333334</ele><time>2026-05-02T09:13:45.141Z</time></trkpt><trkpt lat="47.763725" lon="-1.8648717"><ele>92.0</ele><time>2026-05-02T09:13:46.139Z</time></trkpt><trkpt lat="47.7635917" lon="-1.86473"><ele>91.66666666666667</ele><time>2026-05-02T09:13:47.139Z</time></trkpt><trkpt lat="47.76346" lon="-1.8645933"><ele>91.33333333333333</ele><time>2026-05-02T09:13:48.142Z</time></trkpt><trkpt lat="47.7633283" lon="-1.86448"><ele>91.0</ele><time>2026-05-02T09:13:49.141Z</time></trkpt><trkpt lat="47.7631917" lon="-1.8643967"><ele>91.0</ele><time>2026-05-02T09:13:50.139Z</time></trkpt><trkpt lat="47.7630517" lon="-1.86434"><ele>91.0</ele><time>2026-05-02T09:13:51.147Z</time></trkpt><trkpt lat="47.7629017" lon="-1.8642917"><ele>91.0</ele><time>2026-05-02T09:13:52.139Z</time></trkpt><trkpt lat="47.7627483" lon="-1.8642467"><ele>91.0</ele><time>2026-05-02T09:13:53.139Z</time></trkpt><trkpt lat="47.7625933" lon="-1.864205"><ele>91.0</ele><time>2026-05-02T09:13:54.139Z</time></trkpt><trkpt lat="47.7624317" lon="-1.8641683"><ele>91.0</ele><time>2026-05-02T09:13:55.14Z</time></trkpt><trkpt lat="47.7622667" lon="-1.8641133"><ele>91.0</ele><time>2026-05-02T09:13:56.139Z</time></trkpt><trkpt lat="47.7621067" lon="-1.8640567"><ele>91.0</ele><time>2026-05-02T09:13:57.139Z</time></trkpt><trkpt lat="47.7619567" lon="-1.8640133"><ele>91.0</ele><time>2026-05-02T09:13:58.14Z</time></trkpt><trkpt lat="47.7618233" lon="-1.8639817"><ele>90.8</ele><time>2026-05-02T09:13:59.141Z</time></trkpt><trkpt lat="47.761705" lon="-1.8639617"><ele>90.6</ele><time>2026-05-02T09:14:00.143Z</time></trkpt><trkpt lat="47.7616083" lon="-1.863945"><ele>90.4</ele><time>2026-05-02T09:14:01.14Z</time></trkpt><trkpt lat="47.7615283" lon="-1.86393"><ele>90.2</ele><time>2026-05-02T09:14:02.139Z</time></trkpt><trkpt lat="47.7614517" lon="-1.8639467"><ele>90.0</ele><time>2026-05-02T09:14:04.139Z</time></trkpt><trkpt lat="47.7614067" lon="-1.864045"><ele>90.0</ele><time>2026-05-02T09:14:07.142Z</time></trkpt><trkpt lat="47.7613883" lon="-1.86419"><ele>90.0</ele><time>2026-05-02T09:14:09.141Z</time></trkpt><trkpt lat="47.761355" lon="-1.8643783"><ele>90.0</ele><time>2026-05-02T09:14:11.14Z</time></trkpt><trkpt lat="47.761335" lon="-1.8644867"><ele>90.0</ele><time>2026-05-02T09:14:12.143Z</time></trkpt><trkpt lat="47.7613167" lon="-1.8646033"><ele>90.0</ele><time>2026-05-02T09:14:13.14Z</time></trkpt><trkpt lat="47.761295" lon="-1.8647267"><ele>90.4</ele><time>2026-05-02T09:14:14.14Z</time></trkpt><trkpt lat="47.7612733" lon="-1.864865"><ele>90.8</ele><time>2026-05-02T09:14:15.14Z</time></trkpt><trkpt lat="47.7612517" lon="-1.865005"><ele>91.19999999999999</ele><time>2026-05-02T09:14:16.139Z</time></trkpt><trkpt lat="47.7612267" lon="-1.865155"><ele>91.6</ele><time>2026-05-02T09:14:17.138Z</time></trkpt><trkpt lat="47.7612" lon="-1.86531"><ele>92.0</ele><time>2026-05-02T09:14:18.141Z</time></trkpt><trkpt lat="47.7611733" lon="-1.8654683"><ele>92.0</ele><time>2026-05-02T09:14:19.139Z</time></trkpt><trkpt lat="47.7611467" lon="-1.865625"><ele>92.0</ele><time>2026-05-02T09:14:20.139Z</time></trkpt><trkpt lat="47.76112" lon="-1.86579"><ele>92.0</ele><time>2026-05-02T09:14:21.14Z</time></trkpt><trkpt lat="47.7610933" lon="-1.8659567"><ele>92.0</ele><time>2026-05-02T09:14:22.139Z</time></trkpt><trkpt lat="47.7610667" lon="-1.8661217"><ele>92.0</ele><time>2026-05-02T09:14:23.139Z</time></trkpt><trkpt lat="47.7610417" lon="-1.8662817"><ele>92.0</ele><time>2026-05-02T09:14:24.14Z</time></trkpt><trkpt lat="47.76102" lon="-1.86643"><ele>92.0</ele><time>2026-05-02T09:14:25.139Z</time></trkpt><trkpt lat="47.7609983" lon="-1.86657"><ele>92.0</ele><time>2026-05-02T09:14:26.141Z</time></trkpt><trkpt lat="47.76098" lon="-1.8667067"><ele>92.0</ele><time>2026-05-02T09:14:27.138Z</time></trkpt><trkpt lat="47.7609617" lon="-1.866835"><ele>92.0</ele><time>2026-05-02T09:14:28.139Z</time></trkpt><trkpt lat="47.7609417" lon="-1.8669617"><ele>92.0</ele><time>2026-05-02T09:14:29.139Z</time></trkpt><trkpt lat="47.7609233" lon="-1.867095"><ele>92.0</ele><time>2026-05-02T09:14:30.139Z</time></trkpt><trkpt lat="47.7609017" lon="-1.8672317"><ele>92.0</ele><time>2026-05-02T09:14:31.139Z</time></trkpt><trkpt lat="47.7608767" lon="-1.8673717"><ele>92.0</ele><time>2026-05-02T09:14:32.139Z</time></trkpt><trkpt lat="47.760855" lon="-1.86751"><ele>92.5</ele><time>2026-05-02T09:14:33.139Z</time></trkpt><trkpt lat="47.760825" lon="-1.8676467"><ele>93.0</ele><time>2026-05-02T09:14:34.14Z</time></trkpt><trkpt lat="47.7607983" lon="-1.8677767"><ele>93.5</ele><time>2026-05-02T09:14:35.141Z</time></trkpt><trkpt lat="47.7607683" lon="-1.867905"><ele>94.0</ele><time>2026-05-02T09:14:36.139Z</time></trkpt><trkpt lat="47.7607517" lon="-1.868015"><ele>94.5</ele><time>2026-05-02T09:14:37.14Z</time></trkpt><trkpt lat="47.7607317" lon="-1.8681283"><ele>95.0</ele><time>2026-05-02T09:14:38.139Z</time></trkpt><trkpt lat="47.7607133" lon="-1.8682267"><ele>95.0</ele><time>2026-05-02T09:14:39.141Z</time></trkpt><trkpt lat="47.76069" lon="-1.8683783"><ele>95.0</ele><time>2026-05-02T09:14:41.139Z</time></trkpt><trkpt lat="47.7606583" lon="-1.8684867"><ele>95.0</ele><time>2026-05-02T09:14:44.138Z</time></trkpt><trkpt lat="47.760595" lon="-1.8685117"><ele>95.0</ele><time>2026-05-02T09:14:47.139Z</time></trkpt><trkpt lat="47.760525" lon="-1.8685133"><ele>95.0</ele><time>2026-05-02T09:14:49.139Z</time></trkpt><trkpt lat="47.76043" lon="-1.868515"><ele>95.0</ele><time>2026-05-02T09:14:51.139Z</time></trkpt><trkpt lat="47.7603233" lon="-1.8685133"><ele>95.4</ele><time>2026-05-02T09:14:53.138Z</time></trkpt><trkpt lat="47.7602217" lon="-1.8685217"><ele>95.8</ele><time>2026-05-02T09:14:55.14Z</time></trkpt><trkpt lat="47.7601367" lon="-1.8685383"><ele>96.19999999999999</ele><time>2026-05-02T09:14:57.14Z</time></trkpt><trkpt lat="47.7600417" lon="-1.868535"><ele>96.6</ele><time>2026-05-02T09:14:59.139Z</time></trkpt><trkpt lat="47.7599417" lon="-1.8685317"><ele>97.0</ele><time>2026-05-02T09:15:01.14Z</time></trkpt><trkpt lat="47.75984" lon="-1.868515"><ele>97.39999999999999</ele><time>2026-05-02T09:15:03.139Z</time></trkpt><trkpt lat="47.759735" lon="-1.8685117"><ele>97.8</ele><time>2026-05-02T09:15:05.139Z</time></trkpt><trkpt lat="47.7596383" lon="-1.8685083"><ele>98.2</ele><time>2026-05-02T09:15:07.139Z</time></trkpt><trkpt lat="47.7595317" lon="-1.8685167"><ele>98.6</ele><time>2026-05-02T09:15:09.139Z</time></trkpt><trkpt lat="47.75943" lon="-1.86851"><ele>99.0</ele><time>2026-05-02T09:15:11.14Z</time></trkpt><trkpt lat="47.7593333" lon="-1.8685067"><ele>99.0</ele><time>2026-05-02T09:15:13.139Z</time></trkpt><trkpt lat="47.7592333" lon="-1.8685017"><ele>99.0</ele><time>2026-05-02T09:15:15.142Z</time></trkpt><trkpt lat="47.75913" lon="-1.868505"><ele>99.0</ele><time>2026-05-02T09:15:17.139Z</time></trkpt><trkpt lat="47.759025" lon="-1.868505"><ele>99.0</ele><time>2026-05-02T09:15:19.14Z</time></trkpt><trkpt lat="47.7589133" lon="-1.8685133"><ele>99.0</ele><time>2026-05-02T09:15:21.14Z</time></trkpt><trkpt lat="47.7588017" lon="-1.8685217"><ele>99.0</ele><time>2026-05-02T09:15:23.139Z</time></trkpt><trkpt lat="47.7586933" lon="-1.86852"><ele>99.0</ele><time>2026-05-02T09:15:25.139Z</time></trkpt><trkpt lat="47.7585767" lon="-1.8685283"><ele>99.0</ele><time>2026-05-02T09:15:27.139Z</time></trkpt><trkpt lat="47.758465" lon="-1.8685467"><ele>99.0</ele><time>2026-05-02T09:15:29.139Z</time></trkpt><trkpt lat="47.758355" lon="-1.8685767"><ele>99.0</ele><time>2026-05-02T09:15:31.139Z</time></trkpt><trkpt lat="47.7582433" lon="-1.8685983"><ele>97.75</ele><time>2026-05-02T09:15:33.14Z</time></trkpt><trkpt lat="47.75812" lon="-1.8686133"><ele>96.5</ele><time>2026-05-02T09:15:35.14Z</time></trkpt><trkpt lat="47.7580017" lon="-1.8686383"><ele>95.25</ele><time>2026-05-02T09:15:37.14Z</time></trkpt><trkpt lat="47.75789" lon="-1.868665"><ele>94.0</ele><time>2026-05-02T09:15:39.143Z</time></trkpt><trkpt lat="47.7577967" lon="-1.8686883"><ele>92.5</ele><time>2026-05-02T09:15:41.138Z</time></trkpt><trkpt lat="47.7576917" lon="-1.8687183"><ele>91.0</ele><time>2026-05-02T09:15:43.143Z</time></trkpt><trkpt lat="47.7575833" lon="-1.8687367"><ele>89.5</ele><time>2026-05-02T09:15:45.139Z</time></trkpt><trkpt lat="47.7574633" lon="-1.8687783"><ele>88.0</ele><time>2026-05-02T09:15:47.144Z</time></trkpt><trkpt lat="47.7573517" lon="-1.8688367"><ele>88.0</ele><time>2026-05-02T09:15:49.143Z</time></trkpt><trkpt lat="47.7572367" lon="-1.868905"><ele>88.0</ele><time>2026-05-02T09:15:51.139Z</time></trkpt><trkpt lat="47.7571783" lon="-1.86894"><ele>88.0</ele><time>2026-05-02T09:15:52.139Z</time></trkpt><trkpt lat="47.7570733" lon="-1.8689867"><ele>88.0</ele><time>2026-05-02T09:15:54.139Z</time></trkpt><trkpt lat="47.7569667" lon="-1.86904"><ele>88.0</ele><time>2026-05-02T09:15:56.14Z</time></trkpt><trkpt lat="47.756855" lon="-1.8690933"><ele>86.60000000000001</ele><time>2026-05-02T09:15:58.139Z</time></trkpt><trkpt lat="47.756745" lon="-1.86915"><ele>85.2</ele><time>2026-05-02T09:16:00.139Z</time></trkpt><trkpt lat="47.7566417" lon="-1.869205"><ele>83.8</ele><time>2026-05-02T09:16:02.139Z</time></trkpt><trkpt lat="47.7565367" lon="-1.8692583"><ele>82.4</ele><time>2026-05-02T09:16:04.139Z</time></trkpt><trkpt lat="47.7564333" lon="-1.8693183"><ele>81.0</ele><time>2026-05-02T09:16:06.139Z</time></trkpt><trkpt lat="47.7563417" lon="-1.86936"><ele>80.33333333333333</ele><time>2026-05-02T09:16:08.139Z</time></trkpt><trkpt lat="47.7562483" lon="-1.8693933"><ele>79.66666666666667</ele><time>2026-05-02T09:16:10.139Z</time></trkpt><trkpt lat="47.7561633" lon="-1.86943"><ele>79.0</ele><time>2026-05-02T09:16:12.139Z</time></trkpt><trkpt lat="47.7560733" lon="-1.8694667"><ele>78.33333333333334</ele><time>2026-05-02T09:16:14.139Z</time></trkpt><trkpt lat="47.7560033" lon="-1.8695"><ele>77.66666666666667</ele><time>2026-05-02T09:16:16.139Z</time></trkpt><trkpt lat="47.7559367" lon="-1.8695367"><ele>77.0</ele><time>2026-05-02T09:16:18.14Z</time></trkpt><trkpt lat="47.7558733" lon="-1.869575"><ele>75.28571428571429</ele><time>2026-05-02T09:16:21.139Z</time></trkpt><trkpt lat="47.7558" lon="-1.8696167"><ele>73.57142857142857</ele><time>2026-05-02T09:16:24.139Z</time></trkpt><trkpt lat="47.7557367" lon="-1.86966"><ele>71.85714285714286</ele><time>2026-05-02T09:16:26.14Z</time></trkpt><trkpt lat="47.7556717" lon="-1.8697033"><ele>70.14285714285714</ele><time>2026-05-02T09:16:28.139Z</time></trkpt><trkpt lat="47.7556133" lon="-1.86974"><ele>68.42857142857143</ele><time>2026-05-02T09:16:30.14Z</time></trkpt><trkpt lat="47.7555567" lon="-1.8697917"><ele>66.71428571428572</ele><time>2026-05-02T09:16:32.142Z</time></trkpt><trkpt lat="47.75549" lon="-1.869875"><ele>65.0</ele><time>2026-05-02T09:16:35.14Z</time></trkpt><trkpt lat="47.7554083" lon="-1.8699617"><ele>65.0</ele><time>2026-05-02T09:16:38.141Z</time></trkpt><trkpt lat="47.7553167" lon="-1.8699967"><ele>65.0</ele><time>2026-05-02T09:16:41.14Z</time></trkpt><trkpt lat="47.7552483" lon="-1.8700117"><ele>65.0</ele><time>2026-05-02T09:16:43.14Z</time></trkpt><trkpt lat="47.7551783" lon="-1.870025"><ele>65.0</ele><time>2026-05-02T09:16:45.145Z</time></trkpt><trkpt lat="47.755105" lon="-1.8700533"><ele>65.0</ele><time>2026-05-02T09:16:47.14Z</time></trkpt><trkpt lat="47.7550317" lon="-1.870055"><ele>65.0</ele><time>2026-05-02T09:16:49.14Z</time></trkpt><trkpt lat="47.75495" lon="-1.870055"><ele>64.5</ele><time>2026-05-02T09:16:51.141Z</time></trkpt><trkpt lat="47.7548733" lon="-1.8700467"><ele>64.0</ele><time>2026-05-02T09:16:53.145Z</time></trkpt><trkpt lat="47.7547817" lon="-1.8700333"><ele>63.5</ele><time>2026-05-02T09:16:55.14Z</time></trkpt><trkpt lat="47.7547033" lon="-1.870015"><ele>63.0</ele><time>2026-05-02T09:16:57.141Z</time></trkpt><trkpt lat="47.7546233" lon="-1.870005"><ele>62.50000000000001</ele><time>2026-05-02T09:16:59.139Z</time></trkpt><trkpt lat="47.7545467" lon="-1.8700033"><ele>62.0</ele><time>2026-05-02T09:17:01.14Z</time></trkpt><trkpt lat="47.75448" lon="-1.8699933"><ele>62.00000000000001</ele><time>2026-05-02T09:17:03.141Z</time></trkpt><trkpt lat="47.7544033" lon="-1.8699733"><ele>62.0</ele><time>2026-05-02T09:17:05.14Z</time></trkpt><trkpt lat="47.754325" lon="-1.8699417"><ele>62.0</ele><time>2026-05-02T09:17:07.14Z</time></trkpt><trkpt lat="47.7542517" lon="-1.8699117"><ele>62.0</ele><time>2026-05-02T09:17:09.14Z</time></trkpt><trkpt lat="47.754185" lon="-1.869905"><ele>62.00000000000001</ele><time>2026-05-02T09:17:11.14Z</time></trkpt><trkpt lat="47.754105" lon="-1.86987"><ele>62.0</ele><time>2026-05-02T09:17:14.141Z</time></trkpt><trkpt lat="47.7540383" lon="-1.8698567"><ele>61.66666666666667</ele><time>2026-05-02T09:17:16.141Z</time></trkpt><trkpt lat="47.7539617" lon="-1.8698233"><ele>61.333333333333336</ele><time>2026-05-02T09:17:18.14Z</time></trkpt><trkpt lat="47.753875" lon="-1.8697833"><ele>61.0</ele><time>2026-05-02T09:17:20.142Z</time></trkpt><trkpt lat="47.7537983" lon="-1.869765"><ele>60.66666666666667</ele><time>2026-05-02T09:17:22.14Z</time></trkpt><trkpt lat="47.753735" lon="-1.8697567"><ele>60.333333333333336</ele><time>2026-05-02T09:17:24.14Z</time></trkpt><trkpt lat="47.753665" lon="-1.8697283"><ele>60.0</ele><time>2026-05-02T09:17:26.141Z</time></trkpt><trkpt lat="47.75357" lon="-1.8696817"><ele>59.333333333333336</ele><time>2026-05-02T09:17:28.14Z</time></trkpt><trkpt lat="47.7534717" lon="-1.86964"><ele>58.66666666666667</ele><time>2026-05-02T09:17:30.139Z</time></trkpt><trkpt lat="47.7533783" lon="-1.8695967"><ele>58.0</ele><time>2026-05-02T09:17:32.139Z</time></trkpt><trkpt lat="47.7533067" lon="-1.8695633"><ele>57.333333333333336</ele><time>2026-05-02T09:17:34.139Z</time></trkpt><trkpt lat="47.7532233" lon="-1.8695433"><ele>56.66666666666667</ele><time>2026-05-02T09:17:36.139Z</time></trkpt><trkpt lat="47.7531533" lon="-1.86954"><ele>56.0</ele><time>2026-05-02T09:17:38.14Z</time></trkpt><trkpt lat="47.7530883" lon="-1.8695383"><ele>56.00000000000001</ele><time>2026-05-02T09:17:40.139Z</time></trkpt><trkpt lat="47.7529983" lon="-1.8695183"><ele>56.0</ele><time>2026-05-02T09:17:42.141Z</time></trkpt><trkpt lat="47.7529133" lon="-1.8695017"><ele>56.0</ele><time>2026-05-02T09:17:44.142Z</time></trkpt><trkpt lat="47.752845" lon="-1.8694917"><ele>56.0</ele><time>2026-05-02T09:17:46.14Z</time></trkpt><trkpt lat="47.7527517" lon="-1.8694767"><ele>56.00000000000001</ele><time>2026-05-02T09:17:48.14Z</time></trkpt><trkpt lat="47.7526733" lon="-1.8694633"><ele>56.0</ele><time>2026-05-02T09:17:50.14Z</time></trkpt><trkpt lat="47.7526017" lon="-1.869445"><ele>54.0</ele><time>2026-05-02T09:17:52.141Z</time></trkpt><trkpt lat="47.7525267" lon="-1.8694317"><ele>51.99999999999999</ele><time>2026-05-02T09:17:54.143Z</time></trkpt><trkpt lat="47.7524433" lon="-1.869405"><ele>50.0</ele><time>2026-05-02T09:17:56.14Z</time></trkpt><trkpt lat="47.7523333" lon="-1.86938"><ele>48.0</ele><time>2026-05-02T09:17:58.142Z</time></trkpt><trkpt lat="47.7522317" lon="-1.86936"><ele>46.0</ele><time>2026-05-02T09:18:00.14Z</time></trkpt><trkpt lat="47.7521317" lon="-1.8693483"><ele>46.0</ele><time>2026-05-02T09:18:02.14Z</time></trkpt><trkpt lat="47.7520283" lon="-1.8693217"><ele>46.0</ele><time>2026-05-02T09:18:04.14Z</time></trkpt><trkpt lat="47.7519383" lon="-1.8692933"><ele>46.0</ele><time>2026-05-02T09:18:06.139Z</time></trkpt><trkpt lat="47.7518683" lon="-1.869275"><ele>46.0</ele><time>2026-05-02T09:18:08.143Z</time></trkpt><trkpt lat="47.7517917" lon="-1.8692467"><ele>46.0</ele><time>2026-05-02T09:18:10.139Z</time></trkpt><trkpt lat="47.7517083" lon="-1.8692183"><ele>46.0</ele><time>2026-05-02T09:18:12.14Z</time></trkpt><trkpt lat="47.7516233" lon="-1.8692167"><ele>50.0</ele><time>2026-05-02T09:18:14.14Z</time></trkpt><trkpt lat="47.7515417" lon="-1.869255"><ele>50.0</ele><time>2026-05-02T09:18:16.139Z</time></trkpt></trkseg><trkseg><trkpt lat="47.75141" lon="-1.8692633"><ele>50.0</ele><time>2026-05-02T09:35:55.141Z</time></trkpt><trkpt lat="47.7513467" lon="-1.8692733"><ele>50.0</ele><time>2026-05-02T09:35:57.143Z</time></trkpt><trkpt lat="47.7512617" lon="-1.8693"><ele>50.0</ele><time>2026-05-02T09:35:59.141Z</time></trkpt><trkpt lat="47.75116" lon="-1.8693383"><ele>50.0</ele><time>2026-05-02T09:36:01.141Z</time></trkpt><trkpt lat="47.75105" lon="-1.8693683"><ele>50.0</ele><time>2026-05-02T09:36:03.141Z</time></trkpt><trkpt lat="47.7509317" lon="-1.8694"><ele>48.66666666666667</ele><time>2026-05-02T09:36:05.139Z</time></trkpt><trkpt lat="47.7508117" lon="-1.8694283"><ele>47.333333333333336</ele><time>2026-05-02T09:36:07.139Z</time></trkpt><trkpt lat="47.7507483" lon="-1.8694417"><ele>46.0</ele><time>2026-05-02T09:36:08.14Z</time></trkpt><trkpt lat="47.7506833" lon="-1.8694483"><ele>44.66666666666667</ele><time>2026-05-02T09:36:09.142Z</time></trkpt><trkpt lat="47.7506183" lon="-1.8694483"><ele>43.333333333333336</ele><time>2026-05-02T09:36:10.142Z</time></trkpt><trkpt lat="47.750555" lon="-1.8694483"><ele>42.0</ele><time>2026-05-02T09:36:11.142Z</time></trkpt><trkpt lat="47.750435" lon="-1.86944"><ele>42.0</ele><time>2026-05-02T09:36:13.14Z</time></trkpt><trkpt lat="47.7503217" lon="-1.86942"><ele>42.0</ele><time>2026-05-02T09:36:15.14Z</time></trkpt><trkpt lat="47.7502083" lon="-1.8694"><ele>42.0</ele><time>2026-05-02T09:36:17.14Z</time></trkpt><trkpt lat="47.75009" lon="-1.86938"><ele>42.0</ele><time>2026-05-02T09:36:19.142Z</time></trkpt><trkpt lat="47.7499667" lon="-1.8693533"><ele>41.5</ele><time>2026-05-02T09:36:21.143Z</time></trkpt><trkpt lat="47.7499017" lon="-1.86934"><ele>41.0</ele><time>2026-05-02T09:36:22.142Z</time></trkpt><trkpt lat="47.749835" lon="-1.869325"><ele>40.5</ele><time>2026-05-02T09:36:23.142Z</time></trkpt><trkpt lat="47.7497717" lon="-1.869315"><ele>40.0</ele><time>2026-05-02T09:36:24.14Z</time></trkpt><trkpt lat="47.7496517" lon="-1.86929"><ele>39.5</ele><time>2026-05-02T09:36:26.14Z</time></trkpt><trkpt lat="47.7495267" lon="-1.8692517"><ele>39.0</ele><time>2026-05-02T09:36:28.142Z</time></trkpt><trkpt lat="47.7494183" lon="-1.8692083"><ele>39.333333333333336</ele><time>2026-05-02T09:36:30.14Z</time></trkpt><trkpt lat="47.7493233" lon="-1.869175"><ele>39.666666666666664</ele><time>2026-05-02T09:36:32.139Z</time></trkpt><trkpt lat="47.74926" lon="-1.869145"><ele>40.0</ele><time>2026-05-02T09:36:34.14Z</time></trkpt><trkpt lat="47.7491833" lon="-1.8691433"><ele>40.33333333333333</ele><time>2026-05-02T09:36:37.14Z</time></trkpt><trkpt lat="47.74912" lon="-1.8691617"><ele>40.666666666666664</ele><time>2026-05-02T09:36:40.139Z</time></trkpt><trkpt lat="47.7490233" lon="-1.8690867"><ele>41.0</ele><time>2026-05-02T09:36:42.139Z</time></trkpt><trkpt lat="47.7489633" lon="-1.8690333"><ele>41.0</ele><time>2026-05-02T09:36:43.14Z</time></trkpt><trkpt lat="47.7489017" lon="-1.8689833"><ele>41.0</ele><time>2026-05-02T09:36:44.139Z</time></trkpt><trkpt lat="47.7488283" lon="-1.8689133"><ele>41.0</ele><time>2026-05-02T09:36:45.139Z</time></trkpt><trkpt lat="47.7487467" lon="-1.8688417"><ele>41.0</ele><time>2026-05-02T09:36:46.139Z</time></trkpt><trkpt lat="47.74866" lon="-1.8687667"><ele>41.0</ele><time>2026-05-02T09:36:47.139Z</time></trkpt><trkpt lat="47.7485683" lon="-1.8686883"><ele>40.75</ele><time>2026-05-02T09:36:48.14Z</time></trkpt><trkpt lat="47.748475" lon="-1.8686033"><ele>40.5</ele><time>2026-05-02T09:36:49.14Z</time></trkpt><trkpt lat="47.7483783" lon="-1.8685067"><ele>40.25</ele><time>2026-05-02T09:36:50.14Z</time></trkpt><trkpt lat="47.748275" lon="-1.8684133"><ele>40.0</ele><time>2026-05-02T09:36:51.141Z</time></trkpt><trkpt lat="47.7481633" lon="-1.8683183"><ele>40.0</ele><time>2026-05-02T09:36:52.14Z</time></trkpt><trkpt lat="47.7480467" lon="-1.8682267"><ele>40.0</ele><time>2026-05-02T09:36:53.139Z</time></trkpt><trkpt lat="47.747925" lon="-1.8681167"><ele>40.0</ele><time>2026-05-02T09:36:54.14Z</time></trkpt><trkpt lat="47.7478033" lon="-1.8680017"><ele>40.0</ele><time>2026-05-02T09:36:55.14Z</time></trkpt><trkpt lat="47.7476733" lon="-1.8678833"><ele>38.66666666666667</ele><time>2026-05-02T09:36:56.14Z</time></trkpt><trkpt lat="47.747545" lon="-1.8677667"><ele>37.333333333333336</ele><time>2026-05-02T09:36:57.14Z</time></trkpt><trkpt lat="47.7474133" lon="-1.867645"><ele>36.0</ele><time>2026-05-02T09:36:58.14Z</time></trkpt><trkpt lat="47.74728" lon="-1.8675033"><ele>36.0</ele><time>2026-05-02T09:36:59.146Z</time></trkpt><trkpt lat="47.7471483" lon="-1.8673433"><ele>36.0</ele><time>2026-05-02T09:37:00.139Z</time></trkpt><trkpt lat="47.7470217" lon="-1.86716"><ele>36.0</ele><time>2026-05-02T09:37:01.139Z</time></trkpt><trkpt lat="47.7469083" lon="-1.8669667"><ele>33.333333333333336</ele><time>2026-05-02T09:37:02.14Z</time></trkpt><trkpt lat="47.7468033" lon="-1.8667683"><ele>30.666666666666668</ele><time>2026-05-02T09:37:03.138Z</time></trkpt><trkpt lat="47.7467033" lon="-1.8665683"><ele>28.0</ele><time>2026-05-02T09:37:04.14Z</time></trkpt><trkpt lat="47.746615" lon="-1.8663633"><ele>28.0</ele><time>2026-05-02T09:37:05.139Z</time></trkpt><trkpt lat="47.74653" lon="-1.866165"><ele>28.0</ele><time>2026-05-02T09:37:06.139Z</time></trkpt><trkpt lat="47.7464583" lon="-1.8659717"><ele>28.0</ele><time>2026-05-02T09:37:07.139Z</time></trkpt><trkpt lat="47.7463883" lon="-1.8657817"><ele>28.0</ele><time>2026-05-02T09:37:08.14Z</time></trkpt><trkpt lat="47.746325" lon="-1.8655883"><ele>28.0</ele><time>2026-05-02T09:37:09.14Z</time></trkpt><trkpt lat="47.7462583" lon="-1.865385"><ele>28.0</ele><time>2026-05-02T09:37:10.139Z</time></trkpt><trkpt lat="47.7461883" lon="-1.8651633"><ele>28.0</ele><time>2026-05-02T09:37:11.139Z</time></trkpt><trkpt lat="47.7461133" lon="-1.8649267"><ele>28.0</ele><time>2026-05-02T09:37:12.139Z</time></trkpt><trkpt lat="47.74603" lon="-1.86468"><ele>28.0</ele><time>2026-05-02T09:37:13.14Z</time></trkpt><trkpt lat="47.74594" lon="-1.8644267"><ele>26.666666666666668</ele><time>2026-05-02T09:37:14.139Z</time></trkpt><trkpt lat="47.7458467" lon="-1.86417"><ele>25.333333333333336</ele><time>2026-05-02T09:37:15.14Z</time></trkpt><trkpt lat="47.745755" lon="-1.8639067"><ele>24.0</ele><time>2026-05-02T09:37:16.138Z</time></trkpt><trkpt lat="47.74566" lon="-1.8636383"><ele>23.666666666666668</ele><time>2026-05-02T09:37:17.139Z</time></trkpt><trkpt lat="47.7455617" lon="-1.863365"><ele>23.333333333333336</ele><time>2026-05-02T09:37:18.14Z</time></trkpt><trkpt lat="47.7454633" lon="-1.8630867"><ele>23.0</ele><time>2026-05-02T09:37:19.14Z</time></trkpt><trkpt lat="47.7453633" lon="-1.862805"><ele>23.0</ele><time>2026-05-02T09:37:20.141Z</time></trkpt><trkpt lat="47.7452683" lon="-1.8625217"><ele>23.0</ele><time>2026-05-02T09:37:21.14Z</time></trkpt><trkpt lat="47.7451683" lon="-1.8622383"><ele>23.0</ele><time>2026-05-02T09:37:22.14Z</time></trkpt><trkpt lat="47.7450733" lon="-1.8619567"><ele>22.666666666666668</ele><time>2026-05-02T09:37:23.14Z</time></trkpt><trkpt lat="47.7449733" lon="-1.8616717"><ele>22.333333333333332</ele><time>2026-05-02T09:37:24.139Z</time></trkpt><trkpt lat="47.7448717" lon="-1.8613917"><ele>22.0</ele><time>2026-05-02T09:37:25.139Z</time></trkpt><trkpt lat="47.7447767" lon="-1.8611083"><ele>22.0</ele><time>2026-05-02T09:37:26.14Z</time></trkpt><trkpt lat="47.7446767" lon="-1.860825"><ele>22.0</ele><time>2026-05-02T09:37:27.141Z</time></trkpt><trkpt lat="47.7445817" lon="-1.8605433"><ele>22.0</ele><time>2026-05-02T09:37:28.139Z</time></trkpt><trkpt lat="47.7444817" lon="-1.8602683"><ele>21.333333333333332</ele><time>2026-05-02T09:37:29.139Z</time></trkpt><trkpt lat="47.744385" lon="-1.859995"><ele>20.666666666666668</ele><time>2026-05-02T09:37:30.139Z</time></trkpt><trkpt lat="47.7442833" lon="-1.8597217"><ele>20.0</ele><time>2026-05-02T09:37:31.139Z</time></trkpt><trkpt lat="47.7441883" lon="-1.8594533"><ele>19.666666666666668</ele><time>2026-05-02T09:37:32.14Z</time></trkpt><trkpt lat="47.74409" lon="-1.8591883"><ele>19.333333333333332</ele><time>2026-05-02T09:37:33.14Z</time></trkpt><trkpt lat="47.7439967" lon="-1.858925"><ele>19.0</ele><time>2026-05-02T09:37:34.139Z</time></trkpt><trkpt lat="47.7439017" lon="-1.8586567"><ele>20.0</ele><time>2026-05-02T09:37:35.139Z</time></trkpt><trkpt lat="47.7438083" lon="-1.8583867"><ele>21.0</ele><time>2026-05-02T09:37:36.141Z</time></trkpt><trkpt lat="47.743715" lon="-1.858115"><ele>22.0</ele><time>2026-05-02T09:37:37.139Z</time></trkpt><trkpt lat="47.7436217" lon="-1.857845"><ele>21.0</ele><time>2026-05-02T09:37:38.139Z</time></trkpt><trkpt lat="47.7435283" lon="-1.8575767"><ele>20.0</ele><time>2026-05-02T09:37:39.142Z</time></trkpt><trkpt lat="47.7434383" lon="-1.85731"><ele>19.0</ele><time>2026-05-02T09:37:40.139Z</time></trkpt><trkpt lat="47.743345" lon="-1.857045"><ele>19.0</ele><time>2026-05-02T09:37:41.139Z</time></trkpt><trkpt lat="47.7432533" lon="-1.8567933"><ele>19.0</ele><time>2026-05-02T09:37:42.139Z</time></trkpt><trkpt lat="47.743175" lon="-1.8565417"><ele>19.0</ele><time>2026-05-02T09:37:43.139Z</time></trkpt><trkpt lat="47.7431" lon="-1.8563"><ele>19.666666666666664</ele><time>2026-05-02T09:37:44.139Z</time></trkpt><trkpt lat="47.7430233" lon="-1.8560717"><ele>20.333333333333332</ele><time>2026-05-02T09:37:45.14Z</time></trkpt><trkpt lat="47.7429483" lon="-1.8558617"><ele>21.0</ele><time>2026-05-02T09:37:46.14Z</time></trkpt><trkpt lat="47.7428783" lon="-1.8556683"><ele>21.200000000000003</ele><time>2026-05-02T09:37:47.139Z</time></trkpt><trkpt lat="47.74281" lon="-1.8554933"><ele>21.400000000000002</ele><time>2026-05-02T09:37:48.139Z</time></trkpt><trkpt lat="47.74275" lon="-1.85535"><ele>21.6</ele><time>2026-05-02T09:37:49.139Z</time></trkpt><trkpt lat="47.7427067" lon="-1.8552383"><ele>21.8</ele><time>2026-05-02T09:37:50.139Z</time></trkpt><trkpt lat="47.7426683" lon="-1.8551567"><ele>22.0</ele><time>2026-05-02T09:37:51.14Z</time></trkpt><trkpt lat="47.7426" lon="-1.8550933"><ele>20.333333333333332</ele><time>2026-05-02T09:37:54.143Z</time></trkpt><trkpt lat="47.7425183" lon="-1.8551483"><ele>18.666666666666668</ele><time>2026-05-02T09:38:17.139Z</time></trkpt><trkpt lat="47.74229" lon="-1.855205"><ele>17.0</ele><time>2026-05-02T09:38:21.14Z</time></trkpt><trkpt lat="47.74205" lon="-1.8551933"><ele>16.333333333333336</ele><time>2026-05-02T09:38:24.139Z</time></trkpt><trkpt lat="47.741865" lon="-1.8551683"><ele>15.666666666666668</ele><time>2026-05-02T09:38:26.139Z</time></trkpt><trkpt lat="47.7417683" lon="-1.8551717"><ele>15.0</ele><time>2026-05-02T09:38:27.14Z</time></trkpt><trkpt lat="47.74159" lon="-1.8552233"><ele>15.0</ele><time>2026-05-02T09:38:29.14Z</time></trkpt><trkpt lat="47.74145" lon="-1.85538"><ele>15.0</ele><time>2026-05-02T09:38:31.14Z</time></trkpt><trkpt lat="47.7414" lon="-1.855485"><ele>15.0</ele><time>2026-05-02T09:38:32.139Z</time></trkpt><trkpt lat="47.741405" lon="-1.8557267"><ele>15.0</ele><time>2026-05-02T09:38:34.139Z</time></trkpt><trkpt lat="47.7414283" lon="-1.8558483"><ele>16.0</ele><time>2026-05-02T09:38:35.139Z</time></trkpt><trkpt lat="47.7415267" lon="-1.8561333"><ele>17.0</ele><time>2026-05-02T09:38:37.139Z</time></trkpt><trkpt lat="47.7416517" lon="-1.8564367"><ele>17.0</ele><time>2026-05-02T09:38:39.14Z</time></trkpt><trkpt lat="47.7417117" lon="-1.8565917"><ele>17.0</ele><time>2026-05-02T09:38:40.14Z</time></trkpt><trkpt lat="47.74183" lon="-1.85688"><ele>17.0</ele><time>2026-05-02T09:38:42.141Z</time></trkpt><trkpt lat="47.741885" lon="-1.8570117"><ele>17.0</ele><time>2026-05-02T09:38:43.141Z</time></trkpt><trkpt lat="47.7420383" lon="-1.8573617"><ele>17.0</ele><time>2026-05-02T09:38:46.139Z</time></trkpt><trkpt lat="47.7420833" lon="-1.857455"><ele>17.0</ele><time>2026-05-02T09:38:47.139Z</time></trkpt><trkpt lat="47.7421267" lon="-1.857545"><ele>17.0</ele><time>2026-05-02T09:38:48.139Z</time></trkpt><trkpt lat="47.7421667" lon="-1.8576333"><ele>17.57142857142857</ele><time>2026-05-02T09:38:49.139Z</time></trkpt><trkpt lat="47.7422017" lon="-1.8577233"><ele>18.142857142857142</ele><time>2026-05-02T09:38:50.139Z</time></trkpt><trkpt lat="47.7422283" lon="-1.8578283"><ele>18.714285714285715</ele><time>2026-05-02T09:38:51.139Z</time></trkpt><trkpt lat="47.7422467" lon="-1.8579383"><ele>19.285714285714285</ele><time>2026-05-02T09:38:52.139Z</time></trkpt><trkpt lat="47.7422583" lon="-1.8580483"><ele>19.857142857142858</ele><time>2026-05-02T09:38:53.14Z</time></trkpt><trkpt lat="47.7422683" lon="-1.8581567"><ele>20.428571428571427</ele><time>2026-05-02T09:38:54.14Z</time></trkpt><trkpt lat="47.742275" lon="-1.858265"><ele>21.0</ele><time>2026-05-02T09:38:55.139Z</time></trkpt><trkpt lat="47.7422817" lon="-1.8583717"><ele>21.833333333333332</ele><time>2026-05-02T09:38:56.14Z</time></trkpt><trkpt lat="47.7422983" lon="-1.8584783"><ele>22.666666666666664</ele><time>2026-05-02T09:38:57.139Z</time></trkpt><trkpt lat="47.7423167" lon="-1.8585883"><ele>23.5</ele><time>2026-05-02T09:38:58.14Z</time></trkpt><trkpt lat="47.7423383" lon="-1.8587"><ele>24.333333333333332</ele><time>2026-05-02T09:38:59.143Z</time></trkpt><trkpt lat="47.74236" lon="-1.85881"><ele>25.166666666666664</ele><time>2026-05-02T09:39:00.139Z</time></trkpt><trkpt lat="47.7423833" lon="-1.8589117"><ele>26.0</ele><time>2026-05-02T09:39:01.14Z</time></trkpt><trkpt lat="47.7424033" lon="-1.859015"><ele>26.0</ele><time>2026-05-02T09:39:02.139Z</time></trkpt><trkpt lat="47.742425" lon="-1.8591167"><ele>26.0</ele><time>2026-05-02T09:39:03.141Z</time></trkpt><trkpt lat="47.74244" lon="-1.8592183"><ele>26.0</ele><time>2026-05-02T09:39:04.14Z</time></trkpt><trkpt lat="47.7424533" lon="-1.859325"><ele>26.0</ele><time>2026-05-02T09:39:05.14Z</time></trkpt><trkpt lat="47.7424617" lon="-1.859435"><ele>26.0</ele><time>2026-05-02T09:39:06.139Z</time></trkpt><trkpt lat="47.7424633" lon="-1.8595633"><ele>26.0</ele><time>2026-05-02T09:39:07.143Z</time></trkpt><trkpt lat="47.7424583" lon="-1.8596717"><ele>26.0</ele><time>2026-05-02T09:39:08.139Z</time></trkpt><trkpt lat="47.7424483" lon="-1.8597883"><ele>26.499999999999996</ele><time>2026-05-02T09:39:09.141Z</time></trkpt><trkpt lat="47.7424333" lon="-1.8599033"><ele>27.0</ele><time>2026-05-02T09:39:10.14Z</time></trkpt><trkpt lat="47.7424133" lon="-1.8600183"><ele>27.5</ele><time>2026-05-02T09:39:11.139Z</time></trkpt><trkpt lat="47.7423933" lon="-1.8601283"><ele>28.0</ele><time>2026-05-02T09:39:12.138Z</time></trkpt><trkpt lat="47.7423833" lon="-1.8602433"><ele>28.499999999999996</ele><time>2026-05-02T09:39:13.139Z</time></trkpt><trkpt lat="47.7423817" lon="-1.8603567"><ele>29.0</ele><time>2026-05-02T09:39:14.139Z</time></trkpt><trkpt lat="47.7423783" lon="-1.8604667"><ele>28.999999999999996</ele><time>2026-05-02T09:39:15.14Z</time></trkpt><trkpt lat="47.7423817" lon="-1.86058"><ele>29.0</ele><time>2026-05-02T09:39:16.14Z</time></trkpt><trkpt lat="47.7423867" lon="-1.8606983"><ele>29.0</ele><time>2026-05-02T09:39:17.141Z</time></trkpt><trkpt lat="47.7423933" lon="-1.860815"><ele>29.0</ele><time>2026-05-02T09:39:18.139Z</time></trkpt><trkpt lat="47.7424017" lon="-1.860935"><ele>28.999999999999996</ele><time>2026-05-02T09:39:19.14Z</time></trkpt><trkpt lat="47.7424067" lon="-1.8610567"><ele>29.0</ele><time>2026-05-02T09:39:20.143Z</time></trkpt><trkpt lat="47.7424067" lon="-1.8611733"><ele>29.333333333333332</ele><time>2026-05-02T09:39:21.141Z</time></trkpt><trkpt lat="47.74241" lon="-1.8612933"><ele>29.666666666666664</ele><time>2026-05-02T09:39:22.141Z</time></trkpt><trkpt lat="47.7424133" lon="-1.8614067"><ele>30.0</ele><time>2026-05-02T09:39:23.141Z</time></trkpt><trkpt lat="47.742415" lon="-1.8615117"><ele>30.333333333333336</ele><time>2026-05-02T09:39:24.141Z</time></trkpt><trkpt lat="47.7424167" lon="-1.86161"><ele>30.666666666666668</ele><time>2026-05-02T09:39:25.142Z</time></trkpt><trkpt lat="47.7424267" lon="-1.8617917"><ele>31.0</ele><time>2026-05-02T09:39:27.14Z</time></trkpt><trkpt lat="47.7424483" lon="-1.8618883"><ele>31.4</ele><time>2026-05-02T09:39:28.141Z</time></trkpt><trkpt lat="47.74248" lon="-1.8619933"><ele>31.8</ele><time>2026-05-02T09:39:29.144Z</time></trkpt><trkpt lat="47.7425217" lon="-1.8621"><ele>32.199999999999996</ele><time>2026-05-02T09:39:30.139Z</time></trkpt><trkpt lat="47.7425617" lon="-1.862225"><ele>32.6</ele><time>2026-05-02T09:39:31.14Z</time></trkpt><trkpt lat="47.7426117" lon="-1.8623667"><ele>33.0</ele><time>2026-05-02T09:39:32.14Z</time></trkpt><trkpt lat="47.74267" lon="-1.8625283"><ele>32.0</ele><time>2026-05-02T09:39:33.139Z</time></trkpt><trkpt lat="47.7427283" lon="-1.8627033"><ele>31.0</ele><time>2026-05-02T09:39:34.139Z</time></trkpt><trkpt lat="47.742785" lon="-1.8628783"><ele>30.0</ele><time>2026-05-02T09:39:35.141Z</time></trkpt><trkpt lat="47.7428433" lon="-1.8630533"><ele>29.0</ele><time>2026-05-02T09:39:36.14Z</time></trkpt><trkpt lat="47.7429" lon="-1.863215"><ele>29.0</ele><time>2026-05-02T09:39:37.142Z</time></trkpt><trkpt lat="47.7429467" lon="-1.8633617"><ele>29.0</ele><time>2026-05-02T09:39:38.138Z</time></trkpt><trkpt lat="47.7429933" lon="-1.8635"><ele>29.0</ele><time>2026-05-02T09:39:39.139Z</time></trkpt><trkpt lat="47.7430383" lon="-1.863625"><ele>29.0</ele><time>2026-05-02T09:39:40.138Z</time></trkpt><trkpt lat="47.74308" lon="-1.8637433"><ele>29.0</ele><time>2026-05-02T09:39:41.139Z</time></trkpt><trkpt lat="47.7431133" lon="-1.8638433"><ele>28.999999999999996</ele><time>2026-05-02T09:39:42.139Z</time></trkpt><trkpt lat="47.7431417" lon="-1.8639367"><ele>29.0</ele><time>2026-05-02T09:39:43.14Z</time></trkpt><trkpt lat="47.74319" lon="-1.8640733"><ele>29.0</ele><time>2026-05-02T09:39:45.139Z</time></trkpt><trkpt lat="47.74324" lon="-1.8641433"><ele>29.0</ele><time>2026-05-02T09:39:48.139Z</time></trkpt><trkpt lat="47.743265" lon="-1.86428"><ele>28.999999999999996</ele><time>2026-05-02T09:39:56.141Z</time></trkpt><trkpt lat="47.7432717" lon="-1.864375"><ele>29.0</ele><time>2026-05-02T09:39:57.141Z</time></trkpt><trkpt lat="47.7432833" lon="-1.8644817"><ele>29.4</ele><time>2026-05-02T09:39:58.141Z</time></trkpt><trkpt lat="47.7432983" lon="-1.8645983"><ele>29.799999999999997</ele><time>2026-05-02T09:39:59.14Z</time></trkpt><trkpt lat="47.7433067" lon="-1.8647267"><ele>30.200000000000003</ele><time>2026-05-02T09:40:00.139Z</time></trkpt><trkpt lat="47.74331" lon="-1.8648667"><ele>30.6</ele><time>2026-05-02T09:40:01.14Z</time></trkpt><trkpt lat="47.7433083" lon="-1.86502"><ele>31.0</ele><time>2026-05-02T09:40:02.139Z</time></trkpt><trkpt lat="47.7433033" lon="-1.8651783"><ele>31.75</ele><time>2026-05-02T09:40:03.139Z</time></trkpt><trkpt lat="47.743295" lon="-1.86535"><ele>32.5</ele><time>2026-05-02T09:40:04.141Z</time></trkpt><trkpt lat="47.7432767" lon="-1.8655333"><ele>33.25</ele><time>2026-05-02T09:40:05.139Z</time></trkpt><trkpt lat="47.7432567" lon="-1.8657167"><ele>34.0</ele><time>2026-05-02T09:40:06.139Z</time></trkpt><trkpt lat="47.743225" lon="-1.8659"><ele>34.0</ele><time>2026-05-02T09:40:07.139Z</time></trkpt><trkpt lat="47.7431833" lon="-1.866075"><ele>34.0</ele><time>2026-05-02T09:40:08.139Z</time></trkpt><trkpt lat="47.7431333" lon="-1.8662433"><ele>34.0</ele><time>2026-05-02T09:40:09.14Z</time></trkpt><trkpt lat="47.7430783" lon="-1.8664117"><ele>34.0</ele><time>2026-05-02T09:40:10.139Z</time></trkpt><trkpt lat="47.7430183" lon="-1.86658"><ele>34.0</ele><time>2026-05-02T09:40:11.139Z</time></trkpt><trkpt lat="47.7429567" lon="-1.86674"><ele>34.0</ele><time>2026-05-02T09:40:12.138Z</time></trkpt><trkpt lat="47.742905" lon="-1.8668883"><ele>34.0</ele><time>2026-05-02T09:40:13.14Z</time></trkpt><trkpt lat="47.7428533" lon="-1.8670283"><ele>34.0</ele><time>2026-05-02T09:40:14.14Z</time></trkpt><trkpt lat="47.742805" lon="-1.8671717"><ele>34.25</ele><time>2026-05-02T09:40:15.141Z</time></trkpt><trkpt lat="47.7427533" lon="-1.8673167"><ele>34.5</ele><time>2026-05-02T09:40:16.14Z</time></trkpt><trkpt lat="47.7427017" lon="-1.86747"><ele>34.75</ele><time>2026-05-02T09:40:17.142Z</time></trkpt><trkpt lat="47.742645" lon="-1.8676317"><ele>35.0</ele><time>2026-05-02T09:40:18.14Z</time></trkpt><trkpt lat="47.742585" lon="-1.8677983"><ele>35.5</ele><time>2026-05-02T09:40:19.141Z</time></trkpt><trkpt lat="47.7425217" lon="-1.8679717"><ele>36.0</ele><time>2026-05-02T09:40:20.143Z</time></trkpt><trkpt lat="47.7424567" lon="-1.8681533"><ele>36.5</ele><time>2026-05-02T09:40:21.141Z</time></trkpt><trkpt lat="47.7423883" lon="-1.8683433"><ele>37.0</ele><time>2026-05-02T09:40:22.14Z</time></trkpt><trkpt lat="47.7423133" lon="-1.8685433"><ele>37.66666666666667</ele><time>2026-05-02T09:40:23.138Z</time></trkpt><trkpt lat="47.7422367" lon="-1.8687483"><ele>38.333333333333336</ele><time>2026-05-02T09:40:24.142Z</time></trkpt><trkpt lat="47.7421567" lon="-1.86896"><ele>39.0</ele><time>2026-05-02T09:40:25.141Z</time></trkpt><trkpt lat="47.7420817" lon="-1.86917"><ele>39.0</ele><time>2026-05-02T09:40:26.141Z</time></trkpt><trkpt lat="47.742005" lon="-1.869385"><ele>39.0</ele><time>2026-05-02T09:40:27.141Z</time></trkpt><trkpt lat="47.7419317" lon="-1.8696083"><ele>39.0</ele><time>2026-05-02T09:40:28.141Z</time></trkpt><trkpt lat="47.741855" lon="-1.8698417"><ele>39.666666666666664</ele><time>2026-05-02T09:40:29.141Z</time></trkpt><trkpt lat="47.7417767" lon="-1.87006"><ele>40.33333333333333</ele><time>2026-05-02T09:40:30.14Z</time></trkpt><trkpt lat="47.7416967" lon="-1.8702767"><ele>41.0</ele><time>2026-05-02T09:40:31.14Z</time></trkpt><trkpt lat="47.7416167" lon="-1.8704883"><ele>41.0</ele><time>2026-05-02T09:40:32.14Z</time></trkpt><trkpt lat="47.7415433" lon="-1.8706967"><ele>41.0</ele><time>2026-05-02T09:40:33.14Z</time></trkpt><trkpt lat="47.7414717" lon="-1.8709017"><ele>41.0</ele><time>2026-05-02T09:40:34.141Z</time></trkpt><trkpt lat="47.7414083" lon="-1.8710867"><ele>41.4</ele><time>2026-05-02T09:40:35.139Z</time></trkpt><trkpt lat="47.7413433" lon="-1.8712567"><ele>41.8</ele><time>2026-05-02T09:40:36.141Z</time></trkpt><trkpt lat="47.7412883" lon="-1.87141"><ele>42.199999999999996</ele><time>2026-05-02T09:40:37.14Z</time></trkpt><trkpt lat="47.7412417" lon="-1.8715417"><ele>42.599999999999994</ele><time>2026-05-02T09:40:38.14Z</time></trkpt><trkpt lat="47.7412" lon="-1.8716583"><ele>43.0</ele><time>2026-05-02T09:40:39.14Z</time></trkpt><trkpt lat="47.741165" lon="-1.8717583"><ele>43.4</ele><time>2026-05-02T09:40:40.14Z</time></trkpt><trkpt lat="47.7411367" lon="-1.8718433"><ele>43.8</ele><time>2026-05-02T09:40:41.14Z</time></trkpt><trkpt lat="47.7411317" lon="-1.8719883"><ele>44.2</ele><time>2026-05-02T09:40:43.14Z</time></trkpt><trkpt lat="47.7412217" lon="-1.8721233"><ele>44.6</ele><time>2026-05-02T09:40:45.141Z</time></trkpt><trkpt lat="47.7412933" lon="-1.8722"><ele>45.0</ele><time>2026-05-02T09:40:46.14Z</time></trkpt><trkpt lat="47.7413683" lon="-1.8722867"><ele>45.0</ele><time>2026-05-02T09:40:47.141Z</time></trkpt><trkpt lat="47.7414467" lon="-1.8723767"><ele>45.0</ele><time>2026-05-02T09:40:48.14Z</time></trkpt><trkpt lat="47.7415267" lon="-1.8724717"><ele>45.0</ele><time>2026-05-02T09:40:49.14Z</time></trkpt><trkpt lat="47.7416117" lon="-1.87257"><ele>45.0</ele><time>2026-05-02T09:40:50.14Z</time></trkpt><trkpt lat="47.7416983" lon="-1.87267"><ele>45.0</ele><time>2026-05-02T09:40:51.141Z</time></trkpt><trkpt lat="47.7417867" lon="-1.8727733"><ele>45.4</ele><time>2026-05-02T09:40:52.14Z</time></trkpt><trkpt lat="47.741875" lon="-1.8728767"><ele>45.8</ele><time>2026-05-02T09:40:53.14Z</time></trkpt><trkpt lat="47.7419567" lon="-1.8729767"><ele>46.2</ele><time>2026-05-02T09:40:54.14Z</time></trkpt><trkpt lat="47.7420267" lon="-1.8730817"><ele>46.6</ele><time>2026-05-02T09:40:55.14Z</time></trkpt><trkpt lat="47.74208" lon="-1.8731817"><ele>47.0</ele><time>2026-05-02T09:40:56.14Z</time></trkpt><trkpt lat="47.7421283" lon="-1.8732767"><ele>47.83333333333333</ele><time>2026-05-02T09:40:57.143Z</time></trkpt><trkpt lat="47.742175" lon="-1.8733683"><ele>48.666666666666664</ele><time>2026-05-02T09:40:58.143Z</time></trkpt><trkpt lat="47.74222" lon="-1.8734583"><ele>49.5</ele><time>2026-05-02T09:40:59.14Z</time></trkpt><trkpt lat="47.7422617" lon="-1.8735467"><ele>50.33333333333333</ele><time>2026-05-02T09:41:00.145Z</time></trkpt><trkpt lat="47.7423033" lon="-1.8736333"><ele>51.166666666666664</ele><time>2026-05-02T09:41:01.139Z</time></trkpt><trkpt lat="47.7423417" lon="-1.8737083"><ele>52.0</ele><time>2026-05-02T09:41:02.14Z</time></trkpt><trkpt lat="47.7423867" lon="-1.873865"><ele>52.14285714285714</ele><time>2026-05-02T09:41:04.14Z</time></trkpt><trkpt lat="47.7423817" lon="-1.873965"><ele>52.28571428571429</ele><time>2026-05-02T09:41:05.139Z</time></trkpt><trkpt lat="47.7423567" lon="-1.8740667"><ele>52.42857142857143</ele><time>2026-05-02T09:41:06.14Z</time></trkpt><trkpt lat="47.7423317" lon="-1.8741667"><ele>52.57142857142857</ele><time>2026-05-02T09:41:07.14Z</time></trkpt><trkpt lat="47.74231" lon="-1.8742717"><ele>52.71428571428571</ele><time>2026-05-02T09:41:08.141Z</time></trkpt><trkpt lat="47.7422983" lon="-1.874385"><ele>52.85714285714286</ele><time>2026-05-02T09:41:09.14Z</time></trkpt><trkpt lat="47.74229" lon="-1.8745017"><ele>53.0</ele><time>2026-05-02T09:41:10.14Z</time></trkpt><trkpt lat="47.7422767" lon="-1.8746217"><ele>53.599999999999994</ele><time>2026-05-02T09:41:11.139Z</time></trkpt><trkpt lat="47.74225" lon="-1.8747383"><ele>54.199999999999996</ele><time>2026-05-02T09:41:12.14Z</time></trkpt><trkpt lat="47.742215" lon="-1.8748617"><ele>54.8</ele><time>2026-05-02T09:41:13.144Z</time></trkpt><trkpt lat="47.7421717" lon="-1.875"><ele>55.4</ele><time>2026-05-02T09:41:14.141Z</time></trkpt><trkpt lat="47.7421217" lon="-1.87514"><ele>56.0</ele><time>2026-05-02T09:41:15.141Z</time></trkpt><trkpt lat="47.7420567" lon="-1.8752817"><ele>56.0</ele><time>2026-05-02T09:41:16.141Z</time></trkpt><trkpt lat="47.7419783" lon="-1.8754267"><ele>56.0</ele><time>2026-05-02T09:41:17.139Z</time></trkpt><trkpt lat="47.7418917" lon="-1.87557"><ele>56.0</ele><time>2026-05-02T09:41:18.14Z</time></trkpt><trkpt lat="47.7418017" lon="-1.8757167"><ele>56.0</ele><time>2026-05-02T09:41:19.141Z</time></trkpt><trkpt lat="47.7417083" lon="-1.87587"><ele>56.25</ele><time>2026-05-02T09:41:20.141Z</time></trkpt><trkpt lat="47.7416133" lon="-1.8760217"><ele>56.5</ele><time>2026-05-02T09:41:21.141Z</time></trkpt><trkpt lat="47.74152" lon="-1.8761667"><ele>56.75</ele><time>2026-05-02T09:41:22.141Z</time></trkpt><trkpt lat="47.74143" lon="-1.8763033"><ele>57.0</ele><time>2026-05-02T09:41:23.141Z</time></trkpt><trkpt lat="47.741345" lon="-1.8764283"><ele>57.0</ele><time>2026-05-02T09:41:24.144Z</time></trkpt><trkpt lat="47.7412683" lon="-1.8765383"><ele>57.0</ele><time>2026-05-02T09:41:25.141Z</time></trkpt><trkpt lat="47.7412017" lon="-1.8766367"><ele>57.0</ele><time>2026-05-02T09:41:26.141Z</time></trkpt><trkpt lat="47.7411483" lon="-1.8767233"><ele>57.0</ele><time>2026-05-02T09:41:27.14Z</time></trkpt><trkpt lat="47.741105" lon="-1.8768067"><ele>57.0</ele><time>2026-05-02T09:41:28.14Z</time></trkpt><trkpt lat="47.74108" lon="-1.8769767"><ele>57.166666666666664</ele><time>2026-05-02T09:41:30.139Z</time></trkpt><trkpt lat="47.7410983" lon="-1.8770683"><ele>57.33333333333333</ele><time>2026-05-02T09:41:31.141Z</time></trkpt><trkpt lat="47.74114" lon="-1.8771533"><ele>57.5</ele><time>2026-05-02T09:41:32.141Z</time></trkpt><trkpt lat="47.7411933" lon="-1.8772517"><ele>57.666666666666664</ele><time>2026-05-02T09:41:33.14Z</time></trkpt><trkpt lat="47.74126" lon="-1.877365"><ele>57.83333333333333</ele><time>2026-05-02T09:41:34.141Z</time></trkpt><trkpt lat="47.7413383" lon="-1.8775033"><ele>58.0</ele><time>2026-05-02T09:41:35.139Z</time></trkpt><trkpt lat="47.741425" lon="-1.8776617"><ele>58.0</ele><time>2026-05-02T09:41:36.139Z</time></trkpt><trkpt lat="47.7415133" lon="-1.8778283"><ele>58.0</ele><time>2026-05-02T09:41:37.139Z</time></trkpt><trkpt lat="47.74161" lon="-1.878"><ele>58.0</ele><time>2026-05-02T09:41:38.139Z</time></trkpt><trkpt lat="47.7417017" lon="-1.8781833"><ele>58.0</ele><time>2026-05-02T09:41:39.14Z</time></trkpt><trkpt lat="47.7417933" lon="-1.878365"><ele>57.0</ele><time>2026-05-02T09:41:40.14Z</time></trkpt><trkpt lat="47.741885" lon="-1.8785417"><ele>56.0</ele><time>2026-05-02T09:41:41.14Z</time></trkpt><trkpt lat="47.741975" lon="-1.878715"><ele>55.0</ele><time>2026-05-02T09:41:42.139Z</time></trkpt><trkpt lat="47.7420667" lon="-1.878885"><ele>54.0</ele><time>2026-05-02T09:41:43.141Z</time></trkpt><trkpt lat="47.7421567" lon="-1.8790567"><ele>54.0</ele><time>2026-05-02T09:41:44.141Z</time></trkpt><trkpt lat="47.7422467" lon="-1.8792283"><ele>54.0</ele><time>2026-05-02T09:41:45.142Z</time></trkpt><trkpt lat="47.7423333" lon="-1.879385"><ele>54.0</ele><time>2026-05-02T09:41:46.141Z</time></trkpt><trkpt lat="47.742415" lon="-1.8795367"><ele>54.0</ele><time>2026-05-02T09:41:47.141Z</time></trkpt><trkpt lat="47.742485" lon="-1.8796633"><ele>53.25</ele><time>2026-05-02T09:41:48.141Z</time></trkpt><trkpt lat="47.7425667" lon="-1.879765"><ele>52.5</ele><time>2026-05-02T09:41:49.141Z</time></trkpt><trkpt lat="47.7426667" lon="-1.8798583"><ele>51.75</ele><time>2026-05-02T09:41:50.143Z</time></trkpt><trkpt lat="47.7427783" lon="-1.8799283"><ele>51.0</ele><time>2026-05-02T09:41:51.141Z</time></trkpt><trkpt lat="47.7429033" lon="-1.87998"><ele>52.5</ele><time>2026-05-02T09:41:52.142Z</time></trkpt><trkpt lat="47.743035" lon="-1.8800167"><ele>54.0</ele><time>2026-05-02T09:41:53.141Z</time></trkpt><trkpt lat="47.7431667" lon="-1.880045"><ele>55.5</ele><time>2026-05-02T09:41:54.141Z</time></trkpt><trkpt lat="47.7432917" lon="-1.88007"><ele>57.0</ele><time>2026-05-02T09:41:55.14Z</time></trkpt><trkpt lat="47.743405" lon="-1.8800983"><ele>57.75</ele><time>2026-05-02T09:41:56.14Z</time></trkpt><trkpt lat="47.743515" lon="-1.88014"><ele>58.5</ele><time>2026-05-02T09:41:57.143Z</time></trkpt><trkpt lat="47.7436183" lon="-1.8802"><ele>59.25</ele><time>2026-05-02T09:41:58.14Z</time></trkpt><trkpt lat="47.7437283" lon="-1.88028"><ele>60.0</ele><time>2026-05-02T09:41:59.139Z</time></trkpt><trkpt lat="47.74384" lon="-1.8803767"><ele>62.2</ele><time>2026-05-02T09:42:00.139Z</time></trkpt><trkpt lat="47.7439467" lon="-1.88047"><ele>64.4</ele><time>2026-05-02T09:42:01.139Z</time></trkpt><trkpt lat="47.7440433" lon="-1.880555"><ele>66.6</ele><time>2026-05-02T09:42:02.139Z</time></trkpt><trkpt lat="47.7441317" lon="-1.8806333"><ele>68.8</ele><time>2026-05-02T09:42:03.14Z</time></trkpt><trkpt lat="47.74421" lon="-1.8807067"><ele>71.0</ele><time>2026-05-02T09:42:04.139Z</time></trkpt><trkpt lat="47.7442817" lon="-1.8807717"><ele>71.0</ele><time>2026-05-02T09:42:05.144Z</time></trkpt><trkpt lat="47.7443467" lon="-1.8808333"><ele>71.0</ele><time>2026-05-02T09:42:06.143Z</time></trkpt><trkpt lat="47.7444033" lon="-1.8808833"><ele>71.0</ele><time>2026-05-02T09:42:07.138Z</time></trkpt><trkpt lat="47.7444783" lon="-1.8809717"><ele>71.0</ele><time>2026-05-02T09:42:09.14Z</time></trkpt><trkpt lat="47.7444933" lon="-1.8810817"><ele>71.0</ele><time>2026-05-02T09:42:11.139Z</time></trkpt><trkpt lat="47.744485" lon="-1.8812067"><ele>71.0</ele><time>2026-05-02T09:42:13.139Z</time></trkpt><trkpt lat="47.7444617" lon="-1.8813383"><ele>71.2</ele><time>2026-05-02T09:42:15.139Z</time></trkpt><trkpt lat="47.7444367" lon="-1.8814683"><ele>71.39999999999999</ele><time>2026-05-02T09:42:17.139Z</time></trkpt><trkpt lat="47.7444067" lon="-1.8816067"><ele>71.6</ele><time>2026-05-02T09:42:19.139Z</time></trkpt><trkpt lat="47.7443667" lon="-1.88177"><ele>71.8</ele><time>2026-05-02T09:42:21.142Z</time></trkpt><trkpt lat="47.744335" lon="-1.8818617"><ele>72.0</ele><time>2026-05-02T09:42:22.141Z</time></trkpt><trkpt lat="47.7442933" lon="-1.8819583"><ele>72.0</ele><time>2026-05-02T09:42:23.14Z</time></trkpt><trkpt lat="47.74424" lon="-1.8820583"><ele>72.0</ele><time>2026-05-02T09:42:24.139Z</time></trkpt><trkpt lat="47.7441783" lon="-1.8821583"><ele>72.0</ele><time>2026-05-02T09:42:25.139Z</time></trkpt><trkpt lat="47.7441083" lon="-1.8822567"><ele>72.0</ele><time>2026-05-02T09:42:26.139Z</time></trkpt><trkpt lat="47.7440383" lon="-1.88236"><ele>72.0</ele><time>2026-05-02T09:42:27.14Z</time></trkpt><trkpt lat="47.7439667" lon="-1.882465"><ele>72.0</ele><time>2026-05-02T09:42:28.139Z</time></trkpt><trkpt lat="47.7438967" lon="-1.882575"><ele>72.0</ele><time>2026-05-02T09:42:29.14Z</time></trkpt><trkpt lat="47.743825" lon="-1.88268"><ele>72.0</ele><time>2026-05-02T09:42:30.139Z</time></trkpt><trkpt lat="47.7437517" lon="-1.8827817"><ele>72.0</ele><time>2026-05-02T09:42:31.141Z</time></trkpt><trkpt lat="47.743685" lon="-1.8828783"><ele>72.0</ele><time>2026-05-02T09:42:32.139Z</time></trkpt><trkpt lat="47.7436183" lon="-1.882975"><ele>72.16666666666667</ele><time>2026-05-02T09:42:33.14Z</time></trkpt><trkpt lat="47.7435533" lon="-1.88307"><ele>72.33333333333333</ele><time>2026-05-02T09:42:34.139Z</time></trkpt><trkpt lat="47.7434917" lon="-1.883165"><ele>72.5</ele><time>2026-05-02T09:42:35.141Z</time></trkpt><trkpt lat="47.74343" lon="-1.8832583"><ele>72.66666666666666</ele><time>2026-05-02T09:42:36.139Z</time></trkpt><trkpt lat="47.74337" lon="-1.88335"><ele>72.83333333333333</ele><time>2026-05-02T09:42:37.141Z</time></trkpt><trkpt lat="47.7433117" lon="-1.8834383"><ele>73.0</ele><time>2026-05-02T09:42:38.139Z</time></trkpt><trkpt lat="47.743255" lon="-1.8835267"><ele>71.16666666666666</ele><time>2026-05-02T09:42:39.14Z</time></trkpt><trkpt lat="47.7431983" lon="-1.8836117"><ele>69.33333333333333</ele><time>2026-05-02T09:42:40.139Z</time></trkpt><trkpt lat="47.74314" lon="-1.883695"><ele>67.5</ele><time>2026-05-02T09:42:41.14Z</time></trkpt><trkpt lat="47.743085" lon="-1.8837817"><ele>65.66666666666667</ele><time>2026-05-02T09:42:42.141Z</time></trkpt><trkpt lat="47.74303" lon="-1.8838617"><ele>63.833333333333336</ele><time>2026-05-02T09:42:43.139Z</time></trkpt><trkpt lat="47.742975" lon="-1.88394"><ele>62.0</ele><time>2026-05-02T09:42:44.14Z</time></trkpt><trkpt lat="47.7429233" lon="-1.8840083"><ele>62.0</ele><time>2026-05-02T09:42:45.141Z</time></trkpt><trkpt lat="47.742825" lon="-1.8841167"><ele>62.0</ele><time>2026-05-02T09:42:47.139Z</time></trkpt><trkpt lat="47.7427067" lon="-1.8841883"><ele>62.0</ele><time>2026-05-02T09:42:49.139Z</time></trkpt><trkpt lat="47.742645" lon="-1.88421"><ele>62.0</ele><time>2026-05-02T09:42:50.14Z</time></trkpt><trkpt lat="47.7425783" lon="-1.88422"><ele>62.0</ele><time>2026-05-02T09:42:51.14Z</time></trkpt><trkpt lat="47.742455" lon="-1.8842333"><ele>61.28571428571429</ele><time>2026-05-02T09:42:53.14Z</time></trkpt><trkpt lat="47.7423883" lon="-1.8842383"><ele>60.57142857142858</ele><time>2026-05-02T09:42:54.139Z</time></trkpt><trkpt lat="47.7423217" lon="-1.88424"><ele>59.85714285714286</ele><time>2026-05-02T09:42:55.14Z</time></trkpt><trkpt lat="47.7422567" lon="-1.88424"><ele>59.14285714285714</ele><time>2026-05-02T09:42:56.141Z</time></trkpt><trkpt lat="47.7421867" lon="-1.8842317"><ele>58.42857142857142</ele><time>2026-05-02T09:42:57.14Z</time></trkpt><trkpt lat="47.7421167" lon="-1.8842217"><ele>57.71428571428571</ele><time>2026-05-02T09:42:58.139Z</time></trkpt><trkpt lat="47.7420467" lon="-1.88422"><ele>57.0</ele><time>2026-05-02T09:42:59.14Z</time></trkpt><trkpt lat="47.7419133" lon="-1.884215"><ele>57.5</ele><time>2026-05-02T09:43:01.141Z</time></trkpt><trkpt lat="47.7418317" lon="-1.884205"><ele>58.0</ele><time>2026-05-02T09:43:02.139Z</time></trkpt><trkpt lat="47.7417533" lon="-1.884195"><ele>58.5</ele><time>2026-05-02T09:43:03.141Z</time></trkpt><trkpt lat="47.7416767" lon="-1.884195"><ele>59.0</ele><time>2026-05-02T09:43:04.14Z</time></trkpt><trkpt lat="47.7415967" lon="-1.8841917"><ele>59.5</ele><time>2026-05-02T09:43:05.139Z</time></trkpt><trkpt lat="47.7415167" lon="-1.8841867"><ele>60.0</ele><time>2026-05-02T09:43:06.14Z</time></trkpt><trkpt lat="47.74144" lon="-1.8841783"><ele>60.0</ele><time>2026-05-02T09:43:07.145Z</time></trkpt><trkpt lat="47.7413683" lon="-1.8841733"><ele>60.0</ele><time>2026-05-02T09:43:08.14Z</time></trkpt><trkpt lat="47.7412933" lon="-1.88417"><ele>60.0</ele><time>2026-05-02T09:43:09.14Z</time></trkpt><trkpt lat="47.7412217" lon="-1.884165"><ele>60.0</ele><time>2026-05-02T09:43:10.139Z</time></trkpt><trkpt lat="47.74115" lon="-1.8841617"><ele>60.0</ele><time>2026-05-02T09:43:11.139Z</time></trkpt><trkpt lat="47.74108" lon="-1.8841633"><ele>60.0</ele><time>2026-05-02T09:43:12.14Z</time></trkpt><trkpt lat="47.74101" lon="-1.88416"><ele>60.0</ele><time>2026-05-02T09:43:13.139Z</time></trkpt><trkpt lat="47.7409367" lon="-1.8841517"><ele>60.666666666666664</ele><time>2026-05-02T09:43:14.139Z</time></trkpt><trkpt lat="47.74086" lon="-1.8841483"><ele>61.33333333333333</ele><time>2026-05-02T09:43:15.142Z</time></trkpt><trkpt lat="47.7407867" lon="-1.88414"><ele>62.0</ele><time>2026-05-02T09:43:16.141Z</time></trkpt><trkpt lat="47.7407067" lon="-1.8841367"><ele>62.666666666666664</ele><time>2026-05-02T09:43:17.141Z</time></trkpt><trkpt lat="47.7406233" lon="-1.8841367"><ele>63.33333333333333</ele><time>2026-05-02T09:43:18.14Z</time></trkpt><trkpt lat="47.74054" lon="-1.8841417"><ele>64.0</ele><time>2026-05-02T09:43:19.14Z</time></trkpt><trkpt lat="47.7404533" lon="-1.8841433"><ele>63.99999999999999</ele><time>2026-05-02T09:43:20.14Z</time></trkpt><trkpt lat="47.740375" lon="-1.8841433"><ele>64.0</ele><time>2026-05-02T09:43:21.138Z</time></trkpt><trkpt lat="47.7402917" lon="-1.884135"><ele>64.0</ele><time>2026-05-02T09:43:22.14Z</time></trkpt><trkpt lat="47.74021" lon="-1.8841217"><ele>64.0</ele><time>2026-05-02T09:43:23.14Z</time></trkpt><trkpt lat="47.7401333" lon="-1.884115"><ele>63.99999999999999</ele><time>2026-05-02T09:43:24.139Z</time></trkpt><trkpt lat="47.7400583" lon="-1.8841117"><ele>64.0</ele><time>2026-05-02T09:43:25.138Z</time></trkpt><trkpt lat="47.739975" lon="-1.88411"><ele>65.16666666666666</ele><time>2026-05-02T09:43:26.139Z</time></trkpt><trkpt lat="47.7399033" lon="-1.8841233"><ele>66.33333333333333</ele><time>2026-05-02T09:43:27.141Z</time></trkpt><trkpt lat="47.739835" lon="-1.8841417"><ele>67.5</ele><time>2026-05-02T09:43:28.138Z</time></trkpt><trkpt lat="47.7397633" lon="-1.8841683"><ele>68.66666666666667</ele><time>2026-05-02T09:43:29.139Z</time></trkpt><trkpt lat="47.7396817" lon="-1.8842"><ele>69.83333333333334</ele><time>2026-05-02T09:43:30.139Z</time></trkpt><trkpt lat="47.7396017" lon="-1.8842417"><ele>71.0</ele><time>2026-05-02T09:43:31.139Z</time></trkpt><trkpt lat="47.739525" lon="-1.88429"><ele>72.0</ele><time>2026-05-02T09:43:32.139Z</time></trkpt><trkpt lat="47.7394517" lon="-1.8843433"><ele>73.0</ele><time>2026-05-02T09:43:33.139Z</time></trkpt><trkpt lat="47.7393817" lon="-1.8844017"><ele>74.0</ele><time>2026-05-02T09:43:34.139Z</time></trkpt><trkpt lat="47.7393117" lon="-1.8844583"><ele>75.0</ele><time>2026-05-02T09:43:35.14Z</time></trkpt><trkpt lat="47.7392417" lon="-1.884505"><ele>76.0</ele><time>2026-05-02T09:43:36.141Z</time></trkpt><trkpt lat="47.73917" lon="-1.884555"><ele>77.0</ele><time>2026-05-02T09:43:37.14Z</time></trkpt><trkpt lat="47.7390967" lon="-1.8846117"><ele>77.4</ele><time>2026-05-02T09:43:38.139Z</time></trkpt><trkpt lat="47.7390183" lon="-1.8846667"><ele>77.80000000000001</ele><time>2026-05-02T09:43:39.139Z</time></trkpt><trkpt lat="47.7389333" lon="-1.8847233"><ele>78.2</ele><time>2026-05-02T09:43:40.139Z</time></trkpt><trkpt lat="47.7388433" lon="-1.8847933"><ele>78.60000000000001</ele><time>2026-05-02T09:43:41.14Z</time></trkpt><trkpt lat="47.738745" lon="-1.884865"><ele>79.0</ele><time>2026-05-02T09:43:42.139Z</time></trkpt><trkpt lat="47.738645" lon="-1.8849367"><ele>79.2</ele><time>2026-05-02T09:43:43.14Z</time></trkpt><trkpt lat="47.7385483" lon="-1.88501"><ele>79.4</ele><time>2026-05-02T09:43:44.139Z</time></trkpt><trkpt lat="47.7384533" lon="-1.8850833"><ele>79.6</ele><time>2026-05-02T09:43:45.141Z</time></trkpt><trkpt lat="47.73836" lon="-1.8851567"><ele>79.8</ele><time>2026-05-02T09:43:46.14Z</time></trkpt><trkpt lat="47.7382683" lon="-1.8852283"><ele>80.0</ele><time>2026-05-02T09:43:47.14Z</time></trkpt><trkpt lat="47.7381783" lon="-1.8852983"><ele>80.16666666666667</ele><time>2026-05-02T09:43:48.14Z</time></trkpt><trkpt lat="47.7380883" lon="-1.8853733"><ele>80.33333333333334</ele><time>2026-05-02T09:43:49.139Z</time></trkpt><trkpt lat="47.7380033" lon="-1.8854433"><ele>80.5</ele><time>2026-05-02T09:43:50.139Z</time></trkpt><trkpt lat="47.737925" lon="-1.885505"><ele>80.66666666666667</ele><time>2026-05-02T09:43:51.139Z</time></trkpt><trkpt lat="47.7378533" lon="-1.885555"><ele>80.83333333333333</ele><time>2026-05-02T09:43:52.139Z</time></trkpt><trkpt lat="47.7377883" lon="-1.8855933"><ele>81.0</ele><time>2026-05-02T09:43:53.139Z</time></trkpt><trkpt lat="47.7376867" lon="-1.88566"><ele>81.19999999999999</ele><time>2026-05-02T09:43:55.138Z</time></trkpt><trkpt lat="47.7376" lon="-1.885765"><ele>81.39999999999999</ele><time>2026-05-02T09:43:57.139Z</time></trkpt><trkpt lat="47.737555" lon="-1.885845"><ele>81.6</ele><time>2026-05-02T09:43:58.14Z</time></trkpt><trkpt lat="47.7375083" lon="-1.8859433"><ele>81.8</ele><time>2026-05-02T09:43:59.14Z</time></trkpt><trkpt lat="47.7374517" lon="-1.8860517"><ele>82.0</ele><time>2026-05-02T09:44:00.14Z</time></trkpt><trkpt lat="47.7373833" lon="-1.8861683"><ele>82.0</ele><time>2026-05-02T09:44:01.14Z</time></trkpt><trkpt lat="47.7373083" lon="-1.8862933"><ele>82.0</ele><time>2026-05-02T09:44:02.139Z</time></trkpt><trkpt lat="47.7372283" lon="-1.886425"><ele>82.0</ele><time>2026-05-02T09:44:03.144Z</time></trkpt><trkpt lat="47.73715" lon="-1.886565"><ele>82.0</ele><time>2026-05-02T09:44:04.139Z</time></trkpt><trkpt lat="47.7370817" lon="-1.8867133"><ele>82.25</ele><time>2026-05-02T09:44:05.141Z</time></trkpt><trkpt lat="47.7370183" lon="-1.8868683"><ele>82.5</ele><time>2026-05-02T09:44:06.14Z</time></trkpt><trkpt lat="47.73696" lon="-1.8870283"><ele>82.75</ele><time>2026-05-02T09:44:07.142Z</time></trkpt><trkpt lat="47.73691" lon="-1.8871917"><ele>83.0</ele><time>2026-05-02T09:44:08.14Z</time></trkpt><trkpt lat="47.7368633" lon="-1.8873667"><ele>83.0</ele><time>2026-05-02T09:44:09.142Z</time></trkpt><trkpt lat="47.736805" lon="-1.8875417"><ele>83.0</ele><time>2026-05-02T09:44:10.14Z</time></trkpt><trkpt lat="47.7367367" lon="-1.887705"><ele>83.0</ele><time>2026-05-02T09:44:11.14Z</time></trkpt><trkpt lat="47.736665" lon="-1.8878517"><ele>83.0</ele><time>2026-05-02T09:44:12.139Z</time></trkpt><trkpt lat="47.7365883" lon="-1.8879733"><ele>82.66666666666667</ele><time>2026-05-02T09:44:13.139Z</time></trkpt><trkpt lat="47.7365167" lon="-1.888075"><ele>82.33333333333334</ele><time>2026-05-02T09:44:14.144Z</time></trkpt><trkpt lat="47.73646" lon="-1.88817"><ele>82.0</ele><time>2026-05-02T09:44:15.141Z</time></trkpt><trkpt lat="47.7364167" lon="-1.88825"><ele>81.66666666666667</ele><time>2026-05-02T09:44:16.141Z</time></trkpt><trkpt lat="47.736365" lon="-1.8883733"><ele>81.33333333333333</ele><time>2026-05-02T09:44:18.14Z</time></trkpt><trkpt lat="47.7363367" lon="-1.8884617"><ele>81.0</ele><time>2026-05-02T09:44:26.14Z</time></trkpt><trkpt lat="47.7362783" lon="-1.8886033"><ele>80.6</ele><time>2026-05-02T09:44:28.141Z</time></trkpt><trkpt lat="47.7362367" lon="-1.8887033"><ele>80.19999999999999</ele><time>2026-05-02T09:44:29.141Z</time></trkpt><trkpt lat="47.7361917" lon="-1.88882"><ele>79.80000000000001</ele><time>2026-05-02T09:44:30.141Z</time></trkpt><trkpt lat="47.7361383" lon="-1.888955"><ele>79.4</ele><time>2026-05-02T09:44:31.142Z</time></trkpt><trkpt lat="47.7360783" lon="-1.8890967"><ele>79.0</ele><time>2026-05-02T09:44:32.141Z</time></trkpt><trkpt lat="47.7360167" lon="-1.8892633"><ele>78.5</ele><time>2026-05-02T09:44:33.141Z</time></trkpt><trkpt lat="47.735955" lon="-1.88943"><ele>78.0</ele><time>2026-05-02T09:44:34.141Z</time></trkpt><trkpt lat="47.7359" lon="-1.8895983"><ele>77.5</ele><time>2026-05-02T09:44:35.141Z</time></trkpt><trkpt lat="47.73586" lon="-1.889765"><ele>77.0</ele><time>2026-05-02T09:44:36.141Z</time></trkpt><trkpt lat="47.7358317" lon="-1.88994"><ele>77.25</ele><time>2026-05-02T09:44:37.141Z</time></trkpt><trkpt lat="47.7358133" lon="-1.8901267"><ele>77.5</ele><time>2026-05-02T09:44:38.141Z</time></trkpt><trkpt lat="47.73579" lon="-1.89032"><ele>77.75</ele><time>2026-05-02T09:44:39.141Z</time></trkpt><trkpt lat="47.735765" lon="-1.8905233"><ele>78.0</ele><time>2026-05-02T09:44:40.142Z</time></trkpt><trkpt lat="47.7357317" lon="-1.890735"><ele>78.66666666666667</ele><time>2026-05-02T09:44:41.142Z</time></trkpt><trkpt lat="47.7356783" lon="-1.8909567"><ele>79.33333333333334</ele><time>2026-05-02T09:44:42.141Z</time></trkpt><trkpt lat="47.735615" lon="-1.8911733"><ele>80.0</ele><time>2026-05-02T09:44:43.142Z</time></trkpt><trkpt lat="47.735545" lon="-1.89139"><ele>80.0</ele><time>2026-05-02T09:44:44.141Z</time></trkpt><trkpt lat="47.73547" lon="-1.8916117"><ele>80.0</ele><time>2026-05-02T09:44:45.142Z</time></trkpt><trkpt lat="47.7354" lon="-1.891835"><ele>80.0</ele><time>2026-05-02T09:44:46.142Z</time></trkpt><trkpt lat="47.73533" lon="-1.8920617"><ele>80.33333333333334</ele><time>2026-05-02T09:44:47.142Z</time></trkpt><trkpt lat="47.7352567" lon="-1.8922883"><ele>80.66666666666667</ele><time>2026-05-02T09:44:48.143Z</time></trkpt><trkpt lat="47.7351783" lon="-1.8925117"><ele>81.0</ele><time>2026-05-02T09:44:49.141Z</time></trkpt><trkpt lat="47.7350967" lon="-1.8927333"><ele>80.33333333333333</ele><time>2026-05-02T09:44:50.141Z</time></trkpt><trkpt lat="47.7350033" lon="-1.8929467"><ele>79.66666666666666</ele><time>2026-05-02T09:44:51.141Z</time></trkpt><trkpt lat="47.734905" lon="-1.8931567"><ele>79.0</ele><time>2026-05-02T09:44:52.139Z</time></trkpt><trkpt lat="47.734805" lon="-1.8933633"><ele>79.33333333333333</ele><time>2026-05-02T09:44:53.139Z</time></trkpt><trkpt lat="47.7346983" lon="-1.89357"><ele>79.66666666666667</ele><time>2026-05-02T09:44:54.141Z</time></trkpt><trkpt lat="47.7345967" lon="-1.8937683"><ele>80.0</ele><time>2026-05-02T09:44:55.14Z</time></trkpt><trkpt lat="47.7345017" lon="-1.89396"><ele>80.0</ele><time>2026-05-02T09:44:56.14Z</time></trkpt><trkpt lat="47.7344133" lon="-1.8941483"><ele>80.0</ele><time>2026-05-02T09:44:57.14Z</time></trkpt><trkpt lat="47.7343417" lon="-1.8943383"><ele>80.0</ele><time>2026-05-02T09:44:58.139Z</time></trkpt><trkpt lat="47.73429" lon="-1.8945333"><ele>80.0</ele><time>2026-05-02T09:44:59.139Z</time></trkpt><trkpt lat="47.734255" lon="-1.8947383"><ele>80.0</ele><time>2026-05-02T09:45:00.14Z</time></trkpt><trkpt lat="47.7342383" lon="-1.8949583"><ele>80.0</ele><time>2026-05-02T09:45:01.14Z</time></trkpt><trkpt lat="47.734235" lon="-1.8951933"><ele>80.0</ele><time>2026-05-02T09:45:02.141Z</time></trkpt><trkpt lat="47.7342333" lon="-1.895445"><ele>80.0</ele><time>2026-05-02T09:45:03.14Z</time></trkpt><trkpt lat="47.73423" lon="-1.8957067"><ele>80.0</ele><time>2026-05-02T09:45:04.14Z</time></trkpt><trkpt lat="47.7342267" lon="-1.8959767"><ele>80.0</ele><time>2026-05-02T09:45:05.14Z</time></trkpt><trkpt lat="47.734225" lon="-1.8962467"><ele>80.0</ele><time>2026-05-02T09:45:06.139Z</time></trkpt><trkpt lat="47.73422" lon="-1.8965083"><ele>80.0</ele><time>2026-05-02T09:45:07.14Z</time></trkpt><trkpt lat="47.7342117" lon="-1.89675"><ele>80.0</ele><time>2026-05-02T09:45:08.14Z</time></trkpt><trkpt lat="47.7342067" lon="-1.8969717"><ele>80.0</ele><time>2026-05-02T09:45:09.141Z</time></trkpt><trkpt lat="47.7342" lon="-1.8971667"><ele>80.0</ele><time>2026-05-02T09:45:10.14Z</time></trkpt><trkpt lat="47.7341967" lon="-1.89734"><ele>80.0</ele><time>2026-05-02T09:45:11.139Z</time></trkpt><trkpt lat="47.7341917" lon="-1.8975"><ele>80.0</ele><time>2026-05-02T09:45:12.141Z</time></trkpt><trkpt lat="47.7341833" lon="-1.8976483"><ele>79.83333333333334</ele><time>2026-05-02T09:45:13.14Z</time></trkpt><trkpt lat="47.734175" lon="-1.89778"><ele>79.66666666666667</ele><time>2026-05-02T09:45:14.14Z</time></trkpt><trkpt lat="47.73417" lon="-1.8978983"><ele>79.5</ele><time>2026-05-02T09:45:15.14Z</time></trkpt><trkpt lat="47.7341683" lon="-1.89801"><ele>79.33333333333333</ele><time>2026-05-02T09:45:16.14Z</time></trkpt><trkpt lat="47.7341583" lon="-1.8981083"><ele>79.16666666666666</ele><time>2026-05-02T09:45:17.141Z</time></trkpt><trkpt lat="47.734155" lon="-1.8982033"><ele>79.0</ele><time>2026-05-02T09:45:18.14Z</time></trkpt><trkpt lat="47.734155" lon="-1.898375"><ele>78.60000000000001</ele><time>2026-05-02T09:45:20.14Z</time></trkpt><trkpt lat="47.7341533" lon="-1.898505"><ele>78.2</ele><time>2026-05-02T09:45:22.14Z</time></trkpt><trkpt lat="47.73416" lon="-1.8986467"><ele>77.80000000000001</ele><time>2026-05-02T09:45:24.143Z</time></trkpt><trkpt lat="47.7341633" lon="-1.8987733"><ele>77.4</ele><time>2026-05-02T09:45:26.14Z</time></trkpt><trkpt lat="47.734165" lon="-1.8989083"><ele>77.0</ele><time>2026-05-02T09:45:28.14Z</time></trkpt><trkpt lat="47.7341567" lon="-1.8990517"><ele>77.0</ele><time>2026-05-02T09:45:30.14Z</time></trkpt><trkpt lat="47.734155" lon="-1.899225"><ele>77.0</ele><time>2026-05-02T09:45:32.14Z</time></trkpt><trkpt lat="47.7341533" lon="-1.8993333"><ele>77.0</ele><time>2026-05-02T09:45:33.141Z</time></trkpt><trkpt lat="47.7341517" lon="-1.8994533"><ele>77.0</ele><time>2026-05-02T09:45:34.139Z</time></trkpt><trkpt lat="47.7341533" lon="-1.8995767"><ele>77.0</ele><time>2026-05-02T09:45:35.139Z</time></trkpt><trkpt lat="47.734155" lon="-1.8997033"><ele>77.0</ele><time>2026-05-02T09:45:36.139Z</time></trkpt><trkpt lat="47.73415" lon="-1.8998267"><ele>76.66666666666667</ele><time>2026-05-02T09:45:37.14Z</time></trkpt><trkpt lat="47.7341483" lon="-1.8999483"><ele>76.33333333333334</ele><time>2026-05-02T09:45:38.139Z</time></trkpt><trkpt lat="47.7341367" lon="-1.900065"><ele>76.0</ele><time>2026-05-02T09:45:39.14Z</time></trkpt><trkpt lat="47.7341283" lon="-1.90018"><ele>75.66666666666667</ele><time>2026-05-02T09:45:40.141Z</time></trkpt><trkpt lat="47.7341217" lon="-1.9003017"><ele>75.33333333333333</ele><time>2026-05-02T09:45:41.145Z</time></trkpt><trkpt lat="47.7341183" lon="-1.90042"><ele>75.0</ele><time>2026-05-02T09:45:42.142Z</time></trkpt><trkpt lat="47.7341183" lon="-1.90054"><ele>74.57142857142857</ele><time>2026-05-02T09:45:43.141Z</time></trkpt><trkpt lat="47.7341183" lon="-1.900655"><ele>74.14285714285714</ele><time>2026-05-02T09:45:44.14Z</time></trkpt><trkpt lat="47.734115" lon="-1.9007633"><ele>73.71428571428572</ele><time>2026-05-02T09:45:45.141Z</time></trkpt><trkpt lat="47.73411" lon="-1.9008667"><ele>73.28571428571428</ele><time>2026-05-02T09:45:46.139Z</time></trkpt><trkpt lat="47.73411" lon="-1.9009667"><ele>72.85714285714286</ele><time>2026-05-02T09:45:47.14Z</time></trkpt><trkpt lat="47.7341" lon="-1.9010617"><ele>72.42857142857143</ele><time>2026-05-02T09:45:48.139Z</time></trkpt><trkpt lat="47.7340983" lon="-1.9011583"><ele>72.0</ele><time>2026-05-02T09:45:49.14Z</time></trkpt><trkpt lat="47.734105" lon="-1.90126"><ele>71.0</ele><time>2026-05-02T09:45:50.141Z</time></trkpt><trkpt lat="47.7341083" lon="-1.9013617"><ele>70.0</ele><time>2026-05-02T09:45:51.14Z</time></trkpt><trkpt lat="47.7341117" lon="-1.9014567"><ele>69.0</ele><time>2026-05-02T09:45:52.139Z</time></trkpt><trkpt lat="47.7341133" lon="-1.9016383"><ele>68.0</ele><time>2026-05-02T09:45:54.141Z</time></trkpt><trkpt lat="47.73412" lon="-1.9017983"><ele>67.0</ele><time>2026-05-02T09:45:56.14Z</time></trkpt><trkpt lat="47.7341133" lon="-1.901935"><ele>66.6</ele><time>2026-05-02T09:45:58.141Z</time></trkpt><trkpt lat="47.734105" lon="-1.9020467"><ele>66.2</ele><time>2026-05-02T09:46:00.143Z</time></trkpt><trkpt lat="47.7340733" lon="-1.902175"><ele>65.8</ele><time>2026-05-02T09:46:02.14Z</time></trkpt><trkpt lat="47.7340133" lon="-1.902305"><ele>65.4</ele><time>2026-05-02T09:46:04.141Z</time></trkpt><trkpt lat="47.7339167" lon="-1.9024167"><ele>65.0</ele><time>2026-05-02T09:46:06.14Z</time></trkpt><trkpt lat="47.7338583" lon="-1.90246"><ele>65.00000000000001</ele><time>2026-05-02T09:46:07.14Z</time></trkpt><trkpt lat="47.7338017" lon="-1.902505"><ele>65.0</ele><time>2026-05-02T09:46:08.139Z</time></trkpt><trkpt lat="47.7337433" lon="-1.9025517"><ele>65.0</ele><time>2026-05-02T09:46:09.14Z</time></trkpt><trkpt lat="47.7336833" lon="-1.9025967"><ele>65.0</ele><time>2026-05-02T09:46:10.14Z</time></trkpt><trkpt lat="47.73358" lon="-1.9026817"><ele>65.0</ele><time>2026-05-02T09:46:12.14Z</time></trkpt><trkpt lat="47.7335233" lon="-1.9027283"><ele>65.00000000000001</ele><time>2026-05-02T09:46:13.141Z</time></trkpt><trkpt lat="47.7334667" lon="-1.9027817"><ele>65.0</ele><time>2026-05-02T09:46:14.14Z</time></trkpt><trkpt lat="47.7334083" lon="-1.902835"><ele>64.0</ele><time>2026-05-02T09:46:15.141Z</time></trkpt><trkpt lat="47.7333417" lon="-1.90289"><ele>63.0</ele><time>2026-05-02T09:46:16.14Z</time></trkpt><trkpt lat="47.7332667" lon="-1.9029667"><ele>62.0</ele><time>2026-05-02T09:46:17.14Z</time></trkpt><trkpt lat="47.7331917" lon="-1.9030333"><ele>61.0</ele><time>2026-05-02T09:46:18.141Z</time></trkpt><trkpt lat="47.7331083" lon="-1.9030867"><ele>60.00000000000001</ele><time>2026-05-02T09:46:19.14Z</time></trkpt><trkpt lat="47.73303" lon="-1.9031367"><ele>59.0</ele><time>2026-05-02T09:46:20.139Z</time></trkpt><trkpt lat="47.7329583" lon="-1.9031817"><ele>59.00000000000001</ele><time>2026-05-02T09:46:21.14Z</time></trkpt><trkpt lat="47.7328867" lon="-1.9032383"><ele>59.0</ele><time>2026-05-02T09:46:22.139Z</time></trkpt><trkpt lat="47.732815" lon="-1.9032967"><ele>59.0</ele><time>2026-05-02T09:46:23.144Z</time></trkpt><trkpt lat="47.7327433" lon="-1.9033583"><ele>59.0</ele><time>2026-05-02T09:46:24.139Z</time></trkpt><trkpt lat="47.73267" lon="-1.90342"><ele>59.00000000000001</ele><time>2026-05-02T09:46:25.14Z</time></trkpt><trkpt lat="47.7325967" lon="-1.9034733"><ele>59.0</ele><time>2026-05-02T09:46:26.141Z</time></trkpt><trkpt lat="47.7325083" lon="-1.9035333"><ele>58.400000000000006</ele><time>2026-05-02T09:46:27.14Z</time></trkpt><trkpt lat="47.7324083" lon="-1.90361"><ele>57.800000000000004</ele><time>2026-05-02T09:46:28.14Z</time></trkpt><trkpt lat="47.7323317" lon="-1.90368"><ele>57.199999999999996</ele><time>2026-05-02T09:46:29.139Z</time></trkpt><trkpt lat="47.732255" lon="-1.9037483"><ele>56.599999999999994</ele><time>2026-05-02T09:46:30.145Z</time></trkpt><trkpt lat="47.73217" lon="-1.90381"><ele>56.0</ele><time>2026-05-02T09:46:31.14Z</time></trkpt><trkpt lat="47.73209" lon="-1.9038767"><ele>56.00000000000001</ele><time>2026-05-02T09:46:32.139Z</time></trkpt><trkpt lat="47.73201" lon="-1.9039333"><ele>56.0</ele><time>2026-05-02T09:46:33.139Z</time></trkpt><trkpt lat="47.7319267" lon="-1.90397"><ele>56.0</ele><time>2026-05-02T09:46:34.139Z</time></trkpt><trkpt lat="47.731845" lon="-1.9039967"><ele>56.0</ele><time>2026-05-02T09:46:35.14Z</time></trkpt><trkpt lat="47.7317617" lon="-1.904015"><ele>56.00000000000001</ele><time>2026-05-02T09:46:36.139Z</time></trkpt><trkpt lat="47.731675" lon="-1.9040217"><ele>56.0</ele><time>2026-05-02T09:46:37.139Z</time></trkpt><trkpt lat="47.7315867" lon="-1.9040183"><ele>54.833333333333336</ele><time>2026-05-02T09:46:38.139Z</time></trkpt><trkpt lat="47.7314933" lon="-1.9040083"><ele>53.66666666666667</ele><time>2026-05-02T09:46:39.139Z</time></trkpt><trkpt lat="47.7314033" lon="-1.9039917"><ele>52.5</ele><time>2026-05-02T09:46:40.139Z</time></trkpt><trkpt lat="47.7313233" lon="-1.9039717"><ele>51.33333333333333</ele><time>2026-05-02T09:46:41.139Z</time></trkpt><trkpt lat="47.7312483" lon="-1.903955"><ele>50.166666666666664</ele><time>2026-05-02T09:46:42.139Z</time></trkpt><trkpt lat="47.7311783" lon="-1.9039483"><ele>49.0</ele><time>2026-05-02T09:46:43.142Z</time></trkpt><trkpt lat="47.7311067" lon="-1.9039483"><ele>48.49999999999999</ele><time>2026-05-02T09:46:44.14Z</time></trkpt><trkpt lat="47.7310117" lon="-1.9039917"><ele>48.0</ele><time>2026-05-02T09:46:46.139Z</time></trkpt><trkpt lat="47.7309683" lon="-1.90413"><ele>47.5</ele><time>2026-05-02T09:46:48.142Z</time></trkpt><trkpt lat="47.7309667" lon="-1.9042367"><ele>47.0</ele><time>2026-05-02T09:46:49.141Z</time></trkpt><trkpt lat="47.73097" lon="-1.9043567"><ele>46.5</ele><time>2026-05-02T09:46:50.141Z</time></trkpt><trkpt lat="47.7309717" lon="-1.9044817"><ele>46.0</ele><time>2026-05-02T09:46:51.143Z</time></trkpt><trkpt lat="47.7309767" lon="-1.90461"><ele>45.4</ele><time>2026-05-02T09:46:52.141Z</time></trkpt><trkpt lat="47.7309783" lon="-1.9047383"><ele>44.8</ele><time>2026-05-02T09:46:53.141Z</time></trkpt><trkpt lat="47.73098" lon="-1.90487"><ele>44.199999999999996</ele><time>2026-05-02T09:46:54.141Z</time></trkpt><trkpt lat="47.7309783" lon="-1.905005"><ele>43.599999999999994</ele><time>2026-05-02T09:46:55.141Z</time></trkpt><trkpt lat="47.730975" lon="-1.9051433"><ele>43.0</ele><time>2026-05-02T09:46:56.14Z</time></trkpt><trkpt lat="47.7309717" lon="-1.9052867"><ele>43.0</ele><time>2026-05-02T09:46:57.14Z</time></trkpt><trkpt lat="47.7309717" lon="-1.9054267"><ele>43.0</ele><time>2026-05-02T09:46:58.139Z</time></trkpt><trkpt lat="47.7309683" lon="-1.9055633"><ele>43.0</ele><time>2026-05-02T09:46:59.139Z</time></trkpt><trkpt lat="47.730965" lon="-1.9056883"><ele>43.0</ele><time>2026-05-02T09:47:00.14Z</time></trkpt><trkpt lat="47.7309617" lon="-1.9058133"><ele>43.0</ele><time>2026-05-02T09:47:01.14Z</time></trkpt><trkpt lat="47.73096" lon="-1.9059367"><ele>43.0</ele><time>2026-05-02T09:47:02.139Z</time></trkpt><trkpt lat="47.7309583" lon="-1.9060617"><ele>43.0</ele><time>2026-05-02T09:47:03.14Z</time></trkpt><trkpt lat="47.7309533" lon="-1.906195"><ele>43.0</ele><time>2026-05-02T09:47:04.14Z</time></trkpt><trkpt lat="47.7309467" lon="-1.90633"><ele>43.0</ele><time>2026-05-02T09:47:05.141Z</time></trkpt><trkpt lat="47.7309467" lon="-1.9064617"><ele>43.0</ele><time>2026-05-02T09:47:06.14Z</time></trkpt><trkpt lat="47.730945" lon="-1.9065883"><ele>43.0</ele><time>2026-05-02T09:47:07.142Z</time></trkpt><trkpt lat="47.7309433" lon="-1.90671"><ele>43.0</ele><time>2026-05-02T09:47:08.139Z</time></trkpt><trkpt lat="47.7309383" lon="-1.906835"><ele>43.16666666666667</ele><time>2026-05-02T09:47:09.142Z</time></trkpt><trkpt lat="47.7309367" lon="-1.9069617"><ele>43.333333333333336</ele><time>2026-05-02T09:47:10.142Z</time></trkpt><trkpt lat="47.7309317" lon="-1.9070867"><ele>43.5</ele><time>2026-05-02T09:47:11.14Z</time></trkpt><trkpt lat="47.7309317" lon="-1.9072133"><ele>43.666666666666664</ele><time>2026-05-02T09:47:12.139Z</time></trkpt><trkpt lat="47.73093" lon="-1.90734"><ele>43.83333333333333</ele><time>2026-05-02T09:47:13.139Z</time></trkpt><trkpt lat="47.7309217" lon="-1.9074667"><ele>44.0</ele><time>2026-05-02T09:47:14.14Z</time></trkpt><trkpt lat="47.730915" lon="-1.90759"><ele>44.6</ele><time>2026-05-02T09:47:15.14Z</time></trkpt><trkpt lat="47.7309117" lon="-1.9077033"><ele>45.2</ele><time>2026-05-02T09:47:16.14Z</time></trkpt><trkpt lat="47.7309133" lon="-1.9078233"><ele>45.800000000000004</ele><time>2026-05-02T09:47:17.139Z</time></trkpt><trkpt lat="47.7309117" lon="-1.9079567"><ele>46.400000000000006</ele><time>2026-05-02T09:47:18.139Z</time></trkpt><trkpt lat="47.7309067" lon="-1.908105"><ele>47.0</ele><time>2026-05-02T09:47:19.14Z</time></trkpt><trkpt lat="47.7309033" lon="-1.9082683"><ele>47.25</ele><time>2026-05-02T09:47:20.141Z</time></trkpt><trkpt lat="47.7308983" lon="-1.9084367"><ele>47.5</ele><time>2026-05-02T09:47:21.139Z</time></trkpt><trkpt lat="47.7308933" lon="-1.90861"><ele>47.75</ele><time>2026-05-02T09:47:22.139Z</time></trkpt><trkpt lat="47.7308883" lon="-1.9087883"><ele>48.0</ele><time>2026-05-02T09:47:23.14Z</time></trkpt><trkpt lat="47.730885" lon="-1.9089733"><ele>48.0</ele><time>2026-05-02T09:47:24.14Z</time></trkpt><trkpt lat="47.7308817" lon="-1.90916"><ele>48.0</ele><time>2026-05-02T09:47:25.14Z</time></trkpt><trkpt lat="47.7308783" lon="-1.9093383"><ele>48.0</ele><time>2026-05-02T09:47:26.139Z</time></trkpt><trkpt lat="47.730875" lon="-1.9095133"><ele>48.0</ele><time>2026-05-02T09:47:27.141Z</time></trkpt><trkpt lat="47.73087" lon="-1.9096867"><ele>48.75</ele><time>2026-05-02T09:47:28.139Z</time></trkpt><trkpt lat="47.7308683" lon="-1.9098517"><ele>49.5</ele><time>2026-05-02T09:47:29.138Z</time></trkpt><trkpt lat="47.730865" lon="-1.910015"><ele>50.25</ele><time>2026-05-02T09:47:30.139Z</time></trkpt><trkpt lat="47.7308633" lon="-1.910185"><ele>51.0</ele><time>2026-05-02T09:47:31.139Z</time></trkpt><trkpt lat="47.73086" lon="-1.9103633"><ele>51.25</ele><time>2026-05-02T09:47:32.139Z</time></trkpt><trkpt lat="47.7308567" lon="-1.9105517"><ele>51.5</ele><time>2026-05-02T09:47:33.14Z</time></trkpt><trkpt lat="47.73085" lon="-1.9107383"><ele>51.75</ele><time>2026-05-02T09:47:34.14Z</time></trkpt><trkpt lat="47.7308433" lon="-1.9109083"><ele>52.0</ele><time>2026-05-02T09:47:35.139Z</time></trkpt><trkpt lat="47.73084" lon="-1.9110683"><ele>51.666666666666664</ele><time>2026-05-02T09:47:36.14Z</time></trkpt><trkpt lat="47.7308417" lon="-1.9111983"><ele>51.33333333333333</ele><time>2026-05-02T09:47:37.144Z</time></trkpt><trkpt lat="47.73084" lon="-1.9113083"><ele>51.0</ele><time>2026-05-02T09:47:38.139Z</time></trkpt><trkpt lat="47.7308383" lon="-1.9114517"><ele>50.66666666666667</ele><time>2026-05-02T09:47:40.139Z</time></trkpt><trkpt lat="47.7308367" lon="-1.9115733"><ele>50.333333333333336</ele><time>2026-05-02T09:47:42.14Z</time></trkpt><trkpt lat="47.7308417" lon="-1.9117317"><ele>50.0</ele><time>2026-05-02T09:47:44.139Z</time></trkpt><trkpt lat="47.7308417" lon="-1.9118267"><ele>49.85714285714286</ele><time>2026-05-02T09:47:45.14Z</time></trkpt><trkpt lat="47.73084" lon="-1.9119317"><ele>49.714285714285715</ele><time>2026-05-02T09:47:46.14Z</time></trkpt><trkpt lat="47.7308383" lon="-1.912035"><ele>49.57142857142857</ele><time>2026-05-02T09:47:47.139Z</time></trkpt><trkpt lat="47.7308367" lon="-1.9121433"><ele>49.42857142857143</ele><time>2026-05-02T09:47:48.139Z</time></trkpt><trkpt lat="47.730835" lon="-1.9122517"><ele>49.285714285714285</ele><time>2026-05-02T09:47:49.139Z</time></trkpt><trkpt lat="47.7308333" lon="-1.9123633"><ele>49.142857142857146</ele><time>2026-05-02T09:47:50.141Z</time></trkpt><trkpt lat="47.7308317" lon="-1.9124683"><ele>49.0</ele><time>2026-05-02T09:47:51.141Z</time></trkpt><trkpt lat="47.730825" lon="-1.9125717"><ele>48.714285714285715</ele><time>2026-05-02T09:47:52.14Z</time></trkpt><trkpt lat="47.73082" lon="-1.91267"><ele>48.42857142857143</ele><time>2026-05-02T09:47:53.144Z</time></trkpt><trkpt lat="47.7308167" lon="-1.912765"><ele>48.14285714285714</ele><time>2026-05-02T09:47:54.142Z</time></trkpt><trkpt lat="47.730815" lon="-1.9128667"><ele>47.85714285714286</ele><time>2026-05-02T09:47:55.14Z</time></trkpt><trkpt lat="47.7308083" lon="-1.9129717"><ele>47.57142857142857</ele><time>2026-05-02T09:47:56.139Z</time></trkpt><trkpt lat="47.7308017" lon="-1.91308"><ele>47.285714285714285</ele><time>2026-05-02T09:47:57.139Z</time></trkpt><trkpt lat="47.7307917" lon="-1.9131867"><ele>47.0</ele><time>2026-05-02T09:47:58.139Z</time></trkpt><trkpt lat="47.7307767" lon="-1.9132983"><ele>46.666666666666664</ele><time>2026-05-02T09:47:59.139Z</time></trkpt><trkpt lat="47.7307617" lon="-1.9134067"><ele>46.33333333333333</ele><time>2026-05-02T09:48:00.14Z</time></trkpt><trkpt lat="47.730745" lon="-1.913515"><ele>46.0</ele><time>2026-05-02T09:48:01.142Z</time></trkpt><trkpt lat="47.730725" lon="-1.91363"><ele>45.666666666666664</ele><time>2026-05-02T09:48:02.14Z</time></trkpt><trkpt lat="47.7307" lon="-1.913745"><ele>45.333333333333336</ele><time>2026-05-02T09:48:03.14Z</time></trkpt><trkpt lat="47.7306717" lon="-1.9138667"><ele>45.0</ele><time>2026-05-02T09:48:04.142Z</time></trkpt><trkpt lat="47.7306467" lon="-1.91399"><ele>45.0</ele><time>2026-05-02T09:48:05.141Z</time></trkpt><trkpt lat="47.7306233" lon="-1.91411"><ele>45.0</ele><time>2026-05-02T09:48:06.145Z</time></trkpt><trkpt lat="47.730595" lon="-1.9142317"><ele>45.0</ele><time>2026-05-02T09:48:07.14Z</time></trkpt><trkpt lat="47.7305717" lon="-1.9143583"><ele>45.0</ele><time>2026-05-02T09:48:08.14Z</time></trkpt><trkpt lat="47.7305433" lon="-1.914485"><ele>45.0</ele><time>2026-05-02T09:48:09.141Z</time></trkpt><trkpt lat="47.7305117" lon="-1.9146033"><ele>45.0</ele><time>2026-05-02T09:48:10.142Z</time></trkpt><trkpt lat="47.730485" lon="-1.9147267"><ele>45.0</ele><time>2026-05-02T09:48:11.14Z</time></trkpt><trkpt lat="47.7304617" lon="-1.91485"><ele>45.0</ele><time>2026-05-02T09:48:12.14Z</time></trkpt><trkpt lat="47.7304383" lon="-1.9149833"><ele>45.0</ele><time>2026-05-02T09:48:13.14Z</time></trkpt><trkpt lat="47.7304167" lon="-1.91511"><ele>45.0</ele><time>2026-05-02T09:48:14.14Z</time></trkpt><trkpt lat="47.7303933" lon="-1.9152333"><ele>45.0</ele><time>2026-05-02T09:48:15.14Z</time></trkpt><trkpt lat="47.7303733" lon="-1.9153583"><ele>45.0</ele><time>2026-05-02T09:48:16.141Z</time></trkpt><trkpt lat="47.73035" lon="-1.9154783"><ele>45.42857142857142</ele><time>2026-05-02T09:48:17.14Z</time></trkpt><trkpt lat="47.73033" lon="-1.9155917"><ele>45.85714285714286</ele><time>2026-05-02T09:48:18.14Z</time></trkpt><trkpt lat="47.730305" lon="-1.9156967"><ele>46.285714285714285</ele><time>2026-05-02T09:48:19.142Z</time></trkpt><trkpt lat="47.7302817" lon="-1.915795"><ele>46.71428571428571</ele><time>2026-05-02T09:48:20.141Z</time></trkpt><trkpt lat="47.73026" lon="-1.915895"><ele>47.14285714285714</ele><time>2026-05-02T09:48:21.141Z</time></trkpt><trkpt lat="47.730235" lon="-1.9159967"><ele>47.57142857142857</ele><time>2026-05-02T09:48:22.141Z</time></trkpt><trkpt lat="47.730215" lon="-1.9160983"><ele>48.0</ele><time>2026-05-02T09:48:23.141Z</time></trkpt><trkpt lat="47.7301867" lon="-1.9162133"><ele>47.166666666666664</ele><time>2026-05-02T09:48:24.142Z</time></trkpt><trkpt lat="47.7301617" lon="-1.9163267"><ele>46.333333333333336</ele><time>2026-05-02T09:48:25.142Z</time></trkpt><trkpt lat="47.730145" lon="-1.9164433"><ele>45.5</ele><time>2026-05-02T09:48:26.141Z</time></trkpt><trkpt lat="47.7301317" lon="-1.9165633"><ele>44.66666666666667</ele><time>2026-05-02T09:48:27.141Z</time></trkpt><trkpt lat="47.7301117" lon="-1.9166817"><ele>43.833333333333336</ele><time>2026-05-02T09:48:28.142Z</time></trkpt><trkpt lat="47.7300933" lon="-1.916805"><ele>43.0</ele><time>2026-05-02T09:48:29.141Z</time></trkpt><trkpt lat="47.730075" lon="-1.9169267"><ele>43.0</ele><time>2026-05-02T09:48:30.141Z</time></trkpt><trkpt lat="47.7300617" lon="-1.917045"><ele>43.0</ele><time>2026-05-02T09:48:31.143Z</time></trkpt><trkpt lat="47.7300483" lon="-1.9171617"><ele>43.0</ele><time>2026-05-02T09:48:32.141Z</time></trkpt><trkpt lat="47.73004" lon="-1.9172833"><ele>43.0</ele><time>2026-05-02T09:48:33.142Z</time></trkpt><trkpt lat="47.7300317" lon="-1.9174"><ele>43.0</ele><time>2026-05-02T09:48:34.142Z</time></trkpt><trkpt lat="47.73002" lon="-1.91751"><ele>43.0</ele><time>2026-05-02T09:48:35.141Z</time></trkpt><trkpt lat="47.7300117" lon="-1.9176133"><ele>42.333333333333336</ele><time>2026-05-02T09:48:36.141Z</time></trkpt><trkpt lat="47.7300033" lon="-1.917715"><ele>41.66666666666667</ele><time>2026-05-02T09:48:37.141Z</time></trkpt><trkpt lat="47.7299917" lon="-1.91783"><ele>41.0</ele><time>2026-05-02T09:48:38.141Z</time></trkpt><trkpt lat="47.729975" lon="-1.9179533"><ele>40.333333333333336</ele><time>2026-05-02T09:48:39.142Z</time></trkpt><trkpt lat="47.72996" lon="-1.9180767"><ele>39.666666666666664</ele><time>2026-05-02T09:48:40.144Z</time></trkpt><trkpt lat="47.729945" lon="-1.9181983"><ele>39.0</ele><time>2026-05-02T09:48:41.141Z</time></trkpt><trkpt lat="47.72993" lon="-1.9183167"><ele>39.8</ele><time>2026-05-02T09:48:42.142Z</time></trkpt><trkpt lat="47.7299133" lon="-1.918425"><ele>40.599999999999994</ele><time>2026-05-02T09:48:43.142Z</time></trkpt><trkpt lat="47.7299" lon="-1.91853"><ele>41.4</ele><time>2026-05-02T09:48:44.141Z</time></trkpt><trkpt lat="47.729875" lon="-1.9187083"><ele>42.199999999999996</ele><time>2026-05-02T09:48:46.142Z</time></trkpt><trkpt lat="47.7298517" lon="-1.9188783"><ele>43.0</ele><time>2026-05-02T09:48:48.141Z</time></trkpt><trkpt lat="47.7298317" lon="-1.919035"><ele>43.0</ele><time>2026-05-02T09:48:50.141Z</time></trkpt><trkpt lat="47.7298117" lon="-1.91919"><ele>43.0</ele><time>2026-05-02T09:48:52.142Z</time></trkpt><trkpt lat="47.7297883" lon="-1.9193467"><ele>43.0</ele><time>2026-05-02T09:48:54.142Z</time></trkpt><trkpt lat="47.7297717" lon="-1.9195033"><ele>43.0</ele><time>2026-05-02T09:48:56.142Z</time></trkpt><trkpt lat="47.7297467" lon="-1.9196467"><ele>43.0</ele><time>2026-05-02T09:48:58.143Z</time></trkpt><trkpt lat="47.7297267" lon="-1.9198167"><ele>43.42857142857143</ele><time>2026-05-02T09:49:00.14Z</time></trkpt><trkpt lat="47.7297283" lon="-1.9199183"><ele>43.85714285714286</ele><time>2026-05-02T09:49:01.139Z</time></trkpt><trkpt lat="47.7297317" lon="-1.9200217"><ele>44.28571428571429</ele><time>2026-05-02T09:49:02.14Z</time></trkpt><trkpt lat="47.729735" lon="-1.9201267"><ele>44.714285714285715</ele><time>2026-05-02T09:49:03.142Z</time></trkpt><trkpt lat="47.7297383" lon="-1.9202317"><ele>45.14285714285714</ele><time>2026-05-02T09:49:04.141Z</time></trkpt><trkpt lat="47.72974" lon="-1.9203333"><ele>45.57142857142858</ele><time>2026-05-02T09:49:05.139Z</time></trkpt><trkpt lat="47.729745" lon="-1.9204333"><ele>46.0</ele><time>2026-05-02T09:49:06.14Z</time></trkpt><trkpt lat="47.7297433" lon="-1.9206133"><ele>46.16666666666667</ele><time>2026-05-02T09:49:08.14Z</time></trkpt><trkpt lat="47.7297417" lon="-1.9207083"><ele>46.333333333333336</ele><time>2026-05-02T09:49:09.141Z</time></trkpt><trkpt lat="47.7297417" lon="-1.9208033"><ele>46.5</ele><time>2026-05-02T09:49:10.14Z</time></trkpt><trkpt lat="47.7297183" lon="-1.920985"><ele>46.666666666666664</ele><time>2026-05-02T09:49:12.14Z</time></trkpt><trkpt lat="47.729705" lon="-1.9210933"><ele>46.83333333333333</ele><time>2026-05-02T09:49:13.14Z</time></trkpt><trkpt lat="47.729695" lon="-1.921205"><ele>47.0</ele><time>2026-05-02T09:49:14.14Z</time></trkpt><trkpt lat="47.7296883" lon="-1.9213167"><ele>47.0</ele><time>2026-05-02T09:49:15.145Z</time></trkpt><trkpt lat="47.7296783" lon="-1.9214433"><ele>47.0</ele><time>2026-05-02T09:49:16.14Z</time></trkpt><trkpt lat="47.72967" lon="-1.9215633"><ele>47.0</ele><time>2026-05-02T09:49:17.14Z</time></trkpt><trkpt lat="47.7296633" lon="-1.92168"><ele>47.0</ele><time>2026-05-02T09:49:18.14Z</time></trkpt><trkpt lat="47.729655" lon="-1.9217917"><ele>47.0</ele><time>2026-05-02T09:49:19.14Z</time></trkpt><trkpt lat="47.7296433" lon="-1.9219017"><ele>47.0</ele><time>2026-05-02T09:49:20.141Z</time></trkpt><trkpt lat="47.7296367" lon="-1.92201"><ele>47.285714285714285</ele><time>2026-05-02T09:49:21.14Z</time></trkpt><trkpt lat="47.72963" lon="-1.9221117"><ele>47.57142857142857</ele><time>2026-05-02T09:49:22.141Z</time></trkpt><trkpt lat="47.7296233" lon="-1.9222217"><ele>47.85714285714286</ele><time>2026-05-02T09:49:23.14Z</time></trkpt><trkpt lat="47.729615" lon="-1.9223317"><ele>48.14285714285714</ele><time>2026-05-02T09:49:24.141Z</time></trkpt><trkpt lat="47.729605" lon="-1.92244"><ele>48.42857142857143</ele><time>2026-05-02T09:49:25.14Z</time></trkpt><trkpt lat="47.7296" lon="-1.9225483"><ele>48.714285714285715</ele><time>2026-05-02T09:49:26.14Z</time></trkpt><trkpt lat="47.7295983" lon="-1.9226567"><ele>49.0</ele><time>2026-05-02T09:49:27.14Z</time></trkpt><trkpt lat="47.729605" lon="-1.92276"><ele>49.49999999999999</ele><time>2026-05-02T09:49:28.14Z</time></trkpt><trkpt lat="47.72961" lon="-1.9228667"><ele>50.0</ele><time>2026-05-02T09:49:29.139Z</time></trkpt><trkpt lat="47.729615" lon="-1.9229733"><ele>50.5</ele><time>2026-05-02T09:49:30.14Z</time></trkpt><trkpt lat="47.7296133" lon="-1.9230783"><ele>51.0</ele><time>2026-05-02T09:49:31.14Z</time></trkpt><trkpt lat="47.72961" lon="-1.9231767"><ele>51.49999999999999</ele><time>2026-05-02T09:49:32.14Z</time></trkpt><trkpt lat="47.7296017" lon="-1.9233533"><ele>52.0</ele><time>2026-05-02T09:49:34.142Z</time></trkpt><trkpt lat="47.7296083" lon="-1.9234933"><ele>52.25</ele><time>2026-05-02T09:49:36.14Z</time></trkpt><trkpt lat="47.7295817" lon="-1.9236983"><ele>52.5</ele><time>2026-05-02T09:51:04.141Z</time></trkpt><trkpt lat="47.729605" lon="-1.9239433"><ele>52.75</ele><time>2026-05-02T09:51:09.141Z</time></trkpt><trkpt lat="47.72961" lon="-1.9240567"><ele>53.0</ele><time>2026-05-02T09:51:11.141Z</time></trkpt><trkpt lat="47.7296167" lon="-1.9241683"><ele>52.599999999999994</ele><time>2026-05-02T09:51:13.14Z</time></trkpt><trkpt lat="47.7296383" lon="-1.92429"><ele>52.199999999999996</ele><time>2026-05-02T09:51:15.141Z</time></trkpt><trkpt lat="47.7296633" lon="-1.92442"><ele>51.8</ele><time>2026-05-02T09:51:17.14Z</time></trkpt><trkpt lat="47.7296983" lon="-1.9245467"><ele>51.4</ele><time>2026-05-02T09:51:19.141Z</time></trkpt><trkpt lat="47.7297433" lon="-1.9246883"><ele>51.0</ele><time>2026-05-02T09:51:21.141Z</time></trkpt><trkpt lat="47.7297917" lon="-1.9248333"><ele>51.0</ele><time>2026-05-02T09:51:23.144Z</time></trkpt><trkpt lat="47.7298483" lon="-1.92499"><ele>51.0</ele><time>2026-05-02T09:51:25.141Z</time></trkpt><trkpt lat="47.729905" lon="-1.9251433"><ele>51.0</ele><time>2026-05-02T09:51:27.141Z</time></trkpt><trkpt lat="47.72995" lon="-1.92528"><ele>51.0</ele><time>2026-05-02T09:51:29.14Z</time></trkpt><trkpt lat="47.73" lon="-1.9253917"><ele>51.0</ele><time>2026-05-02T09:51:31.141Z</time></trkpt><trkpt lat="47.7300517" lon="-1.9254983"><ele>51.166666666666664</ele><time>2026-05-02T09:51:33.142Z</time></trkpt><trkpt lat="47.7300983" lon="-1.9256"><ele>51.33333333333333</ele><time>2026-05-02T09:51:35.14Z</time></trkpt><trkpt lat="47.7301583" lon="-1.92571"><ele>51.5</ele><time>2026-05-02T09:51:37.14Z</time></trkpt><trkpt lat="47.73021" lon="-1.9258267"><ele>51.666666666666664</ele><time>2026-05-02T09:51:39.141Z</time></trkpt><trkpt lat="47.7302533" lon="-1.9259333"><ele>51.83333333333333</ele><time>2026-05-02T09:51:41.14Z</time></trkpt><trkpt lat="47.7302817" lon="-1.9260233"><ele>52.0</ele><time>2026-05-02T09:51:43.141Z</time></trkpt><trkpt lat="47.7303267" lon="-1.92615"><ele>51.99999999999999</ele><time>2026-05-02T09:51:46.139Z</time></trkpt><trkpt lat="47.7303617" lon="-1.92623"><ele>52.0</ele><time>2026-05-02T09:51:48.141Z</time></trkpt><trkpt lat="47.7303933" lon="-1.926315"><ele>52.0</ele><time>2026-05-02T09:51:50.141Z</time></trkpt><trkpt lat="47.730445" lon="-1.9264183"><ele>52.0</ele><time>2026-05-02T09:51:53.14Z</time></trkpt><trkpt lat="47.7304817" lon="-1.926525"><ele>51.99999999999999</ele><time>2026-05-02T09:51:56.14Z</time></trkpt><trkpt lat="47.73053" lon="-1.9266867"><ele>52.0</ele><time>2026-05-02T09:52:12.14Z</time></trkpt><trkpt lat="47.730565" lon="-1.926805"><ele>51.2</ele><time>2026-05-02T09:52:14.139Z</time></trkpt><trkpt lat="47.7306083" lon="-1.9269483"><ele>50.400000000000006</ele><time>2026-05-02T09:52:16.141Z</time></trkpt><trkpt lat="47.73066" lon="-1.92709"><ele>49.599999999999994</ele><time>2026-05-02T09:52:18.139Z</time></trkpt><trkpt lat="47.7307133" lon="-1.9272"><ele>48.8</ele><time>2026-05-02T09:52:20.139Z</time></trkpt><trkpt lat="47.7307667" lon="-1.9273033"><ele>48.0</ele><time>2026-05-02T09:52:22.14Z</time></trkpt><trkpt lat="47.730825" lon="-1.9273767"><ele>48.0</ele><time>2026-05-02T09:52:24.14Z</time></trkpt><trkpt lat="47.730885" lon="-1.927465"><ele>48.0</ele><time>2026-05-02T09:52:26.14Z</time></trkpt><trkpt lat="47.7309483" lon="-1.9275633"><ele>48.0</ele><time>2026-05-02T09:52:28.14Z</time></trkpt><trkpt lat="47.7310167" lon="-1.9276683"><ele>48.0</ele><time>2026-05-02T09:52:30.141Z</time></trkpt><trkpt lat="47.7310683" lon="-1.9277667"><ele>48.0</ele><time>2026-05-02T09:52:32.14Z</time></trkpt><trkpt lat="47.73111" lon="-1.9278683"><ele>48.0</ele><time>2026-05-02T09:52:34.14Z</time></trkpt><trkpt lat="47.731155" lon="-1.927975"><ele>48.0</ele><time>2026-05-02T09:52:36.139Z</time></trkpt><trkpt lat="47.73121" lon="-1.9280817"><ele>48.0</ele><time>2026-05-02T09:52:38.14Z</time></trkpt><trkpt lat="47.7312583" lon="-1.9281717"><ele>48.0</ele><time>2026-05-02T09:52:40.141Z</time></trkpt><trkpt lat="47.7312983" lon="-1.9282567"><ele>48.0</ele><time>2026-05-02T09:52:42.14Z</time></trkpt><trkpt lat="47.731335" lon="-1.9283433"><ele>48.0</ele><time>2026-05-02T09:52:44.141Z</time></trkpt><trkpt lat="47.7313733" lon="-1.9284333"><ele>48.0</ele><time>2026-05-02T09:52:46.141Z</time></trkpt><trkpt lat="47.7314317" lon="-1.9285667"><ele>48.0</ele><time>2026-05-02T09:52:49.142Z</time></trkpt><trkpt lat="47.7314767" lon="-1.9286633"><ele>48.0</ele><time>2026-05-02T09:52:51.141Z</time></trkpt><trkpt lat="47.7315567" lon="-1.9287967"><ele>48.0</ele><time>2026-05-02T09:52:54.141Z</time></trkpt><trkpt lat="47.73162" lon="-1.92889"><ele>48.0</ele><time>2026-05-02T09:52:56.141Z</time></trkpt><trkpt lat="47.7317133" lon="-1.929045"><ele>48.0</ele><time>2026-05-02T09:52:59.141Z</time></trkpt><trkpt lat="47.7317933" lon="-1.9291933"><ele>48.166666666666664</ele><time>2026-05-02T09:53:02.14Z</time></trkpt><trkpt lat="47.73185" lon="-1.9292917"><ele>48.33333333333333</ele><time>2026-05-02T09:53:04.139Z</time></trkpt><trkpt lat="47.7319067" lon="-1.929375"><ele>48.5</ele><time>2026-05-02T09:53:06.14Z</time></trkpt><trkpt lat="47.7319633" lon="-1.9294717"><ele>48.666666666666664</ele><time>2026-05-02T09:53:08.14Z</time></trkpt><trkpt lat="47.732035" lon="-1.9295683"><ele>48.83333333333333</ele><time>2026-05-02T09:53:10.14Z</time></trkpt><trkpt lat="47.7321" lon="-1.9296483"><ele>49.0</ele><time>2026-05-02T09:53:12.14Z</time></trkpt><trkpt lat="47.7321867" lon="-1.9297167"><ele>49.0</ele><time>2026-05-02T09:53:15.14Z</time></trkpt><trkpt lat="47.7322617" lon="-1.9297983"><ele>49.0</ele><time>2026-05-02T09:53:18.141Z</time></trkpt><trkpt lat="47.73231" lon="-1.9299033"><ele>49.0</ele><time>2026-05-02T09:53:20.14Z</time></trkpt><trkpt lat="47.73231" lon="-1.93007"><ele>49.0</ele><time>2026-05-02T09:53:23.14Z</time></trkpt><trkpt lat="47.7323167" lon="-1.9303767"><ele>48.800000000000004</ele><time>2026-05-02T09:53:27.14Z</time></trkpt><trkpt lat="47.7323267" lon="-1.93049"><ele>48.6</ele><time>2026-05-02T09:53:28.14Z</time></trkpt><trkpt lat="47.732365" lon="-1.930735"><ele>48.4</ele><time>2026-05-02T09:53:30.14Z</time></trkpt><trkpt lat="47.7323883" lon="-1.930865"><ele>48.2</ele><time>2026-05-02T09:53:31.14Z</time></trkpt><trkpt lat="47.7324217" lon="-1.9310117"><ele>48.0</ele><time>2026-05-02T09:53:32.14Z</time></trkpt><trkpt lat="47.7324433" lon="-1.9311433"><ele>48.0</ele><time>2026-05-02T09:53:33.139Z</time></trkpt><trkpt lat="47.7325017" lon="-1.9314033"><ele>48.0</ele><time>2026-05-02T09:53:35.141Z</time></trkpt><trkpt lat="47.7325317" lon="-1.9315317"><ele>48.0</ele><time>2026-05-02T09:53:36.14Z</time></trkpt><trkpt lat="47.7325617" lon="-1.93167"><ele>48.0</ele><time>2026-05-02T09:53:37.142Z</time></trkpt><trkpt lat="47.732625" lon="-1.9319467"><ele>47.75</ele><time>2026-05-02T09:53:39.141Z</time></trkpt><trkpt lat="47.732695" lon="-1.9322167"><ele>47.5</ele><time>2026-05-02T09:53:41.141Z</time></trkpt><trkpt lat="47.732725" lon="-1.9323617"><ele>47.25</ele><time>2026-05-02T09:53:42.141Z</time></trkpt><trkpt lat="47.7327583" lon="-1.932505"><ele>47.0</ele><time>2026-05-02T09:53:43.14Z</time></trkpt><trkpt lat="47.73279" lon="-1.9326383"><ele>48.33333333333333</ele><time>2026-05-02T09:53:44.139Z</time></trkpt><trkpt lat="47.7328517" lon="-1.932885"><ele>49.666666666666664</ele><time>2026-05-02T09:53:46.14Z</time></trkpt><trkpt lat="47.732905" lon="-1.933125"><ele>51.0</ele><time>2026-05-02T09:53:48.141Z</time></trkpt><trkpt lat="47.73294" lon="-1.9333433"><ele>51.0</ele><time>2026-05-02T09:53:50.14Z</time></trkpt><trkpt lat="47.73296" lon="-1.9334867"><ele>51.0</ele><time>2026-05-02T09:53:52.14Z</time></trkpt><trkpt lat="47.73294" lon="-1.9336533"><ele>51.0</ele><time>2026-05-02T09:54:59.139Z</time></trkpt><trkpt lat="47.732895" lon="-1.93382"><ele>51.0</ele><time>2026-05-02T09:55:01.139Z</time></trkpt><trkpt lat="47.7328683" lon="-1.9339283"><ele>51.0</ele><time>2026-05-02T09:55:02.139Z</time></trkpt><trkpt lat="47.7328367" lon="-1.93406"><ele>51.0</ele><time>2026-05-02T09:55:03.14Z</time></trkpt><trkpt lat="47.732795" lon="-1.9341983"><ele>51.0</ele><time>2026-05-02T09:55:04.139Z</time></trkpt><trkpt lat="47.7327483" lon="-1.934345"><ele>51.0</ele><time>2026-05-02T09:55:05.138Z</time></trkpt><trkpt lat="47.7326983" lon="-1.9345117"><ele>51.0</ele><time>2026-05-02T09:55:06.139Z</time></trkpt><trkpt lat="47.7326467" lon="-1.9346933"><ele>50.5</ele><time>2026-05-02T09:55:07.139Z</time></trkpt><trkpt lat="47.7325917" lon="-1.934885"><ele>50.0</ele><time>2026-05-02T09:55:08.139Z</time></trkpt><trkpt lat="47.7325333" lon="-1.9350867"><ele>49.5</ele><time>2026-05-02T09:55:09.139Z</time></trkpt><trkpt lat="47.7324767" lon="-1.9352933"><ele>49.0</ele><time>2026-05-02T09:55:10.14Z</time></trkpt><trkpt lat="47.73242" lon="-1.9355017"><ele>49.0</ele><time>2026-05-02T09:55:11.139Z</time></trkpt><trkpt lat="47.73236" lon="-1.935715"><ele>49.0</ele><time>2026-05-02T09:55:12.139Z</time></trkpt><trkpt lat="47.7322983" lon="-1.935935"><ele>49.0</ele><time>2026-05-02T09:55:13.143Z</time></trkpt><trkpt lat="47.7322383" lon="-1.93615"><ele>49.25</ele><time>2026-05-02T09:55:14.14Z</time></trkpt><trkpt lat="47.7321817" lon="-1.93636"><ele>49.5</ele><time>2026-05-02T09:55:15.14Z</time></trkpt><trkpt lat="47.7321217" lon="-1.9365517"><ele>49.75</ele><time>2026-05-02T09:55:16.142Z</time></trkpt><trkpt lat="47.7320633" lon="-1.936735"><ele>50.0</ele><time>2026-05-02T09:55:17.14Z</time></trkpt><trkpt lat="47.7319967" lon="-1.9369083"><ele>50.0</ele><time>2026-05-02T09:55:18.141Z</time></trkpt><trkpt lat="47.731905" lon="-1.93707"><ele>50.0</ele><time>2026-05-02T09:55:19.141Z</time></trkpt><trkpt lat="47.7317967" lon="-1.9372133"><ele>50.0</ele><time>2026-05-02T09:55:20.14Z</time></trkpt><trkpt lat="47.7316717" lon="-1.9373433"><ele>50.0</ele><time>2026-05-02T09:55:21.141Z</time></trkpt><trkpt lat="47.7315367" lon="-1.9374667"><ele>47.0</ele><time>2026-05-02T09:55:22.141Z</time></trkpt><trkpt lat="47.7314" lon="-1.9375867"><ele>44.0</ele><time>2026-05-02T09:55:23.14Z</time></trkpt><trkpt lat="47.7312683" lon="-1.9377033"><ele>41.0</ele><time>2026-05-02T09:55:24.141Z</time></trkpt><trkpt lat="47.73115" lon="-1.9378217"><ele>40.25</ele><time>2026-05-02T09:55:25.139Z</time></trkpt><trkpt lat="47.7310383" lon="-1.93794"><ele>39.5</ele><time>2026-05-02T09:55:26.139Z</time></trkpt><trkpt lat="47.730935" lon="-1.93807"><ele>38.75</ele><time>2026-05-02T09:55:27.14Z</time></trkpt><trkpt lat="47.7308533" lon="-1.93821"><ele>38.0</ele><time>2026-05-02T09:55:28.139Z</time></trkpt><trkpt lat="47.73079" lon="-1.9383583"><ele>38.25</ele><time>2026-05-02T09:55:29.139Z</time></trkpt><trkpt lat="47.730735" lon="-1.9385133"><ele>38.5</ele><time>2026-05-02T09:55:30.139Z</time></trkpt><trkpt lat="47.7307033" lon="-1.9386833"><ele>38.75</ele><time>2026-05-02T09:55:31.14Z</time></trkpt><trkpt lat="47.7306983" lon="-1.9388683"><ele>39.0</ele><time>2026-05-02T09:55:32.14Z</time></trkpt><trkpt lat="47.73071" lon="-1.9390617"><ele>39.666666666666664</ele><time>2026-05-02T09:55:33.14Z</time></trkpt><trkpt lat="47.7307333" lon="-1.9392667"><ele>40.33333333333333</ele><time>2026-05-02T09:55:34.14Z</time></trkpt><trkpt lat="47.73076" lon="-1.9394883"><ele>41.0</ele><time>2026-05-02T09:55:35.14Z</time></trkpt><trkpt lat="47.7307833" lon="-1.9397267"><ele>41.0</ele><time>2026-05-02T09:55:36.139Z</time></trkpt><trkpt lat="47.730805" lon="-1.939965"><ele>41.0</ele><time>2026-05-02T09:55:37.141Z</time></trkpt><trkpt lat="47.7308183" lon="-1.9402117"><ele>41.0</ele><time>2026-05-02T09:55:38.139Z</time></trkpt><trkpt lat="47.7308167" lon="-1.9404617"><ele>41.33333333333333</ele><time>2026-05-02T09:55:39.141Z</time></trkpt><trkpt lat="47.7308017" lon="-1.9407067"><ele>41.666666666666664</ele><time>2026-05-02T09:55:40.142Z</time></trkpt><trkpt lat="47.7307767" lon="-1.94095"><ele>42.0</ele><time>2026-05-02T09:55:41.139Z</time></trkpt><trkpt lat="47.73075" lon="-1.9411867"><ele>42.333333333333336</ele><time>2026-05-02T09:55:42.139Z</time></trkpt><trkpt lat="47.73072" lon="-1.9414183"><ele>42.66666666666667</ele><time>2026-05-02T09:55:43.139Z</time></trkpt><trkpt lat="47.73069" lon="-1.9416383"><ele>43.0</ele><time>2026-05-02T09:55:44.139Z</time></trkpt><trkpt lat="47.7306683" lon="-1.9418467"><ele>43.25</ele><time>2026-05-02T09:55:45.141Z</time></trkpt><trkpt lat="47.7306583" lon="-1.94206"><ele>43.5</ele><time>2026-05-02T09:55:46.139Z</time></trkpt><trkpt lat="47.730665" lon="-1.9422733"><ele>43.75</ele><time>2026-05-02T09:55:47.139Z</time></trkpt><trkpt lat="47.7306867" lon="-1.9424817"><ele>44.0</ele><time>2026-05-02T09:55:48.139Z</time></trkpt><trkpt lat="47.73073" lon="-1.94268"><ele>44.0</ele><time>2026-05-02T09:55:49.139Z</time></trkpt><trkpt lat="47.7307917" lon="-1.942865"><ele>44.0</ele><time>2026-05-02T09:55:50.139Z</time></trkpt><trkpt lat="47.73086" lon="-1.9430417"><ele>44.0</ele><time>2026-05-02T09:55:51.14Z</time></trkpt><trkpt lat="47.730925" lon="-1.9432233"><ele>44.0</ele><time>2026-05-02T09:55:52.14Z</time></trkpt><trkpt lat="47.7309733" lon="-1.94342"><ele>44.0</ele><time>2026-05-02T09:55:53.139Z</time></trkpt><trkpt lat="47.7310033" lon="-1.9436217"><ele>44.0</ele><time>2026-05-02T09:55:54.142Z</time></trkpt><trkpt lat="47.73102" lon="-1.9438333"><ele>44.0</ele><time>2026-05-02T09:55:55.139Z</time></trkpt><trkpt lat="47.73102" lon="-1.9440567"><ele>44.0</ele><time>2026-05-02T09:55:56.141Z</time></trkpt><trkpt lat="47.7310183" lon="-1.9442767"><ele>44.25</ele><time>2026-05-02T09:55:57.14Z</time></trkpt><trkpt lat="47.7310133" lon="-1.9444917"><ele>44.5</ele><time>2026-05-02T09:55:58.139Z</time></trkpt><trkpt lat="47.7310133" lon="-1.9447117"><ele>44.75</ele><time>2026-05-02T09:55:59.139Z</time></trkpt><trkpt lat="47.7310033" lon="-1.94493"><ele>45.0</ele><time>2026-05-02T09:56:00.139Z</time></trkpt><trkpt lat="47.7309933" lon="-1.94515"><ele>45.25</ele><time>2026-05-02T09:56:01.138Z</time></trkpt><trkpt lat="47.7309883" lon="-1.94537"><ele>45.5</ele><time>2026-05-02T09:56:02.139Z</time></trkpt><trkpt lat="47.7309867" lon="-1.9455883"><ele>45.75</ele><time>2026-05-02T09:56:03.141Z</time></trkpt><trkpt lat="47.7309883" lon="-1.9458083"><ele>46.0</ele><time>2026-05-02T09:56:04.139Z</time></trkpt><trkpt lat="47.731005" lon="-1.9460217"><ele>46.0</ele><time>2026-05-02T09:56:05.139Z</time></trkpt><trkpt lat="47.7310167" lon="-1.94623"><ele>46.0</ele><time>2026-05-02T09:56:06.139Z</time></trkpt><trkpt lat="47.73103" lon="-1.9464283"><ele>46.0</ele><time>2026-05-02T09:56:07.141Z</time></trkpt><trkpt lat="47.7310417" lon="-1.9466217"><ele>46.0</ele><time>2026-05-02T09:56:08.14Z</time></trkpt><trkpt lat="47.731055" lon="-1.9468267"><ele>47.0</ele><time>2026-05-02T09:56:09.139Z</time></trkpt><trkpt lat="47.7310667" lon="-1.9470517"><ele>48.0</ele><time>2026-05-02T09:56:10.14Z</time></trkpt><trkpt lat="47.7310867" lon="-1.9472833"><ele>49.0</ele><time>2026-05-02T09:56:11.142Z</time></trkpt><trkpt lat="47.731105" lon="-1.9475217"><ele>49.33333333333333</ele><time>2026-05-02T09:56:12.14Z</time></trkpt><trkpt lat="47.731125" lon="-1.9477583"><ele>49.66666666666667</ele><time>2026-05-02T09:56:13.14Z</time></trkpt><trkpt lat="47.7311433" lon="-1.9480067"><ele>50.0</ele><time>2026-05-02T09:56:14.139Z</time></trkpt><trkpt lat="47.7311583" lon="-1.9482533"><ele>48.66666666666667</ele><time>2026-05-02T09:56:15.14Z</time></trkpt><trkpt lat="47.7311783" lon="-1.9485017"><ele>47.333333333333336</ele><time>2026-05-02T09:56:16.139Z</time></trkpt><trkpt lat="47.7312" lon="-1.94875"><ele>46.0</ele><time>2026-05-02T09:56:17.139Z</time></trkpt><trkpt lat="47.731225" lon="-1.9489983"><ele>45.0</ele><time>2026-05-02T09:56:18.14Z</time></trkpt><trkpt lat="47.7312467" lon="-1.9492467"><ele>44.0</ele><time>2026-05-02T09:56:19.14Z</time></trkpt><trkpt lat="47.7312617" lon="-1.9494917"><ele>43.0</ele><time>2026-05-02T09:56:20.139Z</time></trkpt><trkpt lat="47.7312733" lon="-1.949725"><ele>43.0</ele><time>2026-05-02T09:56:21.14Z</time></trkpt><trkpt lat="47.7312867" lon="-1.94996"><ele>43.0</ele><time>2026-05-02T09:56:22.138Z</time></trkpt><trkpt lat="47.7312967" lon="-1.95019"><ele>43.0</ele><time>2026-05-02T09:56:23.142Z</time></trkpt><trkpt lat="47.7313033" lon="-1.9504167"><ele>42.66666666666667</ele><time>2026-05-02T09:56:24.143Z</time></trkpt><trkpt lat="47.73131" lon="-1.9506467"><ele>42.333333333333336</ele><time>2026-05-02T09:56:25.139Z</time></trkpt><trkpt lat="47.7313033" lon="-1.9508733"><ele>42.0</ele><time>2026-05-02T09:56:26.139Z</time></trkpt><trkpt lat="47.7313017" lon="-1.951105"><ele>42.0</ele><time>2026-05-02T09:56:27.139Z</time></trkpt><trkpt lat="47.731305" lon="-1.9513433"><ele>42.0</ele><time>2026-05-02T09:56:28.14Z</time></trkpt><trkpt lat="47.7313133" lon="-1.95158"><ele>42.0</ele><time>2026-05-02T09:56:29.139Z</time></trkpt><trkpt lat="47.7313217" lon="-1.9518067"><ele>43.0</ele><time>2026-05-02T09:56:30.139Z</time></trkpt><trkpt lat="47.73132" lon="-1.9520217"><ele>44.0</ele><time>2026-05-02T09:56:31.139Z</time></trkpt><trkpt lat="47.7313233" lon="-1.95222"><ele>45.0</ele><time>2026-05-02T09:56:32.14Z</time></trkpt><trkpt lat="47.7313267" lon="-1.9523883"><ele>46.0</ele><time>2026-05-02T09:56:33.142Z</time></trkpt><trkpt lat="47.731335" lon="-1.9525717"><ele>46.599999999999994</ele><time>2026-05-02T09:56:34.139Z</time></trkpt><trkpt lat="47.731335" lon="-1.9527383"><ele>47.2</ele><time>2026-05-02T09:56:35.139Z</time></trkpt><trkpt lat="47.7313267" lon="-1.952895"><ele>47.8</ele><time>2026-05-02T09:56:36.14Z</time></trkpt><trkpt lat="47.731315" lon="-1.9530333"><ele>48.400000000000006</ele><time>2026-05-02T09:56:37.141Z</time></trkpt><trkpt lat="47.7313" lon="-1.95315"><ele>49.0</ele><time>2026-05-02T09:56:38.141Z</time></trkpt><trkpt lat="47.7312817" lon="-1.9532533"><ele>49.0</ele><time>2026-05-02T09:56:39.14Z</time></trkpt><trkpt lat="47.731265" lon="-1.9533517"><ele>49.0</ele><time>2026-05-02T09:56:40.14Z</time></trkpt><trkpt lat="47.731245" lon="-1.953445"><ele>49.0</ele><time>2026-05-02T09:56:41.14Z</time></trkpt><trkpt lat="47.731225" lon="-1.9535517"><ele>49.0</ele><time>2026-05-02T09:56:42.139Z</time></trkpt><trkpt lat="47.7312033" lon="-1.9536483"><ele>49.0</ele><time>2026-05-02T09:56:43.141Z</time></trkpt><trkpt lat="47.731185" lon="-1.9537417"><ele>49.0</ele><time>2026-05-02T09:56:44.14Z</time></trkpt><trkpt lat="47.731165" lon="-1.9538733"><ele>49.0</ele><time>2026-05-02T09:56:46.14Z</time></trkpt><trkpt lat="47.7311567" lon="-1.95397"><ele>49.0</ele><time>2026-05-02T09:56:49.142Z</time></trkpt><trkpt lat="47.731135" lon="-1.9540967"><ele>49.0</ele><time>2026-05-02T09:56:52.14Z</time></trkpt><trkpt lat="47.7311133" lon="-1.95429"><ele>49.0</ele><time>2026-05-02T09:56:54.14Z</time></trkpt><trkpt lat="47.7311117" lon="-1.9544083"><ele>49.0</ele><time>2026-05-02T09:56:55.14Z</time></trkpt><trkpt lat="47.7311217" lon="-1.954555"><ele>49.0</ele><time>2026-05-02T09:56:56.141Z</time></trkpt><trkpt lat="47.731135" lon="-1.9547117"><ele>48.25</ele><time>2026-05-02T09:56:57.141Z</time></trkpt><trkpt lat="47.7311517" lon="-1.9548717"><ele>47.5</ele><time>2026-05-02T09:56:58.14Z</time></trkpt><trkpt lat="47.7311717" lon="-1.955045"><ele>46.75</ele><time>2026-05-02T09:56:59.139Z</time></trkpt><trkpt lat="47.731185" lon="-1.9552283"><ele>46.0</ele><time>2026-05-02T09:57:00.14Z</time></trkpt><trkpt lat="47.7312" lon="-1.955425"><ele>44.25</ele><time>2026-05-02T09:57:01.141Z</time></trkpt><trkpt lat="47.7312167" lon="-1.955635"><ele>42.5</ele><time>2026-05-02T09:57:02.14Z</time></trkpt><trkpt lat="47.7312317" lon="-1.955855"><ele>40.75</ele><time>2026-05-02T09:57:03.141Z</time></trkpt><trkpt lat="47.7312483" lon="-1.9560783"><ele>39.0</ele><time>2026-05-02T09:57:04.14Z</time></trkpt><trkpt lat="47.7312633" lon="-1.9562933"><ele>38.25</ele><time>2026-05-02T09:57:05.139Z</time></trkpt><trkpt lat="47.7312767" lon="-1.9565083"><ele>37.5</ele><time>2026-05-02T09:57:06.14Z</time></trkpt><trkpt lat="47.73128" lon="-1.956715"><ele>36.75</ele><time>2026-05-02T09:57:07.14Z</time></trkpt><trkpt lat="47.7312633" lon="-1.9569133"><ele>36.0</ele><time>2026-05-02T09:57:08.14Z</time></trkpt><trkpt lat="47.73123" lon="-1.9571083"><ele>35.75</ele><time>2026-05-02T09:57:09.14Z</time></trkpt><trkpt lat="47.7311833" lon="-1.95731"><ele>35.5</ele><time>2026-05-02T09:57:10.14Z</time></trkpt><trkpt lat="47.7311267" lon="-1.9575117"><ele>35.25</ele><time>2026-05-02T09:57:11.142Z</time></trkpt><trkpt lat="47.7310683" lon="-1.957715"><ele>35.0</ele><time>2026-05-02T09:57:12.14Z</time></trkpt><trkpt lat="47.7310167" lon="-1.9579183"><ele>34.75</ele><time>2026-05-02T09:57:13.14Z</time></trkpt><trkpt lat="47.7309683" lon="-1.9581167"><ele>34.5</ele><time>2026-05-02T09:57:14.14Z</time></trkpt><trkpt lat="47.730925" lon="-1.95831"><ele>34.25</ele><time>2026-05-02T09:57:15.14Z</time></trkpt><trkpt lat="47.7308867" lon="-1.9585117"><ele>34.0</ele><time>2026-05-02T09:57:16.139Z</time></trkpt><trkpt lat="47.7308467" lon="-1.9587133"><ele>34.0</ele><time>2026-05-02T09:57:17.14Z</time></trkpt><trkpt lat="47.73081" lon="-1.9589067"><ele>34.0</ele><time>2026-05-02T09:57:18.14Z</time></trkpt><trkpt lat="47.730775" lon="-1.9590867"><ele>34.0</ele><time>2026-05-02T09:57:19.141Z</time></trkpt><trkpt lat="47.7307417" lon="-1.9592483"><ele>34.0</ele><time>2026-05-02T09:57:20.14Z</time></trkpt><trkpt lat="47.7307133" lon="-1.95939"><ele>34.0</ele><time>2026-05-02T09:57:21.141Z</time></trkpt><trkpt lat="47.73068" lon="-1.959505"><ele>34.0</ele><time>2026-05-02T09:57:22.141Z</time></trkpt><trkpt lat="47.7306633" lon="-1.9596117"><ele>34.0</ele><time>2026-05-02T09:57:23.14Z</time></trkpt><trkpt lat="47.73068" lon="-1.9597817"><ele>34.0</ele><time>2026-05-02T09:57:25.141Z</time></trkpt><trkpt lat="47.7307783" lon="-1.9598767"><ele>34.0</ele><time>2026-05-02T09:57:27.14Z</time></trkpt><trkpt lat="47.73086" lon="-1.95989"><ele>34.0</ele><time>2026-05-02T09:57:28.14Z</time></trkpt><trkpt lat="47.7309467" lon="-1.9599183"><ele>34.0</ele><time>2026-05-02T09:57:29.139Z</time></trkpt><trkpt lat="47.731035" lon="-1.9599417"><ele>34.0</ele><time>2026-05-02T09:57:30.139Z</time></trkpt><trkpt lat="47.7311183" lon="-1.9599567"><ele>34.0</ele><time>2026-05-02T09:57:31.139Z</time></trkpt><trkpt lat="47.731195" lon="-1.9599817"><ele>34.0</ele><time>2026-05-02T09:57:32.14Z</time></trkpt><trkpt lat="47.7312567" lon="-1.960025"><ele>34.0</ele><time>2026-05-02T09:57:33.141Z</time></trkpt><trkpt lat="47.7312917" lon="-1.9601917"><ele>36.0</ele><time>2026-05-02T09:57:35.14Z</time></trkpt><trkpt lat="47.7312783" lon="-1.9603083"><ele>38.0</ele><time>2026-05-02T09:57:36.141Z</time></trkpt><trkpt lat="47.7312583" lon="-1.96045"><ele>40.0</ele><time>2026-05-02T09:57:37.139Z</time></trkpt><trkpt lat="47.7312033" lon="-1.96065"><ele>42.0</ele><time>2026-05-02T09:57:38.14Z</time></trkpt><trkpt lat="47.7311533" lon="-1.96085"><ele>40.666666666666664</ele><time>2026-05-02T09:57:39.14Z</time></trkpt><trkpt lat="47.7311" lon="-1.9610583"><ele>39.33333333333333</ele><time>2026-05-02T09:57:40.14Z</time></trkpt><trkpt lat="47.7310517" lon="-1.961275"><ele>38.0</ele><time>2026-05-02T09:57:41.14Z</time></trkpt><trkpt lat="47.73101" lon="-1.9614983"><ele>36.25</ele><time>2026-05-02T09:57:42.141Z</time></trkpt><trkpt lat="47.730985" lon="-1.9617183"><ele>34.5</ele><time>2026-05-02T09:57:43.141Z</time></trkpt><trkpt lat="47.7309717" lon="-1.9619317"><ele>32.75</ele><time>2026-05-02T09:57:44.14Z</time></trkpt><trkpt lat="47.73096" lon="-1.96213"><ele>31.0</ele><time>2026-05-02T09:57:45.143Z</time></trkpt><trkpt lat="47.7309417" lon="-1.9623067"><ele>31.000000000000004</ele><time>2026-05-02T09:57:46.14Z</time></trkpt><trkpt lat="47.7309467" lon="-1.96248"><ele>31.0</ele><time>2026-05-02T09:57:47.14Z</time></trkpt><trkpt lat="47.7309367" lon="-1.9626317"><ele>31.0</ele><time>2026-05-02T09:57:48.14Z</time></trkpt><trkpt lat="47.7309433" lon="-1.96275"><ele>31.0</ele><time>2026-05-02T09:57:49.14Z</time></trkpt><trkpt lat="47.730945" lon="-1.9628467"><ele>31.000000000000004</ele><time>2026-05-02T09:57:50.14Z</time></trkpt><trkpt lat="47.73095" lon="-1.9629517"><ele>31.0</ele><time>2026-05-02T09:57:52.14Z</time></trkpt><trkpt lat="47.7309433" lon="-1.9630467"><ele>30.833333333333336</ele><time>2026-05-02T09:57:58.14Z</time></trkpt><trkpt lat="47.73094" lon="-1.963145"><ele>30.666666666666668</ele><time>2026-05-02T09:57:59.14Z</time></trkpt><trkpt lat="47.7309433" lon="-1.9632583"><ele>30.5</ele><time>2026-05-02T09:58:00.141Z</time></trkpt><trkpt lat="47.7309583" lon="-1.96338"><ele>30.333333333333336</ele><time>2026-05-02T09:58:01.14Z</time></trkpt><trkpt lat="47.7309633" lon="-1.9634917"><ele>30.166666666666668</ele><time>2026-05-02T09:58:02.14Z</time></trkpt><trkpt lat="47.7309983" lon="-1.9636517"><ele>30.0</ele><time>2026-05-02T09:58:03.14Z</time></trkpt><trkpt lat="47.7310067" lon="-1.9638333"><ele>29.75</ele><time>2026-05-02T09:58:04.14Z</time></trkpt><trkpt lat="47.7310383" lon="-1.9640183"><ele>29.5</ele><time>2026-05-02T09:58:05.139Z</time></trkpt><trkpt lat="47.7310883" lon="-1.964235"><ele>29.25</ele><time>2026-05-02T09:58:06.138Z</time></trkpt><trkpt lat="47.7311467" lon="-1.964445"><ele>29.0</ele><time>2026-05-02T09:58:07.139Z</time></trkpt><trkpt lat="47.731205" lon="-1.9646483"><ele>29.0</ele><time>2026-05-02T09:58:08.141Z</time></trkpt><trkpt lat="47.7312767" lon="-1.9648533"><ele>29.0</ele><time>2026-05-02T09:58:09.14Z</time></trkpt><trkpt lat="47.7313583" lon="-1.9650583"><ele>29.0</ele><time>2026-05-02T09:58:10.14Z</time></trkpt><trkpt lat="47.7314417" lon="-1.9652767"><ele>28.666666666666664</ele><time>2026-05-02T09:58:11.14Z</time></trkpt><trkpt lat="47.7315217" lon="-1.9655033"><ele>28.333333333333336</ele><time>2026-05-02T09:58:12.138Z</time></trkpt><trkpt lat="47.7315867" lon="-1.9657333"><ele>28.0</ele><time>2026-05-02T09:58:13.139Z</time></trkpt><trkpt lat="47.7316367" lon="-1.96597"><ele>28.0</ele><time>2026-05-02T09:58:14.14Z</time></trkpt><trkpt lat="47.73167" lon="-1.966215"><ele>28.0</ele><time>2026-05-02T09:58:15.142Z</time></trkpt><trkpt lat="47.73169" lon="-1.966475"><ele>28.0</ele><time>2026-05-02T09:58:16.142Z</time></trkpt><trkpt lat="47.7317" lon="-1.9667483"><ele>27.666666666666668</ele><time>2026-05-02T09:58:17.139Z</time></trkpt><trkpt lat="47.731705" lon="-1.9670283"><ele>27.333333333333336</ele><time>2026-05-02T09:58:18.139Z</time></trkpt><trkpt lat="47.731705" lon="-1.96732"><ele>27.0</ele><time>2026-05-02T09:58:19.139Z</time></trkpt><trkpt lat="47.7317067" lon="-1.9676217"><ele>26.666666666666664</ele><time>2026-05-02T09:58:20.141Z</time></trkpt><trkpt lat="47.7317083" lon="-1.9679283"><ele>26.333333333333332</ele><time>2026-05-02T09:58:21.142Z</time></trkpt><trkpt lat="47.7317117" lon="-1.9682233"><ele>26.0</ele><time>2026-05-02T09:58:22.138Z</time></trkpt><trkpt lat="47.7317133" lon="-1.9685"><ele>25.333333333333332</ele><time>2026-05-02T09:58:23.14Z</time></trkpt><trkpt lat="47.73172" lon="-1.968765"><ele>24.666666666666664</ele><time>2026-05-02T09:58:24.139Z</time></trkpt><trkpt lat="47.73173" lon="-1.9690167"><ele>24.0</ele><time>2026-05-02T09:58:25.14Z</time></trkpt><trkpt lat="47.7317517" lon="-1.9692667"><ele>23.666666666666668</ele><time>2026-05-02T09:58:26.139Z</time></trkpt><trkpt lat="47.7317767" lon="-1.9695033"><ele>23.333333333333336</ele><time>2026-05-02T09:58:27.14Z</time></trkpt><trkpt lat="47.7318083" lon="-1.9697317"><ele>23.0</ele><time>2026-05-02T09:58:28.14Z</time></trkpt><trkpt lat="47.7318467" lon="-1.9699483"><ele>23.5</ele><time>2026-05-02T09:58:29.14Z</time></trkpt><trkpt lat="47.7318967" lon="-1.9701533"><ele>24.0</ele><time>2026-05-02T09:58:30.14Z</time></trkpt><trkpt lat="47.7319517" lon="-1.9703467"><ele>24.5</ele><time>2026-05-02T09:58:31.139Z</time></trkpt><trkpt lat="47.7320067" lon="-1.9705317"><ele>25.0</ele><time>2026-05-02T09:58:32.139Z</time></trkpt><trkpt lat="47.7320633" lon="-1.9707117"><ele>24.5</ele><time>2026-05-02T09:58:33.14Z</time></trkpt><trkpt lat="47.73212" lon="-1.9708933"><ele>24.0</ele><time>2026-05-02T09:58:34.139Z</time></trkpt><trkpt lat="47.7321783" lon="-1.9710733"><ele>23.5</ele><time>2026-05-02T09:58:35.139Z</time></trkpt><trkpt lat="47.732235" lon="-1.9712483"><ele>23.0</ele><time>2026-05-02T09:58:36.14Z</time></trkpt><trkpt lat="47.7322867" lon="-1.9714067"><ele>23.0</ele><time>2026-05-02T09:58:37.14Z</time></trkpt><trkpt lat="47.7323333" lon="-1.9715433"><ele>23.0</ele><time>2026-05-02T09:58:38.139Z</time></trkpt><trkpt lat="47.73237" lon="-1.97166"><ele>23.0</ele><time>2026-05-02T09:58:39.141Z</time></trkpt><trkpt lat="47.7324033" lon="-1.971745"><ele>23.0</ele><time>2026-05-02T09:58:40.143Z</time></trkpt><trkpt lat="47.732455" lon="-1.9718633"><ele>23.0</ele><time>2026-05-02T09:58:42.14Z</time></trkpt><trkpt lat="47.7325067" lon="-1.971925"><ele>23.0</ele><time>2026-05-02T09:58:44.139Z</time></trkpt><trkpt lat="47.7325833" lon="-1.9719517"><ele>22.833333333333336</ele><time>2026-05-02T09:58:46.139Z</time></trkpt><trkpt lat="47.732655" lon="-1.9719217"><ele>22.666666666666668</ele><time>2026-05-02T09:58:48.141Z</time></trkpt><trkpt lat="47.7327283" lon="-1.9719267"><ele>22.5</ele><time>2026-05-02T09:58:50.141Z</time></trkpt><trkpt lat="47.73277" lon="-1.972025"><ele>22.333333333333332</ele><time>2026-05-02T09:58:52.139Z</time></trkpt><trkpt lat="47.7327717" lon="-1.9722017"><ele>22.166666666666664</ele><time>2026-05-02T09:58:54.139Z</time></trkpt><trkpt lat="47.732765" lon="-1.9723117"><ele>22.0</ele><time>2026-05-02T09:58:55.14Z</time></trkpt><trkpt lat="47.7327567" lon="-1.97244"><ele>22.6</ele><time>2026-05-02T09:58:56.138Z</time></trkpt><trkpt lat="47.7327517" lon="-1.972575"><ele>23.200000000000003</ele><time>2026-05-02T09:58:57.14Z</time></trkpt><trkpt lat="47.7327467" lon="-1.9727183"><ele>23.8</ele><time>2026-05-02T09:58:58.139Z</time></trkpt><trkpt lat="47.7327417" lon="-1.97287"><ele>24.4</ele><time>2026-05-02T09:58:59.139Z</time></trkpt><trkpt lat="47.732735" lon="-1.9730233"><ele>25.0</ele><time>2026-05-02T09:59:00.139Z</time></trkpt><trkpt lat="47.73273" lon="-1.9731783"><ele>25.0</ele><time>2026-05-02T09:59:01.139Z</time></trkpt><trkpt lat="47.732725" lon="-1.9733383"><ele>25.0</ele><time>2026-05-02T09:59:02.139Z</time></trkpt><trkpt lat="47.73272" lon="-1.9735017"><ele>25.0</ele><time>2026-05-02T09:59:03.14Z</time></trkpt><trkpt lat="47.7327167" lon="-1.973675"><ele>25.0</ele><time>2026-05-02T09:59:04.139Z</time></trkpt><trkpt lat="47.73271" lon="-1.9738517"><ele>24.6</ele><time>2026-05-02T09:59:05.139Z</time></trkpt><trkpt lat="47.7327033" lon="-1.9740217"><ele>24.2</ele><time>2026-05-02T09:59:06.139Z</time></trkpt><trkpt lat="47.7326983" lon="-1.9741817"><ele>23.799999999999997</ele><time>2026-05-02T09:59:07.139Z</time></trkpt><trkpt lat="47.7326933" lon="-1.9743283"><ele>23.4</ele><time>2026-05-02T09:59:08.139Z</time></trkpt><trkpt lat="47.7326883" lon="-1.97446"><ele>23.0</ele><time>2026-05-02T09:59:09.139Z</time></trkpt><trkpt lat="47.73268" lon="-1.9745783"><ele>23.0</ele><time>2026-05-02T09:59:10.14Z</time></trkpt><trkpt lat="47.73267" lon="-1.9746917"><ele>23.0</ele><time>2026-05-02T09:59:11.139Z</time></trkpt><trkpt lat="47.7326583" lon="-1.9747933"><ele>23.0</ele><time>2026-05-02T09:59:12.139Z</time></trkpt><trkpt lat="47.7326167" lon="-1.9749667"><ele>23.0</ele><time>2026-05-02T09:59:14.139Z</time></trkpt><trkpt lat="47.7325933" lon="-1.975055"><ele>23.0</ele><time>2026-05-02T09:59:15.139Z</time></trkpt><trkpt lat="47.7325517" lon="-1.9752283"><ele>22.714285714285715</ele><time>2026-05-02T09:59:17.139Z</time></trkpt><trkpt lat="47.73254" lon="-1.9753283"><ele>22.428571428571427</ele><time>2026-05-02T09:59:18.139Z</time></trkpt><trkpt lat="47.7325317" lon="-1.9754383"><ele>22.142857142857142</ele><time>2026-05-02T09:59:19.14Z</time></trkpt><trkpt lat="47.7325233" lon="-1.975545"><ele>21.857142857142858</ele><time>2026-05-02T09:59:20.139Z</time></trkpt><trkpt lat="47.7325217" lon="-1.9756533"><ele>21.57142857142857</ele><time>2026-05-02T09:59:21.139Z</time></trkpt><trkpt lat="47.732525" lon="-1.9757533"><ele>21.285714285714285</ele><time>2026-05-02T09:59:22.139Z</time></trkpt><trkpt lat="47.7325317" lon="-1.9758567"><ele>21.0</ele><time>2026-05-02T09:59:23.139Z</time></trkpt><trkpt lat="47.7325383" lon="-1.9759717"><ele>20.833333333333332</ele><time>2026-05-02T09:59:24.14Z</time></trkpt><trkpt lat="47.7325467" lon="-1.9760883"><ele>20.666666666666668</ele><time>2026-05-02T09:59:25.139Z</time></trkpt><trkpt lat="47.732555" lon="-1.9762"><ele>20.5</ele><time>2026-05-02T09:59:26.139Z</time></trkpt><trkpt lat="47.7325667" lon="-1.9763117"><ele>20.333333333333336</ele><time>2026-05-02T09:59:27.14Z</time></trkpt><trkpt lat="47.7325783" lon="-1.9764217"><ele>20.166666666666668</ele><time>2026-05-02T09:59:28.14Z</time></trkpt><trkpt lat="47.7325817" lon="-1.97653"><ele>20.0</ele><time>2026-05-02T09:59:29.139Z</time></trkpt><trkpt lat="47.7325683" lon="-1.9766367"><ele>19.833333333333336</ele><time>2026-05-02T09:59:30.139Z</time></trkpt><trkpt lat="47.7325467" lon="-1.976725"><ele>19.666666666666668</ele><time>2026-05-02T09:59:31.142Z</time></trkpt><trkpt lat="47.73251" lon="-1.9768233"><ele>19.5</ele><time>2026-05-02T09:59:32.139Z</time></trkpt><trkpt lat="47.7324667" lon="-1.9769233"><ele>19.333333333333332</ele><time>2026-05-02T09:59:33.139Z</time></trkpt><trkpt lat="47.7324217" lon="-1.9770217"><ele>19.166666666666664</ele><time>2026-05-02T09:59:34.139Z</time></trkpt><trkpt lat="47.73238" lon="-1.9771283"><ele>19.0</ele><time>2026-05-02T09:59:35.139Z</time></trkpt><trkpt lat="47.7323367" lon="-1.9772433"><ele>19.0</ele><time>2026-05-02T09:59:36.139Z</time></trkpt><trkpt lat="47.73229" lon="-1.9773617"><ele>19.0</ele><time>2026-05-02T09:59:37.14Z</time></trkpt><trkpt lat="47.7322383" lon="-1.9774833"><ele>19.0</ele><time>2026-05-02T09:59:38.14Z</time></trkpt><trkpt lat="47.73218" lon="-1.977595"><ele>19.0</ele><time>2026-05-02T09:59:39.139Z</time></trkpt><trkpt lat="47.7321167" lon="-1.9776867"><ele>19.0</ele><time>2026-05-02T09:59:40.139Z</time></trkpt><trkpt lat="47.73205" lon="-1.9777617"><ele>18.857142857142858</ele><time>2026-05-02T09:59:41.139Z</time></trkpt><trkpt lat="47.7319817" lon="-1.97782"><ele>18.714285714285715</ele><time>2026-05-02T09:59:42.138Z</time></trkpt><trkpt lat="47.7319083" lon="-1.9778633"><ele>18.571428571428573</ele><time>2026-05-02T09:59:43.139Z</time></trkpt><trkpt lat="47.73184" lon="-1.9779"><ele>18.42857142857143</ele><time>2026-05-02T09:59:44.139Z</time></trkpt><trkpt lat="47.7317733" lon="-1.9779317"><ele>18.285714285714285</ele><time>2026-05-02T09:59:45.139Z</time></trkpt><trkpt lat="47.7317033" lon="-1.9779533"><ele>18.142857142857146</ele><time>2026-05-02T09:59:46.139Z</time></trkpt><trkpt lat="47.7316283" lon="-1.97797"><ele>18.0</ele><time>2026-05-02T09:59:47.139Z</time></trkpt><trkpt lat="47.73155" lon="-1.9779867"><ele>17.4</ele><time>2026-05-02T09:59:48.14Z</time></trkpt><trkpt lat="47.731465" lon="-1.978005"><ele>16.8</ele><time>2026-05-02T09:59:49.14Z</time></trkpt><trkpt lat="47.731375" lon="-1.9780383"><ele>16.2</ele><time>2026-05-02T09:59:50.139Z</time></trkpt><trkpt lat="47.731285" lon="-1.9780767"><ele>15.6</ele><time>2026-05-02T09:59:51.141Z</time></trkpt><trkpt lat="47.731195" lon="-1.9781183"><ele>15.0</ele><time>2026-05-02T09:59:52.14Z</time></trkpt><trkpt lat="47.7311033" lon="-1.9781667"><ele>15.0</ele><time>2026-05-02T09:59:53.139Z</time></trkpt><trkpt lat="47.731015" lon="-1.9782233"><ele>15.0</ele><time>2026-05-02T09:59:54.14Z</time></trkpt><trkpt lat="47.73093" lon="-1.9782933"><ele>15.0</ele><time>2026-05-02T09:59:55.139Z</time></trkpt><trkpt lat="47.7308533" lon="-1.9783867"><ele>15.0</ele><time>2026-05-02T09:59:56.139Z</time></trkpt><trkpt lat="47.7307833" lon="-1.9785017"><ele>15.0</ele><time>2026-05-02T09:59:57.139Z</time></trkpt><trkpt lat="47.7307367" lon="-1.9786417"><ele>15.0</ele><time>2026-05-02T09:59:58.138Z</time></trkpt><trkpt lat="47.7307083" lon="-1.9788033"><ele>15.0</ele><time>2026-05-02T09:59:59.139Z</time></trkpt><trkpt lat="47.7306967" lon="-1.978985"><ele>15.0</ele><time>2026-05-02T10:00:00.139Z</time></trkpt><trkpt lat="47.7307033" lon="-1.9791783"><ele>15.0</ele><time>2026-05-02T10:00:01.139Z</time></trkpt><trkpt lat="47.7307267" lon="-1.9793783"><ele>14.75</ele><time>2026-05-02T10:00:02.139Z</time></trkpt><trkpt lat="47.73075" lon="-1.9795683"><ele>14.5</ele><time>2026-05-02T10:00:03.139Z</time></trkpt><trkpt lat="47.7307767" lon="-1.9797683"><ele>14.25</ele><time>2026-05-02T10:00:04.14Z</time></trkpt><trkpt lat="47.7308033" lon="-1.97997"><ele>14.0</ele><time>2026-05-02T10:00:05.139Z</time></trkpt><trkpt lat="47.7308233" lon="-1.9801683"><ele>14.0</ele><time>2026-05-02T10:00:06.139Z</time></trkpt><trkpt lat="47.7308383" lon="-1.9803717"><ele>14.0</ele><time>2026-05-02T10:00:07.14Z</time></trkpt><trkpt lat="47.7308533" lon="-1.98057"><ele>14.0</ele><time>2026-05-02T10:00:08.139Z</time></trkpt><trkpt lat="47.7308683" lon="-1.98078"><ele>14.0</ele><time>2026-05-02T10:00:09.142Z</time></trkpt><trkpt lat="47.7308867" lon="-1.9809867"><ele>13.5</ele><time>2026-05-02T10:00:10.139Z</time></trkpt><trkpt lat="47.7309067" lon="-1.981195"><ele>13.0</ele><time>2026-05-02T10:00:11.139Z</time></trkpt><trkpt lat="47.7309217" lon="-1.9813967"><ele>12.5</ele><time>2026-05-02T10:00:12.139Z</time></trkpt><trkpt lat="47.7309367" lon="-1.9815933"><ele>12.0</ele><time>2026-05-02T10:00:13.139Z</time></trkpt><trkpt lat="47.7309533" lon="-1.9817833"><ele>11.75</ele><time>2026-05-02T10:00:14.139Z</time></trkpt><trkpt lat="47.73098" lon="-1.9819733"><ele>11.5</ele><time>2026-05-02T10:00:15.14Z</time></trkpt><trkpt lat="47.73102" lon="-1.9821683"><ele>11.25</ele><time>2026-05-02T10:00:16.14Z</time></trkpt><trkpt lat="47.731065" lon="-1.9823617"><ele>11.0</ele><time>2026-05-02T10:00:17.139Z</time></trkpt><trkpt lat="47.7311283" lon="-1.9825617"><ele>11.0</ele><time>2026-05-02T10:00:18.145Z</time></trkpt><trkpt lat="47.7312017" lon="-1.98276"><ele>11.0</ele><time>2026-05-02T10:00:19.139Z</time></trkpt><trkpt lat="47.7312817" lon="-1.9829683"><ele>11.0</ele><time>2026-05-02T10:00:20.14Z</time></trkpt><trkpt lat="47.7313667" lon="-1.9831783"><ele>10.666666666666666</ele><time>2026-05-02T10:00:21.14Z</time></trkpt><trkpt lat="47.7314517" lon="-1.9833883"><ele>10.333333333333334</ele><time>2026-05-02T10:00:22.14Z</time></trkpt><trkpt lat="47.7315383" lon="-1.9836017"><ele>10.0</ele><time>2026-05-02T10:00:23.14Z</time></trkpt><trkpt lat="47.73162" lon="-1.9838083"><ele>10.0</ele><time>2026-05-02T10:00:24.14Z</time></trkpt><trkpt lat="47.7317" lon="-1.98401"><ele>10.0</ele><time>2026-05-02T10:00:25.139Z</time></trkpt><trkpt lat="47.7317733" lon="-1.9842033"><ele>10.0</ele><time>2026-05-02T10:00:26.139Z</time></trkpt><trkpt lat="47.7318483" lon="-1.9844"><ele>10.333333333333334</ele><time>2026-05-02T10:00:27.14Z</time></trkpt><trkpt lat="47.7319167" lon="-1.9845983"><ele>10.666666666666666</ele><time>2026-05-02T10:00:28.139Z</time></trkpt><trkpt lat="47.7319833" lon="-1.9848017"><ele>11.0</ele><time>2026-05-02T10:00:29.139Z</time></trkpt><trkpt lat="47.73205" lon="-1.9850117"><ele>10.5</ele><time>2026-05-02T10:00:30.139Z</time></trkpt><trkpt lat="47.732115" lon="-1.9852133"><ele>10.0</ele><time>2026-05-02T10:00:31.139Z</time></trkpt><trkpt lat="47.7321783" lon="-1.98541"><ele>9.5</ele><time>2026-05-02T10:00:32.14Z</time></trkpt><trkpt lat="47.7322383" lon="-1.9856"><ele>9.0</ele><time>2026-05-02T10:00:33.14Z</time></trkpt><trkpt lat="47.7323" lon="-1.98579"><ele>9.75</ele><time>2026-05-02T10:00:34.14Z</time></trkpt><trkpt lat="47.7323617" lon="-1.9859867"><ele>10.5</ele><time>2026-05-02T10:00:35.14Z</time></trkpt><trkpt lat="47.732425" lon="-1.9861867"><ele>11.25</ele><time>2026-05-02T10:00:36.14Z</time></trkpt><trkpt lat="47.7324883" lon="-1.9863883"><ele>12.0</ele><time>2026-05-02T10:00:37.14Z</time></trkpt><trkpt lat="47.7325517" lon="-1.9865967"><ele>12.0</ele><time>2026-05-02T10:00:38.14Z</time></trkpt><trkpt lat="47.732615" lon="-1.9868067"><ele>12.0</ele><time>2026-05-02T10:00:39.14Z</time></trkpt><trkpt lat="47.73268" lon="-1.9870167"><ele>12.0</ele><time>2026-05-02T10:00:40.141Z</time></trkpt><trkpt lat="47.7327433" lon="-1.98722"><ele>12.0</ele><time>2026-05-02T10:00:41.142Z</time></trkpt><trkpt lat="47.732805" lon="-1.9874183"><ele>12.0</ele><time>2026-05-02T10:00:42.14Z</time></trkpt><trkpt lat="47.732865" lon="-1.9876083"><ele>12.0</ele><time>2026-05-02T10:00:43.139Z</time></trkpt><trkpt lat="47.7329233" lon="-1.9877933"><ele>12.0</ele><time>2026-05-02T10:00:44.141Z</time></trkpt><trkpt lat="47.73298" lon="-1.987975"><ele>11.75</ele><time>2026-05-02T10:00:45.141Z</time></trkpt><trkpt lat="47.7330367" lon="-1.988145"><ele>11.5</ele><time>2026-05-02T10:00:46.14Z</time></trkpt><trkpt lat="47.7330867" lon="-1.9883017"><ele>11.25</ele><time>2026-05-02T10:00:47.14Z</time></trkpt><trkpt lat="47.733135" lon="-1.9884467"><ele>11.0</ele><time>2026-05-02T10:00:48.141Z</time></trkpt><trkpt lat="47.7331817" lon="-1.9885833"><ele>11.333333333333332</ele><time>2026-05-02T10:00:49.141Z</time></trkpt><trkpt lat="47.733225" lon="-1.9887033"><ele>11.666666666666666</ele><time>2026-05-02T10:00:50.14Z</time></trkpt><trkpt lat="47.7332633" lon="-1.988805"><ele>12.0</ele><time>2026-05-02T10:00:51.141Z</time></trkpt><trkpt lat="47.73331" lon="-1.988945"><ele>12.333333333333332</ele><time>2026-05-02T10:00:53.14Z</time></trkpt><trkpt lat="47.7333233" lon="-1.9890683"><ele>12.666666666666666</ele><time>2026-05-02T10:00:56.141Z</time></trkpt><trkpt lat="47.7332483" lon="-1.9890767"><ele>13.0</ele><time>2026-05-02T10:00:59.14Z</time></trkpt><trkpt lat="47.7331333" lon="-1.9889633"><ele>13.0</ele><time>2026-05-02T10:01:01.14Z</time></trkpt><trkpt lat="47.7330533" lon="-1.9888783"><ele>13.0</ele><time>2026-05-02T10:01:02.14Z</time></trkpt><trkpt lat="47.7329483" lon="-1.9887783"><ele>13.0</ele><time>2026-05-02T10:01:03.14Z</time></trkpt><trkpt lat="47.7328267" lon="-1.9886733"><ele>13.0</ele><time>2026-05-02T10:01:04.14Z</time></trkpt><trkpt lat="47.7326933" lon="-1.9885683"><ele>12.666666666666666</ele><time>2026-05-02T10:01:05.14Z</time></trkpt><trkpt lat="47.7325433" lon="-1.988455"><ele>12.333333333333332</ele><time>2026-05-02T10:01:06.14Z</time></trkpt><trkpt lat="47.7323783" lon="-1.98833"><ele>12.0</ele><time>2026-05-02T10:01:07.14Z</time></trkpt><trkpt lat="47.7322017" lon="-1.988195"><ele>11.666666666666666</ele><time>2026-05-02T10:01:08.139Z</time></trkpt><trkpt lat="47.73202" lon="-1.9880617"><ele>11.333333333333332</ele><time>2026-05-02T10:01:09.14Z</time></trkpt><trkpt lat="47.7318267" lon="-1.98792"><ele>11.0</ele><time>2026-05-02T10:01:10.145Z</time></trkpt><trkpt lat="47.73163" lon="-1.9877717"><ele>10.5</ele><time>2026-05-02T10:01:11.14Z</time></trkpt><trkpt lat="47.73143" lon="-1.98762"><ele>10.0</ele><time>2026-05-02T10:01:12.139Z</time></trkpt><trkpt lat="47.7312283" lon="-1.987465"><ele>9.0</ele><time>2026-05-02T10:01:13.143Z</time></trkpt><trkpt lat="47.731025" lon="-1.9873133"><ele>8.0</ele><time>2026-05-02T10:01:14.139Z</time></trkpt><trkpt lat="47.7308283" lon="-1.9871633"><ele>7.0</ele><time>2026-05-02T10:01:15.14Z</time></trkpt><trkpt lat="47.7306417" lon="-1.98702"><ele>7.0</ele><time>2026-05-02T10:01:16.141Z</time></trkpt><trkpt lat="47.7304633" lon="-1.986885"><ele>7.0</ele><time>2026-05-02T10:01:17.138Z</time></trkpt><trkpt lat="47.730295" lon="-1.9867583"><ele>7.0</ele><time>2026-05-02T10:01:18.14Z</time></trkpt><trkpt lat="47.730135" lon="-1.9866383"><ele>7.666666666666667</ele><time>2026-05-02T10:01:19.14Z</time></trkpt><trkpt lat="47.7299833" lon="-1.9865217"><ele>8.333333333333334</ele><time>2026-05-02T10:01:20.141Z</time></trkpt><trkpt lat="47.7298367" lon="-1.9864133"><ele>9.0</ele><time>2026-05-02T10:01:21.14Z</time></trkpt><trkpt lat="47.7297033" lon="-1.9863117"><ele>9.0</ele><time>2026-05-02T10:01:22.14Z</time></trkpt><trkpt lat="47.729585" lon="-1.98622"><ele>9.0</ele><time>2026-05-02T10:01:23.139Z</time></trkpt><trkpt lat="47.7294833" lon="-1.9861383"><ele>9.0</ele><time>2026-05-02T10:01:24.14Z</time></trkpt><trkpt lat="47.72939" lon="-1.986065"><ele>9.0</ele><time>2026-05-02T10:01:25.14Z</time></trkpt><trkpt lat="47.7293067" lon="-1.9860067"><ele>9.0</ele><time>2026-05-02T10:01:26.141Z</time></trkpt><trkpt lat="47.729235" lon="-1.985955"><ele>9.333333333333334</ele><time>2026-05-02T10:01:27.14Z</time></trkpt><trkpt lat="47.7291717" lon="-1.98592"><ele>9.666666666666666</ele><time>2026-05-02T10:01:28.142Z</time></trkpt><trkpt lat="47.7290567" lon="-1.98596"><ele>10.0</ele><time>2026-05-02T10:01:30.139Z</time></trkpt><trkpt lat="47.72901" lon="-1.9860383"><ele>10.333333333333332</ele><time>2026-05-02T10:01:31.139Z</time></trkpt><trkpt lat="47.7289733" lon="-1.9861517"><ele>10.666666666666666</ele><time>2026-05-02T10:01:32.14Z</time></trkpt><trkpt lat="47.7289417" lon="-1.9862933"><ele>11.0</ele><time>2026-05-02T10:01:33.141Z</time></trkpt><trkpt lat="47.7289333" lon="-1.986515"><ele>10.666666666666666</ele><time>2026-05-02T10:01:34.141Z</time></trkpt><trkpt lat="47.7289117" lon="-1.9867767"><ele>10.333333333333334</ele><time>2026-05-02T10:01:35.139Z</time></trkpt><trkpt lat="47.7288817" lon="-1.9870583"><ele>10.0</ele><time>2026-05-02T10:01:36.141Z</time></trkpt><trkpt lat="47.7288433" lon="-1.9873583"><ele>9.666666666666668</ele><time>2026-05-02T10:01:37.141Z</time></trkpt><trkpt lat="47.7288033" lon="-1.9876717"><ele>9.333333333333334</ele><time>2026-05-02T10:01:38.139Z</time></trkpt><trkpt lat="47.7287583" lon="-1.987995"><ele>9.0</ele><time>2026-05-02T10:01:39.14Z</time></trkpt><trkpt lat="47.7287083" lon="-1.98833"><ele>11.0</ele><time>2026-05-02T10:01:40.139Z</time></trkpt><trkpt lat="47.7286583" lon="-1.98867"><ele>13.0</ele><time>2026-05-02T10:01:41.139Z</time></trkpt><trkpt lat="47.7286183" lon="-1.9890183"><ele>12.0</ele><time>2026-05-02T10:01:42.139Z</time></trkpt><trkpt lat="47.7285733" lon="-1.98936"><ele>11.0</ele><time>2026-05-02T10:01:43.144Z</time></trkpt><trkpt lat="47.728525" lon="-1.9896983"><ele>11.0</ele><time>2026-05-02T10:01:44.14Z</time></trkpt><trkpt lat="47.728475" lon="-1.9900433"><ele>11.0</ele><time>2026-05-02T10:01:45.14Z</time></trkpt><trkpt lat="47.728425" lon="-1.9903933"><ele>11.0</ele><time>2026-05-02T10:01:46.139Z</time></trkpt><trkpt lat="47.7283767" lon="-1.9907317"><ele>11.0</ele><time>2026-05-02T10:01:47.142Z</time></trkpt><trkpt lat="47.72833" lon="-1.9910633"><ele>12.333333333333332</ele><time>2026-05-02T10:01:48.14Z</time></trkpt><trkpt lat="47.7282817" lon="-1.9913833"><ele>13.666666666666666</ele><time>2026-05-02T10:01:49.139Z</time></trkpt><trkpt lat="47.7282383" lon="-1.9916833"><ele>15.0</ele><time>2026-05-02T10:01:50.139Z</time></trkpt><trkpt lat="47.728195" lon="-1.991975"><ele>15.0</ele><time>2026-05-02T10:01:51.14Z</time></trkpt><trkpt lat="47.72815" lon="-1.992265"><ele>15.0</ele><time>2026-05-02T10:01:52.14Z</time></trkpt><trkpt lat="47.72811" lon="-1.9925617"><ele>15.0</ele><time>2026-05-02T10:01:53.141Z</time></trkpt><trkpt lat="47.728075" lon="-1.9928733"><ele>14.333333333333332</ele><time>2026-05-02T10:01:54.14Z</time></trkpt><trkpt lat="47.72804" lon="-1.993195"><ele>13.666666666666666</ele><time>2026-05-02T10:01:55.141Z</time></trkpt><trkpt lat="47.72801" lon="-1.9935267"><ele>13.0</ele><time>2026-05-02T10:01:56.139Z</time></trkpt><trkpt lat="47.7279833" lon="-1.9938733"><ele>10.0</ele><time>2026-05-02T10:01:57.141Z</time></trkpt><trkpt lat="47.7279583" lon="-1.9942283"><ele>7.0</ele><time>2026-05-02T10:01:58.141Z</time></trkpt><trkpt lat="47.727935" lon="-1.99459"><ele>7.0</ele><time>2026-05-02T10:01:59.142Z</time></trkpt><trkpt lat="47.7279117" lon="-1.99495"><ele>7.0</ele><time>2026-05-02T10:02:00.142Z</time></trkpt><trkpt lat="47.7278883" lon="-1.9953217"><ele>7.0</ele><time>2026-05-02T10:02:01.142Z</time></trkpt><trkpt lat="47.7278633" lon="-1.9956933"><ele>7.0</ele><time>2026-05-02T10:02:02.141Z</time></trkpt><trkpt lat="47.7278383" lon="-1.996065"><ele>6.0</ele><time>2026-05-02T10:02:03.141Z</time></trkpt><trkpt lat="47.7278133" lon="-1.9964333"><ele>5.0</ele><time>2026-05-02T10:02:04.141Z</time></trkpt><trkpt lat="47.7277883" lon="-1.9967967"><ele>5.0</ele><time>2026-05-02T10:02:05.14Z</time></trkpt><trkpt lat="47.7277633" lon="-1.9971583"><ele>5.0</ele><time>2026-05-02T10:02:06.141Z</time></trkpt><trkpt lat="47.72774" lon="-1.9975283"><ele>5.5</ele><time>2026-05-02T10:02:07.14Z</time></trkpt><trkpt lat="47.727715" lon="-1.9978983"><ele>6.0</ele><time>2026-05-02T10:02:08.14Z</time></trkpt><trkpt lat="47.72769" lon="-1.9982683"><ele>7.0</ele><time>2026-05-02T10:02:09.141Z</time></trkpt><trkpt lat="47.727665" lon="-1.9986383"><ele>8.0</ele><time>2026-05-02T10:02:10.141Z</time></trkpt><trkpt lat="47.72764" lon="-1.999005"><ele>9.5</ele><time>2026-05-02T10:02:11.141Z</time></trkpt><trkpt lat="47.727615" lon="-1.9993783"><ele>11.0</ele><time>2026-05-02T10:02:12.139Z</time></trkpt><trkpt lat="47.7275917" lon="-1.9997583"><ele>11.0</ele><time>2026-05-02T10:02:13.139Z</time></trkpt><trkpt lat="47.7275683" lon="-2.0001383"><ele>11.0</ele><time>2026-05-02T10:02:14.14Z</time></trkpt><trkpt lat="47.7275433" lon="-2.0005067"><ele>12.5</ele><time>2026-05-02T10:02:15.139Z</time></trkpt><trkpt lat="47.7275183" lon="-2.00085"><ele>14.0</ele><time>2026-05-02T10:02:16.14Z</time></trkpt><trkpt lat="47.727495" lon="-2.00118"><ele>14.0</ele><time>2026-05-02T10:02:17.139Z</time></trkpt><trkpt lat="47.7274733" lon="-2.0014933"><ele>14.0</ele><time>2026-05-02T10:02:18.139Z</time></trkpt><trkpt lat="47.7274533" lon="-2.0018"><ele>14.0</ele><time>2026-05-02T10:02:19.142Z</time></trkpt><trkpt lat="47.7274317" lon="-2.002105"><ele>15.333333333333334</ele><time>2026-05-02T10:02:20.139Z</time></trkpt><trkpt lat="47.727415" lon="-2.0024067"><ele>16.666666666666668</ele><time>2026-05-02T10:02:21.143Z</time></trkpt><trkpt lat="47.7274083" lon="-2.0027017"><ele>18.0</ele><time>2026-05-02T10:02:22.139Z</time></trkpt><trkpt lat="47.72742" lon="-2.0029867"><ele>20.0</ele><time>2026-05-02T10:02:23.139Z</time></trkpt><trkpt lat="47.7274517" lon="-2.003255"><ele>22.0</ele><time>2026-05-02T10:02:24.14Z</time></trkpt><trkpt lat="47.72749" lon="-2.0035133"><ele>24.0</ele><time>2026-05-02T10:02:25.139Z</time></trkpt><trkpt lat="47.7275217" lon="-2.0037733"><ele>26.333333333333336</ele><time>2026-05-02T10:02:26.14Z</time></trkpt><trkpt lat="47.7275333" lon="-2.0040467"><ele>28.666666666666668</ele><time>2026-05-02T10:02:27.14Z</time></trkpt><trkpt lat="47.7275283" lon="-2.00433"><ele>31.0</ele><time>2026-05-02T10:02:28.139Z</time></trkpt><trkpt lat="47.7275133" lon="-2.0046267"><ele>33.0</ele><time>2026-05-02T10:02:29.14Z</time></trkpt><trkpt lat="47.7274883" lon="-2.00494"><ele>35.0</ele><time>2026-05-02T10:02:30.14Z</time></trkpt><trkpt lat="47.7274617" lon="-2.0052617"><ele>37.0</ele><time>2026-05-02T10:02:31.14Z</time></trkpt><trkpt lat="47.7274383" lon="-2.005585"><ele>39.66666666666667</ele><time>2026-05-02T10:02:32.14Z</time></trkpt><trkpt lat="47.727415" lon="-2.005895"><ele>42.333333333333336</ele><time>2026-05-02T10:02:33.14Z</time></trkpt><trkpt lat="47.7273933" lon="-2.0061917"><ele>45.0</ele><time>2026-05-02T10:02:34.14Z</time></trkpt><trkpt lat="47.7273733" lon="-2.0064717"><ele>46.0</ele><time>2026-05-02T10:02:35.14Z</time></trkpt><trkpt lat="47.72736" lon="-2.0067383"><ele>47.0</ele><time>2026-05-02T10:02:36.143Z</time></trkpt><trkpt lat="47.7273583" lon="-2.00701"><ele>48.0</ele><time>2026-05-02T10:02:37.14Z</time></trkpt><trkpt lat="47.72737" lon="-2.007285"><ele>48.33333333333333</ele><time>2026-05-02T10:02:38.138Z</time></trkpt><trkpt lat="47.7273883" lon="-2.0075633"><ele>48.666666666666664</ele><time>2026-05-02T10:02:39.14Z</time></trkpt><trkpt lat="47.727405" lon="-2.0078467"><ele>49.0</ele><time>2026-05-02T10:02:40.143Z</time></trkpt><trkpt lat="47.7274117" lon="-2.0081283"><ele>49.0</ele><time>2026-05-02T10:02:41.139Z</time></trkpt><trkpt lat="47.7274" lon="-2.008415"><ele>49.0</ele><time>2026-05-02T10:02:42.14Z</time></trkpt><trkpt lat="47.7273767" lon="-2.0087017"><ele>49.0</ele><time>2026-05-02T10:02:43.139Z</time></trkpt><trkpt lat="47.7273367" lon="-2.0089767"><ele>48.666666666666664</ele><time>2026-05-02T10:02:44.14Z</time></trkpt><trkpt lat="47.7272817" lon="-2.0092283"><ele>48.33333333333333</ele><time>2026-05-02T10:02:45.14Z</time></trkpt><trkpt lat="47.7272067" lon="-2.0094583"><ele>48.0</ele><time>2026-05-02T10:02:46.145Z</time></trkpt><trkpt lat="47.72712" lon="-2.009665"><ele>48.0</ele><time>2026-05-02T10:02:47.14Z</time></trkpt><trkpt lat="47.72704" lon="-2.0098617"><ele>48.0</ele><time>2026-05-02T10:02:48.14Z</time></trkpt><trkpt lat="47.7269733" lon="-2.010065"><ele>48.0</ele><time>2026-05-02T10:02:49.139Z</time></trkpt><trkpt lat="47.7269183" lon="-2.0102883"><ele>47.333333333333336</ele><time>2026-05-02T10:02:50.14Z</time></trkpt><trkpt lat="47.7268817" lon="-2.01053"><ele>46.66666666666667</ele><time>2026-05-02T10:02:51.14Z</time></trkpt><trkpt lat="47.72686" lon="-2.01078"><ele>46.0</ele><time>2026-05-02T10:02:52.14Z</time></trkpt><trkpt lat="47.7268433" lon="-2.0110333"><ele>44.75</ele><time>2026-05-02T10:02:53.143Z</time></trkpt><trkpt lat="47.7268333" lon="-2.0112717"><ele>43.5</ele><time>2026-05-02T10:02:54.139Z</time></trkpt><trkpt lat="47.7268283" lon="-2.01149"><ele>42.25</ele><time>2026-05-02T10:02:55.139Z</time></trkpt><trkpt lat="47.726825" lon="-2.011695"><ele>41.0</ele><time>2026-05-02T10:02:56.14Z</time></trkpt><trkpt lat="47.7268233" lon="-2.011885"><ele>41.0</ele><time>2026-05-02T10:02:57.14Z</time></trkpt><trkpt lat="47.726825" lon="-2.01206"><ele>41.0</ele><time>2026-05-02T10:02:58.14Z</time></trkpt><trkpt lat="47.7268283" lon="-2.0122083"><ele>41.0</ele><time>2026-05-02T10:02:59.139Z</time></trkpt><trkpt lat="47.7268383" lon="-2.0123417"><ele>41.0</ele><time>2026-05-02T10:03:00.139Z</time></trkpt><trkpt lat="47.726855" lon="-2.0124733"><ele>41.0</ele><time>2026-05-02T10:03:01.139Z</time></trkpt><trkpt lat="47.726875" lon="-2.0126183"><ele>41.5</ele><time>2026-05-02T10:03:02.139Z</time></trkpt><trkpt lat="47.72689" lon="-2.01278"><ele>42.0</ele><time>2026-05-02T10:03:03.139Z</time></trkpt><trkpt lat="47.7269033" lon="-2.012955"><ele>42.5</ele><time>2026-05-02T10:03:04.139Z</time></trkpt><trkpt lat="47.7269133" lon="-2.013145"><ele>43.0</ele><time>2026-05-02T10:03:05.14Z</time></trkpt><trkpt lat="47.7269183" lon="-2.0133567"><ele>43.333333333333336</ele><time>2026-05-02T10:03:06.139Z</time></trkpt><trkpt lat="47.7269117" lon="-2.0135883"><ele>43.666666666666664</ele><time>2026-05-02T10:03:07.139Z</time></trkpt><trkpt lat="47.7268983" lon="-2.0138317"><ele>44.0</ele><time>2026-05-02T10:03:08.141Z</time></trkpt><trkpt lat="47.7268817" lon="-2.0140917"><ele>43.666666666666664</ele><time>2026-05-02T10:03:09.144Z</time></trkpt><trkpt lat="47.7268667" lon="-2.0143717"><ele>43.333333333333336</ele><time>2026-05-02T10:03:10.142Z</time></trkpt><trkpt lat="47.72685" lon="-2.0146583"><ele>43.0</ele><time>2026-05-02T10:03:11.14Z</time></trkpt><trkpt lat="47.7268317" lon="-2.014945"><ele>42.66666666666667</ele><time>2026-05-02T10:03:12.139Z</time></trkpt><trkpt lat="47.726815" lon="-2.015225"><ele>42.333333333333336</ele><time>2026-05-02T10:03:13.139Z</time></trkpt><trkpt lat="47.7268" lon="-2.01549"><ele>42.0</ele><time>2026-05-02T10:03:14.139Z</time></trkpt><trkpt lat="47.726785" lon="-2.015735"><ele>42.75</ele><time>2026-05-02T10:03:15.139Z</time></trkpt><trkpt lat="47.72677" lon="-2.0159617"><ele>43.5</ele><time>2026-05-02T10:03:16.142Z</time></trkpt><trkpt lat="47.7267533" lon="-2.01615"><ele>44.25</ele><time>2026-05-02T10:03:17.139Z</time></trkpt><trkpt lat="47.7267333" lon="-2.0162967"><ele>45.0</ele><time>2026-05-02T10:03:18.138Z</time></trkpt><trkpt lat="47.726715" lon="-2.016415"><ele>45.0</ele><time>2026-05-02T10:03:19.139Z</time></trkpt><trkpt lat="47.7266817" lon="-2.016575"><ele>45.0</ele><time>2026-05-02T10:03:21.14Z</time></trkpt><trkpt lat="47.726605" lon="-2.01666"><ele>45.0</ele><time>2026-05-02T10:03:23.142Z</time></trkpt><trkpt lat="47.7265417" lon="-2.0166733"><ele>45.0</ele><time>2026-05-02T10:03:24.139Z</time></trkpt><trkpt lat="47.7264617" lon="-2.01668"><ele>45.0</ele><time>2026-05-02T10:03:25.14Z</time></trkpt><trkpt lat="47.7263683" lon="-2.0166917"><ele>45.0</ele><time>2026-05-02T10:03:26.139Z</time></trkpt><trkpt lat="47.7262683" lon="-2.0166983"><ele>44.8</ele><time>2026-05-02T10:03:27.139Z</time></trkpt><trkpt lat="47.72616" lon="-2.016695"><ele>44.6</ele><time>2026-05-02T10:03:28.139Z</time></trkpt><trkpt lat="47.7260483" lon="-2.0167"><ele>44.400000000000006</ele><time>2026-05-02T10:03:29.139Z</time></trkpt><trkpt lat="47.7259383" lon="-2.01671"><ele>44.2</ele><time>2026-05-02T10:03:30.139Z</time></trkpt><trkpt lat="47.725825" lon="-2.01672"><ele>44.0</ele><time>2026-05-02T10:03:31.139Z</time></trkpt><trkpt lat="47.72572" lon="-2.016735"><ele>44.0</ele><time>2026-05-02T10:03:32.14Z</time></trkpt><trkpt lat="47.725615" lon="-2.0167483"><ele>44.0</ele><time>2026-05-02T10:03:33.139Z</time></trkpt><trkpt lat="47.7255183" lon="-2.0167583"><ele>44.0</ele><time>2026-05-02T10:03:34.14Z</time></trkpt><trkpt lat="47.7254183" lon="-2.01677"><ele>44.0</ele><time>2026-05-02T10:03:35.139Z</time></trkpt><trkpt lat="47.725325" lon="-2.0167783"><ele>44.0</ele><time>2026-05-02T10:03:36.139Z</time></trkpt><trkpt lat="47.7252283" lon="-2.0167883"><ele>43.2</ele><time>2026-05-02T10:03:37.14Z</time></trkpt><trkpt lat="47.725125" lon="-2.0167917"><ele>42.400000000000006</ele><time>2026-05-02T10:03:38.139Z</time></trkpt><trkpt lat="47.725015" lon="-2.01679"><ele>41.6</ele><time>2026-05-02T10:03:39.143Z</time></trkpt><trkpt lat="47.7249067" lon="-2.0167867"><ele>40.8</ele><time>2026-05-02T10:03:40.139Z</time></trkpt><trkpt lat="47.7248" lon="-2.016795"><ele>40.0</ele><time>2026-05-02T10:03:41.138Z</time></trkpt><trkpt lat="47.7246967" lon="-2.0168"><ele>40.0</ele><time>2026-05-02T10:03:42.139Z</time></trkpt><trkpt lat="47.7245967" lon="-2.0168067"><ele>40.0</ele><time>2026-05-02T10:03:43.139Z</time></trkpt><trkpt lat="47.7245017" lon="-2.0168"><ele>40.0</ele><time>2026-05-02T10:03:44.139Z</time></trkpt><trkpt lat="47.7244217" lon="-2.0167933"><ele>40.0</ele><time>2026-05-02T10:03:45.14Z</time></trkpt><trkpt lat="47.724315" lon="-2.0167967"><ele>40.0</ele><time>2026-05-02T10:03:47.139Z</time></trkpt><trkpt lat="47.72425" lon="-2.0167967"><ele>40.0</ele><time>2026-05-02T10:03:49.139Z</time></trkpt><trkpt lat="47.72417" lon="-2.0167917"><ele>38.4</ele><time>2026-05-02T10:03:51.139Z</time></trkpt><trkpt lat="47.7240483" lon="-2.0167717"><ele>36.8</ele><time>2026-05-02T10:03:53.141Z</time></trkpt><trkpt lat="47.7239617" lon="-2.01677"><ele>35.2</ele><time>2026-05-02T10:03:54.14Z</time></trkpt><trkpt lat="47.7238667" lon="-2.0167633"><ele>33.6</ele><time>2026-05-02T10:03:55.14Z</time></trkpt><trkpt lat="47.7237633" lon="-2.016755"><ele>32.0</ele><time>2026-05-02T10:03:56.14Z</time></trkpt><trkpt lat="47.7236567" lon="-2.016745"><ele>31.200000000000003</ele><time>2026-05-02T10:03:57.14Z</time></trkpt><trkpt lat="47.7235467" lon="-2.0167367"><ele>30.400000000000002</ele><time>2026-05-02T10:03:58.14Z</time></trkpt><trkpt lat="47.7234533" lon="-2.0167317"><ele>29.599999999999998</ele><time>2026-05-02T10:03:59.14Z</time></trkpt><trkpt lat="47.7233767" lon="-2.0167233"><ele>28.799999999999997</ele><time>2026-05-02T10:04:00.141Z</time></trkpt><trkpt lat="47.72327" lon="-2.0166967"><ele>28.0</ele><time>2026-05-02T10:04:02.14Z</time></trkpt><trkpt lat="47.7231983" lon="-2.0166683"><ele>28.0</ele><time>2026-05-02T10:04:04.14Z</time></trkpt><trkpt lat="47.723085" lon="-2.0166667"><ele>27.999999999999996</ele><time>2026-05-02T10:04:06.141Z</time></trkpt><trkpt lat="47.7230117" lon="-2.0166667"><ele>27.999999999999996</ele><time>2026-05-02T10:04:07.141Z</time></trkpt><trkpt lat="47.72293" lon="-2.0166667"><ele>28.0</ele><time>2026-05-02T10:04:08.141Z</time></trkpt><trkpt lat="47.722825" lon="-2.0166633"><ele>28.0</ele><time>2026-05-02T10:04:09.14Z</time></trkpt><trkpt lat="47.7227083" lon="-2.0166533"><ele>27.0</ele><time>2026-05-02T10:04:10.14Z</time></trkpt><trkpt lat="47.7225867" lon="-2.0166433"><ele>26.0</ele><time>2026-05-02T10:04:11.139Z</time></trkpt><trkpt lat="47.72246" lon="-2.0166283"><ele>25.0</ele><time>2026-05-02T10:04:12.14Z</time></trkpt><trkpt lat="47.72235" lon="-2.01662"><ele>24.0</ele><time>2026-05-02T10:04:13.14Z</time></trkpt><trkpt lat="47.72225" lon="-2.0166083"><ele>24.0</ele><time>2026-05-02T10:04:14.14Z</time></trkpt><trkpt lat="47.7221567" lon="-2.016605"><ele>24.0</ele><time>2026-05-02T10:04:15.14Z</time></trkpt><trkpt lat="47.7220733" lon="-2.0166083"><ele>24.0</ele><time>2026-05-02T10:04:16.14Z</time></trkpt><trkpt lat="47.7220033" lon="-2.0166167"><ele>24.0</ele><time>2026-05-02T10:04:17.14Z</time></trkpt><trkpt lat="47.721915" lon="-2.0166933"><ele>24.0</ele><time>2026-05-02T10:04:19.14Z</time></trkpt><trkpt lat="47.7218933" lon="-2.0168417"><ele>24.0</ele><time>2026-05-02T10:04:21.141Z</time></trkpt><trkpt lat="47.7219017" lon="-2.0169467"><ele>24.0</ele><time>2026-05-02T10:04:22.141Z</time></trkpt><trkpt lat="47.7219217" lon="-2.0170683"><ele>24.0</ele><time>2026-05-02T10:04:23.141Z</time></trkpt><trkpt lat="47.7219433" lon="-2.0171967"><ele>24.0</ele><time>2026-05-02T10:04:24.142Z</time></trkpt><trkpt lat="47.7219783" lon="-2.01735"><ele>24.0</ele><time>2026-05-02T10:04:25.141Z</time></trkpt><trkpt lat="47.7220117" lon="-2.01752"><ele>24.0</ele><time>2026-05-02T10:04:26.142Z</time></trkpt><trkpt lat="47.7220433" lon="-2.0176967"><ele>24.0</ele><time>2026-05-02T10:04:27.142Z</time></trkpt><trkpt lat="47.7220767" lon="-2.0178733"><ele>24.0</ele><time>2026-05-02T10:04:28.141Z</time></trkpt><trkpt lat="47.7221067" lon="-2.018045"><ele>24.0</ele><time>2026-05-02T10:04:29.141Z</time></trkpt><trkpt lat="47.7221383" lon="-2.0182133"><ele>24.0</ele><time>2026-05-02T10:04:30.141Z</time></trkpt><trkpt lat="47.7221817" lon="-2.018395"><ele>24.0</ele><time>2026-05-02T10:04:31.142Z</time></trkpt><trkpt lat="47.7222217" lon="-2.0185633"><ele>24.0</ele><time>2026-05-02T10:04:32.141Z</time></trkpt><trkpt lat="47.7222533" lon="-2.0187383"><ele>24.0</ele><time>2026-05-02T10:04:33.144Z</time></trkpt><trkpt lat="47.7222967" lon="-2.018915"><ele>24.0</ele><time>2026-05-02T10:04:34.141Z</time></trkpt><trkpt lat="47.7223383" lon="-2.01911"><ele>24.0</ele><time>2026-05-02T10:04:35.142Z</time></trkpt><trkpt lat="47.7223683" lon="-2.01932"><ele>24.0</ele><time>2026-05-02T10:04:36.141Z</time></trkpt><trkpt lat="47.7223883" lon="-2.01954"><ele>24.0</ele><time>2026-05-02T10:04:37.142Z</time></trkpt><trkpt lat="47.7224" lon="-2.0197583"><ele>24.5</ele><time>2026-05-02T10:04:38.141Z</time></trkpt><trkpt lat="47.7224033" lon="-2.01997"><ele>25.0</ele><time>2026-05-02T10:04:39.142Z</time></trkpt><trkpt lat="47.7224117" lon="-2.0201733"><ele>25.5</ele><time>2026-05-02T10:04:40.141Z</time></trkpt><trkpt lat="47.7224083" lon="-2.0203683"><ele>26.0</ele><time>2026-05-02T10:04:41.143Z</time></trkpt><trkpt lat="47.7223883" lon="-2.020545"><ele>26.5</ele><time>2026-05-02T10:04:42.141Z</time></trkpt><trkpt lat="47.722355" lon="-2.020735"><ele>27.0</ele><time>2026-05-02T10:04:43.142Z</time></trkpt><trkpt lat="47.7223183" lon="-2.0209333"><ele>27.5</ele><time>2026-05-02T10:04:44.141Z</time></trkpt><trkpt lat="47.7222817" lon="-2.021125"><ele>28.0</ele><time>2026-05-02T10:04:45.142Z</time></trkpt><trkpt lat="47.7222567" lon="-2.0213017"><ele>28.0</ele><time>2026-05-02T10:04:46.142Z</time></trkpt><trkpt lat="47.7222267" lon="-2.0214733"><ele>27.999999999999996</ele><time>2026-05-02T10:04:47.141Z</time></trkpt><trkpt lat="47.7221917" lon="-2.0216333"><ele>27.999999999999996</ele><time>2026-05-02T10:04:48.141Z</time></trkpt><trkpt lat="47.7221483" lon="-2.02178"><ele>28.0</ele><time>2026-05-02T10:04:49.141Z</time></trkpt><trkpt lat="47.7220967" lon="-2.021915"><ele>28.0</ele><time>2026-05-02T10:04:50.141Z</time></trkpt><trkpt lat="47.7220233" lon="-2.0220383"><ele>27.5</ele><time>2026-05-02T10:04:51.142Z</time></trkpt><trkpt lat="47.7219367" lon="-2.0221483"><ele>27.0</ele><time>2026-05-02T10:04:52.141Z</time></trkpt><trkpt lat="47.7218283" lon="-2.0222483"><ele>26.5</ele><time>2026-05-02T10:04:53.141Z</time></trkpt><trkpt lat="47.7217067" lon="-2.0223583"><ele>26.0</ele><time>2026-05-02T10:04:54.142Z</time></trkpt><trkpt lat="47.7215733" lon="-2.022465"><ele>27.666666666666664</ele><time>2026-05-02T10:04:55.142Z</time></trkpt><trkpt lat="47.7214367" lon="-2.0225683"><ele>29.333333333333336</ele><time>2026-05-02T10:04:56.141Z</time></trkpt><trkpt lat="47.7212967" lon="-2.022665"><ele>31.0</ele><time>2026-05-02T10:04:57.141Z</time></trkpt><trkpt lat="47.7211583" lon="-2.02276"><ele>33.25</ele><time>2026-05-02T10:04:58.142Z</time></trkpt><trkpt lat="47.72102" lon="-2.0228367"><ele>35.5</ele><time>2026-05-02T10:04:59.142Z</time></trkpt><trkpt lat="47.72088" lon="-2.022885"><ele>37.75</ele><time>2026-05-02T10:05:00.142Z</time></trkpt><trkpt lat="47.7207417" lon="-2.0229217"><ele>40.0</ele><time>2026-05-02T10:05:01.141Z</time></trkpt><trkpt lat="47.7205983" lon="-2.0229417"><ele>40.0</ele><time>2026-05-02T10:05:02.141Z</time></trkpt><trkpt lat="47.7204467" lon="-2.02294"><ele>40.0</ele><time>2026-05-02T10:05:03.141Z</time></trkpt><trkpt lat="47.720285" lon="-2.0229283"><ele>40.0</ele><time>2026-05-02T10:05:04.141Z</time></trkpt><trkpt lat="47.7201117" lon="-2.022905"><ele>41.333333333333336</ele><time>2026-05-02T10:05:05.139Z</time></trkpt><trkpt lat="47.719925" lon="-2.0228817"><ele>42.666666666666664</ele><time>2026-05-02T10:05:06.142Z</time></trkpt><trkpt lat="47.7197217" lon="-2.0228533"><ele>44.0</ele><time>2026-05-02T10:05:07.142Z</time></trkpt><trkpt lat="47.7195117" lon="-2.0228233"><ele>44.0</ele><time>2026-05-02T10:05:08.141Z</time></trkpt><trkpt lat="47.7193117" lon="-2.0227967"><ele>44.0</ele><time>2026-05-02T10:05:09.142Z</time></trkpt><trkpt lat="47.7191333" lon="-2.0227717"><ele>44.0</ele><time>2026-05-02T10:05:10.142Z</time></trkpt><trkpt lat="47.7189833" lon="-2.0227583"><ele>44.0</ele><time>2026-05-02T10:05:11.142Z</time></trkpt><trkpt lat="47.7188617" lon="-2.0227667"><ele>44.0</ele><time>2026-05-02T10:05:12.14Z</time></trkpt><trkpt lat="47.7187633" lon="-2.022785"><ele>44.0</ele><time>2026-05-02T10:05:13.14Z</time></trkpt><trkpt lat="47.7186883" lon="-2.0227983"><ele>44.0</ele><time>2026-05-02T10:05:14.139Z</time></trkpt><trkpt lat="47.7186183" lon="-2.0228167"><ele>44.0</ele><time>2026-05-02T10:05:16.14Z</time></trkpt><trkpt lat="47.7186783" lon="-2.02287"><ele>44.0</ele><time>2026-05-02T10:05:28.14Z</time></trkpt><trkpt lat="47.7187383" lon="-2.0229717"><ele>44.0</ele><time>2026-05-02T10:05:30.14Z</time></trkpt><trkpt lat="47.7187683" lon="-2.02307"><ele>44.0</ele><time>2026-05-02T10:05:31.14Z</time></trkpt><trkpt lat="47.7187967" lon="-2.02319"><ele>44.0</ele><time>2026-05-02T10:05:32.14Z</time></trkpt><trkpt lat="47.7188233" lon="-2.0233333"><ele>44.0</ele><time>2026-05-02T10:05:33.14Z</time></trkpt><trkpt lat="47.7188517" lon="-2.0235067"><ele>44.0</ele><time>2026-05-02T10:05:34.14Z</time></trkpt><trkpt lat="47.718885" lon="-2.0236867"><ele>44.25</ele><time>2026-05-02T10:05:35.14Z</time></trkpt><trkpt lat="47.718915" lon="-2.0238783"><ele>44.5</ele><time>2026-05-02T10:05:36.14Z</time></trkpt><trkpt lat="47.7189467" lon="-2.02409"><ele>44.75</ele><time>2026-05-02T10:05:37.142Z</time></trkpt><trkpt lat="47.7189783" lon="-2.024305"><ele>45.0</ele><time>2026-05-02T10:05:38.14Z</time></trkpt><trkpt lat="47.7190133" lon="-2.0245233"><ele>45.0</ele><time>2026-05-02T10:05:39.14Z</time></trkpt><trkpt lat="47.7190483" lon="-2.0247533"><ele>45.0</ele><time>2026-05-02T10:05:40.14Z</time></trkpt><trkpt lat="47.719085" lon="-2.0249817"><ele>45.0</ele><time>2026-05-02T10:05:41.139Z</time></trkpt><trkpt lat="47.7191233" lon="-2.0252133"><ele>45.333333333333336</ele><time>2026-05-02T10:05:42.14Z</time></trkpt><trkpt lat="47.7191633" lon="-2.0254433"><ele>45.66666666666667</ele><time>2026-05-02T10:05:43.138Z</time></trkpt><trkpt lat="47.7192017" lon="-2.0256767"><ele>46.0</ele><time>2026-05-02T10:05:44.14Z</time></trkpt><trkpt lat="47.7192417" lon="-2.0259183"><ele>46.333333333333336</ele><time>2026-05-02T10:05:45.14Z</time></trkpt><trkpt lat="47.7192833" lon="-2.02616"><ele>46.666666666666664</ele><time>2026-05-02T10:05:46.139Z</time></trkpt><trkpt lat="47.7193217" lon="-2.0264"><ele>47.0</ele><time>2026-05-02T10:05:47.139Z</time></trkpt><trkpt lat="47.7193533" lon="-2.02664"><ele>47.666666666666664</ele><time>2026-05-02T10:05:48.142Z</time></trkpt><trkpt lat="47.71939" lon="-2.026875"><ele>48.33333333333333</ele><time>2026-05-02T10:05:49.139Z</time></trkpt><trkpt lat="47.71943" lon="-2.0271117"><ele>49.0</ele><time>2026-05-02T10:05:50.141Z</time></trkpt><trkpt lat="47.71947" lon="-2.0273533"><ele>52.0</ele><time>2026-05-02T10:05:51.14Z</time></trkpt><trkpt lat="47.7195083" lon="-2.027595"><ele>55.0</ele><time>2026-05-02T10:05:52.141Z</time></trkpt><trkpt lat="47.719545" lon="-2.0278333"><ele>58.0</ele><time>2026-05-02T10:05:53.14Z</time></trkpt><trkpt lat="47.71958" lon="-2.028075"><ele>56.666666666666664</ele><time>2026-05-02T10:05:54.138Z</time></trkpt><trkpt lat="47.7196167" lon="-2.0283183"><ele>55.33333333333333</ele><time>2026-05-02T10:05:55.14Z</time></trkpt><trkpt lat="47.7196567" lon="-2.02856"><ele>54.0</ele><time>2026-05-02T10:05:56.139Z</time></trkpt><trkpt lat="47.7196983" lon="-2.0288067"><ele>54.0</ele><time>2026-05-02T10:05:57.139Z</time></trkpt><trkpt lat="47.7197383" lon="-2.0290517"><ele>54.0</ele><time>2026-05-02T10:05:58.14Z</time></trkpt><trkpt lat="47.7197767" lon="-2.0292917"><ele>54.0</ele><time>2026-05-02T10:05:59.143Z</time></trkpt><trkpt lat="47.7198117" lon="-2.0295333"><ele>54.33333333333333</ele><time>2026-05-02T10:06:00.14Z</time></trkpt><trkpt lat="47.7198467" lon="-2.02977"><ele>54.666666666666664</ele><time>2026-05-02T10:06:01.14Z</time></trkpt><trkpt lat="47.7198833" lon="-2.0300083"><ele>55.0</ele><time>2026-05-02T10:06:02.14Z</time></trkpt><trkpt lat="47.7199217" lon="-2.0302483"><ele>54.0</ele><time>2026-05-02T10:06:03.142Z</time></trkpt><trkpt lat="47.7199583" lon="-2.0304867"><ele>53.0</ele><time>2026-05-02T10:06:04.142Z</time></trkpt><trkpt lat="47.719995" lon="-2.030725"><ele>52.0</ele><time>2026-05-02T10:06:05.141Z</time></trkpt><trkpt lat="47.7200383" lon="-2.03095"><ele>51.666666666666664</ele><time>2026-05-02T10:06:06.145Z</time></trkpt><trkpt lat="47.72008" lon="-2.0311733"><ele>51.33333333333333</ele><time>2026-05-02T10:06:07.141Z</time></trkpt><trkpt lat="47.72013" lon="-2.0313917"><ele>51.0</ele><time>2026-05-02T10:06:08.141Z</time></trkpt><trkpt lat="47.7201817" lon="-2.03161"><ele>50.0</ele><time>2026-05-02T10:06:09.141Z</time></trkpt><trkpt lat="47.72024" lon="-2.0318267"><ele>49.0</ele><time>2026-05-02T10:06:10.141Z</time></trkpt><trkpt lat="47.72031" lon="-2.0320483"><ele>48.0</ele><time>2026-05-02T10:06:11.141Z</time></trkpt><trkpt lat="47.720375" lon="-2.0322617"><ele>48.0</ele><time>2026-05-02T10:06:12.141Z</time></trkpt><trkpt lat="47.7204383" lon="-2.032475"><ele>48.0</ele><time>2026-05-02T10:06:13.141Z</time></trkpt><trkpt lat="47.720505" lon="-2.03268"><ele>48.0</ele><time>2026-05-02T10:06:14.139Z</time></trkpt><trkpt lat="47.72057" lon="-2.0328833"><ele>48.0</ele><time>2026-05-02T10:06:15.14Z</time></trkpt><trkpt lat="47.72063" lon="-2.0330867"><ele>48.0</ele><time>2026-05-02T10:06:16.14Z</time></trkpt><trkpt lat="47.7206783" lon="-2.0332967"><ele>48.0</ele><time>2026-05-02T10:06:17.142Z</time></trkpt><trkpt lat="47.7207217" lon="-2.0335133"><ele>48.33333333333333</ele><time>2026-05-02T10:06:18.139Z</time></trkpt><trkpt lat="47.7207667" lon="-2.033735"><ele>48.666666666666664</ele><time>2026-05-02T10:06:19.143Z</time></trkpt><trkpt lat="47.7208033" lon="-2.03397"><ele>49.0</ele><time>2026-05-02T10:06:20.14Z</time></trkpt><trkpt lat="47.7208367" lon="-2.0342167"><ele>49.666666666666664</ele><time>2026-05-02T10:06:21.14Z</time></trkpt><trkpt lat="47.7208717" lon="-2.0344667"><ele>50.33333333333333</ele><time>2026-05-02T10:06:22.139Z</time></trkpt><trkpt lat="47.7209083" lon="-2.034725"><ele>51.0</ele><time>2026-05-02T10:06:23.139Z</time></trkpt><trkpt lat="47.7209433" lon="-2.0349867"><ele>51.0</ele><time>2026-05-02T10:06:24.139Z</time></trkpt><trkpt lat="47.7209817" lon="-2.0352483"><ele>51.0</ele><time>2026-05-02T10:06:25.139Z</time></trkpt><trkpt lat="47.7210217" lon="-2.03551"><ele>51.0</ele><time>2026-05-02T10:06:26.14Z</time></trkpt><trkpt lat="47.7210567" lon="-2.03577"><ele>48.0</ele><time>2026-05-02T10:06:27.14Z</time></trkpt><trkpt lat="47.7210917" lon="-2.036025"><ele>45.0</ele><time>2026-05-02T10:06:28.139Z</time></trkpt><trkpt lat="47.7211233" lon="-2.036275"><ele>42.0</ele><time>2026-05-02T10:06:29.14Z</time></trkpt><trkpt lat="47.721155" lon="-2.0365183"><ele>41.333333333333336</ele><time>2026-05-02T10:06:30.14Z</time></trkpt><trkpt lat="47.7211883" lon="-2.0367567"><ele>40.66666666666667</ele><time>2026-05-02T10:06:31.139Z</time></trkpt><trkpt lat="47.7212183" lon="-2.03699"><ele>40.0</ele><time>2026-05-02T10:06:32.139Z</time></trkpt><trkpt lat="47.7212533" lon="-2.0372183"><ele>40.0</ele><time>2026-05-02T10:06:33.14Z</time></trkpt><trkpt lat="47.721285" lon="-2.037445"><ele>40.0</ele><time>2026-05-02T10:06:34.14Z</time></trkpt><trkpt lat="47.721315" lon="-2.0376733"><ele>40.0</ele><time>2026-05-02T10:06:35.139Z</time></trkpt><trkpt lat="47.7213483" lon="-2.0379067"><ele>40.333333333333336</ele><time>2026-05-02T10:06:36.14Z</time></trkpt><trkpt lat="47.7213733" lon="-2.0381417"><ele>40.666666666666664</ele><time>2026-05-02T10:06:37.14Z</time></trkpt><trkpt lat="47.7213883" lon="-2.038375"><ele>41.0</ele><time>2026-05-02T10:06:38.14Z</time></trkpt><trkpt lat="47.7214033" lon="-2.0386117"><ele>42.0</ele><time>2026-05-02T10:06:39.14Z</time></trkpt><trkpt lat="47.72142" lon="-2.0388483"><ele>43.0</ele><time>2026-05-02T10:06:40.14Z</time></trkpt><trkpt lat="47.721435" lon="-2.0390917"><ele>44.0</ele><time>2026-05-02T10:06:41.141Z</time></trkpt><trkpt lat="47.72145" lon="-2.0393367"><ele>44.666666666666664</ele><time>2026-05-02T10:06:42.139Z</time></trkpt><trkpt lat="47.721465" lon="-2.03958"><ele>45.333333333333336</ele><time>2026-05-02T10:06:43.139Z</time></trkpt><trkpt lat="47.7214733" lon="-2.0398217"><ele>46.0</ele><time>2026-05-02T10:06:44.14Z</time></trkpt><trkpt lat="47.721485" lon="-2.0400717"><ele>46.66666666666667</ele><time>2026-05-02T10:06:45.14Z</time></trkpt><trkpt lat="47.7215017" lon="-2.0402983"><ele>47.333333333333336</ele><time>2026-05-02T10:06:46.139Z</time></trkpt><trkpt lat="47.7215183" lon="-2.0405333"><ele>48.0</ele><time>2026-05-02T10:06:47.14Z</time></trkpt><trkpt lat="47.7215333" lon="-2.0407667"><ele>48.33333333333333</ele><time>2026-05-02T10:06:48.141Z</time></trkpt><trkpt lat="47.72154" lon="-2.0409967"><ele>48.666666666666664</ele><time>2026-05-02T10:06:49.141Z</time></trkpt><trkpt lat="47.7215483" lon="-2.04122"><ele>49.0</ele><time>2026-05-02T10:06:50.14Z</time></trkpt><trkpt lat="47.7215617" lon="-2.041445"><ele>49.0</ele><time>2026-05-02T10:06:51.143Z</time></trkpt><trkpt lat="47.7215783" lon="-2.0416683"><ele>49.0</ele><time>2026-05-02T10:06:52.142Z</time></trkpt><trkpt lat="47.72159" lon="-2.0418867"><ele>49.0</ele><time>2026-05-02T10:06:53.14Z</time></trkpt><trkpt lat="47.7216033" lon="-2.0421267"><ele>49.0</ele><time>2026-05-02T10:06:54.14Z</time></trkpt><trkpt lat="47.7216167" lon="-2.0423717"><ele>49.0</ele><time>2026-05-02T10:06:55.141Z</time></trkpt><trkpt lat="47.7216417" lon="-2.0426117"><ele>49.0</ele><time>2026-05-02T10:06:56.14Z</time></trkpt><trkpt lat="47.7216683" lon="-2.04285"><ele>49.666666666666664</ele><time>2026-05-02T10:06:57.139Z</time></trkpt><trkpt lat="47.721695" lon="-2.0430767"><ele>50.33333333333333</ele><time>2026-05-02T10:06:58.14Z</time></trkpt><trkpt lat="47.7217233" lon="-2.0433067"><ele>51.0</ele><time>2026-05-02T10:06:59.138Z</time></trkpt><trkpt lat="47.7217517" lon="-2.0435467"><ele>52.0</ele><time>2026-05-02T10:07:00.139Z</time></trkpt><trkpt lat="47.7217833" lon="-2.0437833"><ele>53.0</ele><time>2026-05-02T10:07:01.14Z</time></trkpt><trkpt lat="47.7218267" lon="-2.0440367"><ele>54.0</ele><time>2026-05-02T10:07:02.141Z</time></trkpt><trkpt lat="47.7218667" lon="-2.0442917"><ele>53.66666666666667</ele><time>2026-05-02T10:07:03.142Z</time></trkpt><trkpt lat="47.72191" lon="-2.044555"><ele>53.333333333333336</ele><time>2026-05-02T10:07:04.14Z</time></trkpt><trkpt lat="47.721955" lon="-2.0448233"><ele>53.0</ele><time>2026-05-02T10:07:05.14Z</time></trkpt><trkpt lat="47.72199" lon="-2.0451"><ele>53.0</ele><time>2026-05-02T10:07:06.14Z</time></trkpt><trkpt lat="47.7220283" lon="-2.0453767"><ele>53.0</ele><time>2026-05-02T10:07:07.14Z</time></trkpt><trkpt lat="47.7220667" lon="-2.0456517"><ele>53.0</ele><time>2026-05-02T10:07:08.14Z</time></trkpt><trkpt lat="47.7221083" lon="-2.0459283"><ele>53.0</ele><time>2026-05-02T10:07:09.14Z</time></trkpt><trkpt lat="47.72215" lon="-2.046205"><ele>53.0</ele><time>2026-05-02T10:07:10.14Z</time></trkpt><trkpt lat="47.72219" lon="-2.0464783"><ele>53.0</ele><time>2026-05-02T10:07:11.14Z</time></trkpt><trkpt lat="47.7222317" lon="-2.046755"><ele>53.333333333333336</ele><time>2026-05-02T10:07:12.14Z</time></trkpt><trkpt lat="47.7222733" lon="-2.0470333"><ele>53.66666666666667</ele><time>2026-05-02T10:07:13.139Z</time></trkpt><trkpt lat="47.722315" lon="-2.0473083"><ele>54.0</ele><time>2026-05-02T10:07:14.14Z</time></trkpt><trkpt lat="47.7223567" lon="-2.047585"><ele>54.33333333333333</ele><time>2026-05-02T10:07:15.14Z</time></trkpt><trkpt lat="47.7223983" lon="-2.0478683"><ele>54.666666666666664</ele><time>2026-05-02T10:07:16.139Z</time></trkpt><trkpt lat="47.72244" lon="-2.04815"><ele>55.0</ele><time>2026-05-02T10:07:17.139Z</time></trkpt><trkpt lat="47.7224817" lon="-2.048425"><ele>55.666666666666664</ele><time>2026-05-02T10:07:18.139Z</time></trkpt><trkpt lat="47.7225233" lon="-2.0486933"><ele>56.33333333333333</ele><time>2026-05-02T10:07:19.139Z</time></trkpt><trkpt lat="47.7225633" lon="-2.0489533"><ele>57.0</ele><time>2026-05-02T10:07:20.14Z</time></trkpt><trkpt lat="47.7225933" lon="-2.0492133"><ele>57.0</ele><time>2026-05-02T10:07:21.139Z</time></trkpt><trkpt lat="47.72262" lon="-2.0494767"><ele>57.0</ele><time>2026-05-02T10:07:22.14Z</time></trkpt><trkpt lat="47.7226417" lon="-2.049745"><ele>57.0</ele><time>2026-05-02T10:07:23.139Z</time></trkpt><trkpt lat="47.7226533" lon="-2.0500017"><ele>56.66666666666667</ele><time>2026-05-02T10:07:24.139Z</time></trkpt><trkpt lat="47.7226617" lon="-2.0502467"><ele>56.333333333333336</ele><time>2026-05-02T10:07:25.14Z</time></trkpt><trkpt lat="47.7226733" lon="-2.050485"><ele>56.0</ele><time>2026-05-02T10:07:26.139Z</time></trkpt><trkpt lat="47.722695" lon="-2.0507267"><ele>56.333333333333336</ele><time>2026-05-02T10:07:27.14Z</time></trkpt><trkpt lat="47.72273" lon="-2.0509667"><ele>56.66666666666667</ele><time>2026-05-02T10:07:28.139Z</time></trkpt><trkpt lat="47.722785" lon="-2.0512117"><ele>57.0</ele><time>2026-05-02T10:07:29.138Z</time></trkpt><trkpt lat="47.7228517" lon="-2.05146"><ele>59.0</ele><time>2026-05-02T10:07:30.139Z</time></trkpt><trkpt lat="47.7229333" lon="-2.0517117"><ele>61.0</ele><time>2026-05-02T10:07:31.14Z</time></trkpt><trkpt lat="47.723005" lon="-2.0519567"><ele>63.0</ele><time>2026-05-02T10:07:32.139Z</time></trkpt><trkpt lat="47.7230717" lon="-2.0521867"><ele>63.0</ele><time>2026-05-02T10:07:33.139Z</time></trkpt><trkpt lat="47.7231333" lon="-2.0524017"><ele>63.0</ele><time>2026-05-02T10:07:34.14Z</time></trkpt><trkpt lat="47.72319" lon="-2.0525933"><ele>63.0</ele><time>2026-05-02T10:07:35.139Z</time></trkpt><trkpt lat="47.72324" lon="-2.0527617"><ele>63.0</ele><time>2026-05-02T10:07:36.138Z</time></trkpt><trkpt lat="47.7232867" lon="-2.0529167"><ele>63.2</ele><time>2026-05-02T10:07:37.139Z</time></trkpt><trkpt lat="47.72333" lon="-2.0530683"><ele>63.4</ele><time>2026-05-02T10:07:38.139Z</time></trkpt><trkpt lat="47.7233683" lon="-2.053215"><ele>63.60000000000001</ele><time>2026-05-02T10:07:39.139Z</time></trkpt><trkpt lat="47.7233917" lon="-2.05335"><ele>63.800000000000004</ele><time>2026-05-02T10:07:40.14Z</time></trkpt><trkpt lat="47.7234083" lon="-2.0534767"><ele>64.0</ele><time>2026-05-02T10:07:41.139Z</time></trkpt><trkpt lat="47.72342" lon="-2.0535833"><ele>63.400000000000006</ele><time>2026-05-02T10:07:42.14Z</time></trkpt><trkpt lat="47.7234417" lon="-2.053715"><ele>62.800000000000004</ele><time>2026-05-02T10:07:44.139Z</time></trkpt><trkpt lat="47.7234383" lon="-2.05388"><ele>62.199999999999996</ele><time>2026-05-02T10:07:51.14Z</time></trkpt><trkpt lat="47.7234333" lon="-2.0539967"><ele>61.599999999999994</ele><time>2026-05-02T10:07:52.14Z</time></trkpt><trkpt lat="47.7234367" lon="-2.0541367"><ele>61.0</ele><time>2026-05-02T10:07:53.139Z</time></trkpt><trkpt lat="47.7234467" lon="-2.05431"><ele>60.0</ele><time>2026-05-02T10:07:54.139Z</time></trkpt><trkpt lat="47.7234583" lon="-2.05451"><ele>59.0</ele><time>2026-05-02T10:07:55.139Z</time></trkpt><trkpt lat="47.7234783" lon="-2.0547367"><ele>58.0</ele><time>2026-05-02T10:07:56.141Z</time></trkpt><trkpt lat="47.7235067" lon="-2.055005"><ele>56.666666666666664</ele><time>2026-05-02T10:07:57.14Z</time></trkpt><trkpt lat="47.7235333" lon="-2.0553033"><ele>55.33333333333333</ele><time>2026-05-02T10:07:58.139Z</time></trkpt><trkpt lat="47.7235617" lon="-2.0556367"><ele>54.0</ele><time>2026-05-02T10:07:59.14Z</time></trkpt><trkpt lat="47.72359" lon="-2.056005"><ele>52.0</ele><time>2026-05-02T10:08:00.137Z</time></trkpt><trkpt lat="47.7236183" lon="-2.0563967"><ele>50.0</ele><time>2026-05-02T10:08:01.139Z</time></trkpt><trkpt lat="47.72365" lon="-2.0568033"><ele>50.0</ele><time>2026-05-02T10:08:02.139Z</time></trkpt><trkpt lat="47.72368" lon="-2.057205"><ele>50.0</ele><time>2026-05-02T10:08:03.139Z</time></trkpt><trkpt lat="47.7237117" lon="-2.05759"><ele>50.0</ele><time>2026-05-02T10:08:04.139Z</time></trkpt><trkpt lat="47.7237417" lon="-2.057955"><ele>50.0</ele><time>2026-05-02T10:08:05.14Z</time></trkpt><trkpt lat="47.72377" lon="-2.0582967"><ele>50.333333333333336</ele><time>2026-05-02T10:08:06.139Z</time></trkpt><trkpt lat="47.7237967" lon="-2.0586183"><ele>50.66666666666667</ele><time>2026-05-02T10:08:07.139Z</time></trkpt><trkpt lat="47.7238217" lon="-2.058925"><ele>51.0</ele><time>2026-05-02T10:08:08.139Z</time></trkpt><trkpt lat="47.723845" lon="-2.05922"><ele>51.66666666666667</ele><time>2026-05-02T10:08:09.14Z</time></trkpt><trkpt lat="47.72387" lon="-2.0595133"><ele>52.333333333333336</ele><time>2026-05-02T10:08:10.139Z</time></trkpt><trkpt lat="47.7238967" lon="-2.0598083"><ele>53.0</ele><time>2026-05-02T10:08:11.139Z</time></trkpt><trkpt lat="47.7239217" lon="-2.0601033"><ele>53.333333333333336</ele><time>2026-05-02T10:08:12.139Z</time></trkpt><trkpt lat="47.7239467" lon="-2.0604017"><ele>53.66666666666667</ele><time>2026-05-02T10:08:13.14Z</time></trkpt><trkpt lat="47.72397" lon="-2.0607033"><ele>54.0</ele><time>2026-05-02T10:08:14.139Z</time></trkpt><trkpt lat="47.7239933" lon="-2.061005"><ele>54.0</ele><time>2026-05-02T10:08:15.14Z</time></trkpt><trkpt lat="47.72402" lon="-2.0613183"><ele>54.0</ele><time>2026-05-02T10:08:16.141Z</time></trkpt><trkpt lat="47.7240417" lon="-2.0616283"><ele>54.0</ele><time>2026-05-02T10:08:17.14Z</time></trkpt><trkpt lat="47.7240617" lon="-2.06193"><ele>54.0</ele><time>2026-05-02T10:08:18.14Z</time></trkpt><trkpt lat="47.7240883" lon="-2.0622267"><ele>54.0</ele><time>2026-05-02T10:08:19.14Z</time></trkpt><trkpt lat="47.7241133" lon="-2.0625183"><ele>54.0</ele><time>2026-05-02T10:08:20.139Z</time></trkpt><trkpt lat="47.724135" lon="-2.0628017"><ele>54.33333333333333</ele><time>2026-05-02T10:08:21.142Z</time></trkpt><trkpt lat="47.724165" lon="-2.06308"><ele>54.666666666666664</ele><time>2026-05-02T10:08:22.14Z</time></trkpt><trkpt lat="47.7241967" lon="-2.06335"><ele>55.0</ele><time>2026-05-02T10:08:23.14Z</time></trkpt><trkpt lat="47.724235" lon="-2.0636267"><ele>55.33333333333333</ele><time>2026-05-02T10:08:24.14Z</time></trkpt><trkpt lat="47.7242767" lon="-2.0639"><ele>55.66666666666667</ele><time>2026-05-02T10:08:25.141Z</time></trkpt><trkpt lat="47.7243217" lon="-2.0641767"><ele>56.0</ele><time>2026-05-02T10:08:26.141Z</time></trkpt><trkpt lat="47.7243733" lon="-2.0644517"><ele>56.0</ele><time>2026-05-02T10:08:27.141Z</time></trkpt><trkpt lat="47.7244267" lon="-2.064725"><ele>56.0</ele><time>2026-05-02T10:08:28.14Z</time></trkpt><trkpt lat="47.7244817" lon="-2.0650017"><ele>56.0</ele><time>2026-05-02T10:08:29.141Z</time></trkpt><trkpt lat="47.7245317" lon="-2.0652883"><ele>56.0</ele><time>2026-05-02T10:08:30.14Z</time></trkpt><trkpt lat="47.724585" lon="-2.0655783"><ele>56.0</ele><time>2026-05-02T10:08:31.14Z</time></trkpt><trkpt lat="47.7246383" lon="-2.06587"><ele>56.0</ele><time>2026-05-02T10:08:32.14Z</time></trkpt><trkpt lat="47.7246933" lon="-2.0661667"><ele>56.0</ele><time>2026-05-02T10:08:33.141Z</time></trkpt><trkpt lat="47.7247483" lon="-2.0664733"><ele>56.0</ele><time>2026-05-02T10:08:34.141Z</time></trkpt><trkpt lat="47.7248033" lon="-2.0667817"><ele>56.0</ele><time>2026-05-02T10:08:35.141Z</time></trkpt><trkpt lat="47.7248583" lon="-2.0670817"><ele>56.0</ele><time>2026-05-02T10:08:36.143Z</time></trkpt><trkpt lat="47.7249083" lon="-2.06737"><ele>56.0</ele><time>2026-05-02T10:08:37.141Z</time></trkpt><trkpt lat="47.7249983" lon="-2.0678883"><ele>55.333333333333336</ele><time>2026-05-02T10:08:39.143Z</time></trkpt><trkpt lat="47.7250383" lon="-2.0681183"><ele>54.66666666666667</ele><time>2026-05-02T10:08:40.141Z</time></trkpt><trkpt lat="47.7250733" lon="-2.0683367"><ele>54.0</ele><time>2026-05-02T10:08:41.142Z</time></trkpt><trkpt lat="47.725115" lon="-2.0685383"><ele>54.0</ele><time>2026-05-02T10:08:42.143Z</time></trkpt><trkpt lat="47.7251567" lon="-2.0687333"><ele>54.0</ele><time>2026-05-02T10:08:43.141Z</time></trkpt><trkpt lat="47.7251967" lon="-2.0689183"><ele>54.0</ele><time>2026-05-02T10:08:44.14Z</time></trkpt><trkpt lat="47.7252283" lon="-2.0691"><ele>54.0</ele><time>2026-05-02T10:08:45.143Z</time></trkpt><trkpt lat="47.7252567" lon="-2.069275"><ele>54.0</ele><time>2026-05-02T10:08:46.14Z</time></trkpt><trkpt lat="47.7252833" lon="-2.0694533"><ele>54.0</ele><time>2026-05-02T10:08:47.14Z</time></trkpt><trkpt lat="47.725305" lon="-2.069635"><ele>54.0</ele><time>2026-05-02T10:08:48.144Z</time></trkpt><trkpt lat="47.7253333" lon="-2.0698183"><ele>54.0</ele><time>2026-05-02T10:08:49.14Z</time></trkpt><trkpt lat="47.725355" lon="-2.0700017"><ele>53.25</ele><time>2026-05-02T10:08:50.14Z</time></trkpt><trkpt lat="47.7253733" lon="-2.070185"><ele>52.5</ele><time>2026-05-02T10:08:51.143Z</time></trkpt><trkpt lat="47.7253967" lon="-2.070365"><ele>51.75</ele><time>2026-05-02T10:08:52.139Z</time></trkpt><trkpt lat="47.7254167" lon="-2.0705417"><ele>51.0</ele><time>2026-05-02T10:08:53.139Z</time></trkpt><trkpt lat="47.7254333" lon="-2.0707267"><ele>50.5</ele><time>2026-05-02T10:08:54.141Z</time></trkpt><trkpt lat="47.7254567" lon="-2.0709117"><ele>50.0</ele><time>2026-05-02T10:08:55.14Z</time></trkpt><trkpt lat="47.7254783" lon="-2.071095"><ele>49.5</ele><time>2026-05-02T10:08:56.14Z</time></trkpt><trkpt lat="47.7255" lon="-2.0712817"><ele>49.0</ele><time>2026-05-02T10:08:57.139Z</time></trkpt><trkpt lat="47.7255233" lon="-2.0714767"><ele>49.0</ele><time>2026-05-02T10:08:58.14Z</time></trkpt><trkpt lat="47.7255433" lon="-2.0716667"><ele>49.0</ele><time>2026-05-02T10:08:59.14Z</time></trkpt><trkpt lat="47.7255683" lon="-2.0718567"><ele>49.0</ele><time>2026-05-02T10:09:00.139Z</time></trkpt><trkpt lat="47.725595" lon="-2.07205"><ele>49.0</ele><time>2026-05-02T10:09:01.14Z</time></trkpt><trkpt lat="47.7256267" lon="-2.0722417"><ele>49.0</ele><time>2026-05-02T10:09:02.14Z</time></trkpt><trkpt lat="47.7256633" lon="-2.0724333"><ele>49.0</ele><time>2026-05-02T10:09:03.14Z</time></trkpt><trkpt lat="47.7257183" lon="-2.072615"><ele>49.0</ele><time>2026-05-02T10:09:04.141Z</time></trkpt><trkpt lat="47.7257833" lon="-2.0727833"><ele>49.0</ele><time>2026-05-02T10:09:05.141Z</time></trkpt><trkpt lat="47.72586" lon="-2.0729433"><ele>49.0</ele><time>2026-05-02T10:09:06.142Z</time></trkpt><trkpt lat="47.7259483" lon="-2.07309"><ele>49.0</ele><time>2026-05-02T10:09:07.141Z</time></trkpt><trkpt lat="47.7260433" lon="-2.0732233"><ele>49.0</ele><time>2026-05-02T10:09:08.141Z</time></trkpt><trkpt lat="47.7261333" lon="-2.0733633"><ele>49.0</ele><time>2026-05-02T10:09:09.142Z</time></trkpt><trkpt lat="47.72622" lon="-2.0735033"><ele>49.0</ele><time>2026-05-02T10:09:10.144Z</time></trkpt><trkpt lat="47.72629" lon="-2.07366"><ele>49.0</ele><time>2026-05-02T10:09:11.141Z</time></trkpt><trkpt lat="47.7263483" lon="-2.0738317"><ele>49.0</ele><time>2026-05-02T10:09:12.142Z</time></trkpt><trkpt lat="47.7263933" lon="-2.07402"><ele>49.0</ele><time>2026-05-02T10:09:13.141Z</time></trkpt><trkpt lat="47.7264317" lon="-2.0742217"><ele>48.666666666666664</ele><time>2026-05-02T10:09:14.142Z</time></trkpt><trkpt lat="47.72645" lon="-2.0744483"><ele>48.33333333333333</ele><time>2026-05-02T10:09:15.141Z</time></trkpt><trkpt lat="47.7264767" lon="-2.074695"><ele>48.0</ele><time>2026-05-02T10:09:16.14Z</time></trkpt><trkpt lat="47.7265033" lon="-2.0749567"><ele>48.0</ele><time>2026-05-02T10:09:17.14Z</time></trkpt><trkpt lat="47.72653" lon="-2.0752367"><ele>48.0</ele><time>2026-05-02T10:09:18.14Z</time></trkpt><trkpt lat="47.7265583" lon="-2.075525"><ele>48.0</ele><time>2026-05-02T10:09:19.14Z</time></trkpt><trkpt lat="47.7265933" lon="-2.075825"><ele>48.33333333333333</ele><time>2026-05-02T10:09:20.14Z</time></trkpt><trkpt lat="47.7266267" lon="-2.07613"><ele>48.666666666666664</ele><time>2026-05-02T10:09:21.141Z</time></trkpt><trkpt lat="47.7266567" lon="-2.0764433"><ele>49.0</ele><time>2026-05-02T10:09:22.141Z</time></trkpt><trkpt lat="47.72669" lon="-2.0767633"><ele>49.666666666666664</ele><time>2026-05-02T10:09:23.142Z</time></trkpt><trkpt lat="47.7267217" lon="-2.077085"><ele>50.33333333333333</ele><time>2026-05-02T10:09:24.141Z</time></trkpt><trkpt lat="47.7267517" lon="-2.0774083"><ele>51.0</ele><time>2026-05-02T10:09:25.142Z</time></trkpt><trkpt lat="47.726785" lon="-2.0777283"><ele>51.33333333333333</ele><time>2026-05-02T10:09:26.141Z</time></trkpt><trkpt lat="47.7268183" lon="-2.0780433"><ele>51.666666666666664</ele><time>2026-05-02T10:09:27.141Z</time></trkpt><trkpt lat="47.7268467" lon="-2.07837"><ele>52.0</ele><time>2026-05-02T10:09:28.141Z</time></trkpt><trkpt lat="47.7268817" lon="-2.0787017"><ele>51.666666666666664</ele><time>2026-05-02T10:09:29.141Z</time></trkpt><trkpt lat="47.726915" lon="-2.079025"><ele>51.33333333333333</ele><time>2026-05-02T10:09:30.141Z</time></trkpt><trkpt lat="47.7269367" lon="-2.079335"><ele>51.0</ele><time>2026-05-02T10:09:31.142Z</time></trkpt><trkpt lat="47.7269633" lon="-2.079635"><ele>50.33333333333333</ele><time>2026-05-02T10:09:32.141Z</time></trkpt><trkpt lat="47.7269883" lon="-2.0799233"><ele>49.666666666666664</ele><time>2026-05-02T10:09:33.143Z</time></trkpt><trkpt lat="47.727015" lon="-2.0802083"><ele>49.0</ele><time>2026-05-02T10:09:34.141Z</time></trkpt><trkpt lat="47.7270417" lon="-2.080505"><ele>48.33333333333333</ele><time>2026-05-02T10:09:35.141Z</time></trkpt><trkpt lat="47.7270683" lon="-2.0808183"><ele>47.666666666666664</ele><time>2026-05-02T10:09:36.141Z</time></trkpt><trkpt lat="47.72709" lon="-2.0811467"><ele>47.0</ele><time>2026-05-02T10:09:37.141Z</time></trkpt><trkpt lat="47.7271" lon="-2.0814783"><ele>46.666666666666664</ele><time>2026-05-02T10:09:38.141Z</time></trkpt><trkpt lat="47.7271033" lon="-2.0818067"><ele>46.333333333333336</ele><time>2026-05-02T10:09:39.142Z</time></trkpt><trkpt lat="47.7271117" lon="-2.0821167"><ele>46.0</ele><time>2026-05-02T10:09:40.141Z</time></trkpt><trkpt lat="47.727115" lon="-2.082405"><ele>46.333333333333336</ele><time>2026-05-02T10:09:41.139Z</time></trkpt><trkpt lat="47.7271167" lon="-2.0826717"><ele>46.666666666666664</ele><time>2026-05-02T10:09:42.141Z</time></trkpt><trkpt lat="47.7271183" lon="-2.08291"><ele>47.0</ele><time>2026-05-02T10:09:43.141Z</time></trkpt><trkpt lat="47.7271233" lon="-2.0831167"><ele>47.5</ele><time>2026-05-02T10:09:44.14Z</time></trkpt><trkpt lat="47.7271217" lon="-2.08331"><ele>48.0</ele><time>2026-05-02T10:09:45.141Z</time></trkpt><trkpt lat="47.7271167" lon="-2.0834933"><ele>48.5</ele><time>2026-05-02T10:09:46.141Z</time></trkpt><trkpt lat="47.7271217" lon="-2.0836717"><ele>49.0</ele><time>2026-05-02T10:09:47.14Z</time></trkpt><trkpt lat="47.7271283" lon="-2.0838483"><ele>49.0</ele><time>2026-05-02T10:09:48.141Z</time></trkpt><trkpt lat="47.7271333" lon="-2.0840267"><ele>49.0</ele><time>2026-05-02T10:09:49.142Z</time></trkpt><trkpt lat="47.7271367" lon="-2.08421"><ele>49.0</ele><time>2026-05-02T10:09:50.141Z</time></trkpt><trkpt lat="47.7271367" lon="-2.084395"><ele>49.0</ele><time>2026-05-02T10:09:51.14Z</time></trkpt><trkpt lat="47.7271333" lon="-2.0845817"><ele>48.25</ele><time>2026-05-02T10:09:52.14Z</time></trkpt><trkpt lat="47.7271283" lon="-2.08477"><ele>47.5</ele><time>2026-05-02T10:09:53.14Z</time></trkpt><trkpt lat="47.72712" lon="-2.0849567"><ele>46.75</ele><time>2026-05-02T10:09:54.139Z</time></trkpt><trkpt lat="47.7271083" lon="-2.0851433"><ele>46.0</ele><time>2026-05-02T10:09:55.139Z</time></trkpt><trkpt lat="47.7270933" lon="-2.0853317"><ele>45.75</ele><time>2026-05-02T10:09:56.14Z</time></trkpt><trkpt lat="47.7270833" lon="-2.08552"><ele>45.5</ele><time>2026-05-02T10:09:57.139Z</time></trkpt><trkpt lat="47.727075" lon="-2.0857083"><ele>45.25</ele><time>2026-05-02T10:09:58.138Z</time></trkpt><trkpt lat="47.727065" lon="-2.0859"><ele>45.0</ele><time>2026-05-02T10:09:59.139Z</time></trkpt><trkpt lat="47.727055" lon="-2.0860883"><ele>45.0</ele><time>2026-05-02T10:10:00.14Z</time></trkpt><trkpt lat="47.72704" lon="-2.0862733"><ele>45.0</ele><time>2026-05-02T10:10:01.14Z</time></trkpt><trkpt lat="47.727025" lon="-2.086455"><ele>45.0</ele><time>2026-05-02T10:10:02.139Z</time></trkpt><trkpt lat="47.7270117" lon="-2.0866333"><ele>45.0</ele><time>2026-05-02T10:10:03.141Z</time></trkpt><trkpt lat="47.7270033" lon="-2.0868067"><ele>45.0</ele><time>2026-05-02T10:10:04.139Z</time></trkpt><trkpt lat="47.7270033" lon="-2.086985"><ele>45.0</ele><time>2026-05-02T10:10:05.139Z</time></trkpt><trkpt lat="47.727015" lon="-2.0871717"><ele>45.0</ele><time>2026-05-02T10:10:06.141Z</time></trkpt><trkpt lat="47.727035" lon="-2.0873617"><ele>45.0</ele><time>2026-05-02T10:10:07.141Z</time></trkpt><trkpt lat="47.7270583" lon="-2.08756"><ele>44.75</ele><time>2026-05-02T10:10:08.14Z</time></trkpt><trkpt lat="47.7270833" lon="-2.0877617"><ele>44.5</ele><time>2026-05-02T10:10:09.14Z</time></trkpt><trkpt lat="47.7271067" lon="-2.087965"><ele>44.25</ele><time>2026-05-02T10:10:10.139Z</time></trkpt><trkpt lat="47.7271283" lon="-2.08816"><ele>44.0</ele><time>2026-05-02T10:10:11.139Z</time></trkpt><trkpt lat="47.727145" lon="-2.08836"><ele>43.75</ele><time>2026-05-02T10:10:12.14Z</time></trkpt><trkpt lat="47.7271583" lon="-2.0885583"><ele>43.5</ele><time>2026-05-02T10:10:13.139Z</time></trkpt><trkpt lat="47.7271667" lon="-2.08876"><ele>43.25</ele><time>2026-05-02T10:10:14.142Z</time></trkpt><trkpt lat="47.7271683" lon="-2.0889633"><ele>43.0</ele><time>2026-05-02T10:10:15.14Z</time></trkpt><trkpt lat="47.727165" lon="-2.089175"><ele>43.0</ele><time>2026-05-02T10:10:16.14Z</time></trkpt><trkpt lat="47.727155" lon="-2.0894017"><ele>43.0</ele><time>2026-05-02T10:10:17.14Z</time></trkpt><trkpt lat="47.72714" lon="-2.08966"><ele>43.0</ele><time>2026-05-02T10:10:18.138Z</time></trkpt><trkpt lat="47.7271167" lon="-2.0899483"><ele>42.5</ele><time>2026-05-02T10:10:19.139Z</time></trkpt><trkpt lat="47.7270933" lon="-2.0902683"><ele>42.0</ele><time>2026-05-02T10:10:20.139Z</time></trkpt><trkpt lat="47.72707" lon="-2.090615"><ele>41.5</ele><time>2026-05-02T10:10:21.139Z</time></trkpt><trkpt lat="47.7270467" lon="-2.0909683"><ele>41.0</ele><time>2026-05-02T10:10:22.14Z</time></trkpt><trkpt lat="47.7270233" lon="-2.09131"><ele>41.0</ele><time>2026-05-02T10:10:23.139Z</time></trkpt><trkpt lat="47.727" lon="-2.0916333"><ele>41.0</ele><time>2026-05-02T10:10:24.139Z</time></trkpt><trkpt lat="47.7269767" lon="-2.0919467"><ele>41.0</ele><time>2026-05-02T10:10:25.14Z</time></trkpt><trkpt lat="47.7269517" lon="-2.0922617"><ele>41.0</ele><time>2026-05-02T10:10:26.14Z</time></trkpt><trkpt lat="47.726925" lon="-2.0925833"><ele>41.0</ele><time>2026-05-02T10:10:27.14Z</time></trkpt><trkpt lat="47.7268867" lon="-2.0929133"><ele>41.0</ele><time>2026-05-02T10:10:28.14Z</time></trkpt><trkpt lat="47.7268433" lon="-2.0932517"><ele>40.0</ele><time>2026-05-02T10:10:29.139Z</time></trkpt><trkpt lat="47.726795" lon="-2.093595"><ele>39.0</ele><time>2026-05-02T10:10:30.139Z</time></trkpt><trkpt lat="47.7267483" lon="-2.0939417"><ele>38.5</ele><time>2026-05-02T10:10:31.14Z</time></trkpt><trkpt lat="47.7267017" lon="-2.09429"><ele>38.0</ele><time>2026-05-02T10:10:32.14Z</time></trkpt><trkpt lat="47.7266583" lon="-2.0946367"><ele>38.5</ele><time>2026-05-02T10:10:33.141Z</time></trkpt><trkpt lat="47.7266117" lon="-2.0949783"><ele>39.0</ele><time>2026-05-02T10:10:34.142Z</time></trkpt><trkpt lat="47.72657" lon="-2.095315"><ele>39.0</ele><time>2026-05-02T10:10:35.141Z</time></trkpt><trkpt lat="47.726525" lon="-2.0956517"><ele>39.0</ele><time>2026-05-02T10:10:36.139Z</time></trkpt><trkpt lat="47.726475" lon="-2.0959883"><ele>39.0</ele><time>2026-05-02T10:10:37.141Z</time></trkpt><trkpt lat="47.72643" lon="-2.0963183"><ele>39.0</ele><time>2026-05-02T10:10:38.14Z</time></trkpt><trkpt lat="47.72639" lon="-2.096635"><ele>39.0</ele><time>2026-05-02T10:10:39.139Z</time></trkpt><trkpt lat="47.72635" lon="-2.0969383"><ele>38.666666666666664</ele><time>2026-05-02T10:10:40.139Z</time></trkpt><trkpt lat="47.7263133" lon="-2.0972233"><ele>38.33333333333333</ele><time>2026-05-02T10:10:41.139Z</time></trkpt><trkpt lat="47.726275" lon="-2.097495"><ele>38.0</ele><time>2026-05-02T10:10:42.14Z</time></trkpt><trkpt lat="47.7262317" lon="-2.0977617"><ele>38.666666666666664</ele><time>2026-05-02T10:10:43.139Z</time></trkpt><trkpt lat="47.7261833" lon="-2.098035"><ele>39.333333333333336</ele><time>2026-05-02T10:10:44.14Z</time></trkpt><trkpt lat="47.7261267" lon="-2.0983083"><ele>40.0</ele><time>2026-05-02T10:10:45.14Z</time></trkpt><trkpt lat="47.7260633" lon="-2.0985883"><ele>38.66666666666667</ele><time>2026-05-02T10:10:46.139Z</time></trkpt><trkpt lat="47.7259867" lon="-2.0988783"><ele>37.333333333333336</ele><time>2026-05-02T10:10:47.139Z</time></trkpt><trkpt lat="47.7259033" lon="-2.0991933"><ele>36.0</ele><time>2026-05-02T10:10:48.139Z</time></trkpt><trkpt lat="47.7258133" lon="-2.0995267"><ele>36.0</ele><time>2026-05-02T10:10:49.139Z</time></trkpt><trkpt lat="47.725725" lon="-2.0998583"><ele>36.0</ele><time>2026-05-02T10:10:50.139Z</time></trkpt><trkpt lat="47.7256383" lon="-2.10018"><ele>36.666666666666664</ele><time>2026-05-02T10:10:51.139Z</time></trkpt><trkpt lat="47.72555" lon="-2.1004933"><ele>37.33333333333333</ele><time>2026-05-02T10:10:52.139Z</time></trkpt><trkpt lat="47.7254683" lon="-2.1007917"><ele>38.0</ele><time>2026-05-02T10:10:53.139Z</time></trkpt><trkpt lat="47.72539" lon="-2.1010733"><ele>38.33333333333333</ele><time>2026-05-02T10:10:54.139Z</time></trkpt><trkpt lat="47.7253167" lon="-2.1013417"><ele>38.666666666666664</ele><time>2026-05-02T10:10:55.139Z</time></trkpt><trkpt lat="47.7252533" lon="-2.1015867"><ele>39.0</ele><time>2026-05-02T10:10:56.139Z</time></trkpt><trkpt lat="47.7251933" lon="-2.1018083"><ele>38.5</ele><time>2026-05-02T10:10:57.14Z</time></trkpt><trkpt lat="47.7251383" lon="-2.102015"><ele>38.0</ele><time>2026-05-02T10:10:58.14Z</time></trkpt><trkpt lat="47.725085" lon="-2.102205"><ele>37.5</ele><time>2026-05-02T10:10:59.14Z</time></trkpt><trkpt lat="47.72504" lon="-2.102385"><ele>37.0</ele><time>2026-05-02T10:11:00.139Z</time></trkpt><trkpt lat="47.7250017" lon="-2.10255"><ele>36.0</ele><time>2026-05-02T10:11:01.139Z</time></trkpt><trkpt lat="47.7249633" lon="-2.1026967"><ele>35.0</ele><time>2026-05-02T10:11:02.14Z</time></trkpt><trkpt lat="47.7249283" lon="-2.1028267"><ele>34.0</ele><time>2026-05-02T10:11:03.139Z</time></trkpt><trkpt lat="47.7249017" lon="-2.102935"><ele>33.0</ele><time>2026-05-02T10:11:04.14Z</time></trkpt><trkpt lat="47.7248617" lon="-2.1030733"><ele>32.0</ele><time>2026-05-02T10:11:06.14Z</time></trkpt><trkpt lat="47.7248783" lon="-2.10319"><ele>31.8</ele><time>2026-05-02T10:11:23.139Z</time></trkpt><trkpt lat="47.724925" lon="-2.1032583"><ele>31.6</ele><time>2026-05-02T10:11:24.139Z</time></trkpt><trkpt lat="47.7249867" lon="-2.1033383"><ele>31.400000000000002</ele><time>2026-05-02T10:11:25.139Z</time></trkpt><trkpt lat="47.7250633" lon="-2.1034333"><ele>31.200000000000003</ele><time>2026-05-02T10:11:26.139Z</time></trkpt><trkpt lat="47.7251483" lon="-2.1035433"><ele>31.0</ele><time>2026-05-02T10:11:27.14Z</time></trkpt><trkpt lat="47.72524" lon="-2.1036617"><ele>30.75</ele><time>2026-05-02T10:11:28.139Z</time></trkpt><trkpt lat="47.7253383" lon="-2.1037883"><ele>30.5</ele><time>2026-05-02T10:11:29.139Z</time></trkpt><trkpt lat="47.72545" lon="-2.1039333"><ele>30.25</ele><time>2026-05-02T10:11:30.14Z</time></trkpt><trkpt lat="47.7255633" lon="-2.1040867"><ele>30.0</ele><time>2026-05-02T10:11:31.14Z</time></trkpt><trkpt lat="47.7256883" lon="-2.1042483"><ele>29.0</ele><time>2026-05-02T10:11:32.138Z</time></trkpt><trkpt lat="47.7258167" lon="-2.1044083"><ele>28.0</ele><time>2026-05-02T10:11:33.14Z</time></trkpt><trkpt lat="47.72594" lon="-2.1045667"><ele>27.0</ele><time>2026-05-02T10:11:34.141Z</time></trkpt><trkpt lat="47.726055" lon="-2.1047167"><ele>26.5</ele><time>2026-05-02T10:11:35.14Z</time></trkpt><trkpt lat="47.72616" lon="-2.1048567"><ele>26.0</ele><time>2026-05-02T10:11:36.14Z</time></trkpt><trkpt lat="47.726255" lon="-2.1049783"><ele>25.5</ele><time>2026-05-02T10:11:37.14Z</time></trkpt><trkpt lat="47.7263283" lon="-2.1050833"><ele>25.0</ele><time>2026-05-02T10:11:38.157Z</time></trkpt><trkpt lat="47.7263833" lon="-2.1051883"><ele>24.8</ele><time>2026-05-02T10:11:39.14Z</time></trkpt><trkpt lat="47.7264217" lon="-2.1053033"><ele>24.6</ele><time>2026-05-02T10:11:40.139Z</time></trkpt><trkpt lat="47.7264467" lon="-2.10543"><ele>24.4</ele><time>2026-05-02T10:11:41.14Z</time></trkpt><trkpt lat="47.7264583" lon="-2.105575"><ele>24.2</ele><time>2026-05-02T10:11:42.139Z</time></trkpt><trkpt lat="47.7264667" lon="-2.105735"><ele>24.0</ele><time>2026-05-02T10:11:43.142Z</time></trkpt><trkpt lat="47.72648" lon="-2.1059167"><ele>23.25</ele><time>2026-05-02T10:11:44.138Z</time></trkpt><trkpt lat="47.7264933" lon="-2.10611"><ele>22.5</ele><time>2026-05-02T10:11:45.139Z</time></trkpt><trkpt lat="47.7265067" lon="-2.1063117"><ele>21.75</ele><time>2026-05-02T10:11:46.139Z</time></trkpt><trkpt lat="47.72652" lon="-2.1065167"><ele>21.0</ele><time>2026-05-02T10:11:47.139Z</time></trkpt><trkpt lat="47.726535" lon="-2.10673"><ele>20.25</ele><time>2026-05-02T10:11:48.139Z</time></trkpt><trkpt lat="47.7265483" lon="-2.106945"><ele>19.5</ele><time>2026-05-02T10:11:49.14Z</time></trkpt><trkpt lat="47.7265633" lon="-2.1071567"><ele>18.75</ele><time>2026-05-02T10:11:50.14Z</time></trkpt><trkpt lat="47.7265767" lon="-2.1073683"><ele>18.0</ele><time>2026-05-02T10:11:51.14Z</time></trkpt><trkpt lat="47.72659" lon="-2.10758"><ele>17.25</ele><time>2026-05-02T10:11:52.139Z</time></trkpt><trkpt lat="47.7265983" lon="-2.1077967"><ele>16.5</ele><time>2026-05-02T10:11:53.14Z</time></trkpt><trkpt lat="47.7266033" lon="-2.108015"><ele>15.75</ele><time>2026-05-02T10:11:54.139Z</time></trkpt><trkpt lat="47.7266083" lon="-2.1082417"><ele>15.0</ele><time>2026-05-02T10:11:55.139Z</time></trkpt><trkpt lat="47.72661" lon="-2.1084717"><ele>14.666666666666668</ele><time>2026-05-02T10:11:56.139Z</time></trkpt><trkpt lat="47.7266133" lon="-2.1087067"><ele>14.333333333333334</ele><time>2026-05-02T10:11:57.139Z</time></trkpt><trkpt lat="47.72662" lon="-2.1089333"><ele>14.0</ele><time>2026-05-02T10:11:58.139Z</time></trkpt><trkpt lat="47.726625" lon="-2.1091633"><ele>13.5</ele><time>2026-05-02T10:11:59.139Z</time></trkpt><trkpt lat="47.7266333" lon="-2.10939"><ele>13.0</ele><time>2026-05-02T10:12:00.141Z</time></trkpt><trkpt lat="47.7266383" lon="-2.10961"><ele>12.5</ele><time>2026-05-02T10:12:01.139Z</time></trkpt><trkpt lat="47.72664" lon="-2.109825"><ele>12.0</ele><time>2026-05-02T10:12:02.139Z</time></trkpt><trkpt lat="47.72664" lon="-2.1100383"><ele>11.0</ele><time>2026-05-02T10:12:03.139Z</time></trkpt><trkpt lat="47.7266383" lon="-2.110255"><ele>10.0</ele><time>2026-05-02T10:12:04.139Z</time></trkpt><trkpt lat="47.7266333" lon="-2.1104617"><ele>9.0</ele><time>2026-05-02T10:12:05.139Z</time></trkpt><trkpt lat="47.726625" lon="-2.1106583"><ele>8.0</ele><time>2026-05-02T10:12:06.139Z</time></trkpt><trkpt lat="47.726615" lon="-2.1108433"><ele>7.5</ele><time>2026-05-02T10:12:07.141Z</time></trkpt><trkpt lat="47.7266033" lon="-2.111025"><ele>7.0</ele><time>2026-05-02T10:12:08.139Z</time></trkpt><trkpt lat="47.7265967" lon="-2.1111867"><ele>6.5</ele><time>2026-05-02T10:12:09.14Z</time></trkpt><trkpt lat="47.7265833" lon="-2.1113517"><ele>6.0</ele><time>2026-05-02T10:12:10.141Z</time></trkpt><trkpt lat="47.7265567" lon="-2.1115083"><ele>6.0</ele><time>2026-05-02T10:12:11.14Z</time></trkpt><trkpt lat="47.7265183" lon="-2.1116533"><ele>6.0</ele><time>2026-05-02T10:12:12.14Z</time></trkpt><trkpt lat="47.7264583" lon="-2.1117833"><ele>6.0</ele><time>2026-05-02T10:12:13.14Z</time></trkpt><trkpt lat="47.72637" lon="-2.1119067"><ele>6.0</ele><time>2026-05-02T10:12:14.143Z</time></trkpt><trkpt lat="47.7262733" lon="-2.1120133"><ele>6.0</ele><time>2026-05-02T10:12:15.142Z</time></trkpt><trkpt lat="47.7261683" lon="-2.1121217"><ele>6.0</ele><time>2026-05-02T10:12:16.14Z</time></trkpt><trkpt lat="47.7260583" lon="-2.1122383"><ele>6.0</ele><time>2026-05-02T10:12:17.14Z</time></trkpt><trkpt lat="47.72594" lon="-2.1123667"><ele>6.0</ele><time>2026-05-02T10:12:18.14Z</time></trkpt><trkpt lat="47.7258217" lon="-2.1125067"><ele>5.75</ele><time>2026-05-02T10:12:19.14Z</time></trkpt><trkpt lat="47.7257117" lon="-2.1126517"><ele>5.5</ele><time>2026-05-02T10:12:20.141Z</time></trkpt><trkpt lat="47.7256133" lon="-2.1127833"><ele>5.25</ele><time>2026-05-02T10:12:21.141Z</time></trkpt><trkpt lat="47.7255217" lon="-2.1129117"><ele>5.0</ele><time>2026-05-02T10:12:22.14Z</time></trkpt><trkpt lat="47.72545" lon="-2.1130583"><ele>5.0</ele><time>2026-05-02T10:12:23.142Z</time></trkpt><trkpt lat="47.725395" lon="-2.1131833"><ele>5.0</ele><time>2026-05-02T10:12:24.141Z</time></trkpt><trkpt lat="47.7253567" lon="-2.1133167"><ele>5.0</ele><time>2026-05-02T10:12:25.14Z</time></trkpt><trkpt lat="47.7253167" lon="-2.1134383"><ele>5.0</ele><time>2026-05-02T10:12:26.14Z</time></trkpt><trkpt lat="47.7252717" lon="-2.1135417"><ele>5.0</ele><time>2026-05-02T10:12:27.14Z</time></trkpt><trkpt lat="47.7252233" lon="-2.1136233"><ele>5.0</ele><time>2026-05-02T10:12:28.139Z</time></trkpt><trkpt lat="47.7251583" lon="-2.113665"><ele>5.8</ele><time>2026-05-02T10:12:29.14Z</time></trkpt><trkpt lat="47.7250933" lon="-2.113685"><ele>6.6</ele><time>2026-05-02T10:12:30.14Z</time></trkpt><trkpt lat="47.7249983" lon="-2.1137183"><ele>7.4</ele><time>2026-05-02T10:12:32.143Z</time></trkpt><trkpt lat="47.724955" lon="-2.1138717"><ele>8.2</ele><time>2026-05-02T10:12:41.14Z</time></trkpt><trkpt lat="47.7249733" lon="-2.113995"><ele>9.0</ele><time>2026-05-02T10:12:42.142Z</time></trkpt><trkpt lat="47.725" lon="-2.1141467"><ele>9.0</ele><time>2026-05-02T10:12:43.139Z</time></trkpt><trkpt lat="47.7250367" lon="-2.1143317"><ele>9.0</ele><time>2026-05-02T10:12:44.14Z</time></trkpt><trkpt lat="47.7250783" lon="-2.114535"><ele>9.0</ele><time>2026-05-02T10:12:45.141Z</time></trkpt><trkpt lat="47.725125" lon="-2.1147417"><ele>9.0</ele><time>2026-05-02T10:12:46.14Z</time></trkpt><trkpt lat="47.72519" lon="-2.1149433"><ele>7.0</ele><time>2026-05-02T10:12:47.139Z</time></trkpt><trkpt lat="47.7252667" lon="-2.1151417"><ele>5.0</ele><time>2026-05-02T10:12:48.14Z</time></trkpt><trkpt lat="47.725355" lon="-2.1153383"><ele>3.0</ele><time>2026-05-02T10:12:49.142Z</time></trkpt><trkpt lat="47.7254683" lon="-2.1155183"><ele>3.0</ele><time>2026-05-02T10:12:50.14Z</time></trkpt><trkpt lat="47.7255967" lon="-2.115685"><ele>3.0</ele><time>2026-05-02T10:12:51.139Z</time></trkpt><trkpt lat="47.725735" lon="-2.115835"><ele>3.0</ele><time>2026-05-02T10:12:52.139Z</time></trkpt><trkpt lat="47.7258817" lon="-2.1159717"><ele>2.6666666666666665</ele><time>2026-05-02T10:12:53.141Z</time></trkpt><trkpt lat="47.726035" lon="-2.116095"><ele>2.333333333333333</ele><time>2026-05-02T10:12:54.139Z</time></trkpt><trkpt lat="47.726195" lon="-2.11618"><ele>2.0</ele><time>2026-05-02T10:12:55.139Z</time></trkpt><trkpt lat="47.72636" lon="-2.11624"><ele>2.0</ele><time>2026-05-02T10:12:56.14Z</time></trkpt><trkpt lat="47.7265333" lon="-2.116285"><ele>2.0</ele><time>2026-05-02T10:12:57.141Z</time></trkpt><trkpt lat="47.7267083" lon="-2.11632"><ele>2.0</ele><time>2026-05-02T10:12:58.141Z</time></trkpt><trkpt lat="47.7268867" lon="-2.1163567"><ele>2.6666666666666665</ele><time>2026-05-02T10:12:59.141Z</time></trkpt><trkpt lat="47.7270667" lon="-2.1163917"><ele>3.333333333333333</ele><time>2026-05-02T10:13:00.14Z</time></trkpt><trkpt lat="47.7272467" lon="-2.1164283"><ele>4.0</ele><time>2026-05-02T10:13:01.14Z</time></trkpt><trkpt lat="47.7274233" lon="-2.1164617"><ele>4.0</ele><time>2026-05-02T10:13:02.139Z</time></trkpt><trkpt lat="47.7275833" lon="-2.11649"><ele>4.0</ele><time>2026-05-02T10:13:03.14Z</time></trkpt><trkpt lat="47.7277317" lon="-2.1165117"><ele>4.0</ele><time>2026-05-02T10:13:04.142Z</time></trkpt><trkpt lat="47.7278717" lon="-2.1165417"><ele>4.5</ele><time>2026-05-02T10:13:05.14Z</time></trkpt><trkpt lat="47.728" lon="-2.1165867"><ele>5.0</ele><time>2026-05-02T10:13:06.14Z</time></trkpt><trkpt lat="47.728115" lon="-2.1166667"><ele>5.5</ele><time>2026-05-02T10:13:07.139Z</time></trkpt><trkpt lat="47.7282167" lon="-2.1167833"><ele>6.0</ele><time>2026-05-02T10:13:08.139Z</time></trkpt><trkpt lat="47.7283" lon="-2.11694"><ele>6.0</ele><time>2026-05-02T10:13:09.14Z</time></trkpt><trkpt lat="47.7283567" lon="-2.1171333"><ele>6.0</ele><time>2026-05-02T10:13:10.139Z</time></trkpt><trkpt lat="47.7283967" lon="-2.1173467"><ele>6.0</ele><time>2026-05-02T10:13:11.139Z</time></trkpt><trkpt lat="47.7284267" lon="-2.11757"><ele>6.0</ele><time>2026-05-02T10:13:12.14Z</time></trkpt><trkpt lat="47.72846" lon="-2.117795"><ele>5.333333333333333</ele><time>2026-05-02T10:13:13.14Z</time></trkpt><trkpt lat="47.728495" lon="-2.1180167"><ele>4.666666666666666</ele><time>2026-05-02T10:13:14.139Z</time></trkpt><trkpt lat="47.7285467" lon="-2.1182283"><ele>4.0</ele><time>2026-05-02T10:13:15.14Z</time></trkpt><trkpt lat="47.7286183" lon="-2.11843"><ele>6.0</ele><time>2026-05-02T10:13:16.14Z</time></trkpt><trkpt lat="47.7287117" lon="-2.1186167"><ele>8.0</ele><time>2026-05-02T10:13:17.139Z</time></trkpt><trkpt lat="47.7288233" lon="-2.1187833"><ele>10.0</ele><time>2026-05-02T10:13:18.14Z</time></trkpt><trkpt lat="47.7289467" lon="-2.11892"><ele>10.0</ele><time>2026-05-02T10:13:19.14Z</time></trkpt><trkpt lat="47.7290767" lon="-2.1190233"><ele>10.0</ele><time>2026-05-02T10:13:20.139Z</time></trkpt><trkpt lat="47.729205" lon="-2.1190967"><ele>10.0</ele><time>2026-05-02T10:13:21.144Z</time></trkpt><trkpt lat="47.7293217" lon="-2.11916"><ele>10.0</ele><time>2026-05-02T10:13:22.141Z</time></trkpt><trkpt lat="47.72943" lon="-2.1192367"><ele>11.75</ele><time>2026-05-02T10:13:23.14Z</time></trkpt><trkpt lat="47.7295133" lon="-2.1193417"><ele>13.5</ele><time>2026-05-02T10:13:24.14Z</time></trkpt><trkpt lat="47.7295733" lon="-2.1194717"><ele>15.25</ele><time>2026-05-02T10:13:25.141Z</time></trkpt><trkpt lat="47.729615" lon="-2.1196367"><ele>17.0</ele><time>2026-05-02T10:13:26.139Z</time></trkpt><trkpt lat="47.7296283" lon="-2.1198167"><ele>17.25</ele><time>2026-05-02T10:13:27.142Z</time></trkpt><trkpt lat="47.7296117" lon="-2.1200067"><ele>17.5</ele><time>2026-05-02T10:13:28.139Z</time></trkpt><trkpt lat="47.7295733" lon="-2.12021"><ele>17.75</ele><time>2026-05-02T10:13:29.142Z</time></trkpt><trkpt lat="47.7295283" lon="-2.1204233"><ele>18.0</ele><time>2026-05-02T10:13:30.139Z</time></trkpt><trkpt lat="47.7294817" lon="-2.1206433"><ele>18.333333333333332</ele><time>2026-05-02T10:13:31.139Z</time></trkpt><trkpt lat="47.7294383" lon="-2.1208667"><ele>18.666666666666664</ele><time>2026-05-02T10:13:32.139Z</time></trkpt><trkpt lat="47.7294033" lon="-2.1210917"><ele>19.0</ele><time>2026-05-02T10:13:33.141Z</time></trkpt><trkpt lat="47.7293733" lon="-2.1213033"><ele>17.75</ele><time>2026-05-02T10:13:34.14Z</time></trkpt><trkpt lat="47.7293367" lon="-2.1215167"><ele>16.5</ele><time>2026-05-02T10:13:35.14Z</time></trkpt><trkpt lat="47.729295" lon="-2.1217317"><ele>15.25</ele><time>2026-05-02T10:13:36.14Z</time></trkpt><trkpt lat="47.72924" lon="-2.1219383"><ele>14.0</ele><time>2026-05-02T10:13:37.14Z</time></trkpt><trkpt lat="47.7291783" lon="-2.12214"><ele>14.0</ele><time>2026-05-02T10:13:38.143Z</time></trkpt><trkpt lat="47.7291083" lon="-2.1223333"><ele>14.0</ele><time>2026-05-02T10:13:39.141Z</time></trkpt><trkpt lat="47.7290317" lon="-2.1225333"><ele>14.0</ele><time>2026-05-02T10:13:40.139Z</time></trkpt><trkpt lat="47.7289483" lon="-2.1227267"><ele>14.666666666666668</ele><time>2026-05-02T10:13:41.139Z</time></trkpt><trkpt lat="47.7288683" lon="-2.12292"><ele>15.333333333333332</ele><time>2026-05-02T10:13:42.139Z</time></trkpt><trkpt lat="47.728795" lon="-2.12312"><ele>16.0</ele><time>2026-05-02T10:13:43.14Z</time></trkpt><trkpt lat="47.7287333" lon="-2.1233333"><ele>16.0</ele><time>2026-05-02T10:13:44.14Z</time></trkpt><trkpt lat="47.7286783" lon="-2.1235533"><ele>16.0</ele><time>2026-05-02T10:13:45.14Z</time></trkpt><trkpt lat="47.72863" lon="-2.1237833"><ele>16.0</ele><time>2026-05-02T10:13:46.139Z</time></trkpt><trkpt lat="47.7285833" lon="-2.1240267"><ele>14.0</ele><time>2026-05-02T10:13:47.139Z</time></trkpt><trkpt lat="47.7285383" lon="-2.124275"><ele>12.0</ele><time>2026-05-02T10:13:48.139Z</time></trkpt><trkpt lat="47.7284967" lon="-2.124525"><ele>10.0</ele><time>2026-05-02T10:13:49.14Z</time></trkpt><trkpt lat="47.728455" lon="-2.1247817"><ele>10.666666666666668</ele><time>2026-05-02T10:13:50.14Z</time></trkpt><trkpt lat="47.7284133" lon="-2.1250417"><ele>11.333333333333334</ele><time>2026-05-02T10:13:51.14Z</time></trkpt><trkpt lat="47.7283667" lon="-2.12529"><ele>12.0</ele><time>2026-05-02T10:13:52.14Z</time></trkpt><trkpt lat="47.7283183" lon="-2.12553"><ele>12.5</ele><time>2026-05-02T10:13:53.143Z</time></trkpt><trkpt lat="47.72827" lon="-2.1257567"><ele>13.0</ele><time>2026-05-02T10:13:54.14Z</time></trkpt><trkpt lat="47.728225" lon="-2.125965"><ele>13.5</ele><time>2026-05-02T10:13:55.139Z</time></trkpt><trkpt lat="47.72819" lon="-2.1261483"><ele>14.0</ele><time>2026-05-02T10:13:56.139Z</time></trkpt><trkpt lat="47.7281667" lon="-2.126305"><ele>14.0</ele><time>2026-05-02T10:13:57.14Z</time></trkpt><trkpt lat="47.72815" lon="-2.126425"><ele>13.999999999999998</ele><time>2026-05-02T10:13:58.139Z</time></trkpt><trkpt lat="47.7281467" lon="-2.1265233"><ele>13.999999999999998</ele><time>2026-05-02T10:13:59.139Z</time></trkpt><trkpt lat="47.7282" lon="-2.126645"><ele>14.0</ele><time>2026-05-02T10:14:01.139Z</time></trkpt><trkpt lat="47.7283367" lon="-2.1266933"><ele>14.0</ele><time>2026-05-02T10:14:03.141Z</time></trkpt><trkpt lat="47.7284217" lon="-2.1267"><ele>15.0</ele><time>2026-05-02T10:14:04.14Z</time></trkpt><trkpt lat="47.72852" lon="-2.126705"><ele>16.0</ele><time>2026-05-02T10:14:05.14Z</time></trkpt><trkpt lat="47.72864" lon="-2.1267183"><ele>17.0</ele><time>2026-05-02T10:14:06.14Z</time></trkpt><trkpt lat="47.7287717" lon="-2.1267367"><ele>18.0</ele><time>2026-05-02T10:14:07.14Z</time></trkpt><trkpt lat="47.7289117" lon="-2.1267517"><ele>19.666666666666668</ele><time>2026-05-02T10:14:08.14Z</time></trkpt><trkpt lat="47.7290633" lon="-2.1267717"><ele>21.333333333333336</ele><time>2026-05-02T10:14:09.14Z</time></trkpt><trkpt lat="47.7292183" lon="-2.1267933"><ele>23.0</ele><time>2026-05-02T10:14:10.139Z</time></trkpt><trkpt lat="47.729365" lon="-2.1268083"><ele>23.799999999999997</ele><time>2026-05-02T10:14:11.139Z</time></trkpt><trkpt lat="47.7294933" lon="-2.1268233"><ele>24.6</ele><time>2026-05-02T10:14:12.141Z</time></trkpt><trkpt lat="47.7296017" lon="-2.1268333"><ele>25.400000000000002</ele><time>2026-05-02T10:14:13.139Z</time></trkpt><trkpt lat="47.7296867" lon="-2.12684"><ele>26.200000000000003</ele><time>2026-05-02T10:14:14.139Z</time></trkpt><trkpt lat="47.72975" lon="-2.126855"><ele>27.0</ele><time>2026-05-02T10:14:15.14Z</time></trkpt><trkpt lat="47.7298233" lon="-2.1269433"><ele>27.0</ele><time>2026-05-02T10:14:17.139Z</time></trkpt><trkpt lat="47.7298483" lon="-2.1270317"><ele>27.000000000000004</ele><time>2026-05-02T10:14:18.139Z</time></trkpt><trkpt lat="47.72987" lon="-2.12715"><ele>27.000000000000004</ele><time>2026-05-02T10:14:19.139Z</time></trkpt><trkpt lat="47.7298967" lon="-2.1272933"><ele>27.0</ele><time>2026-05-02T10:14:20.139Z</time></trkpt><trkpt lat="47.7299333" lon="-2.1274517"><ele>27.0</ele><time>2026-05-02T10:14:21.14Z</time></trkpt><trkpt lat="47.7299817" lon="-2.1276167"><ele>27.25</ele><time>2026-05-02T10:14:22.14Z</time></trkpt><trkpt lat="47.7300383" lon="-2.1277933"><ele>27.5</ele><time>2026-05-02T10:14:23.139Z</time></trkpt><trkpt lat="47.7300967" lon="-2.1279833"><ele>27.75</ele><time>2026-05-02T10:14:24.14Z</time></trkpt><trkpt lat="47.7301517" lon="-2.1281683"><ele>28.0</ele><time>2026-05-02T10:14:25.139Z</time></trkpt><trkpt lat="47.7302083" lon="-2.12834"><ele>29.25</ele><time>2026-05-02T10:14:26.14Z</time></trkpt><trkpt lat="47.7302667" lon="-2.1284983"><ele>30.5</ele><time>2026-05-02T10:14:27.141Z</time></trkpt><trkpt lat="47.7303267" lon="-2.128655"><ele>31.75</ele><time>2026-05-02T10:14:28.14Z</time></trkpt><trkpt lat="47.7303917" lon="-2.1288117"><ele>33.0</ele><time>2026-05-02T10:14:29.14Z</time></trkpt><trkpt lat="47.7304533" lon="-2.1289817"><ele>34.0</ele><time>2026-05-02T10:14:30.139Z</time></trkpt><trkpt lat="47.7305117" lon="-2.1291617"><ele>35.0</ele><time>2026-05-02T10:14:31.139Z</time></trkpt><trkpt lat="47.7305583" lon="-2.12935"><ele>36.0</ele><time>2026-05-02T10:14:32.139Z</time></trkpt><trkpt lat="47.730595" lon="-2.1295467"><ele>37.0</ele><time>2026-05-02T10:14:33.14Z</time></trkpt><trkpt lat="47.7306317" lon="-2.1297483"><ele>37.5</ele><time>2026-05-02T10:14:34.139Z</time></trkpt><trkpt lat="47.7306667" lon="-2.1299567"><ele>38.0</ele><time>2026-05-02T10:14:35.141Z</time></trkpt><trkpt lat="47.7307033" lon="-2.130165"><ele>38.5</ele><time>2026-05-02T10:14:36.139Z</time></trkpt><trkpt lat="47.730735" lon="-2.1303667"><ele>39.0</ele><time>2026-05-02T10:14:37.14Z</time></trkpt><trkpt lat="47.7307717" lon="-2.1305583"><ele>39.25</ele><time>2026-05-02T10:14:38.139Z</time></trkpt><trkpt lat="47.7308133" lon="-2.13075"><ele>39.5</ele><time>2026-05-02T10:14:39.143Z</time></trkpt><trkpt lat="47.7308633" lon="-2.130945"><ele>39.75</ele><time>2026-05-02T10:14:40.139Z</time></trkpt><trkpt lat="47.7309183" lon="-2.1311433"><ele>40.0</ele><time>2026-05-02T10:14:41.139Z</time></trkpt><trkpt lat="47.7309717" lon="-2.131335"><ele>40.0</ele><time>2026-05-02T10:14:42.139Z</time></trkpt><trkpt lat="47.7310217" lon="-2.13151"><ele>40.0</ele><time>2026-05-02T10:14:43.14Z</time></trkpt><trkpt lat="47.7310667" lon="-2.131665"><ele>40.0</ele><time>2026-05-02T10:14:44.14Z</time></trkpt><trkpt lat="47.7311117" lon="-2.1318033"><ele>40.0</ele><time>2026-05-02T10:14:45.139Z</time></trkpt><trkpt lat="47.73115" lon="-2.1319283"><ele>40.0</ele><time>2026-05-02T10:14:46.139Z</time></trkpt><trkpt lat="47.7311817" lon="-2.1320317"><ele>40.0</ele><time>2026-05-02T10:14:47.14Z</time></trkpt><trkpt lat="47.7312083" lon="-2.1321167"><ele>40.0</ele><time>2026-05-02T10:14:48.141Z</time></trkpt><trkpt lat="47.7312483" lon="-2.1322267"><ele>40.0</ele><time>2026-05-02T10:14:50.141Z</time></trkpt><trkpt lat="47.7312867" lon="-2.1323917"><ele>40.0</ele><time>2026-05-02T10:14:58.139Z</time></trkpt><trkpt lat="47.7313183" lon="-2.1325033"><ele>40.0</ele><time>2026-05-02T10:14:59.14Z</time></trkpt><trkpt lat="47.7313583" lon="-2.1326417"><ele>40.0</ele><time>2026-05-02T10:15:00.139Z</time></trkpt><trkpt lat="47.7314" lon="-2.1327967"><ele>41.0</ele><time>2026-05-02T10:15:01.141Z</time></trkpt><trkpt lat="47.73145" lon="-2.13297"><ele>42.0</ele><time>2026-05-02T10:15:02.139Z</time></trkpt><trkpt lat="47.7315067" lon="-2.1331533"><ele>43.0</ele><time>2026-05-02T10:15:03.141Z</time></trkpt><trkpt lat="47.7315667" lon="-2.1333533"><ele>44.0</ele><time>2026-05-02T10:15:04.14Z</time></trkpt><trkpt lat="47.731625" lon="-2.133565"><ele>44.33333333333333</ele><time>2026-05-02T10:15:05.139Z</time></trkpt><trkpt lat="47.7316917" lon="-2.1337817"><ele>44.666666666666664</ele><time>2026-05-02T10:15:06.139Z</time></trkpt><trkpt lat="47.7317567" lon="-2.1340067"><ele>45.0</ele><time>2026-05-02T10:15:07.139Z</time></trkpt><trkpt lat="47.7318267" lon="-2.13424"><ele>45.333333333333336</ele><time>2026-05-02T10:15:08.141Z</time></trkpt><trkpt lat="47.7318967" lon="-2.134475"><ele>45.66666666666667</ele><time>2026-05-02T10:15:09.14Z</time></trkpt><trkpt lat="47.7319683" lon="-2.13471"><ele>46.0</ele><time>2026-05-02T10:15:10.139Z</time></trkpt><trkpt lat="47.732035" lon="-2.1349433"><ele>46.0</ele><time>2026-05-02T10:15:11.139Z</time></trkpt><trkpt lat="47.7321033" lon="-2.1351683"><ele>46.0</ele><time>2026-05-02T10:15:12.14Z</time></trkpt><trkpt lat="47.7321733" lon="-2.1353867"><ele>46.0</ele><time>2026-05-02T10:15:13.139Z</time></trkpt><trkpt lat="47.7322433" lon="-2.1355917"><ele>45.66666666666667</ele><time>2026-05-02T10:15:14.139Z</time></trkpt><trkpt lat="47.73231" lon="-2.1358017"><ele>45.333333333333336</ele><time>2026-05-02T10:15:15.14Z</time></trkpt><trkpt lat="47.7323883" lon="-2.1359983"><ele>45.0</ele><time>2026-05-02T10:15:16.139Z</time></trkpt><trkpt lat="47.7324783" lon="-2.1361767"><ele>45.0</ele><time>2026-05-02T10:15:17.139Z</time></trkpt><trkpt lat="47.7325683" lon="-2.1363483"><ele>45.0</ele><time>2026-05-02T10:15:18.142Z</time></trkpt><trkpt lat="47.732655" lon="-2.1365117"><ele>45.0</ele><time>2026-05-02T10:15:19.139Z</time></trkpt><trkpt lat="47.7327317" lon="-2.1366733"><ele>45.0</ele><time>2026-05-02T10:15:20.142Z</time></trkpt><trkpt lat="47.7328" lon="-2.136845"><ele>45.5</ele><time>2026-05-02T10:15:21.141Z</time></trkpt><trkpt lat="47.7328533" lon="-2.137035"><ele>46.0</ele><time>2026-05-02T10:15:22.14Z</time></trkpt><trkpt lat="47.7328967" lon="-2.137235"><ele>46.5</ele><time>2026-05-02T10:15:23.14Z</time></trkpt><trkpt lat="47.732925" lon="-2.137445"><ele>47.0</ele><time>2026-05-02T10:15:24.141Z</time></trkpt><trkpt lat="47.7329483" lon="-2.1376633"><ele>47.0</ele><time>2026-05-02T10:15:25.14Z</time></trkpt><trkpt lat="47.7329667" lon="-2.1378867"><ele>47.0</ele><time>2026-05-02T10:15:26.14Z</time></trkpt><trkpt lat="47.7329817" lon="-2.138115"><ele>47.0</ele><time>2026-05-02T10:15:27.141Z</time></trkpt><trkpt lat="47.7330033" lon="-2.1383333"><ele>47.0</ele><time>2026-05-02T10:15:28.14Z</time></trkpt><trkpt lat="47.7330333" lon="-2.1385317"><ele>47.0</ele><time>2026-05-02T10:15:29.14Z</time></trkpt><trkpt lat="47.733065" lon="-2.1387"><ele>47.0</ele><time>2026-05-02T10:15:30.141Z</time></trkpt><trkpt lat="47.7331017" lon="-2.13884"><ele>47.0</ele><time>2026-05-02T10:15:31.14Z</time></trkpt><trkpt lat="47.7331317" lon="-2.1389583"><ele>47.0</ele><time>2026-05-02T10:15:32.141Z</time></trkpt><trkpt lat="47.7331533" lon="-2.1390583"><ele>46.8</ele><time>2026-05-02T10:15:33.139Z</time></trkpt><trkpt lat="47.733185" lon="-2.1391967"><ele>46.6</ele><time>2026-05-02T10:15:35.139Z</time></trkpt><trkpt lat="47.73321" lon="-2.1393167"><ele>46.4</ele><time>2026-05-02T10:15:44.139Z</time></trkpt><trkpt lat="47.7332517" lon="-2.1394783"><ele>46.199999999999996</ele><time>2026-05-02T10:15:46.139Z</time></trkpt><trkpt lat="47.733275" lon="-2.1395783"><ele>46.0</ele><time>2026-05-02T10:15:47.139Z</time></trkpt><trkpt lat="47.7333017" lon="-2.1396933"><ele>46.0</ele><time>2026-05-02T10:15:48.139Z</time></trkpt><trkpt lat="47.733335" lon="-2.139815"><ele>46.0</ele><time>2026-05-02T10:15:49.139Z</time></trkpt><trkpt lat="47.733365" lon="-2.139945"><ele>46.0</ele><time>2026-05-02T10:15:50.139Z</time></trkpt><trkpt lat="47.7333967" lon="-2.14008"><ele>46.0</ele><time>2026-05-02T10:15:51.14Z</time></trkpt><trkpt lat="47.7334317" lon="-2.14022"><ele>46.0</ele><time>2026-05-02T10:15:52.139Z</time></trkpt><trkpt lat="47.7334667" lon="-2.1403567"><ele>46.333333333333336</ele><time>2026-05-02T10:15:53.139Z</time></trkpt><trkpt lat="47.7335033" lon="-2.14049"><ele>46.66666666666667</ele><time>2026-05-02T10:15:54.14Z</time></trkpt><trkpt lat="47.733535" lon="-2.1406167"><ele>47.0</ele><time>2026-05-02T10:15:55.139Z</time></trkpt><trkpt lat="47.7335617" lon="-2.1407367"><ele>47.333333333333336</ele><time>2026-05-02T10:15:56.139Z</time></trkpt><trkpt lat="47.7335883" lon="-2.1408583"><ele>47.666666666666664</ele><time>2026-05-02T10:15:57.14Z</time></trkpt><trkpt lat="47.7336183" lon="-2.140975"><ele>48.0</ele><time>2026-05-02T10:15:58.14Z</time></trkpt><trkpt lat="47.7336483" lon="-2.1410933"><ele>46.833333333333336</ele><time>2026-05-02T10:15:59.139Z</time></trkpt><trkpt lat="47.7336717" lon="-2.1412083"><ele>45.666666666666664</ele><time>2026-05-02T10:16:00.14Z</time></trkpt><trkpt lat="47.7337" lon="-2.1413267"><ele>44.5</ele><time>2026-05-02T10:16:01.139Z</time></trkpt><trkpt lat="47.7337317" lon="-2.1414517"><ele>43.33333333333333</ele><time>2026-05-02T10:16:02.139Z</time></trkpt><trkpt lat="47.7337633" lon="-2.1415817"><ele>42.166666666666664</ele><time>2026-05-02T10:16:03.139Z</time></trkpt><trkpt lat="47.7337967" lon="-2.1417183"><ele>41.0</ele><time>2026-05-02T10:16:04.139Z</time></trkpt><trkpt lat="47.73383" lon="-2.141855"><ele>40.8</ele><time>2026-05-02T10:16:05.139Z</time></trkpt><trkpt lat="47.7338633" lon="-2.1419983"><ele>40.599999999999994</ele><time>2026-05-02T10:16:06.138Z</time></trkpt><trkpt lat="47.7338933" lon="-2.14214"><ele>40.4</ele><time>2026-05-02T10:16:07.14Z</time></trkpt><trkpt lat="47.7339217" lon="-2.1422767"><ele>40.2</ele><time>2026-05-02T10:16:08.138Z</time></trkpt><trkpt lat="47.7339483" lon="-2.14241"><ele>40.0</ele><time>2026-05-02T10:16:09.139Z</time></trkpt><trkpt lat="47.7339783" lon="-2.1425333"><ele>39.833333333333336</ele><time>2026-05-02T10:16:10.138Z</time></trkpt><trkpt lat="47.734005" lon="-2.1426533"><ele>39.66666666666667</ele><time>2026-05-02T10:16:11.139Z</time></trkpt><trkpt lat="47.7340333" lon="-2.1427733"><ele>39.5</ele><time>2026-05-02T10:16:12.138Z</time></trkpt><trkpt lat="47.7340583" lon="-2.1428917"><ele>39.333333333333336</ele><time>2026-05-02T10:16:13.139Z</time></trkpt><trkpt lat="47.7340833" lon="-2.143005"><ele>39.166666666666664</ele><time>2026-05-02T10:16:14.139Z</time></trkpt><trkpt lat="47.73411" lon="-2.1431133"><ele>39.0</ele><time>2026-05-02T10:16:15.139Z</time></trkpt><trkpt lat="47.7341383" lon="-2.143225"><ele>38.833333333333336</ele><time>2026-05-02T10:16:16.139Z</time></trkpt><trkpt lat="47.7341633" lon="-2.1433383"><ele>38.666666666666664</ele><time>2026-05-02T10:16:17.14Z</time></trkpt><trkpt lat="47.734185" lon="-2.1434433"><ele>38.5</ele><time>2026-05-02T10:16:18.14Z</time></trkpt><trkpt lat="47.7342067" lon="-2.1435433"><ele>38.33333333333333</ele><time>2026-05-02T10:16:19.14Z</time></trkpt><trkpt lat="47.7342283" lon="-2.14364"><ele>38.166666666666664</ele><time>2026-05-02T10:16:20.14Z</time></trkpt><trkpt lat="47.734255" lon="-2.1437767"><ele>38.0</ele><time>2026-05-02T10:16:22.141Z</time></trkpt><trkpt lat="47.7342783" lon="-2.1438917"><ele>38.0</ele><time>2026-05-02T10:16:25.14Z</time></trkpt><trkpt lat="47.734325" lon="-2.1439983"><ele>38.0</ele><time>2026-05-02T10:16:28.141Z</time></trkpt><trkpt lat="47.7343583" lon="-2.1440817"><ele>38.0</ele><time>2026-05-02T10:16:30.141Z</time></trkpt><trkpt lat="47.7344033" lon="-2.1441683"><ele>38.0</ele><time>2026-05-02T10:16:32.14Z</time></trkpt><trkpt lat="47.7344533" lon="-2.1442783"><ele>38.0</ele><time>2026-05-02T10:16:34.141Z</time></trkpt><trkpt lat="47.7345033" lon="-2.1443817"><ele>38.0</ele><time>2026-05-02T10:16:36.141Z</time></trkpt><trkpt lat="47.7345383" lon="-2.1444767"><ele>37.6</ele><time>2026-05-02T10:16:38.141Z</time></trkpt><trkpt lat="47.73459" lon="-2.1445983"><ele>37.199999999999996</ele><time>2026-05-02T10:16:40.141Z</time></trkpt><trkpt lat="47.73465" lon="-2.1447267"><ele>36.8</ele><time>2026-05-02T10:16:42.142Z</time></trkpt><trkpt lat="47.7347117" lon="-2.1448717"><ele>36.4</ele><time>2026-05-02T10:16:44.141Z</time></trkpt><trkpt lat="47.7347833" lon="-2.14503"><ele>36.0</ele><time>2026-05-02T10:16:46.139Z</time></trkpt><trkpt lat="47.7348267" lon="-2.1451167"><ele>36.0</ele><time>2026-05-02T10:16:47.139Z</time></trkpt><trkpt lat="47.73487" lon="-2.1452"><ele>36.0</ele><time>2026-05-02T10:16:48.14Z</time></trkpt><trkpt lat="47.73491" lon="-2.1452917"><ele>36.0</ele><time>2026-05-02T10:16:49.14Z</time></trkpt><trkpt lat="47.73495" lon="-2.1453767"><ele>36.0</ele><time>2026-05-02T10:16:50.14Z</time></trkpt><trkpt lat="47.7349917" lon="-2.1454517"><ele>36.0</ele><time>2026-05-02T10:16:51.14Z</time></trkpt><trkpt lat="47.7350333" lon="-2.145525"><ele>36.0</ele><time>2026-05-02T10:16:52.14Z</time></trkpt><trkpt lat="47.7351033" lon="-2.145665"><ele>36.2</ele><time>2026-05-02T10:16:54.141Z</time></trkpt><trkpt lat="47.7351733" lon="-2.14581"><ele>36.400000000000006</ele><time>2026-05-02T10:16:56.141Z</time></trkpt><trkpt lat="47.7352467" lon="-2.1459517"><ele>36.6</ele><time>2026-05-02T10:16:58.143Z</time></trkpt><trkpt lat="47.7353167" lon="-2.1460917"><ele>36.800000000000004</ele><time>2026-05-02T10:17:00.141Z</time></trkpt><trkpt lat="47.735355" lon="-2.1461667"><ele>37.0</ele><time>2026-05-02T10:17:01.142Z</time></trkpt><trkpt lat="47.7354" lon="-2.14625"><ele>36.0</ele><time>2026-05-02T10:17:02.143Z</time></trkpt><trkpt lat="47.7354467" lon="-2.1463333"><ele>35.0</ele><time>2026-05-02T10:17:03.142Z</time></trkpt><trkpt lat="47.73549" lon="-2.1464117"><ele>34.0</ele><time>2026-05-02T10:17:04.139Z</time></trkpt><trkpt lat="47.7355333" lon="-2.1464867"><ele>33.0</ele><time>2026-05-02T10:17:05.14Z</time></trkpt><trkpt lat="47.7355733" lon="-2.1465617"><ele>32.0</ele><time>2026-05-02T10:17:06.141Z</time></trkpt><trkpt lat="47.73564" lon="-2.1467117"><ele>31.0</ele><time>2026-05-02T10:17:08.14Z</time></trkpt><trkpt lat="47.7356933" lon="-2.146855"><ele>31.0</ele><time>2026-05-02T10:17:10.14Z</time></trkpt><trkpt lat="47.7357417" lon="-2.1469867"><ele>31.0</ele><time>2026-05-02T10:17:12.14Z</time></trkpt><trkpt lat="47.735785" lon="-2.1471317"><ele>31.0</ele><time>2026-05-02T10:17:14.141Z</time></trkpt><trkpt lat="47.735815" lon="-2.1472883"><ele>31.0</ele><time>2026-05-02T10:17:16.141Z</time></trkpt><trkpt lat="47.7358417" lon="-2.1474317"><ele>31.0</ele><time>2026-05-02T10:17:18.14Z</time></trkpt><trkpt lat="47.73586" lon="-2.1475417"><ele>31.166666666666668</ele><time>2026-05-02T10:17:20.14Z</time></trkpt><trkpt lat="47.7358817" lon="-2.14766"><ele>31.333333333333336</ele><time>2026-05-02T10:17:22.142Z</time></trkpt><trkpt lat="47.7358983" lon="-2.14781"><ele>31.5</ele><time>2026-05-02T10:17:24.14Z</time></trkpt><trkpt lat="47.73589" lon="-2.1479083"><ele>31.666666666666664</ele><time>2026-05-02T10:17:25.14Z</time></trkpt><trkpt lat="47.7358733" lon="-2.1480267"><ele>31.833333333333332</ele><time>2026-05-02T10:17:26.139Z</time></trkpt><trkpt lat="47.7358567" lon="-2.148155"><ele>32.0</ele><time>2026-05-02T10:17:27.14Z</time></trkpt><trkpt lat="47.7358467" lon="-2.1483"><ele>31.0</ele><time>2026-05-02T10:17:28.139Z</time></trkpt><trkpt lat="47.7358417" lon="-2.14846"><ele>30.0</ele><time>2026-05-02T10:17:29.14Z</time></trkpt><trkpt lat="47.7358417" lon="-2.1486317"><ele>29.0</ele><time>2026-05-02T10:17:30.144Z</time></trkpt><trkpt lat="47.7358417" lon="-2.1488033"><ele>28.0</ele><time>2026-05-02T10:17:31.14Z</time></trkpt><trkpt lat="47.73585" lon="-2.1489733"><ele>28.0</ele><time>2026-05-02T10:17:32.14Z</time></trkpt><trkpt lat="47.73586" lon="-2.1491567"><ele>28.0</ele><time>2026-05-02T10:17:33.14Z</time></trkpt><trkpt lat="47.735875" lon="-2.14935"><ele>28.0</ele><time>2026-05-02T10:17:34.14Z</time></trkpt><trkpt lat="47.7358917" lon="-2.1495533"><ele>28.0</ele><time>2026-05-02T10:17:35.139Z</time></trkpt><trkpt lat="47.7359067" lon="-2.149755"><ele>28.5</ele><time>2026-05-02T10:17:36.14Z</time></trkpt><trkpt lat="47.7359233" lon="-2.14995"><ele>29.0</ele><time>2026-05-02T10:17:37.14Z</time></trkpt><trkpt lat="47.73594" lon="-2.150145"><ele>29.5</ele><time>2026-05-02T10:17:38.14Z</time></trkpt><trkpt lat="47.7359483" lon="-2.1503483"><ele>30.0</ele><time>2026-05-02T10:17:39.141Z</time></trkpt><trkpt lat="47.73596" lon="-2.1505733"><ele>30.0</ele><time>2026-05-02T10:17:40.142Z</time></trkpt><trkpt lat="47.7359733" lon="-2.15081"><ele>30.0</ele><time>2026-05-02T10:17:41.14Z</time></trkpt><trkpt lat="47.73599" lon="-2.151065"><ele>30.0</ele><time>2026-05-02T10:17:42.14Z</time></trkpt><trkpt lat="47.7360117" lon="-2.1513433"><ele>29.333333333333336</ele><time>2026-05-02T10:17:43.139Z</time></trkpt><trkpt lat="47.73603" lon="-2.1516267"><ele>28.666666666666668</ele><time>2026-05-02T10:17:44.138Z</time></trkpt><trkpt lat="47.7360567" lon="-2.1519067"><ele>28.0</ele><time>2026-05-02T10:17:45.14Z</time></trkpt><trkpt lat="47.73608" lon="-2.1521717"><ele>28.0</ele><time>2026-05-02T10:17:46.14Z</time></trkpt><trkpt lat="47.7361" lon="-2.1524133"><ele>28.0</ele><time>2026-05-02T10:17:47.139Z</time></trkpt><trkpt lat="47.7361167" lon="-2.1526267"><ele>28.0</ele><time>2026-05-02T10:17:48.14Z</time></trkpt><trkpt lat="47.73613" lon="-2.1528133"><ele>28.0</ele><time>2026-05-02T10:17:49.14Z</time></trkpt><trkpt lat="47.7361417" lon="-2.15298"><ele>28.000000000000004</ele><time>2026-05-02T10:17:50.14Z</time></trkpt><trkpt lat="47.7361517" lon="-2.1531267"><ele>28.0</ele><time>2026-05-02T10:17:51.14Z</time></trkpt><trkpt lat="47.7361617" lon="-2.1532617"><ele>28.0</ele><time>2026-05-02T10:17:52.141Z</time></trkpt><trkpt lat="47.73617" lon="-2.15338"><ele>28.0</ele><time>2026-05-02T10:17:53.139Z</time></trkpt><trkpt lat="47.7361783" lon="-2.153485"><ele>28.000000000000004</ele><time>2026-05-02T10:17:54.139Z</time></trkpt><trkpt lat="47.7361867" lon="-2.1535783"><ele>28.0</ele><time>2026-05-02T10:17:55.142Z</time></trkpt><trkpt lat="47.7361917" lon="-2.1537217"><ele>28.799999999999997</ele><time>2026-05-02T10:17:57.141Z</time></trkpt><trkpt lat="47.7361867" lon="-2.15384"><ele>29.599999999999998</ele><time>2026-05-02T10:17:59.14Z</time></trkpt><trkpt lat="47.7362083" lon="-2.1540117"><ele>30.400000000000002</ele><time>2026-05-02T10:18:01.139Z</time></trkpt><trkpt lat="47.73623" lon="-2.154175"><ele>31.200000000000003</ele><time>2026-05-02T10:18:03.14Z</time></trkpt><trkpt lat="47.7362467" lon="-2.1543417"><ele>32.0</ele><time>2026-05-02T10:18:05.141Z</time></trkpt><trkpt lat="47.736265" lon="-2.15444"><ele>32.5</ele><time>2026-05-02T10:18:06.139Z</time></trkpt><trkpt lat="47.7362767" lon="-2.1545467"><ele>33.0</ele><time>2026-05-02T10:18:07.141Z</time></trkpt><trkpt lat="47.7362867" lon="-2.1546633"><ele>33.5</ele><time>2026-05-02T10:18:08.14Z</time></trkpt><trkpt lat="47.7362933" lon="-2.1547767"><ele>34.0</ele><time>2026-05-02T10:18:09.141Z</time></trkpt><trkpt lat="47.736295" lon="-2.1548817"><ele>34.5</ele><time>2026-05-02T10:18:10.14Z</time></trkpt><trkpt lat="47.7363133" lon="-2.1549917"><ele>35.0</ele><time>2026-05-02T10:18:11.14Z</time></trkpt><trkpt lat="47.7363283" lon="-2.1551"><ele>35.33333333333333</ele><time>2026-05-02T10:18:12.141Z</time></trkpt><trkpt lat="47.7363433" lon="-2.1552033"><ele>35.666666666666664</ele><time>2026-05-02T10:18:13.14Z</time></trkpt><trkpt lat="47.736355" lon="-2.1552983"><ele>36.0</ele><time>2026-05-02T10:18:14.139Z</time></trkpt><trkpt lat="47.73637" lon="-2.15539"><ele>36.333333333333336</ele><time>2026-05-02T10:18:15.141Z</time></trkpt><trkpt lat="47.7363833" lon="-2.1555833"><ele>36.66666666666667</ele><time>2026-05-02T10:18:17.14Z</time></trkpt><trkpt lat="47.7363817" lon="-2.1556967"><ele>37.0</ele><time>2026-05-02T10:18:18.139Z</time></trkpt><trkpt lat="47.73638" lon="-2.1558"><ele>37.75</ele><time>2026-05-02T10:18:19.141Z</time></trkpt><trkpt lat="47.7363817" lon="-2.155975"><ele>38.5</ele><time>2026-05-02T10:18:21.14Z</time></trkpt><trkpt lat="47.7363917" lon="-2.1561367"><ele>39.25</ele><time>2026-05-02T10:18:23.139Z</time></trkpt><trkpt lat="47.7364167" lon="-2.1563017"><ele>40.0</ele><time>2026-05-02T10:18:25.141Z</time></trkpt><trkpt lat="47.7364483" lon="-2.1564667"><ele>40.4</ele><time>2026-05-02T10:18:27.143Z</time></trkpt><trkpt lat="47.7364717" lon="-2.1566283"><ele>40.8</ele><time>2026-05-02T10:18:29.139Z</time></trkpt><trkpt lat="47.7365" lon="-2.1567783"><ele>41.2</ele><time>2026-05-02T10:18:31.14Z</time></trkpt><trkpt lat="47.736525" lon="-2.156915"><ele>41.6</ele><time>2026-05-02T10:18:33.139Z</time></trkpt><trkpt lat="47.736545" lon="-2.15706"><ele>42.0</ele><time>2026-05-02T10:18:35.139Z</time></trkpt><trkpt lat="47.7365683" lon="-2.1572"><ele>42.0</ele><time>2026-05-02T10:18:37.139Z</time></trkpt><trkpt lat="47.7365967" lon="-2.1573417"><ele>42.0</ele><time>2026-05-02T10:18:39.139Z</time></trkpt><trkpt lat="47.7366317" lon="-2.1574717"><ele>42.0</ele><time>2026-05-02T10:18:41.139Z</time></trkpt><trkpt lat="47.7366667" lon="-2.157615"><ele>42.0</ele><time>2026-05-02T10:18:43.14Z</time></trkpt><trkpt lat="47.736705" lon="-2.1577617"><ele>42.0</ele><time>2026-05-02T10:18:45.139Z</time></trkpt><trkpt lat="47.7367267" lon="-2.157895"><ele>41.6</ele><time>2026-05-02T10:18:47.14Z</time></trkpt><trkpt lat="47.7367517" lon="-2.15803"><ele>41.2</ele><time>2026-05-02T10:18:49.14Z</time></trkpt><trkpt lat="47.7367883" lon="-2.1581583"><ele>40.8</ele><time>2026-05-02T10:18:51.139Z</time></trkpt><trkpt lat="47.7368217" lon="-2.1582717"><ele>40.4</ele><time>2026-05-02T10:18:53.139Z</time></trkpt><trkpt lat="47.736865" lon="-2.1584"><ele>40.0</ele><time>2026-05-02T10:18:55.141Z</time></trkpt><trkpt lat="47.7369017" lon="-2.1585283"><ele>40.0</ele><time>2026-05-02T10:18:57.14Z</time></trkpt><trkpt lat="47.7369333" lon="-2.1586467"><ele>40.0</ele><time>2026-05-02T10:18:59.145Z</time></trkpt><trkpt lat="47.7369783" lon="-2.1587817"><ele>40.0</ele><time>2026-05-02T10:19:01.14Z</time></trkpt><trkpt lat="47.7370233" lon="-2.1589167"><ele>40.0</ele><time>2026-05-02T10:19:03.14Z</time></trkpt><trkpt lat="47.7370617" lon="-2.1590617"><ele>40.0</ele><time>2026-05-02T10:19:05.14Z</time></trkpt><trkpt lat="47.7370917" lon="-2.15922"><ele>40.5</ele><time>2026-05-02T10:19:07.141Z</time></trkpt><trkpt lat="47.7371367" lon="-2.1593883"><ele>41.0</ele><time>2026-05-02T10:19:09.141Z</time></trkpt><trkpt lat="47.7371533" lon="-2.15948"><ele>41.5</ele><time>2026-05-02T10:19:10.14Z</time></trkpt><trkpt lat="47.7371733" lon="-2.15957"><ele>42.0</ele><time>2026-05-02T10:19:11.141Z</time></trkpt><trkpt lat="47.7372" lon="-2.15966"><ele>42.5</ele><time>2026-05-02T10:19:12.14Z</time></trkpt><trkpt lat="47.737225" lon="-2.159755"><ele>43.0</ele><time>2026-05-02T10:19:13.141Z</time></trkpt><trkpt lat="47.73725" lon="-2.1598483"><ele>43.333333333333336</ele><time>2026-05-02T10:19:14.142Z</time></trkpt><trkpt lat="47.7372717" lon="-2.159945"><ele>43.66666666666667</ele><time>2026-05-02T10:19:15.141Z</time></trkpt><trkpt lat="47.7372983" lon="-2.1600483"><ele>44.0</ele><time>2026-05-02T10:19:16.14Z</time></trkpt><trkpt lat="47.737325" lon="-2.1601533"><ele>44.333333333333336</ele><time>2026-05-02T10:19:17.141Z</time></trkpt><trkpt lat="47.7373517" lon="-2.1602633"><ele>44.666666666666664</ele><time>2026-05-02T10:19:18.141Z</time></trkpt><trkpt lat="47.73738" lon="-2.1603783"><ele>45.0</ele><time>2026-05-02T10:19:19.14Z</time></trkpt><trkpt lat="47.7374133" lon="-2.1605017"><ele>45.0</ele><time>2026-05-02T10:19:20.142Z</time></trkpt><trkpt lat="47.7374517" lon="-2.1606317"><ele>45.0</ele><time>2026-05-02T10:19:21.139Z</time></trkpt><trkpt lat="47.7374833" lon="-2.1607617"><ele>45.0</ele><time>2026-05-02T10:19:22.139Z</time></trkpt><trkpt lat="47.7375133" lon="-2.1608833"><ele>45.0</ele><time>2026-05-02T10:19:23.139Z</time></trkpt><trkpt lat="47.7375467" lon="-2.16101"><ele>45.0</ele><time>2026-05-02T10:19:24.139Z</time></trkpt><trkpt lat="47.7375783" lon="-2.1611367"><ele>45.0</ele><time>2026-05-02T10:19:25.139Z</time></trkpt><trkpt lat="47.7376117" lon="-2.161265"><ele>45.0</ele><time>2026-05-02T10:19:26.139Z</time></trkpt><trkpt lat="47.7376483" lon="-2.1613967"><ele>45.0</ele><time>2026-05-02T10:19:27.14Z</time></trkpt><trkpt lat="47.7376783" lon="-2.1615267"><ele>45.0</ele><time>2026-05-02T10:19:28.14Z</time></trkpt><trkpt lat="47.7377067" lon="-2.1616583"><ele>45.0</ele><time>2026-05-02T10:19:29.14Z</time></trkpt><trkpt lat="47.73774" lon="-2.1617933"><ele>45.0</ele><time>2026-05-02T10:19:30.141Z</time></trkpt><trkpt lat="47.7377733" lon="-2.1619233"><ele>45.0</ele><time>2026-05-02T10:19:31.141Z</time></trkpt><trkpt lat="47.7378033" lon="-2.1620467"><ele>45.0</ele><time>2026-05-02T10:19:32.141Z</time></trkpt><trkpt lat="47.7378383" lon="-2.1621683"><ele>45.0</ele><time>2026-05-02T10:19:33.141Z</time></trkpt><trkpt lat="47.737875" lon="-2.1622983"><ele>45.0</ele><time>2026-05-02T10:19:34.139Z</time></trkpt><trkpt lat="47.7379117" lon="-2.162435"><ele>45.4</ele><time>2026-05-02T10:19:35.139Z</time></trkpt><trkpt lat="47.73795" lon="-2.1625683"><ele>45.8</ele><time>2026-05-02T10:19:36.139Z</time></trkpt><trkpt lat="47.737985" lon="-2.1626983"><ele>46.2</ele><time>2026-05-02T10:19:37.14Z</time></trkpt><trkpt lat="47.7380217" lon="-2.162825"><ele>46.6</ele><time>2026-05-02T10:19:38.141Z</time></trkpt><trkpt lat="47.7380533" lon="-2.16295"><ele>47.0</ele><time>2026-05-02T10:19:39.14Z</time></trkpt><trkpt lat="47.7380883" lon="-2.163075"><ele>47.8</ele><time>2026-05-02T10:19:40.139Z</time></trkpt><trkpt lat="47.7381267" lon="-2.1632"><ele>48.6</ele><time>2026-05-02T10:19:41.14Z</time></trkpt><trkpt lat="47.7381617" lon="-2.1633283"><ele>49.4</ele><time>2026-05-02T10:19:42.141Z</time></trkpt><trkpt lat="47.7381983" lon="-2.1634683"><ele>50.199999999999996</ele><time>2026-05-02T10:19:43.14Z</time></trkpt><trkpt lat="47.7382383" lon="-2.1636133"><ele>51.0</ele><time>2026-05-02T10:19:44.143Z</time></trkpt><trkpt lat="47.7382767" lon="-2.1637633"><ele>51.0</ele><time>2026-05-02T10:19:45.14Z</time></trkpt><trkpt lat="47.738315" lon="-2.1639167"><ele>51.0</ele><time>2026-05-02T10:19:46.139Z</time></trkpt><trkpt lat="47.73835" lon="-2.1640767"><ele>51.0</ele><time>2026-05-02T10:19:47.14Z</time></trkpt><trkpt lat="47.73838" lon="-2.1642333"><ele>51.0</ele><time>2026-05-02T10:19:48.139Z</time></trkpt><trkpt lat="47.7384017" lon="-2.164385"><ele>51.0</ele><time>2026-05-02T10:19:49.14Z</time></trkpt><trkpt lat="47.7384283" lon="-2.1645367"><ele>51.4</ele><time>2026-05-02T10:19:50.139Z</time></trkpt><trkpt lat="47.7384533" lon="-2.1646917"><ele>51.8</ele><time>2026-05-02T10:19:51.141Z</time></trkpt><trkpt lat="47.7384767" lon="-2.16486"><ele>52.199999999999996</ele><time>2026-05-02T10:19:52.138Z</time></trkpt><trkpt lat="47.73849" lon="-2.1650333"><ele>52.599999999999994</ele><time>2026-05-02T10:19:53.141Z</time></trkpt><trkpt lat="47.7384983" lon="-2.1651933"><ele>53.0</ele><time>2026-05-02T10:19:54.14Z</time></trkpt><trkpt lat="47.7385033" lon="-2.1653417"><ele>53.66666666666667</ele><time>2026-05-02T10:19:55.14Z</time></trkpt><trkpt lat="47.7385033" lon="-2.1654733"><ele>54.333333333333336</ele><time>2026-05-02T10:19:56.139Z</time></trkpt><trkpt lat="47.7385033" lon="-2.16559"><ele>55.0</ele><time>2026-05-02T10:19:57.139Z</time></trkpt><trkpt lat="47.738505" lon="-2.1656883"><ele>55.66666666666667</ele><time>2026-05-02T10:19:58.139Z</time></trkpt><trkpt lat="47.7385217" lon="-2.1658583"><ele>56.333333333333336</ele><time>2026-05-02T10:20:00.14Z</time></trkpt><trkpt lat="47.738535" lon="-2.166"><ele>57.0</ele><time>2026-05-02T10:20:02.141Z</time></trkpt><trkpt lat="47.738535" lon="-2.1661133"><ele>57.166666666666664</ele><time>2026-05-02T10:20:05.139Z</time></trkpt><trkpt lat="47.7385167" lon="-2.16622"><ele>57.33333333333333</ele><time>2026-05-02T10:20:08.139Z</time></trkpt><trkpt lat="47.7384983" lon="-2.1663483"><ele>57.5</ele><time>2026-05-02T10:20:10.139Z</time></trkpt><trkpt lat="47.738475" lon="-2.1664733"><ele>57.666666666666664</ele><time>2026-05-02T10:20:12.14Z</time></trkpt><trkpt lat="47.738445" lon="-2.1665833"><ele>57.83333333333333</ele><time>2026-05-02T10:20:38.139Z</time></trkpt><trkpt lat="47.7384017" lon="-2.1666883"><ele>58.0</ele><time>2026-05-02T10:20:40.139Z</time></trkpt><trkpt lat="47.7383617" lon="-2.1668183"><ele>57.83333333333333</ele><time>2026-05-02T10:20:42.14Z</time></trkpt><trkpt lat="47.7383383" lon="-2.1669483"><ele>57.666666666666664</ele><time>2026-05-02T10:20:44.139Z</time></trkpt><trkpt lat="47.7383317" lon="-2.1670817"><ele>57.5</ele><time>2026-05-02T10:20:46.14Z</time></trkpt><trkpt lat="47.73833" lon="-2.1672183"><ele>57.33333333333333</ele><time>2026-05-02T10:20:48.141Z</time></trkpt><trkpt lat="47.73833" lon="-2.167335"><ele>57.166666666666664</ele><time>2026-05-02T10:20:50.14Z</time></trkpt><trkpt lat="47.738335" lon="-2.167445"><ele>57.0</ele><time>2026-05-02T10:20:52.14Z</time></trkpt><trkpt lat="47.7383517" lon="-2.167565"><ele>57.0</ele><time>2026-05-02T10:20:54.14Z</time></trkpt><trkpt lat="47.7383583" lon="-2.1676833"><ele>57.0</ele><time>2026-05-02T10:20:56.14Z</time></trkpt><trkpt lat="47.7383583" lon="-2.167795"><ele>57.0</ele><time>2026-05-02T10:20:58.141Z</time></trkpt><trkpt lat="47.7383683" lon="-2.167905"><ele>57.0</ele><time>2026-05-02T10:21:00.141Z</time></trkpt><trkpt lat="47.738385" lon="-2.1680183"><ele>57.0</ele><time>2026-05-02T10:21:02.14Z</time></trkpt><trkpt lat="47.7384133" lon="-2.168135"><ele>57.0</ele><time>2026-05-02T10:21:04.141Z</time></trkpt><trkpt lat="47.738435" lon="-2.1682517"><ele>56.833333333333336</ele><time>2026-05-02T10:21:06.14Z</time></trkpt><trkpt lat="47.7384617" lon="-2.1683533"><ele>56.66666666666667</ele><time>2026-05-02T10:21:08.139Z</time></trkpt><trkpt lat="47.73848" lon="-2.1684433"><ele>56.5</ele><time>2026-05-02T10:21:10.14Z</time></trkpt><trkpt lat="47.7384933" lon="-2.1685517"><ele>56.333333333333336</ele><time>2026-05-02T10:21:12.141Z</time></trkpt><trkpt lat="47.73851" lon="-2.16867"><ele>56.16666666666667</ele><time>2026-05-02T10:21:14.141Z</time></trkpt><trkpt lat="47.7385167" lon="-2.1688267"><ele>56.0</ele><time>2026-05-02T10:21:16.141Z</time></trkpt><trkpt lat="47.7385133" lon="-2.1689817"><ele>55.599999999999994</ele><time>2026-05-02T10:21:18.141Z</time></trkpt><trkpt lat="47.7385233" lon="-2.1691133"><ele>55.199999999999996</ele><time>2026-05-02T10:21:20.144Z</time></trkpt><trkpt lat="47.73854" lon="-2.1692533"><ele>54.800000000000004</ele><time>2026-05-02T10:21:22.141Z</time></trkpt><trkpt lat="47.7385667" lon="-2.1693833"><ele>54.400000000000006</ele><time>2026-05-02T10:21:24.141Z</time></trkpt><trkpt lat="47.7385867" lon="-2.1695117"><ele>54.0</ele><time>2026-05-02T10:21:26.142Z</time></trkpt><trkpt lat="47.7386117" lon="-2.1696483"><ele>53.400000000000006</ele><time>2026-05-02T10:21:28.141Z</time></trkpt><trkpt lat="47.7386417" lon="-2.169795"><ele>52.800000000000004</ele><time>2026-05-02T10:21:30.143Z</time></trkpt><trkpt lat="47.738675" lon="-2.1699433"><ele>52.2</ele><time>2026-05-02T10:21:32.141Z</time></trkpt><trkpt lat="47.7387033" lon="-2.17008"><ele>51.599999999999994</ele><time>2026-05-02T10:21:34.141Z</time></trkpt><trkpt lat="47.738725" lon="-2.1701983"><ele>51.0</ele><time>2026-05-02T10:21:36.14Z</time></trkpt><trkpt lat="47.7387533" lon="-2.1703017"><ele>50.833333333333336</ele><time>2026-05-02T10:21:38.141Z</time></trkpt><trkpt lat="47.73878" lon="-2.1704267"><ele>50.66666666666667</ele><time>2026-05-02T10:21:41.141Z</time></trkpt><trkpt lat="47.7388033" lon="-2.1705333"><ele>50.5</ele><time>2026-05-02T10:21:43.141Z</time></trkpt><trkpt lat="47.7388233" lon="-2.170655"><ele>50.333333333333336</ele><time>2026-05-02T10:21:45.143Z</time></trkpt><trkpt lat="47.738845" lon="-2.1707717"><ele>50.16666666666667</ele><time>2026-05-02T10:21:47.141Z</time></trkpt><trkpt lat="47.73888" lon="-2.1709167"><ele>50.0</ele><time>2026-05-02T10:21:49.144Z</time></trkpt><trkpt lat="47.7389067" lon="-2.1710567"><ele>49.8</ele><time>2026-05-02T10:21:51.141Z</time></trkpt><trkpt lat="47.7389217" lon="-2.171195"><ele>49.6</ele><time>2026-05-02T10:21:53.14Z</time></trkpt><trkpt lat="47.738925" lon="-2.17131"><ele>49.400000000000006</ele><time>2026-05-02T10:21:55.144Z</time></trkpt><trkpt lat="47.73893" lon="-2.1714667"><ele>49.2</ele><time>2026-05-02T10:21:57.141Z</time></trkpt><trkpt lat="47.7389333" lon="-2.1716133"><ele>49.0</ele><time>2026-05-02T10:21:59.14Z</time></trkpt><trkpt lat="47.73893" lon="-2.1717567"><ele>48.99999999999999</ele><time>2026-05-02T10:22:01.141Z</time></trkpt><trkpt lat="47.7389233" lon="-2.1719017"><ele>49.0</ele><time>2026-05-02T10:22:03.142Z</time></trkpt><trkpt lat="47.73891" lon="-2.1720267"><ele>49.0</ele><time>2026-05-02T10:22:05.141Z</time></trkpt><trkpt lat="47.7389033" lon="-2.172135"><ele>49.0</ele><time>2026-05-02T10:22:07.141Z</time></trkpt><trkpt lat="47.738905" lon="-2.1722617"><ele>48.99999999999999</ele><time>2026-05-02T10:22:09.141Z</time></trkpt><trkpt lat="47.738895" lon="-2.1723717"><ele>49.0</ele><time>2026-05-02T10:22:11.141Z</time></trkpt><trkpt lat="47.7388767" lon="-2.17252"><ele>49.49999999999999</ele><time>2026-05-02T10:22:13.141Z</time></trkpt><trkpt lat="47.7388733" lon="-2.172615"><ele>50.0</ele><time>2026-05-02T10:22:14.14Z</time></trkpt><trkpt lat="47.7388717" lon="-2.1727233"><ele>50.5</ele><time>2026-05-02T10:22:15.14Z</time></trkpt><trkpt lat="47.738865" lon="-2.1728383"><ele>51.0</ele><time>2026-05-02T10:22:16.139Z</time></trkpt><trkpt lat="47.7388533" lon="-2.172965"><ele>51.49999999999999</ele><time>2026-05-02T10:22:17.139Z</time></trkpt><trkpt lat="47.7388383" lon="-2.1731"><ele>52.0</ele><time>2026-05-02T10:22:18.139Z</time></trkpt><trkpt lat="47.7388167" lon="-2.1732383"><ele>52.2</ele><time>2026-05-02T10:22:19.139Z</time></trkpt><trkpt lat="47.7387883" lon="-2.1733817"><ele>52.400000000000006</ele><time>2026-05-02T10:22:20.14Z</time></trkpt><trkpt lat="47.738745" lon="-2.1735233"><ele>52.599999999999994</ele><time>2026-05-02T10:22:21.14Z</time></trkpt><trkpt lat="47.73869" lon="-2.1736667"><ele>52.8</ele><time>2026-05-02T10:22:22.139Z</time></trkpt><trkpt lat="47.7386317" lon="-2.1738067"><ele>53.0</ele><time>2026-05-02T10:22:23.14Z</time></trkpt><trkpt lat="47.7385733" lon="-2.173945"><ele>52.2</ele><time>2026-05-02T10:22:24.139Z</time></trkpt><trkpt lat="47.7385183" lon="-2.174085"><ele>51.4</ele><time>2026-05-02T10:22:25.139Z</time></trkpt><trkpt lat="47.7384717" lon="-2.1742233"><ele>50.6</ele><time>2026-05-02T10:22:26.139Z</time></trkpt><trkpt lat="47.73843" lon="-2.1743733"><ele>49.800000000000004</ele><time>2026-05-02T10:22:27.14Z</time></trkpt><trkpt lat="47.7383967" lon="-2.1745483"><ele>49.0</ele><time>2026-05-02T10:22:28.139Z</time></trkpt><trkpt lat="47.7383833" lon="-2.1747367"><ele>49.5</ele><time>2026-05-02T10:22:29.14Z</time></trkpt><trkpt lat="47.73838" lon="-2.174935"><ele>50.0</ele><time>2026-05-02T10:22:30.14Z</time></trkpt><trkpt lat="47.73838" lon="-2.1751433"><ele>50.5</ele><time>2026-05-02T10:22:31.139Z</time></trkpt><trkpt lat="47.738385" lon="-2.1753617"><ele>51.0</ele><time>2026-05-02T10:22:32.14Z</time></trkpt><trkpt lat="47.7383933" lon="-2.175585"><ele>50.66666666666667</ele><time>2026-05-02T10:22:33.14Z</time></trkpt><trkpt lat="47.7384067" lon="-2.1758183"><ele>50.333333333333336</ele><time>2026-05-02T10:22:34.14Z</time></trkpt><trkpt lat="47.7384317" lon="-2.1760533"><ele>50.0</ele><time>2026-05-02T10:22:35.139Z</time></trkpt><trkpt lat="47.7384617" lon="-2.176285"><ele>50.0</ele><time>2026-05-02T10:22:36.14Z</time></trkpt><trkpt lat="47.7384967" lon="-2.1765067"><ele>50.0</ele><time>2026-05-02T10:22:37.139Z</time></trkpt><trkpt lat="47.7385433" lon="-2.17673"><ele>50.0</ele><time>2026-05-02T10:22:38.14Z</time></trkpt><trkpt lat="47.7386067" lon="-2.1769517"><ele>51.333333333333336</ele><time>2026-05-02T10:22:39.14Z</time></trkpt><trkpt lat="47.73868" lon="-2.1771767"><ele>52.66666666666667</ele><time>2026-05-02T10:22:40.139Z</time></trkpt><trkpt lat="47.738765" lon="-2.1774017"><ele>54.0</ele><time>2026-05-02T10:22:41.139Z</time></trkpt><trkpt lat="47.738855" lon="-2.17763"><ele>54.0</ele><time>2026-05-02T10:22:42.14Z</time></trkpt><trkpt lat="47.738945" lon="-2.1778533"><ele>54.0</ele><time>2026-05-02T10:22:43.139Z</time></trkpt><trkpt lat="47.7390333" lon="-2.178065"><ele>54.0</ele><time>2026-05-02T10:22:44.139Z</time></trkpt><trkpt lat="47.739115" lon="-2.17826"><ele>53.25</ele><time>2026-05-02T10:22:45.143Z</time></trkpt><trkpt lat="47.7391883" lon="-2.1784367"><ele>52.5</ele><time>2026-05-02T10:22:46.14Z</time></trkpt><trkpt lat="47.7392533" lon="-2.178595"><ele>51.75</ele><time>2026-05-02T10:22:47.14Z</time></trkpt><trkpt lat="47.7393083" lon="-2.1787483"><ele>51.0</ele><time>2026-05-02T10:22:48.14Z</time></trkpt><trkpt lat="47.7393617" lon="-2.1789067"><ele>52.5</ele><time>2026-05-02T10:22:49.14Z</time></trkpt><trkpt lat="47.7394133" lon="-2.1790817"><ele>54.0</ele><time>2026-05-02T10:22:50.14Z</time></trkpt><trkpt lat="47.739465" lon="-2.1792733"><ele>55.5</ele><time>2026-05-02T10:22:51.143Z</time></trkpt><trkpt lat="47.73952" lon="-2.179465"><ele>57.0</ele><time>2026-05-02T10:22:52.14Z</time></trkpt><trkpt lat="47.7395667" lon="-2.179655"><ele>57.0</ele><time>2026-05-02T10:22:53.14Z</time></trkpt><trkpt lat="47.7396133" lon="-2.1798233"><ele>57.0</ele><time>2026-05-02T10:22:54.141Z</time></trkpt><trkpt lat="47.7396533" lon="-2.179965"><ele>57.0</ele><time>2026-05-02T10:22:55.139Z</time></trkpt><trkpt lat="47.7396867" lon="-2.18008"><ele>57.0</ele><time>2026-05-02T10:22:56.14Z</time></trkpt><trkpt lat="47.7397117" lon="-2.1801717"><ele>57.0</ele><time>2026-05-02T10:22:57.14Z</time></trkpt><trkpt lat="47.7397417" lon="-2.1802783"><ele>56.6</ele><time>2026-05-02T10:22:59.14Z</time></trkpt><trkpt lat="47.73975" lon="-2.180415"><ele>56.2</ele><time>2026-05-02T10:23:01.139Z</time></trkpt><trkpt lat="47.73973" lon="-2.180615"><ele>55.8</ele><time>2026-05-02T10:23:03.14Z</time></trkpt><trkpt lat="47.739715" lon="-2.1807467"><ele>55.4</ele><time>2026-05-02T10:23:04.14Z</time></trkpt><trkpt lat="47.7397017" lon="-2.1808983"><ele>55.0</ele><time>2026-05-02T10:23:05.14Z</time></trkpt><trkpt lat="47.73969" lon="-2.1810583"><ele>54.5</ele><time>2026-05-02T10:23:06.139Z</time></trkpt><trkpt lat="47.73967" lon="-2.181225"><ele>54.0</ele><time>2026-05-02T10:23:07.143Z</time></trkpt><trkpt lat="47.7396483" lon="-2.1814"><ele>53.5</ele><time>2026-05-02T10:23:08.14Z</time></trkpt><trkpt lat="47.7396317" lon="-2.1815783"><ele>53.0</ele><time>2026-05-02T10:23:09.141Z</time></trkpt><trkpt lat="47.739625" lon="-2.18176"><ele>52.0</ele><time>2026-05-02T10:23:10.139Z</time></trkpt><trkpt lat="47.7396333" lon="-2.181955"><ele>51.0</ele><time>2026-05-02T10:23:11.139Z</time></trkpt><trkpt lat="47.7396483" lon="-2.18216"><ele>50.0</ele><time>2026-05-02T10:23:12.139Z</time></trkpt><trkpt lat="47.7396683" lon="-2.1823833"><ele>49.0</ele><time>2026-05-02T10:23:13.139Z</time></trkpt><trkpt lat="47.73969" lon="-2.18261"><ele>48.33333333333333</ele><time>2026-05-02T10:23:14.142Z</time></trkpt><trkpt lat="47.7397133" lon="-2.1828417"><ele>47.666666666666664</ele><time>2026-05-02T10:23:15.14Z</time></trkpt><trkpt lat="47.73974" lon="-2.18308"><ele>47.0</ele><time>2026-05-02T10:23:16.14Z</time></trkpt><trkpt lat="47.7397683" lon="-2.1833267"><ele>45.33333333333333</ele><time>2026-05-02T10:23:17.14Z</time></trkpt><trkpt lat="47.7397933" lon="-2.1835733"><ele>43.666666666666664</ele><time>2026-05-02T10:23:18.14Z</time></trkpt><trkpt lat="47.7398133" lon="-2.183825"><ele>42.0</ele><time>2026-05-02T10:23:19.139Z</time></trkpt><trkpt lat="47.73983" lon="-2.1840783"><ele>40.333333333333336</ele><time>2026-05-02T10:23:20.14Z</time></trkpt><trkpt lat="47.73984" lon="-2.184335"><ele>38.66666666666667</ele><time>2026-05-02T10:23:21.141Z</time></trkpt><trkpt lat="47.7398467" lon="-2.1845867"><ele>37.0</ele><time>2026-05-02T10:23:22.141Z</time></trkpt><trkpt lat="47.7398533" lon="-2.1848333"><ele>36.0</ele><time>2026-05-02T10:23:23.14Z</time></trkpt><trkpt lat="47.7398633" lon="-2.1850733"><ele>35.0</ele><time>2026-05-02T10:23:24.14Z</time></trkpt><trkpt lat="47.7398833" lon="-2.185325"><ele>34.0</ele><time>2026-05-02T10:23:25.14Z</time></trkpt><trkpt lat="47.7399183" lon="-2.1855833"><ele>33.0</ele><time>2026-05-02T10:23:26.139Z</time></trkpt><trkpt lat="47.73996" lon="-2.1858367"><ele>32.0</ele><time>2026-05-02T10:23:27.14Z</time></trkpt><trkpt lat="47.7400067" lon="-2.1861067"><ele>31.0</ele><time>2026-05-02T10:23:28.139Z</time></trkpt><trkpt lat="47.74006" lon="-2.1863817"><ele>30.666666666666668</ele><time>2026-05-02T10:23:29.139Z</time></trkpt><trkpt lat="47.7401117" lon="-2.186655"><ele>30.333333333333336</ele><time>2026-05-02T10:23:30.139Z</time></trkpt><trkpt lat="47.7401633" lon="-2.1869167"><ele>30.0</ele><time>2026-05-02T10:23:31.141Z</time></trkpt><trkpt lat="47.740215" lon="-2.1871717"><ele>29.666666666666664</ele><time>2026-05-02T10:23:32.139Z</time></trkpt><trkpt lat="47.7402617" lon="-2.187425"><ele>29.333333333333332</ele><time>2026-05-02T10:23:33.14Z</time></trkpt><trkpt lat="47.7402983" lon="-2.187675"><ele>29.0</ele><time>2026-05-02T10:23:34.139Z</time></trkpt><trkpt lat="47.7403233" lon="-2.1879383"><ele>28.666666666666664</ele><time>2026-05-02T10:23:35.139Z</time></trkpt><trkpt lat="47.74034" lon="-2.1882133"><ele>28.333333333333336</ele><time>2026-05-02T10:23:36.139Z</time></trkpt><trkpt lat="47.7403517" lon="-2.1884883"><ele>28.0</ele><time>2026-05-02T10:23:37.139Z</time></trkpt><trkpt lat="47.7403583" lon="-2.188755"><ele>28.0</ele><time>2026-05-02T10:23:38.139Z</time></trkpt><trkpt lat="47.7403633" lon="-2.1890083"><ele>28.0</ele><time>2026-05-02T10:23:39.14Z</time></trkpt><trkpt lat="47.74037" lon="-2.1892617"><ele>28.0</ele><time>2026-05-02T10:23:40.139Z</time></trkpt><trkpt lat="47.7403883" lon="-2.1895217"><ele>27.333333333333336</ele><time>2026-05-02T10:23:41.139Z</time></trkpt><trkpt lat="47.7404233" lon="-2.1897767"><ele>26.666666666666664</ele><time>2026-05-02T10:23:42.139Z</time></trkpt><trkpt lat="47.740465" lon="-2.1900367"><ele>26.0</ele><time>2026-05-02T10:23:43.145Z</time></trkpt><trkpt lat="47.7405067" lon="-2.1903"><ele>25.0</ele><time>2026-05-02T10:23:44.141Z</time></trkpt><trkpt lat="47.7405433" lon="-2.1905683"><ele>24.0</ele><time>2026-05-02T10:23:45.139Z</time></trkpt><trkpt lat="47.7405767" lon="-2.1908467"><ele>23.0</ele><time>2026-05-02T10:23:46.14Z</time></trkpt><trkpt lat="47.7406067" lon="-2.19113"><ele>22.666666666666668</ele><time>2026-05-02T10:23:47.14Z</time></trkpt><trkpt lat="47.74064" lon="-2.19142"><ele>22.333333333333332</ele><time>2026-05-02T10:23:48.14Z</time></trkpt><trkpt lat="47.74067" lon="-2.1917133"><ele>22.0</ele><time>2026-05-02T10:23:49.139Z</time></trkpt><trkpt lat="47.740695" lon="-2.1919983"><ele>22.0</ele><time>2026-05-02T10:23:50.142Z</time></trkpt><trkpt lat="47.7407167" lon="-2.1922617"><ele>22.0</ele><time>2026-05-02T10:23:51.14Z</time></trkpt><trkpt lat="47.7407383" lon="-2.192505"><ele>22.0</ele><time>2026-05-02T10:23:52.139Z</time></trkpt><trkpt lat="47.74076" lon="-2.1927317"><ele>21.333333333333332</ele><time>2026-05-02T10:23:53.14Z</time></trkpt><trkpt lat="47.740785" lon="-2.1929567"><ele>20.666666666666668</ele><time>2026-05-02T10:23:54.141Z</time></trkpt><trkpt lat="47.7408117" lon="-2.1931783"><ele>20.0</ele><time>2026-05-02T10:23:55.139Z</time></trkpt><trkpt lat="47.7408317" lon="-2.1933917"><ele>19.75</ele><time>2026-05-02T10:23:56.14Z</time></trkpt><trkpt lat="47.7408467" lon="-2.1935933"><ele>19.5</ele><time>2026-05-02T10:23:57.14Z</time></trkpt><trkpt lat="47.74085" lon="-2.19378"><ele>19.25</ele><time>2026-05-02T10:23:58.139Z</time></trkpt><trkpt lat="47.740845" lon="-2.19396"><ele>19.0</ele><time>2026-05-02T10:23:59.139Z</time></trkpt><trkpt lat="47.74083" lon="-2.1941233"><ele>19.4</ele><time>2026-05-02T10:24:00.139Z</time></trkpt><trkpt lat="47.7408067" lon="-2.1942683"><ele>19.799999999999997</ele><time>2026-05-02T10:24:01.141Z</time></trkpt><trkpt lat="47.7407867" lon="-2.1943917"><ele>20.200000000000003</ele><time>2026-05-02T10:24:02.139Z</time></trkpt><trkpt lat="47.7407683" lon="-2.1944867"><ele>20.6</ele><time>2026-05-02T10:24:03.141Z</time></trkpt><trkpt lat="47.74073" lon="-2.1946467"><ele>21.0</ele><time>2026-05-02T10:24:05.14Z</time></trkpt><trkpt lat="47.740705" lon="-2.194775"><ele>20.75</ele><time>2026-05-02T10:24:07.139Z</time></trkpt><trkpt lat="47.7406733" lon="-2.1949233"><ele>20.5</ele><time>2026-05-02T10:24:15.139Z</time></trkpt><trkpt lat="47.74066" lon="-2.195075"><ele>20.25</ele><time>2026-05-02T10:24:16.138Z</time></trkpt><trkpt lat="47.740645" lon="-2.1952867"><ele>20.0</ele><time>2026-05-02T10:24:17.139Z</time></trkpt><trkpt lat="47.7406317" lon="-2.1955"><ele>19.666666666666668</ele><time>2026-05-02T10:24:18.141Z</time></trkpt><trkpt lat="47.7406183" lon="-2.195725"><ele>19.333333333333332</ele><time>2026-05-02T10:24:19.139Z</time></trkpt><trkpt lat="47.7406067" lon="-2.195965"><ele>19.0</ele><time>2026-05-02T10:24:20.139Z</time></trkpt><trkpt lat="47.740595" lon="-2.19621"><ele>19.0</ele><time>2026-05-02T10:24:21.14Z</time></trkpt><trkpt lat="47.7405817" lon="-2.1964617"><ele>19.0</ele><time>2026-05-02T10:24:22.14Z</time></trkpt><trkpt lat="47.74058" lon="-2.196715"><ele>19.0</ele><time>2026-05-02T10:24:23.139Z</time></trkpt><trkpt lat="47.7405883" lon="-2.196975"><ele>19.333333333333332</ele><time>2026-05-02T10:24:24.138Z</time></trkpt><trkpt lat="47.7406133" lon="-2.1972267"><ele>19.666666666666668</ele><time>2026-05-02T10:24:25.139Z</time></trkpt><trkpt lat="47.7406417" lon="-2.1974683"><ele>20.0</ele><time>2026-05-02T10:24:26.139Z</time></trkpt><trkpt lat="47.74067" lon="-2.19771"><ele>20.333333333333336</ele><time>2026-05-02T10:24:27.139Z</time></trkpt><trkpt lat="47.7406967" lon="-2.1979533"><ele>20.666666666666668</ele><time>2026-05-02T10:24:28.14Z</time></trkpt><trkpt lat="47.74072" lon="-2.19821"><ele>21.0</ele><time>2026-05-02T10:24:29.139Z</time></trkpt><trkpt lat="47.74073" lon="-2.198465"><ele>21.0</ele><time>2026-05-02T10:24:30.139Z</time></trkpt><trkpt lat="47.7407367" lon="-2.1987267"><ele>21.0</ele><time>2026-05-02T10:24:31.139Z</time></trkpt><trkpt lat="47.740735" lon="-2.1989917"><ele>21.0</ele><time>2026-05-02T10:24:32.139Z</time></trkpt><trkpt lat="47.7407333" lon="-2.1992617"><ele>21.666666666666668</ele><time>2026-05-02T10:24:33.14Z</time></trkpt><trkpt lat="47.7407317" lon="-2.19954"><ele>22.333333333333336</ele><time>2026-05-02T10:24:34.144Z</time></trkpt><trkpt lat="47.74072" lon="-2.19982"><ele>23.0</ele><time>2026-05-02T10:24:35.139Z</time></trkpt><trkpt lat="47.740705" lon="-2.2000967"><ele>24.333333333333336</ele><time>2026-05-02T10:24:36.14Z</time></trkpt><trkpt lat="47.7406917" lon="-2.2003667"><ele>25.666666666666668</ele><time>2026-05-02T10:24:37.14Z</time></trkpt><trkpt lat="47.7406733" lon="-2.2006217"><ele>27.0</ele><time>2026-05-02T10:24:38.14Z</time></trkpt><trkpt lat="47.7406567" lon="-2.200865"><ele>28.333333333333336</ele><time>2026-05-02T10:24:39.139Z</time></trkpt><trkpt lat="47.7406367" lon="-2.2010983"><ele>29.666666666666668</ele><time>2026-05-02T10:24:40.139Z</time></trkpt><trkpt lat="47.7406183" lon="-2.2013233"><ele>31.0</ele><time>2026-05-02T10:24:41.14Z</time></trkpt><trkpt lat="47.74059" lon="-2.201535"><ele>31.5</ele><time>2026-05-02T10:24:42.14Z</time></trkpt><trkpt lat="47.7405467" lon="-2.20174"><ele>32.0</ele><time>2026-05-02T10:24:43.14Z</time></trkpt><trkpt lat="47.7405017" lon="-2.201945"><ele>32.5</ele><time>2026-05-02T10:24:44.139Z</time></trkpt><trkpt lat="47.7404617" lon="-2.2021533"><ele>33.0</ele><time>2026-05-02T10:24:45.14Z</time></trkpt><trkpt lat="47.7404333" lon="-2.2023433"><ele>33.8</ele><time>2026-05-02T10:24:46.14Z</time></trkpt><trkpt lat="47.7404167" lon="-2.2025167"><ele>34.599999999999994</ele><time>2026-05-02T10:24:47.139Z</time></trkpt><trkpt lat="47.7404033" lon="-2.2026717"><ele>35.400000000000006</ele><time>2026-05-02T10:24:48.143Z</time></trkpt><trkpt lat="47.7403933" lon="-2.202795"><ele>36.2</ele><time>2026-05-02T10:24:49.139Z</time></trkpt><trkpt lat="47.7403833" lon="-2.2029017"><ele>37.0</ele><time>2026-05-02T10:24:50.139Z</time></trkpt><trkpt lat="47.7403717" lon="-2.2030317"><ele>37.0</ele><time>2026-05-02T10:24:52.139Z</time></trkpt><trkpt lat="47.7403533" lon="-2.203135"><ele>37.0</ele><time>2026-05-02T10:24:55.141Z</time></trkpt><trkpt lat="47.7403583" lon="-2.2032433"><ele>37.0</ele><time>2026-05-02T10:24:59.14Z</time></trkpt><trkpt lat="47.7403917" lon="-2.203135"><ele>37.0</ele><time>2026-05-02T10:27:17.139Z</time></trkpt><trkpt lat="47.7403933" lon="-2.2030367"><ele>37.0</ele><time>2026-05-02T10:27:18.14Z</time></trkpt><trkpt lat="47.7403983" lon="-2.202935"><ele>37.0</ele><time>2026-05-02T10:27:19.14Z</time></trkpt><trkpt lat="47.740405" lon="-2.202825"><ele>37.0</ele><time>2026-05-02T10:27:20.14Z</time></trkpt><trkpt lat="47.7404117" lon="-2.2027033"><ele>37.0</ele><time>2026-05-02T10:27:21.14Z</time></trkpt><trkpt lat="47.74042" lon="-2.2025733"><ele>37.0</ele><time>2026-05-02T10:27:22.14Z</time></trkpt><trkpt lat="47.7404283" lon="-2.2024367"><ele>37.0</ele><time>2026-05-02T10:27:23.139Z</time></trkpt><trkpt lat="47.7404433" lon="-2.2022933"><ele>37.0</ele><time>2026-05-02T10:27:24.14Z</time></trkpt><trkpt lat="47.7404683" lon="-2.2021367"><ele>37.0</ele><time>2026-05-02T10:27:25.141Z</time></trkpt><trkpt lat="47.7405" lon="-2.2019733"><ele>36.0</ele><time>2026-05-02T10:27:26.14Z</time></trkpt><trkpt lat="47.7405317" lon="-2.2018067"><ele>35.0</ele><time>2026-05-02T10:27:27.141Z</time></trkpt><trkpt lat="47.7405633" lon="-2.2016333"><ele>34.0</ele><time>2026-05-02T10:27:28.141Z</time></trkpt><trkpt lat="47.74059" lon="-2.201445"><ele>33.0</ele><time>2026-05-02T10:27:29.14Z</time></trkpt><trkpt lat="47.7406083" lon="-2.20124"><ele>32.333333333333336</ele><time>2026-05-02T10:27:30.142Z</time></trkpt><trkpt lat="47.7406233" lon="-2.201025"><ele>31.666666666666668</ele><time>2026-05-02T10:27:31.141Z</time></trkpt><trkpt lat="47.7406367" lon="-2.2008017"><ele>31.0</ele><time>2026-05-02T10:27:32.14Z</time></trkpt><trkpt lat="47.7406517" lon="-2.2005733"><ele>29.666666666666668</ele><time>2026-05-02T10:27:33.142Z</time></trkpt><trkpt lat="47.7406667" lon="-2.2003383"><ele>28.333333333333336</ele><time>2026-05-02T10:27:34.14Z</time></trkpt><trkpt lat="47.7406783" lon="-2.200095"><ele>27.0</ele><time>2026-05-02T10:27:35.139Z</time></trkpt><trkpt lat="47.74069" lon="-2.1998483"><ele>25.666666666666668</ele><time>2026-05-02T10:27:36.143Z</time></trkpt><trkpt lat="47.7406983" lon="-2.1995967"><ele>24.333333333333336</ele><time>2026-05-02T10:27:37.14Z</time></trkpt><trkpt lat="47.7407033" lon="-2.1993417"><ele>23.0</ele><time>2026-05-02T10:27:38.141Z</time></trkpt><trkpt lat="47.74071" lon="-2.1990867"><ele>22.333333333333336</ele><time>2026-05-02T10:27:39.141Z</time></trkpt><trkpt lat="47.740715" lon="-2.1988333"><ele>21.666666666666668</ele><time>2026-05-02T10:27:40.141Z</time></trkpt><trkpt lat="47.7407117" lon="-2.1985833"><ele>21.0</ele><time>2026-05-02T10:27:41.14Z</time></trkpt><trkpt lat="47.740705" lon="-2.198335"><ele>21.0</ele><time>2026-05-02T10:27:42.141Z</time></trkpt><trkpt lat="47.7406883" lon="-2.1980933"><ele>21.0</ele><time>2026-05-02T10:27:43.141Z</time></trkpt><trkpt lat="47.7406633" lon="-2.1978583"><ele>21.0</ele><time>2026-05-02T10:27:44.142Z</time></trkpt><trkpt lat="47.74063" lon="-2.1976267"><ele>21.0</ele><time>2026-05-02T10:27:45.143Z</time></trkpt><trkpt lat="47.7405983" lon="-2.1974"><ele>21.0</ele><time>2026-05-02T10:27:46.142Z</time></trkpt><trkpt lat="47.7405683" lon="-2.1971783"><ele>21.0</ele><time>2026-05-02T10:27:47.141Z</time></trkpt><trkpt lat="47.7405483" lon="-2.1969617"><ele>20.666666666666668</ele><time>2026-05-02T10:27:48.14Z</time></trkpt><trkpt lat="47.74054" lon="-2.1967367"><ele>20.333333333333336</ele><time>2026-05-02T10:27:49.14Z</time></trkpt><trkpt lat="47.7405383" lon="-2.1965033"><ele>20.0</ele><time>2026-05-02T10:27:50.141Z</time></trkpt><trkpt lat="47.7405483" lon="-2.1962683"><ele>20.0</ele><time>2026-05-02T10:27:51.142Z</time></trkpt><trkpt lat="47.7405567" lon="-2.1960417"><ele>20.0</ele><time>2026-05-02T10:27:52.141Z</time></trkpt><trkpt lat="47.74057" lon="-2.195825"><ele>20.0</ele><time>2026-05-02T10:27:53.141Z</time></trkpt><trkpt lat="47.740585" lon="-2.1956217"><ele>20.0</ele><time>2026-05-02T10:27:54.142Z</time></trkpt><trkpt lat="47.740595" lon="-2.1954333"><ele>20.0</ele><time>2026-05-02T10:27:55.141Z</time></trkpt><trkpt lat="47.7406117" lon="-2.1952617"><ele>20.0</ele><time>2026-05-02T10:27:56.141Z</time></trkpt><trkpt lat="47.7406267" lon="-2.19511"><ele>20.0</ele><time>2026-05-02T10:27:57.141Z</time></trkpt><trkpt lat="47.7406467" lon="-2.194985"><ele>20.0</ele><time>2026-05-02T10:27:58.141Z</time></trkpt><trkpt lat="47.7406617" lon="-2.194885"><ele>20.0</ele><time>2026-05-02T10:27:59.141Z</time></trkpt><trkpt lat="47.7406933" lon="-2.19475"><ele>20.2</ele><time>2026-05-02T10:28:01.142Z</time></trkpt><trkpt lat="47.7407467" lon="-2.1946783"><ele>20.4</ele><time>2026-05-02T10:28:03.14Z</time></trkpt><trkpt lat="47.7408417" lon="-2.1947017"><ele>20.6</ele><time>2026-05-02T10:28:06.142Z</time></trkpt><trkpt lat="47.7409717" lon="-2.19472"><ele>20.8</ele><time>2026-05-02T10:28:08.14Z</time></trkpt><trkpt lat="47.74107" lon="-2.194735"><ele>21.0</ele><time>2026-05-02T10:28:09.141Z</time></trkpt><trkpt lat="47.7411867" lon="-2.1947533"><ele>21.5</ele><time>2026-05-02T10:28:10.141Z</time></trkpt><trkpt lat="47.7413183" lon="-2.194775"><ele>22.0</ele><time>2026-05-02T10:28:11.139Z</time></trkpt><trkpt lat="47.7414633" lon="-2.1948"><ele>22.5</ele><time>2026-05-02T10:28:12.139Z</time></trkpt><trkpt lat="47.7416117" lon="-2.1948267"><ele>23.0</ele><time>2026-05-02T10:28:13.139Z</time></trkpt><trkpt lat="47.7417467" lon="-2.1948483"><ele>23.25</ele><time>2026-05-02T10:28:14.139Z</time></trkpt><trkpt lat="47.7418733" lon="-2.194855"><ele>23.5</ele><time>2026-05-02T10:28:15.14Z</time></trkpt><trkpt lat="47.741995" lon="-2.1948417"><ele>23.75</ele><time>2026-05-02T10:28:16.141Z</time></trkpt><trkpt lat="47.742105" lon="-2.1948083"><ele>24.0</ele><time>2026-05-02T10:28:17.139Z</time></trkpt><trkpt lat="47.7422033" lon="-2.1947617"><ele>24.0</ele><time>2026-05-02T10:28:18.14Z</time></trkpt><trkpt lat="47.7423083" lon="-2.194705"><ele>24.0</ele><time>2026-05-02T10:28:19.139Z</time></trkpt><trkpt lat="47.7424217" lon="-2.1946317"><ele>24.0</ele><time>2026-05-02T10:28:20.139Z</time></trkpt><trkpt lat="47.7425333" lon="-2.1945483"><ele>24.0</ele><time>2026-05-02T10:28:21.139Z</time></trkpt><trkpt lat="47.742645" lon="-2.1944617"><ele>24.75</ele><time>2026-05-02T10:28:22.14Z</time></trkpt><trkpt lat="47.7427667" lon="-2.1943683"><ele>25.5</ele><time>2026-05-02T10:28:23.14Z</time></trkpt><trkpt lat="47.7428933" lon="-2.19427"><ele>26.25</ele><time>2026-05-02T10:28:24.139Z</time></trkpt><trkpt lat="47.743025" lon="-2.1941733"><ele>27.0</ele><time>2026-05-02T10:28:25.141Z</time></trkpt><trkpt lat="47.7431667" lon="-2.1940667"><ele>26.666666666666664</ele><time>2026-05-02T10:28:26.142Z</time></trkpt><trkpt lat="47.7433" lon="-2.19396"><ele>26.333333333333332</ele><time>2026-05-02T10:28:27.14Z</time></trkpt><trkpt lat="47.7434467" lon="-2.193845"><ele>26.0</ele><time>2026-05-02T10:28:28.139Z</time></trkpt><trkpt lat="47.7435983" lon="-2.193735"><ele>28.0</ele><time>2026-05-02T10:28:29.139Z</time></trkpt><trkpt lat="47.74375" lon="-2.1936267"><ele>30.0</ele><time>2026-05-02T10:28:30.142Z</time></trkpt><trkpt lat="47.7439067" lon="-2.193515"><ele>32.0</ele><time>2026-05-02T10:28:31.138Z</time></trkpt><trkpt lat="47.7440617" lon="-2.1934033"><ele>32.0</ele><time>2026-05-02T10:28:32.139Z</time></trkpt><trkpt lat="47.7442033" lon="-2.1932917"><ele>32.0</ele><time>2026-05-02T10:28:33.141Z</time></trkpt><trkpt lat="47.7443367" lon="-2.1931783"><ele>32.0</ele><time>2026-05-02T10:28:34.139Z</time></trkpt><trkpt lat="47.74446" lon="-2.1930817"><ele>34.25</ele><time>2026-05-02T10:28:35.139Z</time></trkpt><trkpt lat="47.7445733" lon="-2.1929867"><ele>36.5</ele><time>2026-05-02T10:28:36.139Z</time></trkpt><trkpt lat="47.7446717" lon="-2.1929017"><ele>38.75</ele><time>2026-05-02T10:28:37.139Z</time></trkpt><trkpt lat="47.7447583" lon="-2.1928117"><ele>41.0</ele><time>2026-05-02T10:28:38.139Z</time></trkpt><trkpt lat="47.7448317" lon="-2.1927"><ele>41.0</ele><time>2026-05-02T10:28:39.138Z</time></trkpt><trkpt lat="47.744895" lon="-2.19256"><ele>41.0</ele><time>2026-05-02T10:28:40.14Z</time></trkpt><trkpt lat="47.7449517" lon="-2.1923933"><ele>41.0</ele><time>2026-05-02T10:28:41.139Z</time></trkpt><trkpt lat="47.7450067" lon="-2.1922067"><ele>41.0</ele><time>2026-05-02T10:28:42.142Z</time></trkpt><trkpt lat="47.74506" lon="-2.19199"><ele>41.33333333333333</ele><time>2026-05-02T10:28:43.139Z</time></trkpt><trkpt lat="47.7451117" lon="-2.1917633"><ele>41.666666666666664</ele><time>2026-05-02T10:28:44.139Z</time></trkpt><trkpt lat="47.7451533" lon="-2.1915483"><ele>42.0</ele><time>2026-05-02T10:28:45.14Z</time></trkpt><trkpt lat="47.7452033" lon="-2.191345"><ele>44.5</ele><time>2026-05-02T10:28:46.139Z</time></trkpt><trkpt lat="47.7452583" lon="-2.19116"><ele>47.0</ele><time>2026-05-02T10:28:47.139Z</time></trkpt><trkpt lat="47.74532" lon="-2.191005"><ele>49.5</ele><time>2026-05-02T10:28:48.139Z</time></trkpt><trkpt lat="47.7453933" lon="-2.19086"><ele>52.0</ele><time>2026-05-02T10:28:49.139Z</time></trkpt><trkpt lat="47.7454867" lon="-2.190735"><ele>52.0</ele><time>2026-05-02T10:28:50.139Z</time></trkpt><trkpt lat="47.7456017" lon="-2.19062"><ele>52.0</ele><time>2026-05-02T10:28:51.14Z</time></trkpt><trkpt lat="47.7457317" lon="-2.1905133"><ele>52.0</ele><time>2026-05-02T10:28:52.14Z</time></trkpt><trkpt lat="47.7458733" lon="-2.19039"><ele>52.0</ele><time>2026-05-02T10:28:53.141Z</time></trkpt><trkpt lat="47.746025" lon="-2.1902667"><ele>52.0</ele><time>2026-05-02T10:28:54.139Z</time></trkpt><trkpt lat="47.746185" lon="-2.1901433"><ele>52.0</ele><time>2026-05-02T10:28:55.14Z</time></trkpt><trkpt lat="47.74636" lon="-2.1900033"><ele>55.0</ele><time>2026-05-02T10:28:56.14Z</time></trkpt><trkpt lat="47.7465367" lon="-2.1898567"><ele>58.0</ele><time>2026-05-02T10:28:57.14Z</time></trkpt><trkpt lat="47.7467067" lon="-2.1897133"><ele>61.0</ele><time>2026-05-02T10:28:58.142Z</time></trkpt><trkpt lat="47.74686" lon="-2.189575"><ele>62.0</ele><time>2026-05-02T10:28:59.139Z</time></trkpt><trkpt lat="47.7470183" lon="-2.1894417"><ele>63.0</ele><time>2026-05-02T10:29:00.143Z</time></trkpt><trkpt lat="47.74717" lon="-2.1893067"><ele>64.0</ele><time>2026-05-02T10:29:01.14Z</time></trkpt><trkpt lat="47.7473267" lon="-2.1891783"><ele>64.0</ele><time>2026-05-02T10:29:02.139Z</time></trkpt><trkpt lat="47.7474733" lon="-2.1890617"><ele>64.0</ele><time>2026-05-02T10:29:03.14Z</time></trkpt><trkpt lat="47.7476083" lon="-2.188955"><ele>64.0</ele><time>2026-05-02T10:29:04.14Z</time></trkpt><trkpt lat="47.74773" lon="-2.1888517"><ele>63.5</ele><time>2026-05-02T10:29:05.141Z</time></trkpt><trkpt lat="47.7478533" lon="-2.18875"><ele>63.0</ele><time>2026-05-02T10:29:06.14Z</time></trkpt><trkpt lat="47.7479667" lon="-2.1886517"><ele>62.5</ele><time>2026-05-02T10:29:07.141Z</time></trkpt><trkpt lat="47.7480667" lon="-2.1885633"><ele>62.0</ele><time>2026-05-02T10:29:08.14Z</time></trkpt><trkpt lat="47.748165" lon="-2.1884883"><ele>62.0</ele><time>2026-05-02T10:29:09.14Z</time></trkpt><trkpt lat="47.748265" lon="-2.1884367"><ele>62.0</ele><time>2026-05-02T10:29:10.141Z</time></trkpt><trkpt lat="47.7483733" lon="-2.1883933"><ele>62.0</ele><time>2026-05-02T10:29:11.14Z</time></trkpt><trkpt lat="47.7484933" lon="-2.18837"><ele>62.0</ele><time>2026-05-02T10:29:12.14Z</time></trkpt><trkpt lat="47.74862" lon="-2.1883633"><ele>61.0</ele><time>2026-05-02T10:29:13.141Z</time></trkpt><trkpt lat="47.7487433" lon="-2.1883667"><ele>60.0</ele><time>2026-05-02T10:29:14.14Z</time></trkpt><trkpt lat="47.7488683" lon="-2.1883717"><ele>59.0</ele><time>2026-05-02T10:29:15.14Z</time></trkpt><trkpt lat="47.74899" lon="-2.1883783"><ele>58.0</ele><time>2026-05-02T10:29:16.146Z</time></trkpt><trkpt lat="47.7491033" lon="-2.1883833"><ele>58.0</ele><time>2026-05-02T10:29:17.141Z</time></trkpt><trkpt lat="47.7492133" lon="-2.1883917"><ele>58.0</ele><time>2026-05-02T10:29:18.14Z</time></trkpt><trkpt lat="47.7493117" lon="-2.18839"><ele>58.0</ele><time>2026-05-02T10:29:19.14Z</time></trkpt><trkpt lat="47.7494033" lon="-2.188395"><ele>58.0</ele><time>2026-05-02T10:29:20.14Z</time></trkpt><trkpt lat="47.749485" lon="-2.1884067"><ele>58.0</ele><time>2026-05-02T10:29:21.14Z</time></trkpt><trkpt lat="47.749585" lon="-2.1884217"><ele>57.599999999999994</ele><time>2026-05-02T10:29:23.14Z</time></trkpt><trkpt lat="47.7496467" lon="-2.1884783"><ele>57.199999999999996</ele><time>2026-05-02T10:29:42.139Z</time></trkpt><trkpt lat="47.7496833" lon="-2.1886667"><ele>56.8</ele><time>2026-05-02T10:29:44.14Z</time></trkpt><trkpt lat="47.7496967" lon="-2.1888"><ele>56.4</ele><time>2026-05-02T10:29:45.14Z</time></trkpt><trkpt lat="47.7497133" lon="-2.1889667"><ele>56.0</ele><time>2026-05-02T10:29:46.139Z</time></trkpt><trkpt lat="47.7497333" lon="-2.189155"><ele>56.0</ele><time>2026-05-02T10:29:47.141Z</time></trkpt><trkpt lat="47.7497533" lon="-2.18936"><ele>56.0</ele><time>2026-05-02T10:29:48.141Z</time></trkpt><trkpt lat="47.749775" lon="-2.1895867"><ele>56.0</ele><time>2026-05-02T10:29:49.14Z</time></trkpt><trkpt lat="47.7498" lon="-2.1898317"><ele>56.0</ele><time>2026-05-02T10:29:50.14Z</time></trkpt><trkpt lat="47.7498233" lon="-2.19009"><ele>56.0</ele><time>2026-05-02T10:29:51.14Z</time></trkpt><trkpt lat="47.7498483" lon="-2.1903683"><ele>56.0</ele><time>2026-05-02T10:29:52.141Z</time></trkpt><trkpt lat="47.7498733" lon="-2.1906767"><ele>54.0</ele><time>2026-05-02T10:29:53.14Z</time></trkpt><trkpt lat="47.7498967" lon="-2.1910083"><ele>52.0</ele><time>2026-05-02T10:29:54.14Z</time></trkpt><trkpt lat="47.7499167" lon="-2.1913617"><ele>51.0</ele><time>2026-05-02T10:29:55.141Z</time></trkpt><trkpt lat="47.7499417" lon="-2.1917333"><ele>50.0</ele><time>2026-05-02T10:29:56.139Z</time></trkpt><trkpt lat="47.7499683" lon="-2.1921167"><ele>50.0</ele><time>2026-05-02T10:29:57.14Z</time></trkpt><trkpt lat="47.7499983" lon="-2.1924983"><ele>50.0</ele><time>2026-05-02T10:29:58.14Z</time></trkpt><trkpt lat="47.7500317" lon="-2.1928717"><ele>51.0</ele><time>2026-05-02T10:29:59.141Z</time></trkpt><trkpt lat="47.7500633" lon="-2.1932467"><ele>52.0</ele><time>2026-05-02T10:30:00.14Z</time></trkpt><trkpt lat="47.750095" lon="-2.1936217"><ele>52.0</ele><time>2026-05-02T10:30:01.142Z</time></trkpt><trkpt lat="47.750125" lon="-2.1939867"><ele>52.0</ele><time>2026-05-02T10:30:02.14Z</time></trkpt><trkpt lat="47.75015" lon="-2.1943483"><ele>52.0</ele><time>2026-05-02T10:30:03.14Z</time></trkpt><trkpt lat="47.75018" lon="-2.1947117"><ele>52.0</ele><time>2026-05-02T10:30:04.14Z</time></trkpt><trkpt lat="47.7502117" lon="-2.1950717"><ele>49.5</ele><time>2026-05-02T10:30:05.142Z</time></trkpt><trkpt lat="47.7502467" lon="-2.19543"><ele>47.0</ele><time>2026-05-02T10:30:06.14Z</time></trkpt><trkpt lat="47.7502833" lon="-2.1957817"><ele>47.0</ele><time>2026-05-02T10:30:07.143Z</time></trkpt><trkpt lat="47.75032" lon="-2.1961317"><ele>47.0</ele><time>2026-05-02T10:30:08.14Z</time></trkpt><trkpt lat="47.75036" lon="-2.196475"><ele>47.5</ele><time>2026-05-02T10:30:09.14Z</time></trkpt><trkpt lat="47.7504067" lon="-2.1968083"><ele>48.0</ele><time>2026-05-02T10:30:10.139Z</time></trkpt><trkpt lat="47.7504617" lon="-2.1971383"><ele>48.5</ele><time>2026-05-02T10:30:11.14Z</time></trkpt><trkpt lat="47.7505217" lon="-2.1974667"><ele>49.0</ele><time>2026-05-02T10:30:12.141Z</time></trkpt><trkpt lat="47.7505883" lon="-2.1977933"><ele>49.0</ele><time>2026-05-02T10:30:13.141Z</time></trkpt><trkpt lat="47.75064" lon="-2.1981183"><ele>49.0</ele><time>2026-05-02T10:30:14.14Z</time></trkpt><trkpt lat="47.7506867" lon="-2.1984367"><ele>49.0</ele><time>2026-05-02T10:30:15.139Z</time></trkpt><trkpt lat="47.7507183" lon="-2.1987433"><ele>49.0</ele><time>2026-05-02T10:30:16.139Z</time></trkpt><trkpt lat="47.7507333" lon="-2.199045"><ele>49.0</ele><time>2026-05-02T10:30:17.141Z</time></trkpt><trkpt lat="47.7507283" lon="-2.1993433"><ele>49.0</ele><time>2026-05-02T10:30:18.141Z</time></trkpt><trkpt lat="47.7507067" lon="-2.199635"><ele>50.33333333333333</ele><time>2026-05-02T10:30:19.14Z</time></trkpt><trkpt lat="47.7506683" lon="-2.1999233"><ele>51.66666666666667</ele><time>2026-05-02T10:30:20.14Z</time></trkpt><trkpt lat="47.75062" lon="-2.2002017"><ele>53.0</ele><time>2026-05-02T10:30:21.14Z</time></trkpt><trkpt lat="47.7505517" lon="-2.2004733"><ele>54.66666666666667</ele><time>2026-05-02T10:30:22.141Z</time></trkpt><trkpt lat="47.7504683" lon="-2.2007383"><ele>56.33333333333333</ele><time>2026-05-02T10:30:23.139Z</time></trkpt><trkpt lat="47.750365" lon="-2.200995"><ele>58.0</ele><time>2026-05-02T10:30:24.139Z</time></trkpt><trkpt lat="47.75025" lon="-2.2012417"><ele>59.0</ele><time>2026-05-02T10:30:25.141Z</time></trkpt><trkpt lat="47.7501233" lon="-2.2014833"><ele>60.0</ele><time>2026-05-02T10:30:26.14Z</time></trkpt><trkpt lat="47.749985" lon="-2.2017283"><ele>61.0</ele><time>2026-05-02T10:30:27.143Z</time></trkpt><trkpt lat="47.749845" lon="-2.2019783"><ele>61.0</ele><time>2026-05-02T10:30:28.139Z</time></trkpt><trkpt lat="47.7497067" lon="-2.2022317"><ele>61.0</ele><time>2026-05-02T10:30:29.14Z</time></trkpt><trkpt lat="47.7495733" lon="-2.2024817"><ele>61.0</ele><time>2026-05-02T10:30:30.14Z</time></trkpt><trkpt lat="47.7494417" lon="-2.2027267"><ele>61.0</ele><time>2026-05-02T10:30:31.14Z</time></trkpt><trkpt lat="47.749305" lon="-2.2029683"><ele>61.0</ele><time>2026-05-02T10:30:32.14Z</time></trkpt><trkpt lat="47.74917" lon="-2.203205"><ele>61.0</ele><time>2026-05-02T10:30:33.14Z</time></trkpt><trkpt lat="47.74904" lon="-2.2034317"><ele>61.0</ele><time>2026-05-02T10:30:34.139Z</time></trkpt><trkpt lat="47.7489117" lon="-2.203655"><ele>61.0</ele><time>2026-05-02T10:30:35.14Z</time></trkpt><trkpt lat="47.7487883" lon="-2.203875"><ele>61.0</ele><time>2026-05-02T10:30:36.141Z</time></trkpt><trkpt lat="47.7486617" lon="-2.2040967"><ele>57.33333333333333</ele><time>2026-05-02T10:30:37.142Z</time></trkpt><trkpt lat="47.7485333" lon="-2.20432"><ele>53.66666666666667</ele><time>2026-05-02T10:30:38.14Z</time></trkpt><trkpt lat="47.748405" lon="-2.20454"><ele>50.0</ele><time>2026-05-02T10:30:39.14Z</time></trkpt><trkpt lat="47.7482833" lon="-2.20476"><ele>49.66666666666667</ele><time>2026-05-02T10:30:40.14Z</time></trkpt><trkpt lat="47.748165" lon="-2.2049767"><ele>49.33333333333333</ele><time>2026-05-02T10:30:41.142Z</time></trkpt><trkpt lat="47.7480517" lon="-2.2051933"><ele>49.0</ele><time>2026-05-02T10:30:42.139Z</time></trkpt><trkpt lat="47.7479417" lon="-2.20541"><ele>49.0</ele><time>2026-05-02T10:30:43.139Z</time></trkpt><trkpt lat="47.7478433" lon="-2.2056217"><ele>49.0</ele><time>2026-05-02T10:30:44.14Z</time></trkpt><trkpt lat="47.7477533" lon="-2.20583"><ele>49.0</ele><time>2026-05-02T10:30:45.14Z</time></trkpt><trkpt lat="47.7476733" lon="-2.2060317"><ele>48.5</ele><time>2026-05-02T10:30:46.142Z</time></trkpt><trkpt lat="47.7476033" lon="-2.20623"><ele>48.0</ele><time>2026-05-02T10:30:47.141Z</time></trkpt><trkpt lat="47.74754" lon="-2.206425"><ele>47.5</ele><time>2026-05-02T10:30:48.139Z</time></trkpt><trkpt lat="47.7474833" lon="-2.2066133"><ele>47.0</ele><time>2026-05-02T10:30:49.139Z</time></trkpt><trkpt lat="47.7474283" lon="-2.206795"><ele>46.5</ele><time>2026-05-02T10:30:50.14Z</time></trkpt><trkpt lat="47.7473817" lon="-2.2069667"><ele>46.0</ele><time>2026-05-02T10:30:51.14Z</time></trkpt><trkpt lat="47.74734" lon="-2.2071333"><ele>45.5</ele><time>2026-05-02T10:30:52.14Z</time></trkpt><trkpt lat="47.7473033" lon="-2.2072917"><ele>45.0</ele><time>2026-05-02T10:30:53.139Z</time></trkpt><trkpt lat="47.747275" lon="-2.207435"><ele>44.666666666666664</ele><time>2026-05-02T10:30:54.139Z</time></trkpt><trkpt lat="47.7472517" lon="-2.2075533"><ele>44.333333333333336</ele><time>2026-05-02T10:30:55.139Z</time></trkpt><trkpt lat="47.7472317" lon="-2.2076467"><ele>44.0</ele><time>2026-05-02T10:30:56.139Z</time></trkpt><trkpt lat="47.7471917" lon="-2.2077933"><ele>43.66666666666667</ele><time>2026-05-02T10:30:58.139Z</time></trkpt><trkpt lat="47.7470933" lon="-2.20789"><ele>43.333333333333336</ele><time>2026-05-02T10:31:00.139Z</time></trkpt><trkpt lat="47.7470317" lon="-2.20795"><ele>43.0</ele><time>2026-05-02T10:31:01.141Z</time></trkpt><trkpt lat="47.7469733" lon="-2.2080333"><ele>43.0</ele><time>2026-05-02T10:31:02.14Z</time></trkpt><trkpt lat="47.7469233" lon="-2.208135"><ele>43.0</ele><time>2026-05-02T10:31:03.14Z</time></trkpt><trkpt lat="47.7468767" lon="-2.2082433"><ele>43.0</ele><time>2026-05-02T10:31:04.14Z</time></trkpt><trkpt lat="47.7468317" lon="-2.2083517"><ele>43.0</ele><time>2026-05-02T10:31:05.14Z</time></trkpt><trkpt lat="47.74679" lon="-2.2084533"><ele>43.0</ele><time>2026-05-02T10:31:06.138Z</time></trkpt><trkpt lat="47.7467483" lon="-2.2085433"><ele>43.0</ele><time>2026-05-02T10:31:07.139Z</time></trkpt><trkpt lat="47.74671" lon="-2.2086233"><ele>42.66666666666667</ele><time>2026-05-02T10:31:08.139Z</time></trkpt><trkpt lat="47.7466517" lon="-2.2087483"><ele>42.333333333333336</ele><time>2026-05-02T10:31:10.139Z</time></trkpt><trkpt lat="47.7466067" lon="-2.20883"><ele>42.0</ele><time>2026-05-02T10:31:13.14Z</time></trkpt><trkpt lat="47.746555" lon="-2.2089333"><ele>41.666666666666664</ele><time>2026-05-02T10:31:23.139Z</time></trkpt><trkpt lat="47.7465567" lon="-2.2088133"><ele>41.33333333333333</ele><time>2026-05-02T10:31:27.139Z</time></trkpt><trkpt lat="47.7466317" lon="-2.2087183"><ele>41.0</ele><time>2026-05-02T10:31:29.142Z</time></trkpt><trkpt lat="47.7466767" lon="-2.2086383"><ele>41.0</ele><time>2026-05-02T10:31:30.14Z</time></trkpt><trkpt lat="47.746725" lon="-2.208525"><ele>41.0</ele><time>2026-05-02T10:31:31.14Z</time></trkpt><trkpt lat="47.7467783" lon="-2.2084017"><ele>41.0</ele><time>2026-05-02T10:31:32.14Z</time></trkpt><trkpt lat="47.7468333" lon="-2.2082767"><ele>41.0</ele><time>2026-05-02T10:31:33.141Z</time></trkpt><trkpt lat="47.7468867" lon="-2.2081583"><ele>41.0</ele><time>2026-05-02T10:31:34.14Z</time></trkpt><trkpt lat="47.7469333" lon="-2.2080533"><ele>41.4</ele><time>2026-05-02T10:31:35.14Z</time></trkpt><trkpt lat="47.746975" lon="-2.2079683"><ele>41.8</ele><time>2026-05-02T10:31:36.142Z</time></trkpt><trkpt lat="47.747055" lon="-2.2078533"><ele>42.199999999999996</ele><time>2026-05-02T10:31:38.14Z</time></trkpt><trkpt lat="47.7471283" lon="-2.207825"><ele>42.599999999999994</ele><time>2026-05-02T10:31:40.14Z</time></trkpt><trkpt lat="47.7471867" lon="-2.2079467"><ele>43.0</ele><time>2026-05-02T10:31:43.139Z</time></trkpt><trkpt lat="47.74716" lon="-2.2081417"><ele>42.25</ele><time>2026-05-02T10:31:45.139Z</time></trkpt><trkpt lat="47.74713" lon="-2.20826"><ele>41.5</ele><time>2026-05-02T10:31:46.139Z</time></trkpt><trkpt lat="47.7470983" lon="-2.208405"><ele>40.75</ele><time>2026-05-02T10:31:47.14Z</time></trkpt><trkpt lat="47.7470617" lon="-2.2085867"><ele>40.0</ele><time>2026-05-02T10:31:48.139Z</time></trkpt><trkpt lat="47.7470233" lon="-2.2087967"><ele>39.333333333333336</ele><time>2026-05-02T10:31:49.139Z</time></trkpt><trkpt lat="47.7469867" lon="-2.2090217"><ele>38.666666666666664</ele><time>2026-05-02T10:31:50.142Z</time></trkpt><trkpt lat="47.7469467" lon="-2.2092583"><ele>38.0</ele><time>2026-05-02T10:31:51.14Z</time></trkpt><trkpt lat="47.7469067" lon="-2.209505"><ele>38.33333333333333</ele><time>2026-05-02T10:31:52.14Z</time></trkpt><trkpt lat="47.74687" lon="-2.2097633"><ele>38.666666666666664</ele><time>2026-05-02T10:31:53.138Z</time></trkpt><trkpt lat="47.746835" lon="-2.2100317"><ele>39.0</ele><time>2026-05-02T10:31:54.141Z</time></trkpt><trkpt lat="47.746805" lon="-2.2103083"><ele>38.333333333333336</ele><time>2026-05-02T10:31:55.139Z</time></trkpt><trkpt lat="47.746775" lon="-2.2105933"><ele>37.66666666666667</ele><time>2026-05-02T10:31:56.139Z</time></trkpt><trkpt lat="47.74675" lon="-2.210875"><ele>37.0</ele><time>2026-05-02T10:31:57.14Z</time></trkpt><trkpt lat="47.7467267" lon="-2.2111583"><ele>36.0</ele><time>2026-05-02T10:31:58.139Z</time></trkpt><trkpt lat="47.7467017" lon="-2.21144"><ele>35.0</ele><time>2026-05-02T10:31:59.139Z</time></trkpt><trkpt lat="47.7466767" lon="-2.2117183"><ele>34.0</ele><time>2026-05-02T10:32:00.14Z</time></trkpt><trkpt lat="47.7466483" lon="-2.211995"><ele>32.66666666666667</ele><time>2026-05-02T10:32:01.14Z</time></trkpt><trkpt lat="47.7466217" lon="-2.2122817"><ele>31.333333333333336</ele><time>2026-05-02T10:32:02.14Z</time></trkpt><trkpt lat="47.7465933" lon="-2.2125733"><ele>30.0</ele><time>2026-05-02T10:32:03.139Z</time></trkpt><trkpt lat="47.746565" lon="-2.21287"><ele>29.666666666666664</ele><time>2026-05-02T10:32:04.138Z</time></trkpt><trkpt lat="47.7465333" lon="-2.2131733"><ele>29.333333333333332</ele><time>2026-05-02T10:32:05.139Z</time></trkpt><trkpt lat="47.7465017" lon="-2.2134783"><ele>29.0</ele><time>2026-05-02T10:32:06.139Z</time></trkpt><trkpt lat="47.7464717" lon="-2.213795"><ele>28.0</ele><time>2026-05-02T10:32:07.138Z</time></trkpt><trkpt lat="47.74644" lon="-2.2141167"><ele>27.0</ele><time>2026-05-02T10:32:08.139Z</time></trkpt><trkpt lat="47.7464067" lon="-2.2144483"><ele>26.0</ele><time>2026-05-02T10:32:09.14Z</time></trkpt><trkpt lat="47.7463717" lon="-2.2147883"><ele>26.0</ele><time>2026-05-02T10:32:10.14Z</time></trkpt><trkpt lat="47.7463383" lon="-2.215135"><ele>26.0</ele><time>2026-05-02T10:32:11.139Z</time></trkpt><trkpt lat="47.7463083" lon="-2.2154817"><ele>25.5</ele><time>2026-05-02T10:32:12.139Z</time></trkpt><trkpt lat="47.7462767" lon="-2.2158233"><ele>25.0</ele><time>2026-05-02T10:32:13.14Z</time></trkpt><trkpt lat="47.7462417" lon="-2.2161533"><ele>25.0</ele><time>2026-05-02T10:32:14.14Z</time></trkpt><trkpt lat="47.7462083" lon="-2.2164783"><ele>25.0</ele><time>2026-05-02T10:32:15.141Z</time></trkpt><trkpt lat="47.7461767" lon="-2.2168"><ele>25.0</ele><time>2026-05-02T10:32:16.139Z</time></trkpt><trkpt lat="47.7461483" lon="-2.21711"><ele>24.0</ele><time>2026-05-02T10:32:17.14Z</time></trkpt><trkpt lat="47.7461167" lon="-2.21741"><ele>23.0</ele><time>2026-05-02T10:32:18.139Z</time></trkpt><trkpt lat="47.7460783" lon="-2.21771"><ele>22.0</ele><time>2026-05-02T10:32:19.14Z</time></trkpt><trkpt lat="47.74603" lon="-2.21801"><ele>21.666666666666664</ele><time>2026-05-02T10:32:20.139Z</time></trkpt><trkpt lat="47.74597" lon="-2.2183067"><ele>21.333333333333332</ele><time>2026-05-02T10:32:21.141Z</time></trkpt><trkpt lat="47.7458983" lon="-2.2186"><ele>21.0</ele><time>2026-05-02T10:32:22.14Z</time></trkpt><trkpt lat="47.745815" lon="-2.218895"><ele>20.666666666666668</ele><time>2026-05-02T10:32:23.139Z</time></trkpt><trkpt lat="47.74572" lon="-2.2191917"><ele>20.333333333333336</ele><time>2026-05-02T10:32:24.139Z</time></trkpt><trkpt lat="47.7456133" lon="-2.2194867"><ele>20.0</ele><time>2026-05-02T10:32:25.14Z</time></trkpt><trkpt lat="47.7454883" lon="-2.21978"><ele>19.0</ele><time>2026-05-02T10:32:26.139Z</time></trkpt><trkpt lat="47.7453433" lon="-2.2200833"><ele>18.0</ele><time>2026-05-02T10:32:27.139Z</time></trkpt><trkpt lat="47.7451867" lon="-2.2204067"><ele>18.0</ele><time>2026-05-02T10:32:28.14Z</time></trkpt><trkpt lat="47.7450183" lon="-2.2207533"><ele>18.0</ele><time>2026-05-02T10:32:29.141Z</time></trkpt><trkpt lat="47.7448483" lon="-2.221115"><ele>18.0</ele><time>2026-05-02T10:32:30.141Z</time></trkpt><trkpt lat="47.74468" lon="-2.2214683"><ele>18.0</ele><time>2026-05-02T10:32:31.139Z</time></trkpt><trkpt lat="47.7445167" lon="-2.2217967"><ele>19.5</ele><time>2026-05-02T10:32:32.139Z</time></trkpt><trkpt lat="47.7443617" lon="-2.2221"><ele>21.0</ele><time>2026-05-02T10:32:33.142Z</time></trkpt><trkpt lat="47.7442233" lon="-2.222385"><ele>22.0</ele><time>2026-05-02T10:32:34.139Z</time></trkpt><trkpt lat="47.7440883" lon="-2.2226567"><ele>23.0</ele><time>2026-05-02T10:32:35.141Z</time></trkpt><trkpt lat="47.74396" lon="-2.2229133"><ele>24.0</ele><time>2026-05-02T10:32:36.14Z</time></trkpt><trkpt lat="47.7438467" lon="-2.2231533"><ele>24.0</ele><time>2026-05-02T10:32:37.139Z</time></trkpt><trkpt lat="47.7437367" lon="-2.223385"><ele>24.0</ele><time>2026-05-02T10:32:38.143Z</time></trkpt><trkpt lat="47.743625" lon="-2.2236183"><ele>24.0</ele><time>2026-05-02T10:32:39.139Z</time></trkpt><trkpt lat="47.7435117" lon="-2.223855"><ele>24.333333333333336</ele><time>2026-05-02T10:32:40.14Z</time></trkpt><trkpt lat="47.7433983" lon="-2.2241067"><ele>24.666666666666668</ele><time>2026-05-02T10:32:41.14Z</time></trkpt><trkpt lat="47.743285" lon="-2.2243733"><ele>25.0</ele><time>2026-05-02T10:32:42.139Z</time></trkpt><trkpt lat="47.7431767" lon="-2.2246633"><ele>25.5</ele><time>2026-05-02T10:32:43.139Z</time></trkpt><trkpt lat="47.74308" lon="-2.2249867"><ele>26.0</ele><time>2026-05-02T10:32:44.139Z</time></trkpt><trkpt lat="47.7429967" lon="-2.22534"><ele>25.5</ele><time>2026-05-02T10:32:45.14Z</time></trkpt><trkpt lat="47.7429217" lon="-2.225695"><ele>25.0</ele><time>2026-05-02T10:32:46.14Z</time></trkpt><trkpt lat="47.742855" lon="-2.22603"><ele>25.0</ele><time>2026-05-02T10:32:47.14Z</time></trkpt><trkpt lat="47.74279" lon="-2.2263417"><ele>25.0</ele><time>2026-05-02T10:32:48.139Z</time></trkpt><trkpt lat="47.74273" lon="-2.22664"><ele>25.0</ele><time>2026-05-02T10:32:49.14Z</time></trkpt><trkpt lat="47.7426717" lon="-2.2269217"><ele>25.333333333333336</ele><time>2026-05-02T10:32:50.139Z</time></trkpt><trkpt lat="47.7426183" lon="-2.2271867"><ele>25.666666666666664</ele><time>2026-05-02T10:32:51.14Z</time></trkpt><trkpt lat="47.742565" lon="-2.2274417"><ele>26.0</ele><time>2026-05-02T10:32:52.139Z</time></trkpt><trkpt lat="47.742515" lon="-2.22769"><ele>26.0</ele><time>2026-05-02T10:32:53.139Z</time></trkpt><trkpt lat="47.7424633" lon="-2.2279383"><ele>26.0</ele><time>2026-05-02T10:32:54.144Z</time></trkpt><trkpt lat="47.7424117" lon="-2.2281817"><ele>26.0</ele><time>2026-05-02T10:32:55.138Z</time></trkpt><trkpt lat="47.7423633" lon="-2.2284117"><ele>25.75</ele><time>2026-05-02T10:32:56.139Z</time></trkpt><trkpt lat="47.7423183" lon="-2.2286267"><ele>25.5</ele><time>2026-05-02T10:32:57.14Z</time></trkpt><trkpt lat="47.7422783" lon="-2.22883"><ele>25.25</ele><time>2026-05-02T10:32:58.139Z</time></trkpt><trkpt lat="47.7422417" lon="-2.2290167"><ele>25.0</ele><time>2026-05-02T10:32:59.139Z</time></trkpt><trkpt lat="47.742205" lon="-2.2291917"><ele>25.0</ele><time>2026-05-02T10:33:00.139Z</time></trkpt><trkpt lat="47.7421767" lon="-2.229355"><ele>25.0</ele><time>2026-05-02T10:33:01.139Z</time></trkpt><trkpt lat="47.7421583" lon="-2.2294933"><ele>25.0</ele><time>2026-05-02T10:33:02.14Z</time></trkpt><trkpt lat="47.7421417" lon="-2.229605"><ele>25.0</ele><time>2026-05-02T10:33:03.139Z</time></trkpt><trkpt lat="47.742095" lon="-2.2297167"><ele>25.0</ele><time>2026-05-02T10:33:05.139Z</time></trkpt><trkpt lat="47.742005" lon="-2.229685"><ele>25.0</ele><time>2026-05-02T10:33:07.14Z</time></trkpt><trkpt lat="47.7419467" lon="-2.2296233"><ele>25.0</ele><time>2026-05-02T10:33:08.14Z</time></trkpt><trkpt lat="47.7418833" lon="-2.2295467"><ele>25.0</ele><time>2026-05-02T10:33:09.141Z</time></trkpt><trkpt lat="47.7418117" lon="-2.2294467"><ele>25.0</ele><time>2026-05-02T10:33:10.14Z</time></trkpt><trkpt lat="47.74172" lon="-2.2293283"><ele>25.0</ele><time>2026-05-02T10:33:11.14Z</time></trkpt><trkpt lat="47.7416133" lon="-2.2291967"><ele>28.666666666666668</ele><time>2026-05-02T10:33:12.14Z</time></trkpt><trkpt lat="47.7414867" lon="-2.229045"><ele>32.333333333333336</ele><time>2026-05-02T10:33:13.14Z</time></trkpt><trkpt lat="47.7413567" lon="-2.228885"><ele>36.0</ele><time>2026-05-02T10:33:14.141Z</time></trkpt><trkpt lat="47.7412217" lon="-2.2287033"><ele>36.0</ele><time>2026-05-02T10:33:15.141Z</time></trkpt><trkpt lat="47.7410833" lon="-2.2284983"><ele>36.0</ele><time>2026-05-02T10:33:16.14Z</time></trkpt><trkpt lat="47.7409467" lon="-2.2282567"><ele>36.0</ele><time>2026-05-02T10:33:17.14Z</time></trkpt><trkpt lat="47.7408183" lon="-2.2280067"><ele>33.666666666666664</ele><time>2026-05-02T10:33:18.141Z</time></trkpt><trkpt lat="47.740685" lon="-2.2277483"><ele>31.333333333333332</ele><time>2026-05-02T10:33:19.141Z</time></trkpt><trkpt lat="47.7405483" lon="-2.2274983"><ele>29.0</ele><time>2026-05-02T10:33:20.141Z</time></trkpt><trkpt lat="47.7404133" lon="-2.2272667"><ele>27.666666666666664</ele><time>2026-05-02T10:33:21.142Z</time></trkpt><trkpt lat="47.7402783" lon="-2.22705"><ele>26.333333333333336</ele><time>2026-05-02T10:33:22.14Z</time></trkpt><trkpt lat="47.7401417" lon="-2.226855"><ele>25.0</ele><time>2026-05-02T10:33:23.14Z</time></trkpt><trkpt lat="47.7400133" lon="-2.2266883"><ele>25.0</ele><time>2026-05-02T10:33:24.14Z</time></trkpt><trkpt lat="47.7398883" lon="-2.2265333"><ele>25.0</ele><time>2026-05-02T10:33:25.141Z</time></trkpt><trkpt lat="47.7397817" lon="-2.2263933"><ele>25.0</ele><time>2026-05-02T10:33:26.14Z</time></trkpt><trkpt lat="47.7396933" lon="-2.2262667"><ele>25.0</ele><time>2026-05-02T10:33:27.139Z</time></trkpt><trkpt lat="47.7396267" lon="-2.2261533"><ele>25.0</ele><time>2026-05-02T10:33:28.14Z</time></trkpt><trkpt lat="47.7395717" lon="-2.22605"><ele>25.0</ele><time>2026-05-02T10:33:29.14Z</time></trkpt><trkpt lat="47.7395217" lon="-2.2259467"><ele>25.0</ele><time>2026-05-02T10:33:30.143Z</time></trkpt><trkpt lat="47.7394683" lon="-2.2258317"><ele>25.0</ele><time>2026-05-02T10:33:31.14Z</time></trkpt><trkpt lat="47.7394133" lon="-2.2256983"><ele>25.0</ele><time>2026-05-02T10:33:32.14Z</time></trkpt><trkpt lat="47.7393583" lon="-2.2255417"><ele>24.75</ele><time>2026-05-02T10:33:33.14Z</time></trkpt><trkpt lat="47.7393" lon="-2.2253583"><ele>24.5</ele><time>2026-05-02T10:33:34.14Z</time></trkpt><trkpt lat="47.7392367" lon="-2.2251567"><ele>24.25</ele><time>2026-05-02T10:33:35.141Z</time></trkpt><trkpt lat="47.7391683" lon="-2.2249383"><ele>24.0</ele><time>2026-05-02T10:33:36.141Z</time></trkpt><trkpt lat="47.7390917" lon="-2.2247"><ele>24.666666666666664</ele><time>2026-05-02T10:33:37.14Z</time></trkpt><trkpt lat="47.739005" lon="-2.224445"><ele>25.333333333333332</ele><time>2026-05-02T10:33:38.141Z</time></trkpt><trkpt lat="47.73891" lon="-2.2241917"><ele>26.0</ele><time>2026-05-02T10:33:39.14Z</time></trkpt><trkpt lat="47.7388" lon="-2.22394"><ele>26.666666666666664</ele><time>2026-05-02T10:33:40.14Z</time></trkpt><trkpt lat="47.73867" lon="-2.2236983"><ele>27.333333333333336</ele><time>2026-05-02T10:33:41.141Z</time></trkpt><trkpt lat="47.7385283" lon="-2.223465"><ele>28.0</ele><time>2026-05-02T10:33:42.139Z</time></trkpt><trkpt lat="47.7383767" lon="-2.223245"><ele>22.333333333333336</ele><time>2026-05-02T10:33:43.14Z</time></trkpt><trkpt lat="47.738235" lon="-2.2230333"><ele>16.666666666666668</ele><time>2026-05-02T10:33:44.14Z</time></trkpt><trkpt lat="47.7380967" lon="-2.2228383"><ele>11.0</ele><time>2026-05-02T10:33:45.14Z</time></trkpt><trkpt lat="47.7379733" lon="-2.22266"><ele>11.0</ele><time>2026-05-02T10:33:46.14Z</time></trkpt><trkpt lat="47.7378583" lon="-2.22249"><ele>11.0</ele><time>2026-05-02T10:33:47.141Z</time></trkpt><trkpt lat="47.7377483" lon="-2.2223283"><ele>11.0</ele><time>2026-05-02T10:33:48.141Z</time></trkpt><trkpt lat="47.737645" lon="-2.2221617"><ele>11.0</ele><time>2026-05-02T10:33:49.14Z</time></trkpt><trkpt lat="47.7375433" lon="-2.22199"><ele>11.0</ele><time>2026-05-02T10:33:50.14Z</time></trkpt><trkpt lat="47.7374483" lon="-2.2218033"><ele>11.0</ele><time>2026-05-02T10:33:51.14Z</time></trkpt><trkpt lat="47.73736" lon="-2.221605"><ele>11.0</ele><time>2026-05-02T10:33:52.139Z</time></trkpt><trkpt lat="47.7372717" lon="-2.2213967"><ele>11.0</ele><time>2026-05-02T10:33:53.14Z</time></trkpt><trkpt lat="47.7371867" lon="-2.22118"><ele>11.0</ele><time>2026-05-02T10:33:54.139Z</time></trkpt><trkpt lat="47.7371" lon="-2.2209567"><ele>11.0</ele><time>2026-05-02T10:33:55.138Z</time></trkpt><trkpt lat="47.737015" lon="-2.22073"><ele>11.0</ele><time>2026-05-02T10:33:56.14Z</time></trkpt><trkpt lat="47.7369267" lon="-2.220505"><ele>11.0</ele><time>2026-05-02T10:33:57.14Z</time></trkpt><trkpt lat="47.7368467" lon="-2.2202833"><ele>11.0</ele><time>2026-05-02T10:33:58.139Z</time></trkpt><trkpt lat="47.73677" lon="-2.220065"><ele>11.0</ele><time>2026-05-02T10:33:59.14Z</time></trkpt><trkpt lat="47.7367017" lon="-2.219845"><ele>11.0</ele><time>2026-05-02T10:34:00.14Z</time></trkpt><trkpt lat="47.73664" lon="-2.2196183"><ele>10.666666666666666</ele><time>2026-05-02T10:34:01.14Z</time></trkpt><trkpt lat="47.73658" lon="-2.219385"><ele>10.333333333333334</ele><time>2026-05-02T10:34:02.138Z</time></trkpt><trkpt lat="47.7365167" lon="-2.219145"><ele>10.0</ele><time>2026-05-02T10:34:03.14Z</time></trkpt><trkpt lat="47.736445" lon="-2.2189"><ele>10.0</ele><time>2026-05-02T10:34:04.141Z</time></trkpt><trkpt lat="47.73636" lon="-2.2186517"><ele>10.0</ele><time>2026-05-02T10:34:05.141Z</time></trkpt><trkpt lat="47.7362483" lon="-2.218395"><ele>10.0</ele><time>2026-05-02T10:34:06.14Z</time></trkpt><trkpt lat="47.7361117" lon="-2.2181283"><ele>9.5</ele><time>2026-05-02T10:34:07.142Z</time></trkpt><trkpt lat="47.7359583" lon="-2.217855"><ele>9.0</ele><time>2026-05-02T10:34:08.142Z</time></trkpt><trkpt lat="47.7358067" lon="-2.217575"><ele>8.5</ele><time>2026-05-02T10:34:09.14Z</time></trkpt><trkpt lat="47.7356683" lon="-2.2172933"><ele>8.0</ele><time>2026-05-02T10:34:10.141Z</time></trkpt><trkpt lat="47.7355383" lon="-2.2170133"><ele>8.0</ele><time>2026-05-02T10:34:11.14Z</time></trkpt><trkpt lat="47.7354133" lon="-2.2167383"><ele>8.0</ele><time>2026-05-02T10:34:12.14Z</time></trkpt><trkpt lat="47.735295" lon="-2.2164683"><ele>8.0</ele><time>2026-05-02T10:34:13.14Z</time></trkpt><trkpt lat="47.735185" lon="-2.216195"><ele>8.0</ele><time>2026-05-02T10:34:14.138Z</time></trkpt><trkpt lat="47.735085" lon="-2.2159083"><ele>8.0</ele><time>2026-05-02T10:34:15.141Z</time></trkpt><trkpt lat="47.73499" lon="-2.2156083"><ele>8.0</ele><time>2026-05-02T10:34:16.139Z</time></trkpt><trkpt lat="47.7349" lon="-2.2152983"><ele>8.0</ele><time>2026-05-02T10:34:17.142Z</time></trkpt><trkpt lat="47.734815" lon="-2.2149817"><ele>8.0</ele><time>2026-05-02T10:34:18.14Z</time></trkpt><trkpt lat="47.73473" lon="-2.2146667"><ele>8.0</ele><time>2026-05-02T10:34:19.141Z</time></trkpt><trkpt lat="47.7346467" lon="-2.2143567"><ele>8.0</ele><time>2026-05-02T10:34:20.139Z</time></trkpt><trkpt lat="47.7345733" lon="-2.2140517"><ele>8.0</ele><time>2026-05-02T10:34:21.14Z</time></trkpt><trkpt lat="47.7345083" lon="-2.213765"><ele>8.333333333333332</ele><time>2026-05-02T10:34:22.139Z</time></trkpt><trkpt lat="47.7344483" lon="-2.2134983"><ele>8.666666666666666</ele><time>2026-05-02T10:34:23.139Z</time></trkpt><trkpt lat="47.7343917" lon="-2.213255"><ele>9.0</ele><time>2026-05-02T10:34:24.139Z</time></trkpt><trkpt lat="47.734345" lon="-2.2130333"><ele>9.0</ele><time>2026-05-02T10:34:25.14Z</time></trkpt><trkpt lat="47.734305" lon="-2.2128267"><ele>9.0</ele><time>2026-05-02T10:34:26.14Z</time></trkpt><trkpt lat="47.7342667" lon="-2.2126433"><ele>9.0</ele><time>2026-05-02T10:34:27.141Z</time></trkpt><trkpt lat="47.7342333" lon="-2.2124783"><ele>9.0</ele><time>2026-05-02T10:34:28.14Z</time></trkpt><trkpt lat="47.7342017" lon="-2.2123333"><ele>9.0</ele><time>2026-05-02T10:34:29.139Z</time></trkpt><trkpt lat="47.7341767" lon="-2.2122067"><ele>9.0</ele><time>2026-05-02T10:34:30.14Z</time></trkpt><trkpt lat="47.73416" lon="-2.2121067"><ele>9.0</ele><time>2026-05-02T10:34:31.14Z</time></trkpt><trkpt lat="47.7341333" lon="-2.2119733"><ele>9.0</ele><time>2026-05-02T10:34:33.14Z</time></trkpt><trkpt lat="47.73412" lon="-2.21186"><ele>9.0</ele><time>2026-05-02T10:34:36.14Z</time></trkpt><trkpt lat="47.7341033" lon="-2.2117333"><ele>9.0</ele><time>2026-05-02T10:34:39.14Z</time></trkpt><trkpt lat="47.7340933" lon="-2.2116217"><ele>9.0</ele><time>2026-05-02T10:34:41.14Z</time></trkpt><trkpt lat="47.7340883" lon="-2.2115167"><ele>9.0</ele><time>2026-05-02T10:34:44.14Z</time></trkpt><trkpt lat="47.734135" lon="-2.211445"><ele>9.0</ele><time>2026-05-02T10:35:01.141Z</time></trkpt><trkpt lat="47.7341617" lon="-2.211565"><ele>9.0</ele><time>2026-05-02T10:35:04.139Z</time></trkpt><trkpt lat="47.7341867" lon="-2.2116667"><ele>9.0</ele><time>2026-05-02T10:35:06.139Z</time></trkpt><trkpt lat="47.7342267" lon="-2.2117633"><ele>9.0</ele><time>2026-05-02T10:35:09.14Z</time></trkpt><trkpt lat="47.7342467" lon="-2.21188"><ele>9.0</ele><time>2026-05-02T10:35:39.14Z</time></trkpt><trkpt lat="47.7342267" lon="-2.2120683"><ele>9.0</ele><time>2026-05-02T10:35:41.138Z</time></trkpt><trkpt lat="47.7342333" lon="-2.2121867"><ele>9.0</ele><time>2026-05-02T10:35:42.139Z</time></trkpt><trkpt lat="47.73425" lon="-2.21233"><ele>9.0</ele><time>2026-05-02T10:35:43.141Z</time></trkpt><trkpt lat="47.7342767" lon="-2.2125133"><ele>9.0</ele><time>2026-05-02T10:35:44.138Z</time></trkpt><trkpt lat="47.73431" lon="-2.21271"><ele>9.0</ele><time>2026-05-02T10:35:45.14Z</time></trkpt><trkpt lat="47.7343533" lon="-2.2129117"><ele>9.0</ele><time>2026-05-02T10:35:46.139Z</time></trkpt><trkpt lat="47.7343967" lon="-2.2131233"><ele>9.0</ele><time>2026-05-02T10:35:47.139Z</time></trkpt><trkpt lat="47.7344467" lon="-2.213345"><ele>9.0</ele><time>2026-05-02T10:35:48.139Z</time></trkpt><trkpt lat="47.7344983" lon="-2.2135717"><ele>9.333333333333334</ele><time>2026-05-02T10:35:49.139Z</time></trkpt><trkpt lat="47.7345583" lon="-2.2138083"><ele>9.666666666666668</ele><time>2026-05-02T10:35:50.14Z</time></trkpt><trkpt lat="47.7346133" lon="-2.2140567"><ele>10.0</ele><time>2026-05-02T10:35:51.14Z</time></trkpt><trkpt lat="47.7346717" lon="-2.2143183"><ele>9.333333333333334</ele><time>2026-05-02T10:35:52.139Z</time></trkpt><trkpt lat="47.734745" lon="-2.2145967"><ele>8.666666666666666</ele><time>2026-05-02T10:35:53.139Z</time></trkpt><trkpt lat="47.7348217" lon="-2.214885"><ele>8.0</ele><time>2026-05-02T10:35:54.139Z</time></trkpt><trkpt lat="47.7349033" lon="-2.2151783"><ele>8.0</ele><time>2026-05-02T10:35:55.139Z</time></trkpt><trkpt lat="47.734985" lon="-2.2154717"><ele>8.0</ele><time>2026-05-02T10:35:56.14Z</time></trkpt><trkpt lat="47.7350667" lon="-2.2157517"><ele>8.0</ele><time>2026-05-02T10:35:57.14Z</time></trkpt><trkpt lat="47.7351467" lon="-2.2160033"><ele>8.0</ele><time>2026-05-02T10:35:58.139Z</time></trkpt><trkpt lat="47.735225" lon="-2.2162233"><ele>8.0</ele><time>2026-05-02T10:35:59.139Z</time></trkpt><trkpt lat="47.7352983" lon="-2.21641"><ele>8.0</ele><time>2026-05-02T10:36:00.14Z</time></trkpt><trkpt lat="47.735365" lon="-2.2165717"><ele>8.0</ele><time>2026-05-02T10:36:01.139Z</time></trkpt><trkpt lat="47.7354233" lon="-2.2167067"><ele>7.999999999999999</ele><time>2026-05-02T10:36:02.139Z</time></trkpt><trkpt lat="47.735475" lon="-2.2168167"><ele>8.0</ele><time>2026-05-02T10:36:03.139Z</time></trkpt><trkpt lat="47.73551" lon="-2.2168983"><ele>8.0</ele><time>2026-05-02T10:36:04.139Z</time></trkpt><trkpt lat="47.7355667" lon="-2.21695"><ele>8.0</ele><time>2026-05-02T10:36:08.139Z</time></trkpt><trkpt lat="47.7356483" lon="-2.2169"><ele>7.999999999999999</ele><time>2026-05-02T10:36:45.14Z</time></trkpt><trkpt lat="47.7357267" lon="-2.2168717"><ele>8.0</ele><time>2026-05-02T10:36:47.139Z</time></trkpt><trkpt lat="47.735805" lon="-2.2168383"><ele>7.999999999999999</ele><time>2026-05-02T10:36:49.139Z</time></trkpt><trkpt lat="47.73588" lon="-2.2168117"><ele>8.0</ele><time>2026-05-02T10:36:51.14Z</time></trkpt><trkpt lat="47.7359517" lon="-2.2167983"><ele>8.0</ele><time>2026-05-02T10:36:53.139Z</time></trkpt><trkpt lat="47.736025" lon="-2.216775"><ele>8.0</ele><time>2026-05-02T10:36:55.139Z</time></trkpt><trkpt lat="47.7361017" lon="-2.21675"><ele>7.999999999999999</ele><time>2026-05-02T10:36:57.14Z</time></trkpt><trkpt lat="47.7361883" lon="-2.2167283"><ele>8.0</ele><time>2026-05-02T10:36:59.139Z</time></trkpt><trkpt lat="47.7362867" lon="-2.216705"><ele>8.4</ele><time>2026-05-02T10:37:01.14Z</time></trkpt><trkpt lat="47.7363767" lon="-2.2166683"><ele>8.8</ele><time>2026-05-02T10:37:03.14Z</time></trkpt><trkpt lat="47.7364883" lon="-2.2166317"><ele>9.2</ele><time>2026-05-02T10:37:05.139Z</time></trkpt><trkpt lat="47.7366017" lon="-2.2165883"><ele>9.6</ele><time>2026-05-02T10:37:07.14Z</time></trkpt><trkpt lat="47.7367217" lon="-2.21655"><ele>10.0</ele><time>2026-05-02T10:37:09.141Z</time></trkpt><trkpt lat="47.7367833" lon="-2.2165267"><ele>10.5</ele><time>2026-05-02T10:37:10.139Z</time></trkpt><trkpt lat="47.7369017" lon="-2.2164917"><ele>11.0</ele><time>2026-05-02T10:37:12.14Z</time></trkpt><trkpt lat="47.7370233" lon="-2.2164467"><ele>11.5</ele><time>2026-05-02T10:37:14.14Z</time></trkpt><trkpt lat="47.7371433" lon="-2.2164117"><ele>12.0</ele><time>2026-05-02T10:37:16.141Z</time></trkpt><trkpt lat="47.7372633" lon="-2.2163633"><ele>12.0</ele><time>2026-05-02T10:37:18.141Z</time></trkpt><trkpt lat="47.7373783" lon="-2.2163183"><ele>12.0</ele><time>2026-05-02T10:37:20.14Z</time></trkpt><trkpt lat="47.7374783" lon="-2.2162833"><ele>12.0</ele><time>2026-05-02T10:37:22.14Z</time></trkpt><trkpt lat="47.7375483" lon="-2.216275"><ele>12.0</ele><time>2026-05-02T10:37:24.139Z</time></trkpt><trkpt lat="47.7376217" lon="-2.2163167"><ele>12.0</ele><time>2026-05-02T10:37:27.14Z</time></trkpt><trkpt lat="47.7377" lon="-2.2162983"><ele>12.8</ele><time>2026-05-02T10:37:29.14Z</time></trkpt><trkpt lat="47.7378" lon="-2.2162717"><ele>13.6</ele><time>2026-05-02T10:37:31.141Z</time></trkpt><trkpt lat="47.7379017" lon="-2.2162433"><ele>14.400000000000002</ele><time>2026-05-02T10:37:33.14Z</time></trkpt><trkpt lat="47.738005" lon="-2.2162"><ele>15.200000000000001</ele><time>2026-05-02T10:37:35.14Z</time></trkpt><trkpt lat="47.7381067" lon="-2.2161667"><ele>16.0</ele><time>2026-05-02T10:37:37.14Z</time></trkpt><trkpt lat="47.7382017" lon="-2.216135"><ele>15.999999999999998</ele><time>2026-05-02T10:37:39.14Z</time></trkpt><trkpt lat="47.73829" lon="-2.2161033"><ele>16.0</ele><time>2026-05-02T10:37:41.14Z</time></trkpt><trkpt lat="47.73837" lon="-2.2160817"><ele>16.0</ele><time>2026-05-02T10:37:43.141Z</time></trkpt><trkpt lat="47.738435" lon="-2.2160567"><ele>16.0</ele><time>2026-05-02T10:37:46.139Z</time></trkpt><trkpt lat="47.73844" lon="-2.2159267"><ele>15.999999999999998</ele><time>2026-05-02T10:37:50.139Z</time></trkpt><trkpt lat="47.7384167" lon="-2.2158083"><ele>16.0</ele><time>2026-05-02T10:37:52.142Z</time></trkpt><trkpt lat="47.7383917" lon="-2.21566"><ele>17.0</ele><time>2026-05-02T10:37:54.142Z</time></trkpt><trkpt lat="47.73836" lon="-2.2155067"><ele>18.0</ele><time>2026-05-02T10:37:56.141Z</time></trkpt><trkpt lat="47.7383283" lon="-2.2153467"><ele>19.0</ele><time>2026-05-02T10:37:58.14Z</time></trkpt><trkpt lat="47.7382967" lon="-2.2151717"><ele>20.0</ele><time>2026-05-02T10:38:00.14Z</time></trkpt><trkpt lat="47.738275" lon="-2.2149967"><ele>20.333333333333336</ele><time>2026-05-02T10:38:02.14Z</time></trkpt><trkpt lat="47.7382617" lon="-2.2148117"><ele>20.666666666666668</ele><time>2026-05-02T10:38:04.141Z</time></trkpt><trkpt lat="47.7382533" lon="-2.2147133"><ele>21.0</ele><time>2026-05-02T10:38:05.14Z</time></trkpt><trkpt lat="47.7382467" lon="-2.2146133"><ele>21.333333333333332</ele><time>2026-05-02T10:38:06.141Z</time></trkpt><trkpt lat="47.7382517" lon="-2.2145133"><ele>21.666666666666664</ele><time>2026-05-02T10:38:07.141Z</time></trkpt><trkpt lat="47.7382517" lon="-2.2144083"><ele>22.0</ele><time>2026-05-02T10:38:08.141Z</time></trkpt><trkpt lat="47.7382533" lon="-2.2143017"><ele>22.0</ele><time>2026-05-02T10:38:09.141Z</time></trkpt><trkpt lat="47.7382517" lon="-2.2141933"><ele>22.0</ele><time>2026-05-02T10:38:10.141Z</time></trkpt><trkpt lat="47.73825" lon="-2.2140783"><ele>22.0</ele><time>2026-05-02T10:38:11.14Z</time></trkpt><trkpt lat="47.7382483" lon="-2.213965"><ele>22.0</ele><time>2026-05-02T10:38:12.141Z</time></trkpt><trkpt lat="47.73825" lon="-2.2138567"><ele>22.0</ele><time>2026-05-02T10:38:13.141Z</time></trkpt><trkpt lat="47.7382567" lon="-2.2137433"><ele>22.0</ele><time>2026-05-02T10:38:14.141Z</time></trkpt><trkpt lat="47.738265" lon="-2.21363"><ele>23.666666666666664</ele><time>2026-05-02T10:38:15.141Z</time></trkpt><trkpt lat="47.7382717" lon="-2.21351"><ele>25.333333333333332</ele><time>2026-05-02T10:38:16.141Z</time></trkpt><trkpt lat="47.738285" lon="-2.2133833"><ele>27.0</ele><time>2026-05-02T10:38:17.141Z</time></trkpt><trkpt lat="47.7382967" lon="-2.2132483"><ele>28.666666666666664</ele><time>2026-05-02T10:38:18.139Z</time></trkpt><trkpt lat="47.73831" lon="-2.2131183"><ele>30.333333333333332</ele><time>2026-05-02T10:38:19.139Z</time></trkpt><trkpt lat="47.7383283" lon="-2.2129883"><ele>32.0</ele><time>2026-05-02T10:38:20.14Z</time></trkpt><trkpt lat="47.7383467" lon="-2.2128717"><ele>32.5</ele><time>2026-05-02T10:38:21.14Z</time></trkpt><trkpt lat="47.73836" lon="-2.2127683"><ele>33.0</ele><time>2026-05-02T10:38:22.139Z</time></trkpt><trkpt lat="47.7383767" lon="-2.2126283"><ele>33.5</ele><time>2026-05-02T10:38:24.142Z</time></trkpt><trkpt lat="47.7383983" lon="-2.2125117"><ele>34.0</ele><time>2026-05-02T10:38:27.141Z</time></trkpt><trkpt lat="47.738435" lon="-2.2124233"><ele>34.5</ele><time>2026-05-02T10:38:39.141Z</time></trkpt><trkpt lat="47.7385383" lon="-2.2124333"><ele>35.0</ele><time>2026-05-02T10:38:42.14Z</time></trkpt><trkpt lat="47.738625" lon="-2.2124467"><ele>37.0</ele><time>2026-05-02T10:38:44.139Z</time></trkpt><trkpt lat="47.73871" lon="-2.2124483"><ele>37.0</ele><time>2026-05-02T10:38:47.141Z</time></trkpt><trkpt lat="47.738785" lon="-2.21246"><ele>37.0</ele><time>2026-05-02T10:38:50.14Z</time></trkpt><trkpt lat="47.7388333" lon="-2.2125383"><ele>37.0</ele><time>2026-05-02T10:38:54.139Z</time></trkpt><trkpt lat="47.73888" lon="-2.212605"><ele>37.0</ele><time>2026-05-02T10:38:58.139Z</time></trkpt></trkseg></trk></gpx>